<?xml version="1.0" encoding="UTF-8" standalone="no" ?>
<gpx xmlns="http://www.topografix.com/GPX/1/1" xmlns:xsi="http://www.w3.org/2001/XMLSchema-instance" xsi:schemaLocation="http://www.topografix.com/GPX/1/1 http://www.topografix.com/GPX/1/1/gpx.xsd" version="1.1" creator="VisuGPX - https://www.visugpx.com">
  <metadata>
    <name>Classique+ErmitageStPierre+FontaineDesGours+ValatNoir</name>
    <desc><![CDATA[Belle bouclette sur les rives de la Dourbie avec deux bonus a faire à pied .]]></desc>
  </metadata>
  <wpt lat="44.11428" lon="3.1993">
    <ele>725.8</ele>
    <name><![CDATA[Boucle a faire à pieds]]></name>
    <type><![CDATA[star]]></type>
  </wpt>
  <wpt lat="44.11159" lon="3.20694">
    <ele>596.8</ele>
    <name><![CDATA[Boucle a faire à pieds]]></name>
    <type><![CDATA[star]]></type>
  </wpt>
  <trk>
    <name><![CDATA[Mica's Classic]]></name>
    <desc><![CDATA[Remonté du Riou Sec par la route (D110)]]></desc>
    <extensions>
      <line xmlns="http://www.topografix.com/GPX/gpx_style/0/2">
        <color>0000FF</color>
        <width>4</width>
          <extensions>
            <sens>1</sens>
          </extensions>
      </line>
    </extensions>
    <trkseg>
      <trkpt lat="44.09699" lon="3.07086">
        <ele>378.6</ele>
        <time>2024-02-17T10:33:36Z</time>
      </trkpt>
      <trkpt lat="44.09707" lon="3.07091">
        <ele>378.1</ele>
        <time>2024-02-17T10:33:39Z</time>
      </trkpt>
      <trkpt lat="44.09718" lon="3.071">
        <ele>377.6</ele>
        <time>2024-02-17T10:33:42Z</time>
      </trkpt>
      <trkpt lat="44.09727" lon="3.0711">
        <ele>377.2</ele>
        <time>2024-02-17T10:33:44Z</time>
      </trkpt>
      <trkpt lat="44.0973" lon="3.07124">
        <ele>376.8</ele>
        <time>2024-02-17T10:33:46Z</time>
      </trkpt>
      <trkpt lat="44.09727" lon="3.07141">
        <ele>376</ele>
        <time>2024-02-17T10:33:48Z</time>
      </trkpt>
      <trkpt lat="44.09723" lon="3.0716">
        <ele>373.8</ele>
        <time>2024-02-17T10:33:50Z</time>
      </trkpt>
      <trkpt lat="44.09718" lon="3.07179">
        <ele>372.9</ele>
        <time>2024-02-17T10:33:52Z</time>
      </trkpt>
      <trkpt lat="44.09713" lon="3.07198">
        <ele>372.6</ele>
        <time>2024-02-17T10:33:54Z</time>
      </trkpt>
      <trkpt lat="44.09706" lon="3.07217">
        <ele>372.1</ele>
        <time>2024-02-17T10:33:56Z</time>
      </trkpt>
      <trkpt lat="44.09694" lon="3.07252">
        <ele>371.9</ele>
        <time>2024-02-17T10:33:59Z</time>
      </trkpt>
      <trkpt lat="44.09691" lon="3.07273">
        <ele>371.2</ele>
        <time>2024-02-17T10:34:02Z</time>
      </trkpt>
      <trkpt lat="44.09699" lon="3.07282">
        <ele>371</ele>
        <time>2024-02-17T10:34:04Z</time>
      </trkpt>
      <trkpt lat="44.09709" lon="3.07287">
        <ele>371.2</ele>
        <time>2024-02-17T10:34:06Z</time>
      </trkpt>
      <trkpt lat="44.0972" lon="3.07293">
        <ele>371.4</ele>
        <time>2024-02-17T10:34:08Z</time>
      </trkpt>
      <trkpt lat="44.09731" lon="3.07299">
        <ele>371.6</ele>
        <time>2024-02-17T10:34:10Z</time>
      </trkpt>
      <trkpt lat="44.09741" lon="3.07306">
        <ele>371.7</ele>
        <time>2024-02-17T10:34:12Z</time>
      </trkpt>
      <trkpt lat="44.09752" lon="3.07312">
        <ele>371.8</ele>
        <time>2024-02-17T10:34:14Z</time>
      </trkpt>
      <trkpt lat="44.09763" lon="3.07319">
        <ele>372</ele>
        <time>2024-02-17T10:34:16Z</time>
      </trkpt>
      <trkpt lat="44.09773" lon="3.07325">
        <ele>372.5</ele>
        <time>2024-02-17T10:34:18Z</time>
      </trkpt>
      <trkpt lat="44.09785" lon="3.07331">
        <ele>373.2</ele>
        <time>2024-02-17T10:34:20Z</time>
      </trkpt>
      <trkpt lat="44.09796" lon="3.07337">
        <ele>373.5</ele>
        <time>2024-02-17T10:34:22Z</time>
      </trkpt>
      <trkpt lat="44.09807" lon="3.07343">
        <ele>373.7</ele>
        <time>2024-02-17T10:34:24Z</time>
      </trkpt>
      <trkpt lat="44.09818" lon="3.07348">
        <ele>373.9</ele>
        <time>2024-02-17T10:34:26Z</time>
      </trkpt>
      <trkpt lat="44.0983" lon="3.07354">
        <ele>374.1</ele>
        <time>2024-02-17T10:34:28Z</time>
      </trkpt>
      <trkpt lat="44.09842" lon="3.07361">
        <ele>374</ele>
        <time>2024-02-17T10:34:30Z</time>
      </trkpt>
      <trkpt lat="44.09852" lon="3.07367">
        <ele>373.8</ele>
        <time>2024-02-17T10:34:32Z</time>
      </trkpt>
      <trkpt lat="44.09865" lon="3.07376">
        <ele>373.6</ele>
        <time>2024-02-17T10:34:34Z</time>
      </trkpt>
      <trkpt lat="44.09877" lon="3.07382">
        <ele>373.8</ele>
        <time>2024-02-17T10:34:36Z</time>
      </trkpt>
      <trkpt lat="44.09889" lon="3.07389">
        <ele>374</ele>
        <time>2024-02-17T10:34:38Z</time>
      </trkpt>
      <trkpt lat="44.09901" lon="3.07396">
        <ele>373.5</ele>
        <time>2024-02-17T10:34:40Z</time>
      </trkpt>
      <trkpt lat="44.09913" lon="3.07402">
        <ele>373.4</ele>
        <time>2024-02-17T10:34:42Z</time>
      </trkpt>
      <trkpt lat="44.09925" lon="3.07409">
        <ele>373.6</ele>
        <time>2024-02-17T10:34:44Z</time>
      </trkpt>
      <trkpt lat="44.09939" lon="3.07417">
        <ele>373.8</ele>
        <time>2024-02-17T10:34:46Z</time>
      </trkpt>
      <trkpt lat="44.09953" lon="3.07425">
        <ele>373.8</ele>
        <time>2024-02-17T10:34:48Z</time>
      </trkpt>
      <trkpt lat="44.09966" lon="3.07434">
        <ele>374</ele>
        <time>2024-02-17T10:34:50Z</time>
      </trkpt>
      <trkpt lat="44.09979" lon="3.07442">
        <ele>374.1</ele>
        <time>2024-02-17T10:34:52Z</time>
      </trkpt>
      <trkpt lat="44.09991" lon="3.0745">
        <ele>373.9</ele>
        <time>2024-02-17T10:34:54Z</time>
      </trkpt>
      <trkpt lat="44.10003" lon="3.07458">
        <ele>374</ele>
        <time>2024-02-17T10:34:56Z</time>
      </trkpt>
      <trkpt lat="44.10016" lon="3.07466">
        <ele>374</ele>
        <time>2024-02-17T10:34:58Z</time>
      </trkpt>
      <trkpt lat="44.10028" lon="3.07472">
        <ele>374</ele>
        <time>2024-02-17T10:35:00Z</time>
      </trkpt>
      <trkpt lat="44.1004" lon="3.07478">
        <ele>373.8</ele>
        <time>2024-02-17T10:35:02Z</time>
      </trkpt>
      <trkpt lat="44.10051" lon="3.07486">
        <ele>373.5</ele>
        <time>2024-02-17T10:35:04Z</time>
      </trkpt>
      <trkpt lat="44.10062" lon="3.07491">
        <ele>373.6</ele>
        <time>2024-02-17T10:35:06Z</time>
      </trkpt>
      <trkpt lat="44.10072" lon="3.07497">
        <ele>374.2</ele>
        <time>2024-02-17T10:35:08Z</time>
      </trkpt>
      <trkpt lat="44.10083" lon="3.07503">
        <ele>374.7</ele>
        <time>2024-02-17T10:35:10Z</time>
      </trkpt>
      <trkpt lat="44.10093" lon="3.0751">
        <ele>373.9</ele>
        <time>2024-02-17T10:35:12Z</time>
      </trkpt>
      <trkpt lat="44.10103" lon="3.07517">
        <ele>373.8</ele>
        <time>2024-02-17T10:35:14Z</time>
      </trkpt>
      <trkpt lat="44.10112" lon="3.07525">
        <ele>374.1</ele>
        <time>2024-02-17T10:35:16Z</time>
      </trkpt>
      <trkpt lat="44.10123" lon="3.0753">
        <ele>374.8</ele>
        <time>2024-02-17T10:35:18Z</time>
      </trkpt>
      <trkpt lat="44.10135" lon="3.07534">
        <ele>375.5</ele>
        <time>2024-02-17T10:35:20Z</time>
      </trkpt>
      <trkpt lat="44.10144" lon="3.07538">
        <ele>375.7</ele>
        <time>2024-02-17T10:35:22Z</time>
      </trkpt>
      <trkpt lat="44.10151" lon="3.07554">
        <ele>375.5</ele>
        <time>2024-02-17T10:35:25Z</time>
      </trkpt>
      <trkpt lat="44.10145" lon="3.07573">
        <ele>374.6</ele>
        <time>2024-02-17T10:35:27Z</time>
      </trkpt>
      <trkpt lat="44.10137" lon="3.07607">
        <ele>373.9</ele>
        <time>2024-02-17T10:35:31Z</time>
      </trkpt>
      <trkpt lat="44.10132" lon="3.07629">
        <ele>373.8</ele>
        <time>2024-02-17T10:35:34Z</time>
      </trkpt>
      <trkpt lat="44.10128" lon="3.07648">
        <ele>373.6</ele>
        <time>2024-02-17T10:35:36Z</time>
      </trkpt>
      <trkpt lat="44.10125" lon="3.07666">
        <ele>373.5</ele>
        <time>2024-02-17T10:35:39Z</time>
      </trkpt>
      <trkpt lat="44.10121" lon="3.07681">
        <ele>373.2</ele>
        <time>2024-02-17T10:35:41Z</time>
      </trkpt>
      <trkpt lat="44.10117" lon="3.07697">
        <ele>373</ele>
        <time>2024-02-17T10:35:43Z</time>
      </trkpt>
      <trkpt lat="44.10111" lon="3.07716">
        <ele>373</ele>
        <time>2024-02-17T10:35:45Z</time>
      </trkpt>
      <trkpt lat="44.10107" lon="3.07733">
        <ele>372.9</ele>
        <time>2024-02-17T10:35:48Z</time>
      </trkpt>
      <trkpt lat="44.10102" lon="3.07747">
        <ele>373</ele>
        <time>2024-02-17T10:35:50Z</time>
      </trkpt>
      <trkpt lat="44.10101" lon="3.0776">
        <ele>373</ele>
        <time>2024-02-17T10:36:29Z</time>
      </trkpt>
      <trkpt lat="44.10107" lon="3.0777">
        <ele>373</ele>
        <time>2024-02-17T10:36:33Z</time>
      </trkpt>
      <trkpt lat="44.10115" lon="3.07777">
        <ele>373</ele>
        <time>2024-02-17T10:36:37Z</time>
      </trkpt>
      <trkpt lat="44.10118" lon="3.07791">
        <ele>373</ele>
        <time>2024-02-17T10:36:39Z</time>
      </trkpt>
      <trkpt lat="44.10118" lon="3.07806">
        <ele>373</ele>
        <time>2024-02-17T10:36:41Z</time>
      </trkpt>
      <trkpt lat="44.10117" lon="3.07821">
        <ele>373</ele>
        <time>2024-02-17T10:36:43Z</time>
      </trkpt>
      <trkpt lat="44.10115" lon="3.07836">
        <ele>373</ele>
        <time>2024-02-17T10:36:45Z</time>
      </trkpt>
      <trkpt lat="44.10111" lon="3.07853">
        <ele>373</ele>
        <time>2024-02-17T10:36:47Z</time>
      </trkpt>
      <trkpt lat="44.10109" lon="3.07868">
        <ele>373</ele>
        <time>2024-02-17T10:36:49Z</time>
      </trkpt>
      <trkpt lat="44.10107" lon="3.07883">
        <ele>372.9</ele>
        <time>2024-02-17T10:36:51Z</time>
      </trkpt>
      <trkpt lat="44.10105" lon="3.07895">
        <ele>372.7</ele>
        <time>2024-02-17T10:36:54Z</time>
      </trkpt>
      <trkpt lat="44.10097" lon="3.07904">
        <ele>372.5</ele>
        <time>2024-02-17T10:36:59Z</time>
      </trkpt>
      <trkpt lat="44.10086" lon="3.07905">
        <ele>372.6</ele>
        <time>2024-02-17T10:37:03Z</time>
      </trkpt>
      <trkpt lat="44.10085" lon="3.07922">
        <ele>373</ele>
        <time>2024-02-17T10:37:06Z</time>
      </trkpt>
      <trkpt lat="44.10086" lon="3.07938">
        <ele>373</ele>
        <time>2024-02-17T10:37:09Z</time>
      </trkpt>
      <trkpt lat="44.10087" lon="3.07956">
        <ele>373</ele>
        <time>2024-02-17T10:37:12Z</time>
      </trkpt>
      <trkpt lat="44.10087" lon="3.07973">
        <ele>373</ele>
        <time>2024-02-17T10:37:14Z</time>
      </trkpt>
      <trkpt lat="44.10086" lon="3.0799">
        <ele>373</ele>
        <time>2024-02-17T10:37:16Z</time>
      </trkpt>
      <trkpt lat="44.10087" lon="3.08006">
        <ele>373</ele>
        <time>2024-02-17T10:37:18Z</time>
      </trkpt>
      <trkpt lat="44.10089" lon="3.0802">
        <ele>373</ele>
        <time>2024-02-17T10:37:20Z</time>
      </trkpt>
      <trkpt lat="44.1009" lon="3.08033">
        <ele>372.8</ele>
        <time>2024-02-17T10:37:22Z</time>
      </trkpt>
      <trkpt lat="44.10085" lon="3.08055">
        <ele>372</ele>
        <time>2024-02-17T10:37:25Z</time>
      </trkpt>
      <trkpt lat="44.10082" lon="3.08073">
        <ele>371.4</ele>
        <time>2024-02-17T10:37:28Z</time>
      </trkpt>
      <trkpt lat="44.1008" lon="3.08095">
        <ele>370.2</ele>
        <time>2024-02-17T10:37:31Z</time>
      </trkpt>
      <trkpt lat="44.10085" lon="3.08109">
        <ele>369.1</ele>
        <time>2024-02-17T10:37:38Z</time>
      </trkpt>
      <trkpt lat="44.1009" lon="3.0812">
        <ele>368.2</ele>
        <time>2024-02-17T10:37:41Z</time>
      </trkpt>
      <trkpt lat="44.10101" lon="3.08122">
        <ele>367.8</ele>
        <time>2024-02-17T10:37:44Z</time>
      </trkpt>
      <trkpt lat="44.10104" lon="3.08138">
        <ele>367</ele>
        <time>2024-02-17T10:37:50Z</time>
      </trkpt>
      <trkpt lat="44.10112" lon="3.0815">
        <ele>366.2</ele>
        <time>2024-02-17T10:37:52Z</time>
      </trkpt>
      <trkpt lat="44.1012" lon="3.0816">
        <ele>365.6</ele>
        <time>2024-02-17T10:37:54Z</time>
      </trkpt>
      <trkpt lat="44.10127" lon="3.08172">
        <ele>365.1</ele>
        <time>2024-02-17T10:37:56Z</time>
      </trkpt>
      <trkpt lat="44.10136" lon="3.08189">
        <ele>364.8</ele>
        <time>2024-02-17T10:37:58Z</time>
      </trkpt>
      <trkpt lat="44.10144" lon="3.0821">
        <ele>363.9</ele>
        <time>2024-02-17T10:38:01Z</time>
      </trkpt>
      <trkpt lat="44.10148" lon="3.08234">
        <ele>362.6</ele>
        <time>2024-02-17T10:38:03Z</time>
      </trkpt>
      <trkpt lat="44.10152" lon="3.08274">
        <ele>362</ele>
        <time>2024-02-17T10:38:07Z</time>
      </trkpt>
      <trkpt lat="44.10159" lon="3.08321">
        <ele>362.2</ele>
        <time>2024-02-17T10:38:11Z</time>
      </trkpt>
      <trkpt lat="44.10164" lon="3.08351">
        <ele>361.9</ele>
        <time>2024-02-17T10:38:14Z</time>
      </trkpt>
      <trkpt lat="44.10168" lon="3.08378">
        <ele>361.9</ele>
        <time>2024-02-17T10:38:16Z</time>
      </trkpt>
      <trkpt lat="44.10171" lon="3.08419">
        <ele>361.6</ele>
        <time>2024-02-17T10:38:20Z</time>
      </trkpt>
      <trkpt lat="44.10175" lon="3.08459">
        <ele>360.4</ele>
        <time>2024-02-17T10:38:24Z</time>
      </trkpt>
      <trkpt lat="44.10178" lon="3.08497">
        <ele>360.5</ele>
        <time>2024-02-17T10:38:28Z</time>
      </trkpt>
      <trkpt lat="44.10182" lon="3.0852">
        <ele>360.4</ele>
        <time>2024-02-17T10:38:31Z</time>
      </trkpt>
      <trkpt lat="44.10185" lon="3.08536">
        <ele>360.5</ele>
        <time>2024-02-17T10:38:33Z</time>
      </trkpt>
      <trkpt lat="44.10185" lon="3.08551">
        <ele>360.9</ele>
        <time>2024-02-17T10:38:35Z</time>
      </trkpt>
      <trkpt lat="44.1018" lon="3.08566">
        <ele>361.4</ele>
        <time>2024-02-17T10:38:37Z</time>
      </trkpt>
      <trkpt lat="44.10177" lon="3.08581">
        <ele>361.9</ele>
        <time>2024-02-17T10:38:39Z</time>
      </trkpt>
      <trkpt lat="44.10181" lon="3.08596">
        <ele>359.9</ele>
        <time>2024-02-17T10:38:41Z</time>
      </trkpt>
      <trkpt lat="44.10189" lon="3.08606">
        <ele>357.1</ele>
        <time>2024-02-17T10:38:43Z</time>
      </trkpt>
      <trkpt lat="44.102" lon="3.08613">
        <ele>354.4</ele>
        <time>2024-02-17T10:38:46Z</time>
      </trkpt>
      <trkpt lat="44.10202" lon="3.08631">
        <ele>352.9</ele>
        <time>2024-02-17T10:38:49Z</time>
      </trkpt>
      <trkpt lat="44.10202" lon="3.08645">
        <ele>352.3</ele>
        <time>2024-02-17T10:38:51Z</time>
      </trkpt>
      <trkpt lat="44.10202" lon="3.08659">
        <ele>352.3</ele>
        <time>2024-02-17T10:38:53Z</time>
      </trkpt>
      <trkpt lat="44.10204" lon="3.08673">
        <ele>352.3</ele>
        <time>2024-02-17T10:38:55Z</time>
      </trkpt>
      <trkpt lat="44.10205" lon="3.08686">
        <ele>352.4</ele>
        <time>2024-02-17T10:38:57Z</time>
      </trkpt>
      <trkpt lat="44.10206" lon="3.087">
        <ele>353.5</ele>
        <time>2024-02-17T10:38:59Z</time>
      </trkpt>
      <trkpt lat="44.10208" lon="3.08715">
        <ele>356.5</ele>
        <time>2024-02-17T10:39:01Z</time>
      </trkpt>
      <trkpt lat="44.10214" lon="3.08729">
        <ele>358.3</ele>
        <time>2024-02-17T10:39:03Z</time>
      </trkpt>
      <trkpt lat="44.10223" lon="3.08741">
        <ele>358.6</ele>
        <time>2024-02-17T10:39:05Z</time>
      </trkpt>
      <trkpt lat="44.10232" lon="3.08751">
        <ele>358.2</ele>
        <time>2024-02-17T10:39:07Z</time>
      </trkpt>
      <trkpt lat="44.10243" lon="3.0876">
        <ele>357.8</ele>
        <time>2024-02-17T10:39:09Z</time>
      </trkpt>
      <trkpt lat="44.10254" lon="3.08772">
        <ele>357.5</ele>
        <time>2024-02-17T10:39:11Z</time>
      </trkpt>
      <trkpt lat="44.10264" lon="3.08787">
        <ele>356.5</ele>
        <time>2024-02-17T10:39:13Z</time>
      </trkpt>
      <trkpt lat="44.10274" lon="3.08805">
        <ele>354.9</ele>
        <time>2024-02-17T10:39:15Z</time>
      </trkpt>
      <trkpt lat="44.10284" lon="3.08821">
        <ele>355.8</ele>
        <time>2024-02-17T10:39:17Z</time>
      </trkpt>
      <trkpt lat="44.10292" lon="3.08835">
        <ele>356.5</ele>
        <time>2024-02-17T10:39:19Z</time>
      </trkpt>
      <trkpt lat="44.10299" lon="3.08848">
        <ele>356.9</ele>
        <time>2024-02-17T10:39:21Z</time>
      </trkpt>
      <trkpt lat="44.10304" lon="3.0886">
        <ele>357</ele>
        <time>2024-02-17T10:39:23Z</time>
      </trkpt>
      <trkpt lat="44.10308" lon="3.08874">
        <ele>357.1</ele>
        <time>2024-02-17T10:39:25Z</time>
      </trkpt>
      <trkpt lat="44.10311" lon="3.0889">
        <ele>357.2</ele>
        <time>2024-02-17T10:39:27Z</time>
      </trkpt>
      <trkpt lat="44.10313" lon="3.08906">
        <ele>357.3</ele>
        <time>2024-02-17T10:39:29Z</time>
      </trkpt>
      <trkpt lat="44.10317" lon="3.08922">
        <ele>357.4</ele>
        <time>2024-02-17T10:39:31Z</time>
      </trkpt>
      <trkpt lat="44.1032" lon="3.08938">
        <ele>357.5</ele>
        <time>2024-02-17T10:39:33Z</time>
      </trkpt>
      <trkpt lat="44.10322" lon="3.08953">
        <ele>357.6</ele>
        <time>2024-02-17T10:39:35Z</time>
      </trkpt>
      <trkpt lat="44.10325" lon="3.08968">
        <ele>357.7</ele>
        <time>2024-02-17T10:39:37Z</time>
      </trkpt>
      <trkpt lat="44.10327" lon="3.08983">
        <ele>357.8</ele>
        <time>2024-02-17T10:39:39Z</time>
      </trkpt>
      <trkpt lat="44.10326" lon="3.08998">
        <ele>357.7</ele>
        <time>2024-02-17T10:39:41Z</time>
      </trkpt>
      <trkpt lat="44.10325" lon="3.09015">
        <ele>358.2</ele>
        <time>2024-02-17T10:39:43Z</time>
      </trkpt>
      <trkpt lat="44.10322" lon="3.0903">
        <ele>358.6</ele>
        <time>2024-02-17T10:39:45Z</time>
      </trkpt>
      <trkpt lat="44.10319" lon="3.09045">
        <ele>358.8</ele>
        <time>2024-02-17T10:39:47Z</time>
      </trkpt>
      <trkpt lat="44.10314" lon="3.09058">
        <ele>358.7</ele>
        <time>2024-02-17T10:39:49Z</time>
      </trkpt>
      <trkpt lat="44.10309" lon="3.0907">
        <ele>358.4</ele>
        <time>2024-02-17T10:39:51Z</time>
      </trkpt>
      <trkpt lat="44.10303" lon="3.09082">
        <ele>357.9</ele>
        <time>2024-02-17T10:39:53Z</time>
      </trkpt>
      <trkpt lat="44.10299" lon="3.09095">
        <ele>358.8</ele>
        <time>2024-02-17T10:39:55Z</time>
      </trkpt>
      <trkpt lat="44.10292" lon="3.0911">
        <ele>359.5</ele>
        <time>2024-02-17T10:39:58Z</time>
      </trkpt>
      <trkpt lat="44.10286" lon="3.09123">
        <ele>359.9</ele>
        <time>2024-02-17T10:40:00Z</time>
      </trkpt>
      <trkpt lat="44.10281" lon="3.09136">
        <ele>360.2</ele>
        <time>2024-02-17T10:40:02Z</time>
      </trkpt>
      <trkpt lat="44.10275" lon="3.09148">
        <ele>360.3</ele>
        <time>2024-02-17T10:40:04Z</time>
      </trkpt>
      <trkpt lat="44.10269" lon="3.09159">
        <ele>360.2</ele>
        <time>2024-02-17T10:40:06Z</time>
      </trkpt>
      <trkpt lat="44.10264" lon="3.09169">
        <ele>360.1</ele>
        <time>2024-02-17T10:40:08Z</time>
      </trkpt>
      <trkpt lat="44.10257" lon="3.09181">
        <ele>359.7</ele>
        <time>2024-02-17T10:40:11Z</time>
      </trkpt>
      <trkpt lat="44.10248" lon="3.09193">
        <ele>359.7</ele>
        <time>2024-02-17T10:40:14Z</time>
      </trkpt>
      <trkpt lat="44.10238" lon="3.092">
        <ele>359.3</ele>
        <time>2024-02-17T10:40:16Z</time>
      </trkpt>
      <trkpt lat="44.10229" lon="3.0921">
        <ele>359</ele>
        <time>2024-02-17T10:40:18Z</time>
      </trkpt>
      <trkpt lat="44.10221" lon="3.09221">
        <ele>359</ele>
        <time>2024-02-17T10:40:20Z</time>
      </trkpt>
      <trkpt lat="44.10212" lon="3.09232">
        <ele>359</ele>
        <time>2024-02-17T10:40:22Z</time>
      </trkpt>
      <trkpt lat="44.10207" lon="3.09247">
        <ele>359</ele>
        <time>2024-02-17T10:40:24Z</time>
      </trkpt>
      <trkpt lat="44.10205" lon="3.09264">
        <ele>359</ele>
        <time>2024-02-17T10:40:26Z</time>
      </trkpt>
      <trkpt lat="44.10204" lon="3.0928">
        <ele>359.1</ele>
        <time>2024-02-17T10:40:28Z</time>
      </trkpt>
      <trkpt lat="44.10201" lon="3.09294">
        <ele>359.3</ele>
        <time>2024-02-17T10:40:30Z</time>
      </trkpt>
      <trkpt lat="44.10195" lon="3.09305">
        <ele>359</ele>
        <time>2024-02-17T10:40:32Z</time>
      </trkpt>
      <trkpt lat="44.10186" lon="3.09314">
        <ele>358.7</ele>
        <time>2024-02-17T10:40:34Z</time>
      </trkpt>
      <trkpt lat="44.10177" lon="3.09323">
        <ele>358.4</ele>
        <time>2024-02-17T10:40:36Z</time>
      </trkpt>
      <trkpt lat="44.10168" lon="3.09331">
        <ele>358</ele>
        <time>2024-02-17T10:40:38Z</time>
      </trkpt>
      <trkpt lat="44.10161" lon="3.09345">
        <ele>358.3</ele>
        <time>2024-02-17T10:40:40Z</time>
      </trkpt>
      <trkpt lat="44.10156" lon="3.09359">
        <ele>358.6</ele>
        <time>2024-02-17T10:40:42Z</time>
      </trkpt>
      <trkpt lat="44.10152" lon="3.09374">
        <ele>358.3</ele>
        <time>2024-02-17T10:40:44Z</time>
      </trkpt>
      <trkpt lat="44.10148" lon="3.09392">
        <ele>358</ele>
        <time>2024-02-17T10:40:46Z</time>
      </trkpt>
      <trkpt lat="44.10145" lon="3.09408">
        <ele>358</ele>
        <time>2024-02-17T10:40:48Z</time>
      </trkpt>
      <trkpt lat="44.10141" lon="3.09424">
        <ele>358</ele>
        <time>2024-02-17T10:40:50Z</time>
      </trkpt>
      <trkpt lat="44.10136" lon="3.0944">
        <ele>358</ele>
        <time>2024-02-17T10:40:52Z</time>
      </trkpt>
      <trkpt lat="44.10132" lon="3.09456">
        <ele>358</ele>
        <time>2024-02-17T10:40:54Z</time>
      </trkpt>
      <trkpt lat="44.10127" lon="3.09472">
        <ele>358</ele>
        <time>2024-02-17T10:40:56Z</time>
      </trkpt>
      <trkpt lat="44.10123" lon="3.09488">
        <ele>358.3</ele>
        <time>2024-02-17T10:40:58Z</time>
      </trkpt>
      <trkpt lat="44.10118" lon="3.09504">
        <ele>358.7</ele>
        <time>2024-02-17T10:41:00Z</time>
      </trkpt>
      <trkpt lat="44.10114" lon="3.09518">
        <ele>358.4</ele>
        <time>2024-02-17T10:41:02Z</time>
      </trkpt>
      <trkpt lat="44.10109" lon="3.09533">
        <ele>358.1</ele>
        <time>2024-02-17T10:41:04Z</time>
      </trkpt>
      <trkpt lat="44.10104" lon="3.09548">
        <ele>358.3</ele>
        <time>2024-02-17T10:41:06Z</time>
      </trkpt>
      <trkpt lat="44.10098" lon="3.09563">
        <ele>358.5</ele>
        <time>2024-02-17T10:41:08Z</time>
      </trkpt>
      <trkpt lat="44.10093" lon="3.09578">
        <ele>358.7</ele>
        <time>2024-02-17T10:41:10Z</time>
      </trkpt>
      <trkpt lat="44.10089" lon="3.09594">
        <ele>358.9</ele>
        <time>2024-02-17T10:41:12Z</time>
      </trkpt>
      <trkpt lat="44.10084" lon="3.09608">
        <ele>359</ele>
        <time>2024-02-17T10:41:14Z</time>
      </trkpt>
      <trkpt lat="44.1008" lon="3.09624">
        <ele>359.1</ele>
        <time>2024-02-17T10:41:16Z</time>
      </trkpt>
      <trkpt lat="44.10076" lon="3.09639">
        <ele>359.3</ele>
        <time>2024-02-17T10:41:18Z</time>
      </trkpt>
      <trkpt lat="44.1007" lon="3.09654">
        <ele>359.2</ele>
        <time>2024-02-17T10:41:20Z</time>
      </trkpt>
      <trkpt lat="44.10065" lon="3.09669">
        <ele>359</ele>
        <time>2024-02-17T10:41:22Z</time>
      </trkpt>
      <trkpt lat="44.10059" lon="3.09684">
        <ele>359.1</ele>
        <time>2024-02-17T10:41:24Z</time>
      </trkpt>
      <trkpt lat="44.10054" lon="3.097">
        <ele>359</ele>
        <time>2024-02-17T10:41:26Z</time>
      </trkpt>
      <trkpt lat="44.10047" lon="3.09714">
        <ele>359</ele>
        <time>2024-02-17T10:41:28Z</time>
      </trkpt>
      <trkpt lat="44.10041" lon="3.09729">
        <ele>359</ele>
        <time>2024-02-17T10:41:30Z</time>
      </trkpt>
      <trkpt lat="44.10034" lon="3.09744">
        <ele>359</ele>
        <time>2024-02-17T10:41:32Z</time>
      </trkpt>
      <trkpt lat="44.10027" lon="3.09758">
        <ele>359</ele>
        <time>2024-02-17T10:41:34Z</time>
      </trkpt>
      <trkpt lat="44.10022" lon="3.09772">
        <ele>359</ele>
        <time>2024-02-17T10:41:36Z</time>
      </trkpt>
      <trkpt lat="44.10017" lon="3.09785">
        <ele>359</ele>
        <time>2024-02-17T10:41:38Z</time>
      </trkpt>
      <trkpt lat="44.10013" lon="3.098">
        <ele>359</ele>
        <time>2024-02-17T10:41:40Z</time>
      </trkpt>
      <trkpt lat="44.10008" lon="3.09813">
        <ele>359</ele>
        <time>2024-02-17T10:41:42Z</time>
      </trkpt>
      <trkpt lat="44.10004" lon="3.09827">
        <ele>359</ele>
        <time>2024-02-17T10:41:44Z</time>
      </trkpt>
      <trkpt lat="44.10001" lon="3.09839">
        <ele>359</ele>
        <time>2024-02-17T10:41:46Z</time>
      </trkpt>
      <trkpt lat="44.09998" lon="3.09854">
        <ele>359</ele>
        <time>2024-02-17T10:41:48Z</time>
      </trkpt>
      <trkpt lat="44.09995" lon="3.09869">
        <ele>359</ele>
        <time>2024-02-17T10:41:50Z</time>
      </trkpt>
      <trkpt lat="44.09993" lon="3.09883">
        <ele>359</ele>
        <time>2024-02-17T10:41:52Z</time>
      </trkpt>
      <trkpt lat="44.09991" lon="3.09899">
        <ele>359.1</ele>
        <time>2024-02-17T10:41:54Z</time>
      </trkpt>
      <trkpt lat="44.0999" lon="3.09916">
        <ele>359.4</ele>
        <time>2024-02-17T10:41:56Z</time>
      </trkpt>
      <trkpt lat="44.09989" lon="3.09934">
        <ele>359.4</ele>
        <time>2024-02-17T10:41:58Z</time>
      </trkpt>
      <trkpt lat="44.09989" lon="3.09951">
        <ele>359.3</ele>
        <time>2024-02-17T10:42:00Z</time>
      </trkpt>
      <trkpt lat="44.09989" lon="3.09969">
        <ele>359</ele>
        <time>2024-02-17T10:42:02Z</time>
      </trkpt>
      <trkpt lat="44.09989" lon="3.09987">
        <ele>359</ele>
        <time>2024-02-17T10:42:04Z</time>
      </trkpt>
      <trkpt lat="44.09989" lon="3.10003">
        <ele>359</ele>
        <time>2024-02-17T10:42:06Z</time>
      </trkpt>
      <trkpt lat="44.09989" lon="3.1002">
        <ele>359</ele>
        <time>2024-02-17T10:42:08Z</time>
      </trkpt>
      <trkpt lat="44.09989" lon="3.10037">
        <ele>359</ele>
        <time>2024-02-17T10:42:10Z</time>
      </trkpt>
      <trkpt lat="44.09989" lon="3.10055">
        <ele>359</ele>
        <time>2024-02-17T10:42:12Z</time>
      </trkpt>
      <trkpt lat="44.09991" lon="3.10073">
        <ele>359</ele>
        <time>2024-02-17T10:42:14Z</time>
      </trkpt>
      <trkpt lat="44.09994" lon="3.1009">
        <ele>359.1</ele>
        <time>2024-02-17T10:42:16Z</time>
      </trkpt>
      <trkpt lat="44.09996" lon="3.10107">
        <ele>359.6</ele>
        <time>2024-02-17T10:42:18Z</time>
      </trkpt>
      <trkpt lat="44.09998" lon="3.10123">
        <ele>359.8</ele>
        <time>2024-02-17T10:42:20Z</time>
      </trkpt>
      <trkpt lat="44.09999" lon="3.10138">
        <ele>359.9</ele>
        <time>2024-02-17T10:42:22Z</time>
      </trkpt>
      <trkpt lat="44.10001" lon="3.10154">
        <ele>359.5</ele>
        <time>2024-02-17T10:42:24Z</time>
      </trkpt>
      <trkpt lat="44.10003" lon="3.10169">
        <ele>359.1</ele>
        <time>2024-02-17T10:42:26Z</time>
      </trkpt>
      <trkpt lat="44.10006" lon="3.10185">
        <ele>359.1</ele>
        <time>2024-02-17T10:42:28Z</time>
      </trkpt>
      <trkpt lat="44.10009" lon="3.10202">
        <ele>359.2</ele>
        <time>2024-02-17T10:42:30Z</time>
      </trkpt>
      <trkpt lat="44.10011" lon="3.10218">
        <ele>359.5</ele>
        <time>2024-02-17T10:42:32Z</time>
      </trkpt>
      <trkpt lat="44.10014" lon="3.10234">
        <ele>359.3</ele>
        <time>2024-02-17T10:42:34Z</time>
      </trkpt>
      <trkpt lat="44.10016" lon="3.10249">
        <ele>359.2</ele>
        <time>2024-02-17T10:42:36Z</time>
      </trkpt>
      <trkpt lat="44.10018" lon="3.10263">
        <ele>359</ele>
        <time>2024-02-17T10:42:38Z</time>
      </trkpt>
      <trkpt lat="44.1002" lon="3.10276">
        <ele>358.9</ele>
        <time>2024-02-17T10:42:40Z</time>
      </trkpt>
      <trkpt lat="44.10023" lon="3.10291">
        <ele>359.3</ele>
        <time>2024-02-17T10:42:42Z</time>
      </trkpt>
      <trkpt lat="44.10028" lon="3.10306">
        <ele>360</ele>
        <time>2024-02-17T10:42:44Z</time>
      </trkpt>
      <trkpt lat="44.10033" lon="3.10319">
        <ele>360.2</ele>
        <time>2024-02-17T10:42:46Z</time>
      </trkpt>
      <trkpt lat="44.10039" lon="3.10333">
        <ele>360.4</ele>
        <time>2024-02-17T10:42:48Z</time>
      </trkpt>
      <trkpt lat="44.10043" lon="3.10345">
        <ele>360</ele>
        <time>2024-02-17T10:42:50Z</time>
      </trkpt>
      <trkpt lat="44.10047" lon="3.10358">
        <ele>360.2</ele>
        <time>2024-02-17T10:42:52Z</time>
      </trkpt>
      <trkpt lat="44.10051" lon="3.10373">
        <ele>361</ele>
        <time>2024-02-17T10:42:54Z</time>
      </trkpt>
      <trkpt lat="44.10054" lon="3.10388">
        <ele>361.7</ele>
        <time>2024-02-17T10:42:56Z</time>
      </trkpt>
      <trkpt lat="44.10057" lon="3.10402">
        <ele>362.1</ele>
        <time>2024-02-17T10:42:58Z</time>
      </trkpt>
      <trkpt lat="44.10059" lon="3.10415">
        <ele>362.1</ele>
        <time>2024-02-17T10:43:00Z</time>
      </trkpt>
      <trkpt lat="44.10061" lon="3.10429">
        <ele>362.3</ele>
        <time>2024-02-17T10:43:02Z</time>
      </trkpt>
      <trkpt lat="44.10061" lon="3.10447">
        <ele>362.3</ele>
        <time>2024-02-17T10:43:05Z</time>
      </trkpt>
      <trkpt lat="44.10061" lon="3.10461">
        <ele>361.9</ele>
        <time>2024-02-17T10:43:07Z</time>
      </trkpt>
      <trkpt lat="44.10061" lon="3.10477">
        <ele>361.6</ele>
        <time>2024-02-17T10:43:09Z</time>
      </trkpt>
      <trkpt lat="44.1006" lon="3.10496">
        <ele>361.6</ele>
        <time>2024-02-17T10:43:11Z</time>
      </trkpt>
      <trkpt lat="44.1006" lon="3.10515">
        <ele>362.1</ele>
        <time>2024-02-17T10:43:13Z</time>
      </trkpt>
      <trkpt lat="44.1006" lon="3.10532">
        <ele>362.8</ele>
        <time>2024-02-17T10:43:15Z</time>
      </trkpt>
      <trkpt lat="44.10059" lon="3.10546">
        <ele>363.6</ele>
        <time>2024-02-17T10:43:17Z</time>
      </trkpt>
      <trkpt lat="44.10058" lon="3.10563">
        <ele>364.2</ele>
        <time>2024-02-17T10:43:20Z</time>
      </trkpt>
      <trkpt lat="44.10057" lon="3.10579">
        <ele>364.2</ele>
        <time>2024-02-17T10:43:23Z</time>
      </trkpt>
      <trkpt lat="44.10057" lon="3.10595">
        <ele>364.7</ele>
        <time>2024-02-17T10:43:26Z</time>
      </trkpt>
      <trkpt lat="44.10057" lon="3.10613">
        <ele>365.4</ele>
        <time>2024-02-17T10:43:29Z</time>
      </trkpt>
      <trkpt lat="44.10057" lon="3.10626">
        <ele>365.4</ele>
        <time>2024-02-17T10:43:31Z</time>
      </trkpt>
      <trkpt lat="44.10057" lon="3.1064">
        <ele>365.4</ele>
        <time>2024-02-17T10:43:33Z</time>
      </trkpt>
      <trkpt lat="44.10057" lon="3.10654">
        <ele>364.9</ele>
        <time>2024-02-17T10:43:35Z</time>
      </trkpt>
      <trkpt lat="44.10057" lon="3.10669">
        <ele>364.5</ele>
        <time>2024-02-17T10:43:37Z</time>
      </trkpt>
      <trkpt lat="44.10054" lon="3.10683">
        <ele>363.8</ele>
        <time>2024-02-17T10:43:39Z</time>
      </trkpt>
      <trkpt lat="44.10049" lon="3.10699">
        <ele>363.3</ele>
        <time>2024-02-17T10:43:42Z</time>
      </trkpt>
      <trkpt lat="44.10048" lon="3.10715">
        <ele>363.2</ele>
        <time>2024-02-17T10:43:44Z</time>
      </trkpt>
      <trkpt lat="44.10047" lon="3.10731">
        <ele>363.1</ele>
        <time>2024-02-17T10:43:46Z</time>
      </trkpt>
      <trkpt lat="44.10046" lon="3.10746">
        <ele>363</ele>
        <time>2024-02-17T10:43:48Z</time>
      </trkpt>
      <trkpt lat="44.10045" lon="3.10761">
        <ele>363.1</ele>
        <time>2024-02-17T10:43:50Z</time>
      </trkpt>
      <trkpt lat="44.10045" lon="3.10777">
        <ele>363.5</ele>
        <time>2024-02-17T10:43:52Z</time>
      </trkpt>
      <trkpt lat="44.10044" lon="3.10793">
        <ele>363.6</ele>
        <time>2024-02-17T10:43:54Z</time>
      </trkpt>
      <trkpt lat="44.10043" lon="3.10808">
        <ele>363.7</ele>
        <time>2024-02-17T10:43:56Z</time>
      </trkpt>
      <trkpt lat="44.10042" lon="3.10824">
        <ele>364.2</ele>
        <time>2024-02-17T10:43:58Z</time>
      </trkpt>
      <trkpt lat="44.10041" lon="3.10839">
        <ele>364.4</ele>
        <time>2024-02-17T10:44:00Z</time>
      </trkpt>
      <trkpt lat="44.1004" lon="3.10855">
        <ele>364</ele>
        <time>2024-02-17T10:44:02Z</time>
      </trkpt>
      <trkpt lat="44.1004" lon="3.1087">
        <ele>364.1</ele>
        <time>2024-02-17T10:44:04Z</time>
      </trkpt>
      <trkpt lat="44.10039" lon="3.10885">
        <ele>364.3</ele>
        <time>2024-02-17T10:44:06Z</time>
      </trkpt>
      <trkpt lat="44.10038" lon="3.10901">
        <ele>364.4</ele>
        <time>2024-02-17T10:44:08Z</time>
      </trkpt>
      <trkpt lat="44.10036" lon="3.10916">
        <ele>364.3</ele>
        <time>2024-02-17T10:44:10Z</time>
      </trkpt>
      <trkpt lat="44.10035" lon="3.10932">
        <ele>364.4</ele>
        <time>2024-02-17T10:44:12Z</time>
      </trkpt>
      <trkpt lat="44.10034" lon="3.10948">
        <ele>364.4</ele>
        <time>2024-02-17T10:44:14Z</time>
      </trkpt>
      <trkpt lat="44.10032" lon="3.10964">
        <ele>364.3</ele>
        <time>2024-02-17T10:44:16Z</time>
      </trkpt>
      <trkpt lat="44.10031" lon="3.10979">
        <ele>364.3</ele>
        <time>2024-02-17T10:44:18Z</time>
      </trkpt>
      <trkpt lat="44.10029" lon="3.10995">
        <ele>364.2</ele>
        <time>2024-02-17T10:44:20Z</time>
      </trkpt>
      <trkpt lat="44.10028" lon="3.1101">
        <ele>364</ele>
        <time>2024-02-17T10:44:22Z</time>
      </trkpt>
      <trkpt lat="44.10027" lon="3.11026">
        <ele>364</ele>
        <time>2024-02-17T10:44:24Z</time>
      </trkpt>
      <trkpt lat="44.10025" lon="3.11042">
        <ele>364</ele>
        <time>2024-02-17T10:44:26Z</time>
      </trkpt>
      <trkpt lat="44.10024" lon="3.11058">
        <ele>364.1</ele>
        <time>2024-02-17T10:44:28Z</time>
      </trkpt>
      <trkpt lat="44.10023" lon="3.11074">
        <ele>364.3</ele>
        <time>2024-02-17T10:44:30Z</time>
      </trkpt>
      <trkpt lat="44.10022" lon="3.1109">
        <ele>364.6</ele>
        <time>2024-02-17T10:44:32Z</time>
      </trkpt>
      <trkpt lat="44.10021" lon="3.11107">
        <ele>364.9</ele>
        <time>2024-02-17T10:44:34Z</time>
      </trkpt>
      <trkpt lat="44.10019" lon="3.11124">
        <ele>366</ele>
        <time>2024-02-17T10:44:36Z</time>
      </trkpt>
      <trkpt lat="44.10017" lon="3.1114">
        <ele>367.2</ele>
        <time>2024-02-17T10:44:38Z</time>
      </trkpt>
      <trkpt lat="44.10013" lon="3.11155">
        <ele>366.9</ele>
        <time>2024-02-17T10:44:40Z</time>
      </trkpt>
      <trkpt lat="44.1001" lon="3.11171">
        <ele>366.2</ele>
        <time>2024-02-17T10:44:42Z</time>
      </trkpt>
      <trkpt lat="44.10006" lon="3.11188">
        <ele>365.5</ele>
        <time>2024-02-17T10:44:44Z</time>
      </trkpt>
      <trkpt lat="44.10004" lon="3.11206">
        <ele>365</ele>
        <time>2024-02-17T10:44:46Z</time>
      </trkpt>
      <trkpt lat="44.10001" lon="3.11223">
        <ele>364.3</ele>
        <time>2024-02-17T10:44:48Z</time>
      </trkpt>
      <trkpt lat="44.10001" lon="3.1124">
        <ele>364.2</ele>
        <time>2024-02-17T10:44:50Z</time>
      </trkpt>
      <trkpt lat="44.10001" lon="3.11256">
        <ele>364.2</ele>
        <time>2024-02-17T10:44:52Z</time>
      </trkpt>
      <trkpt lat="44.10004" lon="3.11284">
        <ele>364.5</ele>
        <time>2024-02-17T10:44:55Z</time>
      </trkpt>
      <trkpt lat="44.10012" lon="3.11315">
        <ele>365.6</ele>
        <time>2024-02-17T10:44:59Z</time>
      </trkpt>
      <trkpt lat="44.10018" lon="3.11343">
        <ele>366.3</ele>
        <time>2024-02-17T10:45:03Z</time>
      </trkpt>
      <trkpt lat="44.10023" lon="3.11373">
        <ele>365.3</ele>
        <time>2024-02-17T10:45:07Z</time>
      </trkpt>
      <trkpt lat="44.10036" lon="3.11405">
        <ele>366.5</ele>
        <time>2024-02-17T10:45:11Z</time>
      </trkpt>
      <trkpt lat="44.10056" lon="3.11435">
        <ele>366.5</ele>
        <time>2024-02-17T10:45:15Z</time>
      </trkpt>
      <trkpt lat="44.1008" lon="3.11461">
        <ele>366.1</ele>
        <time>2024-02-17T10:45:19Z</time>
      </trkpt>
      <trkpt lat="44.10104" lon="3.11487">
        <ele>367.6</ele>
        <time>2024-02-17T10:45:23Z</time>
      </trkpt>
      <trkpt lat="44.10123" lon="3.11516">
        <ele>369.1</ele>
        <time>2024-02-17T10:45:27Z</time>
      </trkpt>
      <trkpt lat="44.10133" lon="3.11536">
        <ele>368.1</ele>
        <time>2024-02-17T10:45:30Z</time>
      </trkpt>
      <trkpt lat="44.10138" lon="3.1155">
        <ele>366.2</ele>
        <time>2024-02-17T10:45:32Z</time>
      </trkpt>
      <trkpt lat="44.10145" lon="3.11564">
        <ele>367.2</ele>
        <time>2024-02-17T10:45:34Z</time>
      </trkpt>
      <trkpt lat="44.10151" lon="3.11579">
        <ele>367.3</ele>
        <time>2024-02-17T10:45:36Z</time>
      </trkpt>
      <trkpt lat="44.10156" lon="3.11594">
        <ele>366.6</ele>
        <time>2024-02-17T10:45:38Z</time>
      </trkpt>
      <trkpt lat="44.10161" lon="3.11612">
        <ele>365.4</ele>
        <time>2024-02-17T10:45:40Z</time>
      </trkpt>
      <trkpt lat="44.10162" lon="3.11631">
        <ele>365.5</ele>
        <time>2024-02-17T10:45:42Z</time>
      </trkpt>
      <trkpt lat="44.1016" lon="3.1165">
        <ele>365.3</ele>
        <time>2024-02-17T10:45:44Z</time>
      </trkpt>
      <trkpt lat="44.10157" lon="3.11667">
        <ele>365</ele>
        <time>2024-02-17T10:45:46Z</time>
      </trkpt>
      <trkpt lat="44.10152" lon="3.11685">
        <ele>364.5</ele>
        <time>2024-02-17T10:45:48Z</time>
      </trkpt>
      <trkpt lat="44.10147" lon="3.11701">
        <ele>364.3</ele>
        <time>2024-02-17T10:45:50Z</time>
      </trkpt>
      <trkpt lat="44.10143" lon="3.11719">
        <ele>364.1</ele>
        <time>2024-02-17T10:45:52Z</time>
      </trkpt>
      <trkpt lat="44.10141" lon="3.11737">
        <ele>363.6</ele>
        <time>2024-02-17T10:45:54Z</time>
      </trkpt>
      <trkpt lat="44.10139" lon="3.11755">
        <ele>363</ele>
        <time>2024-02-17T10:45:56Z</time>
      </trkpt>
      <trkpt lat="44.10137" lon="3.11773">
        <ele>362.7</ele>
        <time>2024-02-17T10:45:58Z</time>
      </trkpt>
      <trkpt lat="44.10135" lon="3.11791">
        <ele>362.4</ele>
        <time>2024-02-17T10:46:00Z</time>
      </trkpt>
      <trkpt lat="44.10134" lon="3.11809">
        <ele>362.4</ele>
        <time>2024-02-17T10:46:02Z</time>
      </trkpt>
      <trkpt lat="44.10132" lon="3.11825">
        <ele>362.5</ele>
        <time>2024-02-17T10:46:04Z</time>
      </trkpt>
      <trkpt lat="44.10131" lon="3.11843">
        <ele>362.4</ele>
        <time>2024-02-17T10:46:06Z</time>
      </trkpt>
      <trkpt lat="44.1013" lon="3.1186">
        <ele>362.1</ele>
        <time>2024-02-17T10:46:08Z</time>
      </trkpt>
      <trkpt lat="44.10129" lon="3.11877">
        <ele>362.1</ele>
        <time>2024-02-17T10:46:10Z</time>
      </trkpt>
      <trkpt lat="44.10128" lon="3.11894">
        <ele>362.4</ele>
        <time>2024-02-17T10:46:12Z</time>
      </trkpt>
      <trkpt lat="44.10127" lon="3.11912">
        <ele>362.9</ele>
        <time>2024-02-17T10:46:14Z</time>
      </trkpt>
      <trkpt lat="44.10126" lon="3.1193">
        <ele>363</ele>
        <time>2024-02-17T10:46:16Z</time>
      </trkpt>
      <trkpt lat="44.10125" lon="3.11947">
        <ele>363</ele>
        <time>2024-02-17T10:46:18Z</time>
      </trkpt>
      <trkpt lat="44.10123" lon="3.11963">
        <ele>363</ele>
        <time>2024-02-17T10:46:20Z</time>
      </trkpt>
      <trkpt lat="44.10122" lon="3.11979">
        <ele>363</ele>
        <time>2024-02-17T10:46:22Z</time>
      </trkpt>
      <trkpt lat="44.10121" lon="3.11995">
        <ele>363</ele>
        <time>2024-02-17T10:46:24Z</time>
      </trkpt>
      <trkpt lat="44.1012" lon="3.12013">
        <ele>363.3</ele>
        <time>2024-02-17T10:46:26Z</time>
      </trkpt>
      <trkpt lat="44.10119" lon="3.1203">
        <ele>363.7</ele>
        <time>2024-02-17T10:46:28Z</time>
      </trkpt>
      <trkpt lat="44.10118" lon="3.12045">
        <ele>363.3</ele>
        <time>2024-02-17T10:46:30Z</time>
      </trkpt>
      <trkpt lat="44.10116" lon="3.12063">
        <ele>363.2</ele>
        <time>2024-02-17T10:46:32Z</time>
      </trkpt>
      <trkpt lat="44.10114" lon="3.12079">
        <ele>363.8</ele>
        <time>2024-02-17T10:46:34Z</time>
      </trkpt>
      <trkpt lat="44.10113" lon="3.12093">
        <ele>363.9</ele>
        <time>2024-02-17T10:46:36Z</time>
      </trkpt>
      <trkpt lat="44.10113" lon="3.12109">
        <ele>363.9</ele>
        <time>2024-02-17T10:46:38Z</time>
      </trkpt>
      <trkpt lat="44.10112" lon="3.12126">
        <ele>364</ele>
        <time>2024-02-17T10:46:40Z</time>
      </trkpt>
      <trkpt lat="44.10112" lon="3.12142">
        <ele>364</ele>
        <time>2024-02-17T10:46:42Z</time>
      </trkpt>
      <trkpt lat="44.10113" lon="3.12158">
        <ele>364</ele>
        <time>2024-02-17T10:46:44Z</time>
      </trkpt>
      <trkpt lat="44.10113" lon="3.12176">
        <ele>364</ele>
        <time>2024-02-17T10:46:46Z</time>
      </trkpt>
      <trkpt lat="44.10114" lon="3.12194">
        <ele>364</ele>
        <time>2024-02-17T10:46:48Z</time>
      </trkpt>
      <trkpt lat="44.10114" lon="3.12212">
        <ele>364</ele>
        <time>2024-02-17T10:46:50Z</time>
      </trkpt>
      <trkpt lat="44.10115" lon="3.1223">
        <ele>364</ele>
        <time>2024-02-17T10:46:52Z</time>
      </trkpt>
      <trkpt lat="44.10115" lon="3.12262">
        <ele>364.4</ele>
        <time>2024-02-17T10:46:55Z</time>
      </trkpt>
      <trkpt lat="44.10115" lon="3.12298">
        <ele>364.2</ele>
        <time>2024-02-17T10:46:59Z</time>
      </trkpt>
      <trkpt lat="44.10116" lon="3.12334">
        <ele>363.2</ele>
        <time>2024-02-17T10:47:03Z</time>
      </trkpt>
      <trkpt lat="44.1012" lon="3.12366">
        <ele>362.4</ele>
        <time>2024-02-17T10:47:07Z</time>
      </trkpt>
      <trkpt lat="44.10124" lon="3.12386">
        <ele>362</ele>
        <time>2024-02-17T10:47:10Z</time>
      </trkpt>
      <trkpt lat="44.10127" lon="3.12402">
        <ele>362.3</ele>
        <time>2024-02-17T10:47:12Z</time>
      </trkpt>
      <trkpt lat="44.1013" lon="3.12419">
        <ele>362.8</ele>
        <time>2024-02-17T10:47:14Z</time>
      </trkpt>
      <trkpt lat="44.10133" lon="3.12435">
        <ele>363.7</ele>
        <time>2024-02-17T10:47:16Z</time>
      </trkpt>
      <trkpt lat="44.10135" lon="3.12451">
        <ele>364.1</ele>
        <time>2024-02-17T10:47:18Z</time>
      </trkpt>
      <trkpt lat="44.10137" lon="3.12467">
        <ele>364</ele>
        <time>2024-02-17T10:47:20Z</time>
      </trkpt>
      <trkpt lat="44.10138" lon="3.12483">
        <ele>363.5</ele>
        <time>2024-02-17T10:47:22Z</time>
      </trkpt>
      <trkpt lat="44.10141" lon="3.12501">
        <ele>363.1</ele>
        <time>2024-02-17T10:47:24Z</time>
      </trkpt>
      <trkpt lat="44.10146" lon="3.12531">
        <ele>362.7</ele>
        <time>2024-02-17T10:47:28Z</time>
      </trkpt>
      <trkpt lat="44.10148" lon="3.12549">
        <ele>362.5</ele>
        <time>2024-02-17T10:47:31Z</time>
      </trkpt>
      <trkpt lat="44.10151" lon="3.12564">
        <ele>362.7</ele>
        <time>2024-02-17T10:47:33Z</time>
      </trkpt>
      <trkpt lat="44.10154" lon="3.1258">
        <ele>363.2</ele>
        <time>2024-02-17T10:47:35Z</time>
      </trkpt>
      <trkpt lat="44.10156" lon="3.12596">
        <ele>363.5</ele>
        <time>2024-02-17T10:47:37Z</time>
      </trkpt>
      <trkpt lat="44.10159" lon="3.12612">
        <ele>363.9</ele>
        <time>2024-02-17T10:47:39Z</time>
      </trkpt>
      <trkpt lat="44.10161" lon="3.12627">
        <ele>364.2</ele>
        <time>2024-02-17T10:47:41Z</time>
      </trkpt>
      <trkpt lat="44.10163" lon="3.12642">
        <ele>364.4</ele>
        <time>2024-02-17T10:47:43Z</time>
      </trkpt>
      <trkpt lat="44.10166" lon="3.12657">
        <ele>364.3</ele>
        <time>2024-02-17T10:47:45Z</time>
      </trkpt>
      <trkpt lat="44.10168" lon="3.12672">
        <ele>363.9</ele>
        <time>2024-02-17T10:47:47Z</time>
      </trkpt>
      <trkpt lat="44.10169" lon="3.12686">
        <ele>363.5</ele>
        <time>2024-02-17T10:47:49Z</time>
      </trkpt>
      <trkpt lat="44.10171" lon="3.12701">
        <ele>363.5</ele>
        <time>2024-02-17T10:47:51Z</time>
      </trkpt>
      <trkpt lat="44.10174" lon="3.12716">
        <ele>364.2</ele>
        <time>2024-02-17T10:47:53Z</time>
      </trkpt>
      <trkpt lat="44.10176" lon="3.1273">
        <ele>364.8</ele>
        <time>2024-02-17T10:47:55Z</time>
      </trkpt>
      <trkpt lat="44.10179" lon="3.12744">
        <ele>365.3</ele>
        <time>2024-02-17T10:47:57Z</time>
      </trkpt>
      <trkpt lat="44.10182" lon="3.12764">
        <ele>365.9</ele>
        <time>2024-02-17T10:47:59Z</time>
      </trkpt>
      <trkpt lat="44.10189" lon="3.12786">
        <ele>367</ele>
        <time>2024-02-17T10:48:02Z</time>
      </trkpt>
      <trkpt lat="44.10193" lon="3.12801">
        <ele>367</ele>
        <time>2024-02-17T10:48:04Z</time>
      </trkpt>
      <trkpt lat="44.10196" lon="3.12816">
        <ele>367.3</ele>
        <time>2024-02-17T10:48:06Z</time>
      </trkpt>
      <trkpt lat="44.102" lon="3.1283">
        <ele>367.9</ele>
        <time>2024-02-17T10:48:08Z</time>
      </trkpt>
      <trkpt lat="44.10203" lon="3.12844">
        <ele>368</ele>
        <time>2024-02-17T10:48:10Z</time>
      </trkpt>
      <trkpt lat="44.10206" lon="3.12857">
        <ele>368.2</ele>
        <time>2024-02-17T10:48:12Z</time>
      </trkpt>
      <trkpt lat="44.1021" lon="3.1287">
        <ele>368.1</ele>
        <time>2024-02-17T10:48:14Z</time>
      </trkpt>
      <trkpt lat="44.10216" lon="3.12882">
        <ele>368</ele>
        <time>2024-02-17T10:48:16Z</time>
      </trkpt>
      <trkpt lat="44.10222" lon="3.12893">
        <ele>367.8</ele>
        <time>2024-02-17T10:48:18Z</time>
      </trkpt>
      <trkpt lat="44.1022" lon="3.12908">
        <ele>367.2</ele>
        <time>2024-02-17T10:48:21Z</time>
      </trkpt>
      <trkpt lat="44.10208" lon="3.12911">
        <ele>366.5</ele>
        <time>2024-02-17T10:48:25Z</time>
      </trkpt>
      <trkpt lat="44.10202" lon="3.12921">
        <ele>365.9</ele>
        <time>2024-02-17T10:48:28Z</time>
      </trkpt>
      <trkpt lat="44.10196" lon="3.12933">
        <ele>364.4</ele>
        <time>2024-02-17T10:48:31Z</time>
      </trkpt>
      <trkpt lat="44.10187" lon="3.12944">
        <ele>363.3</ele>
        <time>2024-02-17T10:48:34Z</time>
      </trkpt>
      <trkpt lat="44.10183" lon="3.12959">
        <ele>365.9</ele>
        <time>2024-02-17T10:48:37Z</time>
      </trkpt>
      <trkpt lat="44.10187" lon="3.12972">
        <ele>366</ele>
        <time>2024-02-17T10:48:40Z</time>
      </trkpt>
      <trkpt lat="44.10197" lon="3.12979">
        <ele>364.4</ele>
        <time>2024-02-17T10:48:43Z</time>
      </trkpt>
      <trkpt lat="44.10205" lon="3.12988">
        <ele>365.7</ele>
        <time>2024-02-17T10:48:47Z</time>
      </trkpt>
      <trkpt lat="44.10213" lon="3.12996">
        <ele>364.6</ele>
        <time>2024-02-17T10:48:52Z</time>
      </trkpt>
      <trkpt lat="44.10218" lon="3.13007">
        <ele>365.8</ele>
        <time>2024-02-17T10:48:57Z</time>
      </trkpt>
      <trkpt lat="44.10222" lon="3.1302">
        <ele>369.1</ele>
        <time>2024-02-17T10:49:02Z</time>
      </trkpt>
      <trkpt lat="44.1023" lon="3.1303">
        <ele>370.5</ele>
        <time>2024-02-17T10:49:05Z</time>
      </trkpt>
      <trkpt lat="44.10238" lon="3.13036">
        <ele>371.2</ele>
        <time>2024-02-17T10:49:07Z</time>
      </trkpt>
      <trkpt lat="44.10248" lon="3.13042">
        <ele>371.4</ele>
        <time>2024-02-17T10:49:09Z</time>
      </trkpt>
      <trkpt lat="44.10259" lon="3.13048">
        <ele>371.9</ele>
        <time>2024-02-17T10:49:11Z</time>
      </trkpt>
      <trkpt lat="44.10271" lon="3.13054">
        <ele>370.9</ele>
        <time>2024-02-17T10:49:13Z</time>
      </trkpt>
      <trkpt lat="44.10285" lon="3.13061">
        <ele>371.4</ele>
        <time>2024-02-17T10:49:15Z</time>
      </trkpt>
      <trkpt lat="44.103" lon="3.13065">
        <ele>373.8</ele>
        <time>2024-02-17T10:49:17Z</time>
      </trkpt>
      <trkpt lat="44.10316" lon="3.13065">
        <ele>375</ele>
        <time>2024-02-17T10:49:19Z</time>
      </trkpt>
      <trkpt lat="44.1033" lon="3.13064">
        <ele>375.7</ele>
        <time>2024-02-17T10:49:21Z</time>
      </trkpt>
      <trkpt lat="44.10341" lon="3.13061">
        <ele>375.1</ele>
        <time>2024-02-17T10:49:23Z</time>
      </trkpt>
      <trkpt lat="44.10353" lon="3.1306">
        <ele>375.5</ele>
        <time>2024-02-17T10:49:26Z</time>
      </trkpt>
      <trkpt lat="44.10363" lon="3.13056">
        <ele>374.3</ele>
        <time>2024-02-17T10:49:30Z</time>
      </trkpt>
      <trkpt lat="44.10373" lon="3.13054">
        <ele>373.8</ele>
        <time>2024-02-17T10:49:33Z</time>
      </trkpt>
      <trkpt lat="44.10385" lon="3.13052">
        <ele>373.3</ele>
        <time>2024-02-17T10:49:36Z</time>
      </trkpt>
      <trkpt lat="44.10395" lon="3.13054">
        <ele>374.4</ele>
        <time>2024-02-17T10:49:39Z</time>
      </trkpt>
      <trkpt lat="44.10406" lon="3.13056">
        <ele>375.2</ele>
        <time>2024-02-17T10:49:44Z</time>
      </trkpt>
      <trkpt lat="44.10416" lon="3.13055">
        <ele>374.8</ele>
        <time>2024-02-17T10:49:52Z</time>
      </trkpt>
      <trkpt lat="44.10425" lon="3.13057">
        <ele>376.2</ele>
        <time>2024-02-17T10:49:57Z</time>
      </trkpt>
      <trkpt lat="44.10434" lon="3.1306">
        <ele>378.3</ele>
        <time>2024-02-17T10:50:02Z</time>
      </trkpt>
      <trkpt lat="44.10443" lon="3.13062">
        <ele>379.9</ele>
        <time>2024-02-17T10:50:08Z</time>
      </trkpt>
      <trkpt lat="44.10454" lon="3.13066">
        <ele>382.2</ele>
        <time>2024-02-17T10:50:14Z</time>
      </trkpt>
      <trkpt lat="44.10463" lon="3.13068">
        <ele>383.5</ele>
        <time>2024-02-17T10:50:20Z</time>
      </trkpt>
      <trkpt lat="44.10473" lon="3.13069">
        <ele>384.3</ele>
        <time>2024-02-17T10:50:27Z</time>
      </trkpt>
      <trkpt lat="44.10482" lon="3.13072">
        <ele>385.8</ele>
        <time>2024-02-17T10:50:34Z</time>
      </trkpt>
      <trkpt lat="44.10491" lon="3.13075">
        <ele>387</ele>
        <time>2024-02-17T10:50:41Z</time>
      </trkpt>
      <trkpt lat="44.105" lon="3.1308">
        <ele>388.8</ele>
        <time>2024-02-17T10:50:50Z</time>
      </trkpt>
      <trkpt lat="44.1051" lon="3.13084">
        <ele>391</ele>
        <time>2024-02-17T10:50:58Z</time>
      </trkpt>
      <trkpt lat="44.10519" lon="3.1309">
        <ele>393.8</ele>
        <time>2024-02-17T10:51:05Z</time>
      </trkpt>
      <trkpt lat="44.10527" lon="3.13093">
        <ele>395.4</ele>
        <time>2024-02-17T10:51:12Z</time>
      </trkpt>
      <trkpt lat="44.10537" lon="3.131">
        <ele>397.2</ele>
        <time>2024-02-17T10:51:20Z</time>
      </trkpt>
      <trkpt lat="44.10545" lon="3.13106">
        <ele>398.8</ele>
        <time>2024-02-17T10:51:27Z</time>
      </trkpt>
      <trkpt lat="44.10555" lon="3.1311">
        <ele>399.6</ele>
        <time>2024-02-17T10:51:35Z</time>
      </trkpt>
      <trkpt lat="44.10564" lon="3.13116">
        <ele>400.9</ele>
        <time>2024-02-17T10:51:43Z</time>
      </trkpt>
      <trkpt lat="44.10573" lon="3.13124">
        <ele>402.6</ele>
        <time>2024-02-17T10:51:50Z</time>
      </trkpt>
      <trkpt lat="44.10583" lon="3.13131">
        <ele>403.5</ele>
        <time>2024-02-17T10:51:57Z</time>
      </trkpt>
      <trkpt lat="44.10591" lon="3.13138">
        <ele>404.9</ele>
        <time>2024-02-17T10:52:05Z</time>
      </trkpt>
      <trkpt lat="44.10599" lon="3.13143">
        <ele>405.8</ele>
        <time>2024-02-17T10:52:14Z</time>
      </trkpt>
      <trkpt lat="44.10608" lon="3.1315">
        <ele>407.3</ele>
        <time>2024-02-17T10:52:20Z</time>
      </trkpt>
      <trkpt lat="44.10619" lon="3.13156">
        <ele>408</ele>
        <time>2024-02-17T10:52:26Z</time>
      </trkpt>
      <trkpt lat="44.10629" lon="3.1316">
        <ele>407.7</ele>
        <time>2024-02-17T10:52:32Z</time>
      </trkpt>
      <trkpt lat="44.10636" lon="3.13167">
        <ele>408.7</ele>
        <time>2024-02-17T10:52:37Z</time>
      </trkpt>
      <trkpt lat="44.10645" lon="3.13174">
        <ele>410.2</ele>
        <time>2024-02-17T10:52:44Z</time>
      </trkpt>
      <trkpt lat="44.10654" lon="3.13182">
        <ele>412.1</ele>
        <time>2024-02-17T10:52:51Z</time>
      </trkpt>
      <trkpt lat="44.10665" lon="3.13187">
        <ele>412.5</ele>
        <time>2024-02-17T10:52:57Z</time>
      </trkpt>
      <trkpt lat="44.10677" lon="3.13193">
        <ele>414.1</ele>
        <time>2024-02-17T10:53:01Z</time>
      </trkpt>
      <trkpt lat="44.10686" lon="3.13197">
        <ele>415.2</ele>
        <time>2024-02-17T10:53:06Z</time>
      </trkpt>
      <trkpt lat="44.10696" lon="3.132">
        <ele>415.6</ele>
        <time>2024-02-17T10:53:12Z</time>
      </trkpt>
      <trkpt lat="44.10703" lon="3.13209">
        <ele>417.3</ele>
        <time>2024-02-17T10:53:19Z</time>
      </trkpt>
      <trkpt lat="44.10711" lon="3.13216">
        <ele>418.1</ele>
        <time>2024-02-17T10:53:27Z</time>
      </trkpt>
      <trkpt lat="44.10718" lon="3.13226">
        <ele>419.8</ele>
        <time>2024-02-17T10:53:36Z</time>
      </trkpt>
      <trkpt lat="44.10726" lon="3.13233">
        <ele>419.8</ele>
        <time>2024-02-17T10:53:42Z</time>
      </trkpt>
      <trkpt lat="44.10733" lon="3.13243">
        <ele>420.6</ele>
        <time>2024-02-17T10:53:48Z</time>
      </trkpt>
      <trkpt lat="44.10741" lon="3.13251">
        <ele>420.4</ele>
        <time>2024-02-17T10:53:54Z</time>
      </trkpt>
      <trkpt lat="44.10748" lon="3.13261">
        <ele>420.1</ele>
        <time>2024-02-17T10:53:59Z</time>
      </trkpt>
      <trkpt lat="44.10755" lon="3.13269">
        <ele>419.1</ele>
        <time>2024-02-17T10:54:04Z</time>
      </trkpt>
      <trkpt lat="44.10762" lon="3.13279">
        <ele>418.3</ele>
        <time>2024-02-17T10:54:08Z</time>
      </trkpt>
      <trkpt lat="44.10767" lon="3.13291">
        <ele>418.8</ele>
        <time>2024-02-17T10:54:13Z</time>
      </trkpt>
      <trkpt lat="44.10771" lon="3.13303">
        <ele>419.3</ele>
        <time>2024-02-17T10:54:17Z</time>
      </trkpt>
      <trkpt lat="44.10774" lon="3.13316">
        <ele>420</ele>
        <time>2024-02-17T10:54:21Z</time>
      </trkpt>
      <trkpt lat="44.10777" lon="3.13328">
        <ele>420.5</ele>
        <time>2024-02-17T10:54:24Z</time>
      </trkpt>
      <trkpt lat="44.10779" lon="3.13342">
        <ele>420.7</ele>
        <time>2024-02-17T10:54:28Z</time>
      </trkpt>
      <trkpt lat="44.1078" lon="3.13355">
        <ele>420.7</ele>
        <time>2024-02-17T10:54:32Z</time>
      </trkpt>
      <trkpt lat="44.10783" lon="3.13369">
        <ele>420</ele>
        <time>2024-02-17T10:54:35Z</time>
      </trkpt>
      <trkpt lat="44.10778" lon="3.13384">
        <ele>423.5</ele>
        <time>2024-02-17T10:54:38Z</time>
      </trkpt>
      <trkpt lat="44.10775" lon="3.13401">
        <ele>425.4</ele>
        <time>2024-02-17T10:54:44Z</time>
      </trkpt>
      <trkpt lat="44.10768" lon="3.13417">
        <ele>429.3</ele>
        <time>2024-02-17T10:54:51Z</time>
      </trkpt>
      <trkpt lat="44.10761" lon="3.13429">
        <ele>432.2</ele>
        <time>2024-02-17T10:54:55Z</time>
      </trkpt>
      <trkpt lat="44.10755" lon="3.13441">
        <ele>434.5</ele>
        <time>2024-02-17T10:54:59Z</time>
      </trkpt>
      <trkpt lat="44.10754" lon="3.13455">
        <ele>432.8</ele>
        <time>2024-02-17T10:55:03Z</time>
      </trkpt>
      <trkpt lat="44.10756" lon="3.1347">
        <ele>428.8</ele>
        <time>2024-02-17T10:55:06Z</time>
      </trkpt>
      <trkpt lat="44.10753" lon="3.13482">
        <ele>427.6</ele>
        <time>2024-02-17T10:55:08Z</time>
      </trkpt>
      <trkpt lat="44.10752" lon="3.13499">
        <ele>423.8</ele>
        <time>2024-02-17T10:55:11Z</time>
      </trkpt>
      <trkpt lat="44.10748" lon="3.13513">
        <ele>421.5</ele>
        <time>2024-02-17T10:55:15Z</time>
      </trkpt>
      <trkpt lat="44.10741" lon="3.13526">
        <ele>420.5</ele>
        <time>2024-02-17T10:55:19Z</time>
      </trkpt>
      <trkpt lat="44.10734" lon="3.13538">
        <ele>419.7</ele>
        <time>2024-02-17T10:55:23Z</time>
      </trkpt>
      <trkpt lat="44.1073" lon="3.1355">
        <ele>417.7</ele>
        <time>2024-02-17T10:55:26Z</time>
      </trkpt>
      <trkpt lat="44.10725" lon="3.13561">
        <ele>417.3</ele>
        <time>2024-02-17T10:55:29Z</time>
      </trkpt>
      <trkpt lat="44.10719" lon="3.13571">
        <ele>418.2</ele>
        <time>2024-02-17T10:55:33Z</time>
      </trkpt>
      <trkpt lat="44.10713" lon="3.13581">
        <ele>419.1</ele>
        <time>2024-02-17T10:55:37Z</time>
      </trkpt>
      <trkpt lat="44.10708" lon="3.13592">
        <ele>418.8</ele>
        <time>2024-02-17T10:55:41Z</time>
      </trkpt>
      <trkpt lat="44.10698" lon="3.13601">
        <ele>422.3</ele>
        <time>2024-02-17T10:55:45Z</time>
      </trkpt>
      <trkpt lat="44.10692" lon="3.13612">
        <ele>422.2</ele>
        <time>2024-02-17T10:55:49Z</time>
      </trkpt>
      <trkpt lat="44.10687" lon="3.13633">
        <ele>417</ele>
        <time>2024-02-17T10:55:56Z</time>
      </trkpt>
      <trkpt lat="44.10679" lon="3.13647">
        <ele>418.5</ele>
        <time>2024-02-17T10:56:07Z</time>
      </trkpt>
      <trkpt lat="44.10669" lon="3.13653">
        <ele>424.6</ele>
        <time>2024-02-17T10:56:11Z</time>
      </trkpt>
      <trkpt lat="44.1067" lon="3.13668">
        <ele>420</ele>
        <time>2024-02-17T10:56:25Z</time>
      </trkpt>
      <trkpt lat="44.10666" lon="3.13683">
        <ele>418.8</ele>
        <time>2024-02-17T10:56:33Z</time>
      </trkpt>
      <trkpt lat="44.10663" lon="3.13695">
        <ele>417.8</ele>
        <time>2024-02-17T10:56:40Z</time>
      </trkpt>
      <trkpt lat="44.10666" lon="3.13719">
        <ele>412.9</ele>
        <time>2024-02-17T10:56:46Z</time>
      </trkpt>
      <trkpt lat="44.10666" lon="3.13734">
        <ele>411.7</ele>
        <time>2024-02-17T10:56:50Z</time>
      </trkpt>
      <trkpt lat="44.10663" lon="3.1375">
        <ele>412.9</ele>
        <time>2024-02-17T10:56:55Z</time>
      </trkpt>
      <trkpt lat="44.10665" lon="3.13765">
        <ele>409.2</ele>
        <time>2024-02-17T10:56:59Z</time>
      </trkpt>
      <trkpt lat="44.1067" lon="3.13777">
        <ele>403.5</ele>
        <time>2024-02-17T10:57:02Z</time>
      </trkpt>
      <trkpt lat="44.10676" lon="3.1379">
        <ele>398.2</ele>
        <time>2024-02-17T10:57:05Z</time>
      </trkpt>
      <trkpt lat="44.10681" lon="3.13812">
        <ele>393.7</ele>
        <time>2024-02-17T10:57:09Z</time>
      </trkpt>
      <trkpt lat="44.10687" lon="3.13831">
        <ele>389.3</ele>
        <time>2024-02-17T10:57:13Z</time>
      </trkpt>
      <trkpt lat="44.10694" lon="3.1384">
        <ele>384.3</ele>
        <time>2024-02-17T10:57:17Z</time>
      </trkpt>
      <trkpt lat="44.10695" lon="3.13856">
        <ele>383.7</ele>
        <time>2024-02-17T10:57:25Z</time>
      </trkpt>
      <trkpt lat="44.1069" lon="3.13869">
        <ele>384</ele>
        <time>2024-02-17T10:57:37Z</time>
      </trkpt>
      <trkpt lat="44.10685" lon="3.1388">
        <ele>383.2</ele>
        <time>2024-02-17T10:57:42Z</time>
      </trkpt>
      <trkpt lat="44.10683" lon="3.13894">
        <ele>381.7</ele>
        <time>2024-02-17T10:57:50Z</time>
      </trkpt>
      <trkpt lat="44.10691" lon="3.13902">
        <ele>378.6</ele>
        <time>2024-02-17T10:57:54Z</time>
      </trkpt>
      <trkpt lat="44.10693" lon="3.13922">
        <ele>379.8</ele>
        <time>2024-02-17T10:58:04Z</time>
      </trkpt>
      <trkpt lat="44.10697" lon="3.13936">
        <ele>381.4</ele>
        <time>2024-02-17T10:58:08Z</time>
      </trkpt>
      <trkpt lat="44.10702" lon="3.13956">
        <ele>382.1</ele>
        <time>2024-02-17T10:58:12Z</time>
      </trkpt>
      <trkpt lat="44.10702" lon="3.13969">
        <ele>383</ele>
        <time>2024-02-17T10:58:17Z</time>
      </trkpt>
      <trkpt lat="44.10704" lon="3.13984">
        <ele>385.2</ele>
        <time>2024-02-17T10:58:24Z</time>
      </trkpt>
      <trkpt lat="44.10708" lon="3.14001">
        <ele>387</ele>
        <time>2024-02-17T10:58:30Z</time>
      </trkpt>
      <trkpt lat="44.10716" lon="3.14013">
        <ele>385.5</ele>
        <time>2024-02-17T10:58:32Z</time>
      </trkpt>
      <trkpt lat="44.10716" lon="3.14032">
        <ele>389.5</ele>
        <time>2024-02-17T10:58:37Z</time>
      </trkpt>
      <trkpt lat="44.10719" lon="3.14045">
        <ele>389.4</ele>
        <time>2024-02-17T10:58:41Z</time>
      </trkpt>
      <trkpt lat="44.10713" lon="3.14058">
        <ele>394</ele>
        <time>2024-02-17T10:58:46Z</time>
      </trkpt>
      <trkpt lat="44.1071" lon="3.1408">
        <ele>396.1</ele>
        <time>2024-02-17T10:58:53Z</time>
      </trkpt>
      <trkpt lat="44.10706" lon="3.14091">
        <ele>397.9</ele>
        <time>2024-02-17T10:58:57Z</time>
      </trkpt>
      <trkpt lat="44.10704" lon="3.14106">
        <ele>398.4</ele>
        <time>2024-02-17T10:59:01Z</time>
      </trkpt>
      <trkpt lat="44.10705" lon="3.14121">
        <ele>397.3</ele>
        <time>2024-02-17T10:59:06Z</time>
      </trkpt>
      <trkpt lat="44.10702" lon="3.14133">
        <ele>398.4</ele>
        <time>2024-02-17T10:59:10Z</time>
      </trkpt>
      <trkpt lat="44.10701" lon="3.14149">
        <ele>398.1</ele>
        <time>2024-02-17T10:59:15Z</time>
      </trkpt>
      <trkpt lat="44.10703" lon="3.14161">
        <ele>396.2</ele>
        <time>2024-02-17T10:59:18Z</time>
      </trkpt>
      <trkpt lat="44.10706" lon="3.14176">
        <ele>392.4</ele>
        <time>2024-02-17T10:59:23Z</time>
      </trkpt>
      <trkpt lat="44.10705" lon="3.1419">
        <ele>390.7</ele>
        <time>2024-02-17T10:59:28Z</time>
      </trkpt>
      <trkpt lat="44.10705" lon="3.14203">
        <ele>388.8</ele>
        <time>2024-02-17T10:59:32Z</time>
      </trkpt>
      <trkpt lat="44.10708" lon="3.14217">
        <ele>385</ele>
        <time>2024-02-17T10:59:34Z</time>
      </trkpt>
      <trkpt lat="44.10703" lon="3.14229">
        <ele>386.8</ele>
        <time>2024-02-17T10:59:36Z</time>
      </trkpt>
      <trkpt lat="44.10702" lon="3.14246">
        <ele>385.8</ele>
        <time>2024-02-17T10:59:39Z</time>
      </trkpt>
      <trkpt lat="44.10697" lon="3.14261">
        <ele>385.9</ele>
        <time>2024-02-17T10:59:43Z</time>
      </trkpt>
      <trkpt lat="44.10687" lon="3.14267">
        <ele>388.9</ele>
        <time>2024-02-17T10:59:46Z</time>
      </trkpt>
      <trkpt lat="44.1068" lon="3.14277">
        <ele>389.9</ele>
        <time>2024-02-17T10:59:52Z</time>
      </trkpt>
      <trkpt lat="44.10675" lon="3.14289">
        <ele>390.5</ele>
        <time>2024-02-17T10:59:57Z</time>
      </trkpt>
      <trkpt lat="44.10669" lon="3.14301">
        <ele>392.2</ele>
        <time>2024-02-17T11:00:02Z</time>
      </trkpt>
      <trkpt lat="44.10663" lon="3.14315">
        <ele>392.9</ele>
        <time>2024-02-17T11:00:07Z</time>
      </trkpt>
      <trkpt lat="44.10664" lon="3.14329">
        <ele>389.9</ele>
        <time>2024-02-17T11:00:12Z</time>
      </trkpt>
      <trkpt lat="44.10661" lon="3.14342">
        <ele>388.3</ele>
        <time>2024-02-17T11:00:17Z</time>
      </trkpt>
      <trkpt lat="44.10654" lon="3.1435">
        <ele>390</ele>
        <time>2024-02-17T11:00:21Z</time>
      </trkpt>
      <trkpt lat="44.10645" lon="3.14357">
        <ele>393.9</ele>
        <time>2024-02-17T11:00:26Z</time>
      </trkpt>
      <trkpt lat="44.10639" lon="3.14368">
        <ele>395.7</ele>
        <time>2024-02-17T11:00:32Z</time>
      </trkpt>
      <trkpt lat="44.10634" lon="3.14379">
        <ele>395.9</ele>
        <time>2024-02-17T11:00:36Z</time>
      </trkpt>
      <trkpt lat="44.10624" lon="3.14386">
        <ele>399.4</ele>
        <time>2024-02-17T11:00:39Z</time>
      </trkpt>
      <trkpt lat="44.10618" lon="3.14398">
        <ele>400</ele>
        <time>2024-02-17T11:00:44Z</time>
      </trkpt>
      <trkpt lat="44.10612" lon="3.14409">
        <ele>401.5</ele>
        <time>2024-02-17T11:00:50Z</time>
      </trkpt>
      <trkpt lat="44.10617" lon="3.14424">
        <ele>395.5</ele>
        <time>2024-02-17T11:00:53Z</time>
      </trkpt>
      <trkpt lat="44.10616" lon="3.14439">
        <ele>393.4</ele>
        <time>2024-02-17T11:00:56Z</time>
      </trkpt>
      <trkpt lat="44.10606" lon="3.14446">
        <ele>396.9</ele>
        <time>2024-02-17T11:00:59Z</time>
      </trkpt>
      <trkpt lat="44.10597" lon="3.14452">
        <ele>397.2</ele>
        <time>2024-02-17T11:01:01Z</time>
      </trkpt>
      <trkpt lat="44.10585" lon="3.14461">
        <ele>397</ele>
        <time>2024-02-17T11:01:04Z</time>
      </trkpt>
      <trkpt lat="44.10576" lon="3.14471">
        <ele>394.5</ele>
        <time>2024-02-17T11:01:08Z</time>
      </trkpt>
      <trkpt lat="44.10566" lon="3.14473">
        <ele>395.4</ele>
        <time>2024-02-17T11:01:13Z</time>
      </trkpt>
      <trkpt lat="44.10557" lon="3.14484">
        <ele>397.4</ele>
        <time>2024-02-17T11:01:18Z</time>
      </trkpt>
      <trkpt lat="44.10561" lon="3.14496">
        <ele>396.1</ele>
        <time>2024-02-17T11:01:23Z</time>
      </trkpt>
      <trkpt lat="44.10566" lon="3.14507">
        <ele>395.8</ele>
        <time>2024-02-17T11:01:27Z</time>
      </trkpt>
      <trkpt lat="44.10569" lon="3.1452">
        <ele>398.6</ele>
        <time>2024-02-17T11:01:36Z</time>
      </trkpt>
      <trkpt lat="44.10566" lon="3.14532">
        <ele>402.4</ele>
        <time>2024-02-17T11:01:51Z</time>
      </trkpt>
      <trkpt lat="44.10558" lon="3.14538">
        <ele>407.3</ele>
        <time>2024-02-17T11:01:56Z</time>
      </trkpt>
      <trkpt lat="44.10558" lon="3.14553">
        <ele>406.8</ele>
        <time>2024-02-17T11:02:00Z</time>
      </trkpt>
      <trkpt lat="44.10555" lon="3.14566">
        <ele>406.1</ele>
        <time>2024-02-17T11:02:05Z</time>
      </trkpt>
      <trkpt lat="44.10548" lon="3.14575">
        <ele>409.7</ele>
        <time>2024-02-17T11:02:10Z</time>
      </trkpt>
      <trkpt lat="44.10542" lon="3.14586">
        <ele>412.9</ele>
        <time>2024-02-17T11:02:15Z</time>
      </trkpt>
      <trkpt lat="44.10535" lon="3.14594">
        <ele>417.6</ele>
        <time>2024-02-17T11:02:20Z</time>
      </trkpt>
      <trkpt lat="44.10531" lon="3.14606">
        <ele>418.2</ele>
        <time>2024-02-17T11:02:25Z</time>
      </trkpt>
      <trkpt lat="44.10528" lon="3.14621">
        <ele>415.5</ele>
        <time>2024-02-17T11:02:30Z</time>
      </trkpt>
      <trkpt lat="44.10525" lon="3.14637">
        <ele>411.3</ele>
        <time>2024-02-17T11:02:36Z</time>
      </trkpt>
      <trkpt lat="44.10526" lon="3.14654">
        <ele>405.3</ele>
        <time>2024-02-17T11:02:40Z</time>
      </trkpt>
      <trkpt lat="44.10525" lon="3.14669">
        <ele>402.3</ele>
        <time>2024-02-17T11:02:43Z</time>
      </trkpt>
      <trkpt lat="44.10521" lon="3.14681">
        <ele>404.7</ele>
        <time>2024-02-17T11:02:46Z</time>
      </trkpt>
      <trkpt lat="44.10516" lon="3.14695">
        <ele>407.5</ele>
        <time>2024-02-17T11:02:51Z</time>
      </trkpt>
      <trkpt lat="44.10516" lon="3.14716">
        <ele>402.4</ele>
        <time>2024-02-17T11:02:56Z</time>
      </trkpt>
      <trkpt lat="44.10515" lon="3.14729">
        <ele>400.4</ele>
        <time>2024-02-17T11:02:58Z</time>
      </trkpt>
      <trkpt lat="44.10514" lon="3.14744">
        <ele>398.2</ele>
        <time>2024-02-17T11:03:02Z</time>
      </trkpt>
      <trkpt lat="44.10514" lon="3.14757">
        <ele>395.8</ele>
        <time>2024-02-17T11:03:06Z</time>
      </trkpt>
      <trkpt lat="44.10507" lon="3.14767">
        <ele>401.1</ele>
        <time>2024-02-17T11:03:10Z</time>
      </trkpt>
      <trkpt lat="44.10504" lon="3.14781">
        <ele>402.5</ele>
        <time>2024-02-17T11:03:15Z</time>
      </trkpt>
      <trkpt lat="44.10497" lon="3.14795">
        <ele>407.9</ele>
        <time>2024-02-17T11:03:20Z</time>
      </trkpt>
      <trkpt lat="44.10495" lon="3.14809">
        <ele>408.4</ele>
        <time>2024-02-17T11:03:24Z</time>
      </trkpt>
      <trkpt lat="44.10497" lon="3.14823">
        <ele>405.4</ele>
        <time>2024-02-17T11:03:27Z</time>
      </trkpt>
      <trkpt lat="44.10498" lon="3.14836">
        <ele>403</ele>
        <time>2024-02-17T11:03:29Z</time>
      </trkpt>
      <trkpt lat="44.10499" lon="3.14851">
        <ele>396.5</ele>
        <time>2024-02-17T11:03:32Z</time>
      </trkpt>
      <trkpt lat="44.10507" lon="3.14861">
        <ele>386</ele>
        <time>2024-02-17T11:03:36Z</time>
      </trkpt>
      <trkpt lat="44.10508" lon="3.14875">
        <ele>386.5</ele>
        <time>2024-02-17T11:03:53Z</time>
      </trkpt>
      <trkpt lat="44.10504" lon="3.14887">
        <ele>391.7</ele>
        <time>2024-02-17T11:03:58Z</time>
      </trkpt>
      <trkpt lat="44.10502" lon="3.14902">
        <ele>394.4</ele>
        <time>2024-02-17T11:04:04Z</time>
      </trkpt>
      <trkpt lat="44.10502" lon="3.14916">
        <ele>394.9</ele>
        <time>2024-02-17T11:04:08Z</time>
      </trkpt>
      <trkpt lat="44.105" lon="3.1493">
        <ele>397.5</ele>
        <time>2024-02-17T11:04:14Z</time>
      </trkpt>
      <trkpt lat="44.10499" lon="3.14943">
        <ele>398.8</ele>
        <time>2024-02-17T11:04:18Z</time>
      </trkpt>
      <trkpt lat="44.10496" lon="3.14957">
        <ele>401.8</ele>
        <time>2024-02-17T11:04:23Z</time>
      </trkpt>
      <trkpt lat="44.10493" lon="3.14971">
        <ele>404.8</ele>
        <time>2024-02-17T11:04:29Z</time>
      </trkpt>
      <trkpt lat="44.10498" lon="3.14983">
        <ele>401.1</ele>
        <time>2024-02-17T11:04:33Z</time>
      </trkpt>
      <trkpt lat="44.10503" lon="3.14999">
        <ele>397.5</ele>
        <time>2024-02-17T11:04:38Z</time>
      </trkpt>
      <trkpt lat="44.10507" lon="3.15014">
        <ele>395.3</ele>
        <time>2024-02-17T11:04:42Z</time>
      </trkpt>
      <trkpt lat="44.1051" lon="3.1503">
        <ele>394.3</ele>
        <time>2024-02-17T11:04:47Z</time>
      </trkpt>
      <trkpt lat="44.10513" lon="3.15043">
        <ele>393.3</ele>
        <time>2024-02-17T11:04:51Z</time>
      </trkpt>
      <trkpt lat="44.10516" lon="3.15056">
        <ele>392.4</ele>
        <time>2024-02-17T11:04:58Z</time>
      </trkpt>
      <trkpt lat="44.10517" lon="3.1507">
        <ele>393.4</ele>
        <time>2024-02-17T11:05:04Z</time>
      </trkpt>
      <trkpt lat="44.10514" lon="3.15085">
        <ele>397.4</ele>
        <time>2024-02-17T11:05:11Z</time>
      </trkpt>
      <trkpt lat="44.10521" lon="3.15097">
        <ele>392.7</ele>
        <time>2024-02-17T11:05:16Z</time>
      </trkpt>
      <trkpt lat="44.10527" lon="3.15107">
        <ele>389.2</ele>
        <time>2024-02-17T11:05:23Z</time>
      </trkpt>
      <trkpt lat="44.10528" lon="3.1512">
        <ele>390.7</ele>
        <time>2024-02-17T11:05:29Z</time>
      </trkpt>
      <trkpt lat="44.10529" lon="3.15134">
        <ele>392.9</ele>
        <time>2024-02-17T11:05:34Z</time>
      </trkpt>
      <trkpt lat="44.10533" lon="3.15146">
        <ele>392.1</ele>
        <time>2024-02-17T11:05:40Z</time>
      </trkpt>
      <trkpt lat="44.10536" lon="3.1516">
        <ele>392.7</ele>
        <time>2024-02-17T11:05:46Z</time>
      </trkpt>
      <trkpt lat="44.1054" lon="3.15172">
        <ele>392.2</ele>
        <time>2024-02-17T11:05:51Z</time>
      </trkpt>
      <trkpt lat="44.10544" lon="3.15186">
        <ele>392.4</ele>
        <time>2024-02-17T11:05:56Z</time>
      </trkpt>
      <trkpt lat="44.10549" lon="3.15197">
        <ele>391.2</ele>
        <time>2024-02-17T11:05:59Z</time>
      </trkpt>
      <trkpt lat="44.10555" lon="3.15207">
        <ele>389.5</ele>
        <time>2024-02-17T11:06:02Z</time>
      </trkpt>
      <trkpt lat="44.10559" lon="3.15219">
        <ele>390.4</ele>
        <time>2024-02-17T11:06:06Z</time>
      </trkpt>
      <trkpt lat="44.10564" lon="3.1523">
        <ele>389.6</ele>
        <time>2024-02-17T11:06:10Z</time>
      </trkpt>
      <trkpt lat="44.10568" lon="3.15243">
        <ele>389.8</ele>
        <time>2024-02-17T11:06:15Z</time>
      </trkpt>
      <trkpt lat="44.10571" lon="3.15255">
        <ele>390.8</ele>
        <time>2024-02-17T11:06:20Z</time>
      </trkpt>
      <trkpt lat="44.10575" lon="3.15269">
        <ele>392</ele>
        <time>2024-02-17T11:06:25Z</time>
      </trkpt>
      <trkpt lat="44.10583" lon="3.15281">
        <ele>390</ele>
        <time>2024-02-17T11:06:29Z</time>
      </trkpt>
      <trkpt lat="44.10596" lon="3.15293">
        <ele>384.8</ele>
        <time>2024-02-17T11:06:34Z</time>
      </trkpt>
      <trkpt lat="44.10599" lon="3.15305">
        <ele>385.2</ele>
        <time>2024-02-17T11:06:39Z</time>
      </trkpt>
      <trkpt lat="44.106" lon="3.15319">
        <ele>388.7</ele>
        <time>2024-02-17T11:06:44Z</time>
      </trkpt>
      <trkpt lat="44.106" lon="3.15332">
        <ele>392.6</ele>
        <time>2024-02-17T11:06:50Z</time>
      </trkpt>
      <trkpt lat="44.10596" lon="3.15345">
        <ele>399</ele>
        <time>2024-02-17T11:06:54Z</time>
      </trkpt>
      <trkpt lat="44.10591" lon="3.15359">
        <ele>406.2</ele>
        <time>2024-02-17T11:06:58Z</time>
      </trkpt>
      <trkpt lat="44.10596" lon="3.1537">
        <ele>404.6</ele>
        <time>2024-02-17T11:07:01Z</time>
      </trkpt>
      <trkpt lat="44.10598" lon="3.15382">
        <ele>405</ele>
        <time>2024-02-17T11:07:06Z</time>
      </trkpt>
      <trkpt lat="44.106" lon="3.15397">
        <ele>406.5</ele>
        <time>2024-02-17T11:07:12Z</time>
      </trkpt>
      <trkpt lat="44.10604" lon="3.15413">
        <ele>407.3</ele>
        <time>2024-02-17T11:07:17Z</time>
      </trkpt>
      <trkpt lat="44.10604" lon="3.15428">
        <ele>410.5</ele>
        <time>2024-02-17T11:07:22Z</time>
      </trkpt>
      <trkpt lat="44.106" lon="3.15439">
        <ele>415.5</ele>
        <time>2024-02-17T11:07:26Z</time>
      </trkpt>
      <trkpt lat="44.10603" lon="3.15451">
        <ele>416.6</ele>
        <time>2024-02-17T11:07:32Z</time>
      </trkpt>
      <trkpt lat="44.10612" lon="3.15459">
        <ele>413.1</ele>
        <time>2024-02-17T11:07:35Z</time>
      </trkpt>
      <trkpt lat="44.10615" lon="3.15472">
        <ele>415.1</ele>
        <time>2024-02-17T11:07:39Z</time>
      </trkpt>
      <trkpt lat="44.10625" lon="3.15478">
        <ele>409.5</ele>
        <time>2024-02-17T11:07:43Z</time>
      </trkpt>
      <trkpt lat="44.10633" lon="3.15483">
        <ele>405</ele>
        <time>2024-02-17T11:07:46Z</time>
      </trkpt>
      <trkpt lat="44.10637" lon="3.15496">
        <ele>405.4</ele>
        <time>2024-02-17T11:07:50Z</time>
      </trkpt>
      <trkpt lat="44.10643" lon="3.15507">
        <ele>404.8</ele>
        <time>2024-02-17T11:07:53Z</time>
      </trkpt>
      <trkpt lat="44.10651" lon="3.15519">
        <ele>403.6</ele>
        <time>2024-02-17T11:07:56Z</time>
      </trkpt>
      <trkpt lat="44.10661" lon="3.1553">
        <ele>400.3</ele>
        <time>2024-02-17T11:07:59Z</time>
      </trkpt>
      <trkpt lat="44.10667" lon="3.15542">
        <ele>399.9</ele>
        <time>2024-02-17T11:08:04Z</time>
      </trkpt>
      <trkpt lat="44.10673" lon="3.15552">
        <ele>399.1</ele>
        <time>2024-02-17T11:08:08Z</time>
      </trkpt>
      <trkpt lat="44.10677" lon="3.15565">
        <ele>399.7</ele>
        <time>2024-02-17T11:08:12Z</time>
      </trkpt>
      <trkpt lat="44.10683" lon="3.15576">
        <ele>398.4</ele>
        <time>2024-02-17T11:08:15Z</time>
      </trkpt>
      <trkpt lat="44.10685" lon="3.1559">
        <ele>400</ele>
        <time>2024-02-17T11:08:20Z</time>
      </trkpt>
      <trkpt lat="44.10685" lon="3.15603">
        <ele>402.3</ele>
        <time>2024-02-17T11:08:25Z</time>
      </trkpt>
      <trkpt lat="44.10688" lon="3.15617">
        <ele>402.2</ele>
        <time>2024-02-17T11:08:30Z</time>
      </trkpt>
      <trkpt lat="44.10686" lon="3.15631">
        <ele>404.1</ele>
        <time>2024-02-17T11:08:34Z</time>
      </trkpt>
      <trkpt lat="44.10683" lon="3.15643">
        <ele>406.1</ele>
        <time>2024-02-17T11:08:39Z</time>
      </trkpt>
      <trkpt lat="44.10686" lon="3.15655">
        <ele>403.3</ele>
        <time>2024-02-17T11:08:43Z</time>
      </trkpt>
      <trkpt lat="44.10684" lon="3.15668">
        <ele>403.7</ele>
        <time>2024-02-17T11:08:49Z</time>
      </trkpt>
      <trkpt lat="44.10679" lon="3.15682">
        <ele>405.6</ele>
        <time>2024-02-17T11:08:55Z</time>
      </trkpt>
      <trkpt lat="44.10678" lon="3.15697">
        <ele>404.8</ele>
        <time>2024-02-17T11:08:59Z</time>
      </trkpt>
      <trkpt lat="44.10676" lon="3.1571">
        <ele>404.6</ele>
        <time>2024-02-17T11:09:03Z</time>
      </trkpt>
      <trkpt lat="44.10668" lon="3.15719">
        <ele>407.8</ele>
        <time>2024-02-17T11:09:06Z</time>
      </trkpt>
      <trkpt lat="44.10662" lon="3.15732">
        <ele>409.2</ele>
        <time>2024-02-17T11:09:10Z</time>
      </trkpt>
      <trkpt lat="44.10667" lon="3.15743">
        <ele>404.9</ele>
        <time>2024-02-17T11:09:13Z</time>
      </trkpt>
      <trkpt lat="44.10673" lon="3.15755">
        <ele>400.9</ele>
        <time>2024-02-17T11:09:17Z</time>
      </trkpt>
      <trkpt lat="44.10675" lon="3.1577">
        <ele>399.2</ele>
        <time>2024-02-17T11:09:21Z</time>
      </trkpt>
      <trkpt lat="44.10673" lon="3.15784">
        <ele>398.7</ele>
        <time>2024-02-17T11:09:25Z</time>
      </trkpt>
      <trkpt lat="44.10671" lon="3.15799">
        <ele>397.6</ele>
        <time>2024-02-17T11:09:30Z</time>
      </trkpt>
      <trkpt lat="44.10671" lon="3.15812">
        <ele>395.5</ele>
        <time>2024-02-17T11:09:35Z</time>
      </trkpt>
      <trkpt lat="44.10665" lon="3.15823">
        <ele>394.5</ele>
        <time>2024-02-17T11:09:40Z</time>
      </trkpt>
      <trkpt lat="44.10654" lon="3.15829">
        <ele>395</ele>
        <time>2024-02-17T11:09:45Z</time>
      </trkpt>
      <trkpt lat="44.10643" lon="3.15832">
        <ele>395.8</ele>
        <time>2024-02-17T11:09:48Z</time>
      </trkpt>
      <trkpt lat="44.10633" lon="3.15834">
        <ele>396.1</ele>
        <time>2024-02-17T11:09:50Z</time>
      </trkpt>
      <trkpt lat="44.10624" lon="3.15836">
        <ele>395.9</ele>
        <time>2024-02-17T11:09:53Z</time>
      </trkpt>
      <trkpt lat="44.10614" lon="3.15841">
        <ele>394.5</ele>
        <time>2024-02-17T11:09:55Z</time>
      </trkpt>
      <trkpt lat="44.10606" lon="3.15847">
        <ele>392.6</ele>
        <time>2024-02-17T11:09:57Z</time>
      </trkpt>
      <trkpt lat="44.10597" lon="3.15854">
        <ele>390.5</ele>
        <time>2024-02-17T11:10:01Z</time>
      </trkpt>
      <trkpt lat="44.10588" lon="3.15861">
        <ele>388.5</ele>
        <time>2024-02-17T11:10:04Z</time>
      </trkpt>
      <trkpt lat="44.10577" lon="3.15867">
        <ele>390.6</ele>
        <time>2024-02-17T11:10:08Z</time>
      </trkpt>
      <trkpt lat="44.10567" lon="3.15871">
        <ele>392.2</ele>
        <time>2024-02-17T11:10:11Z</time>
      </trkpt>
      <trkpt lat="44.10556" lon="3.15872">
        <ele>393.6</ele>
        <time>2024-02-17T11:10:15Z</time>
      </trkpt>
      <trkpt lat="44.10546" lon="3.15871">
        <ele>394.7</ele>
        <time>2024-02-17T11:10:18Z</time>
      </trkpt>
      <trkpt lat="44.10536" lon="3.15876">
        <ele>394.6</ele>
        <time>2024-02-17T11:10:21Z</time>
      </trkpt>
      <trkpt lat="44.10522" lon="3.15882">
        <ele>394.8</ele>
        <time>2024-02-17T11:10:26Z</time>
      </trkpt>
      <trkpt lat="44.10523" lon="3.15895">
        <ele>394.8</ele>
        <time>2024-02-17T11:10:34Z</time>
      </trkpt>
      <trkpt lat="44.1053" lon="3.15905">
        <ele>395.7</ele>
        <time>2024-02-17T11:10:41Z</time>
      </trkpt>
      <trkpt lat="44.10536" lon="3.15915">
        <ele>397.1</ele>
        <time>2024-02-17T11:10:47Z</time>
      </trkpt>
      <trkpt lat="44.10545" lon="3.15921">
        <ele>398.8</ele>
        <time>2024-02-17T11:10:57Z</time>
      </trkpt>
      <trkpt lat="44.10554" lon="3.15928">
        <ele>401.4</ele>
        <time>2024-02-17T11:11:02Z</time>
      </trkpt>
      <trkpt lat="44.10563" lon="3.15933">
        <ele>405.1</ele>
        <time>2024-02-17T11:11:09Z</time>
      </trkpt>
      <trkpt lat="44.10573" lon="3.15935">
        <ele>407.9</ele>
        <time>2024-02-17T11:11:18Z</time>
      </trkpt>
      <trkpt lat="44.10582" lon="3.15935">
        <ele>409.7</ele>
        <time>2024-02-17T11:11:25Z</time>
      </trkpt>
      <trkpt lat="44.10593" lon="3.15935">
        <ele>409.6</ele>
        <time>2024-02-17T11:11:29Z</time>
      </trkpt>
      <trkpt lat="44.10602" lon="3.15932">
        <ele>408</ele>
        <time>2024-02-17T11:11:31Z</time>
      </trkpt>
      <trkpt lat="44.10611" lon="3.15934">
        <ele>408.5</ele>
        <time>2024-02-17T11:11:33Z</time>
      </trkpt>
      <trkpt lat="44.10621" lon="3.15937">
        <ele>408.9</ele>
        <time>2024-02-17T11:11:36Z</time>
      </trkpt>
      <trkpt lat="44.10633" lon="3.15938">
        <ele>408.3</ele>
        <time>2024-02-17T11:11:39Z</time>
      </trkpt>
      <trkpt lat="44.10642" lon="3.15936">
        <ele>406.4</ele>
        <time>2024-02-17T11:11:42Z</time>
      </trkpt>
      <trkpt lat="44.10653" lon="3.15938">
        <ele>406</ele>
        <time>2024-02-17T11:11:47Z</time>
      </trkpt>
      <trkpt lat="44.10662" lon="3.15941">
        <ele>406.1</ele>
        <time>2024-02-17T11:11:50Z</time>
      </trkpt>
      <trkpt lat="44.10671" lon="3.15944">
        <ele>405</ele>
        <time>2024-02-17T11:11:54Z</time>
      </trkpt>
      <trkpt lat="44.10677" lon="3.15956">
        <ele>405.2</ele>
        <time>2024-02-17T11:12:02Z</time>
      </trkpt>
      <trkpt lat="44.1068" lon="3.15971">
        <ele>407.1</ele>
        <time>2024-02-17T11:12:06Z</time>
      </trkpt>
      <trkpt lat="44.10682" lon="3.15986">
        <ele>409.1</ele>
        <time>2024-02-17T11:12:10Z</time>
      </trkpt>
      <trkpt lat="44.10682" lon="3.16001">
        <ele>412.3</ele>
        <time>2024-02-17T11:12:14Z</time>
      </trkpt>
      <trkpt lat="44.10685" lon="3.16014">
        <ele>413.8</ele>
        <time>2024-02-17T11:12:17Z</time>
      </trkpt>
      <trkpt lat="44.1069" lon="3.16025">
        <ele>413.3</ele>
        <time>2024-02-17T11:12:19Z</time>
      </trkpt>
      <trkpt lat="44.10695" lon="3.16036">
        <ele>413</ele>
        <time>2024-02-17T11:12:21Z</time>
      </trkpt>
      <trkpt lat="44.10703" lon="3.16051">
        <ele>411.8</ele>
        <time>2024-02-17T11:12:23Z</time>
      </trkpt>
      <trkpt lat="44.10709" lon="3.16065">
        <ele>411.4</ele>
        <time>2024-02-17T11:12:25Z</time>
      </trkpt>
      <trkpt lat="44.10715" lon="3.1608">
        <ele>410.7</ele>
        <time>2024-02-17T11:12:27Z</time>
      </trkpt>
      <trkpt lat="44.10724" lon="3.16095">
        <ele>408.6</ele>
        <time>2024-02-17T11:12:29Z</time>
      </trkpt>
      <trkpt lat="44.10736" lon="3.16112">
        <ele>405.9</ele>
        <time>2024-02-17T11:12:31Z</time>
      </trkpt>
      <trkpt lat="44.10746" lon="3.16123">
        <ele>403</ele>
        <time>2024-02-17T11:12:33Z</time>
      </trkpt>
      <trkpt lat="44.10754" lon="3.16137">
        <ele>402.6</ele>
        <time>2024-02-17T11:12:35Z</time>
      </trkpt>
      <trkpt lat="44.10761" lon="3.1615">
        <ele>401.6</ele>
        <time>2024-02-17T11:12:37Z</time>
      </trkpt>
      <trkpt lat="44.10767" lon="3.1616">
        <ele>400.6</ele>
        <time>2024-02-17T11:12:39Z</time>
      </trkpt>
      <trkpt lat="44.10772" lon="3.16176">
        <ele>402.6</ele>
        <time>2024-02-17T11:12:43Z</time>
      </trkpt>
      <trkpt lat="44.10786" lon="3.16185">
        <ele>396.7</ele>
        <time>2024-02-17T11:12:45Z</time>
      </trkpt>
      <trkpt lat="44.10793" lon="3.16194">
        <ele>395.5</ele>
        <time>2024-02-17T11:12:47Z</time>
      </trkpt>
      <trkpt lat="44.10833" lon="3.16211">
        <ele>376.8</ele>
        <time>2024-02-17T11:12:53Z</time>
      </trkpt>
      <trkpt lat="44.1085" lon="3.16226">
        <ele>375.6</ele>
        <time>2024-02-17T11:12:58Z</time>
      </trkpt>
      <trkpt lat="44.10857" lon="3.16239">
        <ele>375</ele>
        <time>2024-02-17T11:13:02Z</time>
      </trkpt>
      <trkpt lat="44.10863" lon="3.16251">
        <ele>374.2</ele>
        <time>2024-02-17T11:13:05Z</time>
      </trkpt>
      <trkpt lat="44.10868" lon="3.16263">
        <ele>376.8</ele>
        <time>2024-02-17T11:13:08Z</time>
      </trkpt>
      <trkpt lat="44.10874" lon="3.16275">
        <ele>377.8</ele>
        <time>2024-02-17T11:13:12Z</time>
      </trkpt>
      <trkpt lat="44.10875" lon="3.16288">
        <ele>380.8</ele>
        <time>2024-02-17T11:13:15Z</time>
      </trkpt>
      <trkpt lat="44.10878" lon="3.16302">
        <ele>383</ele>
        <time>2024-02-17T11:13:19Z</time>
      </trkpt>
      <trkpt lat="44.10883" lon="3.16313">
        <ele>383.6</ele>
        <time>2024-02-17T11:13:23Z</time>
      </trkpt>
      <trkpt lat="44.10892" lon="3.16324">
        <ele>382.8</ele>
        <time>2024-02-17T11:13:27Z</time>
      </trkpt>
      <trkpt lat="44.10899" lon="3.16333">
        <ele>382.2</ele>
        <time>2024-02-17T11:13:31Z</time>
      </trkpt>
      <trkpt lat="44.10907" lon="3.16344">
        <ele>381.1</ele>
        <time>2024-02-17T11:13:34Z</time>
      </trkpt>
      <trkpt lat="44.10913" lon="3.16353">
        <ele>380.2</ele>
        <time>2024-02-17T11:13:36Z</time>
      </trkpt>
      <trkpt lat="44.1092" lon="3.16363">
        <ele>379.6</ele>
        <time>2024-02-17T11:13:40Z</time>
      </trkpt>
      <trkpt lat="44.10925" lon="3.16376">
        <ele>380.8</ele>
        <time>2024-02-17T11:13:45Z</time>
      </trkpt>
      <trkpt lat="44.10928" lon="3.16392">
        <ele>382.8</ele>
        <time>2024-02-17T11:13:49Z</time>
      </trkpt>
      <trkpt lat="44.10931" lon="3.16409">
        <ele>384.8</ele>
        <time>2024-02-17T11:13:52Z</time>
      </trkpt>
      <trkpt lat="44.10931" lon="3.16422">
        <ele>387.2</ele>
        <time>2024-02-17T11:13:54Z</time>
      </trkpt>
      <trkpt lat="44.10932" lon="3.16435">
        <ele>389</ele>
        <time>2024-02-17T11:13:56Z</time>
      </trkpt>
      <trkpt lat="44.10931" lon="3.16451">
        <ele>391.2</ele>
        <time>2024-02-17T11:13:59Z</time>
      </trkpt>
      <trkpt lat="44.10932" lon="3.16467">
        <ele>390.4</ele>
        <time>2024-02-17T11:14:03Z</time>
      </trkpt>
      <trkpt lat="44.10932" lon="3.16481">
        <ele>390.6</ele>
        <time>2024-02-17T11:14:06Z</time>
      </trkpt>
      <trkpt lat="44.10937" lon="3.16495">
        <ele>389.2</ele>
        <time>2024-02-17T11:14:12Z</time>
      </trkpt>
      <trkpt lat="44.10944" lon="3.16503">
        <ele>387.9</ele>
        <time>2024-02-17T11:14:15Z</time>
      </trkpt>
      <trkpt lat="44.10951" lon="3.16513">
        <ele>388.9</ele>
        <time>2024-02-17T11:14:18Z</time>
      </trkpt>
      <trkpt lat="44.10949" lon="3.16529">
        <ele>392.8</ele>
        <time>2024-02-17T11:14:22Z</time>
      </trkpt>
      <trkpt lat="44.10941" lon="3.16539">
        <ele>393.3</ele>
        <time>2024-02-17T11:14:26Z</time>
      </trkpt>
      <trkpt lat="44.1093" lon="3.16541">
        <ele>394.2</ele>
        <time>2024-02-17T11:14:30Z</time>
      </trkpt>
      <trkpt lat="44.10921" lon="3.16539">
        <ele>396</ele>
        <time>2024-02-17T11:14:33Z</time>
      </trkpt>
      <trkpt lat="44.10911" lon="3.1654">
        <ele>396.7</ele>
        <time>2024-02-17T11:14:39Z</time>
      </trkpt>
      <trkpt lat="44.10905" lon="3.16553">
        <ele>392.2</ele>
        <time>2024-02-17T11:14:47Z</time>
      </trkpt>
      <trkpt lat="44.10903" lon="3.16566">
        <ele>391.1</ele>
        <time>2024-02-17T11:14:52Z</time>
      </trkpt>
      <trkpt lat="44.10874" lon="3.16644">
        <ele>404.7</ele>
        <time>2024-02-17T11:16:17Z</time>
      </trkpt>
      <trkpt lat="44.10868" lon="3.16666">
        <ele>409.6</ele>
        <time>2024-02-17T11:16:22Z</time>
      </trkpt>
      <trkpt lat="44.10865" lon="3.1668">
        <ele>410</ele>
        <time>2024-02-17T11:16:27Z</time>
      </trkpt>
      <trkpt lat="44.10864" lon="3.16693">
        <ele>410.7</ele>
        <time>2024-02-17T11:16:34Z</time>
      </trkpt>
      <trkpt lat="44.1086" lon="3.16706">
        <ele>411.3</ele>
        <time>2024-02-17T11:16:42Z</time>
      </trkpt>
      <trkpt lat="44.10852" lon="3.16714">
        <ele>414</ele>
        <time>2024-02-17T11:16:48Z</time>
      </trkpt>
      <trkpt lat="44.10845" lon="3.16721">
        <ele>415.1</ele>
        <time>2024-02-17T11:16:55Z</time>
      </trkpt>
      <trkpt lat="44.10837" lon="3.16728">
        <ele>416.2</ele>
        <time>2024-02-17T11:17:03Z</time>
      </trkpt>
      <trkpt lat="44.10829" lon="3.16737">
        <ele>417.6</ele>
        <time>2024-02-17T11:17:13Z</time>
      </trkpt>
      <trkpt lat="44.1082" lon="3.1674">
        <ele>419.2</ele>
        <time>2024-02-17T11:17:22Z</time>
      </trkpt>
      <trkpt lat="44.10813" lon="3.16749">
        <ele>418</ele>
        <time>2024-02-17T11:17:32Z</time>
      </trkpt>
      <trkpt lat="44.10803" lon="3.16758">
        <ele>420.7</ele>
        <time>2024-02-17T11:17:38Z</time>
      </trkpt>
      <trkpt lat="44.10798" lon="3.16768">
        <ele>423.7</ele>
        <time>2024-02-17T11:17:46Z</time>
      </trkpt>
      <trkpt lat="44.10798" lon="3.16782">
        <ele>424.5</ele>
        <time>2024-02-17T11:17:56Z</time>
      </trkpt>
      <trkpt lat="44.10799" lon="3.16794">
        <ele>425.7</ele>
        <time>2024-02-17T11:18:03Z</time>
      </trkpt>
      <trkpt lat="44.10805" lon="3.16804">
        <ele>425.9</ele>
        <time>2024-02-17T11:18:12Z</time>
      </trkpt>
      <trkpt lat="44.10811" lon="3.16814">
        <ele>429.4</ele>
        <time>2024-02-17T11:18:17Z</time>
      </trkpt>
      <trkpt lat="44.10814" lon="3.16827">
        <ele>431.6</ele>
        <time>2024-02-17T11:18:25Z</time>
      </trkpt>
      <trkpt lat="44.10813" lon="3.1684">
        <ele>432.5</ele>
        <time>2024-02-17T11:18:33Z</time>
      </trkpt>
      <trkpt lat="44.10813" lon="3.16853">
        <ele>433.8</ele>
        <time>2024-02-17T11:18:41Z</time>
      </trkpt>
      <trkpt lat="44.10817" lon="3.16864">
        <ele>435.8</ele>
        <time>2024-02-17T11:18:49Z</time>
      </trkpt>
      <trkpt lat="44.1082" lon="3.16876">
        <ele>437.7</ele>
        <time>2024-02-17T11:18:57Z</time>
      </trkpt>
      <trkpt lat="44.10821" lon="3.16889">
        <ele>439.5</ele>
        <time>2024-02-17T11:19:05Z</time>
      </trkpt>
      <trkpt lat="44.10822" lon="3.16903">
        <ele>441</ele>
        <time>2024-02-17T11:19:13Z</time>
      </trkpt>
      <trkpt lat="44.10821" lon="3.16917">
        <ele>442.1</ele>
        <time>2024-02-17T11:19:21Z</time>
      </trkpt>
      <trkpt lat="44.10815" lon="3.16926">
        <ele>441.7</ele>
        <time>2024-02-17T11:19:30Z</time>
      </trkpt>
      <trkpt lat="44.10806" lon="3.16934">
        <ele>440.4</ele>
        <time>2024-02-17T11:19:40Z</time>
      </trkpt>
      <trkpt lat="44.10799" lon="3.16943">
        <ele>441.1</ele>
        <time>2024-02-17T11:19:49Z</time>
      </trkpt>
      <trkpt lat="44.10791" lon="3.16949">
        <ele>443.5</ele>
        <time>2024-02-17T11:19:56Z</time>
      </trkpt>
      <trkpt lat="44.10782" lon="3.16955">
        <ele>445.8</ele>
        <time>2024-02-17T11:20:07Z</time>
      </trkpt>
      <trkpt lat="44.10773" lon="3.16958">
        <ele>447.4</ele>
        <time>2024-02-17T11:20:17Z</time>
      </trkpt>
      <trkpt lat="44.10764" lon="3.16961">
        <ele>449.1</ele>
        <time>2024-02-17T11:20:30Z</time>
      </trkpt>
      <trkpt lat="44.10754" lon="3.16965">
        <ele>449.7</ele>
        <time>2024-02-17T11:20:41Z</time>
      </trkpt>
      <trkpt lat="44.10745" lon="3.16966">
        <ele>450.7</ele>
        <time>2024-02-17T11:20:47Z</time>
      </trkpt>
      <trkpt lat="44.10735" lon="3.16971">
        <ele>450.2</ele>
        <time>2024-02-17T11:20:58Z</time>
      </trkpt>
      <trkpt lat="44.10725" lon="3.16969">
        <ele>452.7</ele>
        <time>2024-02-17T11:21:05Z</time>
      </trkpt>
      <trkpt lat="44.10716" lon="3.16972">
        <ele>452.5</ele>
        <time>2024-02-17T11:21:10Z</time>
      </trkpt>
      <trkpt lat="44.10707" lon="3.16974">
        <ele>454.8</ele>
        <time>2024-02-17T11:21:17Z</time>
      </trkpt>
      <trkpt lat="44.10686" lon="3.16984">
        <ele>460.8</ele>
        <time>2024-02-17T11:21:35Z</time>
      </trkpt>
      <trkpt lat="44.10677" lon="3.16988">
        <ele>462.1</ele>
        <time>2024-02-17T11:21:42Z</time>
      </trkpt>
      <trkpt lat="44.1064" lon="3.17003">
        <ele>464</ele>
        <time>2024-02-17T11:22:13Z</time>
      </trkpt>
      <trkpt lat="44.10624" lon="3.17008">
        <ele>466.9</ele>
        <time>2024-02-17T11:22:18Z</time>
      </trkpt>
      <trkpt lat="44.10616" lon="3.17017">
        <ele>468.9</ele>
        <time>2024-02-17T11:22:25Z</time>
      </trkpt>
      <trkpt lat="44.10609" lon="3.17025">
        <ele>469.9</ele>
        <time>2024-02-17T11:22:33Z</time>
      </trkpt>
      <trkpt lat="44.10604" lon="3.17036">
        <ele>471.7</ele>
        <time>2024-02-17T11:22:42Z</time>
      </trkpt>
      <trkpt lat="44.10598" lon="3.17048">
        <ele>473.2</ele>
        <time>2024-02-17T11:22:50Z</time>
      </trkpt>
      <trkpt lat="44.10595" lon="3.17061">
        <ele>474.8</ele>
        <time>2024-02-17T11:22:58Z</time>
      </trkpt>
      <trkpt lat="44.1059" lon="3.17072">
        <ele>475.7</ele>
        <time>2024-02-17T11:23:05Z</time>
      </trkpt>
      <trkpt lat="44.10585" lon="3.17082">
        <ele>475.4</ele>
        <time>2024-02-17T11:23:13Z</time>
      </trkpt>
      <trkpt lat="44.10578" lon="3.17091">
        <ele>477.7</ele>
        <time>2024-02-17T11:23:22Z</time>
      </trkpt>
      <trkpt lat="44.10569" lon="3.17098">
        <ele>479.4</ele>
        <time>2024-02-17T11:23:28Z</time>
      </trkpt>
      <trkpt lat="44.10563" lon="3.17107">
        <ele>479.9</ele>
        <time>2024-02-17T11:23:39Z</time>
      </trkpt>
      <trkpt lat="44.10557" lon="3.17117">
        <ele>481.2</ele>
        <time>2024-02-17T11:23:49Z</time>
      </trkpt>
      <trkpt lat="44.10549" lon="3.17125">
        <ele>483.7</ele>
        <time>2024-02-17T11:23:56Z</time>
      </trkpt>
      <trkpt lat="44.10542" lon="3.17135">
        <ele>485.5</ele>
        <time>2024-02-17T11:24:05Z</time>
      </trkpt>
      <trkpt lat="44.10533" lon="3.1714">
        <ele>485.2</ele>
        <time>2024-02-17T11:24:17Z</time>
      </trkpt>
      <trkpt lat="44.10526" lon="3.17148">
        <ele>487.9</ele>
        <time>2024-02-17T11:24:29Z</time>
      </trkpt>
      <trkpt lat="44.10518" lon="3.17156">
        <ele>490.3</ele>
        <time>2024-02-17T11:24:37Z</time>
      </trkpt>
      <trkpt lat="44.1051" lon="3.17164">
        <ele>491</ele>
        <time>2024-02-17T11:24:46Z</time>
      </trkpt>
      <trkpt lat="44.10505" lon="3.17176">
        <ele>494.3</ele>
        <time>2024-02-17T11:24:58Z</time>
      </trkpt>
      <trkpt lat="44.10502" lon="3.17189">
        <ele>498.7</ele>
        <time>2024-02-17T11:25:09Z</time>
      </trkpt>
      <trkpt lat="44.10499" lon="3.17203">
        <ele>503</ele>
        <time>2024-02-17T11:25:19Z</time>
      </trkpt>
      <trkpt lat="44.10494" lon="3.17214">
        <ele>505.6</ele>
        <time>2024-02-17T11:25:28Z</time>
      </trkpt>
      <trkpt lat="44.10489" lon="3.17226">
        <ele>507.5</ele>
        <time>2024-02-17T11:25:38Z</time>
      </trkpt>
      <trkpt lat="44.10486" lon="3.17239">
        <ele>510</ele>
        <time>2024-02-17T11:25:48Z</time>
      </trkpt>
      <trkpt lat="44.10487" lon="3.17252">
        <ele>513.8</ele>
        <time>2024-02-17T11:25:59Z</time>
      </trkpt>
      <trkpt lat="44.10487" lon="3.17265">
        <ele>516.2</ele>
        <time>2024-02-17T11:26:11Z</time>
      </trkpt>
      <trkpt lat="44.10489" lon="3.17279">
        <ele>520.1</ele>
        <time>2024-02-17T11:26:20Z</time>
      </trkpt>
      <trkpt lat="44.10484" lon="3.1729">
        <ele>519</ele>
        <time>2024-02-17T11:26:27Z</time>
      </trkpt>
      <trkpt lat="44.10482" lon="3.17302">
        <ele>520</ele>
        <time>2024-02-17T11:26:38Z</time>
      </trkpt>
      <trkpt lat="44.10476" lon="3.17317">
        <ele>517.7</ele>
        <time>2024-02-17T11:26:53Z</time>
      </trkpt>
      <trkpt lat="44.10468" lon="3.17313">
        <ele>517.2</ele>
        <time>2024-02-17T11:27:34Z</time>
      </trkpt>
      <trkpt lat="44.10478" lon="3.17327">
        <ele>520.3</ele>
        <time>2024-02-17T11:28:56Z</time>
      </trkpt>
      <trkpt lat="44.1047" lon="3.17334">
        <ele>517.4</ele>
        <time>2024-02-17T11:29:12Z</time>
      </trkpt>
      <trkpt lat="44.10463" lon="3.17343">
        <ele>522.5</ele>
        <time>2024-02-17T11:29:23Z</time>
      </trkpt>
      <trkpt lat="44.10457" lon="3.17354">
        <ele>525</ele>
        <time>2024-02-17T11:29:33Z</time>
      </trkpt>
      <trkpt lat="44.10452" lon="3.17366">
        <ele>526</ele>
        <time>2024-02-17T11:29:42Z</time>
      </trkpt>
      <trkpt lat="44.10452" lon="3.17379">
        <ele>527.4</ele>
        <time>2024-02-17T11:29:51Z</time>
      </trkpt>
      <trkpt lat="44.10448" lon="3.17391">
        <ele>527.4</ele>
        <time>2024-02-17T11:30:02Z</time>
      </trkpt>
      <trkpt lat="44.10456" lon="3.17383">
        <ele>529.3</ele>
        <time>2024-02-17T11:30:25Z</time>
      </trkpt>
      <trkpt lat="44.10462" lon="3.17372">
        <ele>528.1</ele>
        <time>2024-02-17T11:30:34Z</time>
      </trkpt>
      <trkpt lat="44.10467" lon="3.17356">
        <ele>523.4</ele>
        <time>2024-02-17T11:30:41Z</time>
      </trkpt>
      <trkpt lat="44.10468" lon="3.17341">
        <ele>520.1</ele>
        <time>2024-02-17T11:30:47Z</time>
      </trkpt>
      <trkpt lat="44.10464" lon="3.17327">
        <ele>520.4</ele>
        <time>2024-02-17T11:30:52Z</time>
      </trkpt>
      <trkpt lat="44.1046" lon="3.17314">
        <ele>522.3</ele>
        <time>2024-02-17T11:30:57Z</time>
      </trkpt>
      <trkpt lat="44.10457" lon="3.173">
        <ele>523.2</ele>
        <time>2024-02-17T11:31:02Z</time>
      </trkpt>
      <trkpt lat="44.10456" lon="3.17286">
        <ele>522.2</ele>
        <time>2024-02-17T11:31:07Z</time>
      </trkpt>
      <trkpt lat="44.10451" lon="3.17272">
        <ele>523.9</ele>
        <time>2024-02-17T11:31:11Z</time>
      </trkpt>
      <trkpt lat="44.10448" lon="3.17258">
        <ele>523.3</ele>
        <time>2024-02-17T11:31:14Z</time>
      </trkpt>
      <trkpt lat="44.10449" lon="3.17244">
        <ele>520.9</ele>
        <time>2024-02-17T11:31:19Z</time>
      </trkpt>
      <trkpt lat="44.10449" lon="3.17231">
        <ele>520.5</ele>
        <time>2024-02-17T11:31:23Z</time>
      </trkpt>
      <trkpt lat="44.10445" lon="3.17218">
        <ele>522.9</ele>
        <time>2024-02-17T11:31:28Z</time>
      </trkpt>
      <trkpt lat="44.10444" lon="3.17205">
        <ele>521.9</ele>
        <time>2024-02-17T11:31:36Z</time>
      </trkpt>
      <trkpt lat="44.10441" lon="3.17192">
        <ele>523.5</ele>
        <time>2024-02-17T11:31:48Z</time>
      </trkpt>
      <trkpt lat="44.1044" lon="3.17179">
        <ele>528</ele>
        <time>2024-02-17T11:31:57Z</time>
      </trkpt>
      <trkpt lat="44.10449" lon="3.17167">
        <ele>524</ele>
        <time>2024-02-17T11:32:02Z</time>
      </trkpt>
      <trkpt lat="44.10455" lon="3.17156">
        <ele>521.9</ele>
        <time>2024-02-17T11:32:05Z</time>
      </trkpt>
      <trkpt lat="44.10456" lon="3.17143">
        <ele>524.7</ele>
        <time>2024-02-17T11:32:12Z</time>
      </trkpt>
      <trkpt lat="44.10456" lon="3.1713">
        <ele>528.6</ele>
        <time>2024-02-17T11:32:20Z</time>
      </trkpt>
      <trkpt lat="44.10463" lon="3.17122">
        <ele>525.4</ele>
        <time>2024-02-17T11:32:28Z</time>
      </trkpt>
      <trkpt lat="44.10468" lon="3.1711">
        <ele>524.9</ele>
        <time>2024-02-17T11:32:36Z</time>
      </trkpt>
      <trkpt lat="44.10459" lon="3.17104">
        <ele>534.6</ele>
        <time>2024-02-17T11:32:43Z</time>
      </trkpt>
      <trkpt lat="44.1045" lon="3.17102">
        <ele>542.7</ele>
        <time>2024-02-17T11:32:49Z</time>
      </trkpt>
      <trkpt lat="44.10442" lon="3.17108">
        <ele>547.3</ele>
        <time>2024-02-17T11:32:58Z</time>
      </trkpt>
      <trkpt lat="44.10433" lon="3.17116">
        <ele>552.5</ele>
        <time>2024-02-17T11:33:05Z</time>
      </trkpt>
      <trkpt lat="44.10429" lon="3.17128">
        <ele>551.4</ele>
        <time>2024-02-17T11:33:12Z</time>
      </trkpt>
      <trkpt lat="44.10425" lon="3.17141">
        <ele>549.9</ele>
        <time>2024-02-17T11:33:18Z</time>
      </trkpt>
      <trkpt lat="44.1042" lon="3.17152">
        <ele>551.1</ele>
        <time>2024-02-17T11:33:24Z</time>
      </trkpt>
      <trkpt lat="44.10418" lon="3.17166">
        <ele>549.1</ele>
        <time>2024-02-17T11:33:29Z</time>
      </trkpt>
      <trkpt lat="44.10424" lon="3.17177">
        <ele>541.5</ele>
        <time>2024-02-17T11:33:37Z</time>
      </trkpt>
      <trkpt lat="44.10422" lon="3.17191">
        <ele>539.5</ele>
        <time>2024-02-17T11:33:43Z</time>
      </trkpt>
      <trkpt lat="44.10419" lon="3.17205">
        <ele>543.6</ele>
        <time>2024-02-17T11:33:48Z</time>
      </trkpt>
      <trkpt lat="44.10414" lon="3.17218">
        <ele>551.1</ele>
        <time>2024-02-17T11:33:52Z</time>
      </trkpt>
      <trkpt lat="44.10408" lon="3.17229">
        <ele>555.3</ele>
        <time>2024-02-17T11:33:58Z</time>
      </trkpt>
      <trkpt lat="44.10413" lon="3.1724">
        <ele>548.4</ele>
        <time>2024-02-17T11:34:07Z</time>
      </trkpt>
      <trkpt lat="44.10417" lon="3.17253">
        <ele>543.4</ele>
        <time>2024-02-17T11:34:14Z</time>
      </trkpt>
      <trkpt lat="44.10417" lon="3.17266">
        <ele>546.2</ele>
        <time>2024-02-17T11:34:19Z</time>
      </trkpt>
      <trkpt lat="44.10417" lon="3.17279">
        <ele>548.9</ele>
        <time>2024-02-17T11:34:23Z</time>
      </trkpt>
      <trkpt lat="44.10413" lon="3.17293">
        <ele>554.4</ele>
        <time>2024-02-17T11:34:28Z</time>
      </trkpt>
      <trkpt lat="44.10414" lon="3.17306">
        <ele>555.8</ele>
        <time>2024-02-17T11:34:33Z</time>
      </trkpt>
      <trkpt lat="44.10415" lon="3.17319">
        <ele>555.7</ele>
        <time>2024-02-17T11:34:38Z</time>
      </trkpt>
      <trkpt lat="44.10412" lon="3.17331">
        <ele>559.7</ele>
        <time>2024-02-17T11:34:43Z</time>
      </trkpt>
      <trkpt lat="44.10406" lon="3.17343">
        <ele>564.1</ele>
        <time>2024-02-17T11:34:48Z</time>
      </trkpt>
      <trkpt lat="44.10402" lon="3.17357">
        <ele>565.2</ele>
        <time>2024-02-17T11:34:53Z</time>
      </trkpt>
      <trkpt lat="44.10399" lon="3.17369">
        <ele>565.5</ele>
        <time>2024-02-17T11:35:00Z</time>
      </trkpt>
      <trkpt lat="44.10398" lon="3.17382">
        <ele>563.6</ele>
        <time>2024-02-17T11:35:20Z</time>
      </trkpt>
      <trkpt lat="44.10391" lon="3.17394">
        <ele>567</ele>
        <time>2024-02-17T11:35:34Z</time>
      </trkpt>
      <trkpt lat="44.10387" lon="3.17406">
        <ele>566.3</ele>
        <time>2024-02-17T11:35:47Z</time>
      </trkpt>
      <trkpt lat="44.10389" lon="3.1742">
        <ele>562.5</ele>
        <time>2024-02-17T11:36:16Z</time>
      </trkpt>
      <trkpt lat="44.10386" lon="3.17433">
        <ele>561.9</ele>
        <time>2024-02-17T11:36:21Z</time>
      </trkpt>
      <trkpt lat="44.10383" lon="3.17446">
        <ele>561.9</ele>
        <time>2024-02-17T11:36:24Z</time>
      </trkpt>
      <trkpt lat="44.10378" lon="3.17461">
        <ele>565.5</ele>
        <time>2024-02-17T11:36:27Z</time>
      </trkpt>
      <trkpt lat="44.1038" lon="3.17477">
        <ele>566.7</ele>
        <time>2024-02-17T11:36:30Z</time>
      </trkpt>
      <trkpt lat="44.10384" lon="3.1749">
        <ele>568</ele>
        <time>2024-02-17T11:36:33Z</time>
      </trkpt>
      <trkpt lat="44.10388" lon="3.17505">
        <ele>569.7</ele>
        <time>2024-02-17T11:36:37Z</time>
      </trkpt>
      <trkpt lat="44.10393" lon="3.17517">
        <ele>570.9</ele>
        <time>2024-02-17T11:36:40Z</time>
      </trkpt>
      <trkpt lat="44.10399" lon="3.17531">
        <ele>573</ele>
        <time>2024-02-17T11:36:44Z</time>
      </trkpt>
      <trkpt lat="44.10405" lon="3.17543">
        <ele>574.5</ele>
        <time>2024-02-17T11:36:48Z</time>
      </trkpt>
      <trkpt lat="44.10411" lon="3.17554">
        <ele>575.7</ele>
        <time>2024-02-17T11:36:51Z</time>
      </trkpt>
      <trkpt lat="44.10417" lon="3.17564">
        <ele>576</ele>
        <time>2024-02-17T11:36:55Z</time>
      </trkpt>
      <trkpt lat="44.10423" lon="3.17576">
        <ele>576.3</ele>
        <time>2024-02-17T11:36:59Z</time>
      </trkpt>
      <trkpt lat="44.10429" lon="3.17588">
        <ele>576.4</ele>
        <time>2024-02-17T11:37:04Z</time>
      </trkpt>
      <trkpt lat="44.10434" lon="3.176">
        <ele>576.6</ele>
        <time>2024-02-17T11:37:11Z</time>
      </trkpt>
      <trkpt lat="44.10436" lon="3.17614">
        <ele>576.9</ele>
        <time>2024-02-17T11:37:18Z</time>
      </trkpt>
      <trkpt lat="44.10438" lon="3.17627">
        <ele>577.8</ele>
        <time>2024-02-17T11:37:23Z</time>
      </trkpt>
      <trkpt lat="44.10438" lon="3.1764">
        <ele>578.7</ele>
        <time>2024-02-17T11:37:26Z</time>
      </trkpt>
      <trkpt lat="44.10435" lon="3.17652">
        <ele>579.7</ele>
        <time>2024-02-17T11:37:30Z</time>
      </trkpt>
      <trkpt lat="44.10434" lon="3.17667">
        <ele>581.2</ele>
        <time>2024-02-17T11:37:35Z</time>
      </trkpt>
      <trkpt lat="44.10433" lon="3.17679">
        <ele>582.8</ele>
        <time>2024-02-17T11:37:40Z</time>
      </trkpt>
      <trkpt lat="44.10433" lon="3.17694">
        <ele>585</ele>
        <time>2024-02-17T11:37:45Z</time>
      </trkpt>
      <trkpt lat="44.10431" lon="3.17707">
        <ele>587.1</ele>
        <time>2024-02-17T11:37:49Z</time>
      </trkpt>
      <trkpt lat="44.10428" lon="3.1772">
        <ele>588.7</ele>
        <time>2024-02-17T11:37:53Z</time>
      </trkpt>
      <trkpt lat="44.10423" lon="3.17732">
        <ele>588.6</ele>
        <time>2024-02-17T11:37:57Z</time>
      </trkpt>
      <trkpt lat="44.10419" lon="3.17745">
        <ele>588.5</ele>
        <time>2024-02-17T11:38:02Z</time>
      </trkpt>
      <trkpt lat="44.10416" lon="3.17757">
        <ele>589</ele>
        <time>2024-02-17T11:38:08Z</time>
      </trkpt>
      <trkpt lat="44.10414" lon="3.17771">
        <ele>591</ele>
        <time>2024-02-17T11:38:14Z</time>
      </trkpt>
      <trkpt lat="44.1041" lon="3.17784">
        <ele>592.4</ele>
        <time>2024-02-17T11:38:19Z</time>
      </trkpt>
      <trkpt lat="44.10407" lon="3.17798">
        <ele>593.8</ele>
        <time>2024-02-17T11:38:24Z</time>
      </trkpt>
      <trkpt lat="44.10401" lon="3.1781">
        <ele>595.1</ele>
        <time>2024-02-17T11:38:29Z</time>
      </trkpt>
      <trkpt lat="44.10396" lon="3.17822">
        <ele>596.6</ele>
        <time>2024-02-17T11:38:35Z</time>
      </trkpt>
      <trkpt lat="44.10389" lon="3.17833">
        <ele>598</ele>
        <time>2024-02-17T11:38:42Z</time>
      </trkpt>
      <trkpt lat="44.10384" lon="3.17843">
        <ele>599.4</ele>
        <time>2024-02-17T11:38:48Z</time>
      </trkpt>
      <trkpt lat="44.10375" lon="3.17845">
        <ele>599</ele>
        <time>2024-02-17T11:40:24Z</time>
      </trkpt>
      <trkpt lat="44.10367" lon="3.17839">
        <ele>597.7</ele>
        <time>2024-02-17T11:41:43Z</time>
      </trkpt>
      <trkpt lat="44.10341" lon="3.1784">
        <ele>600.6</ele>
        <time>2024-02-17T11:42:18Z</time>
      </trkpt>
      <trkpt lat="44.10351" lon="3.17841">
        <ele>599.1</ele>
        <time>2024-02-17T11:42:30Z</time>
      </trkpt>
      <trkpt lat="44.10367" lon="3.17857">
        <ele>599.5</ele>
        <time>2024-02-17T11:43:12Z</time>
      </trkpt>
      <trkpt lat="44.10368" lon="3.1787">
        <ele>601</ele>
        <time>2024-02-17T11:43:24Z</time>
      </trkpt>
      <trkpt lat="44.10363" lon="3.17881">
        <ele>600.9</ele>
        <time>2024-02-17T11:43:36Z</time>
      </trkpt>
      <trkpt lat="44.10358" lon="3.17891">
        <ele>601.2</ele>
        <time>2024-02-17T11:43:43Z</time>
      </trkpt>
      <trkpt lat="44.10354" lon="3.17905">
        <ele>603.1</ele>
        <time>2024-02-17T11:43:49Z</time>
      </trkpt>
      <trkpt lat="44.10353" lon="3.17918">
        <ele>604.8</ele>
        <time>2024-02-17T11:43:55Z</time>
      </trkpt>
      <trkpt lat="44.10352" lon="3.17932">
        <ele>606.9</ele>
        <time>2024-02-17T11:44:04Z</time>
      </trkpt>
      <trkpt lat="44.1035" lon="3.17946">
        <ele>608.7</ele>
        <time>2024-02-17T11:44:12Z</time>
      </trkpt>
      <trkpt lat="44.10348" lon="3.17959">
        <ele>610.7</ele>
        <time>2024-02-17T11:44:20Z</time>
      </trkpt>
      <trkpt lat="44.10342" lon="3.17971">
        <ele>610.5</ele>
        <time>2024-02-17T11:44:34Z</time>
      </trkpt>
      <trkpt lat="44.10334" lon="3.17978">
        <ele>608.7</ele>
        <time>2024-02-17T11:44:45Z</time>
      </trkpt>
      <trkpt lat="44.10325" lon="3.17981">
        <ele>608.8</ele>
        <time>2024-02-17T11:44:55Z</time>
      </trkpt>
      <trkpt lat="44.10316" lon="3.17987">
        <ele>609.4</ele>
        <time>2024-02-17T11:45:04Z</time>
      </trkpt>
      <trkpt lat="44.10308" lon="3.17994">
        <ele>609.6</ele>
        <time>2024-02-17T11:45:14Z</time>
      </trkpt>
      <trkpt lat="44.103" lon="3.17999">
        <ele>610.7</ele>
        <time>2024-02-17T11:45:22Z</time>
      </trkpt>
      <trkpt lat="44.10291" lon="3.18009">
        <ele>613.5</ele>
        <time>2024-02-17T11:45:30Z</time>
      </trkpt>
      <trkpt lat="44.10284" lon="3.18017">
        <ele>615</ele>
        <time>2024-02-17T11:45:37Z</time>
      </trkpt>
      <trkpt lat="44.10277" lon="3.18027">
        <ele>616</ele>
        <time>2024-02-17T11:45:44Z</time>
      </trkpt>
      <trkpt lat="44.1027" lon="3.18034">
        <ele>617.4</ele>
        <time>2024-02-17T11:45:50Z</time>
      </trkpt>
      <trkpt lat="44.10261" lon="3.1804">
        <ele>618.3</ele>
        <time>2024-02-17T11:45:58Z</time>
      </trkpt>
      <trkpt lat="44.10253" lon="3.18048">
        <ele>618.8</ele>
        <time>2024-02-17T11:46:04Z</time>
      </trkpt>
      <trkpt lat="44.10243" lon="3.18049">
        <ele>619.1</ele>
        <time>2024-02-17T11:46:11Z</time>
      </trkpt>
      <trkpt lat="44.10233" lon="3.1805">
        <ele>619.7</ele>
        <time>2024-02-17T11:46:16Z</time>
      </trkpt>
      <trkpt lat="44.10223" lon="3.18052">
        <ele>620.1</ele>
        <time>2024-02-17T11:46:23Z</time>
      </trkpt>
      <trkpt lat="44.10213" lon="3.18051">
        <ele>621.3</ele>
        <time>2024-02-17T11:46:34Z</time>
      </trkpt>
      <trkpt lat="44.10204" lon="3.18052">
        <ele>622.3</ele>
        <time>2024-02-17T11:46:38Z</time>
      </trkpt>
      <trkpt lat="44.10194" lon="3.18054">
        <ele>623.3</ele>
        <time>2024-02-17T11:46:43Z</time>
      </trkpt>
      <trkpt lat="44.10185" lon="3.1806">
        <ele>625</ele>
        <time>2024-02-17T11:46:50Z</time>
      </trkpt>
      <trkpt lat="44.10178" lon="3.18068">
        <ele>626.2</ele>
        <time>2024-02-17T11:46:58Z</time>
      </trkpt>
      <trkpt lat="44.10172" lon="3.18077">
        <ele>626.7</ele>
        <time>2024-02-17T11:47:06Z</time>
      </trkpt>
      <trkpt lat="44.10164" lon="3.18086">
        <ele>627.8</ele>
        <time>2024-02-17T11:47:11Z</time>
      </trkpt>
      <trkpt lat="44.10156" lon="3.18094">
        <ele>629.9</ele>
        <time>2024-02-17T11:47:18Z</time>
      </trkpt>
      <trkpt lat="44.1015" lon="3.18103">
        <ele>631</ele>
        <time>2024-02-17T11:47:25Z</time>
      </trkpt>
      <trkpt lat="44.10142" lon="3.18112">
        <ele>631.8</ele>
        <time>2024-02-17T11:47:32Z</time>
      </trkpt>
      <trkpt lat="44.10135" lon="3.18123">
        <ele>632.5</ele>
        <time>2024-02-17T11:47:41Z</time>
      </trkpt>
      <trkpt lat="44.10128" lon="3.18134">
        <ele>633</ele>
        <time>2024-02-17T11:47:48Z</time>
      </trkpt>
      <trkpt lat="44.1012" lon="3.1814">
        <ele>633.4</ele>
        <time>2024-02-17T11:47:54Z</time>
      </trkpt>
      <trkpt lat="44.10112" lon="3.18145">
        <ele>634.2</ele>
        <time>2024-02-17T11:48:00Z</time>
      </trkpt>
      <trkpt lat="44.10103" lon="3.18149">
        <ele>635</ele>
        <time>2024-02-17T11:48:07Z</time>
      </trkpt>
      <trkpt lat="44.10093" lon="3.18155">
        <ele>635.8</ele>
        <time>2024-02-17T11:48:13Z</time>
      </trkpt>
      <trkpt lat="44.10083" lon="3.18159">
        <ele>636.3</ele>
        <time>2024-02-17T11:48:19Z</time>
      </trkpt>
      <trkpt lat="44.10073" lon="3.1816">
        <ele>637.3</ele>
        <time>2024-02-17T11:48:27Z</time>
      </trkpt>
      <trkpt lat="44.10064" lon="3.18162">
        <ele>638</ele>
        <time>2024-02-17T11:48:33Z</time>
      </trkpt>
      <trkpt lat="44.10055" lon="3.18166">
        <ele>638.2</ele>
        <time>2024-02-17T11:48:40Z</time>
      </trkpt>
      <trkpt lat="44.10045" lon="3.18169">
        <ele>639.3</ele>
        <time>2024-02-17T11:48:47Z</time>
      </trkpt>
      <trkpt lat="44.10036" lon="3.18173">
        <ele>640.3</ele>
        <time>2024-02-17T11:48:53Z</time>
      </trkpt>
      <trkpt lat="44.10025" lon="3.18174">
        <ele>641.2</ele>
        <time>2024-02-17T11:48:58Z</time>
      </trkpt>
      <trkpt lat="44.10016" lon="3.18177">
        <ele>641.8</ele>
        <time>2024-02-17T11:49:03Z</time>
      </trkpt>
      <trkpt lat="44.10008" lon="3.18182">
        <ele>642</ele>
        <time>2024-02-17T11:49:09Z</time>
      </trkpt>
      <trkpt lat="44.09998" lon="3.18186">
        <ele>642</ele>
        <time>2024-02-17T11:49:15Z</time>
      </trkpt>
      <trkpt lat="44.09988" lon="3.1819">
        <ele>642.1</ele>
        <time>2024-02-17T11:49:21Z</time>
      </trkpt>
      <trkpt lat="44.09979" lon="3.18193">
        <ele>642</ele>
        <time>2024-02-17T11:49:28Z</time>
      </trkpt>
      <trkpt lat="44.09971" lon="3.18196">
        <ele>642.3</ele>
        <time>2024-02-17T11:49:34Z</time>
      </trkpt>
      <trkpt lat="44.09959" lon="3.18201">
        <ele>643.8</ele>
        <time>2024-02-17T11:49:39Z</time>
      </trkpt>
      <trkpt lat="44.0995" lon="3.18204">
        <ele>644.6</ele>
        <time>2024-02-17T11:49:44Z</time>
      </trkpt>
      <trkpt lat="44.0994" lon="3.18206">
        <ele>645.8</ele>
        <time>2024-02-17T11:49:51Z</time>
      </trkpt>
      <trkpt lat="44.0993" lon="3.18208">
        <ele>647.4</ele>
        <time>2024-02-17T11:49:57Z</time>
      </trkpt>
      <trkpt lat="44.09921" lon="3.18211">
        <ele>648.6</ele>
        <time>2024-02-17T11:50:02Z</time>
      </trkpt>
      <trkpt lat="44.09912" lon="3.18215">
        <ele>649.5</ele>
        <time>2024-02-17T11:50:07Z</time>
      </trkpt>
      <trkpt lat="44.09904" lon="3.18222">
        <ele>649.9</ele>
        <time>2024-02-17T11:50:11Z</time>
      </trkpt>
      <trkpt lat="44.099" lon="3.18235">
        <ele>651.6</ele>
        <time>2024-02-17T11:50:18Z</time>
      </trkpt>
      <trkpt lat="44.09897" lon="3.18248">
        <ele>653.3</ele>
        <time>2024-02-17T11:50:26Z</time>
      </trkpt>
      <trkpt lat="44.09898" lon="3.18263">
        <ele>655.4</ele>
        <time>2024-02-17T11:50:34Z</time>
      </trkpt>
      <trkpt lat="44.09898" lon="3.18275">
        <ele>657.3</ele>
        <time>2024-02-17T11:50:40Z</time>
      </trkpt>
      <trkpt lat="44.099" lon="3.1829">
        <ele>659.6</ele>
        <time>2024-02-17T11:50:45Z</time>
      </trkpt>
      <trkpt lat="44.09898" lon="3.18302">
        <ele>662</ele>
        <time>2024-02-17T11:50:51Z</time>
      </trkpt>
      <trkpt lat="44.09897" lon="3.18317">
        <ele>664.3</ele>
        <time>2024-02-17T11:50:58Z</time>
      </trkpt>
      <trkpt lat="44.09896" lon="3.18331">
        <ele>666.2</ele>
        <time>2024-02-17T11:51:04Z</time>
      </trkpt>
      <trkpt lat="44.09897" lon="3.18344">
        <ele>667.7</ele>
        <time>2024-02-17T11:51:09Z</time>
      </trkpt>
      <trkpt lat="44.09897" lon="3.18358">
        <ele>669.3</ele>
        <time>2024-02-17T11:51:14Z</time>
      </trkpt>
      <trkpt lat="44.09896" lon="3.18374">
        <ele>670.3</ele>
        <time>2024-02-17T11:51:21Z</time>
      </trkpt>
      <trkpt lat="44.09894" lon="3.18387">
        <ele>670.9</ele>
        <time>2024-02-17T11:51:27Z</time>
      </trkpt>
      <trkpt lat="44.09894" lon="3.184">
        <ele>671.4</ele>
        <time>2024-02-17T11:51:32Z</time>
      </trkpt>
      <trkpt lat="44.09894" lon="3.18415">
        <ele>671.9</ele>
        <time>2024-02-17T11:51:38Z</time>
      </trkpt>
      <trkpt lat="44.09893" lon="3.18428">
        <ele>672</ele>
        <time>2024-02-17T11:51:43Z</time>
      </trkpt>
      <trkpt lat="44.09894" lon="3.18441">
        <ele>672</ele>
        <time>2024-02-17T11:51:47Z</time>
      </trkpt>
      <trkpt lat="44.09895" lon="3.18455">
        <ele>672</ele>
        <time>2024-02-17T11:51:54Z</time>
      </trkpt>
      <trkpt lat="44.09892" lon="3.18468">
        <ele>672</ele>
        <time>2024-02-17T11:52:02Z</time>
      </trkpt>
      <trkpt lat="44.09891" lon="3.18481">
        <ele>672.3</ele>
        <time>2024-02-17T11:52:08Z</time>
      </trkpt>
      <trkpt lat="44.0989" lon="3.18494">
        <ele>672.8</ele>
        <time>2024-02-17T11:52:15Z</time>
      </trkpt>
      <trkpt lat="44.09891" lon="3.18507">
        <ele>673.3</ele>
        <time>2024-02-17T11:52:23Z</time>
      </trkpt>
      <trkpt lat="44.0989" lon="3.18522">
        <ele>673.9</ele>
        <time>2024-02-17T11:52:29Z</time>
      </trkpt>
      <trkpt lat="44.09891" lon="3.18535">
        <ele>674.7</ele>
        <time>2024-02-17T11:52:34Z</time>
      </trkpt>
      <trkpt lat="44.09893" lon="3.18548">
        <ele>675.8</ele>
        <time>2024-02-17T11:52:41Z</time>
      </trkpt>
      <trkpt lat="44.09892" lon="3.18561">
        <ele>676.6</ele>
        <time>2024-02-17T11:52:48Z</time>
      </trkpt>
      <trkpt lat="44.09892" lon="3.18575">
        <ele>677.6</ele>
        <time>2024-02-17T11:52:54Z</time>
      </trkpt>
      <trkpt lat="44.09892" lon="3.18587">
        <ele>678.4</ele>
        <time>2024-02-17T11:53:00Z</time>
      </trkpt>
      <trkpt lat="44.09893" lon="3.18602">
        <ele>679.1</ele>
        <time>2024-02-17T11:53:09Z</time>
      </trkpt>
      <trkpt lat="44.09891" lon="3.18614">
        <ele>679.3</ele>
        <time>2024-02-17T11:53:18Z</time>
      </trkpt>
      <trkpt lat="44.09889" lon="3.18627">
        <ele>679.6</ele>
        <time>2024-02-17T11:53:26Z</time>
      </trkpt>
      <trkpt lat="44.09887" lon="3.1864">
        <ele>680.5</ele>
        <time>2024-02-17T11:53:33Z</time>
      </trkpt>
      <trkpt lat="44.09887" lon="3.18653">
        <ele>681.4</ele>
        <time>2024-02-17T11:53:38Z</time>
      </trkpt>
      <trkpt lat="44.09889" lon="3.18667">
        <ele>682</ele>
        <time>2024-02-17T11:53:45Z</time>
      </trkpt>
      <trkpt lat="44.09886" lon="3.18681">
        <ele>683.6</ele>
        <time>2024-02-17T11:53:53Z</time>
      </trkpt>
      <trkpt lat="44.09882" lon="3.18692">
        <ele>685.1</ele>
        <time>2024-02-17T11:54:00Z</time>
      </trkpt>
      <trkpt lat="44.0988" lon="3.18705">
        <ele>686.4</ele>
        <time>2024-02-17T11:54:08Z</time>
      </trkpt>
      <trkpt lat="44.09879" lon="3.18718">
        <ele>687.5</ele>
        <time>2024-02-17T11:54:12Z</time>
      </trkpt>
      <trkpt lat="44.0988" lon="3.18731">
        <ele>688.5</ele>
        <time>2024-02-17T11:54:20Z</time>
      </trkpt>
      <trkpt lat="44.0988" lon="3.18745">
        <ele>690.1</ele>
        <time>2024-02-17T11:54:29Z</time>
      </trkpt>
      <trkpt lat="44.09879" lon="3.18758">
        <ele>691.5</ele>
        <time>2024-02-17T11:54:37Z</time>
      </trkpt>
      <trkpt lat="44.09883" lon="3.18771">
        <ele>692.2</ele>
        <time>2024-02-17T11:54:45Z</time>
      </trkpt>
      <trkpt lat="44.09888" lon="3.18782">
        <ele>692.7</ele>
        <time>2024-02-17T11:54:52Z</time>
      </trkpt>
      <trkpt lat="44.09893" lon="3.18794">
        <ele>694.4</ele>
        <time>2024-02-17T11:54:56Z</time>
      </trkpt>
      <trkpt lat="44.09896" lon="3.18806">
        <ele>696</ele>
        <time>2024-02-17T11:55:02Z</time>
      </trkpt>
      <trkpt lat="44.09896" lon="3.1882">
        <ele>697.6</ele>
        <time>2024-02-17T11:55:09Z</time>
      </trkpt>
      <trkpt lat="44.09895" lon="3.18832">
        <ele>698.9</ele>
        <time>2024-02-17T11:55:17Z</time>
      </trkpt>
      <trkpt lat="44.09891" lon="3.18845">
        <ele>700.7</ele>
        <time>2024-02-17T11:55:24Z</time>
      </trkpt>
      <trkpt lat="44.09889" lon="3.18859">
        <ele>702.7</ele>
        <time>2024-02-17T11:55:30Z</time>
      </trkpt>
      <trkpt lat="44.09883" lon="3.18868">
        <ele>704.4</ele>
        <time>2024-02-17T11:55:39Z</time>
      </trkpt>
      <trkpt lat="44.09875" lon="3.18877">
        <ele>706</ele>
        <time>2024-02-17T11:55:48Z</time>
      </trkpt>
      <trkpt lat="44.09868" lon="3.18886">
        <ele>707.4</ele>
        <time>2024-02-17T11:55:58Z</time>
      </trkpt>
      <trkpt lat="44.0986" lon="3.18896">
        <ele>708.8</ele>
        <time>2024-02-17T11:56:08Z</time>
      </trkpt>
      <trkpt lat="44.09853" lon="3.18904">
        <ele>710.1</ele>
        <time>2024-02-17T11:56:15Z</time>
      </trkpt>
      <trkpt lat="44.09845" lon="3.18911">
        <ele>711.1</ele>
        <time>2024-02-17T11:56:26Z</time>
      </trkpt>
      <trkpt lat="44.09838" lon="3.18921">
        <ele>712.2</ele>
        <time>2024-02-17T11:56:33Z</time>
      </trkpt>
      <trkpt lat="44.0983" lon="3.18929">
        <ele>713.2</ele>
        <time>2024-02-17T11:56:41Z</time>
      </trkpt>
      <trkpt lat="44.09822" lon="3.18936">
        <ele>714.3</ele>
        <time>2024-02-17T11:56:49Z</time>
      </trkpt>
      <trkpt lat="44.09814" lon="3.18942">
        <ele>715.3</ele>
        <time>2024-02-17T11:56:56Z</time>
      </trkpt>
      <trkpt lat="44.09806" lon="3.18949">
        <ele>716.1</ele>
        <time>2024-02-17T11:57:06Z</time>
      </trkpt>
      <trkpt lat="44.09798" lon="3.18956">
        <ele>716.7</ele>
        <time>2024-02-17T11:57:16Z</time>
      </trkpt>
      <trkpt lat="44.0979" lon="3.18964">
        <ele>717.3</ele>
        <time>2024-02-17T11:57:23Z</time>
      </trkpt>
      <trkpt lat="44.09783" lon="3.18972">
        <ele>717.8</ele>
        <time>2024-02-17T11:57:31Z</time>
      </trkpt>
      <trkpt lat="44.09775" lon="3.18981">
        <ele>718.4</ele>
        <time>2024-02-17T11:57:40Z</time>
      </trkpt>
      <trkpt lat="44.09768" lon="3.1899">
        <ele>719</ele>
        <time>2024-02-17T11:57:48Z</time>
      </trkpt>
      <trkpt lat="44.09761" lon="3.19">
        <ele>719.6</ele>
        <time>2024-02-17T11:57:55Z</time>
      </trkpt>
      <trkpt lat="44.09752" lon="3.19005">
        <ele>720.1</ele>
        <time>2024-02-17T11:58:02Z</time>
      </trkpt>
      <trkpt lat="44.09743" lon="3.19005">
        <ele>720.4</ele>
        <time>2024-02-17T11:58:08Z</time>
      </trkpt>
      <trkpt lat="44.09734" lon="3.19005">
        <ele>720.8</ele>
        <time>2024-02-17T11:58:14Z</time>
      </trkpt>
      <trkpt lat="44.09724" lon="3.19005">
        <ele>721.1</ele>
        <time>2024-02-17T11:58:20Z</time>
      </trkpt>
      <trkpt lat="44.09714" lon="3.19005">
        <ele>721.8</ele>
        <time>2024-02-17T11:58:25Z</time>
      </trkpt>
      <trkpt lat="44.09705" lon="3.19006">
        <ele>722.5</ele>
        <time>2024-02-17T11:58:30Z</time>
      </trkpt>
      <trkpt lat="44.09696" lon="3.19008">
        <ele>723.2</ele>
        <time>2024-02-17T11:58:36Z</time>
      </trkpt>
      <trkpt lat="44.09689" lon="3.18999">
        <ele>723.4</ele>
        <time>2024-02-17T11:58:47Z</time>
      </trkpt>
      <trkpt lat="44.09681" lon="3.1899">
        <ele>724</ele>
        <time>2024-02-17T11:58:55Z</time>
      </trkpt>
      <trkpt lat="44.09672" lon="3.18984">
        <ele>724.6</ele>
        <time>2024-02-17T11:59:03Z</time>
      </trkpt>
      <trkpt lat="44.0967" lon="3.18996">
        <ele>724.8</ele>
        <time>2024-02-17T11:59:17Z</time>
      </trkpt>
      <trkpt lat="44.09674" lon="3.19008">
        <ele>724.5</ele>
        <time>2024-02-17T11:59:20Z</time>
      </trkpt>
      <trkpt lat="44.09681" lon="3.19024">
        <ele>724.4</ele>
        <time>2024-02-17T11:59:23Z</time>
      </trkpt>
      <trkpt lat="44.09689" lon="3.19037">
        <ele>724.9</ele>
        <time>2024-02-17T11:59:26Z</time>
      </trkpt>
      <trkpt lat="44.09697" lon="3.19046">
        <ele>725.1</ele>
        <time>2024-02-17T11:59:29Z</time>
      </trkpt>
      <trkpt lat="44.09704" lon="3.19056">
        <ele>725</ele>
        <time>2024-02-17T11:59:33Z</time>
      </trkpt>
      <trkpt lat="44.09712" lon="3.19064">
        <ele>724.7</ele>
        <time>2024-02-17T11:59:37Z</time>
      </trkpt>
      <trkpt lat="44.0972" lon="3.19072">
        <ele>724.4</ele>
        <time>2024-02-17T11:59:41Z</time>
      </trkpt>
      <trkpt lat="44.09727" lon="3.19082">
        <ele>724.9</ele>
        <time>2024-02-17T11:59:45Z</time>
      </trkpt>
      <trkpt lat="44.09734" lon="3.19092">
        <ele>725.6</ele>
        <time>2024-02-17T11:59:50Z</time>
      </trkpt>
      <trkpt lat="44.09742" lon="3.19085">
        <ele>725.1</ele>
        <time>2024-02-17T11:59:57Z</time>
      </trkpt>
      <trkpt lat="44.09751" lon="3.19074">
        <ele>724</ele>
        <time>2024-02-17T12:00:01Z</time>
      </trkpt>
      <trkpt lat="44.09759" lon="3.19067">
        <ele>723.4</ele>
        <time>2024-02-17T12:00:03Z</time>
      </trkpt>
      <trkpt lat="44.09766" lon="3.1906">
        <ele>723</ele>
        <time>2024-02-17T12:00:05Z</time>
      </trkpt>
      <trkpt lat="44.09775" lon="3.19053">
        <ele>722.6</ele>
        <time>2024-02-17T12:00:07Z</time>
      </trkpt>
      <trkpt lat="44.09783" lon="3.19045">
        <ele>721.9</ele>
        <time>2024-02-17T12:00:09Z</time>
      </trkpt>
      <trkpt lat="44.09792" lon="3.19039">
        <ele>721.5</ele>
        <time>2024-02-17T12:00:11Z</time>
      </trkpt>
      <trkpt lat="44.09802" lon="3.19034">
        <ele>721.3</ele>
        <time>2024-02-17T12:00:13Z</time>
      </trkpt>
      <trkpt lat="44.09811" lon="3.19029">
        <ele>721.3</ele>
        <time>2024-02-17T12:00:15Z</time>
      </trkpt>
      <trkpt lat="44.09819" lon="3.19023">
        <ele>721.1</ele>
        <time>2024-02-17T12:00:17Z</time>
      </trkpt>
      <trkpt lat="44.09828" lon="3.19015">
        <ele>720.5</ele>
        <time>2024-02-17T12:00:19Z</time>
      </trkpt>
      <trkpt lat="44.09838" lon="3.19011">
        <ele>720.4</ele>
        <time>2024-02-17T12:00:21Z</time>
      </trkpt>
      <trkpt lat="44.0985" lon="3.19008">
        <ele>720.5</ele>
        <time>2024-02-17T12:00:23Z</time>
      </trkpt>
      <trkpt lat="44.0986" lon="3.19006">
        <ele>720.6</ele>
        <time>2024-02-17T12:00:25Z</time>
      </trkpt>
      <trkpt lat="44.09871" lon="3.19002">
        <ele>720.6</ele>
        <time>2024-02-17T12:00:27Z</time>
      </trkpt>
      <trkpt lat="44.09881" lon="3.18999">
        <ele>720.6</ele>
        <time>2024-02-17T12:00:29Z</time>
      </trkpt>
      <trkpt lat="44.0989" lon="3.18993">
        <ele>720.1</ele>
        <time>2024-02-17T12:00:31Z</time>
      </trkpt>
      <trkpt lat="44.09901" lon="3.18985">
        <ele>719.7</ele>
        <time>2024-02-17T12:00:33Z</time>
      </trkpt>
      <trkpt lat="44.0991" lon="3.18977">
        <ele>719.2</ele>
        <time>2024-02-17T12:00:35Z</time>
      </trkpt>
      <trkpt lat="44.09921" lon="3.18968">
        <ele>718.7</ele>
        <time>2024-02-17T12:00:37Z</time>
      </trkpt>
      <trkpt lat="44.09931" lon="3.18959">
        <ele>717.9</ele>
        <time>2024-02-17T12:00:39Z</time>
      </trkpt>
      <trkpt lat="44.09941" lon="3.18951">
        <ele>717</ele>
        <time>2024-02-17T12:00:41Z</time>
      </trkpt>
      <trkpt lat="44.0995" lon="3.18946">
        <ele>716.7</ele>
        <time>2024-02-17T12:00:43Z</time>
      </trkpt>
      <trkpt lat="44.0996" lon="3.18939">
        <ele>716.3</ele>
        <time>2024-02-17T12:00:45Z</time>
      </trkpt>
      <trkpt lat="44.09969" lon="3.18932">
        <ele>716</ele>
        <time>2024-02-17T12:00:47Z</time>
      </trkpt>
      <trkpt lat="44.0998" lon="3.18928">
        <ele>715.9</ele>
        <time>2024-02-17T12:00:49Z</time>
      </trkpt>
      <trkpt lat="44.09992" lon="3.18923">
        <ele>715.6</ele>
        <time>2024-02-17T12:00:51Z</time>
      </trkpt>
      <trkpt lat="44.10006" lon="3.18916">
        <ele>715.1</ele>
        <time>2024-02-17T12:00:53Z</time>
      </trkpt>
      <trkpt lat="44.10018" lon="3.18908">
        <ele>714.4</ele>
        <time>2024-02-17T12:00:55Z</time>
      </trkpt>
      <trkpt lat="44.1003" lon="3.18898">
        <ele>713.4</ele>
        <time>2024-02-17T12:00:57Z</time>
      </trkpt>
      <trkpt lat="44.10042" lon="3.18889">
        <ele>713</ele>
        <time>2024-02-17T12:00:59Z</time>
      </trkpt>
      <trkpt lat="44.10053" lon="3.18886">
        <ele>713.7</ele>
        <time>2024-02-17T12:01:01Z</time>
      </trkpt>
      <trkpt lat="44.10055" lon="3.1887">
        <ele>713.3</ele>
        <time>2024-02-17T12:01:04Z</time>
      </trkpt>
      <trkpt lat="44.10053" lon="3.18858">
        <ele>712.8</ele>
        <time>2024-02-17T12:01:06Z</time>
      </trkpt>
      <trkpt lat="44.10048" lon="3.18842">
        <ele>712.7</ele>
        <time>2024-02-17T12:01:09Z</time>
      </trkpt>
      <trkpt lat="44.10043" lon="3.18829">
        <ele>712.4</ele>
        <time>2024-02-17T12:01:12Z</time>
      </trkpt>
      <trkpt lat="44.10037" lon="3.18819">
        <ele>711.7</ele>
        <time>2024-02-17T12:01:15Z</time>
      </trkpt>
      <trkpt lat="44.10032" lon="3.18807">
        <ele>710.9</ele>
        <time>2024-02-17T12:01:19Z</time>
      </trkpt>
      <trkpt lat="44.10027" lon="3.18791">
        <ele>710.4</ele>
        <time>2024-02-17T12:01:23Z</time>
      </trkpt>
      <trkpt lat="44.10022" lon="3.18779">
        <ele>709.9</ele>
        <time>2024-02-17T12:01:26Z</time>
      </trkpt>
      <trkpt lat="44.10016" lon="3.18767">
        <ele>709.3</ele>
        <time>2024-02-17T12:01:30Z</time>
      </trkpt>
      <trkpt lat="44.1001" lon="3.18754">
        <ele>708.4</ele>
        <time>2024-02-17T12:01:34Z</time>
      </trkpt>
      <trkpt lat="44.10007" lon="3.18742">
        <ele>708.1</ele>
        <time>2024-02-17T12:01:39Z</time>
      </trkpt>
      <trkpt lat="44.10003" lon="3.18729">
        <ele>707.6</ele>
        <time>2024-02-17T12:01:44Z</time>
      </trkpt>
      <trkpt lat="44.1" lon="3.18717">
        <ele>707.2</ele>
        <time>2024-02-17T12:01:50Z</time>
      </trkpt>
      <trkpt lat="44.09997" lon="3.18702">
        <ele>706.9</ele>
        <time>2024-02-17T12:01:56Z</time>
      </trkpt>
      <trkpt lat="44.09995" lon="3.18689">
        <ele>706.6</ele>
        <time>2024-02-17T12:02:00Z</time>
      </trkpt>
      <trkpt lat="44.09995" lon="3.18674">
        <ele>706.6</ele>
        <time>2024-02-17T12:02:05Z</time>
      </trkpt>
      <trkpt lat="44.09999" lon="3.1866">
        <ele>707.7</ele>
        <time>2024-02-17T12:02:09Z</time>
      </trkpt>
      <trkpt lat="44.10004" lon="3.18647">
        <ele>709.3</ele>
        <time>2024-02-17T12:02:13Z</time>
      </trkpt>
      <trkpt lat="44.10009" lon="3.18634">
        <ele>710.9</ele>
        <time>2024-02-17T12:02:18Z</time>
      </trkpt>
      <trkpt lat="44.10014" lon="3.18621">
        <ele>712.2</ele>
        <time>2024-02-17T12:02:22Z</time>
      </trkpt>
      <trkpt lat="44.10019" lon="3.1861">
        <ele>713.4</ele>
        <time>2024-02-17T12:02:26Z</time>
      </trkpt>
      <trkpt lat="44.10025" lon="3.18598">
        <ele>714.7</ele>
        <time>2024-02-17T12:02:30Z</time>
      </trkpt>
      <trkpt lat="44.1003" lon="3.18586">
        <ele>715.7</ele>
        <time>2024-02-17T12:02:34Z</time>
      </trkpt>
      <trkpt lat="44.10036" lon="3.18575">
        <ele>716.8</ele>
        <time>2024-02-17T12:02:38Z</time>
      </trkpt>
      <trkpt lat="44.10043" lon="3.18566">
        <ele>718.2</ele>
        <time>2024-02-17T12:02:42Z</time>
      </trkpt>
      <trkpt lat="44.1005" lon="3.18554">
        <ele>719.5</ele>
        <time>2024-02-17T12:02:47Z</time>
      </trkpt>
      <trkpt lat="44.10059" lon="3.18548">
        <ele>721</ele>
        <time>2024-02-17T12:02:52Z</time>
      </trkpt>
      <trkpt lat="44.10068" lon="3.18555">
        <ele>722.8</ele>
        <time>2024-02-17T12:02:59Z</time>
      </trkpt>
      <trkpt lat="44.10073" lon="3.18566">
        <ele>723.9</ele>
        <time>2024-02-17T12:03:05Z</time>
      </trkpt>
      <trkpt lat="44.10075" lon="3.18579">
        <ele>724.6</ele>
        <time>2024-02-17T12:03:11Z</time>
      </trkpt>
      <trkpt lat="44.10078" lon="3.18592">
        <ele>725.5</ele>
        <time>2024-02-17T12:03:17Z</time>
      </trkpt>
      <trkpt lat="44.1008" lon="3.18604">
        <ele>726.3</ele>
        <time>2024-02-17T12:03:23Z</time>
      </trkpt>
      <trkpt lat="44.10087" lon="3.18613">
        <ele>727.3</ele>
        <time>2024-02-17T12:03:28Z</time>
      </trkpt>
      <trkpt lat="44.10096" lon="3.18618">
        <ele>728.2</ele>
        <time>2024-02-17T12:03:33Z</time>
      </trkpt>
      <trkpt lat="44.10106" lon="3.18622">
        <ele>729</ele>
        <time>2024-02-17T12:03:39Z</time>
      </trkpt>
      <trkpt lat="44.10112" lon="3.18634">
        <ele>729.9</ele>
        <time>2024-02-17T12:03:45Z</time>
      </trkpt>
      <trkpt lat="44.10116" lon="3.18646">
        <ele>730.5</ele>
        <time>2024-02-17T12:03:50Z</time>
      </trkpt>
      <trkpt lat="44.10123" lon="3.18659">
        <ele>731.5</ele>
        <time>2024-02-17T12:03:56Z</time>
      </trkpt>
      <trkpt lat="44.10125" lon="3.18674">
        <ele>732.4</ele>
        <time>2024-02-17T12:04:02Z</time>
      </trkpt>
      <trkpt lat="44.1013" lon="3.18688">
        <ele>733.7</ele>
        <time>2024-02-17T12:04:06Z</time>
      </trkpt>
      <trkpt lat="44.10134" lon="3.18701">
        <ele>734.4</ele>
        <time>2024-02-17T12:04:10Z</time>
      </trkpt>
      <trkpt lat="44.1014" lon="3.18715">
        <ele>735.1</ele>
        <time>2024-02-17T12:04:14Z</time>
      </trkpt>
      <trkpt lat="44.10147" lon="3.18727">
        <ele>735.9</ele>
        <time>2024-02-17T12:04:17Z</time>
      </trkpt>
      <trkpt lat="44.10155" lon="3.18738">
        <ele>737.1</ele>
        <time>2024-02-17T12:04:20Z</time>
      </trkpt>
      <trkpt lat="44.10163" lon="3.18747">
        <ele>738.4</ele>
        <time>2024-02-17T12:04:23Z</time>
      </trkpt>
      <trkpt lat="44.10172" lon="3.18752">
        <ele>739.4</ele>
        <time>2024-02-17T12:04:26Z</time>
      </trkpt>
      <trkpt lat="44.10181" lon="3.18755">
        <ele>740.1</ele>
        <time>2024-02-17T12:04:29Z</time>
      </trkpt>
      <trkpt lat="44.1019" lon="3.18756">
        <ele>740.9</ele>
        <time>2024-02-17T12:04:33Z</time>
      </trkpt>
      <trkpt lat="44.102" lon="3.18759">
        <ele>741.7</ele>
        <time>2024-02-17T12:04:37Z</time>
      </trkpt>
      <trkpt lat="44.1021" lon="3.18761">
        <ele>742.4</ele>
        <time>2024-02-17T12:04:41Z</time>
      </trkpt>
      <trkpt lat="44.10219" lon="3.18762">
        <ele>743.1</ele>
        <time>2024-02-17T12:04:45Z</time>
      </trkpt>
      <trkpt lat="44.10229" lon="3.1876">
        <ele>743.3</ele>
        <time>2024-02-17T12:04:50Z</time>
      </trkpt>
      <trkpt lat="44.10239" lon="3.18756">
        <ele>743.3</ele>
        <time>2024-02-17T12:04:54Z</time>
      </trkpt>
      <trkpt lat="44.10249" lon="3.18754">
        <ele>743.4</ele>
        <time>2024-02-17T12:04:58Z</time>
      </trkpt>
      <trkpt lat="44.10259" lon="3.18753">
        <ele>743.4</ele>
        <time>2024-02-17T12:05:02Z</time>
      </trkpt>
      <trkpt lat="44.10268" lon="3.18753">
        <ele>743.5</ele>
        <time>2024-02-17T12:05:05Z</time>
      </trkpt>
      <trkpt lat="44.10279" lon="3.18753">
        <ele>743.6</ele>
        <time>2024-02-17T12:05:08Z</time>
      </trkpt>
      <trkpt lat="44.10288" lon="3.18753">
        <ele>743.9</ele>
        <time>2024-02-17T12:05:11Z</time>
      </trkpt>
      <trkpt lat="44.10299" lon="3.18754">
        <ele>744.5</ele>
        <time>2024-02-17T12:05:15Z</time>
      </trkpt>
      <trkpt lat="44.10311" lon="3.18754">
        <ele>744.7</ele>
        <time>2024-02-17T12:05:19Z</time>
      </trkpt>
      <trkpt lat="44.10322" lon="3.18751">
        <ele>744.2</ele>
        <time>2024-02-17T12:05:23Z</time>
      </trkpt>
      <trkpt lat="44.10336" lon="3.18751">
        <ele>744.3</ele>
        <time>2024-02-17T12:05:26Z</time>
      </trkpt>
      <trkpt lat="44.10349" lon="3.18754">
        <ele>745.4</ele>
        <time>2024-02-17T12:05:29Z</time>
      </trkpt>
      <trkpt lat="44.10361" lon="3.18752">
        <ele>745.4</ele>
        <time>2024-02-17T12:05:32Z</time>
      </trkpt>
      <trkpt lat="44.10372" lon="3.18752">
        <ele>745.4</ele>
        <time>2024-02-17T12:05:35Z</time>
      </trkpt>
      <trkpt lat="44.10384" lon="3.18752">
        <ele>745.4</ele>
        <time>2024-02-17T12:05:38Z</time>
      </trkpt>
      <trkpt lat="44.10395" lon="3.18751">
        <ele>745.4</ele>
        <time>2024-02-17T12:05:41Z</time>
      </trkpt>
      <trkpt lat="44.10406" lon="3.18752">
        <ele>746</ele>
        <time>2024-02-17T12:05:44Z</time>
      </trkpt>
      <trkpt lat="44.10416" lon="3.18752">
        <ele>746.4</ele>
        <time>2024-02-17T12:05:47Z</time>
      </trkpt>
      <trkpt lat="44.10425" lon="3.18753">
        <ele>746.7</ele>
        <time>2024-02-17T12:05:50Z</time>
      </trkpt>
      <trkpt lat="44.10434" lon="3.18754">
        <ele>747</ele>
        <time>2024-02-17T12:05:53Z</time>
      </trkpt>
      <trkpt lat="44.10446" lon="3.18752">
        <ele>746.6</ele>
        <time>2024-02-17T12:05:57Z</time>
      </trkpt>
      <trkpt lat="44.10455" lon="3.1875">
        <ele>746.4</ele>
        <time>2024-02-17T12:06:00Z</time>
      </trkpt>
      <trkpt lat="44.10465" lon="3.18747">
        <ele>746</ele>
        <time>2024-02-17T12:06:03Z</time>
      </trkpt>
      <trkpt lat="44.10475" lon="3.18746">
        <ele>745.9</ele>
        <time>2024-02-17T12:06:07Z</time>
      </trkpt>
      <trkpt lat="44.10485" lon="3.18745">
        <ele>745.4</ele>
        <time>2024-02-17T12:06:10Z</time>
      </trkpt>
      <trkpt lat="44.10496" lon="3.18745">
        <ele>745.2</ele>
        <time>2024-02-17T12:06:14Z</time>
      </trkpt>
      <trkpt lat="44.10506" lon="3.18746">
        <ele>744.8</ele>
        <time>2024-02-17T12:06:17Z</time>
      </trkpt>
      <trkpt lat="44.10518" lon="3.1875">
        <ele>744.7</ele>
        <time>2024-02-17T12:06:20Z</time>
      </trkpt>
      <trkpt lat="44.10531" lon="3.18754">
        <ele>744.6</ele>
        <time>2024-02-17T12:06:23Z</time>
      </trkpt>
      <trkpt lat="44.10545" lon="3.18755">
        <ele>743.7</ele>
        <time>2024-02-17T12:06:26Z</time>
      </trkpt>
      <trkpt lat="44.10557" lon="3.18758">
        <ele>743.4</ele>
        <time>2024-02-17T12:06:29Z</time>
      </trkpt>
      <trkpt lat="44.10568" lon="3.1876">
        <ele>743.2</ele>
        <time>2024-02-17T12:06:32Z</time>
      </trkpt>
      <trkpt lat="44.10579" lon="3.18763">
        <ele>743.1</ele>
        <time>2024-02-17T12:06:35Z</time>
      </trkpt>
      <trkpt lat="44.10589" lon="3.18762">
        <ele>742.6</ele>
        <time>2024-02-17T12:06:38Z</time>
      </trkpt>
      <trkpt lat="44.106" lon="3.1876">
        <ele>742.2</ele>
        <time>2024-02-17T12:06:41Z</time>
      </trkpt>
      <trkpt lat="44.1061" lon="3.1876">
        <ele>742.1</ele>
        <time>2024-02-17T12:06:44Z</time>
      </trkpt>
      <trkpt lat="44.10619" lon="3.18764">
        <ele>743.2</ele>
        <time>2024-02-17T12:06:47Z</time>
      </trkpt>
      <trkpt lat="44.10629" lon="3.18769">
        <ele>744.5</ele>
        <time>2024-02-17T12:06:50Z</time>
      </trkpt>
      <trkpt lat="44.10638" lon="3.18774">
        <ele>745.7</ele>
        <time>2024-02-17T12:06:53Z</time>
      </trkpt>
      <trkpt lat="44.1065" lon="3.18772">
        <ele>747.4</ele>
        <time>2024-02-17T12:06:56Z</time>
      </trkpt>
      <trkpt lat="44.10655" lon="3.18762">
        <ele>747.8</ele>
        <time>2024-02-17T12:06:59Z</time>
      </trkpt>
      <trkpt lat="44.10658" lon="3.18747">
        <ele>748.1</ele>
        <time>2024-02-17T12:07:04Z</time>
      </trkpt>
      <trkpt lat="44.10663" lon="3.18734">
        <ele>749.1</ele>
        <time>2024-02-17T12:07:09Z</time>
      </trkpt>
      <trkpt lat="44.10665" lon="3.18719">
        <ele>749.5</ele>
        <time>2024-02-17T12:07:13Z</time>
      </trkpt>
      <trkpt lat="44.10667" lon="3.18705">
        <ele>749.5</ele>
        <time>2024-02-17T12:07:17Z</time>
      </trkpt>
      <trkpt lat="44.10668" lon="3.18692">
        <ele>749.4</ele>
        <time>2024-02-17T12:07:21Z</time>
      </trkpt>
      <trkpt lat="44.10669" lon="3.18678">
        <ele>750.1</ele>
        <time>2024-02-17T12:07:25Z</time>
      </trkpt>
      <trkpt lat="44.10667" lon="3.18664">
        <ele>750.3</ele>
        <time>2024-02-17T12:07:30Z</time>
      </trkpt>
      <trkpt lat="44.10665" lon="3.18651">
        <ele>750.8</ele>
        <time>2024-02-17T12:07:35Z</time>
      </trkpt>
      <trkpt lat="44.10661" lon="3.18637">
        <ele>751.5</ele>
        <time>2024-02-17T12:07:40Z</time>
      </trkpt>
      <trkpt lat="44.10655" lon="3.18625">
        <ele>752.8</ele>
        <time>2024-02-17T12:07:45Z</time>
      </trkpt>
      <trkpt lat="44.1065" lon="3.18614">
        <ele>754.1</ele>
        <time>2024-02-17T12:07:50Z</time>
      </trkpt>
      <trkpt lat="44.10645" lon="3.18601">
        <ele>755.1</ele>
        <time>2024-02-17T12:07:56Z</time>
      </trkpt>
      <trkpt lat="44.10641" lon="3.1859">
        <ele>755.6</ele>
        <time>2024-02-17T12:08:02Z</time>
      </trkpt>
      <trkpt lat="44.10636" lon="3.18577">
        <ele>756.5</ele>
        <time>2024-02-17T12:08:08Z</time>
      </trkpt>
      <trkpt lat="44.10631" lon="3.18564">
        <ele>757.6</ele>
        <time>2024-02-17T12:08:14Z</time>
      </trkpt>
      <trkpt lat="44.10625" lon="3.18554">
        <ele>758.2</ele>
        <time>2024-02-17T12:08:19Z</time>
      </trkpt>
      <trkpt lat="44.10618" lon="3.18543">
        <ele>758.8</ele>
        <time>2024-02-17T12:08:24Z</time>
      </trkpt>
      <trkpt lat="44.10612" lon="3.18532">
        <ele>759.5</ele>
        <time>2024-02-17T12:08:29Z</time>
      </trkpt>
      <trkpt lat="44.10609" lon="3.18519">
        <ele>760.4</ele>
        <time>2024-02-17T12:08:34Z</time>
      </trkpt>
      <trkpt lat="44.1061" lon="3.18506">
        <ele>761.5</ele>
        <time>2024-02-17T12:08:39Z</time>
      </trkpt>
      <trkpt lat="44.10615" lon="3.18495">
        <ele>762.6</ele>
        <time>2024-02-17T12:08:44Z</time>
      </trkpt>
      <trkpt lat="44.10622" lon="3.18485">
        <ele>763.5</ele>
        <time>2024-02-17T12:08:48Z</time>
      </trkpt>
      <trkpt lat="44.10629" lon="3.18477">
        <ele>764.2</ele>
        <time>2024-02-17T12:08:53Z</time>
      </trkpt>
      <trkpt lat="44.10637" lon="3.18469">
        <ele>764.9</ele>
        <time>2024-02-17T12:08:58Z</time>
      </trkpt>
      <trkpt lat="44.10646" lon="3.1846">
        <ele>765.9</ele>
        <time>2024-02-17T12:09:03Z</time>
      </trkpt>
      <trkpt lat="44.10653" lon="3.18452">
        <ele>766.7</ele>
        <time>2024-02-17T12:09:07Z</time>
      </trkpt>
      <trkpt lat="44.10661" lon="3.18445">
        <ele>767.4</ele>
        <time>2024-02-17T12:09:13Z</time>
      </trkpt>
      <trkpt lat="44.10668" lon="3.18435">
        <ele>767.8</ele>
        <time>2024-02-17T12:09:20Z</time>
      </trkpt>
      <trkpt lat="44.10676" lon="3.18427">
        <ele>768.4</ele>
        <time>2024-02-17T12:09:26Z</time>
      </trkpt>
      <trkpt lat="44.10684" lon="3.18418">
        <ele>768.9</ele>
        <time>2024-02-17T12:09:32Z</time>
      </trkpt>
      <trkpt lat="44.10692" lon="3.18409">
        <ele>769.2</ele>
        <time>2024-02-17T12:09:38Z</time>
      </trkpt>
      <trkpt lat="44.10698" lon="3.184">
        <ele>769.1</ele>
        <time>2024-02-17T12:09:43Z</time>
      </trkpt>
      <trkpt lat="44.10705" lon="3.1839">
        <ele>768.8</ele>
        <time>2024-02-17T12:09:47Z</time>
      </trkpt>
      <trkpt lat="44.10712" lon="3.18379">
        <ele>768.2</ele>
        <time>2024-02-17T12:09:52Z</time>
      </trkpt>
      <trkpt lat="44.10721" lon="3.1837">
        <ele>767.9</ele>
        <time>2024-02-17T12:09:57Z</time>
      </trkpt>
      <trkpt lat="44.1073" lon="3.18366">
        <ele>767.9</ele>
        <time>2024-02-17T12:10:01Z</time>
      </trkpt>
      <trkpt lat="44.10739" lon="3.18362">
        <ele>767.7</ele>
        <time>2024-02-17T12:10:05Z</time>
      </trkpt>
      <trkpt lat="44.10749" lon="3.18359">
        <ele>767.7</ele>
        <time>2024-02-17T12:10:09Z</time>
      </trkpt>
      <trkpt lat="44.10759" lon="3.18357">
        <ele>767.7</ele>
        <time>2024-02-17T12:10:13Z</time>
      </trkpt>
      <trkpt lat="44.10768" lon="3.18352">
        <ele>767.1</ele>
        <time>2024-02-17T12:10:16Z</time>
      </trkpt>
      <trkpt lat="44.1078" lon="3.18343">
        <ele>765.9</ele>
        <time>2024-02-17T12:10:19Z</time>
      </trkpt>
      <trkpt lat="44.10791" lon="3.18333">
        <ele>764.9</ele>
        <time>2024-02-17T12:10:22Z</time>
      </trkpt>
      <trkpt lat="44.108" lon="3.18325">
        <ele>764</ele>
        <time>2024-02-17T12:10:24Z</time>
      </trkpt>
      <trkpt lat="44.10807" lon="3.18317">
        <ele>763.3</ele>
        <time>2024-02-17T12:10:26Z</time>
      </trkpt>
      <trkpt lat="44.10818" lon="3.18307">
        <ele>763.5</ele>
        <time>2024-02-17T12:10:29Z</time>
      </trkpt>
      <trkpt lat="44.10826" lon="3.18298">
        <ele>763.5</ele>
        <time>2024-02-17T12:10:32Z</time>
      </trkpt>
      <trkpt lat="44.10818" lon="3.18287">
        <ele>760.2</ele>
        <time>2024-02-17T12:10:37Z</time>
      </trkpt>
      <trkpt lat="44.10805" lon="3.18288">
        <ele>757.7</ele>
        <time>2024-02-17T12:10:40Z</time>
      </trkpt>
      <trkpt lat="44.10794" lon="3.18289">
        <ele>756</ele>
        <time>2024-02-17T12:10:45Z</time>
      </trkpt>
      <trkpt lat="44.1078" lon="3.18288">
        <ele>753.3</ele>
        <time>2024-02-17T12:10:48Z</time>
      </trkpt>
      <trkpt lat="44.10771" lon="3.1829">
        <ele>753.1</ele>
        <time>2024-02-17T12:10:50Z</time>
      </trkpt>
      <trkpt lat="44.1076" lon="3.18289">
        <ele>752.2</ele>
        <time>2024-02-17T12:10:53Z</time>
      </trkpt>
      <trkpt lat="44.10747" lon="3.18287">
        <ele>751.1</ele>
        <time>2024-02-17T12:10:56Z</time>
      </trkpt>
      <trkpt lat="44.10735" lon="3.18288">
        <ele>751.7</ele>
        <time>2024-02-17T12:10:59Z</time>
      </trkpt>
      <trkpt lat="44.10726" lon="3.18283">
        <ele>750.4</ele>
        <time>2024-02-17T12:11:03Z</time>
      </trkpt>
      <trkpt lat="44.10717" lon="3.18279">
        <ele>749.9</ele>
        <time>2024-02-17T12:11:07Z</time>
      </trkpt>
      <trkpt lat="44.10708" lon="3.1827">
        <ele>748.7</ele>
        <time>2024-02-17T12:11:12Z</time>
      </trkpt>
      <trkpt lat="44.10701" lon="3.18259">
        <ele>747.1</ele>
        <time>2024-02-17T12:11:16Z</time>
      </trkpt>
      <trkpt lat="44.10705" lon="3.18247">
        <ele>743.7</ele>
        <time>2024-02-17T12:11:23Z</time>
      </trkpt>
      <trkpt lat="44.10714" lon="3.18241">
        <ele>740.9</ele>
        <time>2024-02-17T12:11:28Z</time>
      </trkpt>
      <trkpt lat="44.10708" lon="3.18229">
        <ele>738.8</ele>
        <time>2024-02-17T12:11:32Z</time>
      </trkpt>
      <trkpt lat="44.10698" lon="3.18217">
        <ele>737</ele>
        <time>2024-02-17T12:11:35Z</time>
      </trkpt>
      <trkpt lat="44.10689" lon="3.18207">
        <ele>735</ele>
        <time>2024-02-17T12:11:39Z</time>
      </trkpt>
      <trkpt lat="44.10679" lon="3.182">
        <ele>733.7</ele>
        <time>2024-02-17T12:11:42Z</time>
      </trkpt>
      <trkpt lat="44.10668" lon="3.182">
        <ele>734.5</ele>
        <time>2024-02-17T12:11:45Z</time>
      </trkpt>
      <trkpt lat="44.10658" lon="3.18196">
        <ele>733.4</ele>
        <time>2024-02-17T12:11:48Z</time>
      </trkpt>
      <trkpt lat="44.1066" lon="3.18184">
        <ele>729.5</ele>
        <time>2024-02-17T12:11:59Z</time>
      </trkpt>
      <trkpt lat="44.10668" lon="3.18174">
        <ele>726.3</ele>
        <time>2024-02-17T12:12:02Z</time>
      </trkpt>
      <trkpt lat="44.10679" lon="3.18168">
        <ele>724</ele>
        <time>2024-02-17T12:12:05Z</time>
      </trkpt>
      <trkpt lat="44.10689" lon="3.18165">
        <ele>722.7</ele>
        <time>2024-02-17T12:12:09Z</time>
      </trkpt>
      <trkpt lat="44.10698" lon="3.18163">
        <ele>721.2</ele>
        <time>2024-02-17T12:12:12Z</time>
      </trkpt>
      <trkpt lat="44.10708" lon="3.18162">
        <ele>718.7</ele>
        <time>2024-02-17T12:12:17Z</time>
      </trkpt>
      <trkpt lat="44.10718" lon="3.18156">
        <ele>714.8</ele>
        <time>2024-02-17T12:12:21Z</time>
      </trkpt>
      <trkpt lat="44.10719" lon="3.18143">
        <ele>710.9</ele>
        <time>2024-02-17T12:12:26Z</time>
      </trkpt>
      <trkpt lat="44.10715" lon="3.18131">
        <ele>709.8</ele>
        <time>2024-02-17T12:12:36Z</time>
      </trkpt>
      <trkpt lat="44.10708" lon="3.18121">
        <ele>709.1</ele>
        <time>2024-02-17T12:12:39Z</time>
      </trkpt>
      <trkpt lat="44.10699" lon="3.18117">
        <ele>708.6</ele>
        <time>2024-02-17T12:12:43Z</time>
      </trkpt>
      <trkpt lat="44.10692" lon="3.18105">
        <ele>705.3</ele>
        <time>2024-02-17T12:12:46Z</time>
      </trkpt>
      <trkpt lat="44.10682" lon="3.18096">
        <ele>702.3</ele>
        <time>2024-02-17T12:12:48Z</time>
      </trkpt>
      <trkpt lat="44.10672" lon="3.18092">
        <ele>700.6</ele>
        <time>2024-02-17T12:12:50Z</time>
      </trkpt>
      <trkpt lat="44.10666" lon="3.18082">
        <ele>697.8</ele>
        <time>2024-02-17T12:12:53Z</time>
      </trkpt>
      <trkpt lat="44.10657" lon="3.18075">
        <ele>695.2</ele>
        <time>2024-02-17T12:12:59Z</time>
      </trkpt>
      <trkpt lat="44.10648" lon="3.18071">
        <ele>692.6</ele>
        <time>2024-02-17T12:13:02Z</time>
      </trkpt>
      <trkpt lat="44.10638" lon="3.18063">
        <ele>688.4</ele>
        <time>2024-02-17T12:13:13Z</time>
      </trkpt>
      <trkpt lat="44.10629" lon="3.18054">
        <ele>684.4</ele>
        <time>2024-02-17T12:13:18Z</time>
      </trkpt>
      <trkpt lat="44.1062" lon="3.18043">
        <ele>680.6</ele>
        <time>2024-02-17T12:13:21Z</time>
      </trkpt>
      <trkpt lat="44.10609" lon="3.18041">
        <ele>677.1</ele>
        <time>2024-02-17T12:13:25Z</time>
      </trkpt>
      <trkpt lat="44.10607" lon="3.18027">
        <ele>674</ele>
        <time>2024-02-17T12:13:30Z</time>
      </trkpt>
      <trkpt lat="44.10612" lon="3.18017">
        <ele>674.2</ele>
        <time>2024-02-17T12:13:34Z</time>
      </trkpt>
      <trkpt lat="44.10608" lon="3.18005">
        <ele>671.6</ele>
        <time>2024-02-17T12:13:39Z</time>
      </trkpt>
      <trkpt lat="44.10597" lon="3.18001">
        <ele>667.6</ele>
        <time>2024-02-17T12:13:43Z</time>
      </trkpt>
      <trkpt lat="44.10587" lon="3.18001">
        <ele>664.4</ele>
        <time>2024-02-17T12:13:45Z</time>
      </trkpt>
      <trkpt lat="44.10577" lon="3.17999">
        <ele>662.4</ele>
        <time>2024-02-17T12:13:47Z</time>
      </trkpt>
      <trkpt lat="44.1057" lon="3.17988">
        <ele>660.5</ele>
        <time>2024-02-17T12:13:51Z</time>
      </trkpt>
      <trkpt lat="44.1057" lon="3.17975">
        <ele>658.9</ele>
        <time>2024-02-17T12:13:55Z</time>
      </trkpt>
      <trkpt lat="44.10573" lon="3.17959">
        <ele>657.9</ele>
        <time>2024-02-17T12:13:58Z</time>
      </trkpt>
      <trkpt lat="44.10567" lon="3.17948">
        <ele>656.5</ele>
        <time>2024-02-17T12:14:00Z</time>
      </trkpt>
      <trkpt lat="44.1056" lon="3.17939">
        <ele>653.7</ele>
        <time>2024-02-17T12:14:04Z</time>
      </trkpt>
      <trkpt lat="44.10563" lon="3.17927">
        <ele>650.4</ele>
        <time>2024-02-17T12:14:18Z</time>
      </trkpt>
      <trkpt lat="44.10567" lon="3.17915">
        <ele>647.7</ele>
        <time>2024-02-17T12:14:21Z</time>
      </trkpt>
      <trkpt lat="44.10567" lon="3.17901">
        <ele>643.2</ele>
        <time>2024-02-17T12:14:24Z</time>
      </trkpt>
      <trkpt lat="44.10565" lon="3.17888">
        <ele>638</ele>
        <time>2024-02-17T12:14:27Z</time>
      </trkpt>
      <trkpt lat="44.10561" lon="3.17875">
        <ele>634.6</ele>
        <time>2024-02-17T12:14:31Z</time>
      </trkpt>
      <trkpt lat="44.10551" lon="3.17873">
        <ele>631.1</ele>
        <time>2024-02-17T12:14:35Z</time>
      </trkpt>
      <trkpt lat="44.1054" lon="3.17874">
        <ele>630.8</ele>
        <time>2024-02-17T12:14:39Z</time>
      </trkpt>
      <trkpt lat="44.10531" lon="3.17872">
        <ele>630.1</ele>
        <time>2024-02-17T12:14:42Z</time>
      </trkpt>
      <trkpt lat="44.10523" lon="3.17865">
        <ele>627.2</ele>
        <time>2024-02-17T12:14:54Z</time>
      </trkpt>
      <trkpt lat="44.10514" lon="3.17871">
        <ele>625.3</ele>
        <time>2024-02-17T12:15:00Z</time>
      </trkpt>
      <trkpt lat="44.10505" lon="3.17868">
        <ele>621.9</ele>
        <time>2024-02-17T12:15:03Z</time>
      </trkpt>
      <trkpt lat="44.10494" lon="3.17863">
        <ele>617.5</ele>
        <time>2024-02-17T12:15:05Z</time>
      </trkpt>
      <trkpt lat="44.10484" lon="3.1786">
        <ele>613.8</ele>
        <time>2024-02-17T12:15:07Z</time>
      </trkpt>
      <trkpt lat="44.10471" lon="3.1786">
        <ele>609.8</ele>
        <time>2024-02-17T12:15:10Z</time>
      </trkpt>
      <trkpt lat="44.10464" lon="3.1785">
        <ele>607.8</ele>
        <time>2024-02-17T12:15:12Z</time>
      </trkpt>
      <trkpt lat="44.10457" lon="3.17836">
        <ele>604.6</ele>
        <time>2024-02-17T12:15:14Z</time>
      </trkpt>
      <trkpt lat="44.10449" lon="3.17826">
        <ele>602.4</ele>
        <time>2024-02-17T12:15:16Z</time>
      </trkpt>
      <trkpt lat="44.10442" lon="3.17817">
        <ele>600.6</ele>
        <time>2024-02-17T12:15:18Z</time>
      </trkpt>
      <trkpt lat="44.1044" lon="3.17803">
        <ele>600.1</ele>
        <time>2024-02-17T12:15:20Z</time>
      </trkpt>
      <trkpt lat="44.10434" lon="3.1779">
        <ele>598.5</ele>
        <time>2024-02-17T12:15:23Z</time>
      </trkpt>
      <trkpt lat="44.10422" lon="3.17787">
        <ele>594.7</ele>
        <time>2024-02-17T12:15:26Z</time>
      </trkpt>
      <trkpt lat="44.10414" lon="3.17793">
        <ele>593.5</ele>
        <time>2024-02-17T12:15:32Z</time>
      </trkpt>
      <trkpt lat="44.10406" lon="3.17802">
        <ele>594.2</ele>
        <time>2024-02-17T12:15:40Z</time>
      </trkpt>
      <trkpt lat="44.10399" lon="3.17813">
        <ele>595.4</ele>
        <time>2024-02-17T12:15:47Z</time>
      </trkpt>
      <trkpt lat="44.10394" lon="3.17824">
        <ele>596.8</ele>
        <time>2024-02-17T12:15:54Z</time>
      </trkpt>
      <trkpt lat="44.10388" lon="3.17835">
        <ele>598.3</ele>
        <time>2024-02-17T12:16:00Z</time>
      </trkpt>
      <trkpt lat="44.10381" lon="3.17842">
        <ele>599</ele>
        <time>2024-02-17T12:16:05Z</time>
      </trkpt>
      <trkpt lat="44.10375" lon="3.17853">
        <ele>600</ele>
        <time>2024-02-17T12:16:12Z</time>
      </trkpt>
      <trkpt lat="44.10369" lon="3.17863">
        <ele>600.4</ele>
        <time>2024-02-17T12:16:17Z</time>
      </trkpt>
      <trkpt lat="44.10362" lon="3.17876">
        <ele>600.3</ele>
        <time>2024-02-17T12:16:23Z</time>
      </trkpt>
      <trkpt lat="44.10354" lon="3.17885">
        <ele>600.6</ele>
        <time>2024-02-17T12:16:28Z</time>
      </trkpt>
      <trkpt lat="44.1035" lon="3.17897">
        <ele>601.6</ele>
        <time>2024-02-17T12:16:33Z</time>
      </trkpt>
      <trkpt lat="44.10345" lon="3.1791">
        <ele>602.5</ele>
        <time>2024-02-17T12:16:40Z</time>
      </trkpt>
      <trkpt lat="44.10341" lon="3.17921">
        <ele>602.9</ele>
        <time>2024-02-17T12:16:46Z</time>
      </trkpt>
      <trkpt lat="44.10342" lon="3.17935">
        <ele>604.7</ele>
        <time>2024-02-17T12:16:51Z</time>
      </trkpt>
      <trkpt lat="44.10342" lon="3.17949">
        <ele>606.6</ele>
        <time>2024-02-17T12:16:57Z</time>
      </trkpt>
      <trkpt lat="44.10347" lon="3.17959">
        <ele>610.3</ele>
        <time>2024-02-17T12:17:04Z</time>
      </trkpt>
      <trkpt lat="44.10343" lon="3.17971">
        <ele>611</ele>
        <time>2024-02-17T12:17:12Z</time>
      </trkpt>
      <trkpt lat="44.10336" lon="3.17979">
        <ele>609.8</ele>
        <time>2024-02-17T12:17:18Z</time>
      </trkpt>
      <trkpt lat="44.10327" lon="3.17983">
        <ele>609.4</ele>
        <time>2024-02-17T12:17:26Z</time>
      </trkpt>
      <trkpt lat="44.10318" lon="3.17986">
        <ele>609.4</ele>
        <time>2024-02-17T12:17:33Z</time>
      </trkpt>
      <trkpt lat="44.10309" lon="3.17988">
        <ele>609</ele>
        <time>2024-02-17T12:17:40Z</time>
      </trkpt>
      <trkpt lat="44.10299" lon="3.17992">
        <ele>610.4</ele>
        <time>2024-02-17T12:17:49Z</time>
      </trkpt>
      <trkpt lat="44.1029" lon="3.17996">
        <ele>612.1</ele>
        <time>2024-02-17T12:18:00Z</time>
      </trkpt>
      <trkpt lat="44.10282" lon="3.18005">
        <ele>613.9</ele>
        <time>2024-02-17T12:18:05Z</time>
      </trkpt>
      <trkpt lat="44.10274" lon="3.18012">
        <ele>615.4</ele>
        <time>2024-02-17T12:18:11Z</time>
      </trkpt>
      <trkpt lat="44.10266" lon="3.18021">
        <ele>616.8</ele>
        <time>2024-02-17T12:18:18Z</time>
      </trkpt>
      <trkpt lat="44.10259" lon="3.18032">
        <ele>617.7</ele>
        <time>2024-02-17T12:18:24Z</time>
      </trkpt>
      <trkpt lat="44.10251" lon="3.18039">
        <ele>618.4</ele>
        <time>2024-02-17T12:18:30Z</time>
      </trkpt>
      <trkpt lat="44.10245" lon="3.1805">
        <ele>619.1</ele>
        <time>2024-02-17T12:18:36Z</time>
      </trkpt>
      <trkpt lat="44.10236" lon="3.18056">
        <ele>619.6</ele>
        <time>2024-02-17T12:18:43Z</time>
      </trkpt>
      <trkpt lat="44.10227" lon="3.18057">
        <ele>620</ele>
        <time>2024-02-17T12:18:51Z</time>
      </trkpt>
      <trkpt lat="44.10217" lon="3.18059">
        <ele>620.9</ele>
        <time>2024-02-17T12:18:56Z</time>
      </trkpt>
      <trkpt lat="44.10207" lon="3.18058">
        <ele>621.8</ele>
        <time>2024-02-17T12:19:09Z</time>
      </trkpt>
      <trkpt lat="44.10197" lon="3.18057">
        <ele>622.8</ele>
        <time>2024-02-17T12:19:15Z</time>
      </trkpt>
      <trkpt lat="44.10188" lon="3.18058">
        <ele>624.4</ele>
        <time>2024-02-17T12:19:20Z</time>
      </trkpt>
      <trkpt lat="44.10178" lon="3.18059">
        <ele>626.5</ele>
        <time>2024-02-17T12:19:26Z</time>
      </trkpt>
      <trkpt lat="44.10169" lon="3.18063">
        <ele>628</ele>
        <time>2024-02-17T12:19:32Z</time>
      </trkpt>
      <trkpt lat="44.10161" lon="3.18071">
        <ele>629.5</ele>
        <time>2024-02-17T12:19:40Z</time>
      </trkpt>
      <trkpt lat="44.10152" lon="3.18078">
        <ele>631</ele>
        <time>2024-02-17T12:19:47Z</time>
      </trkpt>
      <trkpt lat="44.10144" lon="3.18086">
        <ele>631.9</ele>
        <time>2024-02-17T12:19:54Z</time>
      </trkpt>
      <trkpt lat="44.10138" lon="3.18096">
        <ele>632.8</ele>
        <time>2024-02-17T12:19:59Z</time>
      </trkpt>
      <trkpt lat="44.1013" lon="3.18105">
        <ele>634.1</ele>
        <time>2024-02-17T12:20:06Z</time>
      </trkpt>
      <trkpt lat="44.10124" lon="3.18115">
        <ele>634.5</ele>
        <time>2024-02-17T12:20:12Z</time>
      </trkpt>
      <trkpt lat="44.10117" lon="3.18123">
        <ele>634.9</ele>
        <time>2024-02-17T12:20:19Z</time>
      </trkpt>
      <trkpt lat="44.10108" lon="3.1813">
        <ele>635.4</ele>
        <time>2024-02-17T12:20:26Z</time>
      </trkpt>
      <trkpt lat="44.10103" lon="3.18143">
        <ele>634.9</ele>
        <time>2024-02-17T12:20:32Z</time>
      </trkpt>
      <trkpt lat="44.10094" lon="3.18146">
        <ele>635.8</ele>
        <time>2024-02-17T12:20:36Z</time>
      </trkpt>
      <trkpt lat="44.10085" lon="3.1815">
        <ele>636.5</ele>
        <time>2024-02-17T12:20:41Z</time>
      </trkpt>
      <trkpt lat="44.10075" lon="3.18154">
        <ele>637.6</ele>
        <time>2024-02-17T12:20:48Z</time>
      </trkpt>
      <trkpt lat="44.10066" lon="3.18157">
        <ele>638.5</ele>
        <time>2024-02-17T12:20:53Z</time>
      </trkpt>
      <trkpt lat="44.10057" lon="3.18161">
        <ele>638.9</ele>
        <time>2024-02-17T12:21:00Z</time>
      </trkpt>
      <trkpt lat="44.10048" lon="3.18165">
        <ele>639.1</ele>
        <time>2024-02-17T12:21:06Z</time>
      </trkpt>
      <trkpt lat="44.10039" lon="3.18169">
        <ele>639.9</ele>
        <time>2024-02-17T12:21:13Z</time>
      </trkpt>
      <trkpt lat="44.10029" lon="3.18171">
        <ele>640.9</ele>
        <time>2024-02-17T12:21:19Z</time>
      </trkpt>
      <trkpt lat="44.10019" lon="3.18174">
        <ele>641.7</ele>
        <time>2024-02-17T12:21:24Z</time>
      </trkpt>
      <trkpt lat="44.10008" lon="3.18175">
        <ele>642.5</ele>
        <time>2024-02-17T12:21:30Z</time>
      </trkpt>
      <trkpt lat="44.09998" lon="3.18178">
        <ele>642.9</ele>
        <time>2024-02-17T12:21:36Z</time>
      </trkpt>
      <trkpt lat="44.09989" lon="3.18183">
        <ele>643</ele>
        <time>2024-02-17T12:21:42Z</time>
      </trkpt>
      <trkpt lat="44.09979" lon="3.18186">
        <ele>643.1</ele>
        <time>2024-02-17T12:21:49Z</time>
      </trkpt>
      <trkpt lat="44.0997" lon="3.18189">
        <ele>643.3</ele>
        <time>2024-02-17T12:21:57Z</time>
      </trkpt>
      <trkpt lat="44.09962" lon="3.18196">
        <ele>643.2</ele>
        <time>2024-02-17T12:22:03Z</time>
      </trkpt>
      <trkpt lat="44.09952" lon="3.18202">
        <ele>644.4</ele>
        <time>2024-02-17T12:22:10Z</time>
      </trkpt>
      <trkpt lat="44.09943" lon="3.18204">
        <ele>645.3</ele>
        <time>2024-02-17T12:22:16Z</time>
      </trkpt>
      <trkpt lat="44.09934" lon="3.18207">
        <ele>646.7</ele>
        <time>2024-02-17T12:22:22Z</time>
      </trkpt>
      <trkpt lat="44.09924" lon="3.18209">
        <ele>648.3</ele>
        <time>2024-02-17T12:22:26Z</time>
      </trkpt>
      <trkpt lat="44.09914" lon="3.18213">
        <ele>649.4</ele>
        <time>2024-02-17T12:22:32Z</time>
      </trkpt>
      <trkpt lat="44.09904" lon="3.18218">
        <ele>650.4</ele>
        <time>2024-02-17T12:22:36Z</time>
      </trkpt>
      <trkpt lat="44.09897" lon="3.18226">
        <ele>651.2</ele>
        <time>2024-02-17T12:22:42Z</time>
      </trkpt>
      <trkpt lat="44.09893" lon="3.18239">
        <ele>653.1</ele>
        <time>2024-02-17T12:22:50Z</time>
      </trkpt>
      <trkpt lat="44.09892" lon="3.18254">
        <ele>655</ele>
        <time>2024-02-17T12:22:57Z</time>
      </trkpt>
      <trkpt lat="44.09891" lon="3.18267">
        <ele>657.1</ele>
        <time>2024-02-17T12:23:03Z</time>
      </trkpt>
      <trkpt lat="44.09895" lon="3.1828">
        <ele>658.5</ele>
        <time>2024-02-17T12:23:08Z</time>
      </trkpt>
      <trkpt lat="44.09893" lon="3.18293">
        <ele>661.1</ele>
        <time>2024-02-17T12:23:14Z</time>
      </trkpt>
      <trkpt lat="44.09895" lon="3.18306">
        <ele>663.2</ele>
        <time>2024-02-17T12:23:20Z</time>
      </trkpt>
      <trkpt lat="44.09894" lon="3.18319">
        <ele>664.9</ele>
        <time>2024-02-17T12:23:27Z</time>
      </trkpt>
      <trkpt lat="44.09892" lon="3.18332">
        <ele>666.6</ele>
        <time>2024-02-17T12:23:34Z</time>
      </trkpt>
      <trkpt lat="44.09895" lon="3.18345">
        <ele>667.9</ele>
        <time>2024-02-17T12:23:38Z</time>
      </trkpt>
      <trkpt lat="44.09894" lon="3.18357">
        <ele>669.3</ele>
        <time>2024-02-17T12:23:44Z</time>
      </trkpt>
      <trkpt lat="44.09891" lon="3.1837">
        <ele>670.3</ele>
        <time>2024-02-17T12:23:50Z</time>
      </trkpt>
      <trkpt lat="44.09891" lon="3.18382">
        <ele>670.7</ele>
        <time>2024-02-17T12:23:57Z</time>
      </trkpt>
      <trkpt lat="44.0989" lon="3.18396">
        <ele>671.3</ele>
        <time>2024-02-17T12:24:05Z</time>
      </trkpt>
      <trkpt lat="44.09891" lon="3.1841">
        <ele>671.8</ele>
        <time>2024-02-17T12:24:11Z</time>
      </trkpt>
      <trkpt lat="44.09891" lon="3.18423">
        <ele>672</ele>
        <time>2024-02-17T12:24:16Z</time>
      </trkpt>
      <trkpt lat="44.09891" lon="3.18438">
        <ele>672</ele>
        <time>2024-02-17T12:24:23Z</time>
      </trkpt>
      <trkpt lat="44.09889" lon="3.18451">
        <ele>672</ele>
        <time>2024-02-17T12:24:30Z</time>
      </trkpt>
      <trkpt lat="44.09888" lon="3.18465">
        <ele>672.2</ele>
        <time>2024-02-17T12:24:37Z</time>
      </trkpt>
      <trkpt lat="44.09887" lon="3.18478">
        <ele>672.5</ele>
        <time>2024-02-17T12:24:44Z</time>
      </trkpt>
      <trkpt lat="44.09887" lon="3.18492">
        <ele>673.1</ele>
        <time>2024-02-17T12:24:52Z</time>
      </trkpt>
      <trkpt lat="44.09885" lon="3.18505">
        <ele>673.9</ele>
        <time>2024-02-17T12:24:59Z</time>
      </trkpt>
      <trkpt lat="44.09884" lon="3.18519">
        <ele>674.6</ele>
        <time>2024-02-17T12:25:06Z</time>
      </trkpt>
      <trkpt lat="44.09885" lon="3.18533">
        <ele>675.1</ele>
        <time>2024-02-17T12:25:12Z</time>
      </trkpt>
      <trkpt lat="44.09888" lon="3.18547">
        <ele>675.5</ele>
        <time>2024-02-17T12:25:19Z</time>
      </trkpt>
      <trkpt lat="44.09889" lon="3.18561">
        <ele>676.4</ele>
        <time>2024-02-17T12:25:25Z</time>
      </trkpt>
      <trkpt lat="44.09889" lon="3.18574">
        <ele>677.3</ele>
        <time>2024-02-17T12:25:32Z</time>
      </trkpt>
      <trkpt lat="44.09888" lon="3.18587">
        <ele>678.3</ele>
        <time>2024-02-17T12:25:39Z</time>
      </trkpt>
      <trkpt lat="44.09886" lon="3.18599">
        <ele>679.1</ele>
        <time>2024-02-17T12:25:46Z</time>
      </trkpt>
      <trkpt lat="44.09885" lon="3.18613">
        <ele>679.9</ele>
        <time>2024-02-17T12:25:54Z</time>
      </trkpt>
      <trkpt lat="44.09884" lon="3.18627">
        <ele>680.6</ele>
        <time>2024-02-17T12:26:01Z</time>
      </trkpt>
      <trkpt lat="44.09885" lon="3.1864">
        <ele>680.9</ele>
        <time>2024-02-17T12:26:08Z</time>
      </trkpt>
      <trkpt lat="44.09885" lon="3.18654">
        <ele>681.9</ele>
        <time>2024-02-17T12:26:15Z</time>
      </trkpt>
      <trkpt lat="44.09883" lon="3.18669">
        <ele>683.2</ele>
        <time>2024-02-17T12:26:23Z</time>
      </trkpt>
      <trkpt lat="44.09879" lon="3.18682">
        <ele>684.9</ele>
        <time>2024-02-17T12:26:29Z</time>
      </trkpt>
      <trkpt lat="44.09874" lon="3.18693">
        <ele>686.6</ele>
        <time>2024-02-17T12:26:35Z</time>
      </trkpt>
      <trkpt lat="44.09874" lon="3.18707">
        <ele>687.6</ele>
        <time>2024-02-17T12:26:43Z</time>
      </trkpt>
      <trkpt lat="44.09875" lon="3.1872">
        <ele>688.3</ele>
        <time>2024-02-17T12:26:50Z</time>
      </trkpt>
      <trkpt lat="44.09876" lon="3.18734">
        <ele>689.6</ele>
        <time>2024-02-17T12:26:58Z</time>
      </trkpt>
      <trkpt lat="44.09876" lon="3.18747">
        <ele>691</ele>
        <time>2024-02-17T12:27:05Z</time>
      </trkpt>
      <trkpt lat="44.09879" lon="3.18759">
        <ele>691.6</ele>
        <time>2024-02-17T12:27:12Z</time>
      </trkpt>
      <trkpt lat="44.09884" lon="3.18772">
        <ele>692.1</ele>
        <time>2024-02-17T12:27:18Z</time>
      </trkpt>
      <trkpt lat="44.09886" lon="3.18785">
        <ele>693.4</ele>
        <time>2024-02-17T12:27:23Z</time>
      </trkpt>
      <trkpt lat="44.09888" lon="3.18799">
        <ele>695.2</ele>
        <time>2024-02-17T12:27:30Z</time>
      </trkpt>
      <trkpt lat="44.09893" lon="3.18811">
        <ele>696.6</ele>
        <time>2024-02-17T12:27:36Z</time>
      </trkpt>
      <trkpt lat="44.09896" lon="3.18824">
        <ele>698</ele>
        <time>2024-02-17T12:27:45Z</time>
      </trkpt>
      <trkpt lat="44.09894" lon="3.18836">
        <ele>699.4</ele>
        <time>2024-02-17T12:27:54Z</time>
      </trkpt>
      <trkpt lat="44.0989" lon="3.18848">
        <ele>701.1</ele>
        <time>2024-02-17T12:28:02Z</time>
      </trkpt>
      <trkpt lat="44.09886" lon="3.18862">
        <ele>703.3</ele>
        <time>2024-02-17T12:28:12Z</time>
      </trkpt>
      <trkpt lat="44.09881" lon="3.18872">
        <ele>705</ele>
        <time>2024-02-17T12:28:21Z</time>
      </trkpt>
      <trkpt lat="44.09872" lon="3.18879">
        <ele>706.4</ele>
        <time>2024-02-17T12:28:30Z</time>
      </trkpt>
      <trkpt lat="44.09864" lon="3.18887">
        <ele>707.7</ele>
        <time>2024-02-17T12:28:39Z</time>
      </trkpt>
      <trkpt lat="44.09857" lon="3.18895">
        <ele>708.9</ele>
        <time>2024-02-17T12:28:48Z</time>
      </trkpt>
      <trkpt lat="44.09849" lon="3.18902">
        <ele>710.1</ele>
        <time>2024-02-17T12:28:58Z</time>
      </trkpt>
      <trkpt lat="44.0984" lon="3.18907">
        <ele>711</ele>
        <time>2024-02-17T12:29:06Z</time>
      </trkpt>
      <trkpt lat="44.09833" lon="3.18916">
        <ele>712</ele>
        <time>2024-02-17T12:29:13Z</time>
      </trkpt>
      <trkpt lat="44.09824" lon="3.18924">
        <ele>713.4</ele>
        <time>2024-02-17T12:29:23Z</time>
      </trkpt>
      <trkpt lat="44.09815" lon="3.1893">
        <ele>714.6</ele>
        <time>2024-02-17T12:29:32Z</time>
      </trkpt>
      <trkpt lat="44.09807" lon="3.18934">
        <ele>715.5</ele>
        <time>2024-02-17T12:29:39Z</time>
      </trkpt>
      <trkpt lat="44.09799" lon="3.1894">
        <ele>716.1</ele>
        <time>2024-02-17T12:29:46Z</time>
      </trkpt>
      <trkpt lat="44.09792" lon="3.18948">
        <ele>716.6</ele>
        <time>2024-02-17T12:29:54Z</time>
      </trkpt>
      <trkpt lat="44.09785" lon="3.18959">
        <ele>717.3</ele>
        <time>2024-02-17T12:30:05Z</time>
      </trkpt>
      <trkpt lat="44.09778" lon="3.18967">
        <ele>717.8</ele>
        <time>2024-02-17T12:30:13Z</time>
      </trkpt>
      <trkpt lat="44.09773" lon="3.18978">
        <ele>718.4</ele>
        <time>2024-02-17T12:30:19Z</time>
      </trkpt>
      <trkpt lat="44.09766" lon="3.18986">
        <ele>718.9</ele>
        <time>2024-02-17T12:30:26Z</time>
      </trkpt>
      <trkpt lat="44.09757" lon="3.18994">
        <ele>719.5</ele>
        <time>2024-02-17T12:30:35Z</time>
      </trkpt>
      <trkpt lat="44.0975" lon="3.19002">
        <ele>720.1</ele>
        <time>2024-02-17T12:30:43Z</time>
      </trkpt>
      <trkpt lat="44.0974" lon="3.19006">
        <ele>720.6</ele>
        <time>2024-02-17T12:30:52Z</time>
      </trkpt>
      <trkpt lat="44.09731" lon="3.19005">
        <ele>720.9</ele>
        <time>2024-02-17T12:30:59Z</time>
      </trkpt>
      <trkpt lat="44.09722" lon="3.19006">
        <ele>721.2</ele>
        <time>2024-02-17T12:31:05Z</time>
      </trkpt>
      <trkpt lat="44.09713" lon="3.19006">
        <ele>721.9</ele>
        <time>2024-02-17T12:31:11Z</time>
      </trkpt>
      <trkpt lat="44.09703" lon="3.19007">
        <ele>722.6</ele>
        <time>2024-02-17T12:31:17Z</time>
      </trkpt>
      <trkpt lat="44.09694" lon="3.19007">
        <ele>723.3</ele>
        <time>2024-02-17T12:31:25Z</time>
      </trkpt>
      <trkpt lat="44.09688" lon="3.18997">
        <ele>723.5</ele>
        <time>2024-02-17T12:31:37Z</time>
      </trkpt>
      <trkpt lat="44.09682" lon="3.18986">
        <ele>723.9</ele>
        <time>2024-02-17T12:31:47Z</time>
      </trkpt>
      <trkpt lat="44.09672" lon="3.18983">
        <ele>724.6</ele>
        <time>2024-02-17T12:31:53Z</time>
      </trkpt>
      <trkpt lat="44.09671" lon="3.18997">
        <ele>724.7</ele>
        <time>2024-02-17T12:32:06Z</time>
      </trkpt>
      <trkpt lat="44.09677" lon="3.19011">
        <ele>724.4</ele>
        <time>2024-02-17T12:32:10Z</time>
      </trkpt>
      <trkpt lat="44.09683" lon="3.19022">
        <ele>724.3</ele>
        <time>2024-02-17T12:32:12Z</time>
      </trkpt>
      <trkpt lat="44.09689" lon="3.19032">
        <ele>724.5</ele>
        <time>2024-02-17T12:32:14Z</time>
      </trkpt>
      <trkpt lat="44.09697" lon="3.19042">
        <ele>724.8</ele>
        <time>2024-02-17T12:32:17Z</time>
      </trkpt>
      <trkpt lat="44.09704" lon="3.19051">
        <ele>724.7</ele>
        <time>2024-02-17T12:32:20Z</time>
      </trkpt>
      <trkpt lat="44.09712" lon="3.19062">
        <ele>724.6</ele>
        <time>2024-02-17T12:32:24Z</time>
      </trkpt>
      <trkpt lat="44.0972" lon="3.19071">
        <ele>724.4</ele>
        <time>2024-02-17T12:32:28Z</time>
      </trkpt>
      <trkpt lat="44.09728" lon="3.1908">
        <ele>724.7</ele>
        <time>2024-02-17T12:32:32Z</time>
      </trkpt>
      <trkpt lat="44.09735" lon="3.1909">
        <ele>725.5</ele>
        <time>2024-02-17T12:32:36Z</time>
      </trkpt>
      <trkpt lat="44.09736" lon="3.19103">
        <ele>726.4</ele>
        <time>2024-02-17T12:32:41Z</time>
      </trkpt>
      <trkpt lat="44.09729" lon="3.19112">
        <ele>727.1</ele>
        <time>2024-02-17T12:32:45Z</time>
      </trkpt>
      <trkpt lat="44.09721" lon="3.19122">
        <ele>727.9</ele>
        <time>2024-02-17T12:32:50Z</time>
      </trkpt>
      <trkpt lat="44.09714" lon="3.19131">
        <ele>728.8</ele>
        <time>2024-02-17T12:32:54Z</time>
      </trkpt>
      <trkpt lat="44.09706" lon="3.1914">
        <ele>729.6</ele>
        <time>2024-02-17T12:32:58Z</time>
      </trkpt>
      <trkpt lat="44.09698" lon="3.19149">
        <ele>730.3</ele>
        <time>2024-02-17T12:33:02Z</time>
      </trkpt>
      <trkpt lat="44.0969" lon="3.19158">
        <ele>730.9</ele>
        <time>2024-02-17T12:33:06Z</time>
      </trkpt>
      <trkpt lat="44.09681" lon="3.19167">
        <ele>731.5</ele>
        <time>2024-02-17T12:33:10Z</time>
      </trkpt>
      <trkpt lat="44.09673" lon="3.19177">
        <ele>731.6</ele>
        <time>2024-02-17T12:33:14Z</time>
      </trkpt>
      <trkpt lat="44.09666" lon="3.19186">
        <ele>731.3</ele>
        <time>2024-02-17T12:33:18Z</time>
      </trkpt>
      <trkpt lat="44.09661" lon="3.19199">
        <ele>731.3</ele>
        <time>2024-02-17T12:33:22Z</time>
      </trkpt>
      <trkpt lat="44.09655" lon="3.1921">
        <ele>731.5</ele>
        <time>2024-02-17T12:33:26Z</time>
      </trkpt>
      <trkpt lat="44.09648" lon="3.1922">
        <ele>731.4</ele>
        <time>2024-02-17T12:33:30Z</time>
      </trkpt>
      <trkpt lat="44.09639" lon="3.19229">
        <ele>731.2</ele>
        <time>2024-02-17T12:33:34Z</time>
      </trkpt>
      <trkpt lat="44.0963" lon="3.19236">
        <ele>731.7</ele>
        <time>2024-02-17T12:33:38Z</time>
      </trkpt>
      <trkpt lat="44.09621" lon="3.19243">
        <ele>731.9</ele>
        <time>2024-02-17T12:33:42Z</time>
      </trkpt>
      <trkpt lat="44.09611" lon="3.1925">
        <ele>732</ele>
        <time>2024-02-17T12:33:46Z</time>
      </trkpt>
      <trkpt lat="44.09601" lon="3.19258">
        <ele>732.5</ele>
        <time>2024-02-17T12:33:49Z</time>
      </trkpt>
      <trkpt lat="44.09597" lon="3.19269">
        <ele>732.8</ele>
        <time>2024-02-17T12:33:52Z</time>
      </trkpt>
      <trkpt lat="44.0959" lon="3.19279">
        <ele>733.1</ele>
        <time>2024-02-17T12:33:56Z</time>
      </trkpt>
      <trkpt lat="44.09579" lon="3.19286">
        <ele>733.2</ele>
        <time>2024-02-17T12:33:59Z</time>
      </trkpt>
      <trkpt lat="44.09572" lon="3.193">
        <ele>733.5</ele>
        <time>2024-02-17T12:34:02Z</time>
      </trkpt>
      <trkpt lat="44.0957" lon="3.19315">
        <ele>734.2</ele>
        <time>2024-02-17T12:34:06Z</time>
      </trkpt>
      <trkpt lat="44.09561" lon="3.19324">
        <ele>734.1</ele>
        <time>2024-02-17T12:34:10Z</time>
      </trkpt>
      <trkpt lat="44.09552" lon="3.19333">
        <ele>733.9</ele>
        <time>2024-02-17T12:34:13Z</time>
      </trkpt>
      <trkpt lat="44.09544" lon="3.19345">
        <ele>734.2</ele>
        <time>2024-02-17T12:34:16Z</time>
      </trkpt>
      <trkpt lat="44.09538" lon="3.19358">
        <ele>734.6</ele>
        <time>2024-02-17T12:34:19Z</time>
      </trkpt>
      <trkpt lat="44.09542" lon="3.1937">
        <ele>735.2</ele>
        <time>2024-02-17T12:34:23Z</time>
      </trkpt>
      <trkpt lat="44.09547" lon="3.19381">
        <ele>735.9</ele>
        <time>2024-02-17T12:34:28Z</time>
      </trkpt>
      <trkpt lat="44.09552" lon="3.19392">
        <ele>736.7</ele>
        <time>2024-02-17T12:34:33Z</time>
      </trkpt>
      <trkpt lat="44.09556" lon="3.19404">
        <ele>737.6</ele>
        <time>2024-02-17T12:34:40Z</time>
      </trkpt>
      <trkpt lat="44.09566" lon="3.19407">
        <ele>738.9</ele>
        <time>2024-02-17T12:37:34Z</time>
      </trkpt>
      <trkpt lat="44.09576" lon="3.19409">
        <ele>740.1</ele>
        <time>2024-02-17T12:37:40Z</time>
      </trkpt>
      <trkpt lat="44.09586" lon="3.19413">
        <ele>741.4</ele>
        <time>2024-02-17T12:37:46Z</time>
      </trkpt>
      <trkpt lat="44.09595" lon="3.19415">
        <ele>742.7</ele>
        <time>2024-02-17T12:37:52Z</time>
      </trkpt>
      <trkpt lat="44.09604" lon="3.1942">
        <ele>744</ele>
        <time>2024-02-17T12:38:00Z</time>
      </trkpt>
      <trkpt lat="44.09615" lon="3.19426">
        <ele>745.6</ele>
        <time>2024-02-17T12:38:06Z</time>
      </trkpt>
      <trkpt lat="44.09624" lon="3.19429">
        <ele>746.9</ele>
        <time>2024-02-17T12:38:15Z</time>
      </trkpt>
      <trkpt lat="44.09633" lon="3.1943">
        <ele>748.2</ele>
        <time>2024-02-17T12:38:24Z</time>
      </trkpt>
      <trkpt lat="44.09642" lon="3.19426">
        <ele>749.3</ele>
        <time>2024-02-17T12:38:30Z</time>
      </trkpt>
      <trkpt lat="44.09652" lon="3.19425">
        <ele>750.4</ele>
        <time>2024-02-17T12:38:35Z</time>
      </trkpt>
      <trkpt lat="44.09662" lon="3.19429">
        <ele>751.5</ele>
        <time>2024-02-17T12:38:41Z</time>
      </trkpt>
      <trkpt lat="44.09672" lon="3.19432">
        <ele>752.6</ele>
        <time>2024-02-17T12:38:47Z</time>
      </trkpt>
      <trkpt lat="44.09681" lon="3.19437">
        <ele>753.5</ele>
        <time>2024-02-17T12:38:54Z</time>
      </trkpt>
      <trkpt lat="44.0969" lon="3.19442">
        <ele>754.5</ele>
        <time>2024-02-17T12:39:01Z</time>
      </trkpt>
      <trkpt lat="44.09699" lon="3.19447">
        <ele>755.5</ele>
        <time>2024-02-17T12:39:08Z</time>
      </trkpt>
      <trkpt lat="44.09708" lon="3.1945">
        <ele>756.6</ele>
        <time>2024-02-17T12:39:15Z</time>
      </trkpt>
      <trkpt lat="44.09718" lon="3.19452">
        <ele>757.8</ele>
        <time>2024-02-17T12:39:22Z</time>
      </trkpt>
      <trkpt lat="44.09728" lon="3.19453">
        <ele>758.9</ele>
        <time>2024-02-17T12:39:30Z</time>
      </trkpt>
      <trkpt lat="44.09737" lon="3.1945">
        <ele>759.8</ele>
        <time>2024-02-17T12:39:37Z</time>
      </trkpt>
      <trkpt lat="44.09746" lon="3.19446">
        <ele>760.6</ele>
        <time>2024-02-17T12:39:43Z</time>
      </trkpt>
      <trkpt lat="44.09756" lon="3.19444">
        <ele>761.6</ele>
        <time>2024-02-17T12:39:52Z</time>
      </trkpt>
      <trkpt lat="44.09765" lon="3.19441">
        <ele>762.5</ele>
        <time>2024-02-17T12:39:59Z</time>
      </trkpt>
      <trkpt lat="44.09774" lon="3.19444">
        <ele>763.6</ele>
        <time>2024-02-17T12:40:06Z</time>
      </trkpt>
      <trkpt lat="44.09784" lon="3.19445">
        <ele>764.5</ele>
        <time>2024-02-17T12:40:11Z</time>
      </trkpt>
      <trkpt lat="44.09793" lon="3.19445">
        <ele>765.1</ele>
        <time>2024-02-17T12:40:18Z</time>
      </trkpt>
      <trkpt lat="44.09802" lon="3.19442">
        <ele>765.7</ele>
        <time>2024-02-17T12:40:24Z</time>
      </trkpt>
      <trkpt lat="44.09813" lon="3.19442">
        <ele>766.7</ele>
        <time>2024-02-17T12:40:31Z</time>
      </trkpt>
      <trkpt lat="44.09823" lon="3.19444">
        <ele>767.9</ele>
        <time>2024-02-17T12:40:37Z</time>
      </trkpt>
      <trkpt lat="44.09832" lon="3.19446">
        <ele>768.9</ele>
        <time>2024-02-17T12:40:44Z</time>
      </trkpt>
      <trkpt lat="44.09842" lon="3.19449">
        <ele>769.7</ele>
        <time>2024-02-17T12:40:51Z</time>
      </trkpt>
      <trkpt lat="44.09851" lon="3.19453">
        <ele>770.5</ele>
        <time>2024-02-17T12:40:56Z</time>
      </trkpt>
      <trkpt lat="44.0986" lon="3.19459">
        <ele>771.4</ele>
        <time>2024-02-17T12:41:02Z</time>
      </trkpt>
      <trkpt lat="44.09868" lon="3.19462">
        <ele>772.1</ele>
        <time>2024-02-17T12:41:08Z</time>
      </trkpt>
      <trkpt lat="44.09878" lon="3.19461">
        <ele>772.8</ele>
        <time>2024-02-17T12:41:14Z</time>
      </trkpt>
      <trkpt lat="44.09887" lon="3.19461">
        <ele>773.5</ele>
        <time>2024-02-17T12:41:21Z</time>
      </trkpt>
      <trkpt lat="44.09895" lon="3.19466">
        <ele>774.3</ele>
        <time>2024-02-17T12:41:27Z</time>
      </trkpt>
      <trkpt lat="44.09905" lon="3.19472">
        <ele>775.2</ele>
        <time>2024-02-17T12:41:34Z</time>
      </trkpt>
      <trkpt lat="44.09914" lon="3.19473">
        <ele>775.8</ele>
        <time>2024-02-17T12:41:40Z</time>
      </trkpt>
      <trkpt lat="44.09923" lon="3.19477">
        <ele>776.8</ele>
        <time>2024-02-17T12:41:46Z</time>
      </trkpt>
      <trkpt lat="44.09933" lon="3.19479">
        <ele>777.9</ele>
        <time>2024-02-17T12:41:52Z</time>
      </trkpt>
      <trkpt lat="44.09942" lon="3.19484">
        <ele>778.8</ele>
        <time>2024-02-17T12:41:58Z</time>
      </trkpt>
      <trkpt lat="44.09952" lon="3.19489">
        <ele>779.5</ele>
        <time>2024-02-17T12:42:04Z</time>
      </trkpt>
      <trkpt lat="44.09961" lon="3.19493">
        <ele>780.2</ele>
        <time>2024-02-17T12:42:11Z</time>
      </trkpt>
      <trkpt lat="44.09972" lon="3.19496">
        <ele>781</ele>
        <time>2024-02-17T12:42:17Z</time>
      </trkpt>
      <trkpt lat="44.09981" lon="3.19498">
        <ele>781.9</ele>
        <time>2024-02-17T12:42:22Z</time>
      </trkpt>
      <trkpt lat="44.09992" lon="3.19499">
        <ele>783.1</ele>
        <time>2024-02-17T12:42:28Z</time>
      </trkpt>
      <trkpt lat="44.10001" lon="3.19501">
        <ele>784.1</ele>
        <time>2024-02-17T12:42:34Z</time>
      </trkpt>
      <trkpt lat="44.10012" lon="3.19503">
        <ele>785.2</ele>
        <time>2024-02-17T12:42:40Z</time>
      </trkpt>
      <trkpt lat="44.10021" lon="3.19508">
        <ele>786.2</ele>
        <time>2024-02-17T12:42:45Z</time>
      </trkpt>
      <trkpt lat="44.10031" lon="3.19507">
        <ele>787.4</ele>
        <time>2024-02-17T12:42:50Z</time>
      </trkpt>
      <trkpt lat="44.10041" lon="3.19503">
        <ele>788.9</ele>
        <time>2024-02-17T12:42:55Z</time>
      </trkpt>
      <trkpt lat="44.1005" lon="3.19501">
        <ele>790.2</ele>
        <time>2024-02-17T12:42:59Z</time>
      </trkpt>
      <trkpt lat="44.10061" lon="3.19498">
        <ele>791.5</ele>
        <time>2024-02-17T12:43:04Z</time>
      </trkpt>
      <trkpt lat="44.1007" lon="3.19495">
        <ele>792.5</ele>
        <time>2024-02-17T12:43:08Z</time>
      </trkpt>
      <trkpt lat="44.10079" lon="3.1949">
        <ele>793.5</ele>
        <time>2024-02-17T12:43:12Z</time>
      </trkpt>
      <trkpt lat="44.10089" lon="3.19485">
        <ele>794.7</ele>
        <time>2024-02-17T12:43:16Z</time>
      </trkpt>
      <trkpt lat="44.101" lon="3.19483">
        <ele>796</ele>
        <time>2024-02-17T12:43:21Z</time>
      </trkpt>
      <trkpt lat="44.10111" lon="3.19479">
        <ele>797.2</ele>
        <time>2024-02-17T12:43:25Z</time>
      </trkpt>
      <trkpt lat="44.10121" lon="3.19479">
        <ele>798.3</ele>
        <time>2024-02-17T12:43:29Z</time>
      </trkpt>
      <trkpt lat="44.10133" lon="3.1948">
        <ele>799.6</ele>
        <time>2024-02-17T12:43:33Z</time>
      </trkpt>
      <trkpt lat="44.10143" lon="3.19476">
        <ele>800.4</ele>
        <time>2024-02-17T12:43:37Z</time>
      </trkpt>
      <trkpt lat="44.10153" lon="3.19477">
        <ele>801.2</ele>
        <time>2024-02-17T12:43:41Z</time>
      </trkpt>
      <trkpt lat="44.10164" lon="3.1948">
        <ele>802.1</ele>
        <time>2024-02-17T12:43:46Z</time>
      </trkpt>
      <trkpt lat="44.10175" lon="3.19479">
        <ele>802.8</ele>
        <time>2024-02-17T12:43:51Z</time>
      </trkpt>
      <trkpt lat="44.10184" lon="3.19479">
        <ele>803.5</ele>
        <time>2024-02-17T12:43:55Z</time>
      </trkpt>
      <trkpt lat="44.10194" lon="3.1948">
        <ele>804.2</ele>
        <time>2024-02-17T12:44:00Z</time>
      </trkpt>
      <trkpt lat="44.10203" lon="3.19482">
        <ele>805.2</ele>
        <time>2024-02-17T12:44:05Z</time>
      </trkpt>
      <trkpt lat="44.10213" lon="3.1948">
        <ele>806.1</ele>
        <time>2024-02-17T12:44:11Z</time>
      </trkpt>
      <trkpt lat="44.10224" lon="3.19479">
        <ele>807.2</ele>
        <time>2024-02-17T12:44:16Z</time>
      </trkpt>
      <trkpt lat="44.10233" lon="3.19481">
        <ele>808.2</ele>
        <time>2024-02-17T12:44:21Z</time>
      </trkpt>
      <trkpt lat="44.10242" lon="3.19483">
        <ele>809.1</ele>
        <time>2024-02-17T12:44:26Z</time>
      </trkpt>
      <trkpt lat="44.10251" lon="3.1949">
        <ele>810.1</ele>
        <time>2024-02-17T12:44:32Z</time>
      </trkpt>
      <trkpt lat="44.1026" lon="3.19496">
        <ele>811.1</ele>
        <time>2024-02-17T12:44:38Z</time>
      </trkpt>
      <trkpt lat="44.10269" lon="3.195">
        <ele>812.1</ele>
        <time>2024-02-17T12:44:44Z</time>
      </trkpt>
      <trkpt lat="44.10278" lon="3.19503">
        <ele>813</ele>
        <time>2024-02-17T12:44:51Z</time>
      </trkpt>
      <trkpt lat="44.10288" lon="3.19499">
        <ele>814.5</ele>
        <time>2024-02-17T12:44:58Z</time>
      </trkpt>
      <trkpt lat="44.10298" lon="3.19495">
        <ele>815.9</ele>
        <time>2024-02-17T12:45:05Z</time>
      </trkpt>
      <trkpt lat="44.10307" lon="3.19494">
        <ele>817.2</ele>
        <time>2024-02-17T12:45:12Z</time>
      </trkpt>
      <trkpt lat="44.10317" lon="3.19493">
        <ele>818.6</ele>
        <time>2024-02-17T12:45:19Z</time>
      </trkpt>
      <trkpt lat="44.10326" lon="3.19491">
        <ele>819.9</ele>
        <time>2024-02-17T12:45:26Z</time>
      </trkpt>
      <trkpt lat="44.10336" lon="3.19488">
        <ele>821.4</ele>
        <time>2024-02-17T12:45:32Z</time>
      </trkpt>
      <trkpt lat="44.10346" lon="3.19486">
        <ele>822.8</ele>
        <time>2024-02-17T12:45:39Z</time>
      </trkpt>
      <trkpt lat="44.10355" lon="3.19483">
        <ele>824.1</ele>
        <time>2024-02-17T12:45:46Z</time>
      </trkpt>
      <trkpt lat="44.10365" lon="3.19481">
        <ele>825.5</ele>
        <time>2024-02-17T12:45:53Z</time>
      </trkpt>
      <trkpt lat="44.10374" lon="3.19484">
        <ele>826.7</ele>
        <time>2024-02-17T12:46:00Z</time>
      </trkpt>
      <trkpt lat="44.10384" lon="3.19485">
        <ele>827.9</ele>
        <time>2024-02-17T12:46:08Z</time>
      </trkpt>
      <trkpt lat="44.10394" lon="3.19485">
        <ele>829.1</ele>
        <time>2024-02-17T12:46:15Z</time>
      </trkpt>
      <trkpt lat="44.10404" lon="3.19485">
        <ele>830.2</ele>
        <time>2024-02-17T12:46:21Z</time>
      </trkpt>
      <trkpt lat="44.10415" lon="3.19484">
        <ele>831.4</ele>
        <time>2024-02-17T12:46:27Z</time>
      </trkpt>
      <trkpt lat="44.10424" lon="3.19482">
        <ele>832.4</ele>
        <time>2024-02-17T12:46:33Z</time>
      </trkpt>
      <trkpt lat="44.10433" lon="3.1948">
        <ele>833.5</ele>
        <time>2024-02-17T12:46:39Z</time>
      </trkpt>
      <trkpt lat="44.10442" lon="3.19478">
        <ele>834.5</ele>
        <time>2024-02-17T12:46:45Z</time>
      </trkpt>
      <trkpt lat="44.10452" lon="3.19478">
        <ele>835.3</ele>
        <time>2024-02-17T12:46:51Z</time>
      </trkpt>
      <trkpt lat="44.10461" lon="3.19477">
        <ele>836</ele>
        <time>2024-02-17T12:46:56Z</time>
      </trkpt>
      <trkpt lat="44.10471" lon="3.1948">
        <ele>836.6</ele>
        <time>2024-02-17T12:47:02Z</time>
      </trkpt>
      <trkpt lat="44.10479" lon="3.19474">
        <ele>837.4</ele>
        <time>2024-02-17T12:47:08Z</time>
      </trkpt>
      <trkpt lat="44.10487" lon="3.19467">
        <ele>838.1</ele>
        <time>2024-02-17T12:47:14Z</time>
      </trkpt>
      <trkpt lat="44.10497" lon="3.19462">
        <ele>838.8</ele>
        <time>2024-02-17T12:47:20Z</time>
      </trkpt>
      <trkpt lat="44.10506" lon="3.19458">
        <ele>839.2</ele>
        <time>2024-02-17T12:47:24Z</time>
      </trkpt>
      <trkpt lat="44.10516" lon="3.19456">
        <ele>839.6</ele>
        <time>2024-02-17T12:47:29Z</time>
      </trkpt>
      <trkpt lat="44.10525" lon="3.19454">
        <ele>839.9</ele>
        <time>2024-02-17T12:47:34Z</time>
      </trkpt>
      <trkpt lat="44.10534" lon="3.19453">
        <ele>839.9</ele>
        <time>2024-02-17T12:47:38Z</time>
      </trkpt>
      <trkpt lat="44.10545" lon="3.19454">
        <ele>839.8</ele>
        <time>2024-02-17T12:47:42Z</time>
      </trkpt>
      <trkpt lat="44.10555" lon="3.19453">
        <ele>839.7</ele>
        <time>2024-02-17T12:47:46Z</time>
      </trkpt>
      <trkpt lat="44.10565" lon="3.19451">
        <ele>839.4</ele>
        <time>2024-02-17T12:47:50Z</time>
      </trkpt>
      <trkpt lat="44.10576" lon="3.19449">
        <ele>839.1</ele>
        <time>2024-02-17T12:47:55Z</time>
      </trkpt>
      <trkpt lat="44.10585" lon="3.19444">
        <ele>839</ele>
        <time>2024-02-17T12:48:00Z</time>
      </trkpt>
      <trkpt lat="44.10594" lon="3.19438">
        <ele>838.8</ele>
        <time>2024-02-17T12:48:05Z</time>
      </trkpt>
      <trkpt lat="44.10602" lon="3.19431">
        <ele>838.8</ele>
        <time>2024-02-17T12:48:12Z</time>
      </trkpt>
      <trkpt lat="44.10612" lon="3.19424">
        <ele>838.7</ele>
        <time>2024-02-17T12:48:18Z</time>
      </trkpt>
      <trkpt lat="44.10623" lon="3.1942">
        <ele>838</ele>
        <time>2024-02-17T12:48:22Z</time>
      </trkpt>
      <trkpt lat="44.10635" lon="3.19416">
        <ele>837.3</ele>
        <time>2024-02-17T12:48:25Z</time>
      </trkpt>
      <trkpt lat="44.10643" lon="3.19412">
        <ele>836.6</ele>
        <time>2024-02-17T12:48:27Z</time>
      </trkpt>
      <trkpt lat="44.10654" lon="3.19405">
        <ele>835.2</ele>
        <time>2024-02-17T12:48:30Z</time>
      </trkpt>
      <trkpt lat="44.10662" lon="3.19399">
        <ele>834.3</ele>
        <time>2024-02-17T12:48:32Z</time>
      </trkpt>
      <trkpt lat="44.10676" lon="3.19393">
        <ele>833.1</ele>
        <time>2024-02-17T12:48:35Z</time>
      </trkpt>
      <trkpt lat="44.10687" lon="3.19386">
        <ele>832.6</ele>
        <time>2024-02-17T12:48:37Z</time>
      </trkpt>
      <trkpt lat="44.10697" lon="3.19375">
        <ele>832.3</ele>
        <time>2024-02-17T12:48:39Z</time>
      </trkpt>
      <trkpt lat="44.10705" lon="3.19367">
        <ele>832</ele>
        <time>2024-02-17T12:48:41Z</time>
      </trkpt>
      <trkpt lat="44.10712" lon="3.19358">
        <ele>831.8</ele>
        <time>2024-02-17T12:48:43Z</time>
      </trkpt>
      <trkpt lat="44.1072" lon="3.19348">
        <ele>831.6</ele>
        <time>2024-02-17T12:48:45Z</time>
      </trkpt>
      <trkpt lat="44.10728" lon="3.19338">
        <ele>831.5</ele>
        <time>2024-02-17T12:48:47Z</time>
      </trkpt>
      <trkpt lat="44.10735" lon="3.19328">
        <ele>831.2</ele>
        <time>2024-02-17T12:48:49Z</time>
      </trkpt>
      <trkpt lat="44.10743" lon="3.19317">
        <ele>830.9</ele>
        <time>2024-02-17T12:48:51Z</time>
      </trkpt>
      <trkpt lat="44.10751" lon="3.19307">
        <ele>830.9</ele>
        <time>2024-02-17T12:48:53Z</time>
      </trkpt>
      <trkpt lat="44.10758" lon="3.19296">
        <ele>830.7</ele>
        <time>2024-02-17T12:48:55Z</time>
      </trkpt>
      <trkpt lat="44.10767" lon="3.19285">
        <ele>830.4</ele>
        <time>2024-02-17T12:48:57Z</time>
      </trkpt>
      <trkpt lat="44.10778" lon="3.19272">
        <ele>829.8</ele>
        <time>2024-02-17T12:49:00Z</time>
      </trkpt>
      <trkpt lat="44.10787" lon="3.19263">
        <ele>829</ele>
        <time>2024-02-17T12:49:02Z</time>
      </trkpt>
      <trkpt lat="44.10795" lon="3.19256">
        <ele>828.5</ele>
        <time>2024-02-17T12:49:04Z</time>
      </trkpt>
      <trkpt lat="44.10805" lon="3.19254">
        <ele>828</ele>
        <time>2024-02-17T12:49:06Z</time>
      </trkpt>
      <trkpt lat="44.10815" lon="3.19258">
        <ele>827.4</ele>
        <time>2024-02-17T12:49:08Z</time>
      </trkpt>
      <trkpt lat="44.10826" lon="3.19265">
        <ele>826.9</ele>
        <time>2024-02-17T12:49:11Z</time>
      </trkpt>
      <trkpt lat="44.10838" lon="3.19266">
        <ele>826.1</ele>
        <time>2024-02-17T12:49:14Z</time>
      </trkpt>
      <trkpt lat="44.10844" lon="3.19256">
        <ele>825.4</ele>
        <time>2024-02-17T12:49:18Z</time>
      </trkpt>
      <trkpt lat="44.10852" lon="3.19247">
        <ele>824.7</ele>
        <time>2024-02-17T12:49:22Z</time>
      </trkpt>
      <trkpt lat="44.10863" lon="3.19241">
        <ele>823.9</ele>
        <time>2024-02-17T12:49:25Z</time>
      </trkpt>
      <trkpt lat="44.10876" lon="3.19235">
        <ele>822.9</ele>
        <time>2024-02-17T12:49:28Z</time>
      </trkpt>
      <trkpt lat="44.10886" lon="3.19228">
        <ele>822.2</ele>
        <time>2024-02-17T12:49:30Z</time>
      </trkpt>
      <trkpt lat="44.10895" lon="3.19218">
        <ele>821.6</ele>
        <time>2024-02-17T12:49:32Z</time>
      </trkpt>
      <trkpt lat="44.10904" lon="3.19208">
        <ele>820.9</ele>
        <time>2024-02-17T12:49:34Z</time>
      </trkpt>
      <trkpt lat="44.10912" lon="3.19196">
        <ele>820.3</ele>
        <time>2024-02-17T12:49:36Z</time>
      </trkpt>
      <trkpt lat="44.10921" lon="3.19185">
        <ele>819.8</ele>
        <time>2024-02-17T12:49:39Z</time>
      </trkpt>
      <trkpt lat="44.10931" lon="3.1918">
        <ele>819.5</ele>
        <time>2024-02-17T12:49:43Z</time>
      </trkpt>
      <trkpt lat="44.1094" lon="3.19182">
        <ele>819.2</ele>
        <time>2024-02-17T12:49:49Z</time>
      </trkpt>
      <trkpt lat="44.10946" lon="3.19192">
        <ele>818.9</ele>
        <time>2024-02-17T12:51:13Z</time>
      </trkpt>
      <trkpt lat="44.10946" lon="3.19207">
        <ele>818</ele>
        <time>2024-02-17T12:51:17Z</time>
      </trkpt>
      <trkpt lat="44.10947" lon="3.19225">
        <ele>816.8</ele>
        <time>2024-02-17T12:51:20Z</time>
      </trkpt>
      <trkpt lat="44.10947" lon="3.19238">
        <ele>816.3</ele>
        <time>2024-02-17T12:51:22Z</time>
      </trkpt>
      <trkpt lat="44.10946" lon="3.19256">
        <ele>815.9</ele>
        <time>2024-02-17T12:51:25Z</time>
      </trkpt>
      <trkpt lat="44.10946" lon="3.19273">
        <ele>815.9</ele>
        <time>2024-02-17T12:51:28Z</time>
      </trkpt>
      <trkpt lat="44.10945" lon="3.19289">
        <ele>815.1</ele>
        <time>2024-02-17T12:51:32Z</time>
      </trkpt>
      <trkpt lat="44.10944" lon="3.19306">
        <ele>814</ele>
        <time>2024-02-17T12:51:36Z</time>
      </trkpt>
      <trkpt lat="44.10943" lon="3.19321">
        <ele>813.7</ele>
        <time>2024-02-17T12:51:39Z</time>
      </trkpt>
      <trkpt lat="44.1094" lon="3.19336">
        <ele>813.5</ele>
        <time>2024-02-17T12:51:42Z</time>
      </trkpt>
      <trkpt lat="44.10941" lon="3.19352">
        <ele>812.2</ele>
        <time>2024-02-17T12:51:44Z</time>
      </trkpt>
      <trkpt lat="44.1094" lon="3.19365">
        <ele>811.5</ele>
        <time>2024-02-17T12:51:46Z</time>
      </trkpt>
      <trkpt lat="44.10935" lon="3.19382">
        <ele>810.9</ele>
        <time>2024-02-17T12:51:49Z</time>
      </trkpt>
      <trkpt lat="44.10927" lon="3.19395">
        <ele>810.9</ele>
        <time>2024-02-17T12:51:52Z</time>
      </trkpt>
      <trkpt lat="44.10919" lon="3.19408">
        <ele>810.7</ele>
        <time>2024-02-17T12:51:55Z</time>
      </trkpt>
      <trkpt lat="44.10911" lon="3.1942">
        <ele>810.5</ele>
        <time>2024-02-17T12:51:58Z</time>
      </trkpt>
      <trkpt lat="44.10902" lon="3.19434">
        <ele>810.2</ele>
        <time>2024-02-17T12:52:01Z</time>
      </trkpt>
      <trkpt lat="44.10894" lon="3.19448">
        <ele>809.8</ele>
        <time>2024-02-17T12:52:04Z</time>
      </trkpt>
      <trkpt lat="44.10885" lon="3.1946">
        <ele>809.2</ele>
        <time>2024-02-17T12:52:07Z</time>
      </trkpt>
      <trkpt lat="44.10874" lon="3.19468">
        <ele>809.2</ele>
        <time>2024-02-17T12:52:10Z</time>
      </trkpt>
      <trkpt lat="44.10863" lon="3.19478">
        <ele>809</ele>
        <time>2024-02-17T12:52:13Z</time>
      </trkpt>
      <trkpt lat="44.10855" lon="3.19489">
        <ele>808.1</ele>
        <time>2024-02-17T12:52:15Z</time>
      </trkpt>
      <trkpt lat="44.10846" lon="3.19498">
        <ele>807.4</ele>
        <time>2024-02-17T12:52:17Z</time>
      </trkpt>
      <trkpt lat="44.10839" lon="3.19508">
        <ele>806.2</ele>
        <time>2024-02-17T12:52:19Z</time>
      </trkpt>
      <trkpt lat="44.10832" lon="3.19517">
        <ele>805.1</ele>
        <time>2024-02-17T12:52:21Z</time>
      </trkpt>
      <trkpt lat="44.10825" lon="3.19525">
        <ele>804.4</ele>
        <time>2024-02-17T12:52:23Z</time>
      </trkpt>
      <trkpt lat="44.10817" lon="3.19532">
        <ele>804</ele>
        <time>2024-02-17T12:52:25Z</time>
      </trkpt>
      <trkpt lat="44.10807" lon="3.19543">
        <ele>803.1</ele>
        <time>2024-02-17T12:52:28Z</time>
      </trkpt>
      <trkpt lat="44.10798" lon="3.19553">
        <ele>802.5</ele>
        <time>2024-02-17T12:52:31Z</time>
      </trkpt>
      <trkpt lat="44.10789" lon="3.19566">
        <ele>801.6</ele>
        <time>2024-02-17T12:52:34Z</time>
      </trkpt>
      <trkpt lat="44.1078" lon="3.19578">
        <ele>801.3</ele>
        <time>2024-02-17T12:52:37Z</time>
      </trkpt>
      <trkpt lat="44.10771" lon="3.19587">
        <ele>801.6</ele>
        <time>2024-02-17T12:52:40Z</time>
      </trkpt>
      <trkpt lat="44.10763" lon="3.196">
        <ele>801</ele>
        <time>2024-02-17T12:52:43Z</time>
      </trkpt>
      <trkpt lat="44.10756" lon="3.19613">
        <ele>800.4</ele>
        <time>2024-02-17T12:52:46Z</time>
      </trkpt>
      <trkpt lat="44.10746" lon="3.19624">
        <ele>800.9</ele>
        <time>2024-02-17T12:52:49Z</time>
      </trkpt>
      <trkpt lat="44.10738" lon="3.19636">
        <ele>800.6</ele>
        <time>2024-02-17T12:52:52Z</time>
      </trkpt>
      <trkpt lat="44.10733" lon="3.19649">
        <ele>799.5</ele>
        <time>2024-02-17T12:52:54Z</time>
      </trkpt>
      <trkpt lat="44.10727" lon="3.19662">
        <ele>798.7</ele>
        <time>2024-02-17T12:52:56Z</time>
      </trkpt>
      <trkpt lat="44.10722" lon="3.19677">
        <ele>797.6</ele>
        <time>2024-02-17T12:52:58Z</time>
      </trkpt>
      <trkpt lat="44.10715" lon="3.19693">
        <ele>796.5</ele>
        <time>2024-02-17T12:53:00Z</time>
      </trkpt>
      <trkpt lat="44.10707" lon="3.1971">
        <ele>794.9</ele>
        <time>2024-02-17T12:53:02Z</time>
      </trkpt>
      <trkpt lat="44.10697" lon="3.19726">
        <ele>793.8</ele>
        <time>2024-02-17T12:53:04Z</time>
      </trkpt>
      <trkpt lat="44.10686" lon="3.1974">
        <ele>793</ele>
        <time>2024-02-17T12:53:06Z</time>
      </trkpt>
      <trkpt lat="44.10676" lon="3.19754">
        <ele>791.6</ele>
        <time>2024-02-17T12:53:08Z</time>
      </trkpt>
      <trkpt lat="44.10663" lon="3.19769">
        <ele>789.6</ele>
        <time>2024-02-17T12:53:10Z</time>
      </trkpt>
      <trkpt lat="44.10649" lon="3.19782">
        <ele>787.8</ele>
        <time>2024-02-17T12:53:12Z</time>
      </trkpt>
      <trkpt lat="44.10638" lon="3.19798">
        <ele>785</ele>
        <time>2024-02-17T12:53:14Z</time>
      </trkpt>
      <trkpt lat="44.1063" lon="3.1982">
        <ele>780</ele>
        <time>2024-02-17T12:53:16Z</time>
      </trkpt>
      <trkpt lat="44.10626" lon="3.19832">
        <ele>777.2</ele>
        <time>2024-02-17T12:53:17Z</time>
      </trkpt>
      <trkpt lat="44.1062" lon="3.19843">
        <ele>775.2</ele>
        <time>2024-02-17T12:53:18Z</time>
      </trkpt>
      <trkpt lat="44.10614" lon="3.19853">
        <ele>773.6</ele>
        <time>2024-02-17T12:53:19Z</time>
      </trkpt>
      <trkpt lat="44.10608" lon="3.19863">
        <ele>772.2</ele>
        <time>2024-02-17T12:53:20Z</time>
      </trkpt>
      <trkpt lat="44.10597" lon="3.19882">
        <ele>770.2</ele>
        <time>2024-02-17T12:53:22Z</time>
      </trkpt>
      <trkpt lat="44.10589" lon="3.19905">
        <ele>767</ele>
        <time>2024-02-17T12:53:24Z</time>
      </trkpt>
      <trkpt lat="44.10582" lon="3.19925">
        <ele>764.8</ele>
        <time>2024-02-17T12:53:26Z</time>
      </trkpt>
      <trkpt lat="44.10575" lon="3.19945">
        <ele>762.7</ele>
        <time>2024-02-17T12:53:28Z</time>
      </trkpt>
      <trkpt lat="44.10568" lon="3.19957">
        <ele>761.8</ele>
        <time>2024-02-17T12:53:30Z</time>
      </trkpt>
      <trkpt lat="44.10562" lon="3.19966">
        <ele>761.5</ele>
        <time>2024-02-17T12:53:33Z</time>
      </trkpt>
      <trkpt lat="44.1057" lon="3.19974">
        <ele>758</ele>
        <time>2024-02-17T12:53:37Z</time>
      </trkpt>
      <trkpt lat="44.1057" lon="3.19991">
        <ele>754.7</ele>
        <time>2024-02-17T12:53:41Z</time>
      </trkpt>
      <trkpt lat="44.10566" lon="3.20004">
        <ele>753.2</ele>
        <time>2024-02-17T12:53:43Z</time>
      </trkpt>
      <trkpt lat="44.1056" lon="3.2002">
        <ele>752.3</ele>
        <time>2024-02-17T12:53:45Z</time>
      </trkpt>
      <trkpt lat="44.10556" lon="3.20034">
        <ele>751.3</ele>
        <time>2024-02-17T12:53:47Z</time>
      </trkpt>
      <trkpt lat="44.10558" lon="3.20048">
        <ele>749.4</ele>
        <time>2024-02-17T12:53:50Z</time>
      </trkpt>
      <trkpt lat="44.10555" lon="3.20062">
        <ele>748.3</ele>
        <time>2024-02-17T12:53:52Z</time>
      </trkpt>
      <trkpt lat="44.1055" lon="3.20077">
        <ele>747.1</ele>
        <time>2024-02-17T12:53:54Z</time>
      </trkpt>
      <trkpt lat="44.10544" lon="3.20096">
        <ele>745.5</ele>
        <time>2024-02-17T12:53:56Z</time>
      </trkpt>
      <trkpt lat="44.10539" lon="3.20117">
        <ele>743.4</ele>
        <time>2024-02-17T12:53:58Z</time>
      </trkpt>
      <trkpt lat="44.10538" lon="3.2013">
        <ele>742</ele>
        <time>2024-02-17T12:53:59Z</time>
      </trkpt>
      <trkpt lat="44.10538" lon="3.20143">
        <ele>740.6</ele>
        <time>2024-02-17T12:54:00Z</time>
      </trkpt>
      <trkpt lat="44.10533" lon="3.20168">
        <ele>738.1</ele>
        <time>2024-02-17T12:54:02Z</time>
      </trkpt>
      <trkpt lat="44.10529" lon="3.2018">
        <ele>737.1</ele>
        <time>2024-02-17T12:54:03Z</time>
      </trkpt>
      <trkpt lat="44.10524" lon="3.20198">
        <ele>735.6</ele>
        <time>2024-02-17T12:54:05Z</time>
      </trkpt>
      <trkpt lat="44.10526" lon="3.20213">
        <ele>734.6</ele>
        <time>2024-02-17T12:54:08Z</time>
      </trkpt>
      <trkpt lat="44.10534" lon="3.2022">
        <ele>734.2</ele>
        <time>2024-02-17T12:54:12Z</time>
      </trkpt>
      <trkpt lat="44.10542" lon="3.20223">
        <ele>733.9</ele>
        <time>2024-02-17T12:54:19Z</time>
      </trkpt>
      <trkpt lat="44.10551" lon="3.20219">
        <ele>734.2</ele>
        <time>2024-02-17T12:54:26Z</time>
      </trkpt>
      <trkpt lat="44.1056" lon="3.20217">
        <ele>734.2</ele>
        <time>2024-02-17T12:54:32Z</time>
      </trkpt>
      <trkpt lat="44.10569" lon="3.20212">
        <ele>734.1</ele>
        <time>2024-02-17T12:54:37Z</time>
      </trkpt>
      <trkpt lat="44.1058" lon="3.20208">
        <ele>733.7</ele>
        <time>2024-02-17T12:54:42Z</time>
      </trkpt>
      <trkpt lat="44.10588" lon="3.20202">
        <ele>733.2</ele>
        <time>2024-02-17T12:54:46Z</time>
      </trkpt>
      <trkpt lat="44.10599" lon="3.20202">
        <ele>732</ele>
        <time>2024-02-17T12:54:50Z</time>
      </trkpt>
      <trkpt lat="44.10611" lon="3.20195">
        <ele>731</ele>
        <time>2024-02-17T12:54:53Z</time>
      </trkpt>
      <trkpt lat="44.10617" lon="3.20182">
        <ele>730.5</ele>
        <time>2024-02-17T12:54:55Z</time>
      </trkpt>
      <trkpt lat="44.10622" lon="3.20169">
        <ele>730</ele>
        <time>2024-02-17T12:54:57Z</time>
      </trkpt>
      <trkpt lat="44.10626" lon="3.20158">
        <ele>729.4</ele>
        <time>2024-02-17T12:54:59Z</time>
      </trkpt>
      <trkpt lat="44.10631" lon="3.20146">
        <ele>728.3</ele>
        <time>2024-02-17T12:55:01Z</time>
      </trkpt>
      <trkpt lat="44.10641" lon="3.20129">
        <ele>725.8</ele>
        <time>2024-02-17T12:55:03Z</time>
      </trkpt>
      <trkpt lat="44.10646" lon="3.20108">
        <ele>725.1</ele>
        <time>2024-02-17T12:55:05Z</time>
      </trkpt>
      <trkpt lat="44.10648" lon="3.20091">
        <ele>725.1</ele>
        <time>2024-02-17T12:55:07Z</time>
      </trkpt>
      <trkpt lat="44.10651" lon="3.20076">
        <ele>725.2</ele>
        <time>2024-02-17T12:55:09Z</time>
      </trkpt>
      <trkpt lat="44.10654" lon="3.20062">
        <ele>725.6</ele>
        <time>2024-02-17T12:55:11Z</time>
      </trkpt>
      <trkpt lat="44.1066" lon="3.20049">
        <ele>725.6</ele>
        <time>2024-02-17T12:55:13Z</time>
      </trkpt>
      <trkpt lat="44.10666" lon="3.20034">
        <ele>726.3</ele>
        <time>2024-02-17T12:55:15Z</time>
      </trkpt>
      <trkpt lat="44.10674" lon="3.20018">
        <ele>728.8</ele>
        <time>2024-02-17T12:55:17Z</time>
      </trkpt>
      <trkpt lat="44.10682" lon="3.20009">
        <ele>730.5</ele>
        <time>2024-02-17T12:55:19Z</time>
      </trkpt>
      <trkpt lat="44.10694" lon="3.20015">
        <ele>728.8</ele>
        <time>2024-02-17T12:55:22Z</time>
      </trkpt>
      <trkpt lat="44.10708" lon="3.20028">
        <ele>725.5</ele>
        <time>2024-02-17T12:55:25Z</time>
      </trkpt>
      <trkpt lat="44.1072" lon="3.20034">
        <ele>723.7</ele>
        <time>2024-02-17T12:55:27Z</time>
      </trkpt>
      <trkpt lat="44.10732" lon="3.20035">
        <ele>722.7</ele>
        <time>2024-02-17T12:55:29Z</time>
      </trkpt>
      <trkpt lat="44.10742" lon="3.2003">
        <ele>723.1</ele>
        <time>2024-02-17T12:55:31Z</time>
      </trkpt>
      <trkpt lat="44.10754" lon="3.20025">
        <ele>722.9</ele>
        <time>2024-02-17T12:55:33Z</time>
      </trkpt>
      <trkpt lat="44.10767" lon="3.20017">
        <ele>722.3</ele>
        <time>2024-02-17T12:55:35Z</time>
      </trkpt>
      <trkpt lat="44.10777" lon="3.20009">
        <ele>721.8</ele>
        <time>2024-02-17T12:55:37Z</time>
      </trkpt>
      <trkpt lat="44.10789" lon="3.19999">
        <ele>721.5</ele>
        <time>2024-02-17T12:55:39Z</time>
      </trkpt>
      <trkpt lat="44.10801" lon="3.19991">
        <ele>721</ele>
        <time>2024-02-17T12:55:41Z</time>
      </trkpt>
      <trkpt lat="44.10813" lon="3.19985">
        <ele>719.8</ele>
        <time>2024-02-17T12:55:43Z</time>
      </trkpt>
      <trkpt lat="44.10828" lon="3.19978">
        <ele>718.1</ele>
        <time>2024-02-17T12:55:45Z</time>
      </trkpt>
      <trkpt lat="44.1084" lon="3.19971">
        <ele>717.5</ele>
        <time>2024-02-17T12:55:47Z</time>
      </trkpt>
      <trkpt lat="44.10852" lon="3.19965">
        <ele>717.1</ele>
        <time>2024-02-17T12:55:49Z</time>
      </trkpt>
      <trkpt lat="44.10862" lon="3.19957">
        <ele>717</ele>
        <time>2024-02-17T12:55:51Z</time>
      </trkpt>
      <trkpt lat="44.10872" lon="3.19944">
        <ele>716.7</ele>
        <time>2024-02-17T12:55:53Z</time>
      </trkpt>
      <trkpt lat="44.10882" lon="3.19932">
        <ele>715.8</ele>
        <time>2024-02-17T12:55:55Z</time>
      </trkpt>
      <trkpt lat="44.10896" lon="3.19924">
        <ele>713.7</ele>
        <time>2024-02-17T12:55:57Z</time>
      </trkpt>
      <trkpt lat="44.10907" lon="3.19907">
        <ele>712.5</ele>
        <time>2024-02-17T12:55:59Z</time>
      </trkpt>
      <trkpt lat="44.10911" lon="3.19886">
        <ele>711.7</ele>
        <time>2024-02-17T12:56:01Z</time>
      </trkpt>
      <trkpt lat="44.10914" lon="3.19865">
        <ele>709.4</ele>
        <time>2024-02-17T12:56:03Z</time>
      </trkpt>
      <trkpt lat="44.10925" lon="3.19856">
        <ele>706.9</ele>
        <time>2024-02-17T12:56:05Z</time>
      </trkpt>
      <trkpt lat="44.10939" lon="3.19851">
        <ele>704.9</ele>
        <time>2024-02-17T12:56:07Z</time>
      </trkpt>
      <trkpt lat="44.10949" lon="3.19853">
        <ele>704</ele>
        <time>2024-02-17T12:56:09Z</time>
      </trkpt>
      <trkpt lat="44.10958" lon="3.19861">
        <ele>703.5</ele>
        <time>2024-02-17T12:56:12Z</time>
      </trkpt>
      <trkpt lat="44.10972" lon="3.19869">
        <ele>703.3</ele>
        <time>2024-02-17T12:56:15Z</time>
      </trkpt>
      <trkpt lat="44.10981" lon="3.19876">
        <ele>703.4</ele>
        <time>2024-02-17T12:56:17Z</time>
      </trkpt>
      <trkpt lat="44.1099" lon="3.19888">
        <ele>702.4</ele>
        <time>2024-02-17T12:56:19Z</time>
      </trkpt>
      <trkpt lat="44.11003" lon="3.19889">
        <ele>704.2</ele>
        <time>2024-02-17T12:56:21Z</time>
      </trkpt>
      <trkpt lat="44.11015" lon="3.19889">
        <ele>705.1</ele>
        <time>2024-02-17T12:56:23Z</time>
      </trkpt>
      <trkpt lat="44.11026" lon="3.19891">
        <ele>705.6</ele>
        <time>2024-02-17T12:56:26Z</time>
      </trkpt>
      <trkpt lat="44.11036" lon="3.19894">
        <ele>706.1</ele>
        <time>2024-02-17T12:56:30Z</time>
      </trkpt>
      <trkpt lat="44.11047" lon="3.19895">
        <ele>707</ele>
        <time>2024-02-17T12:56:36Z</time>
      </trkpt>
      <trkpt lat="44.11058" lon="3.19897">
        <ele>707.6</ele>
        <time>2024-02-17T12:56:41Z</time>
      </trkpt>
      <trkpt lat="44.11068" lon="3.19901">
        <ele>707.3</ele>
        <time>2024-02-17T12:56:45Z</time>
      </trkpt>
      <trkpt lat="44.11079" lon="3.19898">
        <ele>708.2</ele>
        <time>2024-02-17T12:56:49Z</time>
      </trkpt>
      <trkpt lat="44.11088" lon="3.19901">
        <ele>707.6</ele>
        <time>2024-02-17T12:56:52Z</time>
      </trkpt>
      <trkpt lat="44.111" lon="3.19897">
        <ele>707.7</ele>
        <time>2024-02-17T12:56:56Z</time>
      </trkpt>
      <trkpt lat="44.1111" lon="3.19894">
        <ele>707.5</ele>
        <time>2024-02-17T12:56:59Z</time>
      </trkpt>
      <trkpt lat="44.1112" lon="3.19891">
        <ele>708.1</ele>
        <time>2024-02-17T12:57:04Z</time>
      </trkpt>
      <trkpt lat="44.11131" lon="3.19892">
        <ele>708.3</ele>
        <time>2024-02-17T12:57:08Z</time>
      </trkpt>
      <trkpt lat="44.1114" lon="3.19892">
        <ele>708.5</ele>
        <time>2024-02-17T12:57:11Z</time>
      </trkpt>
      <trkpt lat="44.11152" lon="3.19888">
        <ele>708.6</ele>
        <time>2024-02-17T12:57:15Z</time>
      </trkpt>
      <trkpt lat="44.11161" lon="3.19884">
        <ele>708.9</ele>
        <time>2024-02-17T12:57:20Z</time>
      </trkpt>
      <trkpt lat="44.11171" lon="3.19882">
        <ele>708.2</ele>
        <time>2024-02-17T12:57:24Z</time>
      </trkpt>
      <trkpt lat="44.1118" lon="3.19879">
        <ele>707.4</ele>
        <time>2024-02-17T12:57:27Z</time>
      </trkpt>
      <trkpt lat="44.11191" lon="3.1988">
        <ele>705.4</ele>
        <time>2024-02-17T12:57:30Z</time>
      </trkpt>
      <trkpt lat="44.11203" lon="3.19885">
        <ele>705.5</ele>
        <time>2024-02-17T12:57:33Z</time>
      </trkpt>
      <trkpt lat="44.11214" lon="3.19884">
        <ele>708.5</ele>
        <time>2024-02-17T12:57:36Z</time>
      </trkpt>
      <trkpt lat="44.11224" lon="3.19882">
        <ele>711</ele>
        <time>2024-02-17T12:57:40Z</time>
      </trkpt>
      <trkpt lat="44.11233" lon="3.1988">
        <ele>712.5</ele>
        <time>2024-02-17T12:57:45Z</time>
      </trkpt>
      <trkpt lat="44.11244" lon="3.1988">
        <ele>714.1</ele>
        <time>2024-02-17T12:57:51Z</time>
      </trkpt>
      <trkpt lat="44.11254" lon="3.1988">
        <ele>715.5</ele>
        <time>2024-02-17T12:57:56Z</time>
      </trkpt>
      <trkpt lat="44.11263" lon="3.19882">
        <ele>716.5</ele>
        <time>2024-02-17T12:58:01Z</time>
      </trkpt>
      <trkpt lat="44.11272" lon="3.19883">
        <ele>717.6</ele>
        <time>2024-02-17T12:58:06Z</time>
      </trkpt>
      <trkpt lat="44.11282" lon="3.1988">
        <ele>719</ele>
        <time>2024-02-17T12:58:12Z</time>
      </trkpt>
      <trkpt lat="44.11288" lon="3.1987">
        <ele>720.2</ele>
        <time>2024-02-17T12:58:20Z</time>
      </trkpt>
      <trkpt lat="44.11295" lon="3.19861">
        <ele>721.2</ele>
        <time>2024-02-17T12:58:27Z</time>
      </trkpt>
      <trkpt lat="44.11305" lon="3.19857">
        <ele>722.3</ele>
        <time>2024-02-17T12:58:35Z</time>
      </trkpt>
      <trkpt lat="44.11315" lon="3.19855">
        <ele>723.1</ele>
        <time>2024-02-17T12:58:43Z</time>
      </trkpt>
      <trkpt lat="44.11324" lon="3.19854">
        <ele>723.8</ele>
        <time>2024-02-17T12:58:50Z</time>
      </trkpt>
      <trkpt lat="44.11334" lon="3.1986">
        <ele>724.1</ele>
        <time>2024-02-17T12:59:39Z</time>
      </trkpt>
      <trkpt lat="44.11343" lon="3.19868">
        <ele>724.4</ele>
        <time>2024-02-17T12:59:44Z</time>
      </trkpt>
      <trkpt lat="44.11353" lon="3.19875">
        <ele>724.6</ele>
        <time>2024-02-17T12:59:49Z</time>
      </trkpt>
      <trkpt lat="44.11361" lon="3.1988">
        <ele>724.6</ele>
        <time>2024-02-17T12:59:54Z</time>
      </trkpt>
      <trkpt lat="44.11369" lon="3.19886">
        <ele>724.7</ele>
        <time>2024-02-17T13:00:01Z</time>
      </trkpt>
      <trkpt lat="44.11378" lon="3.19892">
        <ele>725.2</ele>
        <time>2024-02-17T13:00:06Z</time>
      </trkpt>
      <trkpt lat="44.11388" lon="3.19897">
        <ele>725.9</ele>
        <time>2024-02-17T13:00:12Z</time>
      </trkpt>
      <trkpt lat="44.11396" lon="3.19906">
        <ele>726.1</ele>
        <time>2024-02-17T13:00:19Z</time>
      </trkpt>
      <trkpt lat="44.11402" lon="3.19916">
        <ele>726</ele>
        <time>2024-02-17T13:00:25Z</time>
      </trkpt>
      <trkpt lat="44.1141" lon="3.19923">
        <ele>725.9</ele>
        <time>2024-02-17T13:01:22Z</time>
      </trkpt>
      <trkpt lat="44.1142" lon="3.19927">
        <ele>726</ele>
        <time>2024-02-17T13:01:29Z</time>
      </trkpt>
      <trkpt lat="44.1143" lon="3.19926">
        <ele>725.8</ele>
        <time>2024-02-17T13:01:34Z</time>
      </trkpt>
      <trkpt lat="44.11439" lon="3.19926">
        <ele>725.7</ele>
        <time>2024-02-17T13:01:39Z</time>
      </trkpt>
      <trkpt lat="44.1145" lon="3.19925">
        <ele>725.3</ele>
        <time>2024-02-17T13:01:43Z</time>
      </trkpt>
      <trkpt lat="44.11461" lon="3.1992">
        <ele>724.7</ele>
        <time>2024-02-17T13:01:47Z</time>
      </trkpt>
      <trkpt lat="44.11469" lon="3.19913">
        <ele>724.4</ele>
        <time>2024-02-17T13:01:51Z</time>
      </trkpt>
      <trkpt lat="44.1148" lon="3.1991">
        <ele>723.4</ele>
        <time>2024-02-17T13:01:56Z</time>
      </trkpt>
      <trkpt lat="44.1149" lon="3.1991">
        <ele>722.3</ele>
        <time>2024-02-17T13:01:59Z</time>
      </trkpt>
      <trkpt lat="44.115" lon="3.1991">
        <ele>721.2</ele>
        <time>2024-02-17T13:02:02Z</time>
      </trkpt>
      <trkpt lat="44.11509" lon="3.1991">
        <ele>720.5</ele>
        <time>2024-02-17T13:02:06Z</time>
      </trkpt>
      <trkpt lat="44.11519" lon="3.19909">
        <ele>719.7</ele>
        <time>2024-02-17T13:02:10Z</time>
      </trkpt>
      <trkpt lat="44.11528" lon="3.19908">
        <ele>719</ele>
        <time>2024-02-17T13:02:13Z</time>
      </trkpt>
      <trkpt lat="44.11537" lon="3.19901">
        <ele>717.9</ele>
        <time>2024-02-17T13:02:18Z</time>
      </trkpt>
      <trkpt lat="44.11546" lon="3.19896">
        <ele>716.9</ele>
        <time>2024-02-17T13:02:23Z</time>
      </trkpt>
      <trkpt lat="44.11556" lon="3.19892">
        <ele>715.8</ele>
        <time>2024-02-17T13:02:26Z</time>
      </trkpt>
      <trkpt lat="44.11567" lon="3.19889">
        <ele>714.3</ele>
        <time>2024-02-17T13:02:28Z</time>
      </trkpt>
      <trkpt lat="44.11575" lon="3.19883">
        <ele>713.1</ele>
        <time>2024-02-17T13:02:32Z</time>
      </trkpt>
      <trkpt lat="44.11581" lon="3.19871">
        <ele>712.3</ele>
        <time>2024-02-17T13:02:35Z</time>
      </trkpt>
      <trkpt lat="44.11587" lon="3.19859">
        <ele>711.3</ele>
        <time>2024-02-17T13:02:39Z</time>
      </trkpt>
      <trkpt lat="44.11591" lon="3.19847">
        <ele>710</ele>
        <time>2024-02-17T13:02:44Z</time>
      </trkpt>
      <trkpt lat="44.11597" lon="3.19837">
        <ele>708.7</ele>
        <time>2024-02-17T13:02:50Z</time>
      </trkpt>
      <trkpt lat="44.11598" lon="3.19824">
        <ele>706.9</ele>
        <time>2024-02-17T13:03:01Z</time>
      </trkpt>
      <trkpt lat="44.11599" lon="3.19811">
        <ele>704.5</ele>
        <time>2024-02-17T13:03:10Z</time>
      </trkpt>
      <trkpt lat="44.11594" lon="3.198">
        <ele>704.8</ele>
        <time>2024-02-17T13:03:16Z</time>
      </trkpt>
      <trkpt lat="44.11596" lon="3.19786">
        <ele>704.6</ele>
        <time>2024-02-17T13:03:25Z</time>
      </trkpt>
      <trkpt lat="44.11596" lon="3.19785">
        <ele>704.7</ele>
        <time>2024-02-17T13:08:36Z</time>
      </trkpt>
      <trkpt lat="44.11597" lon="3.19798">
        <ele>704.2</ele>
        <time>2024-02-17T13:08:52Z</time>
      </trkpt>
      <trkpt lat="44.11603" lon="3.1981">
        <ele>703.6</ele>
        <time>2024-02-17T13:09:00Z</time>
      </trkpt>
      <trkpt lat="44.11607" lon="3.19821">
        <ele>705</ele>
        <time>2024-02-17T13:09:06Z</time>
      </trkpt>
      <trkpt lat="44.11617" lon="3.19825">
        <ele>704.2</ele>
        <time>2024-02-17T13:09:11Z</time>
      </trkpt>
      <trkpt lat="44.11626" lon="3.19828">
        <ele>703</ele>
        <time>2024-02-17T13:09:16Z</time>
      </trkpt>
      <trkpt lat="44.11635" lon="3.19821">
        <ele>700.7</ele>
        <time>2024-02-17T13:09:22Z</time>
      </trkpt>
      <trkpt lat="44.11644" lon="3.19822">
        <ele>697.9</ele>
        <time>2024-02-17T13:09:48Z</time>
      </trkpt>
      <trkpt lat="44.11635" lon="3.1982">
        <ele>700.6</ele>
        <time>2024-02-17T13:10:56Z</time>
      </trkpt>
      <trkpt lat="44.11627" lon="3.19812">
        <ele>700.7</ele>
        <time>2024-02-17T13:11:07Z</time>
      </trkpt>
      <trkpt lat="44.1165" lon="3.19792">
        <ele>691.7</ele>
        <time>2024-02-17T13:11:55Z</time>
      </trkpt>
      <trkpt lat="44.11656" lon="3.1978">
        <ele>688.2</ele>
        <time>2024-02-17T13:12:11Z</time>
      </trkpt>
      <trkpt lat="44.11666" lon="3.19775">
        <ele>687.7</ele>
        <time>2024-02-17T13:12:17Z</time>
      </trkpt>
      <trkpt lat="44.11674" lon="3.19782">
        <ele>688</ele>
        <time>2024-02-17T13:12:34Z</time>
      </trkpt>
      <trkpt lat="44.1168" lon="3.19793">
        <ele>688.7</ele>
        <time>2024-02-17T13:12:45Z</time>
      </trkpt>
      <trkpt lat="44.11688" lon="3.19801">
        <ele>689</ele>
        <time>2024-02-17T13:12:53Z</time>
      </trkpt>
      <trkpt lat="44.11694" lon="3.19813">
        <ele>687.1</ele>
        <time>2024-02-17T13:13:02Z</time>
      </trkpt>
      <trkpt lat="44.11696" lon="3.19826">
        <ele>683.9</ele>
        <time>2024-02-17T13:13:14Z</time>
      </trkpt>
      <trkpt lat="44.11689" lon="3.19834">
        <ele>682.8</ele>
        <time>2024-02-17T13:13:30Z</time>
      </trkpt>
      <trkpt lat="44.11686" lon="3.19847">
        <ele>680.7</ele>
        <time>2024-02-17T13:13:47Z</time>
      </trkpt>
      <trkpt lat="44.11694" lon="3.19854">
        <ele>676.9</ele>
        <time>2024-02-17T13:13:55Z</time>
      </trkpt>
      <trkpt lat="44.11704" lon="3.19858">
        <ele>676.5</ele>
        <time>2024-02-17T13:14:03Z</time>
      </trkpt>
      <trkpt lat="44.11711" lon="3.19866">
        <ele>675.2</ele>
        <time>2024-02-17T13:14:18Z</time>
      </trkpt>
      <trkpt lat="44.11721" lon="3.19871">
        <ele>673.8</ele>
        <time>2024-02-17T13:14:27Z</time>
      </trkpt>
      <trkpt lat="44.11729" lon="3.19878">
        <ele>671</ele>
        <time>2024-02-17T13:14:36Z</time>
      </trkpt>
      <trkpt lat="44.11738" lon="3.19885">
        <ele>668.8</ele>
        <time>2024-02-17T13:14:46Z</time>
      </trkpt>
      <trkpt lat="44.11748" lon="3.19889">
        <ele>668</ele>
        <time>2024-02-17T13:14:52Z</time>
      </trkpt>
      <trkpt lat="44.1176" lon="3.19893">
        <ele>661.4</ele>
        <time>2024-02-17T13:14:58Z</time>
      </trkpt>
      <trkpt lat="44.11769" lon="3.19898">
        <ele>656.2</ele>
        <time>2024-02-17T13:15:03Z</time>
      </trkpt>
      <trkpt lat="44.11777" lon="3.19904">
        <ele>652.4</ele>
        <time>2024-02-17T13:15:07Z</time>
      </trkpt>
      <trkpt lat="44.11786" lon="3.1991">
        <ele>648.6</ele>
        <time>2024-02-17T13:15:12Z</time>
      </trkpt>
      <trkpt lat="44.11794" lon="3.19918">
        <ele>646.2</ele>
        <time>2024-02-17T13:15:22Z</time>
      </trkpt>
      <trkpt lat="44.11803" lon="3.19917">
        <ele>642.1</ele>
        <time>2024-02-17T13:15:26Z</time>
      </trkpt>
      <trkpt lat="44.11811" lon="3.19924">
        <ele>637.6</ele>
        <time>2024-02-17T13:15:37Z</time>
      </trkpt>
      <trkpt lat="44.11819" lon="3.19932">
        <ele>632</ele>
        <time>2024-02-17T13:15:44Z</time>
      </trkpt>
      <trkpt lat="44.11827" lon="3.19941">
        <ele>626</ele>
        <time>2024-02-17T13:15:53Z</time>
      </trkpt>
      <trkpt lat="44.11833" lon="3.19952">
        <ele>619.3</ele>
        <time>2024-02-17T13:16:03Z</time>
      </trkpt>
      <trkpt lat="44.11835" lon="3.19965">
        <ele>614.6</ele>
        <time>2024-02-17T13:16:13Z</time>
      </trkpt>
      <trkpt lat="44.11843" lon="3.19974">
        <ele>606.6</ele>
        <time>2024-02-17T13:16:22Z</time>
      </trkpt>
      <trkpt lat="44.1185" lon="3.19981">
        <ele>598.8</ele>
        <time>2024-02-17T13:16:28Z</time>
      </trkpt>
      <trkpt lat="44.11844" lon="3.19994">
        <ele>597.3</ele>
        <time>2024-02-17T13:16:32Z</time>
      </trkpt>
      <trkpt lat="44.11839" lon="3.20008">
        <ele>594.8</ele>
        <time>2024-02-17T13:16:38Z</time>
      </trkpt>
      <trkpt lat="44.11837" lon="3.2002">
        <ele>591.1</ele>
        <time>2024-02-17T13:16:46Z</time>
      </trkpt>
      <trkpt lat="44.11833" lon="3.20033">
        <ele>591.8</ele>
        <time>2024-02-17T13:16:59Z</time>
      </trkpt>
      <trkpt lat="44.11829" lon="3.20045">
        <ele>601.1</ele>
        <time>2024-02-17T13:17:07Z</time>
      </trkpt>
      <trkpt lat="44.11833" lon="3.20056">
        <ele>598.8</ele>
        <time>2024-02-17T13:17:16Z</time>
      </trkpt>
      <trkpt lat="44.11837" lon="3.20068">
        <ele>601.1</ele>
        <time>2024-02-17T13:17:33Z</time>
      </trkpt>
      <trkpt lat="44.11831" lon="3.20057">
        <ele>603</ele>
        <time>2024-02-17T13:19:34Z</time>
      </trkpt>
      <trkpt lat="44.11823" lon="3.2005">
        <ele>613.2</ele>
        <time>2024-02-17T13:19:38Z</time>
      </trkpt>
      <trkpt lat="44.11816" lon="3.20042">
        <ele>616.2</ele>
        <time>2024-02-17T13:19:42Z</time>
      </trkpt>
      <trkpt lat="44.11807" lon="3.20034">
        <ele>616.1</ele>
        <time>2024-02-17T13:19:54Z</time>
      </trkpt>
      <trkpt lat="44.118" lon="3.20025">
        <ele>616</ele>
        <time>2024-02-17T13:19:58Z</time>
      </trkpt>
      <trkpt lat="44.1179" lon="3.20026">
        <ele>628.4</ele>
        <time>2024-02-17T13:20:10Z</time>
      </trkpt>
      <trkpt lat="44.1178" lon="3.2001">
        <ele>630.9</ele>
        <time>2024-02-17T13:20:24Z</time>
      </trkpt>
      <trkpt lat="44.11784" lon="3.19998">
        <ele>625.9</ele>
        <time>2024-02-17T13:21:22Z</time>
      </trkpt>
      <trkpt lat="44.11793" lon="3.19993">
        <ele>627.9</ele>
        <time>2024-02-17T13:21:33Z</time>
      </trkpt>
      <trkpt lat="44.11802" lon="3.19986">
        <ele>629.5</ele>
        <time>2024-02-17T13:21:40Z</time>
      </trkpt>
      <trkpt lat="44.11808" lon="3.19975">
        <ele>631.8</ele>
        <time>2024-02-17T13:21:48Z</time>
      </trkpt>
      <trkpt lat="44.1181" lon="3.19962">
        <ele>634.2</ele>
        <time>2024-02-17T13:21:58Z</time>
      </trkpt>
      <trkpt lat="44.11814" lon="3.19951">
        <ele>634</ele>
        <time>2024-02-17T13:22:10Z</time>
      </trkpt>
      <trkpt lat="44.11808" lon="3.19941">
        <ele>640.1</ele>
        <time>2024-02-17T13:22:34Z</time>
      </trkpt>
      <trkpt lat="44.11801" lon="3.19931">
        <ele>644</ele>
        <time>2024-02-17T13:22:39Z</time>
      </trkpt>
      <trkpt lat="44.11793" lon="3.19924">
        <ele>647.4</ele>
        <time>2024-02-17T13:22:48Z</time>
      </trkpt>
      <trkpt lat="44.11775" lon="3.19912">
        <ele>653.7</ele>
        <time>2024-02-17T13:23:10Z</time>
      </trkpt>
      <trkpt lat="44.11762" lon="3.19907">
        <ele>659</ele>
        <time>2024-02-17T13:23:21Z</time>
      </trkpt>
      <trkpt lat="44.11754" lon="3.19902">
        <ele>663.3</ele>
        <time>2024-02-17T13:23:26Z</time>
      </trkpt>
      <trkpt lat="44.11745" lon="3.19895">
        <ele>667</ele>
        <time>2024-02-17T13:23:36Z</time>
      </trkpt>
      <trkpt lat="44.11737" lon="3.19887">
        <ele>668.4</ele>
        <time>2024-02-17T13:23:45Z</time>
      </trkpt>
      <trkpt lat="44.11727" lon="3.19885">
        <ele>669.1</ele>
        <time>2024-02-17T13:23:54Z</time>
      </trkpt>
      <trkpt lat="44.11721" lon="3.19875">
        <ele>672.6</ele>
        <time>2024-02-17T13:24:07Z</time>
      </trkpt>
      <trkpt lat="44.11717" lon="3.19862">
        <ele>676.4</ele>
        <time>2024-02-17T13:24:20Z</time>
      </trkpt>
      <trkpt lat="44.11717" lon="3.19849">
        <ele>680</ele>
        <time>2024-02-17T13:24:40Z</time>
      </trkpt>
      <trkpt lat="44.11712" lon="3.19836">
        <ele>683.2</ele>
        <time>2024-02-17T13:24:49Z</time>
      </trkpt>
      <trkpt lat="44.11705" lon="3.19822">
        <ele>684.8</ele>
        <time>2024-02-17T13:25:10Z</time>
      </trkpt>
      <trkpt lat="44.117" lon="3.19811">
        <ele>686.9</ele>
        <time>2024-02-17T13:25:19Z</time>
      </trkpt>
      <trkpt lat="44.11694" lon="3.19801">
        <ele>689.2</ele>
        <time>2024-02-17T13:25:27Z</time>
      </trkpt>
      <trkpt lat="44.11678" lon="3.19799">
        <ele>688.8</ele>
        <time>2024-02-17T13:25:30Z</time>
      </trkpt>
      <trkpt lat="44.11668" lon="3.19796">
        <ele>688.4</ele>
        <time>2024-02-17T13:25:33Z</time>
      </trkpt>
      <trkpt lat="44.1166" lon="3.1979">
        <ele>689.2</ele>
        <time>2024-02-17T13:25:40Z</time>
      </trkpt>
      <trkpt lat="44.11654" lon="3.198">
        <ele>692.4</ele>
        <time>2024-02-17T13:26:16Z</time>
      </trkpt>
      <trkpt lat="44.11651" lon="3.19812">
        <ele>694.7</ele>
        <time>2024-02-17T13:26:40Z</time>
      </trkpt>
      <trkpt lat="44.11645" lon="3.19823">
        <ele>697.5</ele>
        <time>2024-02-17T13:27:40Z</time>
      </trkpt>
      <trkpt lat="44.11637" lon="3.19828">
        <ele>701</ele>
        <time>2024-02-17T13:27:54Z</time>
      </trkpt>
      <trkpt lat="44.11627" lon="3.19831">
        <ele>703.3</ele>
        <time>2024-02-17T13:28:06Z</time>
      </trkpt>
      <trkpt lat="44.11618" lon="3.19831">
        <ele>705.1</ele>
        <time>2024-02-17T13:28:17Z</time>
      </trkpt>
      <trkpt lat="44.11608" lon="3.19828">
        <ele>706.2</ele>
        <time>2024-02-17T13:28:25Z</time>
      </trkpt>
      <trkpt lat="44.11599" lon="3.19832">
        <ele>708.1</ele>
        <time>2024-02-17T13:28:34Z</time>
      </trkpt>
      <trkpt lat="44.11594" lon="3.19843">
        <ele>709.4</ele>
        <time>2024-02-17T13:28:45Z</time>
      </trkpt>
      <trkpt lat="44.11592" lon="3.19857">
        <ele>710.5</ele>
        <time>2024-02-17T13:28:55Z</time>
      </trkpt>
      <trkpt lat="44.11589" lon="3.19869">
        <ele>711.2</ele>
        <time>2024-02-17T13:29:02Z</time>
      </trkpt>
      <trkpt lat="44.1158" lon="3.19875">
        <ele>712.4</ele>
        <time>2024-02-17T13:29:10Z</time>
      </trkpt>
      <trkpt lat="44.11571" lon="3.19877">
        <ele>713.6</ele>
        <time>2024-02-17T13:29:17Z</time>
      </trkpt>
      <trkpt lat="44.11562" lon="3.1988">
        <ele>714.8</ele>
        <time>2024-02-17T13:29:24Z</time>
      </trkpt>
      <trkpt lat="44.11554" lon="3.19886">
        <ele>716.1</ele>
        <time>2024-02-17T13:29:31Z</time>
      </trkpt>
      <trkpt lat="44.11545" lon="3.1989">
        <ele>717.1</ele>
        <time>2024-02-17T13:29:39Z</time>
      </trkpt>
      <trkpt lat="44.11536" lon="3.19895">
        <ele>718</ele>
        <time>2024-02-17T13:29:46Z</time>
      </trkpt>
      <trkpt lat="44.11526" lon="3.19899">
        <ele>719.2</ele>
        <time>2024-02-17T13:29:51Z</time>
      </trkpt>
      <trkpt lat="44.11517" lon="3.19901">
        <ele>720</ele>
        <time>2024-02-17T13:29:58Z</time>
      </trkpt>
      <trkpt lat="44.11507" lon="3.19901">
        <ele>720.9</ele>
        <time>2024-02-17T13:30:04Z</time>
      </trkpt>
      <trkpt lat="44.11498" lon="3.19903">
        <ele>721.7</ele>
        <time>2024-02-17T13:30:10Z</time>
      </trkpt>
      <trkpt lat="44.11491" lon="3.19911">
        <ele>722.2</ele>
        <time>2024-02-17T13:30:19Z</time>
      </trkpt>
      <trkpt lat="44.11482" lon="3.19918">
        <ele>722.9</ele>
        <time>2024-02-17T13:30:23Z</time>
      </trkpt>
      <trkpt lat="44.11472" lon="3.1992">
        <ele>723.9</ele>
        <time>2024-02-17T13:30:27Z</time>
      </trkpt>
      <trkpt lat="44.11464" lon="3.19925">
        <ele>724.3</ele>
        <time>2024-02-17T13:30:33Z</time>
      </trkpt>
      <trkpt lat="44.11453" lon="3.19926">
        <ele>725</ele>
        <time>2024-02-17T13:30:39Z</time>
      </trkpt>
      <trkpt lat="44.11443" lon="3.19929">
        <ele>725.6</ele>
        <time>2024-02-17T13:30:45Z</time>
      </trkpt>
      <trkpt lat="44.11433" lon="3.1993">
        <ele>725.7</ele>
        <time>2024-02-17T13:30:51Z</time>
      </trkpt>
      <trkpt lat="44.11423" lon="3.19933">
        <ele>725.9</ele>
        <time>2024-02-17T13:30:58Z</time>
      </trkpt>
      <trkpt lat="44.11423" lon="3.1995">
        <ele>725.2</ele>
        <time>2024-02-17T13:32:57Z</time>
      </trkpt>
      <trkpt lat="44.1143" lon="3.1996">
        <ele>724.1</ele>
        <time>2024-02-17T13:33:00Z</time>
      </trkpt>
      <trkpt lat="44.11434" lon="3.19972">
        <ele>723</ele>
        <time>2024-02-17T13:33:03Z</time>
      </trkpt>
      <trkpt lat="44.11425" lon="3.19982">
        <ele>722.4</ele>
        <time>2024-02-17T13:33:07Z</time>
      </trkpt>
      <trkpt lat="44.11418" lon="3.19992">
        <ele>721.6</ele>
        <time>2024-02-17T13:33:11Z</time>
      </trkpt>
      <trkpt lat="44.11412" lon="3.20005">
        <ele>720.5</ele>
        <time>2024-02-17T13:33:14Z</time>
      </trkpt>
      <trkpt lat="44.11403" lon="3.20016">
        <ele>719.4</ele>
        <time>2024-02-17T13:33:17Z</time>
      </trkpt>
      <trkpt lat="44.11394" lon="3.20029">
        <ele>718.3</ele>
        <time>2024-02-17T13:33:20Z</time>
      </trkpt>
      <trkpt lat="44.11387" lon="3.2004">
        <ele>717.3</ele>
        <time>2024-02-17T13:33:22Z</time>
      </trkpt>
      <trkpt lat="44.11376" lon="3.20051">
        <ele>715.4</ele>
        <time>2024-02-17T13:33:24Z</time>
      </trkpt>
      <trkpt lat="44.11366" lon="3.20059">
        <ele>713.7</ele>
        <time>2024-02-17T13:33:25Z</time>
      </trkpt>
      <trkpt lat="44.11358" lon="3.20066">
        <ele>712.6</ele>
        <time>2024-02-17T13:33:26Z</time>
      </trkpt>
      <trkpt lat="44.11346" lon="3.20079">
        <ele>710.1</ele>
        <time>2024-02-17T13:33:28Z</time>
      </trkpt>
      <trkpt lat="44.11333" lon="3.20092">
        <ele>706.9</ele>
        <time>2024-02-17T13:33:30Z</time>
      </trkpt>
      <trkpt lat="44.11322" lon="3.20107">
        <ele>704.3</ele>
        <time>2024-02-17T13:33:32Z</time>
      </trkpt>
      <trkpt lat="44.1131" lon="3.20121">
        <ele>701.4</ele>
        <time>2024-02-17T13:33:34Z</time>
      </trkpt>
      <trkpt lat="44.11299" lon="3.20137">
        <ele>699.3</ele>
        <time>2024-02-17T13:33:36Z</time>
      </trkpt>
      <trkpt lat="44.11289" lon="3.2015">
        <ele>697.5</ele>
        <time>2024-02-17T13:33:38Z</time>
      </trkpt>
      <trkpt lat="44.11279" lon="3.20159">
        <ele>695.7</ele>
        <time>2024-02-17T13:33:40Z</time>
      </trkpt>
      <trkpt lat="44.11269" lon="3.20165">
        <ele>694.3</ele>
        <time>2024-02-17T13:33:43Z</time>
      </trkpt>
      <trkpt lat="44.1126" lon="3.20162">
        <ele>692.5</ele>
        <time>2024-02-17T13:33:45Z</time>
      </trkpt>
      <trkpt lat="44.11247" lon="3.20161">
        <ele>690</ele>
        <time>2024-02-17T13:33:47Z</time>
      </trkpt>
      <trkpt lat="44.11233" lon="3.20159">
        <ele>687.1</ele>
        <time>2024-02-17T13:33:49Z</time>
      </trkpt>
      <trkpt lat="44.11222" lon="3.20154">
        <ele>684.1</ele>
        <time>2024-02-17T13:33:51Z</time>
      </trkpt>
      <trkpt lat="44.11219" lon="3.20141">
        <ele>681.8</ele>
        <time>2024-02-17T13:33:54Z</time>
      </trkpt>
      <trkpt lat="44.11221" lon="3.20128">
        <ele>682.5</ele>
        <time>2024-02-17T13:33:57Z</time>
      </trkpt>
      <trkpt lat="44.11208" lon="3.20126">
        <ele>679.9</ele>
        <time>2024-02-17T13:34:01Z</time>
      </trkpt>
      <trkpt lat="44.11196" lon="3.20123">
        <ele>677.2</ele>
        <time>2024-02-17T13:34:04Z</time>
      </trkpt>
      <trkpt lat="44.11181" lon="3.2012">
        <ele>672.8</ele>
        <time>2024-02-17T13:34:07Z</time>
      </trkpt>
      <trkpt lat="44.11171" lon="3.20117">
        <ele>669.7</ele>
        <time>2024-02-17T13:34:09Z</time>
      </trkpt>
      <trkpt lat="44.11162" lon="3.20121">
        <ele>669.2</ele>
        <time>2024-02-17T13:34:12Z</time>
      </trkpt>
      <trkpt lat="44.11153" lon="3.20132">
        <ele>668.9</ele>
        <time>2024-02-17T13:34:15Z</time>
      </trkpt>
      <trkpt lat="44.11142" lon="3.20139">
        <ele>666.4</ele>
        <time>2024-02-17T13:34:18Z</time>
      </trkpt>
      <trkpt lat="44.11131" lon="3.20145">
        <ele>666.1</ele>
        <time>2024-02-17T13:34:21Z</time>
      </trkpt>
      <trkpt lat="44.11126" lon="3.20157">
        <ele>664.3</ele>
        <time>2024-02-17T13:34:24Z</time>
      </trkpt>
      <trkpt lat="44.11123" lon="3.20171">
        <ele>662</ele>
        <time>2024-02-17T13:34:27Z</time>
      </trkpt>
      <trkpt lat="44.11118" lon="3.20182">
        <ele>660.3</ele>
        <time>2024-02-17T13:34:30Z</time>
      </trkpt>
      <trkpt lat="44.11115" lon="3.20195">
        <ele>658.4</ele>
        <time>2024-02-17T13:34:37Z</time>
      </trkpt>
      <trkpt lat="44.11117" lon="3.20209">
        <ele>658.5</ele>
        <time>2024-02-17T13:34:42Z</time>
      </trkpt>
      <trkpt lat="44.1112" lon="3.20223">
        <ele>658.9</ele>
        <time>2024-02-17T13:34:46Z</time>
      </trkpt>
      <trkpt lat="44.11123" lon="3.20236">
        <ele>659.1</ele>
        <time>2024-02-17T13:34:50Z</time>
      </trkpt>
      <trkpt lat="44.1116" lon="3.20383">
        <ele>651.7</ele>
        <time>2024-02-17T13:35:26Z</time>
      </trkpt>
      <trkpt lat="44.11156" lon="3.20394">
        <ele>650.5</ele>
        <time>2024-02-17T13:35:31Z</time>
      </trkpt>
      <trkpt lat="44.11148" lon="3.20404">
        <ele>648.3</ele>
        <time>2024-02-17T13:35:34Z</time>
      </trkpt>
      <trkpt lat="44.1114" lon="3.20415">
        <ele>645.5</ele>
        <time>2024-02-17T13:35:37Z</time>
      </trkpt>
      <trkpt lat="44.11132" lon="3.20426">
        <ele>645.3</ele>
        <time>2024-02-17T13:35:41Z</time>
      </trkpt>
      <trkpt lat="44.11123" lon="3.20434">
        <ele>647.9</ele>
        <time>2024-02-17T13:35:44Z</time>
      </trkpt>
      <trkpt lat="44.11122" lon="3.20451">
        <ele>645.5</ele>
        <time>2024-02-17T13:35:48Z</time>
      </trkpt>
      <trkpt lat="44.11121" lon="3.20467">
        <ele>643</ele>
        <time>2024-02-17T13:35:52Z</time>
      </trkpt>
      <trkpt lat="44.11117" lon="3.20478">
        <ele>643.2</ele>
        <time>2024-02-17T13:35:56Z</time>
      </trkpt>
      <trkpt lat="44.11112" lon="3.20489">
        <ele>643.6</ele>
        <time>2024-02-17T13:35:59Z</time>
      </trkpt>
      <trkpt lat="44.11109" lon="3.20502">
        <ele>642.6</ele>
        <time>2024-02-17T13:36:02Z</time>
      </trkpt>
      <trkpt lat="44.11103" lon="3.20511">
        <ele>643.8</ele>
        <time>2024-02-17T13:36:04Z</time>
      </trkpt>
      <trkpt lat="44.11096" lon="3.20522">
        <ele>644.9</ele>
        <time>2024-02-17T13:36:08Z</time>
      </trkpt>
      <trkpt lat="44.11091" lon="3.20535">
        <ele>643.8</ele>
        <time>2024-02-17T13:36:12Z</time>
      </trkpt>
      <trkpt lat="44.11091" lon="3.20549">
        <ele>639.5</ele>
        <time>2024-02-17T13:36:15Z</time>
      </trkpt>
      <trkpt lat="44.11085" lon="3.20558">
        <ele>638.6</ele>
        <time>2024-02-17T13:36:21Z</time>
      </trkpt>
      <trkpt lat="44.11057" lon="3.20572">
        <ele>642.6</ele>
        <time>2024-02-17T13:37:07Z</time>
      </trkpt>
      <trkpt lat="44.11041" lon="3.20577">
        <ele>646.6</ele>
        <time>2024-02-17T13:37:12Z</time>
      </trkpt>
      <trkpt lat="44.11033" lon="3.20582">
        <ele>648.1</ele>
        <time>2024-02-17T13:37:14Z</time>
      </trkpt>
      <trkpt lat="44.11024" lon="3.20592">
        <ele>646.6</ele>
        <time>2024-02-17T13:37:17Z</time>
      </trkpt>
      <trkpt lat="44.11016" lon="3.20601">
        <ele>645.2</ele>
        <time>2024-02-17T13:37:20Z</time>
      </trkpt>
      <trkpt lat="44.11008" lon="3.2061">
        <ele>644.7</ele>
        <time>2024-02-17T13:37:22Z</time>
      </trkpt>
      <trkpt lat="44.10999" lon="3.20618">
        <ele>645.3</ele>
        <time>2024-02-17T13:37:25Z</time>
      </trkpt>
      <trkpt lat="44.10992" lon="3.20629">
        <ele>643.7</ele>
        <time>2024-02-17T13:37:28Z</time>
      </trkpt>
      <trkpt lat="44.10984" lon="3.20641">
        <ele>643.1</ele>
        <time>2024-02-17T13:37:31Z</time>
      </trkpt>
      <trkpt lat="44.10976" lon="3.20649">
        <ele>645.1</ele>
        <time>2024-02-17T13:37:33Z</time>
      </trkpt>
      <trkpt lat="44.10965" lon="3.20667">
        <ele>646.1</ele>
        <time>2024-02-17T13:37:36Z</time>
      </trkpt>
      <trkpt lat="44.10957" lon="3.20678">
        <ele>648.4</ele>
        <time>2024-02-17T13:37:38Z</time>
      </trkpt>
      <trkpt lat="44.10951" lon="3.20688">
        <ele>650</ele>
        <time>2024-02-17T13:37:40Z</time>
      </trkpt>
      <trkpt lat="44.10943" lon="3.20701">
        <ele>652.6</ele>
        <time>2024-02-17T13:37:43Z</time>
      </trkpt>
      <trkpt lat="44.10937" lon="3.20711">
        <ele>653.3</ele>
        <time>2024-02-17T13:37:46Z</time>
      </trkpt>
      <trkpt lat="44.10929" lon="3.20718">
        <ele>655.2</ele>
        <time>2024-02-17T13:37:49Z</time>
      </trkpt>
      <trkpt lat="44.10921" lon="3.20726">
        <ele>656.6</ele>
        <time>2024-02-17T13:37:52Z</time>
      </trkpt>
      <trkpt lat="44.10914" lon="3.20737">
        <ele>656.5</ele>
        <time>2024-02-17T13:37:56Z</time>
      </trkpt>
      <trkpt lat="44.10905" lon="3.20748">
        <ele>656.4</ele>
        <time>2024-02-17T13:38:00Z</time>
      </trkpt>
      <trkpt lat="44.10898" lon="3.20762">
        <ele>655.3</ele>
        <time>2024-02-17T13:38:03Z</time>
      </trkpt>
      <trkpt lat="44.10889" lon="3.20774">
        <ele>654.8</ele>
        <time>2024-02-17T13:38:06Z</time>
      </trkpt>
      <trkpt lat="44.10882" lon="3.20787">
        <ele>653.5</ele>
        <time>2024-02-17T13:38:08Z</time>
      </trkpt>
      <trkpt lat="44.10873" lon="3.20791">
        <ele>654.2</ele>
        <time>2024-02-17T13:38:10Z</time>
      </trkpt>
      <trkpt lat="44.10861" lon="3.20795">
        <ele>655.3</ele>
        <time>2024-02-17T13:38:13Z</time>
      </trkpt>
      <trkpt lat="44.10855" lon="3.20807">
        <ele>653.5</ele>
        <time>2024-02-17T13:38:18Z</time>
      </trkpt>
      <trkpt lat="44.10862" lon="3.2082">
        <ele>651.3</ele>
        <time>2024-02-17T13:38:22Z</time>
      </trkpt>
      <trkpt lat="44.10874" lon="3.20821">
        <ele>648.7</ele>
        <time>2024-02-17T13:38:25Z</time>
      </trkpt>
      <trkpt lat="44.10885" lon="3.20819">
        <ele>646.9</ele>
        <time>2024-02-17T13:38:28Z</time>
      </trkpt>
      <trkpt lat="44.10899" lon="3.20817">
        <ele>644.4</ele>
        <time>2024-02-17T13:38:31Z</time>
      </trkpt>
      <trkpt lat="44.10909" lon="3.20815">
        <ele>642.6</ele>
        <time>2024-02-17T13:38:34Z</time>
      </trkpt>
      <trkpt lat="44.10919" lon="3.20816">
        <ele>640.8</ele>
        <time>2024-02-17T13:38:37Z</time>
      </trkpt>
      <trkpt lat="44.10928" lon="3.20811">
        <ele>640.2</ele>
        <time>2024-02-17T13:38:39Z</time>
      </trkpt>
      <trkpt lat="44.10931" lon="3.20798">
        <ele>640.5</ele>
        <time>2024-02-17T13:38:41Z</time>
      </trkpt>
      <trkpt lat="44.10937" lon="3.20786">
        <ele>640.5</ele>
        <time>2024-02-17T13:38:46Z</time>
      </trkpt>
      <trkpt lat="44.1094" lon="3.20769">
        <ele>642</ele>
        <time>2024-02-17T13:38:50Z</time>
      </trkpt>
      <trkpt lat="44.10942" lon="3.20755">
        <ele>643.9</ele>
        <time>2024-02-17T13:38:53Z</time>
      </trkpt>
      <trkpt lat="44.1095" lon="3.20743">
        <ele>642.6</ele>
        <time>2024-02-17T13:38:57Z</time>
      </trkpt>
      <trkpt lat="44.10959" lon="3.20729">
        <ele>639.5</ele>
        <time>2024-02-17T13:39:00Z</time>
      </trkpt>
      <trkpt lat="44.10967" lon="3.20717">
        <ele>635.8</ele>
        <time>2024-02-17T13:39:03Z</time>
      </trkpt>
      <trkpt lat="44.10975" lon="3.2071">
        <ele>633.3</ele>
        <time>2024-02-17T13:39:06Z</time>
      </trkpt>
      <trkpt lat="44.10988" lon="3.20707">
        <ele>633.1</ele>
        <time>2024-02-17T13:39:09Z</time>
      </trkpt>
      <trkpt lat="44.10992" lon="3.20694">
        <ele>631.4</ele>
        <time>2024-02-17T13:39:15Z</time>
      </trkpt>
      <trkpt lat="44.10997" lon="3.20681">
        <ele>630</ele>
        <time>2024-02-17T13:39:19Z</time>
      </trkpt>
      <trkpt lat="44.11005" lon="3.20673">
        <ele>628.6</ele>
        <time>2024-02-17T13:39:26Z</time>
      </trkpt>
      <trkpt lat="44.11011" lon="3.2066">
        <ele>628.7</ele>
        <time>2024-02-17T13:39:30Z</time>
      </trkpt>
      <trkpt lat="44.11017" lon="3.20648">
        <ele>628.6</ele>
        <time>2024-02-17T13:39:34Z</time>
      </trkpt>
      <trkpt lat="44.11026" lon="3.20645">
        <ele>626.2</ele>
        <time>2024-02-17T13:39:42Z</time>
      </trkpt>
      <trkpt lat="44.11034" lon="3.20638">
        <ele>623.9</ele>
        <time>2024-02-17T13:39:45Z</time>
      </trkpt>
      <trkpt lat="44.11045" lon="3.20637">
        <ele>621.7</ele>
        <time>2024-02-17T13:39:50Z</time>
      </trkpt>
      <trkpt lat="44.11054" lon="3.20641">
        <ele>619.8</ele>
        <time>2024-02-17T13:39:54Z</time>
      </trkpt>
      <trkpt lat="44.11063" lon="3.20647">
        <ele>619.9</ele>
        <time>2024-02-17T13:40:32Z</time>
      </trkpt>
      <trkpt lat="44.11071" lon="3.20654">
        <ele>619.9</ele>
        <time>2024-02-17T13:40:37Z</time>
      </trkpt>
      <trkpt lat="44.1108" lon="3.2066">
        <ele>619.1</ele>
        <time>2024-02-17T13:40:45Z</time>
      </trkpt>
      <trkpt lat="44.11088" lon="3.20664">
        <ele>617.7</ele>
        <time>2024-02-17T13:40:50Z</time>
      </trkpt>
      <trkpt lat="44.11098" lon="3.20672">
        <ele>617.2</ele>
        <time>2024-02-17T13:40:54Z</time>
      </trkpt>
      <trkpt lat="44.11106" lon="3.2068">
        <ele>617.5</ele>
        <time>2024-02-17T13:40:57Z</time>
      </trkpt>
      <trkpt lat="44.11115" lon="3.20683">
        <ele>615.1</ele>
        <time>2024-02-17T13:41:02Z</time>
      </trkpt>
      <trkpt lat="44.11125" lon="3.20685">
        <ele>611.2</ele>
        <time>2024-02-17T13:41:06Z</time>
      </trkpt>
      <trkpt lat="44.11134" lon="3.20691">
        <ele>606.9</ele>
        <time>2024-02-17T13:41:09Z</time>
      </trkpt>
      <trkpt lat="44.11141" lon="3.20699">
        <ele>604.4</ele>
        <time>2024-02-17T13:41:15Z</time>
      </trkpt>
      <trkpt lat="44.11146" lon="3.2071">
        <ele>604.6</ele>
        <time>2024-02-17T13:41:32Z</time>
      </trkpt>
      <trkpt lat="44.11151" lon="3.20721">
        <ele>603.5</ele>
        <time>2024-02-17T13:41:43Z</time>
      </trkpt>
      <trkpt lat="44.11156" lon="3.20733">
        <ele>603</ele>
        <time>2024-02-17T13:41:53Z</time>
      </trkpt>
      <trkpt lat="44.11164" lon="3.2074">
        <ele>600.3</ele>
        <time>2024-02-17T13:42:02Z</time>
      </trkpt>
      <trkpt lat="44.11166" lon="3.20754">
        <ele>603.3</ele>
        <time>2024-02-17T13:42:13Z</time>
      </trkpt>
      <trkpt lat="44.11163" lon="3.20741">
        <ele>601.1</ele>
        <time>2024-02-17T13:42:31Z</time>
      </trkpt>
      <trkpt lat="44.11161" lon="3.20729">
        <ele>598.8</ele>
        <time>2024-02-17T13:42:41Z</time>
      </trkpt>
      <trkpt lat="44.11154" lon="3.20719">
        <ele>601.3</ele>
        <time>2024-02-17T13:42:52Z</time>
      </trkpt>
      <trkpt lat="44.11145" lon="3.20717">
        <ele>606.7</ele>
        <time>2024-02-17T13:43:02Z</time>
      </trkpt>
      <trkpt lat="44.11142" lon="3.20705">
        <ele>605.5</ele>
        <time>2024-02-17T13:43:22Z</time>
      </trkpt>
      <trkpt lat="44.1115" lon="3.20698">
        <ele>600.6</ele>
        <time>2024-02-17T13:43:28Z</time>
      </trkpt>
      <trkpt lat="44.11159" lon="3.20693">
        <ele>597.5</ele>
        <time>2024-02-17T13:43:49Z</time>
      </trkpt>
      <trkpt lat="44.11165" lon="3.20702">
        <ele>594.5</ele>
        <time>2024-02-17T13:44:15Z</time>
      </trkpt>
      <trkpt lat="44.11174" lon="3.20699">
        <ele>596.4</ele>
        <time>2024-02-17T13:44:27Z</time>
      </trkpt>
      <trkpt lat="44.11182" lon="3.20692">
        <ele>601.7</ele>
        <time>2024-02-17T13:44:37Z</time>
      </trkpt>
      <trkpt lat="44.1119" lon="3.20699">
        <ele>602.1</ele>
        <time>2024-02-17T13:44:48Z</time>
      </trkpt>
      <trkpt lat="44.11192" lon="3.20711">
        <ele>597.3</ele>
        <time>2024-02-17T13:44:56Z</time>
      </trkpt>
      <trkpt lat="44.11193" lon="3.20726">
        <ele>591.3</ele>
        <time>2024-02-17T13:45:01Z</time>
      </trkpt>
      <trkpt lat="44.11192" lon="3.20739">
        <ele>589.3</ele>
        <time>2024-02-17T13:45:07Z</time>
      </trkpt>
      <trkpt lat="44.11191" lon="3.20754">
        <ele>589</ele>
        <time>2024-02-17T13:45:12Z</time>
      </trkpt>
      <trkpt lat="44.11191" lon="3.20768">
        <ele>592.5</ele>
        <time>2024-02-17T13:45:17Z</time>
      </trkpt>
      <trkpt lat="44.11194" lon="3.2078">
        <ele>593.4</ele>
        <time>2024-02-17T13:45:27Z</time>
      </trkpt>
      <trkpt lat="44.11207" lon="3.20779">
        <ele>587.7</ele>
        <time>2024-02-17T13:45:38Z</time>
      </trkpt>
      <trkpt lat="44.11219" lon="3.20757">
        <ele>587.1</ele>
        <time>2024-02-17T13:45:43Z</time>
      </trkpt>
      <trkpt lat="44.11228" lon="3.20749">
        <ele>592.2</ele>
        <time>2024-02-17T13:46:09Z</time>
      </trkpt>
      <trkpt lat="44.11237" lon="3.20743">
        <ele>599.1</ele>
        <time>2024-02-17T13:46:13Z</time>
      </trkpt>
      <trkpt lat="44.11244" lon="3.20733">
        <ele>605.5</ele>
        <time>2024-02-17T13:46:21Z</time>
      </trkpt>
      <trkpt lat="44.11252" lon="3.20725">
        <ele>609.7</ele>
        <time>2024-02-17T13:46:27Z</time>
      </trkpt>
      <trkpt lat="44.11256" lon="3.20714">
        <ele>615</ele>
        <time>2024-02-17T13:46:34Z</time>
      </trkpt>
      <trkpt lat="44.1126" lon="3.20701">
        <ele>622.5</ele>
        <time>2024-02-17T13:46:41Z</time>
      </trkpt>
      <trkpt lat="44.11266" lon="3.20691">
        <ele>630.7</ele>
        <time>2024-02-17T13:46:46Z</time>
      </trkpt>
      <trkpt lat="44.11262" lon="3.20702">
        <ele>623.2</ele>
        <time>2024-02-17T13:46:56Z</time>
      </trkpt>
      <trkpt lat="44.11258" lon="3.20717">
        <ele>614.5</ele>
        <time>2024-02-17T13:47:13Z</time>
      </trkpt>
      <trkpt lat="44.11264" lon="3.20727">
        <ele>612.6</ele>
        <time>2024-02-17T13:47:38Z</time>
      </trkpt>
      <trkpt lat="44.11272" lon="3.20721">
        <ele>617.1</ele>
        <time>2024-02-17T13:48:31Z</time>
      </trkpt>
      <trkpt lat="44.11268" lon="3.20709">
        <ele>622.6</ele>
        <time>2024-02-17T13:49:20Z</time>
      </trkpt>
      <trkpt lat="44.11277" lon="3.20702">
        <ele>631.4</ele>
        <time>2024-02-17T13:49:42Z</time>
      </trkpt>
      <trkpt lat="44.11284" lon="3.20694">
        <ele>635.6</ele>
        <time>2024-02-17T13:50:18Z</time>
      </trkpt>
      <trkpt lat="44.11285" lon="3.20681">
        <ele>641.7</ele>
        <time>2024-02-17T13:50:56Z</time>
      </trkpt>
      <trkpt lat="44.11296" lon="3.20678">
        <ele>643.4</ele>
        <time>2024-02-17T13:51:13Z</time>
      </trkpt>
      <trkpt lat="44.11304" lon="3.20673">
        <ele>647.6</ele>
        <time>2024-02-17T13:52:39Z</time>
      </trkpt>
      <trkpt lat="44.11313" lon="3.20671">
        <ele>647.8</ele>
        <time>2024-02-17T13:53:24Z</time>
      </trkpt>
      <trkpt lat="44.1132" lon="3.20662">
        <ele>650.4</ele>
        <time>2024-02-17T13:53:39Z</time>
      </trkpt>
      <trkpt lat="44.11327" lon="3.20654">
        <ele>651</ele>
        <time>2024-02-17T13:53:48Z</time>
      </trkpt>
      <trkpt lat="44.11333" lon="3.20644">
        <ele>652.4</ele>
        <time>2024-02-17T13:53:55Z</time>
      </trkpt>
      <trkpt lat="44.11323" lon="3.20651">
        <ele>653.3</ele>
        <time>2024-02-17T13:54:41Z</time>
      </trkpt>
      <trkpt lat="44.11315" lon="3.20657">
        <ele>653.6</ele>
        <time>2024-02-17T13:54:51Z</time>
      </trkpt>
      <trkpt lat="44.11311" lon="3.20669">
        <ele>649.7</ele>
        <time>2024-02-17T13:55:11Z</time>
      </trkpt>
      <trkpt lat="44.11305" lon="3.2068">
        <ele>642</ele>
        <time>2024-02-17T13:55:26Z</time>
      </trkpt>
      <trkpt lat="44.11302" lon="3.20692">
        <ele>632.8</ele>
        <time>2024-02-17T13:55:50Z</time>
      </trkpt>
      <trkpt lat="44.11304" lon="3.20706">
        <ele>624.8</ele>
        <time>2024-02-17T13:56:01Z</time>
      </trkpt>
      <trkpt lat="44.11303" lon="3.2072">
        <ele>618.2</ele>
        <time>2024-02-17T13:56:06Z</time>
      </trkpt>
      <trkpt lat="44.11301" lon="3.20733">
        <ele>613.7</ele>
        <time>2024-02-17T13:56:10Z</time>
      </trkpt>
      <trkpt lat="44.11284" lon="3.20727">
        <ele>616.4</ele>
        <time>2024-02-17T13:56:19Z</time>
      </trkpt>
      <trkpt lat="44.11275" lon="3.20716">
        <ele>621.2</ele>
        <time>2024-02-17T13:56:51Z</time>
      </trkpt>
      <trkpt lat="44.11269" lon="3.20727">
        <ele>614</ele>
        <time>2024-02-17T13:57:31Z</time>
      </trkpt>
      <trkpt lat="44.11252" lon="3.20739">
        <ele>605.2</ele>
        <time>2024-02-17T13:58:25Z</time>
      </trkpt>
      <trkpt lat="44.11242" lon="3.20741">
        <ele>601.6</ele>
        <time>2024-02-17T13:58:35Z</time>
      </trkpt>
      <trkpt lat="44.11233" lon="3.20747">
        <ele>595.4</ele>
        <time>2024-02-17T13:58:40Z</time>
      </trkpt>
      <trkpt lat="44.11223" lon="3.20747">
        <ele>591.6</ele>
        <time>2024-02-17T13:58:46Z</time>
      </trkpt>
      <trkpt lat="44.11214" lon="3.20751">
        <ele>588</ele>
        <time>2024-02-17T13:58:55Z</time>
      </trkpt>
      <trkpt lat="44.11205" lon="3.20745">
        <ele>589.2</ele>
        <time>2024-02-17T13:59:04Z</time>
      </trkpt>
      <trkpt lat="44.11202" lon="3.20732">
        <ele>593.3</ele>
        <time>2024-02-17T13:59:10Z</time>
      </trkpt>
      <trkpt lat="44.112" lon="3.20719">
        <ele>597.2</ele>
        <time>2024-02-17T13:59:16Z</time>
      </trkpt>
      <trkpt lat="44.11196" lon="3.20708">
        <ele>600.2</ele>
        <time>2024-02-17T13:59:22Z</time>
      </trkpt>
      <trkpt lat="44.11188" lon="3.207">
        <ele>601</ele>
        <time>2024-02-17T13:59:34Z</time>
      </trkpt>
      <trkpt lat="44.11178" lon="3.20701">
        <ele>597.4</ele>
        <time>2024-02-17T13:59:42Z</time>
      </trkpt>
      <trkpt lat="44.11169" lon="3.207">
        <ele>594.6</ele>
        <time>2024-02-17T13:59:51Z</time>
      </trkpt>
      <trkpt lat="44.11176" lon="3.20691">
        <ele>599.8</ele>
        <time>2024-02-17T14:00:47Z</time>
      </trkpt>
      <trkpt lat="44.11187" lon="3.20687">
        <ele>605.3</ele>
        <time>2024-02-17T14:01:32Z</time>
      </trkpt>
      <trkpt lat="44.11178" lon="3.20682">
        <ele>605</ele>
        <time>2024-02-17T14:02:40Z</time>
      </trkpt>
      <trkpt lat="44.11166" lon="3.20684">
        <ele>601.2</ele>
        <time>2024-02-17T14:02:49Z</time>
      </trkpt>
      <trkpt lat="44.11148" lon="3.20708">
        <ele>603.2</ele>
        <time>2024-02-17T14:03:05Z</time>
      </trkpt>
      <trkpt lat="44.11146" lon="3.20726">
        <ele>607.9</ele>
        <time>2024-02-17T14:03:43Z</time>
      </trkpt>
      <trkpt lat="44.11148" lon="3.20738">
        <ele>609</ele>
        <time>2024-02-17T14:03:48Z</time>
      </trkpt>
      <trkpt lat="44.11155" lon="3.20747">
        <ele>607.1</ele>
        <time>2024-02-17T14:03:53Z</time>
      </trkpt>
      <trkpt lat="44.11164" lon="3.20759">
        <ele>605.5</ele>
        <time>2024-02-17T14:03:57Z</time>
      </trkpt>
      <trkpt lat="44.1117" lon="3.20773">
        <ele>605.9</ele>
        <time>2024-02-17T14:04:01Z</time>
      </trkpt>
      <trkpt lat="44.11177" lon="3.20786">
        <ele>602.9</ele>
        <time>2024-02-17T14:04:04Z</time>
      </trkpt>
      <trkpt lat="44.11185" lon="3.20792">
        <ele>598.8</ele>
        <time>2024-02-17T14:04:09Z</time>
      </trkpt>
      <trkpt lat="44.11195" lon="3.20795">
        <ele>594</ele>
        <time>2024-02-17T14:04:14Z</time>
      </trkpt>
      <trkpt lat="44.11206" lon="3.20797">
        <ele>589.7</ele>
        <time>2024-02-17T14:04:18Z</time>
      </trkpt>
      <trkpt lat="44.11216" lon="3.20798">
        <ele>585.7</ele>
        <time>2024-02-17T14:04:24Z</time>
      </trkpt>
      <trkpt lat="44.1122" lon="3.2081">
        <ele>585.1</ele>
        <time>2024-02-17T14:04:32Z</time>
      </trkpt>
      <trkpt lat="44.11223" lon="3.20826">
        <ele>584.6</ele>
        <time>2024-02-17T14:04:36Z</time>
      </trkpt>
      <trkpt lat="44.11232" lon="3.20834">
        <ele>582.4</ele>
        <time>2024-02-17T14:04:42Z</time>
      </trkpt>
      <trkpt lat="44.11242" lon="3.20834">
        <ele>579.5</ele>
        <time>2024-02-17T14:04:46Z</time>
      </trkpt>
      <trkpt lat="44.11251" lon="3.20833">
        <ele>577.2</ele>
        <time>2024-02-17T14:04:49Z</time>
      </trkpt>
      <trkpt lat="44.11259" lon="3.2084">
        <ele>579</ele>
        <time>2024-02-17T14:04:54Z</time>
      </trkpt>
      <trkpt lat="44.11268" lon="3.20846">
        <ele>579.2</ele>
        <time>2024-02-17T14:04:58Z</time>
      </trkpt>
      <trkpt lat="44.11277" lon="3.20851">
        <ele>577.9</ele>
        <time>2024-02-17T14:05:02Z</time>
      </trkpt>
      <trkpt lat="44.11287" lon="3.20857">
        <ele>576.2</ele>
        <time>2024-02-17T14:05:06Z</time>
      </trkpt>
      <trkpt lat="44.11298" lon="3.2086">
        <ele>574.8</ele>
        <time>2024-02-17T14:05:10Z</time>
      </trkpt>
      <trkpt lat="44.11308" lon="3.2086">
        <ele>574.3</ele>
        <time>2024-02-17T14:05:13Z</time>
      </trkpt>
      <trkpt lat="44.11318" lon="3.2086">
        <ele>574.2</ele>
        <time>2024-02-17T14:05:17Z</time>
      </trkpt>
      <trkpt lat="44.11328" lon="3.20863">
        <ele>574.7</ele>
        <time>2024-02-17T14:05:21Z</time>
      </trkpt>
      <trkpt lat="44.11337" lon="3.20863">
        <ele>573.9</ele>
        <time>2024-02-17T14:05:24Z</time>
      </trkpt>
      <trkpt lat="44.11346" lon="3.20868">
        <ele>573.3</ele>
        <time>2024-02-17T14:05:28Z</time>
      </trkpt>
      <trkpt lat="44.11356" lon="3.2087">
        <ele>571.2</ele>
        <time>2024-02-17T14:05:34Z</time>
      </trkpt>
      <trkpt lat="44.11364" lon="3.20879">
        <ele>571.7</ele>
        <time>2024-02-17T14:05:40Z</time>
      </trkpt>
      <trkpt lat="44.11371" lon="3.20891">
        <ele>573.7</ele>
        <time>2024-02-17T14:05:47Z</time>
      </trkpt>
      <trkpt lat="44.11376" lon="3.20904">
        <ele>572.4</ele>
        <time>2024-02-17T14:05:55Z</time>
      </trkpt>
      <trkpt lat="44.1138" lon="3.20918">
        <ele>568.1</ele>
        <time>2024-02-17T14:05:59Z</time>
      </trkpt>
      <trkpt lat="44.11389" lon="3.20919">
        <ele>563</ele>
        <time>2024-02-17T14:06:10Z</time>
      </trkpt>
      <trkpt lat="44.11396" lon="3.20927">
        <ele>562.3</ele>
        <time>2024-02-17T14:06:29Z</time>
      </trkpt>
      <trkpt lat="44.11406" lon="3.20941">
        <ele>553.7</ele>
        <time>2024-02-17T14:06:58Z</time>
      </trkpt>
      <trkpt lat="44.11413" lon="3.20955">
        <ele>548.5</ele>
        <time>2024-02-17T14:08:05Z</time>
      </trkpt>
      <trkpt lat="44.11422" lon="3.20961">
        <ele>544.5</ele>
        <time>2024-02-17T14:08:31Z</time>
      </trkpt>
      <trkpt lat="44.11426" lon="3.20974">
        <ele>542.4</ele>
        <time>2024-02-17T14:08:42Z</time>
      </trkpt>
      <trkpt lat="44.11432" lon="3.20986">
        <ele>542.8</ele>
        <time>2024-02-17T14:08:46Z</time>
      </trkpt>
      <trkpt lat="44.11437" lon="3.20997">
        <ele>543</ele>
        <time>2024-02-17T14:08:52Z</time>
      </trkpt>
      <trkpt lat="44.1144" lon="3.21011">
        <ele>545</ele>
        <time>2024-02-17T14:09:00Z</time>
      </trkpt>
      <trkpt lat="44.1144" lon="3.21025">
        <ele>548.5</ele>
        <time>2024-02-17T14:09:08Z</time>
      </trkpt>
      <trkpt lat="44.11439" lon="3.21038">
        <ele>550.6</ele>
        <time>2024-02-17T14:09:27Z</time>
      </trkpt>
      <trkpt lat="44.11444" lon="3.21052">
        <ele>546</ele>
        <time>2024-02-17T14:09:32Z</time>
      </trkpt>
      <trkpt lat="44.11449" lon="3.21067">
        <ele>548.9</ele>
        <time>2024-02-17T14:09:34Z</time>
      </trkpt>
      <trkpt lat="44.11458" lon="3.21066">
        <ele>551.1</ele>
        <time>2024-02-17T14:09:38Z</time>
      </trkpt>
      <trkpt lat="44.11463" lon="3.21055">
        <ele>548.5</ele>
        <time>2024-02-17T14:09:41Z</time>
      </trkpt>
      <trkpt lat="44.1147" lon="3.21043">
        <ele>545.4</ele>
        <time>2024-02-17T14:09:44Z</time>
      </trkpt>
      <trkpt lat="44.11478" lon="3.21035">
        <ele>544.6</ele>
        <time>2024-02-17T14:09:46Z</time>
      </trkpt>
      <trkpt lat="44.11486" lon="3.21028">
        <ele>544.6</ele>
        <time>2024-02-17T14:09:48Z</time>
      </trkpt>
      <trkpt lat="44.11497" lon="3.21017">
        <ele>543.5</ele>
        <time>2024-02-17T14:09:51Z</time>
      </trkpt>
      <trkpt lat="44.11505" lon="3.21009">
        <ele>542</ele>
        <time>2024-02-17T14:09:53Z</time>
      </trkpt>
      <trkpt lat="44.1151" lon="3.20995">
        <ele>538.5</ele>
        <time>2024-02-17T14:09:55Z</time>
      </trkpt>
      <trkpt lat="44.11515" lon="3.20984">
        <ele>537.4</ele>
        <time>2024-02-17T14:09:57Z</time>
      </trkpt>
      <trkpt lat="44.11518" lon="3.20969">
        <ele>535.4</ele>
        <time>2024-02-17T14:10:00Z</time>
      </trkpt>
      <trkpt lat="44.11521" lon="3.20956">
        <ele>534.9</ele>
        <time>2024-02-17T14:10:04Z</time>
      </trkpt>
      <trkpt lat="44.11529" lon="3.20946">
        <ele>536.5</ele>
        <time>2024-02-17T14:10:43Z</time>
      </trkpt>
      <trkpt lat="44.1154" lon="3.2094">
        <ele>537.8</ele>
        <time>2024-02-17T14:10:46Z</time>
      </trkpt>
      <trkpt lat="44.11548" lon="3.20934">
        <ele>537.3</ele>
        <time>2024-02-17T14:10:48Z</time>
      </trkpt>
      <trkpt lat="44.11558" lon="3.20931">
        <ele>537</ele>
        <time>2024-02-17T14:10:50Z</time>
      </trkpt>
      <trkpt lat="44.1157" lon="3.20929">
        <ele>535.1</ele>
        <time>2024-02-17T14:10:52Z</time>
      </trkpt>
      <trkpt lat="44.1158" lon="3.20926">
        <ele>533</ele>
        <time>2024-02-17T14:10:54Z</time>
      </trkpt>
      <trkpt lat="44.11589" lon="3.20922">
        <ele>532.4</ele>
        <time>2024-02-17T14:10:56Z</time>
      </trkpt>
      <trkpt lat="44.11602" lon="3.20914">
        <ele>531.9</ele>
        <time>2024-02-17T14:10:59Z</time>
      </trkpt>
      <trkpt lat="44.11612" lon="3.20906">
        <ele>530.5</ele>
        <time>2024-02-17T14:11:01Z</time>
      </trkpt>
      <trkpt lat="44.11625" lon="3.20902">
        <ele>530.7</ele>
        <time>2024-02-17T14:11:03Z</time>
      </trkpt>
      <trkpt lat="44.11635" lon="3.20897">
        <ele>529.9</ele>
        <time>2024-02-17T14:11:05Z</time>
      </trkpt>
      <trkpt lat="44.11646" lon="3.20888">
        <ele>526.6</ele>
        <time>2024-02-17T14:11:07Z</time>
      </trkpt>
      <trkpt lat="44.11656" lon="3.20884">
        <ele>524.9</ele>
        <time>2024-02-17T14:11:09Z</time>
      </trkpt>
      <trkpt lat="44.11666" lon="3.20881">
        <ele>523.6</ele>
        <time>2024-02-17T14:11:11Z</time>
      </trkpt>
      <trkpt lat="44.11676" lon="3.20877">
        <ele>520.7</ele>
        <time>2024-02-17T14:11:13Z</time>
      </trkpt>
      <trkpt lat="44.11691" lon="3.20867">
        <ele>514.7</ele>
        <time>2024-02-17T14:11:16Z</time>
      </trkpt>
      <trkpt lat="44.11704" lon="3.20861">
        <ele>510.9</ele>
        <time>2024-02-17T14:11:18Z</time>
      </trkpt>
      <trkpt lat="44.11714" lon="3.20857">
        <ele>508.5</ele>
        <time>2024-02-17T14:11:20Z</time>
      </trkpt>
      <trkpt lat="44.11725" lon="3.20855">
        <ele>506.5</ele>
        <time>2024-02-17T14:11:22Z</time>
      </trkpt>
      <trkpt lat="44.11737" lon="3.20854">
        <ele>504</ele>
        <time>2024-02-17T14:11:25Z</time>
      </trkpt>
      <trkpt lat="44.11745" lon="3.20848">
        <ele>500.7</ele>
        <time>2024-02-17T14:12:17Z</time>
      </trkpt>
      <trkpt lat="44.11755" lon="3.20845">
        <ele>497.6</ele>
        <time>2024-02-17T14:12:33Z</time>
      </trkpt>
      <trkpt lat="44.11764" lon="3.20835">
        <ele>492</ele>
        <time>2024-02-17T14:12:39Z</time>
      </trkpt>
      <trkpt lat="44.11774" lon="3.20838">
        <ele>490.6</ele>
        <time>2024-02-17T14:12:43Z</time>
      </trkpt>
      <trkpt lat="44.11785" lon="3.20836">
        <ele>486.6</ele>
        <time>2024-02-17T14:12:49Z</time>
      </trkpt>
      <trkpt lat="44.11794" lon="3.20836">
        <ele>483.6</ele>
        <time>2024-02-17T14:12:52Z</time>
      </trkpt>
      <trkpt lat="44.11806" lon="3.20839">
        <ele>480.4</ele>
        <time>2024-02-17T14:12:55Z</time>
      </trkpt>
      <trkpt lat="44.11816" lon="3.20843">
        <ele>477</ele>
        <time>2024-02-17T14:12:58Z</time>
      </trkpt>
      <trkpt lat="44.11822" lon="3.20834">
        <ele>472.1</ele>
        <time>2024-02-17T14:13:04Z</time>
      </trkpt>
      <trkpt lat="44.1183" lon="3.20839">
        <ele>469.7</ele>
        <time>2024-02-17T14:13:06Z</time>
      </trkpt>
      <trkpt lat="44.11843" lon="3.20849">
        <ele>465.5</ele>
        <time>2024-02-17T14:13:09Z</time>
      </trkpt>
      <trkpt lat="44.1185" lon="3.20858">
        <ele>463.9</ele>
        <time>2024-02-17T14:13:11Z</time>
      </trkpt>
      <trkpt lat="44.11859" lon="3.20866">
        <ele>461.3</ele>
        <time>2024-02-17T14:13:14Z</time>
      </trkpt>
      <trkpt lat="44.1187" lon="3.20874">
        <ele>457.6</ele>
        <time>2024-02-17T14:13:18Z</time>
      </trkpt>
      <trkpt lat="44.1188" lon="3.20882">
        <ele>454.6</ele>
        <time>2024-02-17T14:13:20Z</time>
      </trkpt>
      <trkpt lat="44.11891" lon="3.2089">
        <ele>451.5</ele>
        <time>2024-02-17T14:13:22Z</time>
      </trkpt>
      <trkpt lat="44.11904" lon="3.20898">
        <ele>449.1</ele>
        <time>2024-02-17T14:13:24Z</time>
      </trkpt>
      <trkpt lat="44.11915" lon="3.20904">
        <ele>447.3</ele>
        <time>2024-02-17T14:13:26Z</time>
      </trkpt>
      <trkpt lat="44.11924" lon="3.20911">
        <ele>447.8</ele>
        <time>2024-02-17T14:13:29Z</time>
      </trkpt>
      <trkpt lat="44.11933" lon="3.20917">
        <ele>447.9</ele>
        <time>2024-02-17T14:13:32Z</time>
      </trkpt>
      <trkpt lat="44.11944" lon="3.20917">
        <ele>444.3</ele>
        <time>2024-02-17T14:13:35Z</time>
      </trkpt>
      <trkpt lat="44.11953" lon="3.20921">
        <ele>444</ele>
        <time>2024-02-17T14:13:37Z</time>
      </trkpt>
      <trkpt lat="44.11963" lon="3.20926">
        <ele>443.8</ele>
        <time>2024-02-17T14:13:39Z</time>
      </trkpt>
      <trkpt lat="44.11972" lon="3.2093">
        <ele>443.3</ele>
        <time>2024-02-17T14:13:41Z</time>
      </trkpt>
      <trkpt lat="44.11981" lon="3.20935">
        <ele>442.1</ele>
        <time>2024-02-17T14:13:43Z</time>
      </trkpt>
      <trkpt lat="44.1199" lon="3.20937">
        <ele>439.5</ele>
        <time>2024-02-17T14:13:45Z</time>
      </trkpt>
      <trkpt lat="44.12" lon="3.2094">
        <ele>436.9</ele>
        <time>2024-02-17T14:13:47Z</time>
      </trkpt>
      <trkpt lat="44.1201" lon="3.20947">
        <ele>436.4</ele>
        <time>2024-02-17T14:13:50Z</time>
      </trkpt>
      <trkpt lat="44.1202" lon="3.20961">
        <ele>436.3</ele>
        <time>2024-02-17T14:13:53Z</time>
      </trkpt>
      <trkpt lat="44.12031" lon="3.20969">
        <ele>431.1</ele>
        <time>2024-02-17T14:13:55Z</time>
      </trkpt>
      <trkpt lat="44.12039" lon="3.20976">
        <ele>427.6</ele>
        <time>2024-02-17T14:13:57Z</time>
      </trkpt>
      <trkpt lat="44.12048" lon="3.20983">
        <ele>424.1</ele>
        <time>2024-02-17T14:13:59Z</time>
      </trkpt>
      <trkpt lat="44.12057" lon="3.20991">
        <ele>421.4</ele>
        <time>2024-02-17T14:14:02Z</time>
      </trkpt>
      <trkpt lat="44.1207" lon="3.21">
        <ele>419.8</ele>
        <time>2024-02-17T14:14:05Z</time>
      </trkpt>
      <trkpt lat="44.12081" lon="3.21006">
        <ele>417.6</ele>
        <time>2024-02-17T14:14:07Z</time>
      </trkpt>
      <trkpt lat="44.12092" lon="3.21011">
        <ele>415.3</ele>
        <time>2024-02-17T14:14:09Z</time>
      </trkpt>
      <trkpt lat="44.121" lon="3.21021">
        <ele>414.6</ele>
        <time>2024-02-17T14:14:12Z</time>
      </trkpt>
      <trkpt lat="44.12102" lon="3.21034">
        <ele>415.5</ele>
        <time>2024-02-17T14:14:15Z</time>
      </trkpt>
      <trkpt lat="44.12099" lon="3.21048">
        <ele>418</ele>
        <time>2024-02-17T14:14:19Z</time>
      </trkpt>
      <trkpt lat="44.12089" lon="3.21057">
        <ele>424.4</ele>
        <time>2024-02-17T14:14:23Z</time>
      </trkpt>
      <trkpt lat="44.12085" lon="3.21071">
        <ele>425.9</ele>
        <time>2024-02-17T14:14:27Z</time>
      </trkpt>
      <trkpt lat="44.12081" lon="3.21083">
        <ele>427.4</ele>
        <time>2024-02-17T14:14:30Z</time>
      </trkpt>
      <trkpt lat="44.12071" lon="3.21097">
        <ele>426.3</ele>
        <time>2024-02-17T14:14:33Z</time>
      </trkpt>
      <trkpt lat="44.12065" lon="3.21106">
        <ele>424.9</ele>
        <time>2024-02-17T14:14:35Z</time>
      </trkpt>
      <trkpt lat="44.12056" lon="3.21118">
        <ele>422.3</ele>
        <time>2024-02-17T14:14:38Z</time>
      </trkpt>
      <trkpt lat="44.12048" lon="3.21131">
        <ele>419.5</ele>
        <time>2024-02-17T14:14:41Z</time>
      </trkpt>
      <trkpt lat="44.12043" lon="3.21146">
        <ele>414.8</ele>
        <time>2024-02-17T14:14:44Z</time>
      </trkpt>
      <trkpt lat="44.12041" lon="3.21159">
        <ele>409</ele>
        <time>2024-02-17T14:14:47Z</time>
      </trkpt>
      <trkpt lat="44.12034" lon="3.21168">
        <ele>409.7</ele>
        <time>2024-02-17T14:14:51Z</time>
      </trkpt>
      <trkpt lat="44.12024" lon="3.21175">
        <ele>411.1</ele>
        <time>2024-02-17T14:14:55Z</time>
      </trkpt>
      <trkpt lat="44.12014" lon="3.21177">
        <ele>416</ele>
        <time>2024-02-17T14:14:58Z</time>
      </trkpt>
      <trkpt lat="44.12005" lon="3.21181">
        <ele>417.3</ele>
        <time>2024-02-17T14:15:01Z</time>
      </trkpt>
      <trkpt lat="44.11998" lon="3.21191">
        <ele>409.3</ele>
        <time>2024-02-17T14:15:05Z</time>
      </trkpt>
      <trkpt lat="44.11992" lon="3.21205">
        <ele>405.9</ele>
        <time>2024-02-17T14:15:08Z</time>
      </trkpt>
      <trkpt lat="44.11991" lon="3.21218">
        <ele>403</ele>
        <time>2024-02-17T14:15:11Z</time>
      </trkpt>
      <trkpt lat="44.11983" lon="3.21227">
        <ele>405.8</ele>
        <time>2024-02-17T14:15:16Z</time>
      </trkpt>
      <trkpt lat="44.11976" lon="3.21241">
        <ele>399.3</ele>
        <time>2024-02-17T14:15:18Z</time>
      </trkpt>
      <trkpt lat="44.11966" lon="3.2125">
        <ele>396.3</ele>
        <time>2024-02-17T14:15:20Z</time>
      </trkpt>
      <trkpt lat="44.11958" lon="3.21258">
        <ele>399.8</ele>
        <time>2024-02-17T14:15:22Z</time>
      </trkpt>
      <trkpt lat="44.11953" lon="3.21272">
        <ele>398.3</ele>
        <time>2024-02-17T14:15:24Z</time>
      </trkpt>
      <trkpt lat="44.11946" lon="3.21281">
        <ele>398.1</ele>
        <time>2024-02-17T14:15:26Z</time>
      </trkpt>
      <trkpt lat="44.11936" lon="3.21288">
        <ele>404.1</ele>
        <time>2024-02-17T14:15:29Z</time>
      </trkpt>
      <trkpt lat="44.11929" lon="3.21296">
        <ele>407.7</ele>
        <time>2024-02-17T14:15:31Z</time>
      </trkpt>
      <trkpt lat="44.11925" lon="3.21307">
        <ele>408</ele>
        <time>2024-02-17T14:15:34Z</time>
      </trkpt>
      <trkpt lat="44.11922" lon="3.21319">
        <ele>407.7</ele>
        <time>2024-02-17T14:15:37Z</time>
      </trkpt>
      <trkpt lat="44.11922" lon="3.21334">
        <ele>404.8</ele>
        <time>2024-02-17T14:15:40Z</time>
      </trkpt>
      <trkpt lat="44.11922" lon="3.21347">
        <ele>402.4</ele>
        <time>2024-02-17T14:15:42Z</time>
      </trkpt>
      <trkpt lat="44.11925" lon="3.2136">
        <ele>398.9</ele>
        <time>2024-02-17T14:15:45Z</time>
      </trkpt>
      <trkpt lat="44.11932" lon="3.21378">
        <ele>396.3</ele>
        <time>2024-02-17T14:15:48Z</time>
      </trkpt>
      <trkpt lat="44.11934" lon="3.21394">
        <ele>396.1</ele>
        <time>2024-02-17T14:15:50Z</time>
      </trkpt>
      <trkpt lat="44.11937" lon="3.21409">
        <ele>395.8</ele>
        <time>2024-02-17T14:15:53Z</time>
      </trkpt>
      <trkpt lat="44.11941" lon="3.21424">
        <ele>395.5</ele>
        <time>2024-02-17T14:15:56Z</time>
      </trkpt>
      <trkpt lat="44.11942" lon="3.21437">
        <ele>396.9</ele>
        <time>2024-02-17T14:15:58Z</time>
      </trkpt>
      <trkpt lat="44.11946" lon="3.21455">
        <ele>397.4</ele>
        <time>2024-02-17T14:16:01Z</time>
      </trkpt>
      <trkpt lat="44.11947" lon="3.21469">
        <ele>398.1</ele>
        <time>2024-02-17T14:16:05Z</time>
      </trkpt>
      <trkpt lat="44.11951" lon="3.21481">
        <ele>398.1</ele>
        <time>2024-02-17T14:16:08Z</time>
      </trkpt>
      <trkpt lat="44.11957" lon="3.21494">
        <ele>397.1</ele>
        <time>2024-02-17T14:16:14Z</time>
      </trkpt>
      <trkpt lat="44.11964" lon="3.2151">
        <ele>395.8</ele>
        <time>2024-02-17T14:16:18Z</time>
      </trkpt>
      <trkpt lat="44.1197" lon="3.21522">
        <ele>394.5</ele>
        <time>2024-02-17T14:16:20Z</time>
      </trkpt>
      <trkpt lat="44.11976" lon="3.21536">
        <ele>395.4</ele>
        <time>2024-02-17T14:16:22Z</time>
      </trkpt>
      <trkpt lat="44.11982" lon="3.2155">
        <ele>396.6</ele>
        <time>2024-02-17T14:16:24Z</time>
      </trkpt>
      <trkpt lat="44.11989" lon="3.21562">
        <ele>396.1</ele>
        <time>2024-02-17T14:16:27Z</time>
      </trkpt>
      <trkpt lat="44.11997" lon="3.21575">
        <ele>395.6</ele>
        <time>2024-02-17T14:16:30Z</time>
      </trkpt>
      <trkpt lat="44.12005" lon="3.21587">
        <ele>396.1</ele>
        <time>2024-02-17T14:16:33Z</time>
      </trkpt>
      <trkpt lat="44.12015" lon="3.21599">
        <ele>396</ele>
        <time>2024-02-17T14:16:36Z</time>
      </trkpt>
      <trkpt lat="44.12023" lon="3.21608">
        <ele>394.5</ele>
        <time>2024-02-17T14:16:38Z</time>
      </trkpt>
      <trkpt lat="44.1203" lon="3.21619">
        <ele>394.7</ele>
        <time>2024-02-17T14:16:41Z</time>
      </trkpt>
      <trkpt lat="44.12038" lon="3.2163">
        <ele>395.4</ele>
        <time>2024-02-17T14:16:44Z</time>
      </trkpt>
      <trkpt lat="44.12047" lon="3.21638">
        <ele>393.7</ele>
        <time>2024-02-17T14:16:46Z</time>
      </trkpt>
      <trkpt lat="44.12055" lon="3.21645">
        <ele>392.5</ele>
        <time>2024-02-17T14:16:48Z</time>
      </trkpt>
      <trkpt lat="44.12061" lon="3.21655">
        <ele>394</ele>
        <time>2024-02-17T14:16:51Z</time>
      </trkpt>
      <trkpt lat="44.1207" lon="3.21662">
        <ele>393.6</ele>
        <time>2024-02-17T14:16:53Z</time>
      </trkpt>
      <trkpt lat="44.12077" lon="3.21671">
        <ele>393</ele>
        <time>2024-02-17T14:16:55Z</time>
      </trkpt>
      <trkpt lat="44.12087" lon="3.21681">
        <ele>392.9</ele>
        <time>2024-02-17T14:16:58Z</time>
      </trkpt>
      <trkpt lat="44.12095" lon="3.2169">
        <ele>393.1</ele>
        <time>2024-02-17T14:17:01Z</time>
      </trkpt>
      <trkpt lat="44.12106" lon="3.21699">
        <ele>392.4</ele>
        <time>2024-02-17T14:17:04Z</time>
      </trkpt>
      <trkpt lat="44.12115" lon="3.21707">
        <ele>392.7</ele>
        <time>2024-02-17T14:17:06Z</time>
      </trkpt>
      <trkpt lat="44.12123" lon="3.21714">
        <ele>393</ele>
        <time>2024-02-17T14:17:08Z</time>
      </trkpt>
      <trkpt lat="44.1213" lon="3.21722">
        <ele>392.9</ele>
        <time>2024-02-17T14:17:12Z</time>
      </trkpt>
      <trkpt lat="44.12139" lon="3.21733">
        <ele>393.2</ele>
        <time>2024-02-17T14:17:16Z</time>
      </trkpt>
      <trkpt lat="44.12147" lon="3.21741">
        <ele>393.6</ele>
        <time>2024-02-17T14:17:20Z</time>
      </trkpt>
      <trkpt lat="44.12151" lon="3.21754">
        <ele>394</ele>
        <time>2024-02-17T14:17:24Z</time>
      </trkpt>
      <trkpt lat="44.12159" lon="3.21764">
        <ele>393.8</ele>
        <time>2024-02-17T14:17:27Z</time>
      </trkpt>
      <trkpt lat="44.12167" lon="3.21773">
        <ele>393.6</ele>
        <time>2024-02-17T14:17:30Z</time>
      </trkpt>
      <trkpt lat="44.12171" lon="3.21787">
        <ele>394.5</ele>
        <time>2024-02-17T14:17:33Z</time>
      </trkpt>
      <trkpt lat="44.12176" lon="3.21799">
        <ele>394.8</ele>
        <time>2024-02-17T14:17:36Z</time>
      </trkpt>
      <trkpt lat="44.1218" lon="3.2181">
        <ele>394.8</ele>
        <time>2024-02-17T14:17:39Z</time>
      </trkpt>
      <trkpt lat="44.12183" lon="3.21823">
        <ele>394.9</ele>
        <time>2024-02-17T14:17:44Z</time>
      </trkpt>
      <trkpt lat="44.1219" lon="3.21837">
        <ele>394.5</ele>
        <time>2024-02-17T14:17:48Z</time>
      </trkpt>
      <trkpt lat="44.12197" lon="3.21851">
        <ele>395.3</ele>
        <time>2024-02-17T14:17:51Z</time>
      </trkpt>
      <trkpt lat="44.12203" lon="3.21866">
        <ele>395.8</ele>
        <time>2024-02-17T14:17:54Z</time>
      </trkpt>
      <trkpt lat="44.12205" lon="3.2188">
        <ele>396.4</ele>
        <time>2024-02-17T14:17:57Z</time>
      </trkpt>
      <trkpt lat="44.12209" lon="3.21892">
        <ele>396</ele>
        <time>2024-02-17T14:18:01Z</time>
      </trkpt>
      <trkpt lat="44.12213" lon="3.21904">
        <ele>395.6</ele>
        <time>2024-02-17T14:18:04Z</time>
      </trkpt>
      <trkpt lat="44.12216" lon="3.21916">
        <ele>395.2</ele>
        <time>2024-02-17T14:18:07Z</time>
      </trkpt>
      <trkpt lat="44.1222" lon="3.21931">
        <ele>395.5</ele>
        <time>2024-02-17T14:18:11Z</time>
      </trkpt>
      <trkpt lat="44.12225" lon="3.21945">
        <ele>395.7</ele>
        <time>2024-02-17T14:18:14Z</time>
      </trkpt>
      <trkpt lat="44.12226" lon="3.21962">
        <ele>398.4</ele>
        <time>2024-02-17T14:18:17Z</time>
      </trkpt>
      <trkpt lat="44.12228" lon="3.21976">
        <ele>400.1</ele>
        <time>2024-02-17T14:18:20Z</time>
      </trkpt>
      <trkpt lat="44.12229" lon="3.21991">
        <ele>401.8</ele>
        <time>2024-02-17T14:18:24Z</time>
      </trkpt>
      <trkpt lat="44.12231" lon="3.22005">
        <ele>403.1</ele>
        <time>2024-02-17T14:18:27Z</time>
      </trkpt>
      <trkpt lat="44.12223" lon="3.22013">
        <ele>408.9</ele>
        <time>2024-02-17T14:18:31Z</time>
      </trkpt>
      <trkpt lat="44.12224" lon="3.22032">
        <ele>412.1</ele>
        <time>2024-02-17T14:18:39Z</time>
      </trkpt>
      <trkpt lat="44.12225" lon="3.2205">
        <ele>412.6</ele>
        <time>2024-02-17T14:18:45Z</time>
      </trkpt>
      <trkpt lat="44.12225" lon="3.22063">
        <ele>413.5</ele>
        <time>2024-02-17T14:18:48Z</time>
      </trkpt>
      <trkpt lat="44.12228" lon="3.2208">
        <ele>412.4</ele>
        <time>2024-02-17T14:18:52Z</time>
      </trkpt>
      <trkpt lat="44.12231" lon="3.22093">
        <ele>411.1</ele>
        <time>2024-02-17T14:18:56Z</time>
      </trkpt>
      <trkpt lat="44.12235" lon="3.22106">
        <ele>409</ele>
        <time>2024-02-17T14:19:00Z</time>
      </trkpt>
      <trkpt lat="44.12239" lon="3.22121">
        <ele>406.9</ele>
        <time>2024-02-17T14:19:03Z</time>
      </trkpt>
      <trkpt lat="44.1224" lon="3.22137">
        <ele>406.9</ele>
        <time>2024-02-17T14:19:07Z</time>
      </trkpt>
      <trkpt lat="44.12247" lon="3.22151">
        <ele>402.3</ele>
        <time>2024-02-17T14:19:10Z</time>
      </trkpt>
      <trkpt lat="44.12252" lon="3.22161">
        <ele>400.7</ele>
        <time>2024-02-17T14:19:13Z</time>
      </trkpt>
      <trkpt lat="44.12262" lon="3.2217">
        <ele>398.8</ele>
        <time>2024-02-17T14:19:18Z</time>
      </trkpt>
      <trkpt lat="44.12272" lon="3.22173">
        <ele>395.7</ele>
        <time>2024-02-17T14:19:22Z</time>
      </trkpt>
      <trkpt lat="44.12282" lon="3.22174">
        <ele>394.1</ele>
        <time>2024-02-17T14:19:27Z</time>
      </trkpt>
      <trkpt lat="44.1229" lon="3.22164">
        <ele>394.9</ele>
        <time>2024-02-17T14:19:32Z</time>
      </trkpt>
      <trkpt lat="44.123" lon="3.22161">
        <ele>395.7</ele>
        <time>2024-02-17T14:19:37Z</time>
      </trkpt>
      <trkpt lat="44.1231" lon="3.22161">
        <ele>397.2</ele>
        <time>2024-02-17T14:19:41Z</time>
      </trkpt>
      <trkpt lat="44.1232" lon="3.2216">
        <ele>399.6</ele>
        <time>2024-02-17T14:19:45Z</time>
      </trkpt>
      <trkpt lat="44.12325" lon="3.22149">
        <ele>401.7</ele>
        <time>2024-02-17T14:19:51Z</time>
      </trkpt>
      <trkpt lat="44.12327" lon="3.22135">
        <ele>403.6</ele>
        <time>2024-02-17T14:20:00Z</time>
      </trkpt>
      <trkpt lat="44.12325" lon="3.22122">
        <ele>404.4</ele>
        <time>2024-02-17T14:20:05Z</time>
      </trkpt>
      <trkpt lat="44.12322" lon="3.22109">
        <ele>404.9</ele>
        <time>2024-02-17T14:20:11Z</time>
      </trkpt>
      <trkpt lat="44.12317" lon="3.22096">
        <ele>404.1</ele>
        <time>2024-02-17T14:20:17Z</time>
      </trkpt>
      <trkpt lat="44.12311" lon="3.22083">
        <ele>402.8</ele>
        <time>2024-02-17T14:20:21Z</time>
      </trkpt>
      <trkpt lat="44.12303" lon="3.22074">
        <ele>400.3</ele>
        <time>2024-02-17T14:20:39Z</time>
      </trkpt>
      <trkpt lat="44.12305" lon="3.22087">
        <ele>400.7</ele>
        <time>2024-02-17T14:22:11Z</time>
      </trkpt>
      <trkpt lat="44.12309" lon="3.22099">
        <ele>401.5</ele>
        <time>2024-02-17T14:22:18Z</time>
      </trkpt>
      <trkpt lat="44.12311" lon="3.22112">
        <ele>401.5</ele>
        <time>2024-02-17T14:22:24Z</time>
      </trkpt>
      <trkpt lat="44.12315" lon="3.22125">
        <ele>401.2</ele>
        <time>2024-02-17T14:22:30Z</time>
      </trkpt>
      <trkpt lat="44.12318" lon="3.22138">
        <ele>400.7</ele>
        <time>2024-02-17T14:22:35Z</time>
      </trkpt>
      <trkpt lat="44.12322" lon="3.22152">
        <ele>400.7</ele>
        <time>2024-02-17T14:22:40Z</time>
      </trkpt>
      <trkpt lat="44.12325" lon="3.22164">
        <ele>400.4</ele>
        <time>2024-02-17T14:22:44Z</time>
      </trkpt>
      <trkpt lat="44.12329" lon="3.22178">
        <ele>400.8</ele>
        <time>2024-02-17T14:22:49Z</time>
      </trkpt>
      <trkpt lat="44.12334" lon="3.22191">
        <ele>401.3</ele>
        <time>2024-02-17T14:22:54Z</time>
      </trkpt>
      <trkpt lat="44.12339" lon="3.22204">
        <ele>402.1</ele>
        <time>2024-02-17T14:22:59Z</time>
      </trkpt>
      <trkpt lat="44.12344" lon="3.22216">
        <ele>402.7</ele>
        <time>2024-02-17T14:23:03Z</time>
      </trkpt>
      <trkpt lat="44.1235" lon="3.22226">
        <ele>403</ele>
        <time>2024-02-17T14:23:07Z</time>
      </trkpt>
      <trkpt lat="44.12358" lon="3.22234">
        <ele>403.3</ele>
        <time>2024-02-17T14:23:11Z</time>
      </trkpt>
      <trkpt lat="44.12368" lon="3.22243">
        <ele>403.7</ele>
        <time>2024-02-17T14:23:15Z</time>
      </trkpt>
      <trkpt lat="44.12378" lon="3.22251">
        <ele>403.7</ele>
        <time>2024-02-17T14:23:19Z</time>
      </trkpt>
      <trkpt lat="44.12387" lon="3.22255">
        <ele>404.3</ele>
        <time>2024-02-17T14:23:22Z</time>
      </trkpt>
      <trkpt lat="44.12397" lon="3.22259">
        <ele>403.5</ele>
        <time>2024-02-17T14:23:25Z</time>
      </trkpt>
      <trkpt lat="44.12406" lon="3.22262">
        <ele>402.7</ele>
        <time>2024-02-17T14:23:28Z</time>
      </trkpt>
      <trkpt lat="44.12416" lon="3.22266">
        <ele>401.9</ele>
        <time>2024-02-17T14:23:31Z</time>
      </trkpt>
      <trkpt lat="44.12425" lon="3.22272">
        <ele>402.5</ele>
        <time>2024-02-17T14:23:34Z</time>
      </trkpt>
      <trkpt lat="44.12434" lon="3.22282">
        <ele>403.4</ele>
        <time>2024-02-17T14:23:37Z</time>
      </trkpt>
      <trkpt lat="44.12439" lon="3.22294">
        <ele>404</ele>
        <time>2024-02-17T14:23:40Z</time>
      </trkpt>
      <trkpt lat="44.12444" lon="3.22307">
        <ele>404.8</ele>
        <time>2024-02-17T14:23:43Z</time>
      </trkpt>
      <trkpt lat="44.12452" lon="3.22318">
        <ele>405.4</ele>
        <time>2024-02-17T14:23:46Z</time>
      </trkpt>
      <trkpt lat="44.1246" lon="3.22331">
        <ele>405</ele>
        <time>2024-02-17T14:23:49Z</time>
      </trkpt>
      <trkpt lat="44.12468" lon="3.22342">
        <ele>404.9</ele>
        <time>2024-02-17T14:23:52Z</time>
      </trkpt>
      <trkpt lat="44.12477" lon="3.22354">
        <ele>405.7</ele>
        <time>2024-02-17T14:23:55Z</time>
      </trkpt>
      <trkpt lat="44.12485" lon="3.22364">
        <ele>406.4</ele>
        <time>2024-02-17T14:23:58Z</time>
      </trkpt>
      <trkpt lat="44.12492" lon="3.22379">
        <ele>405.4</ele>
        <time>2024-02-17T14:24:01Z</time>
      </trkpt>
      <trkpt lat="44.12498" lon="3.22393">
        <ele>404.6</ele>
        <time>2024-02-17T14:24:04Z</time>
      </trkpt>
      <trkpt lat="44.12502" lon="3.22408">
        <ele>405.1</ele>
        <time>2024-02-17T14:24:07Z</time>
      </trkpt>
      <trkpt lat="44.12506" lon="3.22424">
        <ele>406.1</ele>
        <time>2024-02-17T14:24:10Z</time>
      </trkpt>
      <trkpt lat="44.12507" lon="3.22439">
        <ele>405.8</ele>
        <time>2024-02-17T14:24:13Z</time>
      </trkpt>
      <trkpt lat="44.12508" lon="3.22455">
        <ele>405.9</ele>
        <time>2024-02-17T14:24:16Z</time>
      </trkpt>
      <trkpt lat="44.12508" lon="3.22471">
        <ele>405.9</ele>
        <time>2024-02-17T14:24:19Z</time>
      </trkpt>
      <trkpt lat="44.12508" lon="3.22485">
        <ele>405.4</ele>
        <time>2024-02-17T14:24:22Z</time>
      </trkpt>
      <trkpt lat="44.12508" lon="3.22501">
        <ele>404.9</ele>
        <time>2024-02-17T14:24:25Z</time>
      </trkpt>
      <trkpt lat="44.12508" lon="3.22518">
        <ele>404.6</ele>
        <time>2024-02-17T14:24:28Z</time>
      </trkpt>
      <trkpt lat="44.12509" lon="3.22536">
        <ele>404.7</ele>
        <time>2024-02-17T14:24:31Z</time>
      </trkpt>
      <trkpt lat="44.12511" lon="3.22553">
        <ele>405.2</ele>
        <time>2024-02-17T14:24:34Z</time>
      </trkpt>
      <trkpt lat="44.12513" lon="3.2257">
        <ele>405.5</ele>
        <time>2024-02-17T14:24:37Z</time>
      </trkpt>
      <trkpt lat="44.12514" lon="3.22587">
        <ele>405.4</ele>
        <time>2024-02-17T14:24:40Z</time>
      </trkpt>
      <trkpt lat="44.12515" lon="3.22604">
        <ele>405.4</ele>
        <time>2024-02-17T14:24:43Z</time>
      </trkpt>
      <trkpt lat="44.12516" lon="3.22622">
        <ele>405.7</ele>
        <time>2024-02-17T14:24:46Z</time>
      </trkpt>
      <trkpt lat="44.12517" lon="3.22638">
        <ele>406.2</ele>
        <time>2024-02-17T14:24:49Z</time>
      </trkpt>
      <trkpt lat="44.12515" lon="3.22653">
        <ele>403.8</ele>
        <time>2024-02-17T14:24:52Z</time>
      </trkpt>
      <trkpt lat="44.12513" lon="3.22669">
        <ele>401.9</ele>
        <time>2024-02-17T14:24:55Z</time>
      </trkpt>
      <trkpt lat="44.12509" lon="3.22686">
        <ele>402.2</ele>
        <time>2024-02-17T14:24:58Z</time>
      </trkpt>
      <trkpt lat="44.12505" lon="3.22702">
        <ele>402.7</ele>
        <time>2024-02-17T14:25:01Z</time>
      </trkpt>
      <trkpt lat="44.12502" lon="3.22714">
        <ele>403.5</ele>
        <time>2024-02-17T14:25:03Z</time>
      </trkpt>
      <trkpt lat="44.12498" lon="3.2273">
        <ele>404.2</ele>
        <time>2024-02-17T14:25:06Z</time>
      </trkpt>
      <trkpt lat="44.12497" lon="3.22744">
        <ele>405.2</ele>
        <time>2024-02-17T14:25:09Z</time>
      </trkpt>
      <trkpt lat="44.12493" lon="3.22757">
        <ele>405</ele>
        <time>2024-02-17T14:25:12Z</time>
      </trkpt>
      <trkpt lat="44.12487" lon="3.22774">
        <ele>404.8</ele>
        <time>2024-02-17T14:25:15Z</time>
      </trkpt>
      <trkpt lat="44.12482" lon="3.22785">
        <ele>404.5</ele>
        <time>2024-02-17T14:25:17Z</time>
      </trkpt>
      <trkpt lat="44.12476" lon="3.22796">
        <ele>404.4</ele>
        <time>2024-02-17T14:25:19Z</time>
      </trkpt>
      <trkpt lat="44.12471" lon="3.22808">
        <ele>405.1</ele>
        <time>2024-02-17T14:25:21Z</time>
      </trkpt>
      <trkpt lat="44.12463" lon="3.22822">
        <ele>405.3</ele>
        <time>2024-02-17T14:25:24Z</time>
      </trkpt>
      <trkpt lat="44.12457" lon="3.22832">
        <ele>405.4</ele>
        <time>2024-02-17T14:25:26Z</time>
      </trkpt>
      <trkpt lat="44.12448" lon="3.22844">
        <ele>406.2</ele>
        <time>2024-02-17T14:25:29Z</time>
      </trkpt>
      <trkpt lat="44.12441" lon="3.22853">
        <ele>406.6</ele>
        <time>2024-02-17T14:25:31Z</time>
      </trkpt>
      <trkpt lat="44.12434" lon="3.22861">
        <ele>406.2</ele>
        <time>2024-02-17T14:25:33Z</time>
      </trkpt>
      <trkpt lat="44.12425" lon="3.22874">
        <ele>407.2</ele>
        <time>2024-02-17T14:25:36Z</time>
      </trkpt>
      <trkpt lat="44.12418" lon="3.22883">
        <ele>407.6</ele>
        <time>2024-02-17T14:25:38Z</time>
      </trkpt>
      <trkpt lat="44.12411" lon="3.22892">
        <ele>408.5</ele>
        <time>2024-02-17T14:25:40Z</time>
      </trkpt>
      <trkpt lat="44.12404" lon="3.22902">
        <ele>409.7</ele>
        <time>2024-02-17T14:25:42Z</time>
      </trkpt>
      <trkpt lat="44.12397" lon="3.22909">
        <ele>409.2</ele>
        <time>2024-02-17T14:25:44Z</time>
      </trkpt>
      <trkpt lat="44.12389" lon="3.22916">
        <ele>407.9</ele>
        <time>2024-02-17T14:25:46Z</time>
      </trkpt>
      <trkpt lat="44.12378" lon="3.22927">
        <ele>408.5</ele>
        <time>2024-02-17T14:25:49Z</time>
      </trkpt>
      <trkpt lat="44.1237" lon="3.22932">
        <ele>407.8</ele>
        <time>2024-02-17T14:25:51Z</time>
      </trkpt>
      <trkpt lat="44.12361" lon="3.22937">
        <ele>406.8</ele>
        <time>2024-02-17T14:25:53Z</time>
      </trkpt>
      <trkpt lat="44.12352" lon="3.22943">
        <ele>406.3</ele>
        <time>2024-02-17T14:25:55Z</time>
      </trkpt>
      <trkpt lat="44.1234" lon="3.22951">
        <ele>406.2</ele>
        <time>2024-02-17T14:25:58Z</time>
      </trkpt>
      <trkpt lat="44.12328" lon="3.22959">
        <ele>406.1</ele>
        <time>2024-02-17T14:26:01Z</time>
      </trkpt>
      <trkpt lat="44.12317" lon="3.22967">
        <ele>406.2</ele>
        <time>2024-02-17T14:26:04Z</time>
      </trkpt>
      <trkpt lat="44.12306" lon="3.22976">
        <ele>406.9</ele>
        <time>2024-02-17T14:26:07Z</time>
      </trkpt>
      <trkpt lat="44.12295" lon="3.22986">
        <ele>408.6</ele>
        <time>2024-02-17T14:26:10Z</time>
      </trkpt>
      <trkpt lat="44.12286" lon="3.22994">
        <ele>408.9</ele>
        <time>2024-02-17T14:26:12Z</time>
      </trkpt>
      <trkpt lat="44.12277" lon="3.23">
        <ele>407.9</ele>
        <time>2024-02-17T14:26:14Z</time>
      </trkpt>
      <trkpt lat="44.12267" lon="3.23005">
        <ele>408.6</ele>
        <time>2024-02-17T14:26:16Z</time>
      </trkpt>
      <trkpt lat="44.12258" lon="3.2301">
        <ele>408.9</ele>
        <time>2024-02-17T14:26:18Z</time>
      </trkpt>
      <trkpt lat="44.12248" lon="3.23015">
        <ele>408.6</ele>
        <time>2024-02-17T14:26:20Z</time>
      </trkpt>
      <trkpt lat="44.12239" lon="3.23019">
        <ele>408.7</ele>
        <time>2024-02-17T14:26:22Z</time>
      </trkpt>
      <trkpt lat="44.1223" lon="3.23023">
        <ele>408.7</ele>
        <time>2024-02-17T14:26:24Z</time>
      </trkpt>
      <trkpt lat="44.1222" lon="3.23028">
        <ele>408.7</ele>
        <time>2024-02-17T14:26:26Z</time>
      </trkpt>
      <trkpt lat="44.1221" lon="3.23032">
        <ele>408.2</ele>
        <time>2024-02-17T14:26:28Z</time>
      </trkpt>
      <trkpt lat="44.122" lon="3.23035">
        <ele>407</ele>
        <time>2024-02-17T14:26:30Z</time>
      </trkpt>
      <trkpt lat="44.1219" lon="3.23039">
        <ele>405.9</ele>
        <time>2024-02-17T14:26:32Z</time>
      </trkpt>
      <trkpt lat="44.12181" lon="3.23045">
        <ele>405.7</ele>
        <time>2024-02-17T14:26:34Z</time>
      </trkpt>
      <trkpt lat="44.12172" lon="3.2305">
        <ele>405.4</ele>
        <time>2024-02-17T14:26:36Z</time>
      </trkpt>
      <trkpt lat="44.12162" lon="3.23055">
        <ele>405.3</ele>
        <time>2024-02-17T14:26:38Z</time>
      </trkpt>
      <trkpt lat="44.12152" lon="3.23061">
        <ele>406.3</ele>
        <time>2024-02-17T14:26:40Z</time>
      </trkpt>
      <trkpt lat="44.12143" lon="3.23068">
        <ele>407</ele>
        <time>2024-02-17T14:26:42Z</time>
      </trkpt>
      <trkpt lat="44.12133" lon="3.23076">
        <ele>406.9</ele>
        <time>2024-02-17T14:26:44Z</time>
      </trkpt>
      <trkpt lat="44.12124" lon="3.23084">
        <ele>407</ele>
        <time>2024-02-17T14:26:46Z</time>
      </trkpt>
      <trkpt lat="44.12115" lon="3.23091">
        <ele>407.2</ele>
        <time>2024-02-17T14:26:48Z</time>
      </trkpt>
      <trkpt lat="44.12107" lon="3.231">
        <ele>407.7</ele>
        <time>2024-02-17T14:26:50Z</time>
      </trkpt>
      <trkpt lat="44.12099" lon="3.23109">
        <ele>408</ele>
        <time>2024-02-17T14:26:52Z</time>
      </trkpt>
      <trkpt lat="44.12091" lon="3.23119">
        <ele>408.1</ele>
        <time>2024-02-17T14:26:54Z</time>
      </trkpt>
      <trkpt lat="44.12083" lon="3.23128">
        <ele>407.6</ele>
        <time>2024-02-17T14:26:56Z</time>
      </trkpt>
      <trkpt lat="44.12076" lon="3.23137">
        <ele>407.8</ele>
        <time>2024-02-17T14:26:58Z</time>
      </trkpt>
      <trkpt lat="44.12069" lon="3.23146">
        <ele>408</ele>
        <time>2024-02-17T14:27:00Z</time>
      </trkpt>
      <trkpt lat="44.12062" lon="3.23156">
        <ele>408.5</ele>
        <time>2024-02-17T14:27:02Z</time>
      </trkpt>
      <trkpt lat="44.12054" lon="3.23164">
        <ele>408.1</ele>
        <time>2024-02-17T14:27:04Z</time>
      </trkpt>
      <trkpt lat="44.12046" lon="3.23173">
        <ele>408.1</ele>
        <time>2024-02-17T14:27:06Z</time>
      </trkpt>
      <trkpt lat="44.1204" lon="3.23182">
        <ele>408.3</ele>
        <time>2024-02-17T14:27:08Z</time>
      </trkpt>
      <trkpt lat="44.12032" lon="3.23192">
        <ele>407.8</ele>
        <time>2024-02-17T14:27:10Z</time>
      </trkpt>
      <trkpt lat="44.12025" lon="3.23203">
        <ele>407.9</ele>
        <time>2024-02-17T14:27:12Z</time>
      </trkpt>
      <trkpt lat="44.12017" lon="3.23215">
        <ele>407.8</ele>
        <time>2024-02-17T14:27:14Z</time>
      </trkpt>
      <trkpt lat="44.12011" lon="3.23227">
        <ele>407.8</ele>
        <time>2024-02-17T14:27:16Z</time>
      </trkpt>
      <trkpt lat="44.12006" lon="3.2324">
        <ele>407.8</ele>
        <time>2024-02-17T14:27:18Z</time>
      </trkpt>
      <trkpt lat="44.12001" lon="3.23253">
        <ele>407.6</ele>
        <time>2024-02-17T14:27:20Z</time>
      </trkpt>
      <trkpt lat="44.11997" lon="3.23266">
        <ele>407.3</ele>
        <time>2024-02-17T14:27:22Z</time>
      </trkpt>
      <trkpt lat="44.11992" lon="3.2328">
        <ele>406.9</ele>
        <time>2024-02-17T14:27:24Z</time>
      </trkpt>
      <trkpt lat="44.11988" lon="3.23293">
        <ele>407</ele>
        <time>2024-02-17T14:27:26Z</time>
      </trkpt>
      <trkpt lat="44.11986" lon="3.23307">
        <ele>407.6</ele>
        <time>2024-02-17T14:27:28Z</time>
      </trkpt>
      <trkpt lat="44.11983" lon="3.2332">
        <ele>407.7</ele>
        <time>2024-02-17T14:27:30Z</time>
      </trkpt>
      <trkpt lat="44.11978" lon="3.23336">
        <ele>407.1</ele>
        <time>2024-02-17T14:27:33Z</time>
      </trkpt>
      <trkpt lat="44.11975" lon="3.2335">
        <ele>406.1</ele>
        <time>2024-02-17T14:27:35Z</time>
      </trkpt>
      <trkpt lat="44.11971" lon="3.23364">
        <ele>404.8</ele>
        <time>2024-02-17T14:27:37Z</time>
      </trkpt>
      <trkpt lat="44.11969" lon="3.23379">
        <ele>404.8</ele>
        <time>2024-02-17T14:27:39Z</time>
      </trkpt>
      <trkpt lat="44.11966" lon="3.23395">
        <ele>404.4</ele>
        <time>2024-02-17T14:27:41Z</time>
      </trkpt>
      <trkpt lat="44.11963" lon="3.2341">
        <ele>403.9</ele>
        <time>2024-02-17T14:27:43Z</time>
      </trkpt>
      <trkpt lat="44.11958" lon="3.23427">
        <ele>402.6</ele>
        <time>2024-02-17T14:27:45Z</time>
      </trkpt>
      <trkpt lat="44.11955" lon="3.23443">
        <ele>401.8</ele>
        <time>2024-02-17T14:27:47Z</time>
      </trkpt>
      <trkpt lat="44.11952" lon="3.23459">
        <ele>401.4</ele>
        <time>2024-02-17T14:27:49Z</time>
      </trkpt>
      <trkpt lat="44.11949" lon="3.23475">
        <ele>401.1</ele>
        <time>2024-02-17T14:27:51Z</time>
      </trkpt>
      <trkpt lat="44.11946" lon="3.23491">
        <ele>401.7</ele>
        <time>2024-02-17T14:27:53Z</time>
      </trkpt>
      <trkpt lat="44.11944" lon="3.23508">
        <ele>402.2</ele>
        <time>2024-02-17T14:27:55Z</time>
      </trkpt>
      <trkpt lat="44.11941" lon="3.23524">
        <ele>402.3</ele>
        <time>2024-02-17T14:27:57Z</time>
      </trkpt>
      <trkpt lat="44.11938" lon="3.2354">
        <ele>402.5</ele>
        <time>2024-02-17T14:27:59Z</time>
      </trkpt>
      <trkpt lat="44.11933" lon="3.23555">
        <ele>402.1</ele>
        <time>2024-02-17T14:28:01Z</time>
      </trkpt>
      <trkpt lat="44.11928" lon="3.23571">
        <ele>402.8</ele>
        <time>2024-02-17T14:28:03Z</time>
      </trkpt>
      <trkpt lat="44.11922" lon="3.23584">
        <ele>401.6</ele>
        <time>2024-02-17T14:28:05Z</time>
      </trkpt>
      <trkpt lat="44.11916" lon="3.23597">
        <ele>400.5</ele>
        <time>2024-02-17T14:28:07Z</time>
      </trkpt>
      <trkpt lat="44.11912" lon="3.2361">
        <ele>401.3</ele>
        <time>2024-02-17T14:28:09Z</time>
      </trkpt>
      <trkpt lat="44.11906" lon="3.23626">
        <ele>402.1</ele>
        <time>2024-02-17T14:28:12Z</time>
      </trkpt>
      <trkpt lat="44.11901" lon="3.23644">
        <ele>402.5</ele>
        <time>2024-02-17T14:28:15Z</time>
      </trkpt>
      <trkpt lat="44.11898" lon="3.23657">
        <ele>402.9</ele>
        <time>2024-02-17T14:28:17Z</time>
      </trkpt>
      <trkpt lat="44.11894" lon="3.23669">
        <ele>402.7</ele>
        <time>2024-02-17T14:28:19Z</time>
      </trkpt>
      <trkpt lat="44.11887" lon="3.23684">
        <ele>402.8</ele>
        <time>2024-02-17T14:28:22Z</time>
      </trkpt>
      <trkpt lat="44.11883" lon="3.23695">
        <ele>403.6</ele>
        <time>2024-02-17T14:28:24Z</time>
      </trkpt>
      <trkpt lat="44.11877" lon="3.23706">
        <ele>404.1</ele>
        <time>2024-02-17T14:28:26Z</time>
      </trkpt>
      <trkpt lat="44.11868" lon="3.2372">
        <ele>403.9</ele>
        <time>2024-02-17T14:28:29Z</time>
      </trkpt>
      <trkpt lat="44.11859" lon="3.23734">
        <ele>403.7</ele>
        <time>2024-02-17T14:28:32Z</time>
      </trkpt>
      <trkpt lat="44.11851" lon="3.23748">
        <ele>403.9</ele>
        <time>2024-02-17T14:28:35Z</time>
      </trkpt>
      <trkpt lat="44.11843" lon="3.23763">
        <ele>404.6</ele>
        <time>2024-02-17T14:28:38Z</time>
      </trkpt>
      <trkpt lat="44.11834" lon="3.23777">
        <ele>405</ele>
        <time>2024-02-17T14:28:41Z</time>
      </trkpt>
      <trkpt lat="44.11828" lon="3.23787">
        <ele>405.3</ele>
        <time>2024-02-17T14:28:43Z</time>
      </trkpt>
      <trkpt lat="44.11819" lon="3.23801">
        <ele>404.4</ele>
        <time>2024-02-17T14:28:46Z</time>
      </trkpt>
      <trkpt lat="44.11814" lon="3.23811">
        <ele>404.4</ele>
        <time>2024-02-17T14:28:48Z</time>
      </trkpt>
      <trkpt lat="44.11809" lon="3.23822">
        <ele>405.3</ele>
        <time>2024-02-17T14:28:50Z</time>
      </trkpt>
      <trkpt lat="44.11802" lon="3.23838">
        <ele>406.8</ele>
        <time>2024-02-17T14:28:53Z</time>
      </trkpt>
      <trkpt lat="44.11795" lon="3.23852">
        <ele>406.4</ele>
        <time>2024-02-17T14:28:56Z</time>
      </trkpt>
      <trkpt lat="44.11793" lon="3.23865">
        <ele>407.2</ele>
        <time>2024-02-17T14:28:58Z</time>
      </trkpt>
      <trkpt lat="44.1179" lon="3.23884">
        <ele>408.4</ele>
        <time>2024-02-17T14:29:01Z</time>
      </trkpt>
      <trkpt lat="44.11791" lon="3.23897">
        <ele>409.6</ele>
        <time>2024-02-17T14:29:03Z</time>
      </trkpt>
      <trkpt lat="44.11792" lon="3.23909">
        <ele>410.2</ele>
        <time>2024-02-17T14:29:05Z</time>
      </trkpt>
      <trkpt lat="44.11797" lon="3.23927">
        <ele>411.3</ele>
        <time>2024-02-17T14:29:08Z</time>
      </trkpt>
      <trkpt lat="44.11801" lon="3.23939">
        <ele>410.5</ele>
        <time>2024-02-17T14:29:10Z</time>
      </trkpt>
      <trkpt lat="44.11805" lon="3.23951">
        <ele>409.9</ele>
        <time>2024-02-17T14:29:12Z</time>
      </trkpt>
      <trkpt lat="44.1181" lon="3.23963">
        <ele>411.5</ele>
        <time>2024-02-17T14:29:14Z</time>
      </trkpt>
      <trkpt lat="44.11814" lon="3.23975">
        <ele>412</ele>
        <time>2024-02-17T14:29:16Z</time>
      </trkpt>
      <trkpt lat="44.11818" lon="3.23987">
        <ele>411.1</ele>
        <time>2024-02-17T14:29:18Z</time>
      </trkpt>
      <trkpt lat="44.11822" lon="3.23999">
        <ele>409.8</ele>
        <time>2024-02-17T14:29:20Z</time>
      </trkpt>
      <trkpt lat="44.11827" lon="3.2401">
        <ele>410.4</ele>
        <time>2024-02-17T14:29:22Z</time>
      </trkpt>
      <trkpt lat="44.11833" lon="3.24021">
        <ele>410.6</ele>
        <time>2024-02-17T14:29:24Z</time>
      </trkpt>
      <trkpt lat="44.11839" lon="3.24031">
        <ele>411.5</ele>
        <time>2024-02-17T14:29:26Z</time>
      </trkpt>
      <trkpt lat="44.11845" lon="3.24041">
        <ele>411.7</ele>
        <time>2024-02-17T14:29:28Z</time>
      </trkpt>
      <trkpt lat="44.11852" lon="3.24051">
        <ele>411.1</ele>
        <time>2024-02-17T14:29:30Z</time>
      </trkpt>
      <trkpt lat="44.11859" lon="3.24061">
        <ele>410.3</ele>
        <time>2024-02-17T14:29:32Z</time>
      </trkpt>
      <trkpt lat="44.11866" lon="3.2407">
        <ele>411</ele>
        <time>2024-02-17T14:29:34Z</time>
      </trkpt>
      <trkpt lat="44.11873" lon="3.24081">
        <ele>410.6</ele>
        <time>2024-02-17T14:29:36Z</time>
      </trkpt>
      <trkpt lat="44.1188" lon="3.24091">
        <ele>410.4</ele>
        <time>2024-02-17T14:29:38Z</time>
      </trkpt>
      <trkpt lat="44.11888" lon="3.24101">
        <ele>409.7</ele>
        <time>2024-02-17T14:29:40Z</time>
      </trkpt>
      <trkpt lat="44.11894" lon="3.24111">
        <ele>409.6</ele>
        <time>2024-02-17T14:29:42Z</time>
      </trkpt>
      <trkpt lat="44.11901" lon="3.24122">
        <ele>410.9</ele>
        <time>2024-02-17T14:29:44Z</time>
      </trkpt>
      <trkpt lat="44.11908" lon="3.24133">
        <ele>411</ele>
        <time>2024-02-17T14:29:46Z</time>
      </trkpt>
      <trkpt lat="44.11915" lon="3.24144">
        <ele>410.1</ele>
        <time>2024-02-17T14:29:48Z</time>
      </trkpt>
      <trkpt lat="44.11922" lon="3.24154">
        <ele>410.6</ele>
        <time>2024-02-17T14:29:50Z</time>
      </trkpt>
      <trkpt lat="44.11928" lon="3.24164">
        <ele>410.6</ele>
        <time>2024-02-17T14:29:52Z</time>
      </trkpt>
      <trkpt lat="44.11936" lon="3.24174">
        <ele>411.6</ele>
        <time>2024-02-17T14:29:54Z</time>
      </trkpt>
      <trkpt lat="44.11943" lon="3.24185">
        <ele>410.4</ele>
        <time>2024-02-17T14:29:56Z</time>
      </trkpt>
      <trkpt lat="44.11949" lon="3.24196">
        <ele>409.8</ele>
        <time>2024-02-17T14:29:58Z</time>
      </trkpt>
      <trkpt lat="44.11954" lon="3.24207">
        <ele>411</ele>
        <time>2024-02-17T14:30:00Z</time>
      </trkpt>
      <trkpt lat="44.11959" lon="3.24219">
        <ele>411.1</ele>
        <time>2024-02-17T14:30:02Z</time>
      </trkpt>
      <trkpt lat="44.11963" lon="3.2423">
        <ele>411.1</ele>
        <time>2024-02-17T14:30:04Z</time>
      </trkpt>
      <trkpt lat="44.11967" lon="3.24242">
        <ele>410.8</ele>
        <time>2024-02-17T14:30:06Z</time>
      </trkpt>
      <trkpt lat="44.11971" lon="3.24259">
        <ele>409.1</ele>
        <time>2024-02-17T14:30:09Z</time>
      </trkpt>
      <trkpt lat="44.11976" lon="3.24277">
        <ele>409</ele>
        <time>2024-02-17T14:30:12Z</time>
      </trkpt>
      <trkpt lat="44.11978" lon="3.24289">
        <ele>408.9</ele>
        <time>2024-02-17T14:30:14Z</time>
      </trkpt>
      <trkpt lat="44.11981" lon="3.24302">
        <ele>409.2</ele>
        <time>2024-02-17T14:30:16Z</time>
      </trkpt>
      <trkpt lat="44.11983" lon="3.24314">
        <ele>408.7</ele>
        <time>2024-02-17T14:30:18Z</time>
      </trkpt>
      <trkpt lat="44.11985" lon="3.24331">
        <ele>406.6</ele>
        <time>2024-02-17T14:30:21Z</time>
      </trkpt>
      <trkpt lat="44.11987" lon="3.24344">
        <ele>407.9</ele>
        <time>2024-02-17T14:30:23Z</time>
      </trkpt>
      <trkpt lat="44.1199" lon="3.24362">
        <ele>410.8</ele>
        <time>2024-02-17T14:30:26Z</time>
      </trkpt>
      <trkpt lat="44.11991" lon="3.24379">
        <ele>411.7</ele>
        <time>2024-02-17T14:30:29Z</time>
      </trkpt>
      <trkpt lat="44.1199" lon="3.24397">
        <ele>411.9</ele>
        <time>2024-02-17T14:30:32Z</time>
      </trkpt>
      <trkpt lat="44.11987" lon="3.24414">
        <ele>411.6</ele>
        <time>2024-02-17T14:30:35Z</time>
      </trkpt>
      <trkpt lat="44.11985" lon="3.24427">
        <ele>411.6</ele>
        <time>2024-02-17T14:30:37Z</time>
      </trkpt>
      <trkpt lat="44.11982" lon="3.24444">
        <ele>411.5</ele>
        <time>2024-02-17T14:30:40Z</time>
      </trkpt>
      <trkpt lat="44.11978" lon="3.24462">
        <ele>412</ele>
        <time>2024-02-17T14:30:43Z</time>
      </trkpt>
      <trkpt lat="44.11975" lon="3.24474">
        <ele>411.7</ele>
        <time>2024-02-17T14:30:45Z</time>
      </trkpt>
      <trkpt lat="44.11972" lon="3.24486">
        <ele>411.5</ele>
        <time>2024-02-17T14:30:47Z</time>
      </trkpt>
      <trkpt lat="44.11969" lon="3.24499">
        <ele>412.5</ele>
        <time>2024-02-17T14:30:49Z</time>
      </trkpt>
      <trkpt lat="44.11965" lon="3.24517">
        <ele>413.7</ele>
        <time>2024-02-17T14:30:52Z</time>
      </trkpt>
      <trkpt lat="44.11961" lon="3.2453">
        <ele>414.1</ele>
        <time>2024-02-17T14:30:54Z</time>
      </trkpt>
      <trkpt lat="44.11956" lon="3.24542">
        <ele>413.5</ele>
        <time>2024-02-17T14:30:56Z</time>
      </trkpt>
      <trkpt lat="44.1195" lon="3.24553">
        <ele>412.4</ele>
        <time>2024-02-17T14:30:58Z</time>
      </trkpt>
      <trkpt lat="44.11943" lon="3.24561">
        <ele>411.4</ele>
        <time>2024-02-17T14:31:00Z</time>
      </trkpt>
      <trkpt lat="44.11935" lon="3.24569">
        <ele>412</ele>
        <time>2024-02-17T14:31:02Z</time>
      </trkpt>
      <trkpt lat="44.11927" lon="3.24575">
        <ele>412.4</ele>
        <time>2024-02-17T14:31:04Z</time>
      </trkpt>
      <trkpt lat="44.11918" lon="3.24578">
        <ele>412.6</ele>
        <time>2024-02-17T14:31:06Z</time>
      </trkpt>
      <trkpt lat="44.11909" lon="3.24582">
        <ele>411.2</ele>
        <time>2024-02-17T14:31:08Z</time>
      </trkpt>
      <trkpt lat="44.119" lon="3.24586">
        <ele>410.6</ele>
        <time>2024-02-17T14:31:10Z</time>
      </trkpt>
      <trkpt lat="44.11891" lon="3.24591">
        <ele>411.2</ele>
        <time>2024-02-17T14:31:12Z</time>
      </trkpt>
      <trkpt lat="44.11882" lon="3.24596">
        <ele>412.3</ele>
        <time>2024-02-17T14:31:14Z</time>
      </trkpt>
      <trkpt lat="44.11872" lon="3.246">
        <ele>412.5</ele>
        <time>2024-02-17T14:31:16Z</time>
      </trkpt>
      <trkpt lat="44.11862" lon="3.24603">
        <ele>412</ele>
        <time>2024-02-17T14:31:18Z</time>
      </trkpt>
      <trkpt lat="44.11853" lon="3.24605">
        <ele>412.4</ele>
        <time>2024-02-17T14:31:20Z</time>
      </trkpt>
      <trkpt lat="44.11844" lon="3.2461">
        <ele>414</ele>
        <time>2024-02-17T14:31:22Z</time>
      </trkpt>
      <trkpt lat="44.11833" lon="3.24617">
        <ele>417</ele>
        <time>2024-02-17T14:31:25Z</time>
      </trkpt>
      <trkpt lat="44.11823" lon="3.24618">
        <ele>417</ele>
        <time>2024-02-17T14:31:31Z</time>
      </trkpt>
      <trkpt lat="44.11813" lon="3.24622">
        <ele>418.5</ele>
        <time>2024-02-17T14:31:38Z</time>
      </trkpt>
      <trkpt lat="44.11804" lon="3.24627">
        <ele>420.2</ele>
        <time>2024-02-17T14:31:44Z</time>
      </trkpt>
      <trkpt lat="44.11795" lon="3.24629">
        <ele>419.9</ele>
        <time>2024-02-17T14:31:53Z</time>
      </trkpt>
      <trkpt lat="44.11785" lon="3.24634">
        <ele>420.8</ele>
        <time>2024-02-17T14:32:02Z</time>
      </trkpt>
      <trkpt lat="44.11776" lon="3.2464">
        <ele>422</ele>
        <time>2024-02-17T14:32:10Z</time>
      </trkpt>
      <trkpt lat="44.11768" lon="3.24645">
        <ele>422.1</ele>
        <time>2024-02-17T14:32:18Z</time>
      </trkpt>
      <trkpt lat="44.11759" lon="3.24651">
        <ele>422.2</ele>
        <time>2024-02-17T14:32:26Z</time>
      </trkpt>
      <trkpt lat="44.11751" lon="3.24659">
        <ele>423.2</ele>
        <time>2024-02-17T14:32:33Z</time>
      </trkpt>
      <trkpt lat="44.11744" lon="3.24668">
        <ele>424.9</ele>
        <time>2024-02-17T14:32:41Z</time>
      </trkpt>
      <trkpt lat="44.11737" lon="3.24676">
        <ele>425.8</ele>
        <time>2024-02-17T14:32:49Z</time>
      </trkpt>
      <trkpt lat="44.11729" lon="3.24687">
        <ele>426.9</ele>
        <time>2024-02-17T14:32:56Z</time>
      </trkpt>
      <trkpt lat="44.11724" lon="3.24698">
        <ele>428.5</ele>
        <time>2024-02-17T14:33:03Z</time>
      </trkpt>
      <trkpt lat="44.11719" lon="3.24709">
        <ele>429.8</ele>
        <time>2024-02-17T14:33:10Z</time>
      </trkpt>
      <trkpt lat="44.11712" lon="3.24719">
        <ele>430.9</ele>
        <time>2024-02-17T14:33:17Z</time>
      </trkpt>
      <trkpt lat="44.11711" lon="3.24732">
        <ele>434.4</ele>
        <time>2024-02-17T14:33:27Z</time>
      </trkpt>
      <trkpt lat="44.11719" lon="3.24737">
        <ele>437.6</ele>
        <time>2024-02-17T14:33:40Z</time>
      </trkpt>
      <trkpt lat="44.11727" lon="3.24732">
        <ele>439.2</ele>
        <time>2024-02-17T14:33:54Z</time>
      </trkpt>
      <trkpt lat="44.11734" lon="3.24722">
        <ele>439.4</ele>
        <time>2024-02-17T14:33:58Z</time>
      </trkpt>
      <trkpt lat="44.11741" lon="3.24711">
        <ele>438.9</ele>
        <time>2024-02-17T14:34:02Z</time>
      </trkpt>
      <trkpt lat="44.11749" lon="3.24705">
        <ele>439.8</ele>
        <time>2024-02-17T14:34:09Z</time>
      </trkpt>
      <trkpt lat="44.11757" lon="3.24697">
        <ele>439.3</ele>
        <time>2024-02-17T14:34:15Z</time>
      </trkpt>
      <trkpt lat="44.11767" lon="3.24695">
        <ele>441.7</ele>
        <time>2024-02-17T14:34:23Z</time>
      </trkpt>
      <trkpt lat="44.11777" lon="3.24691">
        <ele>443.4</ele>
        <time>2024-02-17T14:34:31Z</time>
      </trkpt>
      <trkpt lat="44.11786" lon="3.24689">
        <ele>444.6</ele>
        <time>2024-02-17T14:34:38Z</time>
      </trkpt>
      <trkpt lat="44.11795" lon="3.24687">
        <ele>445.8</ele>
        <time>2024-02-17T14:34:47Z</time>
      </trkpt>
      <trkpt lat="44.11787" lon="3.2469">
        <ele>445.2</ele>
        <time>2024-02-17T14:35:01Z</time>
      </trkpt>
      <trkpt lat="44.11778" lon="3.24696">
        <ele>445.7</ele>
        <time>2024-02-17T14:35:10Z</time>
      </trkpt>
      <trkpt lat="44.1177" lon="3.24706">
        <ele>447.1</ele>
        <time>2024-02-17T14:35:19Z</time>
      </trkpt>
      <trkpt lat="44.11764" lon="3.24715">
        <ele>448.7</ele>
        <time>2024-02-17T14:35:28Z</time>
      </trkpt>
      <trkpt lat="44.11758" lon="3.24726">
        <ele>451</ele>
        <time>2024-02-17T14:35:35Z</time>
      </trkpt>
      <trkpt lat="44.11751" lon="3.24735">
        <ele>451.9</ele>
        <time>2024-02-17T14:35:44Z</time>
      </trkpt>
      <trkpt lat="44.11745" lon="3.24745">
        <ele>452.6</ele>
        <time>2024-02-17T14:35:52Z</time>
      </trkpt>
      <trkpt lat="44.1174" lon="3.24756">
        <ele>454.3</ele>
        <time>2024-02-17T14:36:00Z</time>
      </trkpt>
      <trkpt lat="44.11734" lon="3.24768">
        <ele>457.5</ele>
        <time>2024-02-17T14:36:09Z</time>
      </trkpt>
      <trkpt lat="44.11725" lon="3.24773">
        <ele>457</ele>
        <time>2024-02-17T14:36:17Z</time>
      </trkpt>
      <trkpt lat="44.11728" lon="3.24785">
        <ele>464.4</ele>
        <time>2024-02-17T14:36:36Z</time>
      </trkpt>
      <trkpt lat="44.11738" lon="3.24785">
        <ele>467</ele>
        <time>2024-02-17T14:36:52Z</time>
      </trkpt>
      <trkpt lat="44.11747" lon="3.24779">
        <ele>466.7</ele>
        <time>2024-02-17T14:37:00Z</time>
      </trkpt>
      <trkpt lat="44.11757" lon="3.24771">
        <ele>466.8</ele>
        <time>2024-02-17T14:37:08Z</time>
      </trkpt>
      <trkpt lat="44.11764" lon="3.24764">
        <ele>466.6</ele>
        <time>2024-02-17T14:37:13Z</time>
      </trkpt>
      <trkpt lat="44.11774" lon="3.24762">
        <ele>469.1</ele>
        <time>2024-02-17T14:37:21Z</time>
      </trkpt>
      <trkpt lat="44.11782" lon="3.24758">
        <ele>470.1</ele>
        <time>2024-02-17T14:37:29Z</time>
      </trkpt>
      <trkpt lat="44.11792" lon="3.24755">
        <ele>472</ele>
        <time>2024-02-17T14:37:38Z</time>
      </trkpt>
      <trkpt lat="44.118" lon="3.24745">
        <ele>470.5</ele>
        <time>2024-02-17T14:37:42Z</time>
      </trkpt>
      <trkpt lat="44.11791" lon="3.24751">
        <ele>470.2</ele>
        <time>2024-02-17T14:37:59Z</time>
      </trkpt>
      <trkpt lat="44.11783" lon="3.24757">
        <ele>470.1</ele>
        <time>2024-02-17T14:38:07Z</time>
      </trkpt>
      <trkpt lat="44.11775" lon="3.24765">
        <ele>470.5</ele>
        <time>2024-02-17T14:38:16Z</time>
      </trkpt>
      <trkpt lat="44.11769" lon="3.24775">
        <ele>472.2</ele>
        <time>2024-02-17T14:38:24Z</time>
      </trkpt>
      <trkpt lat="44.11763" lon="3.24784">
        <ele>473.8</ele>
        <time>2024-02-17T14:38:31Z</time>
      </trkpt>
      <trkpt lat="44.11755" lon="3.24792">
        <ele>474.7</ele>
        <time>2024-02-17T14:38:38Z</time>
      </trkpt>
      <trkpt lat="44.11747" lon="3.248">
        <ele>476</ele>
        <time>2024-02-17T14:38:45Z</time>
      </trkpt>
      <trkpt lat="44.11739" lon="3.24808">
        <ele>478.2</ele>
        <time>2024-02-17T14:38:53Z</time>
      </trkpt>
      <trkpt lat="44.1173" lon="3.24812">
        <ele>478.5</ele>
        <time>2024-02-17T14:39:01Z</time>
      </trkpt>
      <trkpt lat="44.11721" lon="3.2481">
        <ele>476.2</ele>
        <time>2024-02-17T14:39:09Z</time>
      </trkpt>
      <trkpt lat="44.11711" lon="3.24811">
        <ele>477.9</ele>
        <time>2024-02-17T14:39:17Z</time>
      </trkpt>
      <trkpt lat="44.11702" lon="3.24817">
        <ele>480.6</ele>
        <time>2024-02-17T14:39:24Z</time>
      </trkpt>
      <trkpt lat="44.11695" lon="3.24826">
        <ele>482.7</ele>
        <time>2024-02-17T14:39:31Z</time>
      </trkpt>
      <trkpt lat="44.11688" lon="3.24835">
        <ele>482.9</ele>
        <time>2024-02-17T14:39:39Z</time>
      </trkpt>
      <trkpt lat="44.11695" lon="3.24845">
        <ele>487.4</ele>
        <time>2024-02-17T14:39:54Z</time>
      </trkpt>
      <trkpt lat="44.11704" lon="3.24845">
        <ele>488.7</ele>
        <time>2024-02-17T14:40:02Z</time>
      </trkpt>
      <trkpt lat="44.11714" lon="3.24847">
        <ele>490.7</ele>
        <time>2024-02-17T14:40:10Z</time>
      </trkpt>
      <trkpt lat="44.11723" lon="3.24844">
        <ele>491</ele>
        <time>2024-02-17T14:40:20Z</time>
      </trkpt>
      <trkpt lat="44.11732" lon="3.24841">
        <ele>491.9</ele>
        <time>2024-02-17T14:40:29Z</time>
      </trkpt>
      <trkpt lat="44.11742" lon="3.24838">
        <ele>493</ele>
        <time>2024-02-17T14:40:37Z</time>
      </trkpt>
      <trkpt lat="44.11751" lon="3.24835">
        <ele>493.8</ele>
        <time>2024-02-17T14:40:45Z</time>
      </trkpt>
      <trkpt lat="44.11761" lon="3.24835">
        <ele>496.3</ele>
        <time>2024-02-17T14:40:53Z</time>
      </trkpt>
      <trkpt lat="44.11771" lon="3.24831">
        <ele>497.2</ele>
        <time>2024-02-17T14:40:58Z</time>
      </trkpt>
      <trkpt lat="44.1178" lon="3.24828">
        <ele>498.2</ele>
        <time>2024-02-17T14:41:05Z</time>
      </trkpt>
      <trkpt lat="44.1179" lon="3.24826">
        <ele>500.2</ele>
        <time>2024-02-17T14:41:15Z</time>
      </trkpt>
      <trkpt lat="44.118" lon="3.24823">
        <ele>501.9</ele>
        <time>2024-02-17T14:41:23Z</time>
      </trkpt>
      <trkpt lat="44.11808" lon="3.24817">
        <ele>501.6</ele>
        <time>2024-02-17T14:41:28Z</time>
      </trkpt>
      <trkpt lat="44.11818" lon="3.24816">
        <ele>503.6</ele>
        <time>2024-02-17T14:41:35Z</time>
      </trkpt>
      <trkpt lat="44.11828" lon="3.24811">
        <ele>504</ele>
        <time>2024-02-17T14:41:42Z</time>
      </trkpt>
      <trkpt lat="44.11838" lon="3.24807">
        <ele>504.8</ele>
        <time>2024-02-17T14:41:49Z</time>
      </trkpt>
      <trkpt lat="44.11848" lon="3.24804">
        <ele>506.1</ele>
        <time>2024-02-17T14:41:56Z</time>
      </trkpt>
      <trkpt lat="44.11858" lon="3.24802">
        <ele>507.8</ele>
        <time>2024-02-17T14:42:03Z</time>
      </trkpt>
      <trkpt lat="44.11868" lon="3.24797">
        <ele>508.1</ele>
        <time>2024-02-17T14:42:10Z</time>
      </trkpt>
      <trkpt lat="44.11878" lon="3.24798">
        <ele>510.7</ele>
        <time>2024-02-17T14:42:16Z</time>
      </trkpt>
      <trkpt lat="44.11887" lon="3.24797">
        <ele>512.2</ele>
        <time>2024-02-17T14:42:21Z</time>
      </trkpt>
      <trkpt lat="44.11898" lon="3.24795">
        <ele>512.5</ele>
        <time>2024-02-17T14:42:27Z</time>
      </trkpt>
      <trkpt lat="44.11907" lon="3.24796">
        <ele>513.5</ele>
        <time>2024-02-17T14:42:32Z</time>
      </trkpt>
      <trkpt lat="44.11916" lon="3.24799">
        <ele>515.4</ele>
        <time>2024-02-17T14:42:38Z</time>
      </trkpt>
      <trkpt lat="44.11925" lon="3.24805">
        <ele>515.7</ele>
        <time>2024-02-17T14:42:45Z</time>
      </trkpt>
      <trkpt lat="44.11933" lon="3.24811">
        <ele>515.6</ele>
        <time>2024-02-17T14:42:53Z</time>
      </trkpt>
      <trkpt lat="44.11941" lon="3.2482">
        <ele>515.8</ele>
        <time>2024-02-17T14:43:01Z</time>
      </trkpt>
      <trkpt lat="44.11944" lon="3.24833">
        <ele>518.1</ele>
        <time>2024-02-17T14:43:07Z</time>
      </trkpt>
      <trkpt lat="44.11945" lon="3.24846">
        <ele>519.6</ele>
        <time>2024-02-17T14:43:15Z</time>
      </trkpt>
      <trkpt lat="44.11947" lon="3.24859">
        <ele>520.9</ele>
        <time>2024-02-17T14:43:22Z</time>
      </trkpt>
      <trkpt lat="44.11952" lon="3.2487">
        <ele>521.4</ele>
        <time>2024-02-17T14:43:27Z</time>
      </trkpt>
      <trkpt lat="44.11954" lon="3.24884">
        <ele>523.4</ele>
        <time>2024-02-17T14:43:31Z</time>
      </trkpt>
      <trkpt lat="44.11961" lon="3.24893">
        <ele>523.9</ele>
        <time>2024-02-17T14:43:40Z</time>
      </trkpt>
      <trkpt lat="44.11971" lon="3.24889">
        <ele>521.2</ele>
        <time>2024-02-17T14:43:51Z</time>
      </trkpt>
      <trkpt lat="44.1198" lon="3.24886">
        <ele>523.8</ele>
        <time>2024-02-17T14:43:57Z</time>
      </trkpt>
      <trkpt lat="44.11988" lon="3.24877">
        <ele>524.4</ele>
        <time>2024-02-17T14:44:01Z</time>
      </trkpt>
      <trkpt lat="44.11998" lon="3.24875">
        <ele>527.7</ele>
        <time>2024-02-17T14:44:05Z</time>
      </trkpt>
      <trkpt lat="44.1201" lon="3.24873">
        <ele>529.3</ele>
        <time>2024-02-17T14:44:09Z</time>
      </trkpt>
      <trkpt lat="44.12021" lon="3.24873">
        <ele>530.9</ele>
        <time>2024-02-17T14:44:13Z</time>
      </trkpt>
      <trkpt lat="44.12031" lon="3.24874">
        <ele>532.2</ele>
        <time>2024-02-17T14:44:16Z</time>
      </trkpt>
      <trkpt lat="44.12042" lon="3.24875">
        <ele>531.7</ele>
        <time>2024-02-17T14:44:20Z</time>
      </trkpt>
      <trkpt lat="44.12052" lon="3.24876">
        <ele>531.4</ele>
        <time>2024-02-17T14:44:24Z</time>
      </trkpt>
      <trkpt lat="44.12061" lon="3.2488">
        <ele>533.1</ele>
        <time>2024-02-17T14:44:28Z</time>
      </trkpt>
      <trkpt lat="44.12072" lon="3.2488">
        <ele>532.2</ele>
        <time>2024-02-17T14:44:32Z</time>
      </trkpt>
      <trkpt lat="44.12081" lon="3.2488">
        <ele>531.4</ele>
        <time>2024-02-17T14:44:37Z</time>
      </trkpt>
      <trkpt lat="44.1209" lon="3.24877">
        <ele>530.9</ele>
        <time>2024-02-17T14:44:43Z</time>
      </trkpt>
      <trkpt lat="44.12096" lon="3.24867">
        <ele>527.7</ele>
        <time>2024-02-17T14:44:54Z</time>
      </trkpt>
      <trkpt lat="44.12101" lon="3.24856">
        <ele>525.4</ele>
        <time>2024-02-17T14:44:59Z</time>
      </trkpt>
      <trkpt lat="44.12105" lon="3.24843">
        <ele>523.9</ele>
        <time>2024-02-17T14:45:03Z</time>
      </trkpt>
      <trkpt lat="44.12111" lon="3.24831">
        <ele>524.9</ele>
        <time>2024-02-17T14:45:07Z</time>
      </trkpt>
      <trkpt lat="44.12116" lon="3.24819">
        <ele>528.8</ele>
        <time>2024-02-17T14:45:11Z</time>
      </trkpt>
      <trkpt lat="44.1212" lon="3.24806">
        <ele>531.7</ele>
        <time>2024-02-17T14:45:16Z</time>
      </trkpt>
      <trkpt lat="44.12122" lon="3.24793">
        <ele>533.7</ele>
        <time>2024-02-17T14:45:21Z</time>
      </trkpt>
      <trkpt lat="44.12123" lon="3.2478">
        <ele>534.9</ele>
        <time>2024-02-17T14:45:26Z</time>
      </trkpt>
      <trkpt lat="44.12125" lon="3.24768">
        <ele>537.7</ele>
        <time>2024-02-17T14:45:30Z</time>
      </trkpt>
      <trkpt lat="44.12125" lon="3.24754">
        <ele>539.5</ele>
        <time>2024-02-17T14:45:35Z</time>
      </trkpt>
      <trkpt lat="44.12124" lon="3.24741">
        <ele>539.9</ele>
        <time>2024-02-17T14:45:40Z</time>
      </trkpt>
      <trkpt lat="44.12123" lon="3.24727">
        <ele>540.3</ele>
        <time>2024-02-17T14:45:45Z</time>
      </trkpt>
      <trkpt lat="44.12122" lon="3.24715">
        <ele>540.4</ele>
        <time>2024-02-17T14:45:50Z</time>
      </trkpt>
      <trkpt lat="44.12121" lon="3.24701">
        <ele>540.6</ele>
        <time>2024-02-17T14:45:55Z</time>
      </trkpt>
      <trkpt lat="44.12123" lon="3.24688">
        <ele>541.1</ele>
        <time>2024-02-17T14:46:00Z</time>
      </trkpt>
      <trkpt lat="44.12123" lon="3.24673">
        <ele>538.9</ele>
        <time>2024-02-17T14:46:05Z</time>
      </trkpt>
      <trkpt lat="44.12127" lon="3.24659">
        <ele>537.6</ele>
        <time>2024-02-17T14:46:11Z</time>
      </trkpt>
      <trkpt lat="44.12135" lon="3.24652">
        <ele>538</ele>
        <time>2024-02-17T14:46:17Z</time>
      </trkpt>
      <trkpt lat="44.12144" lon="3.24647">
        <ele>539.1</ele>
        <time>2024-02-17T14:46:24Z</time>
      </trkpt>
      <trkpt lat="44.12153" lon="3.24642">
        <ele>540.3</ele>
        <time>2024-02-17T14:46:33Z</time>
      </trkpt>
      <trkpt lat="44.12162" lon="3.24637">
        <ele>541.3</ele>
        <time>2024-02-17T14:46:38Z</time>
      </trkpt>
      <trkpt lat="44.12172" lon="3.24635">
        <ele>543.5</ele>
        <time>2024-02-17T14:46:46Z</time>
      </trkpt>
      <trkpt lat="44.1218" lon="3.24629">
        <ele>544</ele>
        <time>2024-02-17T14:46:52Z</time>
      </trkpt>
      <trkpt lat="44.1219" lon="3.24625">
        <ele>545.4</ele>
        <time>2024-02-17T14:47:00Z</time>
      </trkpt>
      <trkpt lat="44.12201" lon="3.24622">
        <ele>546.9</ele>
        <time>2024-02-17T14:47:07Z</time>
      </trkpt>
      <trkpt lat="44.1221" lon="3.24619">
        <ele>547.9</ele>
        <time>2024-02-17T14:47:14Z</time>
      </trkpt>
      <trkpt lat="44.12219" lon="3.24615">
        <ele>548.6</ele>
        <time>2024-02-17T14:47:21Z</time>
      </trkpt>
      <trkpt lat="44.12229" lon="3.24613">
        <ele>549.6</ele>
        <time>2024-02-17T14:47:28Z</time>
      </trkpt>
      <trkpt lat="44.12238" lon="3.24612">
        <ele>550.6</ele>
        <time>2024-02-17T14:47:35Z</time>
      </trkpt>
      <trkpt lat="44.12247" lon="3.24612">
        <ele>551.9</ele>
        <time>2024-02-17T14:47:42Z</time>
      </trkpt>
      <trkpt lat="44.12256" lon="3.24611">
        <ele>552.6</ele>
        <time>2024-02-17T14:47:50Z</time>
      </trkpt>
      <trkpt lat="44.12265" lon="3.24614">
        <ele>554.7</ele>
        <time>2024-02-17T14:48:00Z</time>
      </trkpt>
      <trkpt lat="44.12273" lon="3.24619">
        <ele>557.7</ele>
        <time>2024-02-17T14:48:08Z</time>
      </trkpt>
      <trkpt lat="44.12282" lon="3.24622">
        <ele>559.9</ele>
        <time>2024-02-17T14:48:18Z</time>
      </trkpt>
      <trkpt lat="44.12291" lon="3.24625">
        <ele>561.7</ele>
        <time>2024-02-17T14:48:27Z</time>
      </trkpt>
      <trkpt lat="44.12301" lon="3.24629">
        <ele>563.9</ele>
        <time>2024-02-17T14:48:36Z</time>
      </trkpt>
      <trkpt lat="44.12311" lon="3.24632">
        <ele>566.3</ele>
        <time>2024-02-17T14:48:45Z</time>
      </trkpt>
      <trkpt lat="44.1232" lon="3.24631">
        <ele>567.6</ele>
        <time>2024-02-17T14:48:53Z</time>
      </trkpt>
      <trkpt lat="44.1233" lon="3.2463">
        <ele>569.2</ele>
        <time>2024-02-17T14:48:59Z</time>
      </trkpt>
      <trkpt lat="44.1234" lon="3.24631">
        <ele>571.7</ele>
        <time>2024-02-17T14:49:13Z</time>
      </trkpt>
      <trkpt lat="44.12347" lon="3.24622">
        <ele>570.2</ele>
        <time>2024-02-17T14:49:24Z</time>
      </trkpt>
      <trkpt lat="44.12353" lon="3.24611">
        <ele>567.9</ele>
        <time>2024-02-17T14:49:33Z</time>
      </trkpt>
      <trkpt lat="44.12359" lon="3.24601">
        <ele>567.8</ele>
        <time>2024-02-17T14:49:40Z</time>
      </trkpt>
      <trkpt lat="44.12365" lon="3.24591">
        <ele>569.1</ele>
        <time>2024-02-17T14:49:48Z</time>
      </trkpt>
      <trkpt lat="44.12372" lon="3.24583">
        <ele>571.4</ele>
        <time>2024-02-17T14:49:56Z</time>
      </trkpt>
      <trkpt lat="44.1238" lon="3.24574">
        <ele>573.2</ele>
        <time>2024-02-17T14:50:04Z</time>
      </trkpt>
      <trkpt lat="44.12388" lon="3.24567">
        <ele>574.9</ele>
        <time>2024-02-17T14:50:12Z</time>
      </trkpt>
      <trkpt lat="44.12397" lon="3.24561">
        <ele>576.3</ele>
        <time>2024-02-17T14:50:19Z</time>
      </trkpt>
      <trkpt lat="44.12406" lon="3.24555">
        <ele>577.3</ele>
        <time>2024-02-17T14:50:26Z</time>
      </trkpt>
      <trkpt lat="44.12414" lon="3.2455">
        <ele>578.1</ele>
        <time>2024-02-17T14:50:33Z</time>
      </trkpt>
      <trkpt lat="44.12423" lon="3.24544">
        <ele>578.9</ele>
        <time>2024-02-17T14:50:39Z</time>
      </trkpt>
      <trkpt lat="44.12432" lon="3.2454">
        <ele>580.3</ele>
        <time>2024-02-17T14:50:47Z</time>
      </trkpt>
      <trkpt lat="44.12441" lon="3.24536">
        <ele>581.5</ele>
        <time>2024-02-17T14:51:57Z</time>
      </trkpt>
      <trkpt lat="44.12449" lon="3.2453">
        <ele>581.8</ele>
        <time>2024-02-17T14:52:04Z</time>
      </trkpt>
      <trkpt lat="44.12458" lon="3.24525">
        <ele>583.4</ele>
        <time>2024-02-17T14:52:13Z</time>
      </trkpt>
      <trkpt lat="44.12466" lon="3.24519">
        <ele>584.4</ele>
        <time>2024-02-17T14:52:21Z</time>
      </trkpt>
      <trkpt lat="44.12475" lon="3.24511">
        <ele>585</ele>
        <time>2024-02-17T14:52:30Z</time>
      </trkpt>
      <trkpt lat="44.12483" lon="3.24505">
        <ele>585.7</ele>
        <time>2024-02-17T14:52:37Z</time>
      </trkpt>
      <trkpt lat="44.12492" lon="3.24501">
        <ele>587.5</ele>
        <time>2024-02-17T14:52:46Z</time>
      </trkpt>
      <trkpt lat="44.12502" lon="3.24499">
        <ele>590.1</ele>
        <time>2024-02-17T14:52:55Z</time>
      </trkpt>
      <trkpt lat="44.12511" lon="3.24495">
        <ele>590.9</ele>
        <time>2024-02-17T14:53:03Z</time>
      </trkpt>
      <trkpt lat="44.12521" lon="3.24494">
        <ele>593</ele>
        <time>2024-02-17T14:53:10Z</time>
      </trkpt>
      <trkpt lat="44.1253" lon="3.24495">
        <ele>595.3</ele>
        <time>2024-02-17T14:53:19Z</time>
      </trkpt>
      <trkpt lat="44.1254" lon="3.24496">
        <ele>596.7</ele>
        <time>2024-02-17T14:53:28Z</time>
      </trkpt>
      <trkpt lat="44.12549" lon="3.24495">
        <ele>597.3</ele>
        <time>2024-02-17T14:53:37Z</time>
      </trkpt>
      <trkpt lat="44.12558" lon="3.24499">
        <ele>599</ele>
        <time>2024-02-17T14:53:45Z</time>
      </trkpt>
      <trkpt lat="44.12566" lon="3.24507">
        <ele>600</ele>
        <time>2024-02-17T14:53:55Z</time>
      </trkpt>
      <trkpt lat="44.12574" lon="3.24515">
        <ele>600.4</ele>
        <time>2024-02-17T14:54:06Z</time>
      </trkpt>
      <trkpt lat="44.12579" lon="3.24525">
        <ele>601.9</ele>
        <time>2024-02-17T14:54:18Z</time>
      </trkpt>
      <trkpt lat="44.12585" lon="3.24536">
        <ele>602.9</ele>
        <time>2024-02-17T14:54:28Z</time>
      </trkpt>
      <trkpt lat="44.12589" lon="3.24548">
        <ele>605</ele>
        <time>2024-02-17T14:54:35Z</time>
      </trkpt>
      <trkpt lat="44.12596" lon="3.24559">
        <ele>605.9</ele>
        <time>2024-02-17T14:54:45Z</time>
      </trkpt>
      <trkpt lat="44.12602" lon="3.24569">
        <ele>607.6</ele>
        <time>2024-02-17T14:54:53Z</time>
      </trkpt>
      <trkpt lat="44.12609" lon="3.24578">
        <ele>608.5</ele>
        <time>2024-02-17T14:55:03Z</time>
      </trkpt>
      <trkpt lat="44.12616" lon="3.24586">
        <ele>609.3</ele>
        <time>2024-02-17T14:55:11Z</time>
      </trkpt>
      <trkpt lat="44.12622" lon="3.24595">
        <ele>610.5</ele>
        <time>2024-02-17T14:55:18Z</time>
      </trkpt>
      <trkpt lat="44.12628" lon="3.24605">
        <ele>612</ele>
        <time>2024-02-17T14:55:26Z</time>
      </trkpt>
      <trkpt lat="44.12635" lon="3.24616">
        <ele>613.7</ele>
        <time>2024-02-17T14:55:37Z</time>
      </trkpt>
      <trkpt lat="44.12642" lon="3.24624">
        <ele>614.5</ele>
        <time>2024-02-17T14:55:47Z</time>
      </trkpt>
      <trkpt lat="44.12649" lon="3.24633">
        <ele>615.9</ele>
        <time>2024-02-17T14:55:55Z</time>
      </trkpt>
      <trkpt lat="44.12657" lon="3.2464">
        <ele>615.9</ele>
        <time>2024-02-17T14:56:02Z</time>
      </trkpt>
      <trkpt lat="44.12665" lon="3.24648">
        <ele>616.2</ele>
        <time>2024-02-17T14:56:08Z</time>
      </trkpt>
      <trkpt lat="44.12671" lon="3.24659">
        <ele>617.8</ele>
        <time>2024-02-17T14:56:15Z</time>
      </trkpt>
      <trkpt lat="44.12676" lon="3.24671">
        <ele>619.8</ele>
        <time>2024-02-17T14:56:24Z</time>
      </trkpt>
      <trkpt lat="44.12683" lon="3.24679">
        <ele>619.6</ele>
        <time>2024-02-17T14:56:31Z</time>
      </trkpt>
      <trkpt lat="44.12692" lon="3.24686">
        <ele>619</ele>
        <time>2024-02-17T14:56:38Z</time>
      </trkpt>
      <trkpt lat="44.12699" lon="3.24695">
        <ele>621.3</ele>
        <time>2024-02-17T14:56:45Z</time>
      </trkpt>
      <trkpt lat="44.12707" lon="3.24701">
        <ele>622.2</ele>
        <time>2024-02-17T14:56:51Z</time>
      </trkpt>
      <trkpt lat="44.12716" lon="3.24708">
        <ele>623.3</ele>
        <time>2024-02-17T14:56:58Z</time>
      </trkpt>
      <trkpt lat="44.12724" lon="3.24714">
        <ele>623.9</ele>
        <time>2024-02-17T14:57:05Z</time>
      </trkpt>
      <trkpt lat="44.12733" lon="3.24721">
        <ele>624.7</ele>
        <time>2024-02-17T14:57:13Z</time>
      </trkpt>
      <trkpt lat="44.12723" lon="3.24723">
        <ele>628.1</ele>
        <time>2024-02-17T14:57:32Z</time>
      </trkpt>
      <trkpt lat="44.12714" lon="3.24718">
        <ele>628.2</ele>
        <time>2024-02-17T14:57:38Z</time>
      </trkpt>
      <trkpt lat="44.12705" lon="3.24712">
        <ele>627.7</ele>
        <time>2024-02-17T14:57:44Z</time>
      </trkpt>
      <trkpt lat="44.12695" lon="3.24708">
        <ele>628.2</ele>
        <time>2024-02-17T14:57:50Z</time>
      </trkpt>
      <trkpt lat="44.12685" lon="3.24702">
        <ele>628.3</ele>
        <time>2024-02-17T14:57:58Z</time>
      </trkpt>
      <trkpt lat="44.12681" lon="3.24691">
        <ele>625</ele>
        <time>2024-02-17T14:58:04Z</time>
      </trkpt>
      <trkpt lat="44.12673" lon="3.24681">
        <ele>624.5</ele>
        <time>2024-02-17T14:58:09Z</time>
      </trkpt>
      <trkpt lat="44.12666" lon="3.24674">
        <ele>625.4</ele>
        <time>2024-02-17T14:58:12Z</time>
      </trkpt>
      <trkpt lat="44.12657" lon="3.24668">
        <ele>626.9</ele>
        <time>2024-02-17T14:58:16Z</time>
      </trkpt>
      <trkpt lat="44.12648" lon="3.2466">
        <ele>627.1</ele>
        <time>2024-02-17T14:58:20Z</time>
      </trkpt>
      <trkpt lat="44.12639" lon="3.24652">
        <ele>627.2</ele>
        <time>2024-02-17T14:58:25Z</time>
      </trkpt>
      <trkpt lat="44.12629" lon="3.24645">
        <ele>628.3</ele>
        <time>2024-02-17T14:58:30Z</time>
      </trkpt>
      <trkpt lat="44.12621" lon="3.24638">
        <ele>628.7</ele>
        <time>2024-02-17T14:58:35Z</time>
      </trkpt>
      <trkpt lat="44.12611" lon="3.24631">
        <ele>629.6</ele>
        <time>2024-02-17T14:58:40Z</time>
      </trkpt>
      <trkpt lat="44.12602" lon="3.24624">
        <ele>630</ele>
        <time>2024-02-17T14:58:44Z</time>
      </trkpt>
      <trkpt lat="44.12593" lon="3.24617">
        <ele>630.6</ele>
        <time>2024-02-17T14:58:49Z</time>
      </trkpt>
      <trkpt lat="44.12585" lon="3.24609">
        <ele>630.5</ele>
        <time>2024-02-17T14:58:54Z</time>
      </trkpt>
      <trkpt lat="44.12577" lon="3.24599">
        <ele>629.5</ele>
        <time>2024-02-17T14:58:59Z</time>
      </trkpt>
      <trkpt lat="44.12567" lon="3.24595">
        <ele>631.6</ele>
        <time>2024-02-17T14:59:04Z</time>
      </trkpt>
      <trkpt lat="44.12571" lon="3.24607">
        <ele>634.5</ele>
        <time>2024-02-17T14:59:19Z</time>
      </trkpt>
      <trkpt lat="44.12577" lon="3.24617">
        <ele>636.3</ele>
        <time>2024-02-17T14:59:26Z</time>
      </trkpt>
      <trkpt lat="44.12583" lon="3.24626">
        <ele>638</ele>
        <time>2024-02-17T14:59:32Z</time>
      </trkpt>
      <trkpt lat="44.1259" lon="3.24635">
        <ele>639</ele>
        <time>2024-02-17T14:59:38Z</time>
      </trkpt>
      <trkpt lat="44.12598" lon="3.24645">
        <ele>640.1</ele>
        <time>2024-02-17T14:59:45Z</time>
      </trkpt>
      <trkpt lat="44.12606" lon="3.24654">
        <ele>640.8</ele>
        <time>2024-02-17T14:59:52Z</time>
      </trkpt>
      <trkpt lat="44.12612" lon="3.24664">
        <ele>642.6</ele>
        <time>2024-02-17T15:00:00Z</time>
      </trkpt>
      <trkpt lat="44.12619" lon="3.24675">
        <ele>644.1</ele>
        <time>2024-02-17T15:00:07Z</time>
      </trkpt>
      <trkpt lat="44.12626" lon="3.24683">
        <ele>644.3</ele>
        <time>2024-02-17T15:00:13Z</time>
      </trkpt>
      <trkpt lat="44.12634" lon="3.24693">
        <ele>644.6</ele>
        <time>2024-02-17T15:00:20Z</time>
      </trkpt>
      <trkpt lat="44.1264" lon="3.24704">
        <ele>646.6</ele>
        <time>2024-02-17T15:00:29Z</time>
      </trkpt>
      <trkpt lat="44.12646" lon="3.24715">
        <ele>648.4</ele>
        <time>2024-02-17T15:00:36Z</time>
      </trkpt>
      <trkpt lat="44.12652" lon="3.24724">
        <ele>649.2</ele>
        <time>2024-02-17T15:00:44Z</time>
      </trkpt>
      <trkpt lat="44.12659" lon="3.24732">
        <ele>649.5</ele>
        <time>2024-02-17T15:00:51Z</time>
      </trkpt>
      <trkpt lat="44.12668" lon="3.24738">
        <ele>648.7</ele>
        <time>2024-02-17T15:00:58Z</time>
      </trkpt>
      <trkpt lat="44.12677" lon="3.24742">
        <ele>648.7</ele>
        <time>2024-02-17T15:01:04Z</time>
      </trkpt>
      <trkpt lat="44.12686" lon="3.2475">
        <ele>650.8</ele>
        <time>2024-02-17T15:01:10Z</time>
      </trkpt>
      <trkpt lat="44.12694" lon="3.24757">
        <ele>652.4</ele>
        <time>2024-02-17T15:01:15Z</time>
      </trkpt>
      <trkpt lat="44.12701" lon="3.24766">
        <ele>654</ele>
        <time>2024-02-17T15:01:22Z</time>
      </trkpt>
      <trkpt lat="44.12709" lon="3.24775">
        <ele>655</ele>
        <time>2024-02-17T15:01:30Z</time>
      </trkpt>
      <trkpt lat="44.12716" lon="3.24785">
        <ele>656.6</ele>
        <time>2024-02-17T15:01:38Z</time>
      </trkpt>
      <trkpt lat="44.12723" lon="3.24793">
        <ele>657.4</ele>
        <time>2024-02-17T15:01:46Z</time>
      </trkpt>
      <trkpt lat="44.12731" lon="3.24799">
        <ele>658.5</ele>
        <time>2024-02-17T15:01:53Z</time>
      </trkpt>
      <trkpt lat="44.1274" lon="3.24803">
        <ele>658.6</ele>
        <time>2024-02-17T15:01:59Z</time>
      </trkpt>
      <trkpt lat="44.12748" lon="3.24807">
        <ele>659.2</ele>
        <time>2024-02-17T15:02:06Z</time>
      </trkpt>
      <trkpt lat="44.12758" lon="3.24811">
        <ele>660.9</ele>
        <time>2024-02-17T15:02:13Z</time>
      </trkpt>
      <trkpt lat="44.12767" lon="3.24815">
        <ele>662.5</ele>
        <time>2024-02-17T15:02:20Z</time>
      </trkpt>
      <trkpt lat="44.12777" lon="3.2482">
        <ele>664.4</ele>
        <time>2024-02-17T15:02:28Z</time>
      </trkpt>
      <trkpt lat="44.12786" lon="3.24821">
        <ele>665.3</ele>
        <time>2024-02-17T15:02:35Z</time>
      </trkpt>
      <trkpt lat="44.12795" lon="3.24822">
        <ele>666.4</ele>
        <time>2024-02-17T15:02:44Z</time>
      </trkpt>
      <trkpt lat="44.12805" lon="3.24824">
        <ele>667.9</ele>
        <time>2024-02-17T15:02:52Z</time>
      </trkpt>
      <trkpt lat="44.12814" lon="3.24828">
        <ele>670.1</ele>
        <time>2024-02-17T15:03:00Z</time>
      </trkpt>
      <trkpt lat="44.12823" lon="3.24827">
        <ele>670.1</ele>
        <time>2024-02-17T15:03:07Z</time>
      </trkpt>
      <trkpt lat="44.12832" lon="3.2483">
        <ele>672.1</ele>
        <time>2024-02-17T15:03:57Z</time>
      </trkpt>
      <trkpt lat="44.12842" lon="3.24831">
        <ele>674.1</ele>
        <time>2024-02-17T15:05:36Z</time>
      </trkpt>
      <trkpt lat="44.12852" lon="3.24831">
        <ele>675.6</ele>
        <time>2024-02-17T15:05:44Z</time>
      </trkpt>
      <trkpt lat="44.12861" lon="3.24825">
        <ele>674.4</ele>
        <time>2024-02-17T15:05:51Z</time>
      </trkpt>
      <trkpt lat="44.1287" lon="3.2482">
        <ele>675.3</ele>
        <time>2024-02-17T15:05:57Z</time>
      </trkpt>
      <trkpt lat="44.12879" lon="3.24814">
        <ele>675.9</ele>
        <time>2024-02-17T15:06:05Z</time>
      </trkpt>
      <trkpt lat="44.12887" lon="3.24807">
        <ele>675.9</ele>
        <time>2024-02-17T15:06:11Z</time>
      </trkpt>
      <trkpt lat="44.12896" lon="3.24801">
        <ele>676.6</ele>
        <time>2024-02-17T15:06:20Z</time>
      </trkpt>
      <trkpt lat="44.12906" lon="3.24798">
        <ele>678.2</ele>
        <time>2024-02-17T15:06:26Z</time>
      </trkpt>
      <trkpt lat="44.12915" lon="3.248">
        <ele>681.4</ele>
        <time>2024-02-17T15:06:32Z</time>
      </trkpt>
      <trkpt lat="44.12925" lon="3.24802">
        <ele>680.8</ele>
        <time>2024-02-17T15:06:38Z</time>
      </trkpt>
      <trkpt lat="44.12933" lon="3.24807">
        <ele>681</ele>
        <time>2024-02-17T15:06:43Z</time>
      </trkpt>
      <trkpt lat="44.1294" lon="3.24815">
        <ele>682.7</ele>
        <time>2024-02-17T15:06:49Z</time>
      </trkpt>
      <trkpt lat="44.1295" lon="3.24817">
        <ele>684.3</ele>
        <time>2024-02-17T15:06:56Z</time>
      </trkpt>
      <trkpt lat="44.12959" lon="3.24816">
        <ele>686.6</ele>
        <time>2024-02-17T15:07:05Z</time>
      </trkpt>
      <trkpt lat="44.12969" lon="3.24812">
        <ele>687.6</ele>
        <time>2024-02-17T15:07:12Z</time>
      </trkpt>
      <trkpt lat="44.12978" lon="3.24804">
        <ele>686.5</ele>
        <time>2024-02-17T15:07:19Z</time>
      </trkpt>
      <trkpt lat="44.12986" lon="3.24796">
        <ele>686.5</ele>
        <time>2024-02-17T15:07:26Z</time>
      </trkpt>
      <trkpt lat="44.12996" lon="3.24792">
        <ele>689</ele>
        <time>2024-02-17T15:07:37Z</time>
      </trkpt>
      <trkpt lat="44.13006" lon="3.2479">
        <ele>690.9</ele>
        <time>2024-02-17T15:07:44Z</time>
      </trkpt>
      <trkpt lat="44.13016" lon="3.24786">
        <ele>691.1</ele>
        <time>2024-02-17T15:07:50Z</time>
      </trkpt>
      <trkpt lat="44.13026" lon="3.24786">
        <ele>692.7</ele>
        <time>2024-02-17T15:07:56Z</time>
      </trkpt>
      <trkpt lat="44.13034" lon="3.24791">
        <ele>693.3</ele>
        <time>2024-02-17T15:08:04Z</time>
      </trkpt>
      <trkpt lat="44.13044" lon="3.24797">
        <ele>693.5</ele>
        <time>2024-02-17T15:08:13Z</time>
      </trkpt>
      <trkpt lat="44.13052" lon="3.24805">
        <ele>695.4</ele>
        <time>2024-02-17T15:08:21Z</time>
      </trkpt>
      <trkpt lat="44.1306" lon="3.2481">
        <ele>696.4</ele>
        <time>2024-02-17T15:08:28Z</time>
      </trkpt>
      <trkpt lat="44.13069" lon="3.24818">
        <ele>698.9</ele>
        <time>2024-02-17T15:08:36Z</time>
      </trkpt>
      <trkpt lat="44.13079" lon="3.24823">
        <ele>700</ele>
        <time>2024-02-17T15:08:44Z</time>
      </trkpt>
      <trkpt lat="44.13088" lon="3.24829">
        <ele>701.6</ele>
        <time>2024-02-17T15:08:52Z</time>
      </trkpt>
      <trkpt lat="44.13097" lon="3.24834">
        <ele>702.8</ele>
        <time>2024-02-17T15:09:02Z</time>
      </trkpt>
      <trkpt lat="44.13105" lon="3.24841">
        <ele>705.2</ele>
        <time>2024-02-17T15:09:11Z</time>
      </trkpt>
      <trkpt lat="44.13114" lon="3.24846">
        <ele>706.2</ele>
        <time>2024-02-17T15:09:20Z</time>
      </trkpt>
      <trkpt lat="44.13122" lon="3.24852">
        <ele>707</ele>
        <time>2024-02-17T15:09:29Z</time>
      </trkpt>
      <trkpt lat="44.13129" lon="3.24862">
        <ele>709.8</ele>
        <time>2024-02-17T15:09:39Z</time>
      </trkpt>
      <trkpt lat="44.13119" lon="3.24862">
        <ele>712.3</ele>
        <time>2024-02-17T15:09:59Z</time>
      </trkpt>
      <trkpt lat="44.1311" lon="3.2486">
        <ele>713.6</ele>
        <time>2024-02-17T15:10:06Z</time>
      </trkpt>
      <trkpt lat="44.13101" lon="3.2486">
        <ele>714.6</ele>
        <time>2024-02-17T15:10:12Z</time>
      </trkpt>
      <trkpt lat="44.13092" lon="3.24862">
        <ele>716.4</ele>
        <time>2024-02-17T15:10:18Z</time>
      </trkpt>
      <trkpt lat="44.13082" lon="3.24862">
        <ele>717.4</ele>
        <time>2024-02-17T15:10:24Z</time>
      </trkpt>
      <trkpt lat="44.13073" lon="3.24862">
        <ele>718.1</ele>
        <time>2024-02-17T15:10:30Z</time>
      </trkpt>
      <trkpt lat="44.13064" lon="3.24862">
        <ele>718.7</ele>
        <time>2024-02-17T15:10:37Z</time>
      </trkpt>
      <trkpt lat="44.13054" lon="3.24862">
        <ele>719.5</ele>
        <time>2024-02-17T15:10:44Z</time>
      </trkpt>
      <trkpt lat="44.13045" lon="3.24863">
        <ele>720.8</ele>
        <time>2024-02-17T15:10:51Z</time>
      </trkpt>
      <trkpt lat="44.13035" lon="3.24864">
        <ele>722.1</ele>
        <time>2024-02-17T15:10:56Z</time>
      </trkpt>
      <trkpt lat="44.13026" lon="3.24864">
        <ele>722.7</ele>
        <time>2024-02-17T15:11:02Z</time>
      </trkpt>
      <trkpt lat="44.13017" lon="3.24867">
        <ele>722.8</ele>
        <time>2024-02-17T15:11:08Z</time>
      </trkpt>
      <trkpt lat="44.13017" lon="3.2488">
        <ele>726.4</ele>
        <time>2024-02-17T15:11:15Z</time>
      </trkpt>
      <trkpt lat="44.13028" lon="3.24881">
        <ele>727.7</ele>
        <time>2024-02-17T15:11:21Z</time>
      </trkpt>
      <trkpt lat="44.13037" lon="3.24883">
        <ele>728.1</ele>
        <time>2024-02-17T15:11:26Z</time>
      </trkpt>
      <trkpt lat="44.13046" lon="3.24886">
        <ele>729</ele>
        <time>2024-02-17T15:11:31Z</time>
      </trkpt>
      <trkpt lat="44.13055" lon="3.24888">
        <ele>729.6</ele>
        <time>2024-02-17T15:11:35Z</time>
      </trkpt>
      <trkpt lat="44.13064" lon="3.24892">
        <ele>730.3</ele>
        <time>2024-02-17T15:11:40Z</time>
      </trkpt>
      <trkpt lat="44.13073" lon="3.24897">
        <ele>731.1</ele>
        <time>2024-02-17T15:11:46Z</time>
      </trkpt>
      <trkpt lat="44.13082" lon="3.24902">
        <ele>731.9</ele>
        <time>2024-02-17T15:11:51Z</time>
      </trkpt>
      <trkpt lat="44.1309" lon="3.24909">
        <ele>733</ele>
        <time>2024-02-17T15:11:56Z</time>
      </trkpt>
      <trkpt lat="44.13098" lon="3.24915">
        <ele>733.9</ele>
        <time>2024-02-17T15:12:01Z</time>
      </trkpt>
      <trkpt lat="44.13107" lon="3.24923">
        <ele>735.3</ele>
        <time>2024-02-17T15:12:06Z</time>
      </trkpt>
      <trkpt lat="44.13115" lon="3.2493">
        <ele>735.9</ele>
        <time>2024-02-17T15:12:11Z</time>
      </trkpt>
      <trkpt lat="44.13123" lon="3.24939">
        <ele>736.8</ele>
        <time>2024-02-17T15:12:18Z</time>
      </trkpt>
      <trkpt lat="44.1313" lon="3.24947">
        <ele>737.7</ele>
        <time>2024-02-17T15:12:23Z</time>
      </trkpt>
      <trkpt lat="44.13138" lon="3.24955">
        <ele>738.2</ele>
        <time>2024-02-17T15:12:28Z</time>
      </trkpt>
      <trkpt lat="44.13146" lon="3.24963">
        <ele>738.7</ele>
        <time>2024-02-17T15:12:35Z</time>
      </trkpt>
      <trkpt lat="44.13153" lon="3.24972">
        <ele>739.9</ele>
        <time>2024-02-17T15:12:41Z</time>
      </trkpt>
      <trkpt lat="44.1316" lon="3.2498">
        <ele>740.4</ele>
        <time>2024-02-17T15:12:47Z</time>
      </trkpt>
      <trkpt lat="44.13167" lon="3.24989">
        <ele>741.2</ele>
        <time>2024-02-17T15:12:52Z</time>
      </trkpt>
      <trkpt lat="44.13174" lon="3.24998">
        <ele>742.4</ele>
        <time>2024-02-17T15:12:57Z</time>
      </trkpt>
      <trkpt lat="44.13181" lon="3.25008">
        <ele>743.7</ele>
        <time>2024-02-17T15:13:03Z</time>
      </trkpt>
      <trkpt lat="44.13188" lon="3.25016">
        <ele>744.1</ele>
        <time>2024-02-17T15:13:08Z</time>
      </trkpt>
      <trkpt lat="44.13195" lon="3.25027">
        <ele>744.8</ele>
        <time>2024-02-17T15:13:14Z</time>
      </trkpt>
      <trkpt lat="44.13202" lon="3.25036">
        <ele>745.9</ele>
        <time>2024-02-17T15:13:19Z</time>
      </trkpt>
      <trkpt lat="44.13208" lon="3.25047">
        <ele>747.6</ele>
        <time>2024-02-17T15:13:24Z</time>
      </trkpt>
      <trkpt lat="44.13216" lon="3.25057">
        <ele>748.3</ele>
        <time>2024-02-17T15:13:29Z</time>
      </trkpt>
      <trkpt lat="44.13223" lon="3.25066">
        <ele>748.4</ele>
        <time>2024-02-17T15:13:34Z</time>
      </trkpt>
      <trkpt lat="44.13231" lon="3.25074">
        <ele>749.1</ele>
        <time>2024-02-17T15:13:39Z</time>
      </trkpt>
      <trkpt lat="44.1324" lon="3.25079">
        <ele>749.9</ele>
        <time>2024-02-17T15:13:44Z</time>
      </trkpt>
      <trkpt lat="44.13249" lon="3.25081">
        <ele>750.3</ele>
        <time>2024-02-17T15:13:49Z</time>
      </trkpt>
      <trkpt lat="44.13259" lon="3.25081">
        <ele>751.6</ele>
        <time>2024-02-17T15:13:54Z</time>
      </trkpt>
      <trkpt lat="44.13268" lon="3.2508">
        <ele>752.6</ele>
        <time>2024-02-17T15:13:58Z</time>
      </trkpt>
      <trkpt lat="44.13278" lon="3.25079">
        <ele>753.8</ele>
        <time>2024-02-17T15:14:03Z</time>
      </trkpt>
      <trkpt lat="44.13289" lon="3.25078">
        <ele>754.6</ele>
        <time>2024-02-17T15:14:08Z</time>
      </trkpt>
      <trkpt lat="44.13299" lon="3.2508">
        <ele>756.2</ele>
        <time>2024-02-17T15:14:13Z</time>
      </trkpt>
      <trkpt lat="44.13309" lon="3.25085">
        <ele>757.9</ele>
        <time>2024-02-17T15:14:18Z</time>
      </trkpt>
      <trkpt lat="44.13317" lon="3.25091">
        <ele>757.9</ele>
        <time>2024-02-17T15:14:22Z</time>
      </trkpt>
      <trkpt lat="44.13327" lon="3.25098">
        <ele>757.7</ele>
        <time>2024-02-17T15:14:27Z</time>
      </trkpt>
      <trkpt lat="44.13335" lon="3.25105">
        <ele>757.8</ele>
        <time>2024-02-17T15:14:31Z</time>
      </trkpt>
      <trkpt lat="44.13342" lon="3.25114">
        <ele>758.8</ele>
        <time>2024-02-17T15:14:35Z</time>
      </trkpt>
      <trkpt lat="44.13351" lon="3.25123">
        <ele>759.2</ele>
        <time>2024-02-17T15:14:39Z</time>
      </trkpt>
      <trkpt lat="44.1336" lon="3.25132">
        <ele>759.4</ele>
        <time>2024-02-17T15:14:43Z</time>
      </trkpt>
      <trkpt lat="44.13368" lon="3.2514">
        <ele>759.9</ele>
        <time>2024-02-17T15:14:47Z</time>
      </trkpt>
      <trkpt lat="44.13378" lon="3.2515">
        <ele>760.8</ele>
        <time>2024-02-17T15:14:51Z</time>
      </trkpt>
      <trkpt lat="44.13385" lon="3.25157">
        <ele>761.7</ele>
        <time>2024-02-17T15:14:54Z</time>
      </trkpt>
      <trkpt lat="44.13395" lon="3.25165">
        <ele>762.6</ele>
        <time>2024-02-17T15:14:58Z</time>
      </trkpt>
      <trkpt lat="44.13404" lon="3.25172">
        <ele>763.1</ele>
        <time>2024-02-17T15:15:01Z</time>
      </trkpt>
      <trkpt lat="44.13412" lon="3.25178">
        <ele>763.5</ele>
        <time>2024-02-17T15:15:04Z</time>
      </trkpt>
      <trkpt lat="44.1342" lon="3.25185">
        <ele>764</ele>
        <time>2024-02-17T15:15:07Z</time>
      </trkpt>
      <trkpt lat="44.1343" lon="3.25193">
        <ele>764.9</ele>
        <time>2024-02-17T15:15:11Z</time>
      </trkpt>
      <trkpt lat="44.13438" lon="3.25199">
        <ele>765.4</ele>
        <time>2024-02-17T15:15:16Z</time>
      </trkpt>
      <trkpt lat="44.13445" lon="3.25207">
        <ele>765.9</ele>
        <time>2024-02-17T15:15:20Z</time>
      </trkpt>
      <trkpt lat="44.13453" lon="3.25214">
        <ele>766.3</ele>
        <time>2024-02-17T15:15:24Z</time>
      </trkpt>
      <trkpt lat="44.13462" lon="3.25221">
        <ele>766.9</ele>
        <time>2024-02-17T15:15:29Z</time>
      </trkpt>
      <trkpt lat="44.1347" lon="3.25229">
        <ele>767.7</ele>
        <time>2024-02-17T15:15:33Z</time>
      </trkpt>
      <trkpt lat="44.13478" lon="3.25238">
        <ele>768.5</ele>
        <time>2024-02-17T15:15:37Z</time>
      </trkpt>
      <trkpt lat="44.13486" lon="3.25249">
        <ele>768.9</ele>
        <time>2024-02-17T15:15:41Z</time>
      </trkpt>
      <trkpt lat="44.13495" lon="3.2526">
        <ele>769</ele>
        <time>2024-02-17T15:15:45Z</time>
      </trkpt>
      <trkpt lat="44.13503" lon="3.2527">
        <ele>769.4</ele>
        <time>2024-02-17T15:15:49Z</time>
      </trkpt>
      <trkpt lat="44.13511" lon="3.2528">
        <ele>769.7</ele>
        <time>2024-02-17T15:15:53Z</time>
      </trkpt>
      <trkpt lat="44.13519" lon="3.25291">
        <ele>770.4</ele>
        <time>2024-02-17T15:15:57Z</time>
      </trkpt>
      <trkpt lat="44.13527" lon="3.25302">
        <ele>771.6</ele>
        <time>2024-02-17T15:16:01Z</time>
      </trkpt>
      <trkpt lat="44.13536" lon="3.25313">
        <ele>771.8</ele>
        <time>2024-02-17T15:16:05Z</time>
      </trkpt>
      <trkpt lat="44.13544" lon="3.25324">
        <ele>772.3</ele>
        <time>2024-02-17T15:16:09Z</time>
      </trkpt>
      <trkpt lat="44.13551" lon="3.25332">
        <ele>772.9</ele>
        <time>2024-02-17T15:16:12Z</time>
      </trkpt>
      <trkpt lat="44.13557" lon="3.25341">
        <ele>773.2</ele>
        <time>2024-02-17T15:16:15Z</time>
      </trkpt>
      <trkpt lat="44.13565" lon="3.25348">
        <ele>773.2</ele>
        <time>2024-02-17T15:16:18Z</time>
      </trkpt>
      <trkpt lat="44.13574" lon="3.25351">
        <ele>773.2</ele>
        <time>2024-02-17T15:16:21Z</time>
      </trkpt>
      <trkpt lat="44.13588" lon="3.25352">
        <ele>772.8</ele>
        <time>2024-02-17T15:16:24Z</time>
      </trkpt>
      <trkpt lat="44.136" lon="3.25353">
        <ele>772.3</ele>
        <time>2024-02-17T15:16:26Z</time>
      </trkpt>
      <trkpt lat="44.13612" lon="3.25352">
        <ele>771.7</ele>
        <time>2024-02-17T15:16:28Z</time>
      </trkpt>
      <trkpt lat="44.13623" lon="3.25351">
        <ele>772.1</ele>
        <time>2024-02-17T15:16:30Z</time>
      </trkpt>
      <trkpt lat="44.13632" lon="3.2535">
        <ele>772.4</ele>
        <time>2024-02-17T15:16:32Z</time>
      </trkpt>
      <trkpt lat="44.13642" lon="3.25348">
        <ele>772.8</ele>
        <time>2024-02-17T15:16:36Z</time>
      </trkpt>
      <trkpt lat="44.13651" lon="3.25346">
        <ele>773.5</ele>
        <time>2024-02-17T15:16:41Z</time>
      </trkpt>
      <trkpt lat="44.13661" lon="3.25345">
        <ele>774.3</ele>
        <time>2024-02-17T15:16:46Z</time>
      </trkpt>
      <trkpt lat="44.1367" lon="3.25343">
        <ele>775.2</ele>
        <time>2024-02-17T15:16:51Z</time>
      </trkpt>
      <trkpt lat="44.1368" lon="3.25345">
        <ele>777</ele>
        <time>2024-02-17T15:16:56Z</time>
      </trkpt>
      <trkpt lat="44.13689" lon="3.25346">
        <ele>778.5</ele>
        <time>2024-02-17T15:17:00Z</time>
      </trkpt>
      <trkpt lat="44.13699" lon="3.25345">
        <ele>779.7</ele>
        <time>2024-02-17T15:17:04Z</time>
      </trkpt>
      <trkpt lat="44.13709" lon="3.25347">
        <ele>780.8</ele>
        <time>2024-02-17T15:17:08Z</time>
      </trkpt>
      <trkpt lat="44.13719" lon="3.25346">
        <ele>781.6</ele>
        <time>2024-02-17T15:17:13Z</time>
      </trkpt>
      <trkpt lat="44.13729" lon="3.25345">
        <ele>782.3</ele>
        <time>2024-02-17T15:17:18Z</time>
      </trkpt>
      <trkpt lat="44.1374" lon="3.25342">
        <ele>782.9</ele>
        <time>2024-02-17T15:17:23Z</time>
      </trkpt>
      <trkpt lat="44.13749" lon="3.25341">
        <ele>783.5</ele>
        <time>2024-02-17T15:17:27Z</time>
      </trkpt>
      <trkpt lat="44.13759" lon="3.25338">
        <ele>784.3</ele>
        <time>2024-02-17T15:17:31Z</time>
      </trkpt>
      <trkpt lat="44.13768" lon="3.25336">
        <ele>785.1</ele>
        <time>2024-02-17T15:17:35Z</time>
      </trkpt>
      <trkpt lat="44.13778" lon="3.25335">
        <ele>786.1</ele>
        <time>2024-02-17T15:17:39Z</time>
      </trkpt>
      <trkpt lat="44.13788" lon="3.25333">
        <ele>786.7</ele>
        <time>2024-02-17T15:17:44Z</time>
      </trkpt>
      <trkpt lat="44.13798" lon="3.25333">
        <ele>787.4</ele>
        <time>2024-02-17T15:17:49Z</time>
      </trkpt>
      <trkpt lat="44.13807" lon="3.2533">
        <ele>788.2</ele>
        <time>2024-02-17T15:17:54Z</time>
      </trkpt>
      <trkpt lat="44.13816" lon="3.25328">
        <ele>789.1</ele>
        <time>2024-02-17T15:17:59Z</time>
      </trkpt>
      <trkpt lat="44.13826" lon="3.25325">
        <ele>790.2</ele>
        <time>2024-02-17T15:18:04Z</time>
      </trkpt>
      <trkpt lat="44.13835" lon="3.25323">
        <ele>791.1</ele>
        <time>2024-02-17T15:18:09Z</time>
      </trkpt>
      <trkpt lat="44.13844" lon="3.2532">
        <ele>791.8</ele>
        <time>2024-02-17T15:18:14Z</time>
      </trkpt>
      <trkpt lat="44.13854" lon="3.25316">
        <ele>792.5</ele>
        <time>2024-02-17T15:18:20Z</time>
      </trkpt>
      <trkpt lat="44.13862" lon="3.25312">
        <ele>793.1</ele>
        <time>2024-02-17T15:18:25Z</time>
      </trkpt>
      <trkpt lat="44.13871" lon="3.2531">
        <ele>793.7</ele>
        <time>2024-02-17T15:18:30Z</time>
      </trkpt>
      <trkpt lat="44.13881" lon="3.25306">
        <ele>794.4</ele>
        <time>2024-02-17T15:18:35Z</time>
      </trkpt>
      <trkpt lat="44.13891" lon="3.25303">
        <ele>795.1</ele>
        <time>2024-02-17T15:18:40Z</time>
      </trkpt>
      <trkpt lat="44.13902" lon="3.25301">
        <ele>795.5</ele>
        <time>2024-02-17T15:18:45Z</time>
      </trkpt>
      <trkpt lat="44.1391" lon="3.25298">
        <ele>796</ele>
        <time>2024-02-17T15:18:49Z</time>
      </trkpt>
      <trkpt lat="44.13919" lon="3.25296">
        <ele>796.4</ele>
        <time>2024-02-17T15:18:53Z</time>
      </trkpt>
      <trkpt lat="44.13929" lon="3.25294">
        <ele>796.9</ele>
        <time>2024-02-17T15:18:57Z</time>
      </trkpt>
      <trkpt lat="44.13938" lon="3.25291">
        <ele>797.3</ele>
        <time>2024-02-17T15:19:01Z</time>
      </trkpt>
      <trkpt lat="44.13947" lon="3.2529">
        <ele>797.7</ele>
        <time>2024-02-17T15:19:05Z</time>
      </trkpt>
      <trkpt lat="44.13956" lon="3.25289">
        <ele>798.1</ele>
        <time>2024-02-17T15:19:09Z</time>
      </trkpt>
      <trkpt lat="44.13966" lon="3.25287">
        <ele>798.7</ele>
        <time>2024-02-17T15:19:13Z</time>
      </trkpt>
      <trkpt lat="44.13975" lon="3.25287">
        <ele>799.1</ele>
        <time>2024-02-17T15:19:17Z</time>
      </trkpt>
      <trkpt lat="44.13986" lon="3.25284">
        <ele>799.8</ele>
        <time>2024-02-17T15:19:22Z</time>
      </trkpt>
      <trkpt lat="44.13997" lon="3.25283">
        <ele>800.3</ele>
        <time>2024-02-17T15:19:27Z</time>
      </trkpt>
      <trkpt lat="44.14006" lon="3.25283">
        <ele>800.6</ele>
        <time>2024-02-17T15:19:31Z</time>
      </trkpt>
      <trkpt lat="44.14017" lon="3.25283">
        <ele>800.9</ele>
        <time>2024-02-17T15:19:35Z</time>
      </trkpt>
      <trkpt lat="44.14027" lon="3.25283">
        <ele>801.2</ele>
        <time>2024-02-17T15:19:39Z</time>
      </trkpt>
      <trkpt lat="44.14038" lon="3.25286">
        <ele>801.7</ele>
        <time>2024-02-17T15:19:43Z</time>
      </trkpt>
      <trkpt lat="44.14047" lon="3.25288">
        <ele>802.1</ele>
        <time>2024-02-17T15:19:46Z</time>
      </trkpt>
      <trkpt lat="44.14056" lon="3.25291">
        <ele>802.2</ele>
        <time>2024-02-17T15:19:49Z</time>
      </trkpt>
      <trkpt lat="44.14066" lon="3.25293">
        <ele>802.6</ele>
        <time>2024-02-17T15:19:52Z</time>
      </trkpt>
      <trkpt lat="44.14076" lon="3.25295">
        <ele>803</ele>
        <time>2024-02-17T15:19:55Z</time>
      </trkpt>
      <trkpt lat="44.14086" lon="3.25297">
        <ele>803.4</ele>
        <time>2024-02-17T15:19:58Z</time>
      </trkpt>
      <trkpt lat="44.14097" lon="3.25299">
        <ele>804</ele>
        <time>2024-02-17T15:20:02Z</time>
      </trkpt>
      <trkpt lat="44.14108" lon="3.25301">
        <ele>804.7</ele>
        <time>2024-02-17T15:20:06Z</time>
      </trkpt>
      <trkpt lat="44.14119" lon="3.25302">
        <ele>805.4</ele>
        <time>2024-02-17T15:20:10Z</time>
      </trkpt>
      <trkpt lat="44.1413" lon="3.25303">
        <ele>806</ele>
        <time>2024-02-17T15:20:14Z</time>
      </trkpt>
      <trkpt lat="44.1414" lon="3.25306">
        <ele>806.1</ele>
        <time>2024-02-17T15:20:18Z</time>
      </trkpt>
      <trkpt lat="44.14149" lon="3.25309">
        <ele>807.3</ele>
        <time>2024-02-17T15:20:22Z</time>
      </trkpt>
      <trkpt lat="44.1416" lon="3.25314">
        <ele>808.4</ele>
        <time>2024-02-17T15:20:27Z</time>
      </trkpt>
      <trkpt lat="44.1417" lon="3.25319">
        <ele>809.2</ele>
        <time>2024-02-17T15:20:32Z</time>
      </trkpt>
      <trkpt lat="44.14179" lon="3.25324">
        <ele>809.9</ele>
        <time>2024-02-17T15:20:37Z</time>
      </trkpt>
      <trkpt lat="44.14188" lon="3.2533">
        <ele>810.4</ele>
        <time>2024-02-17T15:20:42Z</time>
      </trkpt>
      <trkpt lat="44.14198" lon="3.25335">
        <ele>811.2</ele>
        <time>2024-02-17T15:20:48Z</time>
      </trkpt>
      <trkpt lat="44.14207" lon="3.2534">
        <ele>811.7</ele>
        <time>2024-02-17T15:20:54Z</time>
      </trkpt>
      <trkpt lat="44.14216" lon="3.25344">
        <ele>812.5</ele>
        <time>2024-02-17T15:20:59Z</time>
      </trkpt>
      <trkpt lat="44.14225" lon="3.25347">
        <ele>813.4</ele>
        <time>2024-02-17T15:21:04Z</time>
      </trkpt>
      <trkpt lat="44.14234" lon="3.25349">
        <ele>814.4</ele>
        <time>2024-02-17T15:21:10Z</time>
      </trkpt>
      <trkpt lat="44.14244" lon="3.25353">
        <ele>815.5</ele>
        <time>2024-02-17T15:21:16Z</time>
      </trkpt>
      <trkpt lat="44.14253" lon="3.25358">
        <ele>816.5</ele>
        <time>2024-02-17T15:21:21Z</time>
      </trkpt>
      <trkpt lat="44.14262" lon="3.2536">
        <ele>817.4</ele>
        <time>2024-02-17T15:21:26Z</time>
      </trkpt>
      <trkpt lat="44.14272" lon="3.25361">
        <ele>818.4</ele>
        <time>2024-02-17T15:21:31Z</time>
      </trkpt>
      <trkpt lat="44.14282" lon="3.25361">
        <ele>819.5</ele>
        <time>2024-02-17T15:21:37Z</time>
      </trkpt>
      <trkpt lat="44.14293" lon="3.25363">
        <ele>820.5</ele>
        <time>2024-02-17T15:21:43Z</time>
      </trkpt>
      <trkpt lat="44.14303" lon="3.25365">
        <ele>821.4</ele>
        <time>2024-02-17T15:21:49Z</time>
      </trkpt>
      <trkpt lat="44.14313" lon="3.25366">
        <ele>822.5</ele>
        <time>2024-02-17T15:21:54Z</time>
      </trkpt>
      <trkpt lat="44.14322" lon="3.2537">
        <ele>823.1</ele>
        <time>2024-02-17T15:21:59Z</time>
      </trkpt>
      <trkpt lat="44.14331" lon="3.25374">
        <ele>823.8</ele>
        <time>2024-02-17T15:22:05Z</time>
      </trkpt>
      <trkpt lat="44.1434" lon="3.2538">
        <ele>824.1</ele>
        <time>2024-02-17T15:22:11Z</time>
      </trkpt>
      <trkpt lat="44.14349" lon="3.25389">
        <ele>824.1</ele>
        <time>2024-02-17T15:22:17Z</time>
      </trkpt>
      <trkpt lat="44.14358" lon="3.25388">
        <ele>824.8</ele>
        <time>2024-02-17T15:22:24Z</time>
      </trkpt>
      <trkpt lat="44.14366" lon="3.25379">
        <ele>825.9</ele>
        <time>2024-02-17T15:22:32Z</time>
      </trkpt>
      <trkpt lat="44.1437" lon="3.25367">
        <ele>826.9</ele>
        <time>2024-02-17T15:22:38Z</time>
      </trkpt>
      <trkpt lat="44.14374" lon="3.25353">
        <ele>828</ele>
        <time>2024-02-17T15:22:44Z</time>
      </trkpt>
      <trkpt lat="44.14379" lon="3.25342">
        <ele>829</ele>
        <time>2024-02-17T15:22:48Z</time>
      </trkpt>
      <trkpt lat="44.14384" lon="3.2533">
        <ele>829.8</ele>
        <time>2024-02-17T15:22:53Z</time>
      </trkpt>
      <trkpt lat="44.1439" lon="3.25319">
        <ele>830.1</ele>
        <time>2024-02-17T15:22:58Z</time>
      </trkpt>
      <trkpt lat="44.14396" lon="3.25308">
        <ele>830.5</ele>
        <time>2024-02-17T15:23:03Z</time>
      </trkpt>
      <trkpt lat="44.14403" lon="3.25298">
        <ele>830.6</ele>
        <time>2024-02-17T15:23:08Z</time>
      </trkpt>
      <trkpt lat="44.1441" lon="3.25288">
        <ele>831.1</ele>
        <time>2024-02-17T15:23:12Z</time>
      </trkpt>
      <trkpt lat="44.14418" lon="3.25279">
        <ele>832.1</ele>
        <time>2024-02-17T15:23:17Z</time>
      </trkpt>
      <trkpt lat="44.14426" lon="3.25275">
        <ele>832.5</ele>
        <time>2024-02-17T15:23:22Z</time>
      </trkpt>
      <trkpt lat="44.14436" lon="3.25271">
        <ele>833.2</ele>
        <time>2024-02-17T15:23:29Z</time>
      </trkpt>
      <trkpt lat="44.14444" lon="3.25262">
        <ele>833.9</ele>
        <time>2024-02-17T15:23:35Z</time>
      </trkpt>
      <trkpt lat="44.1445" lon="3.25252">
        <ele>834.2</ele>
        <time>2024-02-17T15:23:44Z</time>
      </trkpt>
      <trkpt lat="44.14458" lon="3.25242">
        <ele>834.2</ele>
        <time>2024-02-17T15:23:53Z</time>
      </trkpt>
      <trkpt lat="44.14466" lon="3.25233">
        <ele>834.8</ele>
        <time>2024-02-17T15:23:57Z</time>
      </trkpt>
      <trkpt lat="44.14473" lon="3.25225">
        <ele>835.9</ele>
        <time>2024-02-17T15:24:01Z</time>
      </trkpt>
      <trkpt lat="44.14482" lon="3.25217">
        <ele>836.4</ele>
        <time>2024-02-17T15:24:06Z</time>
      </trkpt>
      <trkpt lat="44.14492" lon="3.25211">
        <ele>837</ele>
        <time>2024-02-17T15:24:11Z</time>
      </trkpt>
      <trkpt lat="44.14501" lon="3.25203">
        <ele>837.7</ele>
        <time>2024-02-17T15:24:16Z</time>
      </trkpt>
      <trkpt lat="44.14509" lon="3.25194">
        <ele>838</ele>
        <time>2024-02-17T15:24:21Z</time>
      </trkpt>
      <trkpt lat="44.14517" lon="3.25185">
        <ele>838.3</ele>
        <time>2024-02-17T15:24:26Z</time>
      </trkpt>
      <trkpt lat="44.14525" lon="3.25174">
        <ele>838.7</ele>
        <time>2024-02-17T15:24:31Z</time>
      </trkpt>
      <trkpt lat="44.14533" lon="3.25164">
        <ele>839.1</ele>
        <time>2024-02-17T15:24:36Z</time>
      </trkpt>
      <trkpt lat="44.14541" lon="3.25154">
        <ele>839.7</ele>
        <time>2024-02-17T15:24:41Z</time>
      </trkpt>
      <trkpt lat="44.14548" lon="3.25143">
        <ele>840.5</ele>
        <time>2024-02-17T15:24:46Z</time>
      </trkpt>
      <trkpt lat="44.14555" lon="3.25134">
        <ele>841.2</ele>
        <time>2024-02-17T15:24:51Z</time>
      </trkpt>
      <trkpt lat="44.14563" lon="3.25126">
        <ele>841.6</ele>
        <time>2024-02-17T15:24:57Z</time>
      </trkpt>
      <trkpt lat="44.14569" lon="3.25116">
        <ele>842.2</ele>
        <time>2024-02-17T15:25:17Z</time>
      </trkpt>
      <trkpt lat="44.14569" lon="3.25103">
        <ele>842.5</ele>
        <time>2024-02-17T15:26:38Z</time>
      </trkpt>
      <trkpt lat="44.14569" lon="3.2509">
        <ele>842.5</ele>
        <time>2024-02-17T15:26:45Z</time>
      </trkpt>
      <trkpt lat="44.1457" lon="3.25076">
        <ele>842.4</ele>
        <time>2024-02-17T15:26:51Z</time>
      </trkpt>
      <trkpt lat="44.1457" lon="3.25063">
        <ele>842.2</ele>
        <time>2024-02-17T15:26:56Z</time>
      </trkpt>
      <trkpt lat="44.14573" lon="3.25047">
        <ele>841.9</ele>
        <time>2024-02-17T15:27:01Z</time>
      </trkpt>
      <trkpt lat="44.14575" lon="3.25035">
        <ele>841.7</ele>
        <time>2024-02-17T15:27:04Z</time>
      </trkpt>
      <trkpt lat="44.14577" lon="3.25018">
        <ele>840.8</ele>
        <time>2024-02-17T15:27:07Z</time>
      </trkpt>
      <trkpt lat="44.1458" lon="3.25002">
        <ele>839.9</ele>
        <time>2024-02-17T15:27:10Z</time>
      </trkpt>
      <trkpt lat="44.14585" lon="3.24987">
        <ele>839.7</ele>
        <time>2024-02-17T15:27:13Z</time>
      </trkpt>
      <trkpt lat="44.1459" lon="3.24973">
        <ele>839.5</ele>
        <time>2024-02-17T15:27:16Z</time>
      </trkpt>
      <trkpt lat="44.14593" lon="3.24958">
        <ele>838.7</ele>
        <time>2024-02-17T15:27:19Z</time>
      </trkpt>
      <trkpt lat="44.14596" lon="3.24941">
        <ele>837.7</ele>
        <time>2024-02-17T15:27:22Z</time>
      </trkpt>
      <trkpt lat="44.14597" lon="3.24928">
        <ele>836.8</ele>
        <time>2024-02-17T15:27:24Z</time>
      </trkpt>
      <trkpt lat="44.14599" lon="3.24913">
        <ele>835.9</ele>
        <time>2024-02-17T15:27:26Z</time>
      </trkpt>
      <trkpt lat="44.14601" lon="3.24898">
        <ele>835.2</ele>
        <time>2024-02-17T15:27:28Z</time>
      </trkpt>
      <trkpt lat="44.14602" lon="3.24883">
        <ele>834.5</ele>
        <time>2024-02-17T15:27:30Z</time>
      </trkpt>
      <trkpt lat="44.14605" lon="3.24868">
        <ele>834</ele>
        <time>2024-02-17T15:27:32Z</time>
      </trkpt>
      <trkpt lat="44.14607" lon="3.24853">
        <ele>833.6</ele>
        <time>2024-02-17T15:27:34Z</time>
      </trkpt>
      <trkpt lat="44.14608" lon="3.24837">
        <ele>833</ele>
        <time>2024-02-17T15:27:36Z</time>
      </trkpt>
      <trkpt lat="44.14611" lon="3.2482">
        <ele>832</ele>
        <time>2024-02-17T15:27:38Z</time>
      </trkpt>
      <trkpt lat="44.14613" lon="3.24802">
        <ele>830.7</ele>
        <time>2024-02-17T15:27:40Z</time>
      </trkpt>
      <trkpt lat="44.14614" lon="3.24786">
        <ele>829.5</ele>
        <time>2024-02-17T15:27:42Z</time>
      </trkpt>
      <trkpt lat="44.1461" lon="3.24771">
        <ele>828.8</ele>
        <time>2024-02-17T15:27:44Z</time>
      </trkpt>
      <trkpt lat="44.14604" lon="3.24758">
        <ele>828.3</ele>
        <time>2024-02-17T15:27:46Z</time>
      </trkpt>
      <trkpt lat="44.14597" lon="3.24744">
        <ele>827.6</ele>
        <time>2024-02-17T15:27:48Z</time>
      </trkpt>
      <trkpt lat="44.1459" lon="3.2473">
        <ele>826.9</ele>
        <time>2024-02-17T15:27:50Z</time>
      </trkpt>
      <trkpt lat="44.14585" lon="3.24714">
        <ele>826.6</ele>
        <time>2024-02-17T15:27:52Z</time>
      </trkpt>
      <trkpt lat="44.14582" lon="3.24699">
        <ele>826.2</ele>
        <time>2024-02-17T15:27:54Z</time>
      </trkpt>
      <trkpt lat="44.14579" lon="3.24683">
        <ele>825.6</ele>
        <time>2024-02-17T15:27:56Z</time>
      </trkpt>
      <trkpt lat="44.14578" lon="3.24669">
        <ele>825.1</ele>
        <time>2024-02-17T15:27:58Z</time>
      </trkpt>
      <trkpt lat="44.14576" lon="3.24654">
        <ele>825</ele>
        <time>2024-02-17T15:28:00Z</time>
      </trkpt>
      <trkpt lat="44.14573" lon="3.24639">
        <ele>825</ele>
        <time>2024-02-17T15:28:02Z</time>
      </trkpt>
      <trkpt lat="44.14571" lon="3.24625">
        <ele>825</ele>
        <time>2024-02-17T15:28:04Z</time>
      </trkpt>
      <trkpt lat="44.14567" lon="3.24612">
        <ele>825</ele>
        <time>2024-02-17T15:28:06Z</time>
      </trkpt>
      <trkpt lat="44.14564" lon="3.24599">
        <ele>825.3</ele>
        <time>2024-02-17T15:28:08Z</time>
      </trkpt>
      <trkpt lat="44.14561" lon="3.24583">
        <ele>825.8</ele>
        <time>2024-02-17T15:28:11Z</time>
      </trkpt>
      <trkpt lat="44.14558" lon="3.24569">
        <ele>826.4</ele>
        <time>2024-02-17T15:28:14Z</time>
      </trkpt>
      <trkpt lat="44.14557" lon="3.24556">
        <ele>826.9</ele>
        <time>2024-02-17T15:28:17Z</time>
      </trkpt>
      <trkpt lat="44.14554" lon="3.24543">
        <ele>828</ele>
        <time>2024-02-17T15:28:21Z</time>
      </trkpt>
      <trkpt lat="44.14553" lon="3.24529">
        <ele>829</ele>
        <time>2024-02-17T15:28:27Z</time>
      </trkpt>
      <trkpt lat="44.14552" lon="3.24515">
        <ele>830</ele>
        <time>2024-02-17T15:28:34Z</time>
      </trkpt>
      <trkpt lat="44.14551" lon="3.24502">
        <ele>831</ele>
        <time>2024-02-17T15:28:40Z</time>
      </trkpt>
      <trkpt lat="44.14545" lon="3.24493">
        <ele>831.6</ele>
        <time>2024-02-17T15:28:46Z</time>
      </trkpt>
      <trkpt lat="44.14535" lon="3.2449">
        <ele>832.1</ele>
        <time>2024-02-17T15:28:52Z</time>
      </trkpt>
      <trkpt lat="44.14527" lon="3.24483">
        <ele>832.6</ele>
        <time>2024-02-17T15:28:57Z</time>
      </trkpt>
      <trkpt lat="44.1452" lon="3.24472">
        <ele>832.7</ele>
        <time>2024-02-17T15:29:02Z</time>
      </trkpt>
      <trkpt lat="44.14519" lon="3.24458">
        <ele>832.7</ele>
        <time>2024-02-17T15:29:06Z</time>
      </trkpt>
      <trkpt lat="44.14519" lon="3.24445">
        <ele>832.7</ele>
        <time>2024-02-17T15:29:10Z</time>
      </trkpt>
      <trkpt lat="44.14518" lon="3.2443">
        <ele>832.6</ele>
        <time>2024-02-17T15:29:14Z</time>
      </trkpt>
      <trkpt lat="44.14519" lon="3.24415">
        <ele>832.7</ele>
        <time>2024-02-17T15:29:18Z</time>
      </trkpt>
      <trkpt lat="44.1452" lon="3.244">
        <ele>833.2</ele>
        <time>2024-02-17T15:29:22Z</time>
      </trkpt>
      <trkpt lat="44.14521" lon="3.24386">
        <ele>833.5</ele>
        <time>2024-02-17T15:29:26Z</time>
      </trkpt>
      <trkpt lat="44.14526" lon="3.24372">
        <ele>833.9</ele>
        <time>2024-02-17T15:29:30Z</time>
      </trkpt>
      <trkpt lat="44.14529" lon="3.2436">
        <ele>834</ele>
        <time>2024-02-17T15:29:34Z</time>
      </trkpt>
      <trkpt lat="44.14527" lon="3.24344">
        <ele>834.6</ele>
        <time>2024-02-17T15:29:38Z</time>
      </trkpt>
      <trkpt lat="44.14525" lon="3.24329">
        <ele>834.9</ele>
        <time>2024-02-17T15:29:41Z</time>
      </trkpt>
      <trkpt lat="44.14523" lon="3.24317">
        <ele>834.9</ele>
        <time>2024-02-17T15:29:44Z</time>
      </trkpt>
      <trkpt lat="44.14523" lon="3.24302">
        <ele>835</ele>
        <time>2024-02-17T15:29:48Z</time>
      </trkpt>
      <trkpt lat="44.14521" lon="3.24287">
        <ele>835</ele>
        <time>2024-02-17T15:29:52Z</time>
      </trkpt>
      <trkpt lat="44.14518" lon="3.24275">
        <ele>835</ele>
        <time>2024-02-17T15:29:55Z</time>
      </trkpt>
      <trkpt lat="44.14515" lon="3.24262">
        <ele>835</ele>
        <time>2024-02-17T15:30:00Z</time>
      </trkpt>
      <trkpt lat="44.1451" lon="3.24247">
        <ele>835.3</ele>
        <time>2024-02-17T15:30:06Z</time>
      </trkpt>
      <trkpt lat="44.14506" lon="3.24236">
        <ele>835.7</ele>
        <time>2024-02-17T15:30:10Z</time>
      </trkpt>
      <trkpt lat="44.14504" lon="3.24222">
        <ele>835.9</ele>
        <time>2024-02-17T15:30:14Z</time>
      </trkpt>
      <trkpt lat="44.14504" lon="3.24209">
        <ele>836.3</ele>
        <time>2024-02-17T15:30:18Z</time>
      </trkpt>
      <trkpt lat="44.14502" lon="3.24196">
        <ele>836.9</ele>
        <time>2024-02-17T15:30:22Z</time>
      </trkpt>
      <trkpt lat="44.14502" lon="3.24182">
        <ele>837</ele>
        <time>2024-02-17T15:30:26Z</time>
      </trkpt>
      <trkpt lat="44.14502" lon="3.24168">
        <ele>837</ele>
        <time>2024-02-17T15:30:30Z</time>
      </trkpt>
      <trkpt lat="44.14502" lon="3.24154">
        <ele>837.5</ele>
        <time>2024-02-17T15:30:34Z</time>
      </trkpt>
      <trkpt lat="44.14502" lon="3.24139">
        <ele>838.1</ele>
        <time>2024-02-17T15:30:38Z</time>
      </trkpt>
      <trkpt lat="44.14502" lon="3.24125">
        <ele>838.1</ele>
        <time>2024-02-17T15:30:42Z</time>
      </trkpt>
      <trkpt lat="44.14503" lon="3.24111">
        <ele>838.1</ele>
        <time>2024-02-17T15:30:46Z</time>
      </trkpt>
      <trkpt lat="44.14505" lon="3.24095">
        <ele>838.3</ele>
        <time>2024-02-17T15:30:50Z</time>
      </trkpt>
      <trkpt lat="44.14506" lon="3.24079">
        <ele>838.4</ele>
        <time>2024-02-17T15:30:54Z</time>
      </trkpt>
      <trkpt lat="44.14508" lon="3.24066">
        <ele>838.4</ele>
        <time>2024-02-17T15:30:57Z</time>
      </trkpt>
      <trkpt lat="44.14509" lon="3.24053">
        <ele>838.4</ele>
        <time>2024-02-17T15:31:00Z</time>
      </trkpt>
      <trkpt lat="44.14511" lon="3.24039">
        <ele>838.8</ele>
        <time>2024-02-17T15:31:03Z</time>
      </trkpt>
      <trkpt lat="44.14513" lon="3.24025">
        <ele>839</ele>
        <time>2024-02-17T15:31:06Z</time>
      </trkpt>
      <trkpt lat="44.14514" lon="3.24011">
        <ele>839</ele>
        <time>2024-02-17T15:31:09Z</time>
      </trkpt>
      <trkpt lat="44.14516" lon="3.23997">
        <ele>839</ele>
        <time>2024-02-17T15:31:12Z</time>
      </trkpt>
      <trkpt lat="44.14519" lon="3.23983">
        <ele>839</ele>
        <time>2024-02-17T15:31:15Z</time>
      </trkpt>
      <trkpt lat="44.14521" lon="3.23968">
        <ele>839.2</ele>
        <time>2024-02-17T15:31:18Z</time>
      </trkpt>
      <trkpt lat="44.14523" lon="3.23953">
        <ele>839.7</ele>
        <time>2024-02-17T15:31:21Z</time>
      </trkpt>
      <trkpt lat="44.14525" lon="3.23939">
        <ele>840.2</ele>
        <time>2024-02-17T15:31:24Z</time>
      </trkpt>
      <trkpt lat="44.14527" lon="3.23925">
        <ele>840.7</ele>
        <time>2024-02-17T15:31:27Z</time>
      </trkpt>
      <trkpt lat="44.14528" lon="3.23913">
        <ele>841.3</ele>
        <time>2024-02-17T15:31:30Z</time>
      </trkpt>
      <trkpt lat="44.14532" lon="3.239">
        <ele>842.2</ele>
        <time>2024-02-17T15:31:34Z</time>
      </trkpt>
      <trkpt lat="44.14535" lon="3.23887">
        <ele>843.1</ele>
        <time>2024-02-17T15:31:38Z</time>
      </trkpt>
      <trkpt lat="44.1454" lon="3.23874">
        <ele>843.5</ele>
        <time>2024-02-17T15:31:42Z</time>
      </trkpt>
      <trkpt lat="44.14545" lon="3.23861">
        <ele>844</ele>
        <time>2024-02-17T15:31:46Z</time>
      </trkpt>
      <trkpt lat="44.1455" lon="3.23848">
        <ele>844.5</ele>
        <time>2024-02-17T15:31:50Z</time>
      </trkpt>
      <trkpt lat="44.14555" lon="3.23835">
        <ele>844.9</ele>
        <time>2024-02-17T15:31:54Z</time>
      </trkpt>
      <trkpt lat="44.1456" lon="3.23822">
        <ele>845.4</ele>
        <time>2024-02-17T15:31:58Z</time>
      </trkpt>
      <trkpt lat="44.14564" lon="3.2381">
        <ele>845.8</ele>
        <time>2024-02-17T15:32:02Z</time>
      </trkpt>
      <trkpt lat="44.14568" lon="3.23798">
        <ele>846.1</ele>
        <time>2024-02-17T15:32:06Z</time>
      </trkpt>
      <trkpt lat="44.14574" lon="3.23784">
        <ele>846.5</ele>
        <time>2024-02-17T15:32:10Z</time>
      </trkpt>
      <trkpt lat="44.1458" lon="3.23772">
        <ele>846.6</ele>
        <time>2024-02-17T15:32:13Z</time>
      </trkpt>
      <trkpt lat="44.14586" lon="3.23761">
        <ele>846.4</ele>
        <time>2024-02-17T15:32:16Z</time>
      </trkpt>
      <trkpt lat="44.14593" lon="3.23749">
        <ele>845.9</ele>
        <time>2024-02-17T15:32:19Z</time>
      </trkpt>
      <trkpt lat="44.14599" lon="3.23735">
        <ele>844.8</ele>
        <time>2024-02-17T15:32:22Z</time>
      </trkpt>
      <trkpt lat="44.14606" lon="3.23719">
        <ele>844.1</ele>
        <time>2024-02-17T15:32:25Z</time>
      </trkpt>
      <trkpt lat="44.14612" lon="3.23709">
        <ele>844</ele>
        <time>2024-02-17T15:32:27Z</time>
      </trkpt>
      <trkpt lat="44.14619" lon="3.23701">
        <ele>843.6</ele>
        <time>2024-02-17T15:32:29Z</time>
      </trkpt>
      <trkpt lat="44.14627" lon="3.23693">
        <ele>843.4</ele>
        <time>2024-02-17T15:32:31Z</time>
      </trkpt>
      <trkpt lat="44.14635" lon="3.23686">
        <ele>843.2</ele>
        <time>2024-02-17T15:32:33Z</time>
      </trkpt>
      <trkpt lat="44.14642" lon="3.23678">
        <ele>842.7</ele>
        <time>2024-02-17T15:32:35Z</time>
      </trkpt>
      <trkpt lat="44.14646" lon="3.23666">
        <ele>842</ele>
        <time>2024-02-17T15:32:37Z</time>
      </trkpt>
      <trkpt lat="44.14644" lon="3.23651">
        <ele>841.4</ele>
        <time>2024-02-17T15:32:39Z</time>
      </trkpt>
      <trkpt lat="44.14637" lon="3.23638">
        <ele>840.8</ele>
        <time>2024-02-17T15:32:41Z</time>
      </trkpt>
      <trkpt lat="44.14631" lon="3.23625">
        <ele>840.3</ele>
        <time>2024-02-17T15:32:43Z</time>
      </trkpt>
      <trkpt lat="44.14626" lon="3.23611">
        <ele>840.1</ele>
        <time>2024-02-17T15:32:45Z</time>
      </trkpt>
      <trkpt lat="44.14619" lon="3.236">
        <ele>839.9</ele>
        <time>2024-02-17T15:32:47Z</time>
      </trkpt>
      <trkpt lat="44.1461" lon="3.23592">
        <ele>839.5</ele>
        <time>2024-02-17T15:32:49Z</time>
      </trkpt>
      <trkpt lat="44.14598" lon="3.23586">
        <ele>838.4</ele>
        <time>2024-02-17T15:32:51Z</time>
      </trkpt>
      <trkpt lat="44.14585" lon="3.23581">
        <ele>837</ele>
        <time>2024-02-17T15:32:53Z</time>
      </trkpt>
      <trkpt lat="44.1457" lon="3.23578">
        <ele>833.9</ele>
        <time>2024-02-17T15:32:55Z</time>
      </trkpt>
      <trkpt lat="44.14552" lon="3.23575">
        <ele>830.3</ele>
        <time>2024-02-17T15:32:57Z</time>
      </trkpt>
      <trkpt lat="44.14542" lon="3.23573">
        <ele>828.6</ele>
        <time>2024-02-17T15:32:58Z</time>
      </trkpt>
      <trkpt lat="44.14532" lon="3.23571">
        <ele>827</ele>
        <time>2024-02-17T15:32:59Z</time>
      </trkpt>
      <trkpt lat="44.14521" lon="3.23567">
        <ele>826</ele>
        <time>2024-02-17T15:33:00Z</time>
      </trkpt>
      <trkpt lat="44.14511" lon="3.23563">
        <ele>825.5</ele>
        <time>2024-02-17T15:33:01Z</time>
      </trkpt>
      <trkpt lat="44.14502" lon="3.23558">
        <ele>825.6</ele>
        <time>2024-02-17T15:33:02Z</time>
      </trkpt>
      <trkpt lat="44.14492" lon="3.23554">
        <ele>825.4</ele>
        <time>2024-02-17T15:33:03Z</time>
      </trkpt>
      <trkpt lat="44.14482" lon="3.23552">
        <ele>824.7</ele>
        <time>2024-02-17T15:33:04Z</time>
      </trkpt>
      <trkpt lat="44.14472" lon="3.23551">
        <ele>824</ele>
        <time>2024-02-17T15:33:05Z</time>
      </trkpt>
      <trkpt lat="44.14463" lon="3.23551">
        <ele>823.7</ele>
        <time>2024-02-17T15:33:06Z</time>
      </trkpt>
      <trkpt lat="44.14454" lon="3.23551">
        <ele>823.5</ele>
        <time>2024-02-17T15:33:07Z</time>
      </trkpt>
      <trkpt lat="44.14444" lon="3.2355">
        <ele>823.2</ele>
        <time>2024-02-17T15:33:08Z</time>
      </trkpt>
      <trkpt lat="44.14435" lon="3.23548">
        <ele>822.6</ele>
        <time>2024-02-17T15:33:09Z</time>
      </trkpt>
      <trkpt lat="44.14426" lon="3.23546">
        <ele>822</ele>
        <time>2024-02-17T15:33:10Z</time>
      </trkpt>
      <trkpt lat="44.14416" lon="3.23543">
        <ele>821.4</ele>
        <time>2024-02-17T15:33:11Z</time>
      </trkpt>
      <trkpt lat="44.14407" lon="3.2354">
        <ele>821</ele>
        <time>2024-02-17T15:33:12Z</time>
      </trkpt>
      <trkpt lat="44.14397" lon="3.23538">
        <ele>820.5</ele>
        <time>2024-02-17T15:33:13Z</time>
      </trkpt>
      <trkpt lat="44.14387" lon="3.23536">
        <ele>820</ele>
        <time>2024-02-17T15:33:14Z</time>
      </trkpt>
      <trkpt lat="44.14378" lon="3.23535">
        <ele>819.9</ele>
        <time>2024-02-17T15:33:15Z</time>
      </trkpt>
      <trkpt lat="44.14368" lon="3.23535">
        <ele>819.8</ele>
        <time>2024-02-17T15:33:16Z</time>
      </trkpt>
      <trkpt lat="44.14359" lon="3.23535">
        <ele>819.8</ele>
        <time>2024-02-17T15:33:17Z</time>
      </trkpt>
      <trkpt lat="44.14342" lon="3.23533">
        <ele>820.5</ele>
        <time>2024-02-17T15:33:19Z</time>
      </trkpt>
      <trkpt lat="44.14327" lon="3.23529">
        <ele>821.4</ele>
        <time>2024-02-17T15:33:21Z</time>
      </trkpt>
      <trkpt lat="44.14315" lon="3.23525">
        <ele>822.2</ele>
        <time>2024-02-17T15:33:23Z</time>
      </trkpt>
      <trkpt lat="44.14304" lon="3.23519">
        <ele>822.9</ele>
        <time>2024-02-17T15:33:25Z</time>
      </trkpt>
      <trkpt lat="44.14295" lon="3.23515">
        <ele>823.7</ele>
        <time>2024-02-17T15:33:27Z</time>
      </trkpt>
      <trkpt lat="44.14283" lon="3.2351">
        <ele>824.8</ele>
        <time>2024-02-17T15:33:30Z</time>
      </trkpt>
      <trkpt lat="44.14274" lon="3.23506">
        <ele>825.7</ele>
        <time>2024-02-17T15:33:33Z</time>
      </trkpt>
      <trkpt lat="44.14264" lon="3.23504">
        <ele>826.7</ele>
        <time>2024-02-17T15:33:37Z</time>
      </trkpt>
      <trkpt lat="44.14255" lon="3.23502">
        <ele>827.6</ele>
        <time>2024-02-17T15:33:41Z</time>
      </trkpt>
      <trkpt lat="44.14245" lon="3.235">
        <ele>828.4</ele>
        <time>2024-02-17T15:33:46Z</time>
      </trkpt>
      <trkpt lat="44.14234" lon="3.23499">
        <ele>829</ele>
        <time>2024-02-17T15:33:51Z</time>
      </trkpt>
      <trkpt lat="44.14223" lon="3.235">
        <ele>829.9</ele>
        <time>2024-02-17T15:33:56Z</time>
      </trkpt>
      <trkpt lat="44.14214" lon="3.23503">
        <ele>830.3</ele>
        <time>2024-02-17T15:34:00Z</time>
      </trkpt>
      <trkpt lat="44.14204" lon="3.23507">
        <ele>830.8</ele>
        <time>2024-02-17T15:34:04Z</time>
      </trkpt>
      <trkpt lat="44.14193" lon="3.2351">
        <ele>831.2</ele>
        <time>2024-02-17T15:34:08Z</time>
      </trkpt>
      <trkpt lat="44.14183" lon="3.23511">
        <ele>831.9</ele>
        <time>2024-02-17T15:34:11Z</time>
      </trkpt>
      <trkpt lat="44.14174" lon="3.2351">
        <ele>832.5</ele>
        <time>2024-02-17T15:34:14Z</time>
      </trkpt>
      <trkpt lat="44.14164" lon="3.23505">
        <ele>833.2</ele>
        <time>2024-02-17T15:34:18Z</time>
      </trkpt>
      <trkpt lat="44.14155" lon="3.23499">
        <ele>833.8</ele>
        <time>2024-02-17T15:34:22Z</time>
      </trkpt>
      <trkpt lat="44.14146" lon="3.23494">
        <ele>834.4</ele>
        <time>2024-02-17T15:34:26Z</time>
      </trkpt>
      <trkpt lat="44.14137" lon="3.23489">
        <ele>835.1</ele>
        <time>2024-02-17T15:34:30Z</time>
      </trkpt>
      <trkpt lat="44.14128" lon="3.23484">
        <ele>835.5</ele>
        <time>2024-02-17T15:34:34Z</time>
      </trkpt>
      <trkpt lat="44.14118" lon="3.23478">
        <ele>836.2</ele>
        <time>2024-02-17T15:34:38Z</time>
      </trkpt>
      <trkpt lat="44.14109" lon="3.23474">
        <ele>837</ele>
        <time>2024-02-17T15:34:42Z</time>
      </trkpt>
      <trkpt lat="44.14099" lon="3.23474">
        <ele>837.7</ele>
        <time>2024-02-17T15:34:46Z</time>
      </trkpt>
      <trkpt lat="44.1409" lon="3.23474">
        <ele>838.2</ele>
        <time>2024-02-17T15:34:50Z</time>
      </trkpt>
      <trkpt lat="44.1408" lon="3.23474">
        <ele>838.6</ele>
        <time>2024-02-17T15:34:54Z</time>
      </trkpt>
      <trkpt lat="44.14071" lon="3.23473">
        <ele>838.8</ele>
        <time>2024-02-17T15:34:58Z</time>
      </trkpt>
      <trkpt lat="44.1406" lon="3.23469">
        <ele>838.9</ele>
        <time>2024-02-17T15:35:02Z</time>
      </trkpt>
      <trkpt lat="44.14049" lon="3.23466">
        <ele>839.8</ele>
        <time>2024-02-17T15:35:07Z</time>
      </trkpt>
      <trkpt lat="44.14039" lon="3.23466">
        <ele>840.9</ele>
        <time>2024-02-17T15:35:13Z</time>
      </trkpt>
      <trkpt lat="44.14028" lon="3.23465">
        <ele>842.2</ele>
        <time>2024-02-17T15:35:19Z</time>
      </trkpt>
      <trkpt lat="44.14019" lon="3.23465">
        <ele>841.8</ele>
        <time>2024-02-17T15:35:24Z</time>
      </trkpt>
      <trkpt lat="44.1401" lon="3.23463">
        <ele>841.5</ele>
        <time>2024-02-17T15:35:28Z</time>
      </trkpt>
      <trkpt lat="44.14" lon="3.23462">
        <ele>841.1</ele>
        <time>2024-02-17T15:35:31Z</time>
      </trkpt>
      <trkpt lat="44.13986" lon="3.23462">
        <ele>840.3</ele>
        <time>2024-02-17T15:35:34Z</time>
      </trkpt>
      <trkpt lat="44.13976" lon="3.23463">
        <ele>839.6</ele>
        <time>2024-02-17T15:35:36Z</time>
      </trkpt>
      <trkpt lat="44.13964" lon="3.23463">
        <ele>838.6</ele>
        <time>2024-02-17T15:35:38Z</time>
      </trkpt>
      <trkpt lat="44.13953" lon="3.23461">
        <ele>838</ele>
        <time>2024-02-17T15:35:40Z</time>
      </trkpt>
      <trkpt lat="44.13944" lon="3.2345">
        <ele>838.3</ele>
        <time>2024-02-17T15:35:42Z</time>
      </trkpt>
      <trkpt lat="44.13941" lon="3.23434">
        <ele>838</ele>
        <time>2024-02-17T15:35:44Z</time>
      </trkpt>
      <trkpt lat="44.13942" lon="3.23416">
        <ele>837.5</ele>
        <time>2024-02-17T15:35:46Z</time>
      </trkpt>
      <trkpt lat="44.13944" lon="3.23399">
        <ele>837.3</ele>
        <time>2024-02-17T15:35:48Z</time>
      </trkpt>
      <trkpt lat="44.13945" lon="3.23384">
        <ele>836.9</ele>
        <time>2024-02-17T15:35:50Z</time>
      </trkpt>
      <trkpt lat="44.13939" lon="3.23372">
        <ele>835.8</ele>
        <time>2024-02-17T15:35:52Z</time>
      </trkpt>
      <trkpt lat="44.13929" lon="3.23364">
        <ele>834.9</ele>
        <time>2024-02-17T15:35:54Z</time>
      </trkpt>
      <trkpt lat="44.13922" lon="3.23353">
        <ele>835.4</ele>
        <time>2024-02-17T15:35:56Z</time>
      </trkpt>
      <trkpt lat="44.13925" lon="3.23338">
        <ele>837.2</ele>
        <time>2024-02-17T15:36:00Z</time>
      </trkpt>
      <trkpt lat="44.1393" lon="3.23324">
        <ele>837.7</ele>
        <time>2024-02-17T15:36:04Z</time>
      </trkpt>
      <trkpt lat="44.13932" lon="3.2331">
        <ele>837.7</ele>
        <time>2024-02-17T15:36:07Z</time>
      </trkpt>
      <trkpt lat="44.13932" lon="3.23293">
        <ele>836.3</ele>
        <time>2024-02-17T15:36:10Z</time>
      </trkpt>
      <trkpt lat="44.13934" lon="3.23277">
        <ele>833.8</ele>
        <time>2024-02-17T15:36:13Z</time>
      </trkpt>
      <trkpt lat="44.13939" lon="3.23263">
        <ele>833.8</ele>
        <time>2024-02-17T15:36:16Z</time>
      </trkpt>
      <trkpt lat="44.13946" lon="3.23249">
        <ele>833.5</ele>
        <time>2024-02-17T15:36:19Z</time>
      </trkpt>
      <trkpt lat="44.13952" lon="3.23238">
        <ele>833</ele>
        <time>2024-02-17T15:36:21Z</time>
      </trkpt>
      <trkpt lat="44.13959" lon="3.23227">
        <ele>832.3</ele>
        <time>2024-02-17T15:36:23Z</time>
      </trkpt>
      <trkpt lat="44.13966" lon="3.23217">
        <ele>832</ele>
        <time>2024-02-17T15:36:25Z</time>
      </trkpt>
      <trkpt lat="44.13972" lon="3.23208">
        <ele>832.7</ele>
        <time>2024-02-17T15:36:27Z</time>
      </trkpt>
      <trkpt lat="44.13979" lon="3.23198">
        <ele>833.6</ele>
        <time>2024-02-17T15:36:29Z</time>
      </trkpt>
      <trkpt lat="44.13986" lon="3.23188">
        <ele>833.9</ele>
        <time>2024-02-17T15:36:32Z</time>
      </trkpt>
      <trkpt lat="44.13993" lon="3.23175">
        <ele>834.8</ele>
        <time>2024-02-17T15:36:36Z</time>
      </trkpt>
      <trkpt lat="44.13999" lon="3.23164">
        <ele>835.4</ele>
        <time>2024-02-17T15:36:39Z</time>
      </trkpt>
      <trkpt lat="44.14004" lon="3.23152">
        <ele>835</ele>
        <time>2024-02-17T15:36:42Z</time>
      </trkpt>
      <trkpt lat="44.14005" lon="3.23139">
        <ele>835.7</ele>
        <time>2024-02-17T15:36:45Z</time>
      </trkpt>
      <trkpt lat="44.14002" lon="3.23123">
        <ele>835.2</ele>
        <time>2024-02-17T15:36:48Z</time>
      </trkpt>
      <trkpt lat="44.14" lon="3.23111">
        <ele>835</ele>
        <time>2024-02-17T15:36:50Z</time>
      </trkpt>
      <trkpt lat="44.13997" lon="3.23096">
        <ele>833.6</ele>
        <time>2024-02-17T15:36:52Z</time>
      </trkpt>
      <trkpt lat="44.13995" lon="3.2308">
        <ele>831.9</ele>
        <time>2024-02-17T15:36:54Z</time>
      </trkpt>
      <trkpt lat="44.13991" lon="3.23065">
        <ele>831.1</ele>
        <time>2024-02-17T15:36:56Z</time>
      </trkpt>
      <trkpt lat="44.13986" lon="3.2305">
        <ele>830.7</ele>
        <time>2024-02-17T15:36:58Z</time>
      </trkpt>
      <trkpt lat="44.13984" lon="3.23034">
        <ele>830.4</ele>
        <time>2024-02-17T15:37:00Z</time>
      </trkpt>
      <trkpt lat="44.13987" lon="3.23018">
        <ele>830</ele>
        <time>2024-02-17T15:37:02Z</time>
      </trkpt>
      <trkpt lat="44.13993" lon="3.23005">
        <ele>830.2</ele>
        <time>2024-02-17T15:37:04Z</time>
      </trkpt>
      <trkpt lat="44.13999" lon="3.22992">
        <ele>831.5</ele>
        <time>2024-02-17T15:37:07Z</time>
      </trkpt>
      <trkpt lat="44.14003" lon="3.22979">
        <ele>833.8</ele>
        <time>2024-02-17T15:37:11Z</time>
      </trkpt>
      <trkpt lat="44.13999" lon="3.22967">
        <ele>835.4</ele>
        <time>2024-02-17T15:37:15Z</time>
      </trkpt>
      <trkpt lat="44.13989" lon="3.22962">
        <ele>836.4</ele>
        <time>2024-02-17T15:37:20Z</time>
      </trkpt>
      <trkpt lat="44.13978" lon="3.22962">
        <ele>837</ele>
        <time>2024-02-17T15:37:25Z</time>
      </trkpt>
      <trkpt lat="44.13968" lon="3.22962">
        <ele>837.1</ele>
        <time>2024-02-17T15:37:29Z</time>
      </trkpt>
      <trkpt lat="44.13957" lon="3.22954">
        <ele>836.6</ele>
        <time>2024-02-17T15:37:32Z</time>
      </trkpt>
      <trkpt lat="44.13951" lon="3.22944">
        <ele>836.5</ele>
        <time>2024-02-17T15:37:34Z</time>
      </trkpt>
      <trkpt lat="44.13948" lon="3.22927">
        <ele>836.3</ele>
        <time>2024-02-17T15:37:37Z</time>
      </trkpt>
      <trkpt lat="44.13945" lon="3.22911">
        <ele>836</ele>
        <time>2024-02-17T15:37:40Z</time>
      </trkpt>
      <trkpt lat="44.13941" lon="3.22898">
        <ele>836.2</ele>
        <time>2024-02-17T15:37:43Z</time>
      </trkpt>
      <trkpt lat="44.13939" lon="3.22885">
        <ele>836.3</ele>
        <time>2024-02-17T15:37:47Z</time>
      </trkpt>
      <trkpt lat="44.13937" lon="3.22871">
        <ele>836.4</ele>
        <time>2024-02-17T15:37:52Z</time>
      </trkpt>
      <trkpt lat="44.13933" lon="3.22859">
        <ele>836.7</ele>
        <time>2024-02-17T15:37:56Z</time>
      </trkpt>
      <trkpt lat="44.13926" lon="3.22848">
        <ele>836.3</ele>
        <time>2024-02-17T15:38:00Z</time>
      </trkpt>
      <trkpt lat="44.13921" lon="3.22837">
        <ele>835.6</ele>
        <time>2024-02-17T15:38:03Z</time>
      </trkpt>
      <trkpt lat="44.13912" lon="3.22826">
        <ele>835.4</ele>
        <time>2024-02-17T15:38:07Z</time>
      </trkpt>
      <trkpt lat="44.13903" lon="3.22818">
        <ele>835.5</ele>
        <time>2024-02-17T15:38:11Z</time>
      </trkpt>
      <trkpt lat="44.13891" lon="3.22812">
        <ele>836.6</ele>
        <time>2024-02-17T15:38:16Z</time>
      </trkpt>
      <trkpt lat="44.13882" lon="3.22815">
        <ele>836.6</ele>
        <time>2024-02-17T15:38:19Z</time>
      </trkpt>
      <trkpt lat="44.13871" lon="3.22808">
        <ele>833.9</ele>
        <time>2024-02-17T15:38:22Z</time>
      </trkpt>
      <trkpt lat="44.13862" lon="3.22809">
        <ele>833</ele>
        <time>2024-02-17T15:38:24Z</time>
      </trkpt>
      <trkpt lat="44.13852" lon="3.22814">
        <ele>832.6</ele>
        <time>2024-02-17T15:38:28Z</time>
      </trkpt>
      <trkpt lat="44.13843" lon="3.22815">
        <ele>831.3</ele>
        <time>2024-02-17T15:38:33Z</time>
      </trkpt>
      <trkpt lat="44.13834" lon="3.22824">
        <ele>831.4</ele>
        <time>2024-02-17T15:38:55Z</time>
      </trkpt>
      <trkpt lat="44.13828" lon="3.22834">
        <ele>831.7</ele>
        <time>2024-02-17T15:38:59Z</time>
      </trkpt>
      <trkpt lat="44.1382" lon="3.22845">
        <ele>831.3</ele>
        <time>2024-02-17T15:39:03Z</time>
      </trkpt>
      <trkpt lat="44.13811" lon="3.22853">
        <ele>830.6</ele>
        <time>2024-02-17T15:39:06Z</time>
      </trkpt>
      <trkpt lat="44.13801" lon="3.22857">
        <ele>830</ele>
        <time>2024-02-17T15:39:09Z</time>
      </trkpt>
      <trkpt lat="44.13788" lon="3.22862">
        <ele>830.5</ele>
        <time>2024-02-17T15:39:13Z</time>
      </trkpt>
      <trkpt lat="44.13778" lon="3.22861">
        <ele>830</ele>
        <time>2024-02-17T15:39:15Z</time>
      </trkpt>
      <trkpt lat="44.13768" lon="3.22863">
        <ele>830.1</ele>
        <time>2024-02-17T15:39:17Z</time>
      </trkpt>
      <trkpt lat="44.13761" lon="3.22871">
        <ele>830.2</ele>
        <time>2024-02-17T15:39:19Z</time>
      </trkpt>
      <trkpt lat="44.13752" lon="3.2288">
        <ele>829.5</ele>
        <time>2024-02-17T15:39:21Z</time>
      </trkpt>
      <trkpt lat="44.13741" lon="3.22889">
        <ele>827.7</ele>
        <time>2024-02-17T15:39:23Z</time>
      </trkpt>
      <trkpt lat="44.1373" lon="3.22897">
        <ele>827.2</ele>
        <time>2024-02-17T15:39:25Z</time>
      </trkpt>
      <trkpt lat="44.1372" lon="3.22901">
        <ele>826.8</ele>
        <time>2024-02-17T15:39:27Z</time>
      </trkpt>
      <trkpt lat="44.13709" lon="3.22903">
        <ele>827</ele>
        <time>2024-02-17T15:39:30Z</time>
      </trkpt>
      <trkpt lat="44.1371" lon="3.22888">
        <ele>825.4</ele>
        <time>2024-02-17T15:39:33Z</time>
      </trkpt>
      <trkpt lat="44.13715" lon="3.2287">
        <ele>823.2</ele>
        <time>2024-02-17T15:39:36Z</time>
      </trkpt>
      <trkpt lat="44.1372" lon="3.22855">
        <ele>820.5</ele>
        <time>2024-02-17T15:39:38Z</time>
      </trkpt>
      <trkpt lat="44.13718" lon="3.22839">
        <ele>818.5</ele>
        <time>2024-02-17T15:39:40Z</time>
      </trkpt>
      <trkpt lat="44.13714" lon="3.22821">
        <ele>815.7</ele>
        <time>2024-02-17T15:39:42Z</time>
      </trkpt>
      <trkpt lat="44.1371" lon="3.22807">
        <ele>813.2</ele>
        <time>2024-02-17T15:39:44Z</time>
      </trkpt>
      <trkpt lat="44.13714" lon="3.22792">
        <ele>809.6</ele>
        <time>2024-02-17T15:39:47Z</time>
      </trkpt>
      <trkpt lat="44.13724" lon="3.22784">
        <ele>806.7</ele>
        <time>2024-02-17T15:39:50Z</time>
      </trkpt>
      <trkpt lat="44.13734" lon="3.22776">
        <ele>805.4</ele>
        <time>2024-02-17T15:39:53Z</time>
      </trkpt>
      <trkpt lat="44.13739" lon="3.22764">
        <ele>802.8</ele>
        <time>2024-02-17T15:39:56Z</time>
      </trkpt>
      <trkpt lat="44.13743" lon="3.22748">
        <ele>798.7</ele>
        <time>2024-02-17T15:39:59Z</time>
      </trkpt>
      <trkpt lat="44.13751" lon="3.22731">
        <ele>793</ele>
        <time>2024-02-17T15:40:02Z</time>
      </trkpt>
      <trkpt lat="44.13758" lon="3.22717">
        <ele>790.8</ele>
        <time>2024-02-17T15:40:04Z</time>
      </trkpt>
      <trkpt lat="44.13764" lon="3.22705">
        <ele>789.6</ele>
        <time>2024-02-17T15:40:06Z</time>
      </trkpt>
      <trkpt lat="44.13771" lon="3.22689">
        <ele>787.2</ele>
        <time>2024-02-17T15:40:08Z</time>
      </trkpt>
      <trkpt lat="44.13778" lon="3.22672">
        <ele>784.2</ele>
        <time>2024-02-17T15:40:10Z</time>
      </trkpt>
      <trkpt lat="44.13786" lon="3.22663">
        <ele>784.4</ele>
        <time>2024-02-17T15:40:12Z</time>
      </trkpt>
      <trkpt lat="44.13794" lon="3.22655">
        <ele>784.7</ele>
        <time>2024-02-17T15:40:14Z</time>
      </trkpt>
      <trkpt lat="44.13804" lon="3.22647">
        <ele>785.6</ele>
        <time>2024-02-17T15:40:17Z</time>
      </trkpt>
      <trkpt lat="44.13812" lon="3.22639">
        <ele>785.7</ele>
        <time>2024-02-17T15:40:20Z</time>
      </trkpt>
      <trkpt lat="44.13822" lon="3.2263">
        <ele>785.3</ele>
        <time>2024-02-17T15:40:23Z</time>
      </trkpt>
      <trkpt lat="44.13832" lon="3.22622">
        <ele>785.2</ele>
        <time>2024-02-17T15:40:26Z</time>
      </trkpt>
      <trkpt lat="44.13841" lon="3.22615">
        <ele>785.2</ele>
        <time>2024-02-17T15:40:32Z</time>
      </trkpt>
      <trkpt lat="44.13848" lon="3.22605">
        <ele>783.9</ele>
        <time>2024-02-17T15:40:35Z</time>
      </trkpt>
      <trkpt lat="44.13857" lon="3.22593">
        <ele>783.2</ele>
        <time>2024-02-17T15:40:37Z</time>
      </trkpt>
      <trkpt lat="44.13866" lon="3.22579">
        <ele>781.7</ele>
        <time>2024-02-17T15:40:39Z</time>
      </trkpt>
      <trkpt lat="44.13875" lon="3.22562">
        <ele>778.2</ele>
        <time>2024-02-17T15:40:41Z</time>
      </trkpt>
      <trkpt lat="44.13882" lon="3.22548">
        <ele>775.7</ele>
        <time>2024-02-17T15:40:43Z</time>
      </trkpt>
      <trkpt lat="44.13889" lon="3.22536">
        <ele>774.4</ele>
        <time>2024-02-17T15:40:45Z</time>
      </trkpt>
      <trkpt lat="44.13895" lon="3.22526">
        <ele>772.7</ele>
        <time>2024-02-17T15:40:48Z</time>
      </trkpt>
      <trkpt lat="44.13884" lon="3.2253">
        <ele>770.9</ele>
        <time>2024-02-17T15:40:53Z</time>
      </trkpt>
      <trkpt lat="44.1387" lon="3.22537">
        <ele>768.3</ele>
        <time>2024-02-17T15:40:56Z</time>
      </trkpt>
      <trkpt lat="44.13859" lon="3.2254">
        <ele>765.7</ele>
        <time>2024-02-17T15:40:58Z</time>
      </trkpt>
      <trkpt lat="44.13844" lon="3.22544">
        <ele>762</ele>
        <time>2024-02-17T15:41:00Z</time>
      </trkpt>
      <trkpt lat="44.13829" lon="3.22551">
        <ele>759.9</ele>
        <time>2024-02-17T15:41:02Z</time>
      </trkpt>
      <trkpt lat="44.13816" lon="3.22558">
        <ele>758.3</ele>
        <time>2024-02-17T15:41:04Z</time>
      </trkpt>
      <trkpt lat="44.13806" lon="3.22563">
        <ele>757.1</ele>
        <time>2024-02-17T15:41:06Z</time>
      </trkpt>
      <trkpt lat="44.13796" lon="3.22564">
        <ele>758.6</ele>
        <time>2024-02-17T15:41:08Z</time>
      </trkpt>
      <trkpt lat="44.13788" lon="3.22559">
        <ele>758.9</ele>
        <time>2024-02-17T15:41:12Z</time>
      </trkpt>
      <trkpt lat="44.13793" lon="3.22546">
        <ele>755.8</ele>
        <time>2024-02-17T15:41:17Z</time>
      </trkpt>
      <trkpt lat="44.13803" lon="3.22534">
        <ele>749.1</ele>
        <time>2024-02-17T15:41:21Z</time>
      </trkpt>
      <trkpt lat="44.13809" lon="3.22525">
        <ele>746.5</ele>
        <time>2024-02-17T15:41:23Z</time>
      </trkpt>
      <trkpt lat="44.13816" lon="3.22511">
        <ele>745.6</ele>
        <time>2024-02-17T15:41:25Z</time>
      </trkpt>
      <trkpt lat="44.13824" lon="3.22494">
        <ele>741.7</ele>
        <time>2024-02-17T15:41:27Z</time>
      </trkpt>
      <trkpt lat="44.1383" lon="3.2248">
        <ele>736.7</ele>
        <time>2024-02-17T15:41:29Z</time>
      </trkpt>
      <trkpt lat="44.13837" lon="3.22467">
        <ele>733.3</ele>
        <time>2024-02-17T15:41:31Z</time>
      </trkpt>
      <trkpt lat="44.13845" lon="3.22452">
        <ele>732.3</ele>
        <time>2024-02-17T15:41:34Z</time>
      </trkpt>
      <trkpt lat="44.1385" lon="3.22441">
        <ele>730.7</ele>
        <time>2024-02-17T15:41:37Z</time>
      </trkpt>
      <trkpt lat="44.1386" lon="3.22428">
        <ele>728.6</ele>
        <time>2024-02-17T15:41:39Z</time>
      </trkpt>
      <trkpt lat="44.13849" lon="3.22422">
        <ele>725.9</ele>
        <time>2024-02-17T15:41:45Z</time>
      </trkpt>
      <trkpt lat="44.13841" lon="3.22426">
        <ele>726.1</ele>
        <time>2024-02-17T15:41:47Z</time>
      </trkpt>
      <trkpt lat="44.13831" lon="3.2243">
        <ele>727.1</ele>
        <time>2024-02-17T15:41:49Z</time>
      </trkpt>
      <trkpt lat="44.1383" lon="3.22417">
        <ele>725.7</ele>
        <time>2024-02-17T15:41:53Z</time>
      </trkpt>
      <trkpt lat="44.13836" lon="3.22401">
        <ele>723.6</ele>
        <time>2024-02-17T15:41:56Z</time>
      </trkpt>
      <trkpt lat="44.13842" lon="3.2239">
        <ele>721.3</ele>
        <time>2024-02-17T15:41:58Z</time>
      </trkpt>
      <trkpt lat="44.13851" lon="3.22376">
        <ele>717</ele>
        <time>2024-02-17T15:42:00Z</time>
      </trkpt>
      <trkpt lat="44.13858" lon="3.22361">
        <ele>711.7</ele>
        <time>2024-02-17T15:42:03Z</time>
      </trkpt>
      <trkpt lat="44.13865" lon="3.2235">
        <ele>709.9</ele>
        <time>2024-02-17T15:42:06Z</time>
      </trkpt>
      <trkpt lat="44.13873" lon="3.22339">
        <ele>707.5</ele>
        <time>2024-02-17T15:42:10Z</time>
      </trkpt>
      <trkpt lat="44.13876" lon="3.22326">
        <ele>706.1</ele>
        <time>2024-02-17T15:42:19Z</time>
      </trkpt>
      <trkpt lat="44.13885" lon="3.22318">
        <ele>702.3</ele>
        <time>2024-02-17T15:42:21Z</time>
      </trkpt>
      <trkpt lat="44.13894" lon="3.22306">
        <ele>699.1</ele>
        <time>2024-02-17T15:42:23Z</time>
      </trkpt>
      <trkpt lat="44.13901" lon="3.22292">
        <ele>697.9</ele>
        <time>2024-02-17T15:42:25Z</time>
      </trkpt>
      <trkpt lat="44.1391" lon="3.22278">
        <ele>693.4</ele>
        <time>2024-02-17T15:42:27Z</time>
      </trkpt>
      <trkpt lat="44.13919" lon="3.22269">
        <ele>689.9</ele>
        <time>2024-02-17T15:42:29Z</time>
      </trkpt>
      <trkpt lat="44.13924" lon="3.22255">
        <ele>688.6</ele>
        <time>2024-02-17T15:42:33Z</time>
      </trkpt>
      <trkpt lat="44.1393" lon="3.22242">
        <ele>685.1</ele>
        <time>2024-02-17T15:42:35Z</time>
      </trkpt>
      <trkpt lat="44.13934" lon="3.22227">
        <ele>681.2</ele>
        <time>2024-02-17T15:42:37Z</time>
      </trkpt>
      <trkpt lat="44.13936" lon="3.22211">
        <ele>677.8</ele>
        <time>2024-02-17T15:42:39Z</time>
      </trkpt>
      <trkpt lat="44.13937" lon="3.22197">
        <ele>674.9</ele>
        <time>2024-02-17T15:42:41Z</time>
      </trkpt>
      <trkpt lat="44.13938" lon="3.2218">
        <ele>671.3</ele>
        <time>2024-02-17T15:42:44Z</time>
      </trkpt>
      <trkpt lat="44.13941" lon="3.22163">
        <ele>666.7</ele>
        <time>2024-02-17T15:42:47Z</time>
      </trkpt>
      <trkpt lat="44.13942" lon="3.22149">
        <ele>663.2</ele>
        <time>2024-02-17T15:42:49Z</time>
      </trkpt>
      <trkpt lat="44.13938" lon="3.22133">
        <ele>661.4</ele>
        <time>2024-02-17T15:42:51Z</time>
      </trkpt>
      <trkpt lat="44.13934" lon="3.22117">
        <ele>659.6</ele>
        <time>2024-02-17T15:42:53Z</time>
      </trkpt>
      <trkpt lat="44.13932" lon="3.22101">
        <ele>657.3</ele>
        <time>2024-02-17T15:42:55Z</time>
      </trkpt>
      <trkpt lat="44.13932" lon="3.22086">
        <ele>654.7</ele>
        <time>2024-02-17T15:42:57Z</time>
      </trkpt>
      <trkpt lat="44.13928" lon="3.22071">
        <ele>652.5</ele>
        <time>2024-02-17T15:42:59Z</time>
      </trkpt>
      <trkpt lat="44.13922" lon="3.22056">
        <ele>649.3</ele>
        <time>2024-02-17T15:43:01Z</time>
      </trkpt>
      <trkpt lat="44.13916" lon="3.22042">
        <ele>645.3</ele>
        <time>2024-02-17T15:43:03Z</time>
      </trkpt>
      <trkpt lat="44.13911" lon="3.22027">
        <ele>642.7</ele>
        <time>2024-02-17T15:43:06Z</time>
      </trkpt>
      <trkpt lat="44.13903" lon="3.22017">
        <ele>641.6</ele>
        <time>2024-02-17T15:43:08Z</time>
      </trkpt>
      <trkpt lat="44.13893" lon="3.22007">
        <ele>642.3</ele>
        <time>2024-02-17T15:43:10Z</time>
      </trkpt>
      <trkpt lat="44.13882" lon="3.21998">
        <ele>643.1</ele>
        <time>2024-02-17T15:43:12Z</time>
      </trkpt>
      <trkpt lat="44.13875" lon="3.21989">
        <ele>641.2</ele>
        <time>2024-02-17T15:43:13Z</time>
      </trkpt>
      <trkpt lat="44.13862" lon="3.2198">
        <ele>641.8</ele>
        <time>2024-02-17T15:43:15Z</time>
      </trkpt>
      <trkpt lat="44.13853" lon="3.21969">
        <ele>639</ele>
        <time>2024-02-17T15:43:17Z</time>
      </trkpt>
      <trkpt lat="44.13842" lon="3.2196">
        <ele>637.5</ele>
        <time>2024-02-17T15:43:19Z</time>
      </trkpt>
      <trkpt lat="44.13829" lon="3.21954">
        <ele>636.7</ele>
        <time>2024-02-17T15:43:21Z</time>
      </trkpt>
      <trkpt lat="44.13819" lon="3.21951">
        <ele>635</ele>
        <time>2024-02-17T15:43:23Z</time>
      </trkpt>
      <trkpt lat="44.13808" lon="3.21949">
        <ele>633.5</ele>
        <time>2024-02-17T15:43:25Z</time>
      </trkpt>
      <trkpt lat="44.13796" lon="3.2195">
        <ele>629.9</ele>
        <time>2024-02-17T15:43:27Z</time>
      </trkpt>
      <trkpt lat="44.13787" lon="3.21953">
        <ele>627.3</ele>
        <time>2024-02-17T15:43:29Z</time>
      </trkpt>
      <trkpt lat="44.13775" lon="3.21955">
        <ele>623.6</ele>
        <time>2024-02-17T15:43:32Z</time>
      </trkpt>
      <trkpt lat="44.13765" lon="3.21954">
        <ele>620.4</ele>
        <time>2024-02-17T15:43:34Z</time>
      </trkpt>
      <trkpt lat="44.1376" lon="3.21942">
        <ele>615.1</ele>
        <time>2024-02-17T15:43:43Z</time>
      </trkpt>
      <trkpt lat="44.1375" lon="3.21934">
        <ele>609.6</ele>
        <time>2024-02-17T15:43:46Z</time>
      </trkpt>
      <trkpt lat="44.13757" lon="3.21923">
        <ele>608.3</ele>
        <time>2024-02-17T15:43:53Z</time>
      </trkpt>
      <trkpt lat="44.13748" lon="3.21916">
        <ele>603.6</ele>
        <time>2024-02-17T15:43:56Z</time>
      </trkpt>
      <trkpt lat="44.13738" lon="3.21909">
        <ele>600.4</ele>
        <time>2024-02-17T15:43:59Z</time>
      </trkpt>
      <trkpt lat="44.1374" lon="3.21894">
        <ele>596.1</ele>
        <time>2024-02-17T15:44:03Z</time>
      </trkpt>
      <trkpt lat="44.13747" lon="3.21882">
        <ele>593</ele>
        <time>2024-02-17T15:44:06Z</time>
      </trkpt>
      <trkpt lat="44.13755" lon="3.21867">
        <ele>589.9</ele>
        <time>2024-02-17T15:44:09Z</time>
      </trkpt>
      <trkpt lat="44.13761" lon="3.21853">
        <ele>586.7</ele>
        <time>2024-02-17T15:44:11Z</time>
      </trkpt>
      <trkpt lat="44.13766" lon="3.21837">
        <ele>582.3</ele>
        <time>2024-02-17T15:44:13Z</time>
      </trkpt>
      <trkpt lat="44.13768" lon="3.21825">
        <ele>579.9</ele>
        <time>2024-02-17T15:44:15Z</time>
      </trkpt>
      <trkpt lat="44.1376" lon="3.21819">
        <ele>574.9</ele>
        <time>2024-02-17T15:44:26Z</time>
      </trkpt>
      <trkpt lat="44.13752" lon="3.21811">
        <ele>569.3</ele>
        <time>2024-02-17T15:44:32Z</time>
      </trkpt>
      <trkpt lat="44.13741" lon="3.21812">
        <ele>565.9</ele>
        <time>2024-02-17T15:44:35Z</time>
      </trkpt>
      <trkpt lat="44.13732" lon="3.21815">
        <ele>563.8</ele>
        <time>2024-02-17T15:44:37Z</time>
      </trkpt>
      <trkpt lat="44.13723" lon="3.21811">
        <ele>560.2</ele>
        <time>2024-02-17T15:44:43Z</time>
      </trkpt>
      <trkpt lat="44.13711" lon="3.21816">
        <ele>561.5</ele>
        <time>2024-02-17T15:44:45Z</time>
      </trkpt>
      <trkpt lat="44.137" lon="3.21822">
        <ele>561.1</ele>
        <time>2024-02-17T15:44:47Z</time>
      </trkpt>
      <trkpt lat="44.13694" lon="3.2181">
        <ele>563.8</ele>
        <time>2024-02-17T15:44:52Z</time>
      </trkpt>
      <trkpt lat="44.13685" lon="3.21806">
        <ele>562.6</ele>
        <time>2024-02-17T15:44:54Z</time>
      </trkpt>
      <trkpt lat="44.13675" lon="3.21806">
        <ele>560.1</ele>
        <time>2024-02-17T15:44:56Z</time>
      </trkpt>
      <trkpt lat="44.13662" lon="3.21806">
        <ele>557.1</ele>
        <time>2024-02-17T15:44:58Z</time>
      </trkpt>
      <trkpt lat="44.13653" lon="3.218">
        <ele>557.5</ele>
        <time>2024-02-17T15:45:03Z</time>
      </trkpt>
      <trkpt lat="44.13643" lon="3.21804">
        <ele>553.5</ele>
        <time>2024-02-17T15:45:07Z</time>
      </trkpt>
      <trkpt lat="44.1363" lon="3.21804">
        <ele>550.9</ele>
        <time>2024-02-17T15:45:11Z</time>
      </trkpt>
      <trkpt lat="44.13621" lon="3.21802">
        <ele>549.8</ele>
        <time>2024-02-17T15:45:14Z</time>
      </trkpt>
      <trkpt lat="44.1361" lon="3.21803">
        <ele>547.5</ele>
        <time>2024-02-17T15:45:18Z</time>
      </trkpt>
      <trkpt lat="44.13601" lon="3.21804">
        <ele>546.7</ele>
        <time>2024-02-17T15:45:25Z</time>
      </trkpt>
      <trkpt lat="44.13591" lon="3.21803">
        <ele>546.1</ele>
        <time>2024-02-17T15:45:31Z</time>
      </trkpt>
      <trkpt lat="44.13581" lon="3.21798">
        <ele>544.7</ele>
        <time>2024-02-17T15:45:36Z</time>
      </trkpt>
      <trkpt lat="44.13571" lon="3.21791">
        <ele>543.8</ele>
        <time>2024-02-17T15:45:38Z</time>
      </trkpt>
      <trkpt lat="44.1356" lon="3.21788">
        <ele>543.7</ele>
        <time>2024-02-17T15:45:41Z</time>
      </trkpt>
      <trkpt lat="44.13548" lon="3.21789">
        <ele>543.6</ele>
        <time>2024-02-17T15:45:44Z</time>
      </trkpt>
      <trkpt lat="44.13537" lon="3.21791">
        <ele>543.4</ele>
        <time>2024-02-17T15:45:47Z</time>
      </trkpt>
      <trkpt lat="44.13524" lon="3.21795">
        <ele>542.4</ele>
        <time>2024-02-17T15:45:49Z</time>
      </trkpt>
      <trkpt lat="44.13511" lon="3.21797">
        <ele>539.4</ele>
        <time>2024-02-17T15:45:52Z</time>
      </trkpt>
      <trkpt lat="44.13498" lon="3.21793">
        <ele>534.7</ele>
        <time>2024-02-17T15:45:54Z</time>
      </trkpt>
      <trkpt lat="44.13484" lon="3.21792">
        <ele>532</ele>
        <time>2024-02-17T15:45:56Z</time>
      </trkpt>
      <trkpt lat="44.13469" lon="3.21792">
        <ele>529.3</ele>
        <time>2024-02-17T15:45:58Z</time>
      </trkpt>
      <trkpt lat="44.13457" lon="3.21799">
        <ele>528.1</ele>
        <time>2024-02-17T15:46:00Z</time>
      </trkpt>
      <trkpt lat="44.13449" lon="3.21807">
        <ele>527.7</ele>
        <time>2024-02-17T15:46:02Z</time>
      </trkpt>
      <trkpt lat="44.13438" lon="3.21808">
        <ele>524</ele>
        <time>2024-02-17T15:46:09Z</time>
      </trkpt>
      <trkpt lat="44.13428" lon="3.21814">
        <ele>522.1</ele>
        <time>2024-02-17T15:46:12Z</time>
      </trkpt>
      <trkpt lat="44.13418" lon="3.21812">
        <ele>517.5</ele>
        <time>2024-02-17T15:46:16Z</time>
      </trkpt>
      <trkpt lat="44.13407" lon="3.21818">
        <ele>518.6</ele>
        <time>2024-02-17T15:46:19Z</time>
      </trkpt>
      <trkpt lat="44.13396" lon="3.21822">
        <ele>518</ele>
        <time>2024-02-17T15:46:23Z</time>
      </trkpt>
      <trkpt lat="44.13385" lon="3.21826">
        <ele>516.9</ele>
        <time>2024-02-17T15:46:26Z</time>
      </trkpt>
      <trkpt lat="44.13374" lon="3.21823">
        <ele>517</ele>
        <time>2024-02-17T15:46:28Z</time>
      </trkpt>
      <trkpt lat="44.13366" lon="3.21832">
        <ele>512.1</ele>
        <time>2024-02-17T15:46:33Z</time>
      </trkpt>
      <trkpt lat="44.13359" lon="3.21841">
        <ele>511.4</ele>
        <time>2024-02-17T15:46:37Z</time>
      </trkpt>
      <trkpt lat="44.13347" lon="3.21841">
        <ele>517.5</ele>
        <time>2024-02-17T15:46:42Z</time>
      </trkpt>
      <trkpt lat="44.13343" lon="3.21853">
        <ele>516</ele>
        <time>2024-02-17T15:46:46Z</time>
      </trkpt>
      <trkpt lat="44.1334" lon="3.21866">
        <ele>513</ele>
        <time>2024-02-17T15:46:50Z</time>
      </trkpt>
      <trkpt lat="44.13334" lon="3.21879">
        <ele>508.1</ele>
        <time>2024-02-17T15:46:56Z</time>
      </trkpt>
      <trkpt lat="44.13329" lon="3.21892">
        <ele>506.4</ele>
        <time>2024-02-17T15:47:02Z</time>
      </trkpt>
      <trkpt lat="44.13318" lon="3.21899">
        <ele>509.7</ele>
        <time>2024-02-17T15:47:06Z</time>
      </trkpt>
      <trkpt lat="44.13304" lon="3.21905">
        <ele>509.7</ele>
        <time>2024-02-17T15:47:09Z</time>
      </trkpt>
      <trkpt lat="44.13295" lon="3.21905">
        <ele>509.7</ele>
        <time>2024-02-17T15:47:11Z</time>
      </trkpt>
      <trkpt lat="44.13285" lon="3.21905">
        <ele>509.6</ele>
        <time>2024-02-17T15:47:14Z</time>
      </trkpt>
      <trkpt lat="44.13275" lon="3.21908">
        <ele>507</ele>
        <time>2024-02-17T15:47:19Z</time>
      </trkpt>
      <trkpt lat="44.13265" lon="3.21908">
        <ele>504.7</ele>
        <time>2024-02-17T15:47:23Z</time>
      </trkpt>
      <trkpt lat="44.13254" lon="3.21912">
        <ele>499.3</ele>
        <time>2024-02-17T15:47:26Z</time>
      </trkpt>
      <trkpt lat="44.13245" lon="3.21914">
        <ele>496.7</ele>
        <time>2024-02-17T15:47:29Z</time>
      </trkpt>
      <trkpt lat="44.13235" lon="3.21913">
        <ele>496.9</ele>
        <time>2024-02-17T15:47:32Z</time>
      </trkpt>
      <trkpt lat="44.13223" lon="3.21916">
        <ele>494.4</ele>
        <time>2024-02-17T15:47:35Z</time>
      </trkpt>
      <trkpt lat="44.13212" lon="3.21922">
        <ele>495.3</ele>
        <time>2024-02-17T15:47:38Z</time>
      </trkpt>
      <trkpt lat="44.13203" lon="3.21925">
        <ele>495.3</ele>
        <time>2024-02-17T15:47:40Z</time>
      </trkpt>
      <trkpt lat="44.13194" lon="3.21931">
        <ele>494</ele>
        <time>2024-02-17T15:47:42Z</time>
      </trkpt>
      <trkpt lat="44.13185" lon="3.21938">
        <ele>493.9</ele>
        <time>2024-02-17T15:47:45Z</time>
      </trkpt>
      <trkpt lat="44.13175" lon="3.21943">
        <ele>492.6</ele>
        <time>2024-02-17T15:47:48Z</time>
      </trkpt>
      <trkpt lat="44.1317" lon="3.21955">
        <ele>489.7</ele>
        <time>2024-02-17T15:47:52Z</time>
      </trkpt>
      <trkpt lat="44.13168" lon="3.21969">
        <ele>485.7</ele>
        <time>2024-02-17T15:47:57Z</time>
      </trkpt>
      <trkpt lat="44.13159" lon="3.21979">
        <ele>487.4</ele>
        <time>2024-02-17T15:48:01Z</time>
      </trkpt>
      <trkpt lat="44.13151" lon="3.21987">
        <ele>487.8</ele>
        <time>2024-02-17T15:48:06Z</time>
      </trkpt>
      <trkpt lat="44.13143" lon="3.21995">
        <ele>484.5</ele>
        <time>2024-02-17T15:48:09Z</time>
      </trkpt>
      <trkpt lat="44.13133" lon="3.22001">
        <ele>481.7</ele>
        <time>2024-02-17T15:48:13Z</time>
      </trkpt>
      <trkpt lat="44.13124" lon="3.22011">
        <ele>483.2</ele>
        <time>2024-02-17T15:48:15Z</time>
      </trkpt>
      <trkpt lat="44.13115" lon="3.22021">
        <ele>481.3</ele>
        <time>2024-02-17T15:48:17Z</time>
      </trkpt>
      <trkpt lat="44.13104" lon="3.22024">
        <ele>478.6</ele>
        <time>2024-02-17T15:48:22Z</time>
      </trkpt>
      <trkpt lat="44.13092" lon="3.22022">
        <ele>477.8</ele>
        <time>2024-02-17T15:48:26Z</time>
      </trkpt>
      <trkpt lat="44.13082" lon="3.22025">
        <ele>475.5</ele>
        <time>2024-02-17T15:48:30Z</time>
      </trkpt>
      <trkpt lat="44.1307" lon="3.22028">
        <ele>475</ele>
        <time>2024-02-17T15:48:34Z</time>
      </trkpt>
      <trkpt lat="44.13062" lon="3.22036">
        <ele>475.6</ele>
        <time>2024-02-17T15:48:38Z</time>
      </trkpt>
      <trkpt lat="44.13053" lon="3.22041">
        <ele>475.1</ele>
        <time>2024-02-17T15:48:43Z</time>
      </trkpt>
      <trkpt lat="44.13042" lon="3.22047">
        <ele>475.1</ele>
        <time>2024-02-17T15:48:47Z</time>
      </trkpt>
      <trkpt lat="44.13034" lon="3.22051">
        <ele>473.7</ele>
        <time>2024-02-17T15:48:50Z</time>
      </trkpt>
      <trkpt lat="44.13023" lon="3.22054">
        <ele>475</ele>
        <time>2024-02-17T15:48:55Z</time>
      </trkpt>
      <trkpt lat="44.13017" lon="3.22068">
        <ele>475.2</ele>
        <time>2024-02-17T15:48:59Z</time>
      </trkpt>
      <trkpt lat="44.13017" lon="3.22081">
        <ele>472.3</ele>
        <time>2024-02-17T15:49:02Z</time>
      </trkpt>
      <trkpt lat="44.13007" lon="3.22096">
        <ele>471.6</ele>
        <time>2024-02-17T15:49:06Z</time>
      </trkpt>
      <trkpt lat="44.13009" lon="3.2211">
        <ele>471.6</ele>
        <time>2024-02-17T15:49:09Z</time>
      </trkpt>
      <trkpt lat="44.13004" lon="3.22125">
        <ele>468.9</ele>
        <time>2024-02-17T15:49:13Z</time>
      </trkpt>
      <trkpt lat="44.12998" lon="3.22136">
        <ele>466</ele>
        <time>2024-02-17T15:49:16Z</time>
      </trkpt>
      <trkpt lat="44.12992" lon="3.22146">
        <ele>466</ele>
        <time>2024-02-17T15:49:19Z</time>
      </trkpt>
      <trkpt lat="44.12983" lon="3.22154">
        <ele>464.4</ele>
        <time>2024-02-17T15:49:22Z</time>
      </trkpt>
      <trkpt lat="44.12974" lon="3.22159">
        <ele>461.4</ele>
        <time>2024-02-17T15:49:27Z</time>
      </trkpt>
      <trkpt lat="44.12964" lon="3.22157">
        <ele>460.2</ele>
        <time>2024-02-17T15:49:35Z</time>
      </trkpt>
      <trkpt lat="44.12954" lon="3.22154">
        <ele>459.6</ele>
        <time>2024-02-17T15:49:40Z</time>
      </trkpt>
      <trkpt lat="44.12943" lon="3.22151">
        <ele>459.1</ele>
        <time>2024-02-17T15:49:43Z</time>
      </trkpt>
      <trkpt lat="44.12912" lon="3.22131">
        <ele>455.2</ele>
        <time>2024-02-17T15:49:50Z</time>
      </trkpt>
      <trkpt lat="44.12903" lon="3.22124">
        <ele>455.3</ele>
        <time>2024-02-17T15:49:57Z</time>
      </trkpt>
      <trkpt lat="44.1289" lon="3.22126">
        <ele>452.5</ele>
        <time>2024-02-17T15:50:00Z</time>
      </trkpt>
      <trkpt lat="44.12881" lon="3.22131">
        <ele>450.3</ele>
        <time>2024-02-17T15:50:03Z</time>
      </trkpt>
      <trkpt lat="44.12875" lon="3.22121">
        <ele>450.8</ele>
        <time>2024-02-17T15:50:09Z</time>
      </trkpt>
      <trkpt lat="44.12867" lon="3.22115">
        <ele>449.9</ele>
        <time>2024-02-17T15:50:14Z</time>
      </trkpt>
      <trkpt lat="44.12864" lon="3.221">
        <ele>452.1</ele>
        <time>2024-02-17T15:50:19Z</time>
      </trkpt>
      <trkpt lat="44.12855" lon="3.22094">
        <ele>450.7</ele>
        <time>2024-02-17T15:50:24Z</time>
      </trkpt>
      <trkpt lat="44.12843" lon="3.22088">
        <ele>446.6</ele>
        <time>2024-02-17T15:50:27Z</time>
      </trkpt>
      <trkpt lat="44.12834" lon="3.22087">
        <ele>442.8</ele>
        <time>2024-02-17T15:50:30Z</time>
      </trkpt>
      <trkpt lat="44.12823" lon="3.22091">
        <ele>442.6</ele>
        <time>2024-02-17T15:50:33Z</time>
      </trkpt>
      <trkpt lat="44.12814" lon="3.22097">
        <ele>443.9</ele>
        <time>2024-02-17T15:50:36Z</time>
      </trkpt>
      <trkpt lat="44.12807" lon="3.22108">
        <ele>447.8</ele>
        <time>2024-02-17T15:50:39Z</time>
      </trkpt>
      <trkpt lat="44.12796" lon="3.22115">
        <ele>446.2</ele>
        <time>2024-02-17T15:50:42Z</time>
      </trkpt>
      <trkpt lat="44.12786" lon="3.22123">
        <ele>445</ele>
        <time>2024-02-17T15:50:44Z</time>
      </trkpt>
      <trkpt lat="44.12776" lon="3.22131">
        <ele>444.2</ele>
        <time>2024-02-17T15:50:46Z</time>
      </trkpt>
      <trkpt lat="44.12767" lon="3.22136">
        <ele>441.6</ele>
        <time>2024-02-17T15:50:49Z</time>
      </trkpt>
      <trkpt lat="44.12758" lon="3.2214">
        <ele>437.6</ele>
        <time>2024-02-17T15:50:53Z</time>
      </trkpt>
      <trkpt lat="44.12745" lon="3.22147">
        <ele>434.4</ele>
        <time>2024-02-17T15:50:57Z</time>
      </trkpt>
      <trkpt lat="44.12731" lon="3.22142">
        <ele>433.1</ele>
        <time>2024-02-17T15:50:59Z</time>
      </trkpt>
      <trkpt lat="44.12718" lon="3.22141">
        <ele>434.2</ele>
        <time>2024-02-17T15:51:01Z</time>
      </trkpt>
      <trkpt lat="44.12709" lon="3.22154">
        <ele>433.9</ele>
        <time>2024-02-17T15:51:04Z</time>
      </trkpt>
      <trkpt lat="44.12703" lon="3.22168">
        <ele>430.5</ele>
        <time>2024-02-17T15:51:06Z</time>
      </trkpt>
      <trkpt lat="44.12698" lon="3.22179">
        <ele>428.8</ele>
        <time>2024-02-17T15:51:08Z</time>
      </trkpt>
      <trkpt lat="44.12694" lon="3.22192">
        <ele>426.4</ele>
        <time>2024-02-17T15:51:10Z</time>
      </trkpt>
      <trkpt lat="44.12684" lon="3.222">
        <ele>426.8</ele>
        <time>2024-02-17T15:51:12Z</time>
      </trkpt>
      <trkpt lat="44.12675" lon="3.22212">
        <ele>426.3</ele>
        <time>2024-02-17T15:51:14Z</time>
      </trkpt>
      <trkpt lat="44.12666" lon="3.22224">
        <ele>424.8</ele>
        <time>2024-02-17T15:51:16Z</time>
      </trkpt>
      <trkpt lat="44.12657" lon="3.22228">
        <ele>424.5</ele>
        <time>2024-02-17T15:51:18Z</time>
      </trkpt>
      <trkpt lat="44.12646" lon="3.22235">
        <ele>423.3</ele>
        <time>2024-02-17T15:51:21Z</time>
      </trkpt>
      <trkpt lat="44.12638" lon="3.22244">
        <ele>421.3</ele>
        <time>2024-02-17T15:51:25Z</time>
      </trkpt>
      <trkpt lat="44.1263" lon="3.22252">
        <ele>419.5</ele>
        <time>2024-02-17T15:51:32Z</time>
      </trkpt>
      <trkpt lat="44.12624" lon="3.22264">
        <ele>419.7</ele>
        <time>2024-02-17T15:51:38Z</time>
      </trkpt>
      <trkpt lat="44.12618" lon="3.22275">
        <ele>420.1</ele>
        <time>2024-02-17T15:51:47Z</time>
      </trkpt>
      <trkpt lat="44.1261" lon="3.22281">
        <ele>420.2</ele>
        <time>2024-02-17T15:51:54Z</time>
      </trkpt>
      <trkpt lat="44.12602" lon="3.22288">
        <ele>419.7</ele>
        <time>2024-02-17T15:51:59Z</time>
      </trkpt>
      <trkpt lat="44.12596" lon="3.22298">
        <ele>420.3</ele>
        <time>2024-02-17T15:52:03Z</time>
      </trkpt>
      <trkpt lat="44.1259" lon="3.22309">
        <ele>421.6</ele>
        <time>2024-02-17T15:52:08Z</time>
      </trkpt>
      <trkpt lat="44.12583" lon="3.22317">
        <ele>422.5</ele>
        <time>2024-02-17T15:52:15Z</time>
      </trkpt>
      <trkpt lat="44.12574" lon="3.22321">
        <ele>422.9</ele>
        <time>2024-02-17T15:52:22Z</time>
      </trkpt>
      <trkpt lat="44.12565" lon="3.22323">
        <ele>422.9</ele>
        <time>2024-02-17T15:52:29Z</time>
      </trkpt>
      <trkpt lat="44.12556" lon="3.22327">
        <ele>423.4</ele>
        <time>2024-02-17T15:52:37Z</time>
      </trkpt>
      <trkpt lat="44.12546" lon="3.22327">
        <ele>424.9</ele>
        <time>2024-02-17T15:52:44Z</time>
      </trkpt>
      <trkpt lat="44.12539" lon="3.22337">
        <ele>426.9</ele>
        <time>2024-02-17T15:52:50Z</time>
      </trkpt>
      <trkpt lat="44.12539" lon="3.22351">
        <ele>427.3</ele>
        <time>2024-02-17T15:52:54Z</time>
      </trkpt>
      <trkpt lat="44.12541" lon="3.22363">
        <ele>428.5</ele>
        <time>2024-02-17T15:52:59Z</time>
      </trkpt>
      <trkpt lat="44.12544" lon="3.22376">
        <ele>428.7</ele>
        <time>2024-02-17T15:53:04Z</time>
      </trkpt>
      <trkpt lat="44.12548" lon="3.22389">
        <ele>429.6</ele>
        <time>2024-02-17T15:53:09Z</time>
      </trkpt>
      <trkpt lat="44.12553" lon="3.22402">
        <ele>431.1</ele>
        <time>2024-02-17T15:53:15Z</time>
      </trkpt>
      <trkpt lat="44.12557" lon="3.22414">
        <ele>432.2</ele>
        <time>2024-02-17T15:53:20Z</time>
      </trkpt>
      <trkpt lat="44.1256" lon="3.22426">
        <ele>432.8</ele>
        <time>2024-02-17T15:53:25Z</time>
      </trkpt>
      <trkpt lat="44.12563" lon="3.22438">
        <ele>433.7</ele>
        <time>2024-02-17T15:53:30Z</time>
      </trkpt>
      <trkpt lat="44.12564" lon="3.22452">
        <ele>433.7</ele>
        <time>2024-02-17T15:53:36Z</time>
      </trkpt>
      <trkpt lat="44.12566" lon="3.22466">
        <ele>434.9</ele>
        <time>2024-02-17T15:53:41Z</time>
      </trkpt>
      <trkpt lat="44.12567" lon="3.22479">
        <ele>435.4</ele>
        <time>2024-02-17T15:53:46Z</time>
      </trkpt>
      <trkpt lat="44.12568" lon="3.22493">
        <ele>436</ele>
        <time>2024-02-17T15:53:52Z</time>
      </trkpt>
      <trkpt lat="44.12569" lon="3.22508">
        <ele>436.7</ele>
        <time>2024-02-17T15:53:58Z</time>
      </trkpt>
      <trkpt lat="44.1257" lon="3.22521">
        <ele>437.4</ele>
        <time>2024-02-17T15:54:04Z</time>
      </trkpt>
      <trkpt lat="44.12573" lon="3.22536">
        <ele>439</ele>
        <time>2024-02-17T15:54:10Z</time>
      </trkpt>
      <trkpt lat="44.12574" lon="3.22551">
        <ele>439.1</ele>
        <time>2024-02-17T15:54:15Z</time>
      </trkpt>
      <trkpt lat="44.12574" lon="3.22564">
        <ele>439.5</ele>
        <time>2024-02-17T15:54:20Z</time>
      </trkpt>
      <trkpt lat="44.12571" lon="3.22578">
        <ele>438.3</ele>
        <time>2024-02-17T15:54:26Z</time>
      </trkpt>
      <trkpt lat="44.1257" lon="3.22591">
        <ele>438.2</ele>
        <time>2024-02-17T15:54:31Z</time>
      </trkpt>
      <trkpt lat="44.12573" lon="3.22603">
        <ele>440.6</ele>
        <time>2024-02-17T15:54:37Z</time>
      </trkpt>
      <trkpt lat="44.12582" lon="3.22609">
        <ele>447</ele>
        <time>2024-02-17T15:54:42Z</time>
      </trkpt>
      <trkpt lat="44.1259" lon="3.22605">
        <ele>451.5</ele>
        <time>2024-02-17T15:54:47Z</time>
      </trkpt>
      <trkpt lat="44.12595" lon="3.22593">
        <ele>454.5</ele>
        <time>2024-02-17T15:54:54Z</time>
      </trkpt>
      <trkpt lat="44.12594" lon="3.2258">
        <ele>453.7</ele>
        <time>2024-02-17T15:55:00Z</time>
      </trkpt>
      <trkpt lat="44.12596" lon="3.22566">
        <ele>454.2</ele>
        <time>2024-02-17T15:55:05Z</time>
      </trkpt>
      <trkpt lat="44.12598" lon="3.22554">
        <ele>455.1</ele>
        <time>2024-02-17T15:55:10Z</time>
      </trkpt>
      <trkpt lat="44.12598" lon="3.22541">
        <ele>455.6</ele>
        <time>2024-02-17T15:55:15Z</time>
      </trkpt>
      <trkpt lat="44.12599" lon="3.22527">
        <ele>456.7</ele>
        <time>2024-02-17T15:55:21Z</time>
      </trkpt>
      <trkpt lat="44.12601" lon="3.22513">
        <ele>458.3</ele>
        <time>2024-02-17T15:55:27Z</time>
      </trkpt>
      <trkpt lat="44.12602" lon="3.225">
        <ele>459.1</ele>
        <time>2024-02-17T15:55:33Z</time>
      </trkpt>
      <trkpt lat="44.12604" lon="3.22486">
        <ele>460.6</ele>
        <time>2024-02-17T15:55:39Z</time>
      </trkpt>
      <trkpt lat="44.12603" lon="3.22473">
        <ele>460.1</ele>
        <time>2024-02-17T15:55:44Z</time>
      </trkpt>
      <trkpt lat="44.12603" lon="3.22459">
        <ele>460.3</ele>
        <time>2024-02-17T15:55:50Z</time>
      </trkpt>
      <trkpt lat="44.12604" lon="3.22445">
        <ele>461.1</ele>
        <time>2024-02-17T15:55:56Z</time>
      </trkpt>
      <trkpt lat="44.12605" lon="3.22432">
        <ele>461.9</ele>
        <time>2024-02-17T15:56:01Z</time>
      </trkpt>
      <trkpt lat="44.12609" lon="3.22419">
        <ele>464.6</ele>
        <time>2024-02-17T15:56:07Z</time>
      </trkpt>
      <trkpt lat="44.12615" lon="3.22407">
        <ele>465</ele>
        <time>2024-02-17T15:56:13Z</time>
      </trkpt>
      <trkpt lat="44.12624" lon="3.224">
        <ele>466.6</ele>
        <time>2024-02-17T15:56:20Z</time>
      </trkpt>
      <trkpt lat="44.12633" lon="3.22394">
        <ele>467.9</ele>
        <time>2024-02-17T15:56:26Z</time>
      </trkpt>
      <trkpt lat="44.12642" lon="3.22387">
        <ele>468.1</ele>
        <time>2024-02-17T15:56:32Z</time>
      </trkpt>
      <trkpt lat="44.12651" lon="3.22383">
        <ele>469.1</ele>
        <time>2024-02-17T15:56:38Z</time>
      </trkpt>
      <trkpt lat="44.12661" lon="3.22378">
        <ele>470.3</ele>
        <time>2024-02-17T15:56:44Z</time>
      </trkpt>
      <trkpt lat="44.1267" lon="3.22373">
        <ele>471.2</ele>
        <time>2024-02-17T15:56:49Z</time>
      </trkpt>
      <trkpt lat="44.12678" lon="3.22369">
        <ele>472.1</ele>
        <time>2024-02-17T15:56:54Z</time>
      </trkpt>
      <trkpt lat="44.12688" lon="3.22362">
        <ele>472.3</ele>
        <time>2024-02-17T15:57:00Z</time>
      </trkpt>
      <trkpt lat="44.12698" lon="3.22356">
        <ele>473.3</ele>
        <time>2024-02-17T15:57:06Z</time>
      </trkpt>
      <trkpt lat="44.12706" lon="3.22351">
        <ele>474.2</ele>
        <time>2024-02-17T15:57:11Z</time>
      </trkpt>
      <trkpt lat="44.12715" lon="3.22345">
        <ele>475</ele>
        <time>2024-02-17T15:57:16Z</time>
      </trkpt>
      <trkpt lat="44.12724" lon="3.22339">
        <ele>476.1</ele>
        <time>2024-02-17T15:57:21Z</time>
      </trkpt>
      <trkpt lat="44.12732" lon="3.22332">
        <ele>477.1</ele>
        <time>2024-02-17T15:57:26Z</time>
      </trkpt>
      <trkpt lat="44.1274" lon="3.22324">
        <ele>478.1</ele>
        <time>2024-02-17T15:57:32Z</time>
      </trkpt>
      <trkpt lat="44.12748" lon="3.22315">
        <ele>478.5</ele>
        <time>2024-02-17T15:57:37Z</time>
      </trkpt>
      <trkpt lat="44.12755" lon="3.22307">
        <ele>479.1</ele>
        <time>2024-02-17T15:57:42Z</time>
      </trkpt>
      <trkpt lat="44.12763" lon="3.22299">
        <ele>480.6</ele>
        <time>2024-02-17T15:57:47Z</time>
      </trkpt>
      <trkpt lat="44.1277" lon="3.22289">
        <ele>480.9</ele>
        <time>2024-02-17T15:57:52Z</time>
      </trkpt>
      <trkpt lat="44.12776" lon="3.22279">
        <ele>480.6</ele>
        <time>2024-02-17T15:57:57Z</time>
      </trkpt>
      <trkpt lat="44.12782" lon="3.22269">
        <ele>481.5</ele>
        <time>2024-02-17T15:58:02Z</time>
      </trkpt>
      <trkpt lat="44.12788" lon="3.22259">
        <ele>482.5</ele>
        <time>2024-02-17T15:58:07Z</time>
      </trkpt>
      <trkpt lat="44.12796" lon="3.22249">
        <ele>484</ele>
        <time>2024-02-17T15:58:12Z</time>
      </trkpt>
      <trkpt lat="44.12804" lon="3.2224">
        <ele>486.1</ele>
        <time>2024-02-17T15:58:17Z</time>
      </trkpt>
      <trkpt lat="44.12812" lon="3.22233">
        <ele>486.8</ele>
        <time>2024-02-17T15:58:22Z</time>
      </trkpt>
      <trkpt lat="44.12821" lon="3.22229">
        <ele>487.4</ele>
        <time>2024-02-17T15:58:27Z</time>
      </trkpt>
      <trkpt lat="44.12831" lon="3.22229">
        <ele>489.2</ele>
        <time>2024-02-17T15:58:34Z</time>
      </trkpt>
      <trkpt lat="44.1284" lon="3.22231">
        <ele>490.6</ele>
        <time>2024-02-17T15:58:39Z</time>
      </trkpt>
      <trkpt lat="44.1285" lon="3.22233">
        <ele>491.5</ele>
        <time>2024-02-17T15:58:45Z</time>
      </trkpt>
      <trkpt lat="44.12859" lon="3.22235">
        <ele>492.4</ele>
        <time>2024-02-17T15:58:50Z</time>
      </trkpt>
      <trkpt lat="44.12868" lon="3.22237">
        <ele>493.1</ele>
        <time>2024-02-17T15:58:55Z</time>
      </trkpt>
      <trkpt lat="44.12879" lon="3.22239">
        <ele>493.6</ele>
        <time>2024-02-17T15:59:01Z</time>
      </trkpt>
      <trkpt lat="44.12888" lon="3.22241">
        <ele>494.2</ele>
        <time>2024-02-17T15:59:07Z</time>
      </trkpt>
      <trkpt lat="44.12898" lon="3.22242">
        <ele>494</ele>
        <time>2024-02-17T15:59:13Z</time>
      </trkpt>
      <trkpt lat="44.12907" lon="3.22242">
        <ele>493.4</ele>
        <time>2024-02-17T15:59:18Z</time>
      </trkpt>
      <trkpt lat="44.12917" lon="3.22242">
        <ele>492.7</ele>
        <time>2024-02-17T15:59:23Z</time>
      </trkpt>
      <trkpt lat="44.12927" lon="3.2224">
        <ele>492.6</ele>
        <time>2024-02-17T15:59:29Z</time>
      </trkpt>
      <trkpt lat="44.12937" lon="3.22241">
        <ele>494.1</ele>
        <time>2024-02-17T15:59:35Z</time>
      </trkpt>
      <trkpt lat="44.12947" lon="3.2224">
        <ele>494.6</ele>
        <time>2024-02-17T15:59:40Z</time>
      </trkpt>
      <trkpt lat="44.12958" lon="3.22242">
        <ele>496.9</ele>
        <time>2024-02-17T15:59:46Z</time>
      </trkpt>
      <trkpt lat="44.12967" lon="3.22237">
        <ele>495.7</ele>
        <time>2024-02-17T15:59:50Z</time>
      </trkpt>
      <trkpt lat="44.12976" lon="3.22235">
        <ele>496.1</ele>
        <time>2024-02-17T15:59:54Z</time>
      </trkpt>
      <trkpt lat="44.12986" lon="3.22233">
        <ele>496.8</ele>
        <time>2024-02-17T16:00:00Z</time>
      </trkpt>
      <trkpt lat="44.12996" lon="3.22232">
        <ele>497.9</ele>
        <time>2024-02-17T16:00:06Z</time>
      </trkpt>
      <trkpt lat="44.13005" lon="3.2223">
        <ele>498.9</ele>
        <time>2024-02-17T16:00:11Z</time>
      </trkpt>
      <trkpt lat="44.13015" lon="3.22226">
        <ele>499.9</ele>
        <time>2024-02-17T16:00:17Z</time>
      </trkpt>
      <trkpt lat="44.13024" lon="3.22218">
        <ele>499.9</ele>
        <time>2024-02-17T16:00:23Z</time>
      </trkpt>
      <trkpt lat="44.13029" lon="3.22208">
        <ele>499.7</ele>
        <time>2024-02-17T16:00:27Z</time>
      </trkpt>
      <trkpt lat="44.13035" lon="3.22196">
        <ele>500.8</ele>
        <time>2024-02-17T16:00:31Z</time>
      </trkpt>
      <trkpt lat="44.13042" lon="3.22184">
        <ele>502.4</ele>
        <time>2024-02-17T16:00:35Z</time>
      </trkpt>
      <trkpt lat="44.13047" lon="3.22173">
        <ele>503.1</ele>
        <time>2024-02-17T16:00:39Z</time>
      </trkpt>
      <trkpt lat="44.13052" lon="3.22161">
        <ele>503.8</ele>
        <time>2024-02-17T16:00:43Z</time>
      </trkpt>
      <trkpt lat="44.13058" lon="3.22148">
        <ele>505</ele>
        <time>2024-02-17T16:00:48Z</time>
      </trkpt>
      <trkpt lat="44.13065" lon="3.22137">
        <ele>506.6</ele>
        <time>2024-02-17T16:00:53Z</time>
      </trkpt>
      <trkpt lat="44.13071" lon="3.22127">
        <ele>506.9</ele>
        <time>2024-02-17T16:00:57Z</time>
      </trkpt>
      <trkpt lat="44.13078" lon="3.22115">
        <ele>507.2</ele>
        <time>2024-02-17T16:01:02Z</time>
      </trkpt>
      <trkpt lat="44.13086" lon="3.22104">
        <ele>508.1</ele>
        <time>2024-02-17T16:01:07Z</time>
      </trkpt>
      <trkpt lat="44.13094" lon="3.22096">
        <ele>509.4</ele>
        <time>2024-02-17T16:01:11Z</time>
      </trkpt>
      <trkpt lat="44.13101" lon="3.22087">
        <ele>509.2</ele>
        <time>2024-02-17T16:01:16Z</time>
      </trkpt>
      <trkpt lat="44.13109" lon="3.2208">
        <ele>509.3</ele>
        <time>2024-02-17T16:01:22Z</time>
      </trkpt>
      <trkpt lat="44.13119" lon="3.22077">
        <ele>512.3</ele>
        <time>2024-02-17T16:01:27Z</time>
      </trkpt>
      <trkpt lat="44.13128" lon="3.22072">
        <ele>513.8</ele>
        <time>2024-02-17T16:01:33Z</time>
      </trkpt>
      <trkpt lat="44.13138" lon="3.22067">
        <ele>515.8</ele>
        <time>2024-02-17T16:01:39Z</time>
      </trkpt>
      <trkpt lat="44.13146" lon="3.22061">
        <ele>516.2</ele>
        <time>2024-02-17T16:01:44Z</time>
      </trkpt>
      <trkpt lat="44.13156" lon="3.22053">
        <ele>516.5</ele>
        <time>2024-02-17T16:01:48Z</time>
      </trkpt>
      <trkpt lat="44.13164" lon="3.22045">
        <ele>515.9</ele>
        <time>2024-02-17T16:01:53Z</time>
      </trkpt>
      <trkpt lat="44.13173" lon="3.22038">
        <ele>516.9</ele>
        <time>2024-02-17T16:01:58Z</time>
      </trkpt>
      <trkpt lat="44.13181" lon="3.2203">
        <ele>517.3</ele>
        <time>2024-02-17T16:02:02Z</time>
      </trkpt>
      <trkpt lat="44.1319" lon="3.22021">
        <ele>518.7</ele>
        <time>2024-02-17T16:02:07Z</time>
      </trkpt>
      <trkpt lat="44.13197" lon="3.22013">
        <ele>519.3</ele>
        <time>2024-02-17T16:02:11Z</time>
      </trkpt>
      <trkpt lat="44.13206" lon="3.22006">
        <ele>520.5</ele>
        <time>2024-02-17T16:02:15Z</time>
      </trkpt>
      <trkpt lat="44.13215" lon="3.21998">
        <ele>521.1</ele>
        <time>2024-02-17T16:02:20Z</time>
      </trkpt>
      <trkpt lat="44.13223" lon="3.21992">
        <ele>522.1</ele>
        <time>2024-02-17T16:02:24Z</time>
      </trkpt>
      <trkpt lat="44.13233" lon="3.21987">
        <ele>524</ele>
        <time>2024-02-17T16:02:29Z</time>
      </trkpt>
      <trkpt lat="44.13244" lon="3.21984">
        <ele>526.7</ele>
        <time>2024-02-17T16:02:34Z</time>
      </trkpt>
      <trkpt lat="44.13255" lon="3.2198">
        <ele>528.1</ele>
        <time>2024-02-17T16:02:39Z</time>
      </trkpt>
      <trkpt lat="44.13266" lon="3.21978">
        <ele>529.6</ele>
        <time>2024-02-17T16:02:44Z</time>
      </trkpt>
      <trkpt lat="44.13276" lon="3.21977">
        <ele>531.3</ele>
        <time>2024-02-17T16:02:49Z</time>
      </trkpt>
      <trkpt lat="44.13287" lon="3.21975">
        <ele>531.3</ele>
        <time>2024-02-17T16:02:53Z</time>
      </trkpt>
      <trkpt lat="44.13297" lon="3.21975">
        <ele>532.1</ele>
        <time>2024-02-17T16:02:57Z</time>
      </trkpt>
      <trkpt lat="44.13306" lon="3.21975">
        <ele>532.7</ele>
        <time>2024-02-17T16:03:01Z</time>
      </trkpt>
      <trkpt lat="44.13315" lon="3.21976">
        <ele>533.9</ele>
        <time>2024-02-17T16:03:05Z</time>
      </trkpt>
      <trkpt lat="44.13324" lon="3.21976">
        <ele>534.5</ele>
        <time>2024-02-17T16:03:09Z</time>
      </trkpt>
      <trkpt lat="44.13334" lon="3.21973">
        <ele>533.7</ele>
        <time>2024-02-17T16:03:13Z</time>
      </trkpt>
      <trkpt lat="44.13341" lon="3.21962">
        <ele>532.4</ele>
        <time>2024-02-17T16:03:17Z</time>
      </trkpt>
      <trkpt lat="44.1335" lon="3.21952">
        <ele>534.9</ele>
        <time>2024-02-17T16:03:21Z</time>
      </trkpt>
      <trkpt lat="44.13356" lon="3.21941">
        <ele>536.9</ele>
        <time>2024-02-17T16:03:26Z</time>
      </trkpt>
      <trkpt lat="44.13364" lon="3.21932">
        <ele>540</ele>
        <time>2024-02-17T16:03:31Z</time>
      </trkpt>
      <trkpt lat="44.13371" lon="3.21921">
        <ele>540.6</ele>
        <time>2024-02-17T16:03:36Z</time>
      </trkpt>
      <trkpt lat="44.13377" lon="3.21912">
        <ele>540.6</ele>
        <time>2024-02-17T16:03:41Z</time>
      </trkpt>
      <trkpt lat="44.13385" lon="3.21903">
        <ele>541.4</ele>
        <time>2024-02-17T16:03:46Z</time>
      </trkpt>
      <trkpt lat="44.13394" lon="3.21894">
        <ele>542.2</ele>
        <time>2024-02-17T16:03:52Z</time>
      </trkpt>
      <trkpt lat="44.13402" lon="3.21889">
        <ele>543.7</ele>
        <time>2024-02-17T16:03:57Z</time>
      </trkpt>
      <trkpt lat="44.13411" lon="3.21882">
        <ele>544.3</ele>
        <time>2024-02-17T16:04:02Z</time>
      </trkpt>
      <trkpt lat="44.13421" lon="3.21876">
        <ele>544.8</ele>
        <time>2024-02-17T16:04:07Z</time>
      </trkpt>
      <trkpt lat="44.13429" lon="3.21871">
        <ele>544.4</ele>
        <time>2024-02-17T16:04:12Z</time>
      </trkpt>
      <trkpt lat="44.13438" lon="3.21864">
        <ele>544.1</ele>
        <time>2024-02-17T16:04:17Z</time>
      </trkpt>
      <trkpt lat="44.13445" lon="3.21856">
        <ele>543.1</ele>
        <time>2024-02-17T16:04:22Z</time>
      </trkpt>
      <trkpt lat="44.13454" lon="3.21847">
        <ele>543.9</ele>
        <time>2024-02-17T16:04:28Z</time>
      </trkpt>
      <trkpt lat="44.13463" lon="3.21841">
        <ele>545.5</ele>
        <time>2024-02-17T16:04:33Z</time>
      </trkpt>
      <trkpt lat="44.13472" lon="3.21836">
        <ele>547.3</ele>
        <time>2024-02-17T16:04:38Z</time>
      </trkpt>
      <trkpt lat="44.13482" lon="3.21832">
        <ele>547.9</ele>
        <time>2024-02-17T16:04:43Z</time>
      </trkpt>
      <trkpt lat="44.13491" lon="3.21829">
        <ele>548.8</ele>
        <time>2024-02-17T16:04:48Z</time>
      </trkpt>
      <trkpt lat="44.13502" lon="3.21828">
        <ele>550.5</ele>
        <time>2024-02-17T16:04:54Z</time>
      </trkpt>
      <trkpt lat="44.13511" lon="3.21832">
        <ele>552.1</ele>
        <time>2024-02-17T16:04:59Z</time>
      </trkpt>
      <trkpt lat="44.13522" lon="3.21834">
        <ele>552.5</ele>
        <time>2024-02-17T16:05:04Z</time>
      </trkpt>
      <trkpt lat="44.13533" lon="3.21835">
        <ele>552.9</ele>
        <time>2024-02-17T16:05:09Z</time>
      </trkpt>
      <trkpt lat="44.13543" lon="3.21837">
        <ele>554</ele>
        <time>2024-02-17T16:05:14Z</time>
      </trkpt>
      <trkpt lat="44.13554" lon="3.21839">
        <ele>555</ele>
        <time>2024-02-17T16:05:19Z</time>
      </trkpt>
      <trkpt lat="44.13566" lon="3.2184">
        <ele>556.4</ele>
        <time>2024-02-17T16:05:24Z</time>
      </trkpt>
      <trkpt lat="44.13576" lon="3.21842">
        <ele>558.3</ele>
        <time>2024-02-17T16:05:29Z</time>
      </trkpt>
      <trkpt lat="44.13587" lon="3.21843">
        <ele>559.8</ele>
        <time>2024-02-17T16:05:34Z</time>
      </trkpt>
      <trkpt lat="44.13598" lon="3.21844">
        <ele>561</ele>
        <time>2024-02-17T16:05:39Z</time>
      </trkpt>
      <trkpt lat="44.13607" lon="3.21845">
        <ele>562.2</ele>
        <time>2024-02-17T16:05:44Z</time>
      </trkpt>
      <trkpt lat="44.13617" lon="3.2185">
        <ele>565.1</ele>
        <time>2024-02-17T16:05:50Z</time>
      </trkpt>
      <trkpt lat="44.13627" lon="3.21853">
        <ele>566.9</ele>
        <time>2024-02-17T16:05:55Z</time>
      </trkpt>
      <trkpt lat="44.13637" lon="3.21857">
        <ele>569.1</ele>
        <time>2024-02-17T16:05:59Z</time>
      </trkpt>
      <trkpt lat="44.13647" lon="3.21857">
        <ele>570.1</ele>
        <time>2024-02-17T16:06:03Z</time>
      </trkpt>
      <trkpt lat="44.13658" lon="3.21856">
        <ele>570.7</ele>
        <time>2024-02-17T16:06:08Z</time>
      </trkpt>
      <trkpt lat="44.13667" lon="3.21853">
        <ele>570.2</ele>
        <time>2024-02-17T16:06:13Z</time>
      </trkpt>
      <trkpt lat="44.13671" lon="3.21837">
        <ele>562.3</ele>
        <time>2024-02-17T16:06:16Z</time>
      </trkpt>
      <trkpt lat="44.13675" lon="3.21821">
        <ele>560.1</ele>
        <time>2024-02-17T16:06:19Z</time>
      </trkpt>
      <trkpt lat="44.13675" lon="3.21807">
        <ele>560.1</ele>
        <time>2024-02-17T16:06:23Z</time>
      </trkpt>
      <trkpt lat="44.13675" lon="3.21793">
        <ele>565.7</ele>
        <time>2024-02-17T16:06:28Z</time>
      </trkpt>
      <trkpt lat="44.13668" lon="3.21785">
        <ele>567.9</ele>
        <time>2024-02-17T16:06:34Z</time>
      </trkpt>
      <trkpt lat="44.13659" lon="3.21775">
        <ele>570</ele>
        <time>2024-02-17T16:06:39Z</time>
      </trkpt>
      <trkpt lat="44.13651" lon="3.21767">
        <ele>570.4</ele>
        <time>2024-02-17T16:06:44Z</time>
      </trkpt>
      <trkpt lat="44.13643" lon="3.21759">
        <ele>570.1</ele>
        <time>2024-02-17T16:06:49Z</time>
      </trkpt>
      <trkpt lat="44.13645" lon="3.21747">
        <ele>575.8</ele>
        <time>2024-02-17T16:06:55Z</time>
      </trkpt>
      <trkpt lat="44.13653" lon="3.21752">
        <ele>576.8</ele>
        <time>2024-02-17T16:07:02Z</time>
      </trkpt>
      <trkpt lat="44.13663" lon="3.21754">
        <ele>580.5</ele>
        <time>2024-02-17T16:07:10Z</time>
      </trkpt>
      <trkpt lat="44.13671" lon="3.21761">
        <ele>579.3</ele>
        <time>2024-02-17T16:07:15Z</time>
      </trkpt>
      <trkpt lat="44.13681" lon="3.21768">
        <ele>577.6</ele>
        <time>2024-02-17T16:07:20Z</time>
      </trkpt>
      <trkpt lat="44.13689" lon="3.21774">
        <ele>576.5</ele>
        <time>2024-02-17T16:07:25Z</time>
      </trkpt>
      <trkpt lat="44.13698" lon="3.21782">
        <ele>573.8</ele>
        <time>2024-02-17T16:07:31Z</time>
      </trkpt>
      <trkpt lat="44.13707" lon="3.21785">
        <ele>571.1</ele>
        <time>2024-02-17T16:07:36Z</time>
      </trkpt>
      <trkpt lat="44.13718" lon="3.21783">
        <ele>570.2</ele>
        <time>2024-02-17T16:07:41Z</time>
      </trkpt>
      <trkpt lat="44.13728" lon="3.21779">
        <ele>570.1</ele>
        <time>2024-02-17T16:07:45Z</time>
      </trkpt>
      <trkpt lat="44.13737" lon="3.21771">
        <ele>569.8</ele>
        <time>2024-02-17T16:07:50Z</time>
      </trkpt>
      <trkpt lat="44.13745" lon="3.21763">
        <ele>568.5</ele>
        <time>2024-02-17T16:07:55Z</time>
      </trkpt>
      <trkpt lat="44.13758" lon="3.21756">
        <ele>568.6</ele>
        <time>2024-02-17T16:08:00Z</time>
      </trkpt>
      <trkpt lat="44.13766" lon="3.2175">
        <ele>569.7</ele>
        <time>2024-02-17T16:08:04Z</time>
      </trkpt>
      <trkpt lat="44.13774" lon="3.21742">
        <ele>571.4</ele>
        <time>2024-02-17T16:08:09Z</time>
      </trkpt>
      <trkpt lat="44.13783" lon="3.21737">
        <ele>573.1</ele>
        <time>2024-02-17T16:08:15Z</time>
      </trkpt>
      <trkpt lat="44.13793" lon="3.21733">
        <ele>576.3</ele>
        <time>2024-02-17T16:08:21Z</time>
      </trkpt>
      <trkpt lat="44.13802" lon="3.21729">
        <ele>580.2</ele>
        <time>2024-02-17T16:08:28Z</time>
      </trkpt>
      <trkpt lat="44.13813" lon="3.21727">
        <ele>585.3</ele>
        <time>2024-02-17T16:08:34Z</time>
      </trkpt>
      <trkpt lat="44.13822" lon="3.21733">
        <ele>586.8</ele>
        <time>2024-02-17T16:08:41Z</time>
      </trkpt>
      <trkpt lat="44.13831" lon="3.21743">
        <ele>586.8</ele>
        <time>2024-02-17T16:08:47Z</time>
      </trkpt>
      <trkpt lat="44.13839" lon="3.21749">
        <ele>586.4</ele>
        <time>2024-02-17T16:08:54Z</time>
      </trkpt>
      <trkpt lat="44.13849" lon="3.21755">
        <ele>586</ele>
        <time>2024-02-17T16:08:59Z</time>
      </trkpt>
      <trkpt lat="44.1386" lon="3.21756">
        <ele>587.6</ele>
        <time>2024-02-17T16:09:04Z</time>
      </trkpt>
      <trkpt lat="44.13868" lon="3.2175">
        <ele>587</ele>
        <time>2024-02-17T16:09:09Z</time>
      </trkpt>
      <trkpt lat="44.13876" lon="3.21742">
        <ele>586.7</ele>
        <time>2024-02-17T16:09:14Z</time>
      </trkpt>
      <trkpt lat="44.13883" lon="3.21733">
        <ele>586.6</ele>
        <time>2024-02-17T16:09:19Z</time>
      </trkpt>
      <trkpt lat="44.1389" lon="3.21725">
        <ele>586</ele>
        <time>2024-02-17T16:09:24Z</time>
      </trkpt>
      <trkpt lat="44.13898" lon="3.21716">
        <ele>587.6</ele>
        <time>2024-02-17T16:09:29Z</time>
      </trkpt>
      <trkpt lat="44.13905" lon="3.21708">
        <ele>587.7</ele>
        <time>2024-02-17T16:09:34Z</time>
      </trkpt>
      <trkpt lat="44.13912" lon="3.21699">
        <ele>586.6</ele>
        <time>2024-02-17T16:09:39Z</time>
      </trkpt>
      <trkpt lat="44.13922" lon="3.21693">
        <ele>586.1</ele>
        <time>2024-02-17T16:09:44Z</time>
      </trkpt>
      <trkpt lat="44.1393" lon="3.21688">
        <ele>588.9</ele>
        <time>2024-02-17T16:09:48Z</time>
      </trkpt>
      <trkpt lat="44.13941" lon="3.21686">
        <ele>590.4</ele>
        <time>2024-02-17T16:09:53Z</time>
      </trkpt>
      <trkpt lat="44.13951" lon="3.21684">
        <ele>592.4</ele>
        <time>2024-02-17T16:09:58Z</time>
      </trkpt>
      <trkpt lat="44.13961" lon="3.21683">
        <ele>594.2</ele>
        <time>2024-02-17T16:10:03Z</time>
      </trkpt>
      <trkpt lat="44.13971" lon="3.21682">
        <ele>596.1</ele>
        <time>2024-02-17T16:10:08Z</time>
      </trkpt>
      <trkpt lat="44.13982" lon="3.21682">
        <ele>597.3</ele>
        <time>2024-02-17T16:10:12Z</time>
      </trkpt>
      <trkpt lat="44.13992" lon="3.21681">
        <ele>598.9</ele>
        <time>2024-02-17T16:10:17Z</time>
      </trkpt>
      <trkpt lat="44.14002" lon="3.21682">
        <ele>599.3</ele>
        <time>2024-02-17T16:10:22Z</time>
      </trkpt>
      <trkpt lat="44.14011" lon="3.21683">
        <ele>598.7</ele>
        <time>2024-02-17T16:10:26Z</time>
      </trkpt>
      <trkpt lat="44.14021" lon="3.21682">
        <ele>599.4</ele>
        <time>2024-02-17T16:10:30Z</time>
      </trkpt>
      <trkpt lat="44.14031" lon="3.21679">
        <ele>601.6</ele>
        <time>2024-02-17T16:10:34Z</time>
      </trkpt>
      <trkpt lat="44.14042" lon="3.21679">
        <ele>601.4</ele>
        <time>2024-02-17T16:10:37Z</time>
      </trkpt>
      <trkpt lat="44.14051" lon="3.21681">
        <ele>599.8</ele>
        <time>2024-02-17T16:10:41Z</time>
      </trkpt>
      <trkpt lat="44.14062" lon="3.21681">
        <ele>599.7</ele>
        <time>2024-02-17T16:10:46Z</time>
      </trkpt>
      <trkpt lat="44.14071" lon="3.21681">
        <ele>599.7</ele>
        <time>2024-02-17T16:10:51Z</time>
      </trkpt>
      <trkpt lat="44.1408" lon="3.21681">
        <ele>599.8</ele>
        <time>2024-02-17T16:10:55Z</time>
      </trkpt>
      <trkpt lat="44.14089" lon="3.2168">
        <ele>601.7</ele>
        <time>2024-02-17T16:10:59Z</time>
      </trkpt>
      <trkpt lat="44.14099" lon="3.21679">
        <ele>604.3</ele>
        <time>2024-02-17T16:11:04Z</time>
      </trkpt>
      <trkpt lat="44.14109" lon="3.21676">
        <ele>606.6</ele>
        <time>2024-02-17T16:11:10Z</time>
      </trkpt>
      <trkpt lat="44.14115" lon="3.21665">
        <ele>607.7</ele>
        <time>2024-02-17T16:11:18Z</time>
      </trkpt>
      <trkpt lat="44.14124" lon="3.21661">
        <ele>609.2</ele>
        <time>2024-02-17T16:11:22Z</time>
      </trkpt>
      <trkpt lat="44.14133" lon="3.21661">
        <ele>609.5</ele>
        <time>2024-02-17T16:11:27Z</time>
      </trkpt>
      <trkpt lat="44.14143" lon="3.2166">
        <ele>610.1</ele>
        <time>2024-02-17T16:11:32Z</time>
      </trkpt>
      <trkpt lat="44.14154" lon="3.21659">
        <ele>611</ele>
        <time>2024-02-17T16:11:38Z</time>
      </trkpt>
      <trkpt lat="44.14162" lon="3.21655">
        <ele>612.3</ele>
        <time>2024-02-17T16:11:42Z</time>
      </trkpt>
      <trkpt lat="44.14171" lon="3.2165">
        <ele>614.8</ele>
        <time>2024-02-17T16:11:46Z</time>
      </trkpt>
      <trkpt lat="44.14182" lon="3.21648">
        <ele>617.7</ele>
        <time>2024-02-17T16:11:51Z</time>
      </trkpt>
      <trkpt lat="44.14192" lon="3.21644">
        <ele>619.1</ele>
        <time>2024-02-17T16:11:56Z</time>
      </trkpt>
      <trkpt lat="44.14201" lon="3.2164">
        <ele>619.6</ele>
        <time>2024-02-17T16:12:00Z</time>
      </trkpt>
      <trkpt lat="44.14211" lon="3.21636">
        <ele>621.2</ele>
        <time>2024-02-17T16:12:05Z</time>
      </trkpt>
      <trkpt lat="44.14219" lon="3.21628">
        <ele>622.9</ele>
        <time>2024-02-17T16:12:10Z</time>
      </trkpt>
      <trkpt lat="44.14228" lon="3.21624">
        <ele>624.1</ele>
        <time>2024-02-17T16:12:15Z</time>
      </trkpt>
      <trkpt lat="44.14237" lon="3.21625">
        <ele>624.8</ele>
        <time>2024-02-17T16:12:21Z</time>
      </trkpt>
      <trkpt lat="44.14246" lon="3.21623">
        <ele>625.8</ele>
        <time>2024-02-17T16:12:26Z</time>
      </trkpt>
      <trkpt lat="44.14255" lon="3.2162">
        <ele>626.5</ele>
        <time>2024-02-17T16:12:30Z</time>
      </trkpt>
      <trkpt lat="44.14265" lon="3.21616">
        <ele>626.7</ele>
        <time>2024-02-17T16:12:34Z</time>
      </trkpt>
      <trkpt lat="44.14274" lon="3.21611">
        <ele>626.2</ele>
        <time>2024-02-17T16:12:39Z</time>
      </trkpt>
      <trkpt lat="44.14285" lon="3.21612">
        <ele>627.2</ele>
        <time>2024-02-17T16:12:44Z</time>
      </trkpt>
      <trkpt lat="44.14295" lon="3.21611">
        <ele>628.5</ele>
        <time>2024-02-17T16:12:49Z</time>
      </trkpt>
      <trkpt lat="44.14305" lon="3.21608">
        <ele>630.3</ele>
        <time>2024-02-17T16:12:54Z</time>
      </trkpt>
      <trkpt lat="44.14314" lon="3.21607">
        <ele>632</ele>
        <time>2024-02-17T16:12:59Z</time>
      </trkpt>
      <trkpt lat="44.14324" lon="3.21611">
        <ele>632.7</ele>
        <time>2024-02-17T16:13:05Z</time>
      </trkpt>
      <trkpt lat="44.14332" lon="3.21617">
        <ele>633.7</ele>
        <time>2024-02-17T16:13:11Z</time>
      </trkpt>
      <trkpt lat="44.14341" lon="3.21624">
        <ele>635.4</ele>
        <time>2024-02-17T16:13:16Z</time>
      </trkpt>
      <trkpt lat="44.14349" lon="3.21632">
        <ele>635.9</ele>
        <time>2024-02-17T16:13:20Z</time>
      </trkpt>
      <trkpt lat="44.14356" lon="3.21641">
        <ele>635.4</ele>
        <time>2024-02-17T16:13:24Z</time>
      </trkpt>
      <trkpt lat="44.14365" lon="3.2165">
        <ele>635.5</ele>
        <time>2024-02-17T16:13:28Z</time>
      </trkpt>
      <trkpt lat="44.14374" lon="3.21659">
        <ele>635.9</ele>
        <time>2024-02-17T16:13:32Z</time>
      </trkpt>
      <trkpt lat="44.14384" lon="3.21666">
        <ele>635.5</ele>
        <time>2024-02-17T16:13:36Z</time>
      </trkpt>
      <trkpt lat="44.14395" lon="3.21673">
        <ele>637.4</ele>
        <time>2024-02-17T16:13:40Z</time>
      </trkpt>
      <trkpt lat="44.14404" lon="3.21678">
        <ele>638.4</ele>
        <time>2024-02-17T16:13:43Z</time>
      </trkpt>
      <trkpt lat="44.14413" lon="3.21682">
        <ele>638.8</ele>
        <time>2024-02-17T16:13:46Z</time>
      </trkpt>
      <trkpt lat="44.14423" lon="3.21686">
        <ele>638.2</ele>
        <time>2024-02-17T16:13:49Z</time>
      </trkpt>
      <trkpt lat="44.14433" lon="3.21689">
        <ele>637.4</ele>
        <time>2024-02-17T16:13:52Z</time>
      </trkpt>
      <trkpt lat="44.14442" lon="3.21693">
        <ele>635.7</ele>
        <time>2024-02-17T16:13:55Z</time>
      </trkpt>
      <trkpt lat="44.14453" lon="3.21696">
        <ele>636.5</ele>
        <time>2024-02-17T16:13:58Z</time>
      </trkpt>
      <trkpt lat="44.14463" lon="3.21697">
        <ele>637.7</ele>
        <time>2024-02-17T16:14:01Z</time>
      </trkpt>
      <trkpt lat="44.14473" lon="3.217">
        <ele>639.3</ele>
        <time>2024-02-17T16:14:04Z</time>
      </trkpt>
      <trkpt lat="44.14484" lon="3.21705">
        <ele>641.3</ele>
        <time>2024-02-17T16:14:07Z</time>
      </trkpt>
      <trkpt lat="44.14494" lon="3.21706">
        <ele>642.3</ele>
        <time>2024-02-17T16:14:10Z</time>
      </trkpt>
      <trkpt lat="44.14506" lon="3.21703">
        <ele>642.4</ele>
        <time>2024-02-17T16:14:13Z</time>
      </trkpt>
      <trkpt lat="44.14517" lon="3.21702">
        <ele>641.9</ele>
        <time>2024-02-17T16:14:16Z</time>
      </trkpt>
      <trkpt lat="44.14528" lon="3.21701">
        <ele>641.1</ele>
        <time>2024-02-17T16:14:19Z</time>
      </trkpt>
      <trkpt lat="44.14538" lon="3.217">
        <ele>641.6</ele>
        <time>2024-02-17T16:14:22Z</time>
      </trkpt>
      <trkpt lat="44.14549" lon="3.217">
        <ele>642.5</ele>
        <time>2024-02-17T16:14:25Z</time>
      </trkpt>
      <trkpt lat="44.14559" lon="3.21699">
        <ele>642.6</ele>
        <time>2024-02-17T16:14:28Z</time>
      </trkpt>
      <trkpt lat="44.14568" lon="3.21697">
        <ele>641.9</ele>
        <time>2024-02-17T16:14:31Z</time>
      </trkpt>
      <trkpt lat="44.14578" lon="3.21699">
        <ele>642.5</ele>
        <time>2024-02-17T16:14:34Z</time>
      </trkpt>
      <trkpt lat="44.14587" lon="3.21703">
        <ele>644</ele>
        <time>2024-02-17T16:14:37Z</time>
      </trkpt>
      <trkpt lat="44.14597" lon="3.21706">
        <ele>645.4</ele>
        <time>2024-02-17T16:14:40Z</time>
      </trkpt>
      <trkpt lat="44.14609" lon="3.21702">
        <ele>645.2</ele>
        <time>2024-02-17T16:14:44Z</time>
      </trkpt>
      <trkpt lat="44.14619" lon="3.21697">
        <ele>644.8</ele>
        <time>2024-02-17T16:14:47Z</time>
      </trkpt>
      <trkpt lat="44.14629" lon="3.21691">
        <ele>645</ele>
        <time>2024-02-17T16:14:50Z</time>
      </trkpt>
      <trkpt lat="44.14638" lon="3.21685">
        <ele>645</ele>
        <time>2024-02-17T16:14:53Z</time>
      </trkpt>
      <trkpt lat="44.14646" lon="3.21679">
        <ele>646.8</ele>
        <time>2024-02-17T16:14:56Z</time>
      </trkpt>
      <trkpt lat="44.14657" lon="3.21671">
        <ele>648.3</ele>
        <time>2024-02-17T16:15:00Z</time>
      </trkpt>
      <trkpt lat="44.14665" lon="3.21664">
        <ele>648.5</ele>
        <time>2024-02-17T16:15:03Z</time>
      </trkpt>
      <trkpt lat="44.14674" lon="3.21656">
        <ele>649</ele>
        <time>2024-02-17T16:15:06Z</time>
      </trkpt>
      <trkpt lat="44.14682" lon="3.2165">
        <ele>648.6</ele>
        <time>2024-02-17T16:15:09Z</time>
      </trkpt>
      <trkpt lat="44.14691" lon="3.21643">
        <ele>646.7</ele>
        <time>2024-02-17T16:15:12Z</time>
      </trkpt>
      <trkpt lat="44.147" lon="3.21638">
        <ele>645.4</ele>
        <time>2024-02-17T16:15:15Z</time>
      </trkpt>
      <trkpt lat="44.1471" lon="3.21635">
        <ele>646.7</ele>
        <time>2024-02-17T16:15:19Z</time>
      </trkpt>
      <trkpt lat="44.1472" lon="3.21636">
        <ele>646.9</ele>
        <time>2024-02-17T16:15:23Z</time>
      </trkpt>
      <trkpt lat="44.14731" lon="3.21638">
        <ele>647.3</ele>
        <time>2024-02-17T16:15:27Z</time>
      </trkpt>
      <trkpt lat="44.14743" lon="3.21638">
        <ele>648.5</ele>
        <time>2024-02-17T16:15:31Z</time>
      </trkpt>
      <trkpt lat="44.14753" lon="3.21639">
        <ele>649.2</ele>
        <time>2024-02-17T16:15:34Z</time>
      </trkpt>
      <trkpt lat="44.14763" lon="3.2164">
        <ele>650.1</ele>
        <time>2024-02-17T16:15:37Z</time>
      </trkpt>
      <trkpt lat="44.14773" lon="3.21639">
        <ele>650.7</ele>
        <time>2024-02-17T16:15:40Z</time>
      </trkpt>
      <trkpt lat="44.14783" lon="3.2164">
        <ele>651.5</ele>
        <time>2024-02-17T16:15:43Z</time>
      </trkpt>
      <trkpt lat="44.14792" lon="3.21641">
        <ele>652.1</ele>
        <time>2024-02-17T16:15:46Z</time>
      </trkpt>
      <trkpt lat="44.14804" lon="3.21645">
        <ele>652.7</ele>
        <time>2024-02-17T16:15:50Z</time>
      </trkpt>
      <trkpt lat="44.14815" lon="3.21648">
        <ele>652.9</ele>
        <time>2024-02-17T16:15:54Z</time>
      </trkpt>
      <trkpt lat="44.14826" lon="3.21649">
        <ele>653</ele>
        <time>2024-02-17T16:15:57Z</time>
      </trkpt>
      <trkpt lat="44.14836" lon="3.21649">
        <ele>653.2</ele>
        <time>2024-02-17T16:16:00Z</time>
      </trkpt>
      <trkpt lat="44.14847" lon="3.21647">
        <ele>653.2</ele>
        <time>2024-02-17T16:16:03Z</time>
      </trkpt>
      <trkpt lat="44.14858" lon="3.21644">
        <ele>652.7</ele>
        <time>2024-02-17T16:16:06Z</time>
      </trkpt>
      <trkpt lat="44.14868" lon="3.2164">
        <ele>652.9</ele>
        <time>2024-02-17T16:16:09Z</time>
      </trkpt>
      <trkpt lat="44.14879" lon="3.21637">
        <ele>654.4</ele>
        <time>2024-02-17T16:16:12Z</time>
      </trkpt>
      <trkpt lat="44.14889" lon="3.21635">
        <ele>655.3</ele>
        <time>2024-02-17T16:16:15Z</time>
      </trkpt>
      <trkpt lat="44.14901" lon="3.2163">
        <ele>657.3</ele>
        <time>2024-02-17T16:16:18Z</time>
      </trkpt>
      <trkpt lat="44.14911" lon="3.21625">
        <ele>658.4</ele>
        <time>2024-02-17T16:16:21Z</time>
      </trkpt>
      <trkpt lat="44.14922" lon="3.21621">
        <ele>658.9</ele>
        <time>2024-02-17T16:16:24Z</time>
      </trkpt>
      <trkpt lat="44.14933" lon="3.21617">
        <ele>659</ele>
        <time>2024-02-17T16:16:27Z</time>
      </trkpt>
      <trkpt lat="44.14943" lon="3.21612">
        <ele>659</ele>
        <time>2024-02-17T16:16:30Z</time>
      </trkpt>
      <trkpt lat="44.14953" lon="3.21612">
        <ele>659</ele>
        <time>2024-02-17T16:16:33Z</time>
      </trkpt>
      <trkpt lat="44.14962" lon="3.21613">
        <ele>659.1</ele>
        <time>2024-02-17T16:16:36Z</time>
      </trkpt>
      <trkpt lat="44.14971" lon="3.21613">
        <ele>659</ele>
        <time>2024-02-17T16:16:39Z</time>
      </trkpt>
      <trkpt lat="44.1498" lon="3.21613">
        <ele>660.4</ele>
        <time>2024-02-17T16:16:42Z</time>
      </trkpt>
      <trkpt lat="44.1499" lon="3.21615">
        <ele>662</ele>
        <time>2024-02-17T16:16:46Z</time>
      </trkpt>
      <trkpt lat="44.14998" lon="3.21621">
        <ele>663</ele>
        <time>2024-02-17T16:16:51Z</time>
      </trkpt>
      <trkpt lat="44.15004" lon="3.21631">
        <ele>664.2</ele>
        <time>2024-02-17T16:16:55Z</time>
      </trkpt>
      <trkpt lat="44.1501" lon="3.21643">
        <ele>665.5</ele>
        <time>2024-02-17T16:16:59Z</time>
      </trkpt>
      <trkpt lat="44.15016" lon="3.21655">
        <ele>666.1</ele>
        <time>2024-02-17T16:17:03Z</time>
      </trkpt>
      <trkpt lat="44.15022" lon="3.21666">
        <ele>665.9</ele>
        <time>2024-02-17T16:17:07Z</time>
      </trkpt>
      <trkpt lat="44.1503" lon="3.21677">
        <ele>666.1</ele>
        <time>2024-02-17T16:17:11Z</time>
      </trkpt>
      <trkpt lat="44.15038" lon="3.21684">
        <ele>667.1</ele>
        <time>2024-02-17T16:17:15Z</time>
      </trkpt>
      <trkpt lat="44.15049" lon="3.21693">
        <ele>667.9</ele>
        <time>2024-02-17T16:17:19Z</time>
      </trkpt>
      <trkpt lat="44.15059" lon="3.217">
        <ele>669.3</ele>
        <time>2024-02-17T16:17:23Z</time>
      </trkpt>
      <trkpt lat="44.15067" lon="3.21705">
        <ele>670.4</ele>
        <time>2024-02-17T16:17:27Z</time>
      </trkpt>
      <trkpt lat="44.15076" lon="3.21708">
        <ele>671.7</ele>
        <time>2024-02-17T16:17:31Z</time>
      </trkpt>
      <trkpt lat="44.15086" lon="3.2171">
        <ele>672.9</ele>
        <time>2024-02-17T16:17:35Z</time>
      </trkpt>
      <trkpt lat="44.15096" lon="3.21711">
        <ele>673.3</ele>
        <time>2024-02-17T16:17:39Z</time>
      </trkpt>
      <trkpt lat="44.15105" lon="3.21712">
        <ele>673.5</ele>
        <time>2024-02-17T16:17:43Z</time>
      </trkpt>
      <trkpt lat="44.15114" lon="3.21711">
        <ele>674.1</ele>
        <time>2024-02-17T16:17:47Z</time>
      </trkpt>
      <trkpt lat="44.15126" lon="3.21711">
        <ele>674.5</ele>
        <time>2024-02-17T16:17:51Z</time>
      </trkpt>
      <trkpt lat="44.15136" lon="3.2171">
        <ele>675</ele>
        <time>2024-02-17T16:17:55Z</time>
      </trkpt>
      <trkpt lat="44.15146" lon="3.21709">
        <ele>676.4</ele>
        <time>2024-02-17T16:18:00Z</time>
      </trkpt>
      <trkpt lat="44.15156" lon="3.21712">
        <ele>677</ele>
        <time>2024-02-17T16:18:05Z</time>
      </trkpt>
      <trkpt lat="44.15165" lon="3.21716">
        <ele>677.3</ele>
        <time>2024-02-17T16:18:09Z</time>
      </trkpt>
      <trkpt lat="44.15172" lon="3.21724">
        <ele>677.7</ele>
        <time>2024-02-17T16:18:13Z</time>
      </trkpt>
      <trkpt lat="44.15179" lon="3.21734">
        <ele>678.4</ele>
        <time>2024-02-17T16:18:18Z</time>
      </trkpt>
      <trkpt lat="44.15184" lon="3.21745">
        <ele>677.7</ele>
        <time>2024-02-17T16:18:23Z</time>
      </trkpt>
      <trkpt lat="44.15188" lon="3.21757">
        <ele>676.6</ele>
        <time>2024-02-17T16:18:28Z</time>
      </trkpt>
      <trkpt lat="44.15192" lon="3.21771">
        <ele>675</ele>
        <time>2024-02-17T16:18:33Z</time>
      </trkpt>
      <trkpt lat="44.15197" lon="3.21784">
        <ele>673.7</ele>
        <time>2024-02-17T16:18:38Z</time>
      </trkpt>
      <trkpt lat="44.15205" lon="3.21792">
        <ele>673.7</ele>
        <time>2024-02-17T16:18:42Z</time>
      </trkpt>
      <trkpt lat="44.15216" lon="3.21796">
        <ele>674.2</ele>
        <time>2024-02-17T16:18:46Z</time>
      </trkpt>
      <trkpt lat="44.15225" lon="3.21794">
        <ele>675</ele>
        <time>2024-02-17T16:18:50Z</time>
      </trkpt>
      <trkpt lat="44.15236" lon="3.21795">
        <ele>675.7</ele>
        <time>2024-02-17T16:18:55Z</time>
      </trkpt>
      <trkpt lat="44.15246" lon="3.21791">
        <ele>676.3</ele>
        <time>2024-02-17T16:19:00Z</time>
      </trkpt>
      <trkpt lat="44.15255" lon="3.21786">
        <ele>676.7</ele>
        <time>2024-02-17T16:19:04Z</time>
      </trkpt>
      <trkpt lat="44.15265" lon="3.21781">
        <ele>676.9</ele>
        <time>2024-02-17T16:19:09Z</time>
      </trkpt>
      <trkpt lat="44.15273" lon="3.21775">
        <ele>677.2</ele>
        <time>2024-02-17T16:19:13Z</time>
      </trkpt>
      <trkpt lat="44.15281" lon="3.21767">
        <ele>678.5</ele>
        <time>2024-02-17T16:19:17Z</time>
      </trkpt>
      <trkpt lat="44.15288" lon="3.2176">
        <ele>679.2</ele>
        <time>2024-02-17T16:19:21Z</time>
      </trkpt>
      <trkpt lat="44.15296" lon="3.21753">
        <ele>678.9</ele>
        <time>2024-02-17T16:19:24Z</time>
      </trkpt>
      <trkpt lat="44.15304" lon="3.21744">
        <ele>678.4</ele>
        <time>2024-02-17T16:19:28Z</time>
      </trkpt>
      <trkpt lat="44.15311" lon="3.21735">
        <ele>678.9</ele>
        <time>2024-02-17T16:19:32Z</time>
      </trkpt>
      <trkpt lat="44.15319" lon="3.21726">
        <ele>679.5</ele>
        <time>2024-02-17T16:19:36Z</time>
      </trkpt>
      <trkpt lat="44.15327" lon="3.21719">
        <ele>680.5</ele>
        <time>2024-02-17T16:19:40Z</time>
      </trkpt>
      <trkpt lat="44.15335" lon="3.21711">
        <ele>682.8</ele>
        <time>2024-02-17T16:19:44Z</time>
      </trkpt>
      <trkpt lat="44.15345" lon="3.21706">
        <ele>686.3</ele>
        <time>2024-02-17T16:19:49Z</time>
      </trkpt>
      <trkpt lat="44.15354" lon="3.21704">
        <ele>688.9</ele>
        <time>2024-02-17T16:19:54Z</time>
      </trkpt>
      <trkpt lat="44.15364" lon="3.21703">
        <ele>691.4</ele>
        <time>2024-02-17T16:19:59Z</time>
      </trkpt>
      <trkpt lat="44.15374" lon="3.21706">
        <ele>692.6</ele>
        <time>2024-02-17T16:20:04Z</time>
      </trkpt>
      <trkpt lat="44.15384" lon="3.21712">
        <ele>693.2</ele>
        <time>2024-02-17T16:20:10Z</time>
      </trkpt>
      <trkpt lat="44.15393" lon="3.21715">
        <ele>693.9</ele>
        <time>2024-02-17T16:20:14Z</time>
      </trkpt>
      <trkpt lat="44.15404" lon="3.21716">
        <ele>694.4</ele>
        <time>2024-02-17T16:20:19Z</time>
      </trkpt>
      <trkpt lat="44.15415" lon="3.21714">
        <ele>695.7</ele>
        <time>2024-02-17T16:20:24Z</time>
      </trkpt>
      <trkpt lat="44.15426" lon="3.21715">
        <ele>695.9</ele>
        <time>2024-02-17T16:20:28Z</time>
      </trkpt>
      <trkpt lat="44.15435" lon="3.21713">
        <ele>696.7</ele>
        <time>2024-02-17T16:20:32Z</time>
      </trkpt>
      <trkpt lat="44.15445" lon="3.21712">
        <ele>697.3</ele>
        <time>2024-02-17T16:20:40Z</time>
      </trkpt>
      <trkpt lat="44.15454" lon="3.2171">
        <ele>698.5</ele>
        <time>2024-02-17T16:22:56Z</time>
      </trkpt>
      <trkpt lat="44.15464" lon="3.21708">
        <ele>699.8</ele>
        <time>2024-02-17T16:23:00Z</time>
      </trkpt>
      <trkpt lat="44.15473" lon="3.21709">
        <ele>700.5</ele>
        <time>2024-02-17T16:23:05Z</time>
      </trkpt>
      <trkpt lat="44.15483" lon="3.21715">
        <ele>700.9</ele>
        <time>2024-02-17T16:23:10Z</time>
      </trkpt>
      <trkpt lat="44.15492" lon="3.21722">
        <ele>700.6</ele>
        <time>2024-02-17T16:23:15Z</time>
      </trkpt>
      <trkpt lat="44.155" lon="3.21729">
        <ele>700.5</ele>
        <time>2024-02-17T16:23:19Z</time>
      </trkpt>
      <trkpt lat="44.15509" lon="3.21737">
        <ele>700.7</ele>
        <time>2024-02-17T16:23:23Z</time>
      </trkpt>
      <trkpt lat="44.15518" lon="3.21745">
        <ele>700.6</ele>
        <time>2024-02-17T16:23:27Z</time>
      </trkpt>
      <trkpt lat="44.15527" lon="3.21751">
        <ele>700.6</ele>
        <time>2024-02-17T16:23:31Z</time>
      </trkpt>
      <trkpt lat="44.15537" lon="3.21756">
        <ele>701</ele>
        <time>2024-02-17T16:23:35Z</time>
      </trkpt>
      <trkpt lat="44.15547" lon="3.21759">
        <ele>701.6</ele>
        <time>2024-02-17T16:23:39Z</time>
      </trkpt>
      <trkpt lat="44.15557" lon="3.21761">
        <ele>702.4</ele>
        <time>2024-02-17T16:23:43Z</time>
      </trkpt>
      <trkpt lat="44.15568" lon="3.21761">
        <ele>703.5</ele>
        <time>2024-02-17T16:23:47Z</time>
      </trkpt>
      <trkpt lat="44.15579" lon="3.21761">
        <ele>704.6</ele>
        <time>2024-02-17T16:23:51Z</time>
      </trkpt>
      <trkpt lat="44.1559" lon="3.21763">
        <ele>704.4</ele>
        <time>2024-02-17T16:23:55Z</time>
      </trkpt>
      <trkpt lat="44.156" lon="3.21765">
        <ele>703.9</ele>
        <time>2024-02-17T16:23:59Z</time>
      </trkpt>
      <trkpt lat="44.15609" lon="3.21766">
        <ele>703.8</ele>
        <time>2024-02-17T16:24:02Z</time>
      </trkpt>
      <trkpt lat="44.15621" lon="3.21767">
        <ele>703.1</ele>
        <time>2024-02-17T16:24:06Z</time>
      </trkpt>
      <trkpt lat="44.15632" lon="3.21766">
        <ele>703.1</ele>
        <time>2024-02-17T16:24:10Z</time>
      </trkpt>
      <trkpt lat="44.15643" lon="3.21761">
        <ele>704.1</ele>
        <time>2024-02-17T16:24:14Z</time>
      </trkpt>
      <trkpt lat="44.15653" lon="3.21756">
        <ele>704.8</ele>
        <time>2024-02-17T16:24:18Z</time>
      </trkpt>
      <trkpt lat="44.15663" lon="3.21751">
        <ele>705.1</ele>
        <time>2024-02-17T16:24:22Z</time>
      </trkpt>
      <trkpt lat="44.15672" lon="3.21748">
        <ele>705.4</ele>
        <time>2024-02-17T16:24:26Z</time>
      </trkpt>
      <trkpt lat="44.15682" lon="3.21747">
        <ele>704.8</ele>
        <time>2024-02-17T16:24:30Z</time>
      </trkpt>
      <trkpt lat="44.15692" lon="3.21747">
        <ele>704</ele>
        <time>2024-02-17T16:24:34Z</time>
      </trkpt>
      <trkpt lat="44.15701" lon="3.21746">
        <ele>704.9</ele>
        <time>2024-02-17T16:24:38Z</time>
      </trkpt>
      <trkpt lat="44.15711" lon="3.21743">
        <ele>706.7</ele>
        <time>2024-02-17T16:24:42Z</time>
      </trkpt>
      <trkpt lat="44.1572" lon="3.21736">
        <ele>708.8</ele>
        <time>2024-02-17T16:24:46Z</time>
      </trkpt>
      <trkpt lat="44.15726" lon="3.21724">
        <ele>711.8</ele>
        <time>2024-02-17T16:24:50Z</time>
      </trkpt>
      <trkpt lat="44.15725" lon="3.2171">
        <ele>713.1</ele>
        <time>2024-02-17T16:24:54Z</time>
      </trkpt>
      <trkpt lat="44.15723" lon="3.21697">
        <ele>713.9</ele>
        <time>2024-02-17T16:24:58Z</time>
      </trkpt>
      <trkpt lat="44.15722" lon="3.21683">
        <ele>714.8</ele>
        <time>2024-02-17T16:25:02Z</time>
      </trkpt>
      <trkpt lat="44.15721" lon="3.21668">
        <ele>716.1</ele>
        <time>2024-02-17T16:25:06Z</time>
      </trkpt>
      <trkpt lat="44.1572" lon="3.21654">
        <ele>717.2</ele>
        <time>2024-02-17T16:25:10Z</time>
      </trkpt>
      <trkpt lat="44.15721" lon="3.21639">
        <ele>718.2</ele>
        <time>2024-02-17T16:25:14Z</time>
      </trkpt>
      <trkpt lat="44.15724" lon="3.21624">
        <ele>719</ele>
        <time>2024-02-17T16:25:18Z</time>
      </trkpt>
      <trkpt lat="44.15727" lon="3.21611">
        <ele>720.2</ele>
        <time>2024-02-17T16:25:22Z</time>
      </trkpt>
      <trkpt lat="44.15732" lon="3.21598">
        <ele>721.3</ele>
        <time>2024-02-17T16:25:26Z</time>
      </trkpt>
      <trkpt lat="44.15736" lon="3.21585">
        <ele>722</ele>
        <time>2024-02-17T16:25:30Z</time>
      </trkpt>
      <trkpt lat="44.15742" lon="3.21572">
        <ele>722.9</ele>
        <time>2024-02-17T16:25:34Z</time>
      </trkpt>
      <trkpt lat="44.15747" lon="3.21559">
        <ele>723</ele>
        <time>2024-02-17T16:25:38Z</time>
      </trkpt>
      <trkpt lat="44.15751" lon="3.21546">
        <ele>723</ele>
        <time>2024-02-17T16:25:42Z</time>
      </trkpt>
      <trkpt lat="44.15756" lon="3.21533">
        <ele>723.8</ele>
        <time>2024-02-17T16:25:46Z</time>
      </trkpt>
      <trkpt lat="44.15762" lon="3.2152">
        <ele>724.9</ele>
        <time>2024-02-17T16:25:50Z</time>
      </trkpt>
      <trkpt lat="44.15769" lon="3.2151">
        <ele>726.1</ele>
        <time>2024-02-17T16:25:54Z</time>
      </trkpt>
      <trkpt lat="44.15778" lon="3.21501">
        <ele>727.1</ele>
        <time>2024-02-17T16:25:58Z</time>
      </trkpt>
      <trkpt lat="44.15786" lon="3.21491">
        <ele>729.4</ele>
        <time>2024-02-17T16:26:02Z</time>
      </trkpt>
      <trkpt lat="44.1579" lon="3.21479">
        <ele>730.3</ele>
        <time>2024-02-17T16:26:05Z</time>
      </trkpt>
      <trkpt lat="44.15794" lon="3.21465">
        <ele>731.1</ele>
        <time>2024-02-17T16:26:09Z</time>
      </trkpt>
      <trkpt lat="44.15797" lon="3.21451">
        <ele>731.9</ele>
        <time>2024-02-17T16:26:13Z</time>
      </trkpt>
      <trkpt lat="44.158" lon="3.21436">
        <ele>732.8</ele>
        <time>2024-02-17T16:26:17Z</time>
      </trkpt>
      <trkpt lat="44.15803" lon="3.21421">
        <ele>733.6</ele>
        <time>2024-02-17T16:26:21Z</time>
      </trkpt>
      <trkpt lat="44.15806" lon="3.21407">
        <ele>734.4</ele>
        <time>2024-02-17T16:26:25Z</time>
      </trkpt>
      <trkpt lat="44.1581" lon="3.21392">
        <ele>735.4</ele>
        <time>2024-02-17T16:26:29Z</time>
      </trkpt>
      <trkpt lat="44.15812" lon="3.21379">
        <ele>736</ele>
        <time>2024-02-17T16:26:32Z</time>
      </trkpt>
      <trkpt lat="44.15812" lon="3.21364">
        <ele>736.4</ele>
        <time>2024-02-17T16:26:35Z</time>
      </trkpt>
      <trkpt lat="44.15813" lon="3.21348">
        <ele>736.5</ele>
        <time>2024-02-17T16:26:39Z</time>
      </trkpt>
      <trkpt lat="44.15814" lon="3.21335">
        <ele>736.6</ele>
        <time>2024-02-17T16:26:42Z</time>
      </trkpt>
      <trkpt lat="44.15817" lon="3.21324">
        <ele>736.7</ele>
        <time>2024-02-17T16:26:45Z</time>
      </trkpt>
      <trkpt lat="44.15824" lon="3.2131">
        <ele>736.8</ele>
        <time>2024-02-17T16:26:49Z</time>
      </trkpt>
      <trkpt lat="44.15832" lon="3.21297">
        <ele>737</ele>
        <time>2024-02-17T16:26:53Z</time>
      </trkpt>
      <trkpt lat="44.15839" lon="3.21291">
        <ele>737.3</ele>
        <time>2024-02-17T16:26:56Z</time>
      </trkpt>
      <trkpt lat="44.15849" lon="3.21282">
        <ele>737.6</ele>
        <time>2024-02-17T16:27:00Z</time>
      </trkpt>
      <trkpt lat="44.1586" lon="3.21276">
        <ele>737.9</ele>
        <time>2024-02-17T16:27:04Z</time>
      </trkpt>
      <trkpt lat="44.15869" lon="3.21268">
        <ele>737.9</ele>
        <time>2024-02-17T16:27:08Z</time>
      </trkpt>
      <trkpt lat="44.1588" lon="3.21261">
        <ele>738.1</ele>
        <time>2024-02-17T16:27:12Z</time>
      </trkpt>
      <trkpt lat="44.15891" lon="3.21256">
        <ele>738.2</ele>
        <time>2024-02-17T16:27:16Z</time>
      </trkpt>
      <trkpt lat="44.15902" lon="3.21253">
        <ele>738.2</ele>
        <time>2024-02-17T16:27:20Z</time>
      </trkpt>
      <trkpt lat="44.15913" lon="3.21249">
        <ele>738</ele>
        <time>2024-02-17T16:27:24Z</time>
      </trkpt>
      <trkpt lat="44.15923" lon="3.21245">
        <ele>738.4</ele>
        <time>2024-02-17T16:27:28Z</time>
      </trkpt>
      <trkpt lat="44.15934" lon="3.21243">
        <ele>738.9</ele>
        <time>2024-02-17T16:27:32Z</time>
      </trkpt>
      <trkpt lat="44.15944" lon="3.21241">
        <ele>739.3</ele>
        <time>2024-02-17T16:27:36Z</time>
      </trkpt>
      <trkpt lat="44.15953" lon="3.21241">
        <ele>739.5</ele>
        <time>2024-02-17T16:27:39Z</time>
      </trkpt>
      <trkpt lat="44.15964" lon="3.21241">
        <ele>739.6</ele>
        <time>2024-02-17T16:27:43Z</time>
      </trkpt>
      <trkpt lat="44.15974" lon="3.21243">
        <ele>739.8</ele>
        <time>2024-02-17T16:27:47Z</time>
      </trkpt>
      <trkpt lat="44.15985" lon="3.21245">
        <ele>740.2</ele>
        <time>2024-02-17T16:27:51Z</time>
      </trkpt>
      <trkpt lat="44.15995" lon="3.21248">
        <ele>740.7</ele>
        <time>2024-02-17T16:27:55Z</time>
      </trkpt>
      <trkpt lat="44.16005" lon="3.21251">
        <ele>741.5</ele>
        <time>2024-02-17T16:27:59Z</time>
      </trkpt>
      <trkpt lat="44.16016" lon="3.21254">
        <ele>742.6</ele>
        <time>2024-02-17T16:28:03Z</time>
      </trkpt>
      <trkpt lat="44.16027" lon="3.21251">
        <ele>743.1</ele>
        <time>2024-02-17T16:28:07Z</time>
      </trkpt>
      <trkpt lat="44.16034" lon="3.21242">
        <ele>742.6</ele>
        <time>2024-02-17T16:28:10Z</time>
      </trkpt>
      <trkpt lat="44.16041" lon="3.21228">
        <ele>741.6</ele>
        <time>2024-02-17T16:28:13Z</time>
      </trkpt>
      <trkpt lat="44.16042" lon="3.21211">
        <ele>740.8</ele>
        <time>2024-02-17T16:28:16Z</time>
      </trkpt>
      <trkpt lat="44.16038" lon="3.21197">
        <ele>740.4</ele>
        <time>2024-02-17T16:28:19Z</time>
      </trkpt>
      <trkpt lat="44.16031" lon="3.21184">
        <ele>740.1</ele>
        <time>2024-02-17T16:28:22Z</time>
      </trkpt>
      <trkpt lat="44.16028" lon="3.21167">
        <ele>740</ele>
        <time>2024-02-17T16:28:25Z</time>
      </trkpt>
      <trkpt lat="44.16027" lon="3.21155">
        <ele>740</ele>
        <time>2024-02-17T16:28:27Z</time>
      </trkpt>
      <trkpt lat="44.16027" lon="3.21141">
        <ele>740</ele>
        <time>2024-02-17T16:28:29Z</time>
      </trkpt>
      <trkpt lat="44.16029" lon="3.21125">
        <ele>739.5</ele>
        <time>2024-02-17T16:28:31Z</time>
      </trkpt>
      <trkpt lat="44.16033" lon="3.21109">
        <ele>739.2</ele>
        <time>2024-02-17T16:28:33Z</time>
      </trkpt>
      <trkpt lat="44.1604" lon="3.21095">
        <ele>739.2</ele>
        <time>2024-02-17T16:28:35Z</time>
      </trkpt>
      <trkpt lat="44.16048" lon="3.21079">
        <ele>738.8</ele>
        <time>2024-02-17T16:28:37Z</time>
      </trkpt>
      <trkpt lat="44.16053" lon="3.21062">
        <ele>738.2</ele>
        <time>2024-02-17T16:28:39Z</time>
      </trkpt>
      <trkpt lat="44.16052" lon="3.21041">
        <ele>737.9</ele>
        <time>2024-02-17T16:28:41Z</time>
      </trkpt>
      <trkpt lat="44.1605" lon="3.21023">
        <ele>738</ele>
        <time>2024-02-17T16:28:43Z</time>
      </trkpt>
      <trkpt lat="44.16045" lon="3.21007">
        <ele>738.7</ele>
        <time>2024-02-17T16:28:45Z</time>
      </trkpt>
      <trkpt lat="44.16039" lon="3.20995">
        <ele>739.5</ele>
        <time>2024-02-17T16:28:47Z</time>
      </trkpt>
      <trkpt lat="44.16032" lon="3.20985">
        <ele>740.6</ele>
        <time>2024-02-17T16:28:49Z</time>
      </trkpt>
      <trkpt lat="44.16024" lon="3.20978">
        <ele>741.5</ele>
        <time>2024-02-17T16:28:52Z</time>
      </trkpt>
      <trkpt lat="44.16014" lon="3.20976">
        <ele>742.1</ele>
        <time>2024-02-17T16:28:55Z</time>
      </trkpt>
      <trkpt lat="44.16003" lon="3.20979">
        <ele>742.2</ele>
        <time>2024-02-17T16:28:58Z</time>
      </trkpt>
      <trkpt lat="44.15993" lon="3.20983">
        <ele>741.9</ele>
        <time>2024-02-17T16:29:01Z</time>
      </trkpt>
      <trkpt lat="44.15981" lon="3.20986">
        <ele>741.9</ele>
        <time>2024-02-17T16:29:04Z</time>
      </trkpt>
      <trkpt lat="44.15972" lon="3.20984">
        <ele>742.1</ele>
        <time>2024-02-17T16:29:06Z</time>
      </trkpt>
      <trkpt lat="44.15962" lon="3.20976">
        <ele>742.4</ele>
        <time>2024-02-17T16:29:08Z</time>
      </trkpt>
      <trkpt lat="44.15951" lon="3.20968">
        <ele>742.7</ele>
        <time>2024-02-17T16:29:10Z</time>
      </trkpt>
      <trkpt lat="44.1594" lon="3.20961">
        <ele>743</ele>
        <time>2024-02-17T16:29:12Z</time>
      </trkpt>
      <trkpt lat="44.15928" lon="3.20956">
        <ele>742.8</ele>
        <time>2024-02-17T16:29:14Z</time>
      </trkpt>
      <trkpt lat="44.15916" lon="3.20951">
        <ele>742.5</ele>
        <time>2024-02-17T16:29:16Z</time>
      </trkpt>
      <trkpt lat="44.15903" lon="3.20947">
        <ele>741.4</ele>
        <time>2024-02-17T16:29:18Z</time>
      </trkpt>
      <trkpt lat="44.1589" lon="3.20942">
        <ele>740.4</ele>
        <time>2024-02-17T16:29:20Z</time>
      </trkpt>
      <trkpt lat="44.15877" lon="3.20937">
        <ele>740.1</ele>
        <time>2024-02-17T16:29:22Z</time>
      </trkpt>
      <trkpt lat="44.15866" lon="3.20927">
        <ele>740</ele>
        <time>2024-02-17T16:29:24Z</time>
      </trkpt>
      <trkpt lat="44.15857" lon="3.20914">
        <ele>740</ele>
        <time>2024-02-17T16:29:26Z</time>
      </trkpt>
      <trkpt lat="44.15849" lon="3.20901">
        <ele>740.4</ele>
        <time>2024-02-17T16:29:28Z</time>
      </trkpt>
      <trkpt lat="44.15842" lon="3.20888">
        <ele>740.7</ele>
        <time>2024-02-17T16:29:30Z</time>
      </trkpt>
      <trkpt lat="44.15835" lon="3.20878">
        <ele>740.9</ele>
        <time>2024-02-17T16:29:32Z</time>
      </trkpt>
      <trkpt lat="44.15827" lon="3.20871">
        <ele>741.1</ele>
        <time>2024-02-17T16:29:34Z</time>
      </trkpt>
      <trkpt lat="44.15818" lon="3.20866">
        <ele>741.2</ele>
        <time>2024-02-17T16:29:36Z</time>
      </trkpt>
      <trkpt lat="44.15807" lon="3.20861">
        <ele>741.1</ele>
        <time>2024-02-17T16:29:39Z</time>
      </trkpt>
      <trkpt lat="44.15797" lon="3.20857">
        <ele>741.9</ele>
        <time>2024-02-17T16:29:42Z</time>
      </trkpt>
      <trkpt lat="44.15784" lon="3.20853">
        <ele>742.9</ele>
        <time>2024-02-17T16:29:45Z</time>
      </trkpt>
      <trkpt lat="44.15775" lon="3.20851">
        <ele>743.5</ele>
        <time>2024-02-17T16:29:47Z</time>
      </trkpt>
      <trkpt lat="44.15766" lon="3.2085">
        <ele>744.1</ele>
        <time>2024-02-17T16:29:49Z</time>
      </trkpt>
      <trkpt lat="44.15753" lon="3.20847">
        <ele>744.8</ele>
        <time>2024-02-17T16:29:52Z</time>
      </trkpt>
      <trkpt lat="44.15742" lon="3.20843">
        <ele>745.8</ele>
        <time>2024-02-17T16:29:55Z</time>
      </trkpt>
      <trkpt lat="44.15732" lon="3.20839">
        <ele>746.8</ele>
        <time>2024-02-17T16:29:58Z</time>
      </trkpt>
      <trkpt lat="44.15724" lon="3.20836">
        <ele>747.7</ele>
        <time>2024-02-17T16:30:01Z</time>
      </trkpt>
      <trkpt lat="44.15714" lon="3.20833">
        <ele>748.3</ele>
        <time>2024-02-17T16:30:04Z</time>
      </trkpt>
      <trkpt lat="44.15703" lon="3.20833">
        <ele>748.7</ele>
        <time>2024-02-17T16:30:08Z</time>
      </trkpt>
      <trkpt lat="44.15694" lon="3.20834">
        <ele>749</ele>
        <time>2024-02-17T16:30:11Z</time>
      </trkpt>
      <trkpt lat="44.15682" lon="3.20835">
        <ele>749.9</ele>
        <time>2024-02-17T16:30:14Z</time>
      </trkpt>
      <trkpt lat="44.15672" lon="3.20835">
        <ele>750.6</ele>
        <time>2024-02-17T16:30:16Z</time>
      </trkpt>
      <trkpt lat="44.15662" lon="3.20836">
        <ele>750.9</ele>
        <time>2024-02-17T16:30:18Z</time>
      </trkpt>
      <trkpt lat="44.15648" lon="3.20839">
        <ele>750.8</ele>
        <time>2024-02-17T16:30:21Z</time>
      </trkpt>
      <trkpt lat="44.15636" lon="3.20843">
        <ele>750.7</ele>
        <time>2024-02-17T16:30:24Z</time>
      </trkpt>
      <trkpt lat="44.15623" lon="3.20848">
        <ele>750.8</ele>
        <time>2024-02-17T16:30:27Z</time>
      </trkpt>
      <trkpt lat="44.15611" lon="3.20851">
        <ele>751</ele>
        <time>2024-02-17T16:30:30Z</time>
      </trkpt>
      <trkpt lat="44.156" lon="3.2085">
        <ele>751.2</ele>
        <time>2024-02-17T16:30:33Z</time>
      </trkpt>
      <trkpt lat="44.15591" lon="3.20842">
        <ele>751.5</ele>
        <time>2024-02-17T16:30:36Z</time>
      </trkpt>
      <trkpt lat="44.15585" lon="3.20832">
        <ele>752</ele>
        <time>2024-02-17T16:30:39Z</time>
      </trkpt>
      <trkpt lat="44.15579" lon="3.20823">
        <ele>752.8</ele>
        <time>2024-02-17T16:30:42Z</time>
      </trkpt>
      <trkpt lat="44.15573" lon="3.20812">
        <ele>753.6</ele>
        <time>2024-02-17T16:30:45Z</time>
      </trkpt>
      <trkpt lat="44.15567" lon="3.20799">
        <ele>754.3</ele>
        <time>2024-02-17T16:30:48Z</time>
      </trkpt>
      <trkpt lat="44.15563" lon="3.20784">
        <ele>755</ele>
        <time>2024-02-17T16:30:51Z</time>
      </trkpt>
      <trkpt lat="44.1556" lon="3.20768">
        <ele>754.9</ele>
        <time>2024-02-17T16:30:54Z</time>
      </trkpt>
      <trkpt lat="44.15558" lon="3.20749">
        <ele>754.2</ele>
        <time>2024-02-17T16:30:57Z</time>
      </trkpt>
      <trkpt lat="44.15557" lon="3.20735">
        <ele>753.6</ele>
        <time>2024-02-17T16:30:59Z</time>
      </trkpt>
      <trkpt lat="44.15557" lon="3.20719">
        <ele>753</ele>
        <time>2024-02-17T16:31:01Z</time>
      </trkpt>
      <trkpt lat="44.15556" lon="3.20701">
        <ele>752.3</ele>
        <time>2024-02-17T16:31:03Z</time>
      </trkpt>
      <trkpt lat="44.15556" lon="3.20682">
        <ele>751.2</ele>
        <time>2024-02-17T16:31:05Z</time>
      </trkpt>
      <trkpt lat="44.15557" lon="3.20661">
        <ele>750</ele>
        <time>2024-02-17T16:31:07Z</time>
      </trkpt>
      <trkpt lat="44.15558" lon="3.20639">
        <ele>749.3</ele>
        <time>2024-02-17T16:31:09Z</time>
      </trkpt>
      <trkpt lat="44.1556" lon="3.20617">
        <ele>748.7</ele>
        <time>2024-02-17T16:31:11Z</time>
      </trkpt>
      <trkpt lat="44.1556" lon="3.20594">
        <ele>747.9</ele>
        <time>2024-02-17T16:31:13Z</time>
      </trkpt>
      <trkpt lat="44.15557" lon="3.20571">
        <ele>746.3</ele>
        <time>2024-02-17T16:31:15Z</time>
      </trkpt>
      <trkpt lat="44.15553" lon="3.20549">
        <ele>744.6</ele>
        <time>2024-02-17T16:31:17Z</time>
      </trkpt>
      <trkpt lat="44.15549" lon="3.20527">
        <ele>743.5</ele>
        <time>2024-02-17T16:31:19Z</time>
      </trkpt>
      <trkpt lat="44.15544" lon="3.20506">
        <ele>742.4</ele>
        <time>2024-02-17T16:31:21Z</time>
      </trkpt>
      <trkpt lat="44.15535" lon="3.20487">
        <ele>741.4</ele>
        <time>2024-02-17T16:31:23Z</time>
      </trkpt>
      <trkpt lat="44.1552" lon="3.20475">
        <ele>740.4</ele>
        <time>2024-02-17T16:31:25Z</time>
      </trkpt>
      <trkpt lat="44.15503" lon="3.20471">
        <ele>739.2</ele>
        <time>2024-02-17T16:31:27Z</time>
      </trkpt>
      <trkpt lat="44.15487" lon="3.20474">
        <ele>739.4</ele>
        <time>2024-02-17T16:31:29Z</time>
      </trkpt>
      <trkpt lat="44.15472" lon="3.20479">
        <ele>739.8</ele>
        <time>2024-02-17T16:31:31Z</time>
      </trkpt>
      <trkpt lat="44.1546" lon="3.20483">
        <ele>740.3</ele>
        <time>2024-02-17T16:31:33Z</time>
      </trkpt>
      <trkpt lat="44.15448" lon="3.20486">
        <ele>740.8</ele>
        <time>2024-02-17T16:31:35Z</time>
      </trkpt>
      <trkpt lat="44.15436" lon="3.2049">
        <ele>741.2</ele>
        <time>2024-02-17T16:31:37Z</time>
      </trkpt>
      <trkpt lat="44.15425" lon="3.20495">
        <ele>741.6</ele>
        <time>2024-02-17T16:31:39Z</time>
      </trkpt>
      <trkpt lat="44.15416" lon="3.20502">
        <ele>742</ele>
        <time>2024-02-17T16:31:41Z</time>
      </trkpt>
      <trkpt lat="44.15408" lon="3.20509">
        <ele>742.3</ele>
        <time>2024-02-17T16:31:43Z</time>
      </trkpt>
      <trkpt lat="44.15399" lon="3.20515">
        <ele>742.7</ele>
        <time>2024-02-17T16:31:45Z</time>
      </trkpt>
      <trkpt lat="44.15391" lon="3.20521">
        <ele>743.1</ele>
        <time>2024-02-17T16:31:47Z</time>
      </trkpt>
      <trkpt lat="44.1538" lon="3.20532">
        <ele>743.3</ele>
        <time>2024-02-17T16:31:50Z</time>
      </trkpt>
      <trkpt lat="44.15372" lon="3.20539">
        <ele>743.4</ele>
        <time>2024-02-17T16:31:52Z</time>
      </trkpt>
      <trkpt lat="44.15363" lon="3.20546">
        <ele>743.6</ele>
        <time>2024-02-17T16:31:54Z</time>
      </trkpt>
      <trkpt lat="44.15355" lon="3.20554">
        <ele>743.6</ele>
        <time>2024-02-17T16:31:56Z</time>
      </trkpt>
      <trkpt lat="44.15346" lon="3.20559">
        <ele>743.8</ele>
        <time>2024-02-17T16:31:58Z</time>
      </trkpt>
      <trkpt lat="44.15334" lon="3.20559">
        <ele>744.7</ele>
        <time>2024-02-17T16:32:01Z</time>
      </trkpt>
      <trkpt lat="44.15323" lon="3.20555">
        <ele>745.4</ele>
        <time>2024-02-17T16:32:04Z</time>
      </trkpt>
      <trkpt lat="44.15315" lon="3.20546">
        <ele>745.9</ele>
        <time>2024-02-17T16:32:07Z</time>
      </trkpt>
      <trkpt lat="44.15309" lon="3.20533">
        <ele>746.1</ele>
        <time>2024-02-17T16:32:10Z</time>
      </trkpt>
      <trkpt lat="44.15306" lon="3.2052">
        <ele>746</ele>
        <time>2024-02-17T16:32:12Z</time>
      </trkpt>
      <trkpt lat="44.15305" lon="3.20505">
        <ele>745.9</ele>
        <time>2024-02-17T16:32:14Z</time>
      </trkpt>
      <trkpt lat="44.15301" lon="3.20489">
        <ele>743.7</ele>
        <time>2024-02-17T16:32:16Z</time>
      </trkpt>
      <trkpt lat="44.15299" lon="3.2047">
        <ele>741.4</ele>
        <time>2024-02-17T16:32:18Z</time>
      </trkpt>
      <trkpt lat="44.15298" lon="3.2045">
        <ele>740</ele>
        <time>2024-02-17T16:32:20Z</time>
      </trkpt>
      <trkpt lat="44.15297" lon="3.20428">
        <ele>739.1</ele>
        <time>2024-02-17T16:32:22Z</time>
      </trkpt>
      <trkpt lat="44.15294" lon="3.20407">
        <ele>738.4</ele>
        <time>2024-02-17T16:32:24Z</time>
      </trkpt>
      <trkpt lat="44.15291" lon="3.20384">
        <ele>738</ele>
        <time>2024-02-17T16:32:26Z</time>
      </trkpt>
      <trkpt lat="44.15286" lon="3.2036">
        <ele>737.8</ele>
        <time>2024-02-17T16:32:28Z</time>
      </trkpt>
      <trkpt lat="44.15282" lon="3.20337">
        <ele>737.2</ele>
        <time>2024-02-17T16:32:30Z</time>
      </trkpt>
      <trkpt lat="44.15279" lon="3.20312">
        <ele>736.4</ele>
        <time>2024-02-17T16:32:32Z</time>
      </trkpt>
      <trkpt lat="44.15277" lon="3.20288">
        <ele>735.2</ele>
        <time>2024-02-17T16:32:34Z</time>
      </trkpt>
      <trkpt lat="44.15278" lon="3.20265">
        <ele>735.5</ele>
        <time>2024-02-17T16:32:36Z</time>
      </trkpt>
      <trkpt lat="44.15282" lon="3.20243">
        <ele>737</ele>
        <time>2024-02-17T16:32:38Z</time>
      </trkpt>
      <trkpt lat="44.15286" lon="3.20222">
        <ele>737.8</ele>
        <time>2024-02-17T16:32:40Z</time>
      </trkpt>
      <trkpt lat="44.15291" lon="3.20202">
        <ele>737.1</ele>
        <time>2024-02-17T16:32:42Z</time>
      </trkpt>
      <trkpt lat="44.15298" lon="3.20184">
        <ele>737</ele>
        <time>2024-02-17T16:32:44Z</time>
      </trkpt>
      <trkpt lat="44.15306" lon="3.20166">
        <ele>737.1</ele>
        <time>2024-02-17T16:32:46Z</time>
      </trkpt>
      <trkpt lat="44.15314" lon="3.2015">
        <ele>738.2</ele>
        <time>2024-02-17T16:32:48Z</time>
      </trkpt>
      <trkpt lat="44.15319" lon="3.20135">
        <ele>738.7</ele>
        <time>2024-02-17T16:32:50Z</time>
      </trkpt>
      <trkpt lat="44.15324" lon="3.20119">
        <ele>739.6</ele>
        <time>2024-02-17T16:32:52Z</time>
      </trkpt>
      <trkpt lat="44.15327" lon="3.20103">
        <ele>740.2</ele>
        <time>2024-02-17T16:32:54Z</time>
      </trkpt>
      <trkpt lat="44.15328" lon="3.20087">
        <ele>740.5</ele>
        <time>2024-02-17T16:32:56Z</time>
      </trkpt>
      <trkpt lat="44.15326" lon="3.20073">
        <ele>740.2</ele>
        <time>2024-02-17T16:32:58Z</time>
      </trkpt>
      <trkpt lat="44.15324" lon="3.20059">
        <ele>739.9</ele>
        <time>2024-02-17T16:33:00Z</time>
      </trkpt>
      <trkpt lat="44.15321" lon="3.20046">
        <ele>739.2</ele>
        <time>2024-02-17T16:33:02Z</time>
      </trkpt>
      <trkpt lat="44.15317" lon="3.20035">
        <ele>738.1</ele>
        <time>2024-02-17T16:33:04Z</time>
      </trkpt>
      <trkpt lat="44.15312" lon="3.20019">
        <ele>736.9</ele>
        <time>2024-02-17T16:33:07Z</time>
      </trkpt>
      <trkpt lat="44.15306" lon="3.20003">
        <ele>735.1</ele>
        <time>2024-02-17T16:33:10Z</time>
      </trkpt>
      <trkpt lat="44.153" lon="3.19987">
        <ele>735.3</ele>
        <time>2024-02-17T16:33:13Z</time>
      </trkpt>
      <trkpt lat="44.15295" lon="3.19971">
        <ele>735.7</ele>
        <time>2024-02-17T16:33:16Z</time>
      </trkpt>
      <trkpt lat="44.1529" lon="3.19956">
        <ele>736</ele>
        <time>2024-02-17T16:33:19Z</time>
      </trkpt>
      <trkpt lat="44.15286" lon="3.19941">
        <ele>736.4</ele>
        <time>2024-02-17T16:33:22Z</time>
      </trkpt>
      <trkpt lat="44.15282" lon="3.19927">
        <ele>736.8</ele>
        <time>2024-02-17T16:33:25Z</time>
      </trkpt>
      <trkpt lat="44.15281" lon="3.19911">
        <ele>737.3</ele>
        <time>2024-02-17T16:33:28Z</time>
      </trkpt>
      <trkpt lat="44.15279" lon="3.19894">
        <ele>737.9</ele>
        <time>2024-02-17T16:33:31Z</time>
      </trkpt>
      <trkpt lat="44.15277" lon="3.19877">
        <ele>738.4</ele>
        <time>2024-02-17T16:33:34Z</time>
      </trkpt>
      <trkpt lat="44.15277" lon="3.1986">
        <ele>739</ele>
        <time>2024-02-17T16:33:37Z</time>
      </trkpt>
      <trkpt lat="44.15276" lon="3.19843">
        <ele>739.5</ele>
        <time>2024-02-17T16:33:40Z</time>
      </trkpt>
      <trkpt lat="44.15277" lon="3.19829">
        <ele>739.9</ele>
        <time>2024-02-17T16:33:43Z</time>
      </trkpt>
      <trkpt lat="44.15279" lon="3.19816">
        <ele>740.1</ele>
        <time>2024-02-17T16:33:46Z</time>
      </trkpt>
      <trkpt lat="44.15281" lon="3.19802">
        <ele>740.5</ele>
        <time>2024-02-17T16:33:50Z</time>
      </trkpt>
      <trkpt lat="44.15282" lon="3.19788">
        <ele>741.1</ele>
        <time>2024-02-17T16:33:54Z</time>
      </trkpt>
      <trkpt lat="44.15284" lon="3.19773">
        <ele>741.8</ele>
        <time>2024-02-17T16:33:59Z</time>
      </trkpt>
      <trkpt lat="44.15281" lon="3.19758">
        <ele>742.1</ele>
        <time>2024-02-17T16:34:03Z</time>
      </trkpt>
      <trkpt lat="44.15276" lon="3.19744">
        <ele>742.4</ele>
        <time>2024-02-17T16:34:07Z</time>
      </trkpt>
      <trkpt lat="44.1527" lon="3.19731">
        <ele>743.1</ele>
        <time>2024-02-17T16:34:11Z</time>
      </trkpt>
      <trkpt lat="44.15264" lon="3.19718">
        <ele>743.7</ele>
        <time>2024-02-17T16:34:15Z</time>
      </trkpt>
      <trkpt lat="44.15258" lon="3.19703">
        <ele>744</ele>
        <time>2024-02-17T16:34:19Z</time>
      </trkpt>
      <trkpt lat="44.15253" lon="3.19691">
        <ele>744.3</ele>
        <time>2024-02-17T16:34:22Z</time>
      </trkpt>
      <trkpt lat="44.15247" lon="3.19678">
        <ele>745.1</ele>
        <time>2024-02-17T16:34:25Z</time>
      </trkpt>
      <trkpt lat="44.15238" lon="3.19668">
        <ele>745.5</ele>
        <time>2024-02-17T16:34:28Z</time>
      </trkpt>
      <trkpt lat="44.15228" lon="3.19661">
        <ele>745.6</ele>
        <time>2024-02-17T16:34:31Z</time>
      </trkpt>
      <trkpt lat="44.15219" lon="3.19656">
        <ele>745.9</ele>
        <time>2024-02-17T16:34:34Z</time>
      </trkpt>
      <trkpt lat="44.1521" lon="3.1965">
        <ele>746.6</ele>
        <time>2024-02-17T16:34:37Z</time>
      </trkpt>
      <trkpt lat="44.15201" lon="3.19646">
        <ele>747.3</ele>
        <time>2024-02-17T16:34:40Z</time>
      </trkpt>
      <trkpt lat="44.15193" lon="3.19642">
        <ele>747.8</ele>
        <time>2024-02-17T16:34:43Z</time>
      </trkpt>
      <trkpt lat="44.15182" lon="3.19637">
        <ele>748.6</ele>
        <time>2024-02-17T16:34:47Z</time>
      </trkpt>
      <trkpt lat="44.1517" lon="3.19634">
        <ele>749.2</ele>
        <time>2024-02-17T16:34:51Z</time>
      </trkpt>
      <trkpt lat="44.15159" lon="3.19632">
        <ele>750</ele>
        <time>2024-02-17T16:34:54Z</time>
      </trkpt>
      <trkpt lat="44.15149" lon="3.19631">
        <ele>750.8</ele>
        <time>2024-02-17T16:34:57Z</time>
      </trkpt>
      <trkpt lat="44.15139" lon="3.19629">
        <ele>751.7</ele>
        <time>2024-02-17T16:35:01Z</time>
      </trkpt>
      <trkpt lat="44.1513" lon="3.19627">
        <ele>752.5</ele>
        <time>2024-02-17T16:35:04Z</time>
      </trkpt>
      <trkpt lat="44.15121" lon="3.19626">
        <ele>753.2</ele>
        <time>2024-02-17T16:35:07Z</time>
      </trkpt>
      <trkpt lat="44.15109" lon="3.19625">
        <ele>754.2</ele>
        <time>2024-02-17T16:35:11Z</time>
      </trkpt>
      <trkpt lat="44.15098" lon="3.19621">
        <ele>755.1</ele>
        <time>2024-02-17T16:35:15Z</time>
      </trkpt>
      <trkpt lat="44.15089" lon="3.19616">
        <ele>755.7</ele>
        <time>2024-02-17T16:35:19Z</time>
      </trkpt>
      <trkpt lat="44.15081" lon="3.19607">
        <ele>756.4</ele>
        <time>2024-02-17T16:35:23Z</time>
      </trkpt>
      <trkpt lat="44.15072" lon="3.19597">
        <ele>757.2</ele>
        <time>2024-02-17T16:35:27Z</time>
      </trkpt>
      <trkpt lat="44.15063" lon="3.19586">
        <ele>757.3</ele>
        <time>2024-02-17T16:35:31Z</time>
      </trkpt>
      <trkpt lat="44.15056" lon="3.19577">
        <ele>757.2</ele>
        <time>2024-02-17T16:35:34Z</time>
      </trkpt>
      <trkpt lat="44.1505" lon="3.19568">
        <ele>757.7</ele>
        <time>2024-02-17T16:35:38Z</time>
      </trkpt>
      <trkpt lat="44.15042" lon="3.19559">
        <ele>758</ele>
        <time>2024-02-17T16:35:42Z</time>
      </trkpt>
      <trkpt lat="44.15032" lon="3.19548">
        <ele>758.3</ele>
        <time>2024-02-17T16:35:46Z</time>
      </trkpt>
      <trkpt lat="44.15025" lon="3.1954">
        <ele>759.1</ele>
        <time>2024-02-17T16:35:49Z</time>
      </trkpt>
      <trkpt lat="44.15018" lon="3.19529">
        <ele>760.7</ele>
        <time>2024-02-17T16:35:53Z</time>
      </trkpt>
      <trkpt lat="44.15013" lon="3.19518">
        <ele>762.2</ele>
        <time>2024-02-17T16:35:57Z</time>
      </trkpt>
      <trkpt lat="44.15014" lon="3.19504">
        <ele>762.8</ele>
        <time>2024-02-17T16:36:02Z</time>
      </trkpt>
      <trkpt lat="44.15024" lon="3.19497">
        <ele>762.6</ele>
        <time>2024-02-17T16:36:07Z</time>
      </trkpt>
      <trkpt lat="44.15032" lon="3.19501">
        <ele>762</ele>
        <time>2024-02-17T16:36:11Z</time>
      </trkpt>
      <trkpt lat="44.15043" lon="3.19503">
        <ele>762.2</ele>
        <time>2024-02-17T16:36:17Z</time>
      </trkpt>
      <trkpt lat="44.15053" lon="3.19501">
        <ele>762.8</ele>
        <time>2024-02-17T16:36:21Z</time>
      </trkpt>
      <trkpt lat="44.1506" lon="3.1949">
        <ele>764.7</ele>
        <time>2024-02-17T16:36:26Z</time>
      </trkpt>
      <trkpt lat="44.15061" lon="3.19477">
        <ele>766.3</ele>
        <time>2024-02-17T16:36:30Z</time>
      </trkpt>
      <trkpt lat="44.1506" lon="3.19461">
        <ele>767.8</ele>
        <time>2024-02-17T16:36:35Z</time>
      </trkpt>
      <trkpt lat="44.1506" lon="3.19447">
        <ele>769.2</ele>
        <time>2024-02-17T16:36:40Z</time>
      </trkpt>
      <trkpt lat="44.15062" lon="3.19433">
        <ele>770.8</ele>
        <time>2024-02-17T16:36:44Z</time>
      </trkpt>
      <trkpt lat="44.15064" lon="3.19418">
        <ele>772.5</ele>
        <time>2024-02-17T16:36:48Z</time>
      </trkpt>
      <trkpt lat="44.15066" lon="3.19405">
        <ele>774.1</ele>
        <time>2024-02-17T16:36:52Z</time>
      </trkpt>
      <trkpt lat="44.15069" lon="3.19391">
        <ele>775.8</ele>
        <time>2024-02-17T16:36:57Z</time>
      </trkpt>
      <trkpt lat="44.15077" lon="3.19382">
        <ele>776.4</ele>
        <time>2024-02-17T16:37:02Z</time>
      </trkpt>
      <trkpt lat="44.15086" lon="3.19377">
        <ele>776.7</ele>
        <time>2024-02-17T16:37:06Z</time>
      </trkpt>
      <trkpt lat="44.15097" lon="3.19374">
        <ele>778</ele>
        <time>2024-02-17T16:37:11Z</time>
      </trkpt>
      <trkpt lat="44.15106" lon="3.19368">
        <ele>779.2</ele>
        <time>2024-02-17T16:37:15Z</time>
      </trkpt>
      <trkpt lat="44.15115" lon="3.19363">
        <ele>779.9</ele>
        <time>2024-02-17T16:37:19Z</time>
      </trkpt>
      <trkpt lat="44.15125" lon="3.19357">
        <ele>780.1</ele>
        <time>2024-02-17T16:37:23Z</time>
      </trkpt>
      <trkpt lat="44.15135" lon="3.19349">
        <ele>780.4</ele>
        <time>2024-02-17T16:37:28Z</time>
      </trkpt>
      <trkpt lat="44.15142" lon="3.19336">
        <ele>780.7</ele>
        <time>2024-02-17T16:37:33Z</time>
      </trkpt>
      <trkpt lat="44.15147" lon="3.19323">
        <ele>781.3</ele>
        <time>2024-02-17T16:37:38Z</time>
      </trkpt>
      <trkpt lat="44.15153" lon="3.19311">
        <ele>782</ele>
        <time>2024-02-17T16:37:43Z</time>
      </trkpt>
      <trkpt lat="44.15161" lon="3.19304">
        <ele>782.3</ele>
        <time>2024-02-17T16:37:47Z</time>
      </trkpt>
      <trkpt lat="44.1517" lon="3.19299">
        <ele>781.9</ele>
        <time>2024-02-17T16:37:51Z</time>
      </trkpt>
      <trkpt lat="44.1518" lon="3.19292">
        <ele>780.8</ele>
        <time>2024-02-17T16:37:56Z</time>
      </trkpt>
      <trkpt lat="44.15182" lon="3.1928">
        <ele>781.6</ele>
        <time>2024-02-17T16:38:00Z</time>
      </trkpt>
      <trkpt lat="44.15178" lon="3.19267">
        <ele>783.4</ele>
        <time>2024-02-17T16:38:04Z</time>
      </trkpt>
      <trkpt lat="44.1517" lon="3.19259">
        <ele>785.5</ele>
        <time>2024-02-17T16:38:08Z</time>
      </trkpt>
      <trkpt lat="44.15161" lon="3.19254">
        <ele>787.3</ele>
        <time>2024-02-17T16:38:13Z</time>
      </trkpt>
      <trkpt lat="44.15151" lon="3.19249">
        <ele>789.4</ele>
        <time>2024-02-17T16:38:19Z</time>
      </trkpt>
      <trkpt lat="44.15142" lon="3.19252">
        <ele>790.2</ele>
        <time>2024-02-17T16:38:24Z</time>
      </trkpt>
      <trkpt lat="44.15132" lon="3.19256">
        <ele>790.2</ele>
        <time>2024-02-17T16:38:29Z</time>
      </trkpt>
      <trkpt lat="44.15122" lon="3.19262">
        <ele>789.4</ele>
        <time>2024-02-17T16:38:34Z</time>
      </trkpt>
      <trkpt lat="44.15113" lon="3.19265">
        <ele>789.2</ele>
        <time>2024-02-17T16:38:38Z</time>
      </trkpt>
      <trkpt lat="44.15104" lon="3.19258">
        <ele>791.1</ele>
        <time>2024-02-17T16:38:42Z</time>
      </trkpt>
      <trkpt lat="44.15107" lon="3.19246">
        <ele>793</ele>
        <time>2024-02-17T16:38:49Z</time>
      </trkpt>
      <trkpt lat="44.15116" lon="3.19239">
        <ele>793.8</ele>
        <time>2024-02-17T16:38:54Z</time>
      </trkpt>
      <trkpt lat="44.15123" lon="3.19231">
        <ele>795</ele>
        <time>2024-02-17T16:38:59Z</time>
      </trkpt>
      <trkpt lat="44.15132" lon="3.19223">
        <ele>796.1</ele>
        <time>2024-02-17T16:39:04Z</time>
      </trkpt>
      <trkpt lat="44.1514" lon="3.19216">
        <ele>797</ele>
        <time>2024-02-17T16:39:08Z</time>
      </trkpt>
      <trkpt lat="44.15147" lon="3.19205">
        <ele>797.9</ele>
        <time>2024-02-17T16:39:12Z</time>
      </trkpt>
      <trkpt lat="44.1515" lon="3.19193">
        <ele>799.6</ele>
        <time>2024-02-17T16:39:16Z</time>
      </trkpt>
      <trkpt lat="44.15148" lon="3.19178">
        <ele>801.5</ele>
        <time>2024-02-17T16:39:21Z</time>
      </trkpt>
      <trkpt lat="44.15139" lon="3.19176">
        <ele>802.3</ele>
        <time>2024-02-17T16:39:25Z</time>
      </trkpt>
      <trkpt lat="44.15128" lon="3.19183">
        <ele>801.8</ele>
        <time>2024-02-17T16:39:29Z</time>
      </trkpt>
      <trkpt lat="44.15119" lon="3.1919">
        <ele>801.3</ele>
        <time>2024-02-17T16:39:32Z</time>
      </trkpt>
      <trkpt lat="44.15109" lon="3.19196">
        <ele>800.8</ele>
        <time>2024-02-17T16:39:35Z</time>
      </trkpt>
      <trkpt lat="44.15098" lon="3.19203">
        <ele>799.9</ele>
        <time>2024-02-17T16:39:38Z</time>
      </trkpt>
      <trkpt lat="44.15087" lon="3.19209">
        <ele>799.4</ele>
        <time>2024-02-17T16:39:41Z</time>
      </trkpt>
      <trkpt lat="44.15076" lon="3.19214">
        <ele>799.3</ele>
        <time>2024-02-17T16:39:44Z</time>
      </trkpt>
      <trkpt lat="44.15066" lon="3.19219">
        <ele>799.5</ele>
        <time>2024-02-17T16:39:47Z</time>
      </trkpt>
      <trkpt lat="44.15055" lon="3.19225">
        <ele>799.9</ele>
        <time>2024-02-17T16:39:50Z</time>
      </trkpt>
      <trkpt lat="44.15045" lon="3.19231">
        <ele>801.1</ele>
        <time>2024-02-17T16:39:53Z</time>
      </trkpt>
      <trkpt lat="44.15035" lon="3.19236">
        <ele>802.7</ele>
        <time>2024-02-17T16:39:56Z</time>
      </trkpt>
      <trkpt lat="44.15025" lon="3.19242">
        <ele>804.5</ele>
        <time>2024-02-17T16:39:59Z</time>
      </trkpt>
      <trkpt lat="44.15016" lon="3.19248">
        <ele>806.1</ele>
        <time>2024-02-17T16:40:02Z</time>
      </trkpt>
      <trkpt lat="44.15006" lon="3.19253">
        <ele>807.9</ele>
        <time>2024-02-17T16:40:05Z</time>
      </trkpt>
      <trkpt lat="44.14997" lon="3.19258">
        <ele>809.3</ele>
        <time>2024-02-17T16:40:08Z</time>
      </trkpt>
      <trkpt lat="44.14986" lon="3.19262">
        <ele>810.4</ele>
        <time>2024-02-17T16:40:11Z</time>
      </trkpt>
      <trkpt lat="44.14976" lon="3.19266">
        <ele>811.7</ele>
        <time>2024-02-17T16:40:14Z</time>
      </trkpt>
      <trkpt lat="44.14967" lon="3.19271">
        <ele>812.5</ele>
        <time>2024-02-17T16:40:17Z</time>
      </trkpt>
      <trkpt lat="44.14956" lon="3.19274">
        <ele>812.7</ele>
        <time>2024-02-17T16:40:20Z</time>
      </trkpt>
      <trkpt lat="44.14946" lon="3.19277">
        <ele>812.9</ele>
        <time>2024-02-17T16:40:23Z</time>
      </trkpt>
      <trkpt lat="44.14936" lon="3.19282">
        <ele>813.2</ele>
        <time>2024-02-17T16:40:26Z</time>
      </trkpt>
      <trkpt lat="44.14926" lon="3.19288">
        <ele>813.4</ele>
        <time>2024-02-17T16:40:29Z</time>
      </trkpt>
      <trkpt lat="44.14916" lon="3.19293">
        <ele>813.5</ele>
        <time>2024-02-17T16:40:32Z</time>
      </trkpt>
      <trkpt lat="44.14905" lon="3.19299">
        <ele>813.7</ele>
        <time>2024-02-17T16:40:35Z</time>
      </trkpt>
      <trkpt lat="44.14894" lon="3.19304">
        <ele>813.9</ele>
        <time>2024-02-17T16:40:38Z</time>
      </trkpt>
      <trkpt lat="44.14881" lon="3.19311">
        <ele>813.9</ele>
        <time>2024-02-17T16:40:41Z</time>
      </trkpt>
      <trkpt lat="44.14873" lon="3.19315">
        <ele>813.8</ele>
        <time>2024-02-17T16:40:43Z</time>
      </trkpt>
      <trkpt lat="44.14864" lon="3.1932">
        <ele>813.6</ele>
        <time>2024-02-17T16:40:45Z</time>
      </trkpt>
      <trkpt lat="44.14855" lon="3.19324">
        <ele>813.4</ele>
        <time>2024-02-17T16:40:47Z</time>
      </trkpt>
      <trkpt lat="44.14845" lon="3.19326">
        <ele>813.2</ele>
        <time>2024-02-17T16:40:49Z</time>
      </trkpt>
      <trkpt lat="44.14835" lon="3.19326">
        <ele>812.8</ele>
        <time>2024-02-17T16:40:51Z</time>
      </trkpt>
      <trkpt lat="44.14826" lon="3.19325">
        <ele>812.5</ele>
        <time>2024-02-17T16:40:53Z</time>
      </trkpt>
      <trkpt lat="44.14815" lon="3.19322">
        <ele>812.2</ele>
        <time>2024-02-17T16:40:55Z</time>
      </trkpt>
      <trkpt lat="44.14804" lon="3.19313">
        <ele>811.9</ele>
        <time>2024-02-17T16:40:57Z</time>
      </trkpt>
      <trkpt lat="44.14797" lon="3.193">
        <ele>811.8</ele>
        <time>2024-02-17T16:40:59Z</time>
      </trkpt>
      <trkpt lat="44.14793" lon="3.19285">
        <ele>811.9</ele>
        <time>2024-02-17T16:41:01Z</time>
      </trkpt>
      <trkpt lat="44.1479" lon="3.19271">
        <ele>812.1</ele>
        <time>2024-02-17T16:41:03Z</time>
      </trkpt>
      <trkpt lat="44.14787" lon="3.19258">
        <ele>812.5</ele>
        <time>2024-02-17T16:41:05Z</time>
      </trkpt>
      <trkpt lat="44.14783" lon="3.19241">
        <ele>813.1</ele>
        <time>2024-02-17T16:41:08Z</time>
      </trkpt>
      <trkpt lat="44.1478" lon="3.19224">
        <ele>813.9</ele>
        <time>2024-02-17T16:41:11Z</time>
      </trkpt>
      <trkpt lat="44.14776" lon="3.19208">
        <ele>814.1</ele>
        <time>2024-02-17T16:41:14Z</time>
      </trkpt>
      <trkpt lat="44.14772" lon="3.19192">
        <ele>814.2</ele>
        <time>2024-02-17T16:41:17Z</time>
      </trkpt>
      <trkpt lat="44.14769" lon="3.19176">
        <ele>814.5</ele>
        <time>2024-02-17T16:41:20Z</time>
      </trkpt>
      <trkpt lat="44.14765" lon="3.1916">
        <ele>815.2</ele>
        <time>2024-02-17T16:41:23Z</time>
      </trkpt>
      <trkpt lat="44.14762" lon="3.19144">
        <ele>816</ele>
        <time>2024-02-17T16:41:26Z</time>
      </trkpt>
      <trkpt lat="44.14758" lon="3.19131">
        <ele>816.3</ele>
        <time>2024-02-17T16:41:29Z</time>
      </trkpt>
      <trkpt lat="44.14756" lon="3.19116">
        <ele>816.4</ele>
        <time>2024-02-17T16:41:32Z</time>
      </trkpt>
      <trkpt lat="44.14753" lon="3.19102">
        <ele>817</ele>
        <time>2024-02-17T16:41:35Z</time>
      </trkpt>
      <trkpt lat="44.1475" lon="3.19088">
        <ele>817.8</ele>
        <time>2024-02-17T16:41:38Z</time>
      </trkpt>
      <trkpt lat="44.14748" lon="3.19074">
        <ele>818.5</ele>
        <time>2024-02-17T16:41:41Z</time>
      </trkpt>
      <trkpt lat="44.14745" lon="3.1906">
        <ele>819.2</ele>
        <time>2024-02-17T16:41:44Z</time>
      </trkpt>
      <trkpt lat="44.14742" lon="3.19047">
        <ele>819.9</ele>
        <time>2024-02-17T16:41:47Z</time>
      </trkpt>
      <trkpt lat="44.1474" lon="3.19032">
        <ele>820.6</ele>
        <time>2024-02-17T16:41:50Z</time>
      </trkpt>
      <trkpt lat="44.14739" lon="3.19018">
        <ele>820.9</ele>
        <time>2024-02-17T16:41:53Z</time>
      </trkpt>
      <trkpt lat="44.14737" lon="3.19003">
        <ele>821.4</ele>
        <time>2024-02-17T16:41:56Z</time>
      </trkpt>
      <trkpt lat="44.14736" lon="3.18989">
        <ele>821.7</ele>
        <time>2024-02-17T16:41:59Z</time>
      </trkpt>
      <trkpt lat="44.14736" lon="3.18976">
        <ele>821.9</ele>
        <time>2024-02-17T16:42:02Z</time>
      </trkpt>
      <trkpt lat="44.14736" lon="3.18963">
        <ele>822.5</ele>
        <time>2024-02-17T16:42:05Z</time>
      </trkpt>
      <trkpt lat="44.14736" lon="3.1895">
        <ele>823.2</ele>
        <time>2024-02-17T16:42:08Z</time>
      </trkpt>
      <trkpt lat="44.14736" lon="3.18937">
        <ele>823.8</ele>
        <time>2024-02-17T16:42:11Z</time>
      </trkpt>
      <trkpt lat="44.14736" lon="3.18924">
        <ele>824.2</ele>
        <time>2024-02-17T16:42:14Z</time>
      </trkpt>
      <trkpt lat="44.14736" lon="3.1891">
        <ele>824.8</ele>
        <time>2024-02-17T16:42:17Z</time>
      </trkpt>
      <trkpt lat="44.14736" lon="3.18895">
        <ele>825.3</ele>
        <time>2024-02-17T16:42:21Z</time>
      </trkpt>
      <trkpt lat="44.14736" lon="3.1888">
        <ele>826.5</ele>
        <time>2024-02-17T16:42:25Z</time>
      </trkpt>
      <trkpt lat="44.14735" lon="3.18863">
        <ele>828.4</ele>
        <time>2024-02-17T16:42:29Z</time>
      </trkpt>
      <trkpt lat="44.14734" lon="3.18847">
        <ele>828.9</ele>
        <time>2024-02-17T16:42:33Z</time>
      </trkpt>
      <trkpt lat="44.14732" lon="3.18832">
        <ele>829.3</ele>
        <time>2024-02-17T16:42:37Z</time>
      </trkpt>
      <trkpt lat="44.14729" lon="3.18817">
        <ele>829.5</ele>
        <time>2024-02-17T16:42:41Z</time>
      </trkpt>
      <trkpt lat="44.14726" lon="3.18804">
        <ele>829.7</ele>
        <time>2024-02-17T16:42:44Z</time>
      </trkpt>
      <trkpt lat="44.14721" lon="3.1879">
        <ele>829.6</ele>
        <time>2024-02-17T16:42:47Z</time>
      </trkpt>
      <trkpt lat="44.14717" lon="3.18775">
        <ele>829.4</ele>
        <time>2024-02-17T16:42:50Z</time>
      </trkpt>
      <trkpt lat="44.14714" lon="3.18761">
        <ele>829</ele>
        <time>2024-02-17T16:42:53Z</time>
      </trkpt>
      <trkpt lat="44.14713" lon="3.18745">
        <ele>827.9</ele>
        <time>2024-02-17T16:42:56Z</time>
      </trkpt>
      <trkpt lat="44.14713" lon="3.18727">
        <ele>825.3</ele>
        <time>2024-02-17T16:42:59Z</time>
      </trkpt>
      <trkpt lat="44.14712" lon="3.18709">
        <ele>824.3</ele>
        <time>2024-02-17T16:43:02Z</time>
      </trkpt>
      <trkpt lat="44.1471" lon="3.18695">
        <ele>824.4</ele>
        <time>2024-02-17T16:43:05Z</time>
      </trkpt>
      <trkpt lat="44.14707" lon="3.1868">
        <ele>825.5</ele>
        <time>2024-02-17T16:43:08Z</time>
      </trkpt>
      <trkpt lat="44.14702" lon="3.18663">
        <ele>827.2</ele>
        <time>2024-02-17T16:43:11Z</time>
      </trkpt>
      <trkpt lat="44.14697" lon="3.18646">
        <ele>828.5</ele>
        <time>2024-02-17T16:43:14Z</time>
      </trkpt>
      <trkpt lat="44.14692" lon="3.1863">
        <ele>829</ele>
        <time>2024-02-17T16:43:17Z</time>
      </trkpt>
      <trkpt lat="44.14688" lon="3.18618">
        <ele>829.2</ele>
        <time>2024-02-17T16:43:19Z</time>
      </trkpt>
      <trkpt lat="44.14685" lon="3.18607">
        <ele>829.3</ele>
        <time>2024-02-17T16:43:21Z</time>
      </trkpt>
      <trkpt lat="44.14679" lon="3.1859">
        <ele>829.4</ele>
        <time>2024-02-17T16:43:24Z</time>
      </trkpt>
      <trkpt lat="44.14674" lon="3.18578">
        <ele>829.2</ele>
        <time>2024-02-17T16:43:26Z</time>
      </trkpt>
      <trkpt lat="44.14669" lon="3.18566">
        <ele>829.2</ele>
        <time>2024-02-17T16:43:28Z</time>
      </trkpt>
      <trkpt lat="44.14664" lon="3.18553">
        <ele>828.8</ele>
        <time>2024-02-17T16:43:30Z</time>
      </trkpt>
      <trkpt lat="44.14657" lon="3.18538">
        <ele>828</ele>
        <time>2024-02-17T16:43:32Z</time>
      </trkpt>
      <trkpt lat="44.14651" lon="3.18523">
        <ele>827.4</ele>
        <time>2024-02-17T16:43:34Z</time>
      </trkpt>
      <trkpt lat="44.14645" lon="3.18508">
        <ele>827.5</ele>
        <time>2024-02-17T16:43:36Z</time>
      </trkpt>
      <trkpt lat="44.14639" lon="3.18495">
        <ele>828</ele>
        <time>2024-02-17T16:43:38Z</time>
      </trkpt>
      <trkpt lat="44.14635" lon="3.18484">
        <ele>828.2</ele>
        <time>2024-02-17T16:43:40Z</time>
      </trkpt>
      <trkpt lat="44.14629" lon="3.18468">
        <ele>828.7</ele>
        <time>2024-02-17T16:43:43Z</time>
      </trkpt>
      <trkpt lat="44.14623" lon="3.18456">
        <ele>829.1</ele>
        <time>2024-02-17T16:43:46Z</time>
      </trkpt>
      <trkpt lat="44.14614" lon="3.18456">
        <ele>829.8</ele>
        <time>2024-02-17T16:44:07Z</time>
      </trkpt>
      <trkpt lat="44.14605" lon="3.18463">
        <ele>830.1</ele>
        <time>2024-02-17T16:44:12Z</time>
      </trkpt>
      <trkpt lat="44.14596" lon="3.18466">
        <ele>830.1</ele>
        <time>2024-02-17T16:44:17Z</time>
      </trkpt>
      <trkpt lat="44.14586" lon="3.18464">
        <ele>830.3</ele>
        <time>2024-02-17T16:44:23Z</time>
      </trkpt>
      <trkpt lat="44.14582" lon="3.18451">
        <ele>830.7</ele>
        <time>2024-02-17T16:44:30Z</time>
      </trkpt>
      <trkpt lat="44.14573" lon="3.18441">
        <ele>830.4</ele>
        <time>2024-02-17T16:44:35Z</time>
      </trkpt>
      <trkpt lat="44.14564" lon="3.18445">
        <ele>830.3</ele>
        <time>2024-02-17T16:44:38Z</time>
      </trkpt>
      <trkpt lat="44.14553" lon="3.18447">
        <ele>829.8</ele>
        <time>2024-02-17T16:44:41Z</time>
      </trkpt>
      <trkpt lat="44.14544" lon="3.18448">
        <ele>829.1</ele>
        <time>2024-02-17T16:44:43Z</time>
      </trkpt>
      <trkpt lat="44.14531" lon="3.18451">
        <ele>828</ele>
        <time>2024-02-17T16:44:46Z</time>
      </trkpt>
      <trkpt lat="44.14521" lon="3.18451">
        <ele>827</ele>
        <time>2024-02-17T16:44:48Z</time>
      </trkpt>
      <trkpt lat="44.14509" lon="3.1845">
        <ele>825.8</ele>
        <time>2024-02-17T16:44:50Z</time>
      </trkpt>
      <trkpt lat="44.14498" lon="3.18456">
        <ele>824.5</ele>
        <time>2024-02-17T16:44:52Z</time>
      </trkpt>
      <trkpt lat="44.14488" lon="3.18467">
        <ele>823.4</ele>
        <time>2024-02-17T16:44:54Z</time>
      </trkpt>
      <trkpt lat="44.14478" lon="3.18477">
        <ele>822.4</ele>
        <time>2024-02-17T16:44:56Z</time>
      </trkpt>
      <trkpt lat="44.14469" lon="3.18479">
        <ele>821.8</ele>
        <time>2024-02-17T16:44:58Z</time>
      </trkpt>
      <trkpt lat="44.14457" lon="3.1848">
        <ele>821.1</ele>
        <time>2024-02-17T16:45:00Z</time>
      </trkpt>
      <trkpt lat="44.14448" lon="3.18475">
        <ele>820.3</ele>
        <time>2024-02-17T16:45:02Z</time>
      </trkpt>
      <trkpt lat="44.14445" lon="3.18458">
        <ele>820.6</ele>
        <time>2024-02-17T16:45:05Z</time>
      </trkpt>
      <trkpt lat="44.1444" lon="3.18448">
        <ele>820.7</ele>
        <time>2024-02-17T16:45:09Z</time>
      </trkpt>
      <trkpt lat="44.14433" lon="3.18435">
        <ele>820.6</ele>
        <time>2024-02-17T16:45:15Z</time>
      </trkpt>
      <trkpt lat="44.1443" lon="3.18421">
        <ele>820</ele>
        <time>2024-02-17T16:45:19Z</time>
      </trkpt>
      <trkpt lat="44.1442" lon="3.18425">
        <ele>818.4</ele>
        <time>2024-02-17T16:45:22Z</time>
      </trkpt>
      <trkpt lat="44.14411" lon="3.1843">
        <ele>817.5</ele>
        <time>2024-02-17T16:45:25Z</time>
      </trkpt>
      <trkpt lat="44.14401" lon="3.18426">
        <ele>815</ele>
        <time>2024-02-17T16:45:28Z</time>
      </trkpt>
      <trkpt lat="44.14391" lon="3.18431">
        <ele>814.5</ele>
        <time>2024-02-17T16:45:31Z</time>
      </trkpt>
      <trkpt lat="44.14381" lon="3.18437">
        <ele>813.6</ele>
        <time>2024-02-17T16:45:34Z</time>
      </trkpt>
      <trkpt lat="44.14373" lon="3.18428">
        <ele>809.5</ele>
        <time>2024-02-17T16:45:39Z</time>
      </trkpt>
      <trkpt lat="44.14369" lon="3.18412">
        <ele>806</ele>
        <time>2024-02-17T16:45:42Z</time>
      </trkpt>
      <trkpt lat="44.14362" lon="3.18401">
        <ele>804</ele>
        <time>2024-02-17T16:45:45Z</time>
      </trkpt>
      <trkpt lat="44.14353" lon="3.18398">
        <ele>802.6</ele>
        <time>2024-02-17T16:45:48Z</time>
      </trkpt>
      <trkpt lat="44.14344" lon="3.18406">
        <ele>801.1</ele>
        <time>2024-02-17T16:45:52Z</time>
      </trkpt>
      <trkpt lat="44.14335" lon="3.18416">
        <ele>798.5</ele>
        <time>2024-02-17T16:45:55Z</time>
      </trkpt>
      <trkpt lat="44.14325" lon="3.18428">
        <ele>797</ele>
        <time>2024-02-17T16:45:58Z</time>
      </trkpt>
      <trkpt lat="44.14317" lon="3.18433">
        <ele>795.3</ele>
        <time>2024-02-17T16:46:01Z</time>
      </trkpt>
      <trkpt lat="44.14309" lon="3.18443">
        <ele>793.9</ele>
        <time>2024-02-17T16:46:05Z</time>
      </trkpt>
      <trkpt lat="44.14301" lon="3.18435">
        <ele>792</ele>
        <time>2024-02-17T16:46:11Z</time>
      </trkpt>
      <trkpt lat="44.14291" lon="3.18431">
        <ele>791.7</ele>
        <time>2024-02-17T16:46:16Z</time>
      </trkpt>
      <trkpt lat="44.14283" lon="3.18435">
        <ele>790.7</ele>
        <time>2024-02-17T16:46:23Z</time>
      </trkpt>
      <trkpt lat="44.14276" lon="3.18443">
        <ele>788.8</ele>
        <time>2024-02-17T16:46:33Z</time>
      </trkpt>
      <trkpt lat="44.14266" lon="3.18445">
        <ele>791</ele>
        <time>2024-02-17T16:46:44Z</time>
      </trkpt>
      <trkpt lat="44.14256" lon="3.18446">
        <ele>793.6</ele>
        <time>2024-02-17T16:46:50Z</time>
      </trkpt>
      <trkpt lat="44.14246" lon="3.18448">
        <ele>795.1</ele>
        <time>2024-02-17T16:46:58Z</time>
      </trkpt>
      <trkpt lat="44.14236" lon="3.18452">
        <ele>794.6</ele>
        <time>2024-02-17T16:47:03Z</time>
      </trkpt>
      <trkpt lat="44.14229" lon="3.18462">
        <ele>794.1</ele>
        <time>2024-02-17T16:47:09Z</time>
      </trkpt>
      <trkpt lat="44.14224" lon="3.18474">
        <ele>792.8</ele>
        <time>2024-02-17T16:47:14Z</time>
      </trkpt>
      <trkpt lat="44.1422" lon="3.18487">
        <ele>789.2</ele>
        <time>2024-02-17T16:47:18Z</time>
      </trkpt>
      <trkpt lat="44.14223" lon="3.18499">
        <ele>786.5</ele>
        <time>2024-02-17T16:47:23Z</time>
      </trkpt>
      <trkpt lat="44.14226" lon="3.18512">
        <ele>783.9</ele>
        <time>2024-02-17T16:47:27Z</time>
      </trkpt>
      <trkpt lat="44.14234" lon="3.18521">
        <ele>783.5</ele>
        <time>2024-02-17T16:47:31Z</time>
      </trkpt>
      <trkpt lat="44.14237" lon="3.18534">
        <ele>779.7</ele>
        <time>2024-02-17T16:47:37Z</time>
      </trkpt>
      <trkpt lat="44.14231" lon="3.18543">
        <ele>775.3</ele>
        <time>2024-02-17T16:47:43Z</time>
      </trkpt>
      <trkpt lat="44.14224" lon="3.18551">
        <ele>771.6</ele>
        <time>2024-02-17T16:47:48Z</time>
      </trkpt>
      <trkpt lat="44.14216" lon="3.1856">
        <ele>766.6</ele>
        <time>2024-02-17T16:47:54Z</time>
      </trkpt>
      <trkpt lat="44.14206" lon="3.18556">
        <ele>765.8</ele>
        <time>2024-02-17T16:47:58Z</time>
      </trkpt>
      <trkpt lat="44.14197" lon="3.1856">
        <ele>762.7</ele>
        <time>2024-02-17T16:48:03Z</time>
      </trkpt>
      <trkpt lat="44.14189" lon="3.18568">
        <ele>760.3</ele>
        <time>2024-02-17T16:48:07Z</time>
      </trkpt>
      <trkpt lat="44.14181" lon="3.18573">
        <ele>758.7</ele>
        <time>2024-02-17T16:48:11Z</time>
      </trkpt>
      <trkpt lat="44.14172" lon="3.18577">
        <ele>757.3</ele>
        <time>2024-02-17T16:48:16Z</time>
      </trkpt>
      <trkpt lat="44.14162" lon="3.18575">
        <ele>755.9</ele>
        <time>2024-02-17T16:48:19Z</time>
      </trkpt>
      <trkpt lat="44.14153" lon="3.18583">
        <ele>752.1</ele>
        <time>2024-02-17T16:48:27Z</time>
      </trkpt>
      <trkpt lat="44.14147" lon="3.18592">
        <ele>751.3</ele>
        <time>2024-02-17T16:48:32Z</time>
      </trkpt>
      <trkpt lat="44.14138" lon="3.18599">
        <ele>751.2</ele>
        <time>2024-02-17T16:48:37Z</time>
      </trkpt>
      <trkpt lat="44.1413" lon="3.1861">
        <ele>751.3</ele>
        <time>2024-02-17T16:48:41Z</time>
      </trkpt>
      <trkpt lat="44.14127" lon="3.18624">
        <ele>749.6</ele>
        <time>2024-02-17T16:48:44Z</time>
      </trkpt>
      <trkpt lat="44.14126" lon="3.18638">
        <ele>748.3</ele>
        <time>2024-02-17T16:48:47Z</time>
      </trkpt>
      <trkpt lat="44.14121" lon="3.18649">
        <ele>746</ele>
        <time>2024-02-17T16:48:52Z</time>
      </trkpt>
      <trkpt lat="44.14113" lon="3.18659">
        <ele>743.8</ele>
        <time>2024-02-17T16:49:01Z</time>
      </trkpt>
      <trkpt lat="44.14105" lon="3.18669">
        <ele>742.8</ele>
        <time>2024-02-17T16:49:06Z</time>
      </trkpt>
      <trkpt lat="44.14099" lon="3.1868">
        <ele>742.6</ele>
        <time>2024-02-17T16:49:10Z</time>
      </trkpt>
      <trkpt lat="44.14098" lon="3.18693">
        <ele>742.6</ele>
        <time>2024-02-17T16:49:16Z</time>
      </trkpt>
      <trkpt lat="44.14088" lon="3.18699">
        <ele>741.5</ele>
        <time>2024-02-17T16:49:21Z</time>
      </trkpt>
      <trkpt lat="44.14081" lon="3.1871">
        <ele>740.2</ele>
        <time>2024-02-17T16:49:25Z</time>
      </trkpt>
      <trkpt lat="44.14079" lon="3.18724">
        <ele>739.6</ele>
        <time>2024-02-17T16:49:30Z</time>
      </trkpt>
      <trkpt lat="44.1407" lon="3.18734">
        <ele>740.9</ele>
        <time>2024-02-17T16:49:34Z</time>
      </trkpt>
      <trkpt lat="44.14063" lon="3.18743">
        <ele>740.6</ele>
        <time>2024-02-17T16:49:38Z</time>
      </trkpt>
      <trkpt lat="44.14054" lon="3.18752">
        <ele>739.5</ele>
        <time>2024-02-17T16:49:43Z</time>
      </trkpt>
      <trkpt lat="44.14046" lon="3.18761">
        <ele>740.7</ele>
        <time>2024-02-17T16:49:47Z</time>
      </trkpt>
      <trkpt lat="44.14036" lon="3.1877">
        <ele>739.2</ele>
        <time>2024-02-17T16:49:51Z</time>
      </trkpt>
      <trkpt lat="44.14029" lon="3.18781">
        <ele>737.3</ele>
        <time>2024-02-17T16:49:56Z</time>
      </trkpt>
      <trkpt lat="44.14021" lon="3.18787">
        <ele>737.7</ele>
        <time>2024-02-17T16:50:00Z</time>
      </trkpt>
      <trkpt lat="44.14012" lon="3.18792">
        <ele>737</ele>
        <time>2024-02-17T16:50:04Z</time>
      </trkpt>
      <trkpt lat="44.14002" lon="3.188">
        <ele>734.4</ele>
        <time>2024-02-17T16:50:08Z</time>
      </trkpt>
      <trkpt lat="44.13997" lon="3.18811">
        <ele>734</ele>
        <time>2024-02-17T16:50:12Z</time>
      </trkpt>
      <trkpt lat="44.13989" lon="3.1882">
        <ele>734.6</ele>
        <time>2024-02-17T16:50:17Z</time>
      </trkpt>
      <trkpt lat="44.1398" lon="3.18828">
        <ele>733.3</ele>
        <time>2024-02-17T16:50:21Z</time>
      </trkpt>
      <trkpt lat="44.1397" lon="3.18831">
        <ele>731.1</ele>
        <time>2024-02-17T16:50:24Z</time>
      </trkpt>
      <trkpt lat="44.13962" lon="3.18836">
        <ele>730.5</ele>
        <time>2024-02-17T16:50:32Z</time>
      </trkpt>
      <trkpt lat="44.13957" lon="3.18848">
        <ele>735</ele>
        <time>2024-02-17T16:50:45Z</time>
      </trkpt>
      <trkpt lat="44.13946" lon="3.18856">
        <ele>735.4</ele>
        <time>2024-02-17T16:50:50Z</time>
      </trkpt>
      <trkpt lat="44.13937" lon="3.18862">
        <ele>736</ele>
        <time>2024-02-17T16:50:53Z</time>
      </trkpt>
      <trkpt lat="44.13929" lon="3.1887">
        <ele>736.9</ele>
        <time>2024-02-17T16:50:58Z</time>
      </trkpt>
      <trkpt lat="44.13922" lon="3.18879">
        <ele>737.4</ele>
        <time>2024-02-17T16:51:05Z</time>
      </trkpt>
      <trkpt lat="44.13914" lon="3.18886">
        <ele>736.6</ele>
        <time>2024-02-17T16:51:10Z</time>
      </trkpt>
      <trkpt lat="44.13906" lon="3.18895">
        <ele>736.8</ele>
        <time>2024-02-17T16:51:14Z</time>
      </trkpt>
      <trkpt lat="44.139" lon="3.18906">
        <ele>737.9</ele>
        <time>2024-02-17T16:51:20Z</time>
      </trkpt>
      <trkpt lat="44.13888" lon="3.18911">
        <ele>734.8</ele>
        <time>2024-02-17T16:51:29Z</time>
      </trkpt>
      <trkpt lat="44.13878" lon="3.18909">
        <ele>734.5</ele>
        <time>2024-02-17T16:51:32Z</time>
      </trkpt>
      <trkpt lat="44.13869" lon="3.18905">
        <ele>733.1</ele>
        <time>2024-02-17T16:51:37Z</time>
      </trkpt>
      <trkpt lat="44.13858" lon="3.18905">
        <ele>732.4</ele>
        <time>2024-02-17T16:51:42Z</time>
      </trkpt>
      <trkpt lat="44.13849" lon="3.18905">
        <ele>730.7</ele>
        <time>2024-02-17T16:51:52Z</time>
      </trkpt>
      <trkpt lat="44.13841" lon="3.18894">
        <ele>723.5</ele>
        <time>2024-02-17T16:52:03Z</time>
      </trkpt>
      <trkpt lat="44.13832" lon="3.18886">
        <ele>717.7</ele>
        <time>2024-02-17T16:52:11Z</time>
      </trkpt>
      <trkpt lat="44.13837" lon="3.18875">
        <ele>715.2</ele>
        <time>2024-02-17T16:52:19Z</time>
      </trkpt>
      <trkpt lat="44.13829" lon="3.18866">
        <ele>710.1</ele>
        <time>2024-02-17T16:52:24Z</time>
      </trkpt>
      <trkpt lat="44.13819" lon="3.18872">
        <ele>709</ele>
        <time>2024-02-17T16:52:30Z</time>
      </trkpt>
      <trkpt lat="44.13807" lon="3.18878">
        <ele>707.7</ele>
        <time>2024-02-17T16:52:34Z</time>
      </trkpt>
      <trkpt lat="44.13797" lon="3.18877">
        <ele>704.6</ele>
        <time>2024-02-17T16:52:36Z</time>
      </trkpt>
      <trkpt lat="44.13787" lon="3.18878">
        <ele>702.2</ele>
        <time>2024-02-17T16:52:44Z</time>
      </trkpt>
      <trkpt lat="44.13778" lon="3.18883">
        <ele>699.9</ele>
        <time>2024-02-17T16:52:52Z</time>
      </trkpt>
      <trkpt lat="44.13768" lon="3.18889">
        <ele>699</ele>
        <time>2024-02-17T16:52:57Z</time>
      </trkpt>
      <trkpt lat="44.1376" lon="3.18896">
        <ele>700.9</ele>
        <time>2024-02-17T16:53:02Z</time>
      </trkpt>
      <trkpt lat="44.13749" lon="3.18897">
        <ele>699.5</ele>
        <time>2024-02-17T16:53:07Z</time>
      </trkpt>
      <trkpt lat="44.1374" lon="3.18901">
        <ele>699.6</ele>
        <time>2024-02-17T16:53:11Z</time>
      </trkpt>
      <trkpt lat="44.1373" lon="3.18907">
        <ele>699.6</ele>
        <time>2024-02-17T16:53:13Z</time>
      </trkpt>
      <trkpt lat="44.1372" lon="3.18913">
        <ele>699.1</ele>
        <time>2024-02-17T16:53:17Z</time>
      </trkpt>
      <trkpt lat="44.13712" lon="3.1892">
        <ele>698</ele>
        <time>2024-02-17T16:53:22Z</time>
      </trkpt>
      <trkpt lat="44.13708" lon="3.18931">
        <ele>696.4</ele>
        <time>2024-02-17T16:53:27Z</time>
      </trkpt>
      <trkpt lat="44.13708" lon="3.18946">
        <ele>695.4</ele>
        <time>2024-02-17T16:53:34Z</time>
      </trkpt>
      <trkpt lat="44.13702" lon="3.1896">
        <ele>692.4</ele>
        <time>2024-02-17T16:53:41Z</time>
      </trkpt>
      <trkpt lat="44.13695" lon="3.1897">
        <ele>687.6</ele>
        <time>2024-02-17T16:53:44Z</time>
      </trkpt>
      <trkpt lat="44.1369" lon="3.18982">
        <ele>688.1</ele>
        <time>2024-02-17T16:53:48Z</time>
      </trkpt>
      <trkpt lat="44.13684" lon="3.18994">
        <ele>687.9</ele>
        <time>2024-02-17T16:53:52Z</time>
      </trkpt>
      <trkpt lat="44.13679" lon="3.19005">
        <ele>686.6</ele>
        <time>2024-02-17T16:53:57Z</time>
      </trkpt>
      <trkpt lat="44.13674" lon="3.19018">
        <ele>684.8</ele>
        <time>2024-02-17T16:54:02Z</time>
      </trkpt>
      <trkpt lat="44.13666" lon="3.19024">
        <ele>682.4</ele>
        <time>2024-02-17T16:54:10Z</time>
      </trkpt>
      <trkpt lat="44.1366" lon="3.19038">
        <ele>684.4</ele>
        <time>2024-02-17T16:54:14Z</time>
      </trkpt>
      <trkpt lat="44.1365" lon="3.19045">
        <ele>684.5</ele>
        <time>2024-02-17T16:54:17Z</time>
      </trkpt>
      <trkpt lat="44.13641" lon="3.19048">
        <ele>683.3</ele>
        <time>2024-02-17T16:54:20Z</time>
      </trkpt>
      <trkpt lat="44.13628" lon="3.19048">
        <ele>682.7</ele>
        <time>2024-02-17T16:54:24Z</time>
      </trkpt>
      <trkpt lat="44.13617" lon="3.1905">
        <ele>682.9</ele>
        <time>2024-02-17T16:54:27Z</time>
      </trkpt>
      <trkpt lat="44.13606" lon="3.1905">
        <ele>682.6</ele>
        <time>2024-02-17T16:54:30Z</time>
      </trkpt>
      <trkpt lat="44.13596" lon="3.19051">
        <ele>682.4</ele>
        <time>2024-02-17T16:54:33Z</time>
      </trkpt>
      <trkpt lat="44.13588" lon="3.19046">
        <ele>680.8</ele>
        <time>2024-02-17T16:54:36Z</time>
      </trkpt>
      <trkpt lat="44.1358" lon="3.19038">
        <ele>678.7</ele>
        <time>2024-02-17T16:54:40Z</time>
      </trkpt>
      <trkpt lat="44.13573" lon="3.19029">
        <ele>677</ele>
        <time>2024-02-17T16:54:44Z</time>
      </trkpt>
      <trkpt lat="44.13565" lon="3.1902">
        <ele>677.2</ele>
        <time>2024-02-17T16:54:46Z</time>
      </trkpt>
      <trkpt lat="44.13559" lon="3.19009">
        <ele>676</ele>
        <time>2024-02-17T16:54:48Z</time>
      </trkpt>
      <trkpt lat="44.13549" lon="3.19006">
        <ele>675.8</ele>
        <time>2024-02-17T16:54:53Z</time>
      </trkpt>
      <trkpt lat="44.13539" lon="3.19005">
        <ele>676.9</ele>
        <time>2024-02-17T16:54:56Z</time>
      </trkpt>
      <trkpt lat="44.13528" lon="3.18996">
        <ele>674.6</ele>
        <time>2024-02-17T16:54:59Z</time>
      </trkpt>
      <trkpt lat="44.13516" lon="3.18988">
        <ele>672.2</ele>
        <time>2024-02-17T16:55:02Z</time>
      </trkpt>
      <trkpt lat="44.13507" lon="3.18983">
        <ele>670.5</ele>
        <time>2024-02-17T16:55:04Z</time>
      </trkpt>
      <trkpt lat="44.13496" lon="3.18975">
        <ele>667.6</ele>
        <time>2024-02-17T16:55:06Z</time>
      </trkpt>
      <trkpt lat="44.13486" lon="3.1897">
        <ele>667.2</ele>
        <time>2024-02-17T16:55:08Z</time>
      </trkpt>
      <trkpt lat="44.13477" lon="3.18965">
        <ele>666.9</ele>
        <time>2024-02-17T16:55:10Z</time>
      </trkpt>
      <trkpt lat="44.13468" lon="3.18962">
        <ele>666.1</ele>
        <time>2024-02-17T16:55:12Z</time>
      </trkpt>
      <trkpt lat="44.13455" lon="3.18965">
        <ele>665.6</ele>
        <time>2024-02-17T16:55:15Z</time>
      </trkpt>
      <trkpt lat="44.13444" lon="3.18971">
        <ele>665.7</ele>
        <time>2024-02-17T16:55:17Z</time>
      </trkpt>
      <trkpt lat="44.13434" lon="3.18976">
        <ele>664.2</ele>
        <time>2024-02-17T16:55:20Z</time>
      </trkpt>
      <trkpt lat="44.13425" lon="3.18981">
        <ele>662.9</ele>
        <time>2024-02-17T16:55:23Z</time>
      </trkpt>
      <trkpt lat="44.13415" lon="3.18986">
        <ele>661.4</ele>
        <time>2024-02-17T16:55:27Z</time>
      </trkpt>
      <trkpt lat="44.13403" lon="3.18987">
        <ele>661.2</ele>
        <time>2024-02-17T16:55:30Z</time>
      </trkpt>
      <trkpt lat="44.13394" lon="3.1899">
        <ele>661.4</ele>
        <time>2024-02-17T16:55:32Z</time>
      </trkpt>
      <trkpt lat="44.13382" lon="3.18992">
        <ele>660.3</ele>
        <time>2024-02-17T16:55:34Z</time>
      </trkpt>
      <trkpt lat="44.13371" lon="3.19001">
        <ele>658.7</ele>
        <time>2024-02-17T16:55:37Z</time>
      </trkpt>
      <trkpt lat="44.13359" lon="3.18997">
        <ele>656.2</ele>
        <time>2024-02-17T16:55:40Z</time>
      </trkpt>
      <trkpt lat="44.13348" lon="3.19">
        <ele>655.5</ele>
        <time>2024-02-17T16:55:46Z</time>
      </trkpt>
      <trkpt lat="44.1334" lon="3.19006">
        <ele>655.6</ele>
        <time>2024-02-17T16:55:48Z</time>
      </trkpt>
      <trkpt lat="44.13329" lon="3.19007">
        <ele>655.1</ele>
        <time>2024-02-17T16:55:52Z</time>
      </trkpt>
      <trkpt lat="44.13319" lon="3.19006">
        <ele>654.6</ele>
        <time>2024-02-17T16:55:56Z</time>
      </trkpt>
      <trkpt lat="44.13309" lon="3.19002">
        <ele>654.1</ele>
        <time>2024-02-17T16:55:59Z</time>
      </trkpt>
      <trkpt lat="44.13297" lon="3.19001">
        <ele>653.5</ele>
        <time>2024-02-17T16:56:02Z</time>
      </trkpt>
      <trkpt lat="44.13288" lon="3.18994">
        <ele>653.7</ele>
        <time>2024-02-17T16:56:04Z</time>
      </trkpt>
      <trkpt lat="44.13279" lon="3.18989">
        <ele>653.7</ele>
        <time>2024-02-17T16:56:07Z</time>
      </trkpt>
      <trkpt lat="44.13268" lon="3.18983">
        <ele>653.1</ele>
        <time>2024-02-17T16:56:11Z</time>
      </trkpt>
      <trkpt lat="44.1326" lon="3.18974">
        <ele>652.7</ele>
        <time>2024-02-17T16:56:16Z</time>
      </trkpt>
      <trkpt lat="44.13251" lon="3.18969">
        <ele>652</ele>
        <time>2024-02-17T16:56:21Z</time>
      </trkpt>
      <trkpt lat="44.13245" lon="3.1896">
        <ele>653.2</ele>
        <time>2024-02-17T16:56:26Z</time>
      </trkpt>
      <trkpt lat="44.13239" lon="3.1895">
        <ele>654.9</ele>
        <time>2024-02-17T16:56:31Z</time>
      </trkpt>
      <trkpt lat="44.1323" lon="3.18951">
        <ele>653.1</ele>
        <time>2024-02-17T16:56:46Z</time>
      </trkpt>
      <trkpt lat="44.13221" lon="3.18951">
        <ele>652</ele>
        <time>2024-02-17T16:56:51Z</time>
      </trkpt>
      <trkpt lat="44.13211" lon="3.1895">
        <ele>653.1</ele>
        <time>2024-02-17T16:56:57Z</time>
      </trkpt>
      <trkpt lat="44.13201" lon="3.18943">
        <ele>656.7</ele>
        <time>2024-02-17T16:57:03Z</time>
      </trkpt>
      <trkpt lat="44.13193" lon="3.18939">
        <ele>658.5</ele>
        <time>2024-02-17T16:57:12Z</time>
      </trkpt>
      <trkpt lat="44.13184" lon="3.18936">
        <ele>659.9</ele>
        <time>2024-02-17T16:57:24Z</time>
      </trkpt>
      <trkpt lat="44.13173" lon="3.18936">
        <ele>660.7</ele>
        <time>2024-02-17T16:57:32Z</time>
      </trkpt>
      <trkpt lat="44.13164" lon="3.18935">
        <ele>661.6</ele>
        <time>2024-02-17T16:57:39Z</time>
      </trkpt>
      <trkpt lat="44.13153" lon="3.18936">
        <ele>662.4</ele>
        <time>2024-02-17T16:57:46Z</time>
      </trkpt>
      <trkpt lat="44.13143" lon="3.18935">
        <ele>663.7</ele>
        <time>2024-02-17T16:57:52Z</time>
      </trkpt>
      <trkpt lat="44.13134" lon="3.18935">
        <ele>663.7</ele>
        <time>2024-02-17T16:57:58Z</time>
      </trkpt>
      <trkpt lat="44.13124" lon="3.18937">
        <ele>662.2</ele>
        <time>2024-02-17T16:58:05Z</time>
      </trkpt>
      <trkpt lat="44.13112" lon="3.1894">
        <ele>660</ele>
        <time>2024-02-17T16:58:12Z</time>
      </trkpt>
      <trkpt lat="44.13103" lon="3.18941">
        <ele>659.5</ele>
        <time>2024-02-17T16:58:16Z</time>
      </trkpt>
      <trkpt lat="44.13093" lon="3.1894">
        <ele>660.1</ele>
        <time>2024-02-17T16:58:20Z</time>
      </trkpt>
      <trkpt lat="44.13084" lon="3.18938">
        <ele>661.6</ele>
        <time>2024-02-17T16:58:26Z</time>
      </trkpt>
      <trkpt lat="44.13075" lon="3.18932">
        <ele>662.4</ele>
        <time>2024-02-17T16:58:33Z</time>
      </trkpt>
      <trkpt lat="44.13067" lon="3.18927">
        <ele>661.1</ele>
        <time>2024-02-17T16:58:41Z</time>
      </trkpt>
      <trkpt lat="44.13061" lon="3.18914">
        <ele>661</ele>
        <time>2024-02-17T16:58:46Z</time>
      </trkpt>
      <trkpt lat="44.13054" lon="3.18902">
        <ele>655.9</ele>
        <time>2024-02-17T16:58:50Z</time>
      </trkpt>
      <trkpt lat="44.13048" lon="3.1889">
        <ele>652.1</ele>
        <time>2024-02-17T16:58:54Z</time>
      </trkpt>
      <trkpt lat="44.13041" lon="3.18881">
        <ele>649.6</ele>
        <time>2024-02-17T16:58:58Z</time>
      </trkpt>
      <trkpt lat="44.13031" lon="3.18875">
        <ele>645</ele>
        <time>2024-02-17T16:59:04Z</time>
      </trkpt>
      <trkpt lat="44.13023" lon="3.18872">
        <ele>641.6</ele>
        <time>2024-02-17T16:59:08Z</time>
      </trkpt>
      <trkpt lat="44.13012" lon="3.1887">
        <ele>637.1</ele>
        <time>2024-02-17T16:59:14Z</time>
      </trkpt>
      <trkpt lat="44.13003" lon="3.18875">
        <ele>631</ele>
        <time>2024-02-17T16:59:22Z</time>
      </trkpt>
      <trkpt lat="44.12994" lon="3.18869">
        <ele>628.7</ele>
        <time>2024-02-17T16:59:27Z</time>
      </trkpt>
      <trkpt lat="44.12985" lon="3.18861">
        <ele>626.4</ele>
        <time>2024-02-17T16:59:32Z</time>
      </trkpt>
      <trkpt lat="44.12976" lon="3.18862">
        <ele>621</ele>
        <time>2024-02-17T16:59:37Z</time>
      </trkpt>
      <trkpt lat="44.12967" lon="3.18863">
        <ele>616.3</ele>
        <time>2024-02-17T16:59:45Z</time>
      </trkpt>
      <trkpt lat="44.1296" lon="3.18871">
        <ele>610.8</ele>
        <time>2024-02-17T17:00:15Z</time>
      </trkpt>
      <trkpt lat="44.12953" lon="3.1888">
        <ele>604.3</ele>
        <time>2024-02-17T17:00:34Z</time>
      </trkpt>
      <trkpt lat="44.1295" lon="3.18892">
        <ele>598.4</ele>
        <time>2024-02-17T17:01:01Z</time>
      </trkpt>
      <trkpt lat="44.12951" lon="3.18905">
        <ele>594.7</ele>
        <time>2024-02-17T17:01:16Z</time>
      </trkpt>
      <trkpt lat="44.1295" lon="3.18918">
        <ele>590</ele>
        <time>2024-02-17T17:01:34Z</time>
      </trkpt>
      <trkpt lat="44.12943" lon="3.18926">
        <ele>584.4</ele>
        <time>2024-02-17T17:01:59Z</time>
      </trkpt>
      <trkpt lat="44.12934" lon="3.18925">
        <ele>580.9</ele>
        <time>2024-02-17T17:02:05Z</time>
      </trkpt>
      <trkpt lat="44.12925" lon="3.18929">
        <ele>575.7</ele>
        <time>2024-02-17T17:02:12Z</time>
      </trkpt>
      <trkpt lat="44.12919" lon="3.1894">
        <ele>568.8</ele>
        <time>2024-02-17T17:02:18Z</time>
      </trkpt>
      <trkpt lat="44.12909" lon="3.18943">
        <ele>564.7</ele>
        <time>2024-02-17T17:02:25Z</time>
      </trkpt>
      <trkpt lat="44.129" lon="3.18944">
        <ele>562</ele>
        <time>2024-02-17T17:02:30Z</time>
      </trkpt>
      <trkpt lat="44.12889" lon="3.18948">
        <ele>558</ele>
        <time>2024-02-17T17:02:35Z</time>
      </trkpt>
      <trkpt lat="44.1288" lon="3.18945">
        <ele>556.6</ele>
        <time>2024-02-17T17:02:39Z</time>
      </trkpt>
      <trkpt lat="44.12869" lon="3.18946">
        <ele>553.5</ele>
        <time>2024-02-17T17:02:43Z</time>
      </trkpt>
      <trkpt lat="44.1286" lon="3.18949">
        <ele>550.2</ele>
        <time>2024-02-17T17:02:49Z</time>
      </trkpt>
      <trkpt lat="44.12851" lon="3.18956">
        <ele>546.4</ele>
        <time>2024-02-17T17:02:53Z</time>
      </trkpt>
      <trkpt lat="44.12841" lon="3.18959">
        <ele>543.9</ele>
        <time>2024-02-17T17:02:59Z</time>
      </trkpt>
      <trkpt lat="44.12829" lon="3.18967">
        <ele>540.1</ele>
        <time>2024-02-17T17:03:03Z</time>
      </trkpt>
      <trkpt lat="44.12821" lon="3.18975">
        <ele>537.5</ele>
        <time>2024-02-17T17:03:08Z</time>
      </trkpt>
      <trkpt lat="44.12812" lon="3.18981">
        <ele>535.1</ele>
        <time>2024-02-17T17:03:15Z</time>
      </trkpt>
      <trkpt lat="44.12802" lon="3.18988">
        <ele>531.9</ele>
        <time>2024-02-17T17:03:19Z</time>
      </trkpt>
      <trkpt lat="44.12795" lon="3.18996">
        <ele>528.6</ele>
        <time>2024-02-17T17:03:22Z</time>
      </trkpt>
      <trkpt lat="44.12784" lon="3.18998">
        <ele>528.5</ele>
        <time>2024-02-17T17:03:26Z</time>
      </trkpt>
      <trkpt lat="44.12773" lon="3.18999">
        <ele>528.5</ele>
        <time>2024-02-17T17:03:29Z</time>
      </trkpt>
      <trkpt lat="44.12763" lon="3.18999">
        <ele>528.4</ele>
        <time>2024-02-17T17:03:32Z</time>
      </trkpt>
      <trkpt lat="44.12754" lon="3.19004">
        <ele>526.8</ele>
        <time>2024-02-17T17:03:34Z</time>
      </trkpt>
      <trkpt lat="44.12744" lon="3.19008">
        <ele>524.9</ele>
        <time>2024-02-17T17:03:37Z</time>
      </trkpt>
      <trkpt lat="44.12734" lon="3.1901">
        <ele>523</ele>
        <time>2024-02-17T17:03:40Z</time>
      </trkpt>
      <trkpt lat="44.12724" lon="3.19014">
        <ele>520.2</ele>
        <time>2024-02-17T17:03:44Z</time>
      </trkpt>
      <trkpt lat="44.12714" lon="3.19016">
        <ele>517.3</ele>
        <time>2024-02-17T17:03:47Z</time>
      </trkpt>
      <trkpt lat="44.12705" lon="3.19013">
        <ele>516.3</ele>
        <time>2024-02-17T17:03:50Z</time>
      </trkpt>
      <trkpt lat="44.12694" lon="3.19012">
        <ele>514</ele>
        <time>2024-02-17T17:03:53Z</time>
      </trkpt>
      <trkpt lat="44.12685" lon="3.19006">
        <ele>513.3</ele>
        <time>2024-02-17T17:03:56Z</time>
      </trkpt>
      <trkpt lat="44.12675" lon="3.19003">
        <ele>511</ele>
        <time>2024-02-17T17:04:00Z</time>
      </trkpt>
      <trkpt lat="44.12666" lon="3.19007">
        <ele>507.6</ele>
        <time>2024-02-17T17:04:02Z</time>
      </trkpt>
      <trkpt lat="44.12655" lon="3.1901">
        <ele>505.4</ele>
        <time>2024-02-17T17:04:05Z</time>
      </trkpt>
      <trkpt lat="44.12644" lon="3.19011">
        <ele>503.4</ele>
        <time>2024-02-17T17:04:08Z</time>
      </trkpt>
      <trkpt lat="44.12634" lon="3.19011">
        <ele>502.4</ele>
        <time>2024-02-17T17:04:11Z</time>
      </trkpt>
      <trkpt lat="44.12621" lon="3.19015">
        <ele>501.1</ele>
        <time>2024-02-17T17:04:14Z</time>
      </trkpt>
      <trkpt lat="44.1261" lon="3.19022">
        <ele>499.1</ele>
        <time>2024-02-17T17:04:17Z</time>
      </trkpt>
      <trkpt lat="44.12599" lon="3.19022">
        <ele>497.7</ele>
        <time>2024-02-17T17:04:20Z</time>
      </trkpt>
      <trkpt lat="44.12588" lon="3.19014">
        <ele>498.5</ele>
        <time>2024-02-17T17:04:23Z</time>
      </trkpt>
      <trkpt lat="44.12577" lon="3.19008">
        <ele>496</ele>
        <time>2024-02-17T17:04:26Z</time>
      </trkpt>
      <trkpt lat="44.12568" lon="3.19003">
        <ele>492.2</ele>
        <time>2024-02-17T17:04:28Z</time>
      </trkpt>
      <trkpt lat="44.12557" lon="3.19001">
        <ele>486.5</ele>
        <time>2024-02-17T17:04:31Z</time>
      </trkpt>
      <trkpt lat="44.12547" lon="3.19004">
        <ele>480.6</ele>
        <time>2024-02-17T17:04:35Z</time>
      </trkpt>
      <trkpt lat="44.12538" lon="3.19004">
        <ele>476.3</ele>
        <time>2024-02-17T17:04:37Z</time>
      </trkpt>
      <trkpt lat="44.12527" lon="3.19008">
        <ele>469.8</ele>
        <time>2024-02-17T17:04:40Z</time>
      </trkpt>
      <trkpt lat="44.12518" lon="3.19011">
        <ele>467.7</ele>
        <time>2024-02-17T17:04:43Z</time>
      </trkpt>
      <trkpt lat="44.12505" lon="3.19018">
        <ele>462.2</ele>
        <time>2024-02-17T17:04:46Z</time>
      </trkpt>
      <trkpt lat="44.12494" lon="3.19022">
        <ele>460.7</ele>
        <time>2024-02-17T17:04:49Z</time>
      </trkpt>
      <trkpt lat="44.12483" lon="3.19029">
        <ele>460.7</ele>
        <time>2024-02-17T17:04:52Z</time>
      </trkpt>
      <trkpt lat="44.12471" lon="3.19036">
        <ele>460.1</ele>
        <time>2024-02-17T17:04:55Z</time>
      </trkpt>
      <trkpt lat="44.12457" lon="3.19038">
        <ele>460.2</ele>
        <time>2024-02-17T17:04:58Z</time>
      </trkpt>
      <trkpt lat="44.12447" lon="3.19038">
        <ele>461.2</ele>
        <time>2024-02-17T17:05:00Z</time>
      </trkpt>
      <trkpt lat="44.12436" lon="3.19037">
        <ele>461.6</ele>
        <time>2024-02-17T17:05:02Z</time>
      </trkpt>
      <trkpt lat="44.12427" lon="3.19035">
        <ele>462</ele>
        <time>2024-02-17T17:05:04Z</time>
      </trkpt>
      <trkpt lat="44.12415" lon="3.19033">
        <ele>461.4</ele>
        <time>2024-02-17T17:05:07Z</time>
      </trkpt>
      <trkpt lat="44.12406" lon="3.1903">
        <ele>458.6</ele>
        <time>2024-02-17T17:05:10Z</time>
      </trkpt>
      <trkpt lat="44.12396" lon="3.19023">
        <ele>457</ele>
        <time>2024-02-17T17:05:13Z</time>
      </trkpt>
      <trkpt lat="44.12385" lon="3.19018">
        <ele>454.9</ele>
        <time>2024-02-17T17:05:16Z</time>
      </trkpt>
      <trkpt lat="44.12376" lon="3.19014">
        <ele>453.8</ele>
        <time>2024-02-17T17:05:19Z</time>
      </trkpt>
      <trkpt lat="44.12366" lon="3.19012">
        <ele>451.5</ele>
        <time>2024-02-17T17:05:22Z</time>
      </trkpt>
      <trkpt lat="44.12355" lon="3.19013">
        <ele>449.1</ele>
        <time>2024-02-17T17:05:25Z</time>
      </trkpt>
      <trkpt lat="44.12346" lon="3.19021">
        <ele>444.2</ele>
        <time>2024-02-17T17:05:28Z</time>
      </trkpt>
      <trkpt lat="44.12336" lon="3.1903">
        <ele>438.5</ele>
        <time>2024-02-17T17:05:31Z</time>
      </trkpt>
      <trkpt lat="44.12329" lon="3.19037">
        <ele>437.3</ele>
        <time>2024-02-17T17:05:34Z</time>
      </trkpt>
      <trkpt lat="44.12322" lon="3.1905">
        <ele>434.6</ele>
        <time>2024-02-17T17:05:38Z</time>
      </trkpt>
      <trkpt lat="44.12313" lon="3.19059">
        <ele>434.2</ele>
        <time>2024-02-17T17:05:41Z</time>
      </trkpt>
      <trkpt lat="44.12306" lon="3.19068">
        <ele>432.9</ele>
        <time>2024-02-17T17:05:44Z</time>
      </trkpt>
      <trkpt lat="44.12299" lon="3.19077">
        <ele>433.6</ele>
        <time>2024-02-17T17:05:49Z</time>
      </trkpt>
      <trkpt lat="44.12286" lon="3.19083">
        <ele>438.7</ele>
        <time>2024-02-17T17:05:53Z</time>
      </trkpt>
      <trkpt lat="44.12295" lon="3.19085">
        <ele>433.1</ele>
        <time>2024-02-17T17:06:01Z</time>
      </trkpt>
      <trkpt lat="44.12306" lon="3.19075">
        <ele>430.7</ele>
        <time>2024-02-17T17:06:04Z</time>
      </trkpt>
      <trkpt lat="44.12307" lon="3.19092">
        <ele>427</ele>
        <time>2024-02-17T17:06:13Z</time>
      </trkpt>
      <trkpt lat="44.12303" lon="3.1911">
        <ele>423.6</ele>
        <time>2024-02-17T17:06:16Z</time>
      </trkpt>
      <trkpt lat="44.12296" lon="3.1912">
        <ele>425.7</ele>
        <time>2024-02-17T17:06:20Z</time>
      </trkpt>
      <trkpt lat="44.12284" lon="3.19129">
        <ele>424</ele>
        <time>2024-02-17T17:06:23Z</time>
      </trkpt>
      <trkpt lat="44.12275" lon="3.19133">
        <ele>421</ele>
        <time>2024-02-17T17:06:25Z</time>
      </trkpt>
      <trkpt lat="44.12262" lon="3.1914">
        <ele>416.5</ele>
        <time>2024-02-17T17:06:28Z</time>
      </trkpt>
      <trkpt lat="44.12251" lon="3.19142">
        <ele>414.6</ele>
        <time>2024-02-17T17:06:31Z</time>
      </trkpt>
      <trkpt lat="44.12242" lon="3.19138">
        <ele>412.8</ele>
        <time>2024-02-17T17:06:34Z</time>
      </trkpt>
      <trkpt lat="44.12232" lon="3.19129">
        <ele>414.5</ele>
        <time>2024-02-17T17:06:37Z</time>
      </trkpt>
      <trkpt lat="44.12223" lon="3.19126">
        <ele>413.1</ele>
        <time>2024-02-17T17:06:40Z</time>
      </trkpt>
      <trkpt lat="44.1221" lon="3.19133">
        <ele>409.4</ele>
        <time>2024-02-17T17:06:42Z</time>
      </trkpt>
      <trkpt lat="44.12201" lon="3.19136">
        <ele>407.4</ele>
        <time>2024-02-17T17:06:44Z</time>
      </trkpt>
      <trkpt lat="44.12191" lon="3.19133">
        <ele>406.1</ele>
        <time>2024-02-17T17:06:47Z</time>
      </trkpt>
      <trkpt lat="44.12182" lon="3.19138">
        <ele>404.4</ele>
        <time>2024-02-17T17:06:49Z</time>
      </trkpt>
      <trkpt lat="44.12174" lon="3.19145">
        <ele>403.4</ele>
        <time>2024-02-17T17:06:51Z</time>
      </trkpt>
      <trkpt lat="44.12168" lon="3.19155">
        <ele>401.9</ele>
        <time>2024-02-17T17:06:53Z</time>
      </trkpt>
      <trkpt lat="44.12162" lon="3.1917">
        <ele>403.9</ele>
        <time>2024-02-17T17:06:56Z</time>
      </trkpt>
      <trkpt lat="44.12158" lon="3.19183">
        <ele>404.2</ele>
        <time>2024-02-17T17:06:58Z</time>
      </trkpt>
      <trkpt lat="44.12152" lon="3.19195">
        <ele>402.5</ele>
        <time>2024-02-17T17:07:00Z</time>
      </trkpt>
      <trkpt lat="44.12149" lon="3.1921">
        <ele>400.4</ele>
        <time>2024-02-17T17:07:02Z</time>
      </trkpt>
      <trkpt lat="44.12143" lon="3.19225">
        <ele>396.2</ele>
        <time>2024-02-17T17:07:04Z</time>
      </trkpt>
      <trkpt lat="44.12139" lon="3.19239">
        <ele>392.6</ele>
        <time>2024-02-17T17:07:06Z</time>
      </trkpt>
      <trkpt lat="44.1213" lon="3.19245">
        <ele>391.4</ele>
        <time>2024-02-17T17:07:10Z</time>
      </trkpt>
      <trkpt lat="44.12121" lon="3.19237">
        <ele>392.2</ele>
        <time>2024-02-17T17:07:14Z</time>
      </trkpt>
      <trkpt lat="44.12114" lon="3.19227">
        <ele>393.4</ele>
        <time>2024-02-17T17:07:17Z</time>
      </trkpt>
      <trkpt lat="44.12107" lon="3.19215">
        <ele>394.6</ele>
        <time>2024-02-17T17:07:20Z</time>
      </trkpt>
      <trkpt lat="44.12101" lon="3.192">
        <ele>395.9</ele>
        <time>2024-02-17T17:07:23Z</time>
      </trkpt>
      <trkpt lat="44.12096" lon="3.19182">
        <ele>396.4</ele>
        <time>2024-02-17T17:07:26Z</time>
      </trkpt>
      <trkpt lat="44.12095" lon="3.19169">
        <ele>397.3</ele>
        <time>2024-02-17T17:07:28Z</time>
      </trkpt>
      <trkpt lat="44.12094" lon="3.19156">
        <ele>397.6</ele>
        <time>2024-02-17T17:07:30Z</time>
      </trkpt>
      <trkpt lat="44.12095" lon="3.19142">
        <ele>399.4</ele>
        <time>2024-02-17T17:07:32Z</time>
      </trkpt>
      <trkpt lat="44.12096" lon="3.19129">
        <ele>400.1</ele>
        <time>2024-02-17T17:07:34Z</time>
      </trkpt>
      <trkpt lat="44.12099" lon="3.19115">
        <ele>402.1</ele>
        <time>2024-02-17T17:07:37Z</time>
      </trkpt>
      <trkpt lat="44.12102" lon="3.19101">
        <ele>401</ele>
        <time>2024-02-17T17:07:39Z</time>
      </trkpt>
      <trkpt lat="44.12107" lon="3.19085">
        <ele>398.4</ele>
        <time>2024-02-17T17:07:41Z</time>
      </trkpt>
      <trkpt lat="44.12112" lon="3.19069">
        <ele>395.5</ele>
        <time>2024-02-17T17:07:43Z</time>
      </trkpt>
      <trkpt lat="44.12117" lon="3.19053">
        <ele>394.6</ele>
        <time>2024-02-17T17:07:45Z</time>
      </trkpt>
      <trkpt lat="44.12122" lon="3.19038">
        <ele>396.9</ele>
        <time>2024-02-17T17:07:47Z</time>
      </trkpt>
      <trkpt lat="44.12126" lon="3.19023">
        <ele>397.6</ele>
        <time>2024-02-17T17:07:49Z</time>
      </trkpt>
      <trkpt lat="44.1213" lon="3.19008">
        <ele>396.2</ele>
        <time>2024-02-17T17:07:51Z</time>
      </trkpt>
      <trkpt lat="44.12134" lon="3.18994">
        <ele>394.8</ele>
        <time>2024-02-17T17:07:53Z</time>
      </trkpt>
      <trkpt lat="44.12135" lon="3.18978">
        <ele>391.3</ele>
        <time>2024-02-17T17:07:55Z</time>
      </trkpt>
      <trkpt lat="44.12137" lon="3.18964">
        <ele>389.9</ele>
        <time>2024-02-17T17:07:57Z</time>
      </trkpt>
      <trkpt lat="44.12138" lon="3.18948">
        <ele>389.1</ele>
        <time>2024-02-17T17:07:59Z</time>
      </trkpt>
      <trkpt lat="44.12138" lon="3.18931">
        <ele>388.3</ele>
        <time>2024-02-17T17:08:01Z</time>
      </trkpt>
      <trkpt lat="44.12138" lon="3.18914">
        <ele>388</ele>
        <time>2024-02-17T17:08:03Z</time>
      </trkpt>
      <trkpt lat="44.12137" lon="3.18897">
        <ele>389</ele>
        <time>2024-02-17T17:08:05Z</time>
      </trkpt>
      <trkpt lat="44.12136" lon="3.1888">
        <ele>390.4</ele>
        <time>2024-02-17T17:08:07Z</time>
      </trkpt>
      <trkpt lat="44.12134" lon="3.18863">
        <ele>391.8</ele>
        <time>2024-02-17T17:08:09Z</time>
      </trkpt>
      <trkpt lat="44.12131" lon="3.18848">
        <ele>391.2</ele>
        <time>2024-02-17T17:08:11Z</time>
      </trkpt>
      <trkpt lat="44.12128" lon="3.18833">
        <ele>390.3</ele>
        <time>2024-02-17T17:08:13Z</time>
      </trkpt>
      <trkpt lat="44.12124" lon="3.18818">
        <ele>390.7</ele>
        <time>2024-02-17T17:08:15Z</time>
      </trkpt>
      <trkpt lat="44.1212" lon="3.18803">
        <ele>390.8</ele>
        <time>2024-02-17T17:08:17Z</time>
      </trkpt>
      <trkpt lat="44.12116" lon="3.18789">
        <ele>390.2</ele>
        <time>2024-02-17T17:08:19Z</time>
      </trkpt>
      <trkpt lat="44.12111" lon="3.18774">
        <ele>388.9</ele>
        <time>2024-02-17T17:08:21Z</time>
      </trkpt>
      <trkpt lat="44.12106" lon="3.1876">
        <ele>390.7</ele>
        <time>2024-02-17T17:08:23Z</time>
      </trkpt>
      <trkpt lat="44.121" lon="3.18746">
        <ele>391.3</ele>
        <time>2024-02-17T17:08:25Z</time>
      </trkpt>
      <trkpt lat="44.12094" lon="3.18733">
        <ele>391.5</ele>
        <time>2024-02-17T17:08:27Z</time>
      </trkpt>
      <trkpt lat="44.12087" lon="3.1872">
        <ele>390</ele>
        <time>2024-02-17T17:08:29Z</time>
      </trkpt>
      <trkpt lat="44.12081" lon="3.18706">
        <ele>390.3</ele>
        <time>2024-02-17T17:08:31Z</time>
      </trkpt>
      <trkpt lat="44.12075" lon="3.18693">
        <ele>391.1</ele>
        <time>2024-02-17T17:08:33Z</time>
      </trkpt>
      <trkpt lat="44.12068" lon="3.18679">
        <ele>391.1</ele>
        <time>2024-02-17T17:08:35Z</time>
      </trkpt>
      <trkpt lat="44.12062" lon="3.18665">
        <ele>390.4</ele>
        <time>2024-02-17T17:08:37Z</time>
      </trkpt>
      <trkpt lat="44.12057" lon="3.1865">
        <ele>390.7</ele>
        <time>2024-02-17T17:08:39Z</time>
      </trkpt>
      <trkpt lat="44.12052" lon="3.18636">
        <ele>391.4</ele>
        <time>2024-02-17T17:08:41Z</time>
      </trkpt>
      <trkpt lat="44.12048" lon="3.18622">
        <ele>392.7</ele>
        <time>2024-02-17T17:08:43Z</time>
      </trkpt>
      <trkpt lat="44.12045" lon="3.18608">
        <ele>393.9</ele>
        <time>2024-02-17T17:08:45Z</time>
      </trkpt>
      <trkpt lat="44.12041" lon="3.18593">
        <ele>394.3</ele>
        <time>2024-02-17T17:08:47Z</time>
      </trkpt>
      <trkpt lat="44.12037" lon="3.18578">
        <ele>394.4</ele>
        <time>2024-02-17T17:08:49Z</time>
      </trkpt>
      <trkpt lat="44.12034" lon="3.18564">
        <ele>395</ele>
        <time>2024-02-17T17:08:51Z</time>
      </trkpt>
      <trkpt lat="44.1203" lon="3.18549">
        <ele>392.8</ele>
        <time>2024-02-17T17:08:53Z</time>
      </trkpt>
      <trkpt lat="44.12027" lon="3.18535">
        <ele>392.4</ele>
        <time>2024-02-17T17:08:55Z</time>
      </trkpt>
      <trkpt lat="44.12024" lon="3.1852">
        <ele>396.1</ele>
        <time>2024-02-17T17:08:57Z</time>
      </trkpt>
      <trkpt lat="44.12022" lon="3.18504">
        <ele>402</ele>
        <time>2024-02-17T17:08:59Z</time>
      </trkpt>
      <trkpt lat="44.1202" lon="3.18488">
        <ele>404.5</ele>
        <time>2024-02-17T17:09:01Z</time>
      </trkpt>
      <trkpt lat="44.1202" lon="3.18473">
        <ele>408.2</ele>
        <time>2024-02-17T17:09:03Z</time>
      </trkpt>
      <trkpt lat="44.12017" lon="3.18459">
        <ele>402</ele>
        <time>2024-02-17T17:09:05Z</time>
      </trkpt>
      <trkpt lat="44.12013" lon="3.18446">
        <ele>395.8</ele>
        <time>2024-02-17T17:09:07Z</time>
      </trkpt>
      <trkpt lat="44.12006" lon="3.18431">
        <ele>392.1</ele>
        <time>2024-02-17T17:09:09Z</time>
      </trkpt>
      <trkpt lat="44.11998" lon="3.18417">
        <ele>387.4</ele>
        <time>2024-02-17T17:09:11Z</time>
      </trkpt>
      <trkpt lat="44.11991" lon="3.18405">
        <ele>388.7</ele>
        <time>2024-02-17T17:09:13Z</time>
      </trkpt>
      <trkpt lat="44.11984" lon="3.18392">
        <ele>388</ele>
        <time>2024-02-17T17:09:15Z</time>
      </trkpt>
      <trkpt lat="44.11978" lon="3.18377">
        <ele>387.7</ele>
        <time>2024-02-17T17:09:17Z</time>
      </trkpt>
      <trkpt lat="44.11973" lon="3.18363">
        <ele>388</ele>
        <time>2024-02-17T17:09:19Z</time>
      </trkpt>
      <trkpt lat="44.11968" lon="3.18349">
        <ele>390.9</ele>
        <time>2024-02-17T17:09:21Z</time>
      </trkpt>
      <trkpt lat="44.11962" lon="3.18335">
        <ele>391.9</ele>
        <time>2024-02-17T17:09:23Z</time>
      </trkpt>
      <trkpt lat="44.11957" lon="3.18321">
        <ele>393.5</ele>
        <time>2024-02-17T17:09:25Z</time>
      </trkpt>
      <trkpt lat="44.11952" lon="3.18308">
        <ele>392.8</ele>
        <time>2024-02-17T17:09:27Z</time>
      </trkpt>
      <trkpt lat="44.11946" lon="3.18294">
        <ele>390.5</ele>
        <time>2024-02-17T17:09:29Z</time>
      </trkpt>
      <trkpt lat="44.1194" lon="3.18281">
        <ele>391</ele>
        <time>2024-02-17T17:09:31Z</time>
      </trkpt>
      <trkpt lat="44.11934" lon="3.18269">
        <ele>392.2</ele>
        <time>2024-02-17T17:09:33Z</time>
      </trkpt>
      <trkpt lat="44.11929" lon="3.18257">
        <ele>393.3</ele>
        <time>2024-02-17T17:09:35Z</time>
      </trkpt>
      <trkpt lat="44.11923" lon="3.18245">
        <ele>392.6</ele>
        <time>2024-02-17T17:09:37Z</time>
      </trkpt>
      <trkpt lat="44.11916" lon="3.18235">
        <ele>389.5</ele>
        <time>2024-02-17T17:09:39Z</time>
      </trkpt>
      <trkpt lat="44.11909" lon="3.18225">
        <ele>389.6</ele>
        <time>2024-02-17T17:09:41Z</time>
      </trkpt>
      <trkpt lat="44.11902" lon="3.18215">
        <ele>389</ele>
        <time>2024-02-17T17:09:43Z</time>
      </trkpt>
      <trkpt lat="44.11896" lon="3.18205">
        <ele>389.1</ele>
        <time>2024-02-17T17:09:45Z</time>
      </trkpt>
      <trkpt lat="44.11889" lon="3.18196">
        <ele>389.7</ele>
        <time>2024-02-17T17:09:47Z</time>
      </trkpt>
      <trkpt lat="44.11883" lon="3.18186">
        <ele>390.9</ele>
        <time>2024-02-17T17:09:49Z</time>
      </trkpt>
      <trkpt lat="44.11877" lon="3.18177">
        <ele>391</ele>
        <time>2024-02-17T17:09:51Z</time>
      </trkpt>
      <trkpt lat="44.11871" lon="3.18167">
        <ele>390.6</ele>
        <time>2024-02-17T17:09:53Z</time>
      </trkpt>
      <trkpt lat="44.11864" lon="3.18159">
        <ele>390.3</ele>
        <time>2024-02-17T17:09:55Z</time>
      </trkpt>
      <trkpt lat="44.11858" lon="3.18149">
        <ele>391.4</ele>
        <time>2024-02-17T17:09:57Z</time>
      </trkpt>
      <trkpt lat="44.11851" lon="3.18138">
        <ele>392.3</ele>
        <time>2024-02-17T17:09:59Z</time>
      </trkpt>
      <trkpt lat="44.11844" lon="3.18128">
        <ele>392.2</ele>
        <time>2024-02-17T17:10:01Z</time>
      </trkpt>
      <trkpt lat="44.11838" lon="3.18117">
        <ele>392.1</ele>
        <time>2024-02-17T17:10:03Z</time>
      </trkpt>
      <trkpt lat="44.11831" lon="3.18105">
        <ele>391.7</ele>
        <time>2024-02-17T17:10:05Z</time>
      </trkpt>
      <trkpt lat="44.11825" lon="3.18093">
        <ele>392.1</ele>
        <time>2024-02-17T17:10:07Z</time>
      </trkpt>
      <trkpt lat="44.11819" lon="3.18081">
        <ele>392</ele>
        <time>2024-02-17T17:10:09Z</time>
      </trkpt>
      <trkpt lat="44.11814" lon="3.18068">
        <ele>392.9</ele>
        <time>2024-02-17T17:10:11Z</time>
      </trkpt>
      <trkpt lat="44.1181" lon="3.18055">
        <ele>393.8</ele>
        <time>2024-02-17T17:10:13Z</time>
      </trkpt>
      <trkpt lat="44.11805" lon="3.18042">
        <ele>391.8</ele>
        <time>2024-02-17T17:10:15Z</time>
      </trkpt>
      <trkpt lat="44.11801" lon="3.18029">
        <ele>391.1</ele>
        <time>2024-02-17T17:10:17Z</time>
      </trkpt>
      <trkpt lat="44.11797" lon="3.18015">
        <ele>390.7</ele>
        <time>2024-02-17T17:10:19Z</time>
      </trkpt>
      <trkpt lat="44.11792" lon="3.18002">
        <ele>389.9</ele>
        <time>2024-02-17T17:10:21Z</time>
      </trkpt>
      <trkpt lat="44.11787" lon="3.17989">
        <ele>390.6</ele>
        <time>2024-02-17T17:10:23Z</time>
      </trkpt>
      <trkpt lat="44.11781" lon="3.17976">
        <ele>389.6</ele>
        <time>2024-02-17T17:10:25Z</time>
      </trkpt>
      <trkpt lat="44.11774" lon="3.17963">
        <ele>389.5</ele>
        <time>2024-02-17T17:10:27Z</time>
      </trkpt>
      <trkpt lat="44.11767" lon="3.17949">
        <ele>390.7</ele>
        <time>2024-02-17T17:10:29Z</time>
      </trkpt>
      <trkpt lat="44.1176" lon="3.17935">
        <ele>390.6</ele>
        <time>2024-02-17T17:10:31Z</time>
      </trkpt>
      <trkpt lat="44.11753" lon="3.17921">
        <ele>389.2</ele>
        <time>2024-02-17T17:10:33Z</time>
      </trkpt>
      <trkpt lat="44.11745" lon="3.17909">
        <ele>389.4</ele>
        <time>2024-02-17T17:10:35Z</time>
      </trkpt>
      <trkpt lat="44.11737" lon="3.17898">
        <ele>390</ele>
        <time>2024-02-17T17:10:37Z</time>
      </trkpt>
      <trkpt lat="44.11728" lon="3.17889">
        <ele>388.5</ele>
        <time>2024-02-17T17:10:39Z</time>
      </trkpt>
      <trkpt lat="44.11719" lon="3.1788">
        <ele>388.2</ele>
        <time>2024-02-17T17:10:41Z</time>
      </trkpt>
      <trkpt lat="44.11709" lon="3.17871">
        <ele>388.4</ele>
        <time>2024-02-17T17:10:43Z</time>
      </trkpt>
      <trkpt lat="44.11699" lon="3.17862">
        <ele>387.3</ele>
        <time>2024-02-17T17:10:45Z</time>
      </trkpt>
      <trkpt lat="44.11689" lon="3.17853">
        <ele>387.2</ele>
        <time>2024-02-17T17:10:47Z</time>
      </trkpt>
      <trkpt lat="44.11679" lon="3.17843">
        <ele>388</ele>
        <time>2024-02-17T17:10:49Z</time>
      </trkpt>
      <trkpt lat="44.1167" lon="3.17831">
        <ele>389.5</ele>
        <time>2024-02-17T17:10:51Z</time>
      </trkpt>
      <trkpt lat="44.11661" lon="3.17819">
        <ele>391.5</ele>
        <time>2024-02-17T17:10:53Z</time>
      </trkpt>
      <trkpt lat="44.11653" lon="3.17805">
        <ele>392.4</ele>
        <time>2024-02-17T17:10:55Z</time>
      </trkpt>
      <trkpt lat="44.11645" lon="3.17792">
        <ele>393.9</ele>
        <time>2024-02-17T17:10:57Z</time>
      </trkpt>
      <trkpt lat="44.11639" lon="3.1778">
        <ele>395.2</ele>
        <time>2024-02-17T17:10:59Z</time>
      </trkpt>
      <trkpt lat="44.11633" lon="3.17768">
        <ele>395.8</ele>
        <time>2024-02-17T17:11:01Z</time>
      </trkpt>
      <trkpt lat="44.11627" lon="3.17756">
        <ele>395.3</ele>
        <time>2024-02-17T17:11:03Z</time>
      </trkpt>
      <trkpt lat="44.11621" lon="3.17744">
        <ele>394.8</ele>
        <time>2024-02-17T17:11:05Z</time>
      </trkpt>
      <trkpt lat="44.11614" lon="3.17733">
        <ele>393.9</ele>
        <time>2024-02-17T17:11:07Z</time>
      </trkpt>
      <trkpt lat="44.11608" lon="3.1772">
        <ele>394.7</ele>
        <time>2024-02-17T17:11:09Z</time>
      </trkpt>
      <trkpt lat="44.11602" lon="3.17708">
        <ele>394.5</ele>
        <time>2024-02-17T17:11:11Z</time>
      </trkpt>
      <trkpt lat="44.11596" lon="3.17695">
        <ele>394.5</ele>
        <time>2024-02-17T17:11:13Z</time>
      </trkpt>
      <trkpt lat="44.1159" lon="3.17683">
        <ele>394.3</ele>
        <time>2024-02-17T17:11:15Z</time>
      </trkpt>
      <trkpt lat="44.11584" lon="3.17671">
        <ele>393.3</ele>
        <time>2024-02-17T17:11:17Z</time>
      </trkpt>
      <trkpt lat="44.11578" lon="3.17658">
        <ele>393.1</ele>
        <time>2024-02-17T17:11:19Z</time>
      </trkpt>
      <trkpt lat="44.11572" lon="3.17646">
        <ele>392.4</ele>
        <time>2024-02-17T17:11:21Z</time>
      </trkpt>
      <trkpt lat="44.11566" lon="3.17633">
        <ele>392.1</ele>
        <time>2024-02-17T17:11:23Z</time>
      </trkpt>
      <trkpt lat="44.1156" lon="3.1762">
        <ele>392.2</ele>
        <time>2024-02-17T17:11:25Z</time>
      </trkpt>
      <trkpt lat="44.11555" lon="3.17607">
        <ele>392.9</ele>
        <time>2024-02-17T17:11:27Z</time>
      </trkpt>
      <trkpt lat="44.1155" lon="3.17595">
        <ele>393.4</ele>
        <time>2024-02-17T17:11:29Z</time>
      </trkpt>
      <trkpt lat="44.11545" lon="3.17582">
        <ele>393.9</ele>
        <time>2024-02-17T17:11:31Z</time>
      </trkpt>
      <trkpt lat="44.1154" lon="3.1757">
        <ele>394.3</ele>
        <time>2024-02-17T17:11:33Z</time>
      </trkpt>
      <trkpt lat="44.11535" lon="3.17557">
        <ele>394.5</ele>
        <time>2024-02-17T17:11:35Z</time>
      </trkpt>
      <trkpt lat="44.1153" lon="3.17545">
        <ele>395</ele>
        <time>2024-02-17T17:11:37Z</time>
      </trkpt>
      <trkpt lat="44.11524" lon="3.17532">
        <ele>395.2</ele>
        <time>2024-02-17T17:11:39Z</time>
      </trkpt>
      <trkpt lat="44.11519" lon="3.1752">
        <ele>394.7</ele>
        <time>2024-02-17T17:11:41Z</time>
      </trkpt>
      <trkpt lat="44.11513" lon="3.17508">
        <ele>393.2</ele>
        <time>2024-02-17T17:11:43Z</time>
      </trkpt>
      <trkpt lat="44.11508" lon="3.17496">
        <ele>393</ele>
        <time>2024-02-17T17:11:45Z</time>
      </trkpt>
      <trkpt lat="44.11502" lon="3.17482">
        <ele>393.4</ele>
        <time>2024-02-17T17:11:47Z</time>
      </trkpt>
      <trkpt lat="44.11498" lon="3.17469">
        <ele>394.6</ele>
        <time>2024-02-17T17:11:49Z</time>
      </trkpt>
      <trkpt lat="44.11493" lon="3.17456">
        <ele>394.7</ele>
        <time>2024-02-17T17:11:51Z</time>
      </trkpt>
      <trkpt lat="44.1149" lon="3.17442">
        <ele>395.9</ele>
        <time>2024-02-17T17:11:53Z</time>
      </trkpt>
      <trkpt lat="44.11486" lon="3.17429">
        <ele>395.2</ele>
        <time>2024-02-17T17:11:55Z</time>
      </trkpt>
      <trkpt lat="44.11483" lon="3.17414">
        <ele>395.3</ele>
        <time>2024-02-17T17:11:57Z</time>
      </trkpt>
      <trkpt lat="44.1148" lon="3.17401">
        <ele>394.6</ele>
        <time>2024-02-17T17:11:59Z</time>
      </trkpt>
      <trkpt lat="44.11476" lon="3.17387">
        <ele>393.1</ele>
        <time>2024-02-17T17:12:01Z</time>
      </trkpt>
      <trkpt lat="44.11474" lon="3.17375">
        <ele>392.9</ele>
        <time>2024-02-17T17:12:03Z</time>
      </trkpt>
      <trkpt lat="44.11471" lon="3.17362">
        <ele>392.3</ele>
        <time>2024-02-17T17:12:05Z</time>
      </trkpt>
      <trkpt lat="44.11469" lon="3.17348">
        <ele>393.2</ele>
        <time>2024-02-17T17:12:07Z</time>
      </trkpt>
      <trkpt lat="44.11466" lon="3.17334">
        <ele>393.5</ele>
        <time>2024-02-17T17:12:09Z</time>
      </trkpt>
      <trkpt lat="44.11463" lon="3.17321">
        <ele>393.5</ele>
        <time>2024-02-17T17:12:11Z</time>
      </trkpt>
      <trkpt lat="44.11458" lon="3.17303">
        <ele>392.6</ele>
        <time>2024-02-17T17:12:14Z</time>
      </trkpt>
      <trkpt lat="44.11455" lon="3.17285">
        <ele>392.8</ele>
        <time>2024-02-17T17:12:17Z</time>
      </trkpt>
      <trkpt lat="44.11453" lon="3.17273">
        <ele>392.6</ele>
        <time>2024-02-17T17:12:19Z</time>
      </trkpt>
      <trkpt lat="44.11451" lon="3.17258">
        <ele>392.5</ele>
        <time>2024-02-17T17:12:21Z</time>
      </trkpt>
      <trkpt lat="44.11451" lon="3.17244">
        <ele>393.4</ele>
        <time>2024-02-17T17:12:23Z</time>
      </trkpt>
      <trkpt lat="44.11451" lon="3.1723">
        <ele>393.8</ele>
        <time>2024-02-17T17:12:25Z</time>
      </trkpt>
      <trkpt lat="44.11451" lon="3.17216">
        <ele>393.8</ele>
        <time>2024-02-17T17:12:27Z</time>
      </trkpt>
      <trkpt lat="44.11451" lon="3.17198">
        <ele>393.3</ele>
        <time>2024-02-17T17:12:30Z</time>
      </trkpt>
      <trkpt lat="44.11451" lon="3.1718">
        <ele>393.2</ele>
        <time>2024-02-17T17:12:33Z</time>
      </trkpt>
      <trkpt lat="44.1145" lon="3.17168">
        <ele>392.6</ele>
        <time>2024-02-17T17:12:35Z</time>
      </trkpt>
      <trkpt lat="44.1145" lon="3.17155">
        <ele>392.9</ele>
        <time>2024-02-17T17:12:37Z</time>
      </trkpt>
      <trkpt lat="44.11449" lon="3.17136">
        <ele>392.9</ele>
        <time>2024-02-17T17:12:40Z</time>
      </trkpt>
      <trkpt lat="44.11448" lon="3.17118">
        <ele>393</ele>
        <time>2024-02-17T17:12:43Z</time>
      </trkpt>
      <trkpt lat="44.11446" lon="3.171">
        <ele>392.5</ele>
        <time>2024-02-17T17:12:46Z</time>
      </trkpt>
      <trkpt lat="44.11444" lon="3.17086">
        <ele>391.7</ele>
        <time>2024-02-17T17:12:48Z</time>
      </trkpt>
      <trkpt lat="44.11444" lon="3.17071">
        <ele>392.3</ele>
        <time>2024-02-17T17:12:50Z</time>
      </trkpt>
      <trkpt lat="44.11443" lon="3.17057">
        <ele>392.4</ele>
        <time>2024-02-17T17:12:52Z</time>
      </trkpt>
      <trkpt lat="44.11443" lon="3.17044">
        <ele>392.5</ele>
        <time>2024-02-17T17:12:54Z</time>
      </trkpt>
      <trkpt lat="44.11442" lon="3.17031">
        <ele>392.3</ele>
        <time>2024-02-17T17:12:56Z</time>
      </trkpt>
      <trkpt lat="44.11442" lon="3.17017">
        <ele>391.7</ele>
        <time>2024-02-17T17:12:58Z</time>
      </trkpt>
      <trkpt lat="44.1144" lon="3.17003">
        <ele>390.5</ele>
        <time>2024-02-17T17:13:00Z</time>
      </trkpt>
      <trkpt lat="44.11437" lon="3.16989">
        <ele>390.5</ele>
        <time>2024-02-17T17:13:02Z</time>
      </trkpt>
      <trkpt lat="44.11433" lon="3.16977">
        <ele>390.3</ele>
        <time>2024-02-17T17:13:04Z</time>
      </trkpt>
      <trkpt lat="44.1143" lon="3.16964">
        <ele>391.3</ele>
        <time>2024-02-17T17:13:06Z</time>
      </trkpt>
      <trkpt lat="44.11426" lon="3.16951">
        <ele>392.1</ele>
        <time>2024-02-17T17:13:08Z</time>
      </trkpt>
      <trkpt lat="44.11424" lon="3.16938">
        <ele>393</ele>
        <time>2024-02-17T17:13:10Z</time>
      </trkpt>
      <trkpt lat="44.1142" lon="3.16925">
        <ele>392.7</ele>
        <time>2024-02-17T17:13:12Z</time>
      </trkpt>
      <trkpt lat="44.11417" lon="3.16912">
        <ele>392.7</ele>
        <time>2024-02-17T17:13:14Z</time>
      </trkpt>
      <trkpt lat="44.11413" lon="3.16898">
        <ele>393.4</ele>
        <time>2024-02-17T17:13:16Z</time>
      </trkpt>
      <trkpt lat="44.1141" lon="3.16884">
        <ele>394.1</ele>
        <time>2024-02-17T17:13:18Z</time>
      </trkpt>
      <trkpt lat="44.11406" lon="3.16871">
        <ele>393.9</ele>
        <time>2024-02-17T17:13:20Z</time>
      </trkpt>
      <trkpt lat="44.11402" lon="3.16858">
        <ele>393.6</ele>
        <time>2024-02-17T17:13:22Z</time>
      </trkpt>
      <trkpt lat="44.11397" lon="3.16844">
        <ele>393.4</ele>
        <time>2024-02-17T17:13:24Z</time>
      </trkpt>
      <trkpt lat="44.11392" lon="3.1683">
        <ele>392.5</ele>
        <time>2024-02-17T17:13:26Z</time>
      </trkpt>
      <trkpt lat="44.11387" lon="3.16815">
        <ele>391.8</ele>
        <time>2024-02-17T17:13:28Z</time>
      </trkpt>
      <trkpt lat="44.11381" lon="3.16802">
        <ele>391.3</ele>
        <time>2024-02-17T17:13:30Z</time>
      </trkpt>
      <trkpt lat="44.11374" lon="3.16789">
        <ele>391.1</ele>
        <time>2024-02-17T17:13:32Z</time>
      </trkpt>
      <trkpt lat="44.11367" lon="3.16776">
        <ele>390.5</ele>
        <time>2024-02-17T17:13:34Z</time>
      </trkpt>
      <trkpt lat="44.11359" lon="3.16765">
        <ele>390.1</ele>
        <time>2024-02-17T17:13:36Z</time>
      </trkpt>
      <trkpt lat="44.1135" lon="3.16753">
        <ele>389.5</ele>
        <time>2024-02-17T17:13:38Z</time>
      </trkpt>
      <trkpt lat="44.11341" lon="3.16742">
        <ele>388</ele>
        <time>2024-02-17T17:13:40Z</time>
      </trkpt>
      <trkpt lat="44.11331" lon="3.16734">
        <ele>386.7</ele>
        <time>2024-02-17T17:13:42Z</time>
      </trkpt>
      <trkpt lat="44.11319" lon="3.16728">
        <ele>387.2</ele>
        <time>2024-02-17T17:13:44Z</time>
      </trkpt>
      <trkpt lat="44.11308" lon="3.16725">
        <ele>387.4</ele>
        <time>2024-02-17T17:13:46Z</time>
      </trkpt>
      <trkpt lat="44.11297" lon="3.16723">
        <ele>386</ele>
        <time>2024-02-17T17:13:48Z</time>
      </trkpt>
      <trkpt lat="44.11286" lon="3.16719">
        <ele>384.9</ele>
        <time>2024-02-17T17:13:50Z</time>
      </trkpt>
      <trkpt lat="44.11275" lon="3.16712">
        <ele>385.4</ele>
        <time>2024-02-17T17:13:52Z</time>
      </trkpt>
      <trkpt lat="44.11263" lon="3.16705">
        <ele>385.4</ele>
        <time>2024-02-17T17:13:54Z</time>
      </trkpt>
      <trkpt lat="44.11251" lon="3.16698">
        <ele>385.7</ele>
        <time>2024-02-17T17:13:56Z</time>
      </trkpt>
      <trkpt lat="44.1124" lon="3.1669">
        <ele>385.1</ele>
        <time>2024-02-17T17:13:58Z</time>
      </trkpt>
      <trkpt lat="44.11228" lon="3.16682">
        <ele>384.4</ele>
        <time>2024-02-17T17:14:00Z</time>
      </trkpt>
      <trkpt lat="44.11217" lon="3.16674">
        <ele>385.2</ele>
        <time>2024-02-17T17:14:02Z</time>
      </trkpt>
      <trkpt lat="44.11205" lon="3.16666">
        <ele>386</ele>
        <time>2024-02-17T17:14:04Z</time>
      </trkpt>
      <trkpt lat="44.11194" lon="3.16657">
        <ele>386</ele>
        <time>2024-02-17T17:14:06Z</time>
      </trkpt>
      <trkpt lat="44.11184" lon="3.16645">
        <ele>385.9</ele>
        <time>2024-02-17T17:14:08Z</time>
      </trkpt>
      <trkpt lat="44.11174" lon="3.16632">
        <ele>386.3</ele>
        <time>2024-02-17T17:14:10Z</time>
      </trkpt>
      <trkpt lat="44.11166" lon="3.16618">
        <ele>387.3</ele>
        <time>2024-02-17T17:14:12Z</time>
      </trkpt>
      <trkpt lat="44.11158" lon="3.16604">
        <ele>387.7</ele>
        <time>2024-02-17T17:14:14Z</time>
      </trkpt>
      <trkpt lat="44.11149" lon="3.16591">
        <ele>387.6</ele>
        <time>2024-02-17T17:14:16Z</time>
      </trkpt>
      <trkpt lat="44.11138" lon="3.1658">
        <ele>386.5</ele>
        <time>2024-02-17T17:14:18Z</time>
      </trkpt>
      <trkpt lat="44.11128" lon="3.16569">
        <ele>385.8</ele>
        <time>2024-02-17T17:14:20Z</time>
      </trkpt>
      <trkpt lat="44.11118" lon="3.16558">
        <ele>384.8</ele>
        <time>2024-02-17T17:14:22Z</time>
      </trkpt>
      <trkpt lat="44.11109" lon="3.16547">
        <ele>385.2</ele>
        <time>2024-02-17T17:14:24Z</time>
      </trkpt>
      <trkpt lat="44.11101" lon="3.16535">
        <ele>386.3</ele>
        <time>2024-02-17T17:14:26Z</time>
      </trkpt>
      <trkpt lat="44.11092" lon="3.16522">
        <ele>385.9</ele>
        <time>2024-02-17T17:14:28Z</time>
      </trkpt>
      <trkpt lat="44.11085" lon="3.16507">
        <ele>385.5</ele>
        <time>2024-02-17T17:14:30Z</time>
      </trkpt>
      <trkpt lat="44.11078" lon="3.16492">
        <ele>384.5</ele>
        <time>2024-02-17T17:14:32Z</time>
      </trkpt>
      <trkpt lat="44.11072" lon="3.16478">
        <ele>383.4</ele>
        <time>2024-02-17T17:14:34Z</time>
      </trkpt>
      <trkpt lat="44.11064" lon="3.16466">
        <ele>382.7</ele>
        <time>2024-02-17T17:14:36Z</time>
      </trkpt>
      <trkpt lat="44.11057" lon="3.16452">
        <ele>384.3</ele>
        <time>2024-02-17T17:14:38Z</time>
      </trkpt>
      <trkpt lat="44.11051" lon="3.16438">
        <ele>385.5</ele>
        <time>2024-02-17T17:14:40Z</time>
      </trkpt>
      <trkpt lat="44.11045" lon="3.16423">
        <ele>385.6</ele>
        <time>2024-02-17T17:14:42Z</time>
      </trkpt>
      <trkpt lat="44.1104" lon="3.16408">
        <ele>385.9</ele>
        <time>2024-02-17T17:14:44Z</time>
      </trkpt>
      <trkpt lat="44.11034" lon="3.16394">
        <ele>386.3</ele>
        <time>2024-02-17T17:14:46Z</time>
      </trkpt>
      <trkpt lat="44.11029" lon="3.16379">
        <ele>386.6</ele>
        <time>2024-02-17T17:14:48Z</time>
      </trkpt>
      <trkpt lat="44.11023" lon="3.16364">
        <ele>385.7</ele>
        <time>2024-02-17T17:14:50Z</time>
      </trkpt>
      <trkpt lat="44.11017" lon="3.16351">
        <ele>384.9</ele>
        <time>2024-02-17T17:14:52Z</time>
      </trkpt>
      <trkpt lat="44.1101" lon="3.16337">
        <ele>384.3</ele>
        <time>2024-02-17T17:14:54Z</time>
      </trkpt>
      <trkpt lat="44.11004" lon="3.16324">
        <ele>384.2</ele>
        <time>2024-02-17T17:14:56Z</time>
      </trkpt>
      <trkpt lat="44.10998" lon="3.1631">
        <ele>384.6</ele>
        <time>2024-02-17T17:14:58Z</time>
      </trkpt>
      <trkpt lat="44.10992" lon="3.16298">
        <ele>384.3</ele>
        <time>2024-02-17T17:15:00Z</time>
      </trkpt>
      <trkpt lat="44.10985" lon="3.16286">
        <ele>384.4</ele>
        <time>2024-02-17T17:15:02Z</time>
      </trkpt>
      <trkpt lat="44.10979" lon="3.16273">
        <ele>385.4</ele>
        <time>2024-02-17T17:15:04Z</time>
      </trkpt>
      <trkpt lat="44.10972" lon="3.16261">
        <ele>385.1</ele>
        <time>2024-02-17T17:15:06Z</time>
      </trkpt>
      <trkpt lat="44.10965" lon="3.1625">
        <ele>383.1</ele>
        <time>2024-02-17T17:15:08Z</time>
      </trkpt>
      <trkpt lat="44.10959" lon="3.16239">
        <ele>383.3</ele>
        <time>2024-02-17T17:15:10Z</time>
      </trkpt>
      <trkpt lat="44.10951" lon="3.16228">
        <ele>384.2</ele>
        <time>2024-02-17T17:15:12Z</time>
      </trkpt>
      <trkpt lat="44.10944" lon="3.16218">
        <ele>385.2</ele>
        <time>2024-02-17T17:15:14Z</time>
      </trkpt>
      <trkpt lat="44.10937" lon="3.16209">
        <ele>384.3</ele>
        <time>2024-02-17T17:15:16Z</time>
      </trkpt>
      <trkpt lat="44.1093" lon="3.162">
        <ele>384.1</ele>
        <time>2024-02-17T17:15:18Z</time>
      </trkpt>
      <trkpt lat="44.10922" lon="3.16191">
        <ele>384.2</ele>
        <time>2024-02-17T17:15:20Z</time>
      </trkpt>
      <trkpt lat="44.10914" lon="3.16182">
        <ele>384.1</ele>
        <time>2024-02-17T17:15:22Z</time>
      </trkpt>
      <trkpt lat="44.10907" lon="3.16172">
        <ele>383.8</ele>
        <time>2024-02-17T17:15:24Z</time>
      </trkpt>
      <trkpt lat="44.10899" lon="3.16162">
        <ele>383.8</ele>
        <time>2024-02-17T17:15:26Z</time>
      </trkpt>
      <trkpt lat="44.10892" lon="3.1615">
        <ele>385.4</ele>
        <time>2024-02-17T17:15:28Z</time>
      </trkpt>
      <trkpt lat="44.10885" lon="3.16138">
        <ele>386.5</ele>
        <time>2024-02-17T17:15:30Z</time>
      </trkpt>
      <trkpt lat="44.10878" lon="3.16127">
        <ele>385.9</ele>
        <time>2024-02-17T17:15:32Z</time>
      </trkpt>
      <trkpt lat="44.10872" lon="3.16115">
        <ele>385.9</ele>
        <time>2024-02-17T17:15:34Z</time>
      </trkpt>
      <trkpt lat="44.10865" lon="3.16102">
        <ele>385.8</ele>
        <time>2024-02-17T17:15:36Z</time>
      </trkpt>
      <trkpt lat="44.10859" lon="3.1609">
        <ele>386.4</ele>
        <time>2024-02-17T17:15:38Z</time>
      </trkpt>
      <trkpt lat="44.10852" lon="3.16079">
        <ele>385.4</ele>
        <time>2024-02-17T17:15:40Z</time>
      </trkpt>
      <trkpt lat="44.10845" lon="3.16066">
        <ele>384.8</ele>
        <time>2024-02-17T17:15:42Z</time>
      </trkpt>
      <trkpt lat="44.10839" lon="3.16052">
        <ele>385.3</ele>
        <time>2024-02-17T17:15:44Z</time>
      </trkpt>
      <trkpt lat="44.10834" lon="3.16039">
        <ele>385.6</ele>
        <time>2024-02-17T17:15:46Z</time>
      </trkpt>
      <trkpt lat="44.10828" lon="3.16025">
        <ele>385</ele>
        <time>2024-02-17T17:15:48Z</time>
      </trkpt>
      <trkpt lat="44.10823" lon="3.16011">
        <ele>384.6</ele>
        <time>2024-02-17T17:15:50Z</time>
      </trkpt>
      <trkpt lat="44.10818" lon="3.15997">
        <ele>384.5</ele>
        <time>2024-02-17T17:15:52Z</time>
      </trkpt>
      <trkpt lat="44.10813" lon="3.15982">
        <ele>385.7</ele>
        <time>2024-02-17T17:15:54Z</time>
      </trkpt>
      <trkpt lat="44.10809" lon="3.15967">
        <ele>386.5</ele>
        <time>2024-02-17T17:15:56Z</time>
      </trkpt>
      <trkpt lat="44.10806" lon="3.15952">
        <ele>385.9</ele>
        <time>2024-02-17T17:15:58Z</time>
      </trkpt>
      <trkpt lat="44.10805" lon="3.15937">
        <ele>385.8</ele>
        <time>2024-02-17T17:16:00Z</time>
      </trkpt>
      <trkpt lat="44.10805" lon="3.15921">
        <ele>385.8</ele>
        <time>2024-02-17T17:16:02Z</time>
      </trkpt>
      <trkpt lat="44.10808" lon="3.15906">
        <ele>386.6</ele>
        <time>2024-02-17T17:16:04Z</time>
      </trkpt>
      <trkpt lat="44.10813" lon="3.15892">
        <ele>387.6</ele>
        <time>2024-02-17T17:16:06Z</time>
      </trkpt>
      <trkpt lat="44.10817" lon="3.15879">
        <ele>387.4</ele>
        <time>2024-02-17T17:16:08Z</time>
      </trkpt>
      <trkpt lat="44.10823" lon="3.15865">
        <ele>387.8</ele>
        <time>2024-02-17T17:16:10Z</time>
      </trkpt>
      <trkpt lat="44.10828" lon="3.15851">
        <ele>387.5</ele>
        <time>2024-02-17T17:16:12Z</time>
      </trkpt>
      <trkpt lat="44.10832" lon="3.15836">
        <ele>386.1</ele>
        <time>2024-02-17T17:16:14Z</time>
      </trkpt>
      <trkpt lat="44.10834" lon="3.1582">
        <ele>385.8</ele>
        <time>2024-02-17T17:16:16Z</time>
      </trkpt>
      <trkpt lat="44.10837" lon="3.15804">
        <ele>386.3</ele>
        <time>2024-02-17T17:16:18Z</time>
      </trkpt>
      <trkpt lat="44.10838" lon="3.15788">
        <ele>385.9</ele>
        <time>2024-02-17T17:16:20Z</time>
      </trkpt>
      <trkpt lat="44.10839" lon="3.15772">
        <ele>385.7</ele>
        <time>2024-02-17T17:16:22Z</time>
      </trkpt>
      <trkpt lat="44.10839" lon="3.15756">
        <ele>385.2</ele>
        <time>2024-02-17T17:16:24Z</time>
      </trkpt>
      <trkpt lat="44.10839" lon="3.15742">
        <ele>385</ele>
        <time>2024-02-17T17:16:26Z</time>
      </trkpt>
      <trkpt lat="44.10839" lon="3.15727">
        <ele>384.9</ele>
        <time>2024-02-17T17:16:28Z</time>
      </trkpt>
      <trkpt lat="44.10838" lon="3.15713">
        <ele>384.9</ele>
        <time>2024-02-17T17:16:30Z</time>
      </trkpt>
      <trkpt lat="44.10836" lon="3.15699">
        <ele>384.8</ele>
        <time>2024-02-17T17:16:32Z</time>
      </trkpt>
      <trkpt lat="44.10835" lon="3.15685">
        <ele>384.6</ele>
        <time>2024-02-17T17:16:34Z</time>
      </trkpt>
      <trkpt lat="44.10833" lon="3.15672">
        <ele>383.9</ele>
        <time>2024-02-17T17:16:36Z</time>
      </trkpt>
      <trkpt lat="44.10831" lon="3.15658">
        <ele>383.4</ele>
        <time>2024-02-17T17:16:38Z</time>
      </trkpt>
      <trkpt lat="44.10828" lon="3.15645">
        <ele>382.7</ele>
        <time>2024-02-17T17:16:40Z</time>
      </trkpt>
      <trkpt lat="44.10827" lon="3.15628">
        <ele>383.1</ele>
        <time>2024-02-17T17:16:42Z</time>
      </trkpt>
      <trkpt lat="44.10824" lon="3.15612">
        <ele>383.3</ele>
        <time>2024-02-17T17:16:44Z</time>
      </trkpt>
      <trkpt lat="44.10819" lon="3.15597">
        <ele>383.1</ele>
        <time>2024-02-17T17:16:46Z</time>
      </trkpt>
      <trkpt lat="44.10812" lon="3.15583">
        <ele>382.1</ele>
        <time>2024-02-17T17:16:48Z</time>
      </trkpt>
      <trkpt lat="44.10805" lon="3.15572">
        <ele>381.5</ele>
        <time>2024-02-17T17:16:50Z</time>
      </trkpt>
      <trkpt lat="44.10799" lon="3.15558">
        <ele>382.3</ele>
        <time>2024-02-17T17:16:52Z</time>
      </trkpt>
      <trkpt lat="44.10793" lon="3.15542">
        <ele>382.5</ele>
        <time>2024-02-17T17:16:54Z</time>
      </trkpt>
      <trkpt lat="44.10786" lon="3.15529">
        <ele>382.4</ele>
        <time>2024-02-17T17:16:56Z</time>
      </trkpt>
      <trkpt lat="44.10779" lon="3.15516">
        <ele>382.9</ele>
        <time>2024-02-17T17:16:58Z</time>
      </trkpt>
      <trkpt lat="44.10773" lon="3.15503">
        <ele>382.6</ele>
        <time>2024-02-17T17:17:00Z</time>
      </trkpt>
      <trkpt lat="44.10767" lon="3.15491">
        <ele>382</ele>
        <time>2024-02-17T17:17:02Z</time>
      </trkpt>
      <trkpt lat="44.1076" lon="3.15479">
        <ele>381.8</ele>
        <time>2024-02-17T17:17:04Z</time>
      </trkpt>
      <trkpt lat="44.10754" lon="3.15466">
        <ele>382.9</ele>
        <time>2024-02-17T17:17:06Z</time>
      </trkpt>
      <trkpt lat="44.10748" lon="3.15454">
        <ele>383.6</ele>
        <time>2024-02-17T17:17:08Z</time>
      </trkpt>
      <trkpt lat="44.10741" lon="3.15441">
        <ele>383</ele>
        <time>2024-02-17T17:17:10Z</time>
      </trkpt>
      <trkpt lat="44.10735" lon="3.15428">
        <ele>383.4</ele>
        <time>2024-02-17T17:17:12Z</time>
      </trkpt>
      <trkpt lat="44.10729" lon="3.15414">
        <ele>383.9</ele>
        <time>2024-02-17T17:17:14Z</time>
      </trkpt>
      <trkpt lat="44.10723" lon="3.15401">
        <ele>383.7</ele>
        <time>2024-02-17T17:17:16Z</time>
      </trkpt>
      <trkpt lat="44.10718" lon="3.15387">
        <ele>383.9</ele>
        <time>2024-02-17T17:17:18Z</time>
      </trkpt>
      <trkpt lat="44.10713" lon="3.15373">
        <ele>382.7</ele>
        <time>2024-02-17T17:17:20Z</time>
      </trkpt>
      <trkpt lat="44.10708" lon="3.15359">
        <ele>382.2</ele>
        <time>2024-02-17T17:17:22Z</time>
      </trkpt>
      <trkpt lat="44.10702" lon="3.15346">
        <ele>382.1</ele>
        <time>2024-02-17T17:17:24Z</time>
      </trkpt>
      <trkpt lat="44.10697" lon="3.15332">
        <ele>383</ele>
        <time>2024-02-17T17:17:26Z</time>
      </trkpt>
      <trkpt lat="44.10692" lon="3.15317">
        <ele>382.7</ele>
        <time>2024-02-17T17:17:28Z</time>
      </trkpt>
      <trkpt lat="44.10687" lon="3.15303">
        <ele>382</ele>
        <time>2024-02-17T17:17:30Z</time>
      </trkpt>
      <trkpt lat="44.10682" lon="3.1529">
        <ele>382.2</ele>
        <time>2024-02-17T17:17:32Z</time>
      </trkpt>
      <trkpt lat="44.10677" lon="3.15276">
        <ele>382.8</ele>
        <time>2024-02-17T17:17:34Z</time>
      </trkpt>
      <trkpt lat="44.10672" lon="3.15263">
        <ele>383.4</ele>
        <time>2024-02-17T17:17:36Z</time>
      </trkpt>
      <trkpt lat="44.10667" lon="3.15249">
        <ele>384.2</ele>
        <time>2024-02-17T17:17:38Z</time>
      </trkpt>
      <trkpt lat="44.10661" lon="3.15236">
        <ele>382.2</ele>
        <time>2024-02-17T17:17:40Z</time>
      </trkpt>
      <trkpt lat="44.10656" lon="3.15223">
        <ele>381.1</ele>
        <time>2024-02-17T17:17:42Z</time>
      </trkpt>
      <trkpt lat="44.10651" lon="3.15209">
        <ele>382.4</ele>
        <time>2024-02-17T17:17:44Z</time>
      </trkpt>
      <trkpt lat="44.10646" lon="3.15197">
        <ele>383.2</ele>
        <time>2024-02-17T17:17:46Z</time>
      </trkpt>
      <trkpt lat="44.10642" lon="3.15184">
        <ele>384.2</ele>
        <time>2024-02-17T17:17:48Z</time>
      </trkpt>
      <trkpt lat="44.10637" lon="3.15171">
        <ele>384.3</ele>
        <time>2024-02-17T17:17:50Z</time>
      </trkpt>
      <trkpt lat="44.10633" lon="3.15158">
        <ele>384.8</ele>
        <time>2024-02-17T17:17:52Z</time>
      </trkpt>
      <trkpt lat="44.10628" lon="3.15145">
        <ele>384.6</ele>
        <time>2024-02-17T17:17:54Z</time>
      </trkpt>
      <trkpt lat="44.10624" lon="3.15132">
        <ele>384.4</ele>
        <time>2024-02-17T17:17:56Z</time>
      </trkpt>
      <trkpt lat="44.1062" lon="3.1512">
        <ele>383.8</ele>
        <time>2024-02-17T17:17:58Z</time>
      </trkpt>
      <trkpt lat="44.10617" lon="3.15106">
        <ele>384.2</ele>
        <time>2024-02-17T17:18:00Z</time>
      </trkpt>
      <trkpt lat="44.10614" lon="3.15093">
        <ele>384.7</ele>
        <time>2024-02-17T17:18:02Z</time>
      </trkpt>
      <trkpt lat="44.10611" lon="3.15079">
        <ele>385.1</ele>
        <time>2024-02-17T17:18:04Z</time>
      </trkpt>
      <trkpt lat="44.10608" lon="3.15065">
        <ele>384.3</ele>
        <time>2024-02-17T17:18:06Z</time>
      </trkpt>
      <trkpt lat="44.10606" lon="3.15051">
        <ele>384.1</ele>
        <time>2024-02-17T17:18:08Z</time>
      </trkpt>
      <trkpt lat="44.10604" lon="3.15036">
        <ele>384.2</ele>
        <time>2024-02-17T17:18:10Z</time>
      </trkpt>
      <trkpt lat="44.10601" lon="3.15021">
        <ele>383.6</ele>
        <time>2024-02-17T17:18:12Z</time>
      </trkpt>
      <trkpt lat="44.106" lon="3.15005">
        <ele>383.9</ele>
        <time>2024-02-17T17:18:14Z</time>
      </trkpt>
      <trkpt lat="44.10599" lon="3.14988">
        <ele>384.2</ele>
        <time>2024-02-17T17:18:16Z</time>
      </trkpt>
      <trkpt lat="44.10597" lon="3.14972">
        <ele>383.9</ele>
        <time>2024-02-17T17:18:18Z</time>
      </trkpt>
      <trkpt lat="44.10597" lon="3.14956">
        <ele>383.9</ele>
        <time>2024-02-17T17:18:20Z</time>
      </trkpt>
      <trkpt lat="44.10597" lon="3.1494">
        <ele>383.9</ele>
        <time>2024-02-17T17:18:22Z</time>
      </trkpt>
      <trkpt lat="44.10597" lon="3.14925">
        <ele>383.9</ele>
        <time>2024-02-17T17:18:24Z</time>
      </trkpt>
      <trkpt lat="44.10598" lon="3.14911">
        <ele>384.1</ele>
        <time>2024-02-17T17:18:26Z</time>
      </trkpt>
      <trkpt lat="44.10599" lon="3.14894">
        <ele>384</ele>
        <time>2024-02-17T17:18:28Z</time>
      </trkpt>
      <trkpt lat="44.106" lon="3.14876">
        <ele>383.6</ele>
        <time>2024-02-17T17:18:30Z</time>
      </trkpt>
      <trkpt lat="44.10602" lon="3.14858">
        <ele>383.6</ele>
        <time>2024-02-17T17:18:32Z</time>
      </trkpt>
      <trkpt lat="44.10604" lon="3.1484">
        <ele>383.7</ele>
        <time>2024-02-17T17:18:34Z</time>
      </trkpt>
      <trkpt lat="44.10607" lon="3.14824">
        <ele>383.6</ele>
        <time>2024-02-17T17:18:36Z</time>
      </trkpt>
      <trkpt lat="44.10611" lon="3.14808">
        <ele>383.2</ele>
        <time>2024-02-17T17:18:38Z</time>
      </trkpt>
      <trkpt lat="44.10615" lon="3.14794">
        <ele>383.3</ele>
        <time>2024-02-17T17:18:40Z</time>
      </trkpt>
      <trkpt lat="44.10619" lon="3.14778">
        <ele>383.1</ele>
        <time>2024-02-17T17:18:42Z</time>
      </trkpt>
      <trkpt lat="44.10623" lon="3.14762">
        <ele>383.4</ele>
        <time>2024-02-17T17:18:44Z</time>
      </trkpt>
      <trkpt lat="44.10628" lon="3.14744">
        <ele>383.1</ele>
        <time>2024-02-17T17:18:46Z</time>
      </trkpt>
      <trkpt lat="44.10631" lon="3.14729">
        <ele>381.9</ele>
        <time>2024-02-17T17:18:48Z</time>
      </trkpt>
      <trkpt lat="44.10635" lon="3.14713">
        <ele>381.4</ele>
        <time>2024-02-17T17:18:50Z</time>
      </trkpt>
      <trkpt lat="44.10639" lon="3.14697">
        <ele>381.2</ele>
        <time>2024-02-17T17:18:52Z</time>
      </trkpt>
      <trkpt lat="44.10643" lon="3.14681">
        <ele>381.3</ele>
        <time>2024-02-17T17:18:54Z</time>
      </trkpt>
      <trkpt lat="44.10647" lon="3.14665">
        <ele>381.7</ele>
        <time>2024-02-17T17:18:56Z</time>
      </trkpt>
      <trkpt lat="44.10652" lon="3.14651">
        <ele>382.2</ele>
        <time>2024-02-17T17:18:58Z</time>
      </trkpt>
      <trkpt lat="44.10656" lon="3.14637">
        <ele>382.7</ele>
        <time>2024-02-17T17:19:00Z</time>
      </trkpt>
      <trkpt lat="44.10661" lon="3.14623">
        <ele>382.7</ele>
        <time>2024-02-17T17:19:02Z</time>
      </trkpt>
      <trkpt lat="44.10667" lon="3.14609">
        <ele>382.8</ele>
        <time>2024-02-17T17:19:04Z</time>
      </trkpt>
      <trkpt lat="44.10672" lon="3.14596">
        <ele>383.1</ele>
        <time>2024-02-17T17:19:06Z</time>
      </trkpt>
      <trkpt lat="44.10678" lon="3.14582">
        <ele>383.7</ele>
        <time>2024-02-17T17:19:08Z</time>
      </trkpt>
      <trkpt lat="44.10684" lon="3.14567">
        <ele>383.6</ele>
        <time>2024-02-17T17:19:10Z</time>
      </trkpt>
      <trkpt lat="44.1069" lon="3.14554">
        <ele>383.3</ele>
        <time>2024-02-17T17:19:12Z</time>
      </trkpt>
      <trkpt lat="44.10697" lon="3.14539">
        <ele>382.5</ele>
        <time>2024-02-17T17:19:14Z</time>
      </trkpt>
      <trkpt lat="44.10704" lon="3.14524">
        <ele>382.6</ele>
        <time>2024-02-17T17:19:16Z</time>
      </trkpt>
      <trkpt lat="44.10711" lon="3.14511">
        <ele>383.3</ele>
        <time>2024-02-17T17:19:18Z</time>
      </trkpt>
      <trkpt lat="44.10718" lon="3.14495">
        <ele>382.6</ele>
        <time>2024-02-17T17:19:20Z</time>
      </trkpt>
      <trkpt lat="44.10724" lon="3.14481">
        <ele>381.7</ele>
        <time>2024-02-17T17:19:22Z</time>
      </trkpt>
      <trkpt lat="44.10731" lon="3.14466">
        <ele>382</ele>
        <time>2024-02-17T17:19:24Z</time>
      </trkpt>
      <trkpt lat="44.10737" lon="3.14451">
        <ele>381.6</ele>
        <time>2024-02-17T17:19:26Z</time>
      </trkpt>
      <trkpt lat="44.10744" lon="3.14435">
        <ele>381.1</ele>
        <time>2024-02-17T17:19:28Z</time>
      </trkpt>
      <trkpt lat="44.10751" lon="3.14422">
        <ele>381.5</ele>
        <time>2024-02-17T17:19:30Z</time>
      </trkpt>
      <trkpt lat="44.10758" lon="3.1441">
        <ele>382.8</ele>
        <time>2024-02-17T17:19:32Z</time>
      </trkpt>
      <trkpt lat="44.10765" lon="3.14397">
        <ele>383</ele>
        <time>2024-02-17T17:19:34Z</time>
      </trkpt>
      <trkpt lat="44.10771" lon="3.14387">
        <ele>382.9</ele>
        <time>2024-02-17T17:19:36Z</time>
      </trkpt>
      <trkpt lat="44.10779" lon="3.14375">
        <ele>383.2</ele>
        <time>2024-02-17T17:19:38Z</time>
      </trkpt>
      <trkpt lat="44.10786" lon="3.14363">
        <ele>384.3</ele>
        <time>2024-02-17T17:19:40Z</time>
      </trkpt>
      <trkpt lat="44.10793" lon="3.14352">
        <ele>385.4</ele>
        <time>2024-02-17T17:19:42Z</time>
      </trkpt>
      <trkpt lat="44.10799" lon="3.1434">
        <ele>384.7</ele>
        <time>2024-02-17T17:19:44Z</time>
      </trkpt>
      <trkpt lat="44.10806" lon="3.14329">
        <ele>384.5</ele>
        <time>2024-02-17T17:19:46Z</time>
      </trkpt>
      <trkpt lat="44.10812" lon="3.14318">
        <ele>385.9</ele>
        <time>2024-02-17T17:19:48Z</time>
      </trkpt>
      <trkpt lat="44.10818" lon="3.14307">
        <ele>386.2</ele>
        <time>2024-02-17T17:19:50Z</time>
      </trkpt>
      <trkpt lat="44.10825" lon="3.14295">
        <ele>386.7</ele>
        <time>2024-02-17T17:19:52Z</time>
      </trkpt>
      <trkpt lat="44.10831" lon="3.14282">
        <ele>386.1</ele>
        <time>2024-02-17T17:19:54Z</time>
      </trkpt>
      <trkpt lat="44.10837" lon="3.1427">
        <ele>386</ele>
        <time>2024-02-17T17:19:56Z</time>
      </trkpt>
      <trkpt lat="44.10843" lon="3.14258">
        <ele>385.3</ele>
        <time>2024-02-17T17:19:58Z</time>
      </trkpt>
      <trkpt lat="44.10849" lon="3.14247">
        <ele>384.6</ele>
        <time>2024-02-17T17:20:00Z</time>
      </trkpt>
      <trkpt lat="44.10857" lon="3.14236">
        <ele>385.3</ele>
        <time>2024-02-17T17:20:02Z</time>
      </trkpt>
      <trkpt lat="44.10864" lon="3.14225">
        <ele>386.1</ele>
        <time>2024-02-17T17:20:04Z</time>
      </trkpt>
      <trkpt lat="44.10871" lon="3.14213">
        <ele>386.8</ele>
        <time>2024-02-17T17:20:06Z</time>
      </trkpt>
      <trkpt lat="44.10877" lon="3.14202">
        <ele>386.8</ele>
        <time>2024-02-17T17:20:08Z</time>
      </trkpt>
      <trkpt lat="44.10883" lon="3.14189">
        <ele>386.1</ele>
        <time>2024-02-17T17:20:10Z</time>
      </trkpt>
      <trkpt lat="44.10888" lon="3.14177">
        <ele>384.7</ele>
        <time>2024-02-17T17:20:12Z</time>
      </trkpt>
      <trkpt lat="44.10894" lon="3.14165">
        <ele>384.9</ele>
        <time>2024-02-17T17:20:14Z</time>
      </trkpt>
      <trkpt lat="44.109" lon="3.14154">
        <ele>386.1</ele>
        <time>2024-02-17T17:20:16Z</time>
      </trkpt>
      <trkpt lat="44.10906" lon="3.14144">
        <ele>387.2</ele>
        <time>2024-02-17T17:20:18Z</time>
      </trkpt>
      <trkpt lat="44.10912" lon="3.14132">
        <ele>387.4</ele>
        <time>2024-02-17T17:20:20Z</time>
      </trkpt>
      <trkpt lat="44.10917" lon="3.14121">
        <ele>386.5</ele>
        <time>2024-02-17T17:20:22Z</time>
      </trkpt>
      <trkpt lat="44.10922" lon="3.1411">
        <ele>386.4</ele>
        <time>2024-02-17T17:20:24Z</time>
      </trkpt>
      <trkpt lat="44.10926" lon="3.14096">
        <ele>385.6</ele>
        <time>2024-02-17T17:20:26Z</time>
      </trkpt>
      <trkpt lat="44.10931" lon="3.14083">
        <ele>384.7</ele>
        <time>2024-02-17T17:20:28Z</time>
      </trkpt>
      <trkpt lat="44.10937" lon="3.14071">
        <ele>385.3</ele>
        <time>2024-02-17T17:20:30Z</time>
      </trkpt>
      <trkpt lat="44.10941" lon="3.14054">
        <ele>383.8</ele>
        <time>2024-02-17T17:20:32Z</time>
      </trkpt>
      <trkpt lat="44.10939" lon="3.14037">
        <ele>382.6</ele>
        <time>2024-02-17T17:20:34Z</time>
      </trkpt>
      <trkpt lat="44.10936" lon="3.14024">
        <ele>381.6</ele>
        <time>2024-02-17T17:20:36Z</time>
      </trkpt>
      <trkpt lat="44.10931" lon="3.14006">
        <ele>381.2</ele>
        <time>2024-02-17T17:20:39Z</time>
      </trkpt>
      <trkpt lat="44.10926" lon="3.13989">
        <ele>382.1</ele>
        <time>2024-02-17T17:20:42Z</time>
      </trkpt>
      <trkpt lat="44.10925" lon="3.13977">
        <ele>384.3</ele>
        <time>2024-02-17T17:20:44Z</time>
      </trkpt>
      <trkpt lat="44.10924" lon="3.13964">
        <ele>384.9</ele>
        <time>2024-02-17T17:20:46Z</time>
      </trkpt>
      <trkpt lat="44.10924" lon="3.13948">
        <ele>385</ele>
        <time>2024-02-17T17:20:48Z</time>
      </trkpt>
      <trkpt lat="44.10923" lon="3.13934">
        <ele>384.9</ele>
        <time>2024-02-17T17:20:50Z</time>
      </trkpt>
      <trkpt lat="44.10921" lon="3.13919">
        <ele>384.7</ele>
        <time>2024-02-17T17:20:52Z</time>
      </trkpt>
      <trkpt lat="44.10919" lon="3.13905">
        <ele>384.9</ele>
        <time>2024-02-17T17:20:54Z</time>
      </trkpt>
      <trkpt lat="44.10916" lon="3.1389">
        <ele>384.8</ele>
        <time>2024-02-17T17:20:56Z</time>
      </trkpt>
      <trkpt lat="44.10911" lon="3.13876">
        <ele>384.7</ele>
        <time>2024-02-17T17:20:58Z</time>
      </trkpt>
      <trkpt lat="44.10906" lon="3.13863">
        <ele>385.1</ele>
        <time>2024-02-17T17:21:00Z</time>
      </trkpt>
      <trkpt lat="44.109" lon="3.1385">
        <ele>385.1</ele>
        <time>2024-02-17T17:21:02Z</time>
      </trkpt>
      <trkpt lat="44.10892" lon="3.13842">
        <ele>384.4</ele>
        <time>2024-02-17T17:21:04Z</time>
      </trkpt>
      <trkpt lat="44.10882" lon="3.13836">
        <ele>383.2</ele>
        <time>2024-02-17T17:21:06Z</time>
      </trkpt>
      <trkpt lat="44.10872" lon="3.1383">
        <ele>382.9</ele>
        <time>2024-02-17T17:21:08Z</time>
      </trkpt>
      <trkpt lat="44.10863" lon="3.13827">
        <ele>382.6</ele>
        <time>2024-02-17T17:21:10Z</time>
      </trkpt>
      <trkpt lat="44.10853" lon="3.13825">
        <ele>382.4</ele>
        <time>2024-02-17T17:21:12Z</time>
      </trkpt>
      <trkpt lat="44.10843" lon="3.13824">
        <ele>382.2</ele>
        <time>2024-02-17T17:21:14Z</time>
      </trkpt>
      <trkpt lat="44.10832" lon="3.1382">
        <ele>382.6</ele>
        <time>2024-02-17T17:21:16Z</time>
      </trkpt>
      <trkpt lat="44.10821" lon="3.13813">
        <ele>382.3</ele>
        <time>2024-02-17T17:21:18Z</time>
      </trkpt>
      <trkpt lat="44.10812" lon="3.13801">
        <ele>383.2</ele>
        <time>2024-02-17T17:21:20Z</time>
      </trkpt>
      <trkpt lat="44.10805" lon="3.13786">
        <ele>384.2</ele>
        <time>2024-02-17T17:21:22Z</time>
      </trkpt>
      <trkpt lat="44.10801" lon="3.13768">
        <ele>384</ele>
        <time>2024-02-17T17:21:24Z</time>
      </trkpt>
      <trkpt lat="44.10803" lon="3.1375">
        <ele>385.9</ele>
        <time>2024-02-17T17:21:26Z</time>
      </trkpt>
      <trkpt lat="44.10808" lon="3.13733">
        <ele>384.5</ele>
        <time>2024-02-17T17:21:28Z</time>
      </trkpt>
      <trkpt lat="44.10815" lon="3.13718">
        <ele>383.8</ele>
        <time>2024-02-17T17:21:30Z</time>
      </trkpt>
      <trkpt lat="44.10822" lon="3.13704">
        <ele>383.5</ele>
        <time>2024-02-17T17:21:32Z</time>
      </trkpt>
      <trkpt lat="44.10828" lon="3.13687">
        <ele>382.4</ele>
        <time>2024-02-17T17:21:34Z</time>
      </trkpt>
      <trkpt lat="44.10836" lon="3.13673">
        <ele>381.7</ele>
        <time>2024-02-17T17:21:36Z</time>
      </trkpt>
      <trkpt lat="44.10843" lon="3.13658">
        <ele>380.6</ele>
        <time>2024-02-17T17:21:38Z</time>
      </trkpt>
      <trkpt lat="44.10851" lon="3.13643">
        <ele>380.1</ele>
        <time>2024-02-17T17:21:40Z</time>
      </trkpt>
      <trkpt lat="44.10859" lon="3.13628">
        <ele>380.3</ele>
        <time>2024-02-17T17:21:42Z</time>
      </trkpt>
      <trkpt lat="44.10867" lon="3.13613">
        <ele>381.3</ele>
        <time>2024-02-17T17:21:44Z</time>
      </trkpt>
      <trkpt lat="44.10875" lon="3.13597">
        <ele>381</ele>
        <time>2024-02-17T17:21:46Z</time>
      </trkpt>
      <trkpt lat="44.10882" lon="3.13581">
        <ele>380.1</ele>
        <time>2024-02-17T17:21:48Z</time>
      </trkpt>
      <trkpt lat="44.10889" lon="3.13564">
        <ele>379.6</ele>
        <time>2024-02-17T17:21:50Z</time>
      </trkpt>
      <trkpt lat="44.10896" lon="3.13548">
        <ele>379.6</ele>
        <time>2024-02-17T17:21:52Z</time>
      </trkpt>
      <trkpt lat="44.10901" lon="3.13535">
        <ele>379.2</ele>
        <time>2024-02-17T17:21:54Z</time>
      </trkpt>
      <trkpt lat="44.10906" lon="3.13522">
        <ele>378.8</ele>
        <time>2024-02-17T17:21:56Z</time>
      </trkpt>
      <trkpt lat="44.10911" lon="3.13509">
        <ele>377.9</ele>
        <time>2024-02-17T17:21:58Z</time>
      </trkpt>
      <trkpt lat="44.10915" lon="3.13498">
        <ele>376.7</ele>
        <time>2024-02-17T17:22:00Z</time>
      </trkpt>
      <trkpt lat="44.10921" lon="3.13485">
        <ele>378.8</ele>
        <time>2024-02-17T17:22:02Z</time>
      </trkpt>
      <trkpt lat="44.10926" lon="3.13474">
        <ele>380.7</ele>
        <time>2024-02-17T17:22:04Z</time>
      </trkpt>
      <trkpt lat="44.10931" lon="3.1346">
        <ele>379.8</ele>
        <time>2024-02-17T17:22:06Z</time>
      </trkpt>
      <trkpt lat="44.10936" lon="3.13448">
        <ele>379.2</ele>
        <time>2024-02-17T17:22:08Z</time>
      </trkpt>
      <trkpt lat="44.10942" lon="3.13435">
        <ele>379.2</ele>
        <time>2024-02-17T17:22:10Z</time>
      </trkpt>
      <trkpt lat="44.10947" lon="3.13422">
        <ele>379.3</ele>
        <time>2024-02-17T17:22:12Z</time>
      </trkpt>
      <trkpt lat="44.10952" lon="3.13409">
        <ele>379.4</ele>
        <time>2024-02-17T17:22:14Z</time>
      </trkpt>
      <trkpt lat="44.10956" lon="3.13395">
        <ele>378.6</ele>
        <time>2024-02-17T17:22:16Z</time>
      </trkpt>
      <trkpt lat="44.10961" lon="3.13381">
        <ele>378.4</ele>
        <time>2024-02-17T17:22:18Z</time>
      </trkpt>
      <trkpt lat="44.10965" lon="3.13365">
        <ele>377.7</ele>
        <time>2024-02-17T17:22:20Z</time>
      </trkpt>
      <trkpt lat="44.10967" lon="3.13349">
        <ele>377.3</ele>
        <time>2024-02-17T17:22:22Z</time>
      </trkpt>
      <trkpt lat="44.10969" lon="3.13334">
        <ele>377.3</ele>
        <time>2024-02-17T17:22:24Z</time>
      </trkpt>
      <trkpt lat="44.10969" lon="3.1332">
        <ele>376.8</ele>
        <time>2024-02-17T17:22:26Z</time>
      </trkpt>
      <trkpt lat="44.10968" lon="3.13308">
        <ele>375.9</ele>
        <time>2024-02-17T17:22:28Z</time>
      </trkpt>
      <trkpt lat="44.10967" lon="3.1329">
        <ele>375.5</ele>
        <time>2024-02-17T17:22:31Z</time>
      </trkpt>
      <trkpt lat="44.10965" lon="3.13276">
        <ele>374.8</ele>
        <time>2024-02-17T17:22:34Z</time>
      </trkpt>
      <trkpt lat="44.10964" lon="3.13261">
        <ele>375.8</ele>
        <time>2024-02-17T17:22:37Z</time>
      </trkpt>
      <trkpt lat="44.10963" lon="3.13246">
        <ele>376.7</ele>
        <time>2024-02-17T17:22:41Z</time>
      </trkpt>
      <trkpt lat="44.10964" lon="3.13232">
        <ele>378.3</ele>
        <time>2024-02-17T17:23:21Z</time>
      </trkpt>
      <trkpt lat="44.10962" lon="3.13216">
        <ele>378.7</ele>
        <time>2024-02-17T17:23:25Z</time>
      </trkpt>
      <trkpt lat="44.1096" lon="3.13202">
        <ele>378.8</ele>
        <time>2024-02-17T17:23:28Z</time>
      </trkpt>
      <trkpt lat="44.10958" lon="3.13185">
        <ele>379.3</ele>
        <time>2024-02-17T17:23:31Z</time>
      </trkpt>
      <trkpt lat="44.10957" lon="3.13168">
        <ele>380.5</ele>
        <time>2024-02-17T17:23:34Z</time>
      </trkpt>
      <trkpt lat="44.10954" lon="3.1315">
        <ele>380</ele>
        <time>2024-02-17T17:23:37Z</time>
      </trkpt>
      <trkpt lat="44.10951" lon="3.13132">
        <ele>379.5</ele>
        <time>2024-02-17T17:23:40Z</time>
      </trkpt>
      <trkpt lat="44.10949" lon="3.13119">
        <ele>379.8</ele>
        <time>2024-02-17T17:23:42Z</time>
      </trkpt>
      <trkpt lat="44.10946" lon="3.13106">
        <ele>378.8</ele>
        <time>2024-02-17T17:23:44Z</time>
      </trkpt>
      <trkpt lat="44.10943" lon="3.13093">
        <ele>377.8</ele>
        <time>2024-02-17T17:23:46Z</time>
      </trkpt>
      <trkpt lat="44.10939" lon="3.1308">
        <ele>377.7</ele>
        <time>2024-02-17T17:23:48Z</time>
      </trkpt>
      <trkpt lat="44.10935" lon="3.13066">
        <ele>379.2</ele>
        <time>2024-02-17T17:23:50Z</time>
      </trkpt>
      <trkpt lat="44.10931" lon="3.13053">
        <ele>380</ele>
        <time>2024-02-17T17:23:52Z</time>
      </trkpt>
      <trkpt lat="44.10927" lon="3.1304">
        <ele>381.4</ele>
        <time>2024-02-17T17:23:54Z</time>
      </trkpt>
      <trkpt lat="44.10922" lon="3.13027">
        <ele>381.2</ele>
        <time>2024-02-17T17:23:56Z</time>
      </trkpt>
      <trkpt lat="44.10918" lon="3.13016">
        <ele>381.1</ele>
        <time>2024-02-17T17:23:58Z</time>
      </trkpt>
      <trkpt lat="44.10913" lon="3.13004">
        <ele>381</ele>
        <time>2024-02-17T17:24:00Z</time>
      </trkpt>
      <trkpt lat="44.10907" lon="3.12992">
        <ele>381.1</ele>
        <time>2024-02-17T17:24:02Z</time>
      </trkpt>
      <trkpt lat="44.10901" lon="3.12979">
        <ele>381.2</ele>
        <time>2024-02-17T17:24:04Z</time>
      </trkpt>
      <trkpt lat="44.10895" lon="3.12967">
        <ele>380.2</ele>
        <time>2024-02-17T17:24:06Z</time>
      </trkpt>
      <trkpt lat="44.10888" lon="3.12955">
        <ele>378.6</ele>
        <time>2024-02-17T17:24:08Z</time>
      </trkpt>
      <trkpt lat="44.10881" lon="3.12944">
        <ele>378.2</ele>
        <time>2024-02-17T17:24:10Z</time>
      </trkpt>
      <trkpt lat="44.10874" lon="3.12933">
        <ele>379.3</ele>
        <time>2024-02-17T17:24:12Z</time>
      </trkpt>
      <trkpt lat="44.10868" lon="3.12922">
        <ele>379.5</ele>
        <time>2024-02-17T17:24:14Z</time>
      </trkpt>
      <trkpt lat="44.10862" lon="3.12911">
        <ele>378.5</ele>
        <time>2024-02-17T17:24:16Z</time>
      </trkpt>
      <trkpt lat="44.10854" lon="3.12901">
        <ele>378.7</ele>
        <time>2024-02-17T17:24:18Z</time>
      </trkpt>
      <trkpt lat="44.10846" lon="3.12892">
        <ele>377.8</ele>
        <time>2024-02-17T17:24:20Z</time>
      </trkpt>
      <trkpt lat="44.10837" lon="3.12885">
        <ele>375.5</ele>
        <time>2024-02-17T17:24:22Z</time>
      </trkpt>
      <trkpt lat="44.10827" lon="3.12877">
        <ele>375.5</ele>
        <time>2024-02-17T17:24:24Z</time>
      </trkpt>
      <trkpt lat="44.10818" lon="3.12872">
        <ele>376.3</ele>
        <time>2024-02-17T17:24:26Z</time>
      </trkpt>
      <trkpt lat="44.10808" lon="3.12869">
        <ele>376.6</ele>
        <time>2024-02-17T17:24:28Z</time>
      </trkpt>
      <trkpt lat="44.10797" lon="3.12866">
        <ele>376.2</ele>
        <time>2024-02-17T17:24:30Z</time>
      </trkpt>
      <trkpt lat="44.10787" lon="3.12864">
        <ele>375.4</ele>
        <time>2024-02-17T17:24:32Z</time>
      </trkpt>
      <trkpt lat="44.10776" lon="3.12862">
        <ele>374.5</ele>
        <time>2024-02-17T17:24:34Z</time>
      </trkpt>
      <trkpt lat="44.10767" lon="3.12859">
        <ele>374.9</ele>
        <time>2024-02-17T17:24:36Z</time>
      </trkpt>
      <trkpt lat="44.10757" lon="3.12857">
        <ele>374.9</ele>
        <time>2024-02-17T17:24:38Z</time>
      </trkpt>
      <trkpt lat="44.10747" lon="3.12856">
        <ele>374.3</ele>
        <time>2024-02-17T17:24:40Z</time>
      </trkpt>
      <trkpt lat="44.10736" lon="3.12855">
        <ele>373.4</ele>
        <time>2024-02-17T17:24:42Z</time>
      </trkpt>
      <trkpt lat="44.10725" lon="3.12854">
        <ele>372.5</ele>
        <time>2024-02-17T17:24:44Z</time>
      </trkpt>
      <trkpt lat="44.10714" lon="3.12853">
        <ele>372.3</ele>
        <time>2024-02-17T17:24:46Z</time>
      </trkpt>
      <trkpt lat="44.10703" lon="3.12853">
        <ele>371.8</ele>
        <time>2024-02-17T17:24:48Z</time>
      </trkpt>
      <trkpt lat="44.10692" lon="3.12853">
        <ele>371.5</ele>
        <time>2024-02-17T17:24:50Z</time>
      </trkpt>
      <trkpt lat="44.10679" lon="3.12854">
        <ele>371.7</ele>
        <time>2024-02-17T17:24:52Z</time>
      </trkpt>
      <trkpt lat="44.10667" lon="3.12855">
        <ele>371.8</ele>
        <time>2024-02-17T17:24:54Z</time>
      </trkpt>
      <trkpt lat="44.10655" lon="3.12854">
        <ele>373.4</ele>
        <time>2024-02-17T17:24:56Z</time>
      </trkpt>
      <trkpt lat="44.10643" lon="3.12855">
        <ele>374</ele>
        <time>2024-02-17T17:24:58Z</time>
      </trkpt>
      <trkpt lat="44.1063" lon="3.12857">
        <ele>373.5</ele>
        <time>2024-02-17T17:25:00Z</time>
      </trkpt>
      <trkpt lat="44.10618" lon="3.12858">
        <ele>372.7</ele>
        <time>2024-02-17T17:25:02Z</time>
      </trkpt>
      <trkpt lat="44.10606" lon="3.1286">
        <ele>371.8</ele>
        <time>2024-02-17T17:25:04Z</time>
      </trkpt>
      <trkpt lat="44.10593" lon="3.12862">
        <ele>371.4</ele>
        <time>2024-02-17T17:25:06Z</time>
      </trkpt>
      <trkpt lat="44.10579" lon="3.12865">
        <ele>371</ele>
        <time>2024-02-17T17:25:08Z</time>
      </trkpt>
      <trkpt lat="44.10567" lon="3.12869">
        <ele>370.5</ele>
        <time>2024-02-17T17:25:10Z</time>
      </trkpt>
      <trkpt lat="44.10556" lon="3.12871">
        <ele>370.4</ele>
        <time>2024-02-17T17:25:12Z</time>
      </trkpt>
      <trkpt lat="44.10543" lon="3.12874">
        <ele>369.8</ele>
        <time>2024-02-17T17:25:14Z</time>
      </trkpt>
      <trkpt lat="44.10529" lon="3.12879">
        <ele>368.2</ele>
        <time>2024-02-17T17:25:16Z</time>
      </trkpt>
      <trkpt lat="44.10516" lon="3.12886">
        <ele>367.5</ele>
        <time>2024-02-17T17:25:18Z</time>
      </trkpt>
      <trkpt lat="44.10504" lon="3.12892">
        <ele>367.7</ele>
        <time>2024-02-17T17:25:20Z</time>
      </trkpt>
      <trkpt lat="44.10492" lon="3.129">
        <ele>367.8</ele>
        <time>2024-02-17T17:25:22Z</time>
      </trkpt>
      <trkpt lat="44.1048" lon="3.12908">
        <ele>366.7</ele>
        <time>2024-02-17T17:25:24Z</time>
      </trkpt>
      <trkpt lat="44.10467" lon="3.12915">
        <ele>366.1</ele>
        <time>2024-02-17T17:25:26Z</time>
      </trkpt>
      <trkpt lat="44.10453" lon="3.12922">
        <ele>367.7</ele>
        <time>2024-02-17T17:25:28Z</time>
      </trkpt>
      <trkpt lat="44.10439" lon="3.1293">
        <ele>368.8</ele>
        <time>2024-02-17T17:25:30Z</time>
      </trkpt>
      <trkpt lat="44.10424" lon="3.12939">
        <ele>368.2</ele>
        <time>2024-02-17T17:25:32Z</time>
      </trkpt>
      <trkpt lat="44.10409" lon="3.12949">
        <ele>367.2</ele>
        <time>2024-02-17T17:25:34Z</time>
      </trkpt>
      <trkpt lat="44.10395" lon="3.12958">
        <ele>367.6</ele>
        <time>2024-02-17T17:25:36Z</time>
      </trkpt>
      <trkpt lat="44.10381" lon="3.12965">
        <ele>366.9</ele>
        <time>2024-02-17T17:25:38Z</time>
      </trkpt>
      <trkpt lat="44.10366" lon="3.1297">
        <ele>366.5</ele>
        <time>2024-02-17T17:25:40Z</time>
      </trkpt>
      <trkpt lat="44.10352" lon="3.12974">
        <ele>366.4</ele>
        <time>2024-02-17T17:25:42Z</time>
      </trkpt>
      <trkpt lat="44.10337" lon="3.12974">
        <ele>367.4</ele>
        <time>2024-02-17T17:25:44Z</time>
      </trkpt>
      <trkpt lat="44.10324" lon="3.12973">
        <ele>367.5</ele>
        <time>2024-02-17T17:25:46Z</time>
      </trkpt>
      <trkpt lat="44.10311" lon="3.12969">
        <ele>368.1</ele>
        <time>2024-02-17T17:25:48Z</time>
      </trkpt>
      <trkpt lat="44.10299" lon="3.12966">
        <ele>368.3</ele>
        <time>2024-02-17T17:25:50Z</time>
      </trkpt>
      <trkpt lat="44.10285" lon="3.12958">
        <ele>368.7</ele>
        <time>2024-02-17T17:25:52Z</time>
      </trkpt>
      <trkpt lat="44.10272" lon="3.12949">
        <ele>368.3</ele>
        <time>2024-02-17T17:25:54Z</time>
      </trkpt>
      <trkpt lat="44.10257" lon="3.12941">
        <ele>367.7</ele>
        <time>2024-02-17T17:25:56Z</time>
      </trkpt>
      <trkpt lat="44.10245" lon="3.1293">
        <ele>367.3</ele>
        <time>2024-02-17T17:25:58Z</time>
      </trkpt>
      <trkpt lat="44.10235" lon="3.12917">
        <ele>367.4</ele>
        <time>2024-02-17T17:26:00Z</time>
      </trkpt>
      <trkpt lat="44.10226" lon="3.12904">
        <ele>367.8</ele>
        <time>2024-02-17T17:26:02Z</time>
      </trkpt>
      <trkpt lat="44.1022" lon="3.12889">
        <ele>367.8</ele>
        <time>2024-02-17T17:26:04Z</time>
      </trkpt>
      <trkpt lat="44.10214" lon="3.12874">
        <ele>368.4</ele>
        <time>2024-02-17T17:26:06Z</time>
      </trkpt>
      <trkpt lat="44.10209" lon="3.12859">
        <ele>368.7</ele>
        <time>2024-02-17T17:26:08Z</time>
      </trkpt>
      <trkpt lat="44.10206" lon="3.12843">
        <ele>368.5</ele>
        <time>2024-02-17T17:26:10Z</time>
      </trkpt>
      <trkpt lat="44.10203" lon="3.12827">
        <ele>368.4</ele>
        <time>2024-02-17T17:26:12Z</time>
      </trkpt>
      <trkpt lat="44.102" lon="3.1281">
        <ele>368.3</ele>
        <time>2024-02-17T17:26:14Z</time>
      </trkpt>
      <trkpt lat="44.10198" lon="3.12793">
        <ele>368.3</ele>
        <time>2024-02-17T17:26:16Z</time>
      </trkpt>
      <trkpt lat="44.10195" lon="3.12776">
        <ele>368.1</ele>
        <time>2024-02-17T17:26:18Z</time>
      </trkpt>
      <trkpt lat="44.10193" lon="3.12759">
        <ele>367.2</ele>
        <time>2024-02-17T17:26:20Z</time>
      </trkpt>
      <trkpt lat="44.10192" lon="3.12742">
        <ele>367</ele>
        <time>2024-02-17T17:26:22Z</time>
      </trkpt>
      <trkpt lat="44.10189" lon="3.12725">
        <ele>367</ele>
        <time>2024-02-17T17:26:24Z</time>
      </trkpt>
      <trkpt lat="44.10186" lon="3.12707">
        <ele>365.7</ele>
        <time>2024-02-17T17:26:26Z</time>
      </trkpt>
      <trkpt lat="44.10182" lon="3.12689">
        <ele>364.6</ele>
        <time>2024-02-17T17:26:28Z</time>
      </trkpt>
      <trkpt lat="44.10179" lon="3.12671">
        <ele>364.4</ele>
        <time>2024-02-17T17:26:30Z</time>
      </trkpt>
      <trkpt lat="44.10175" lon="3.12653">
        <ele>364.6</ele>
        <time>2024-02-17T17:26:32Z</time>
      </trkpt>
      <trkpt lat="44.10172" lon="3.12635">
        <ele>365</ele>
        <time>2024-02-17T17:26:34Z</time>
      </trkpt>
      <trkpt lat="44.10169" lon="3.12616">
        <ele>365</ele>
        <time>2024-02-17T17:26:36Z</time>
      </trkpt>
      <trkpt lat="44.10165" lon="3.12598">
        <ele>364.8</ele>
        <time>2024-02-17T17:26:38Z</time>
      </trkpt>
      <trkpt lat="44.10162" lon="3.1258">
        <ele>364.3</ele>
        <time>2024-02-17T17:26:40Z</time>
      </trkpt>
      <trkpt lat="44.10159" lon="3.12561">
        <ele>363.9</ele>
        <time>2024-02-17T17:26:42Z</time>
      </trkpt>
      <trkpt lat="44.10156" lon="3.12543">
        <ele>363.6</ele>
        <time>2024-02-17T17:26:44Z</time>
      </trkpt>
      <trkpt lat="44.10153" lon="3.12525">
        <ele>363.6</ele>
        <time>2024-02-17T17:26:46Z</time>
      </trkpt>
      <trkpt lat="44.1015" lon="3.12508">
        <ele>363.6</ele>
        <time>2024-02-17T17:26:48Z</time>
      </trkpt>
      <trkpt lat="44.10148" lon="3.12491">
        <ele>363.9</ele>
        <time>2024-02-17T17:26:50Z</time>
      </trkpt>
      <trkpt lat="44.10146" lon="3.12473">
        <ele>364.2</ele>
        <time>2024-02-17T17:26:52Z</time>
      </trkpt>
      <trkpt lat="44.10143" lon="3.12455">
        <ele>364.7</ele>
        <time>2024-02-17T17:26:54Z</time>
      </trkpt>
      <trkpt lat="44.1014" lon="3.12437">
        <ele>364.7</ele>
        <time>2024-02-17T17:26:56Z</time>
      </trkpt>
      <trkpt lat="44.10137" lon="3.12419">
        <ele>363.8</ele>
        <time>2024-02-17T17:26:58Z</time>
      </trkpt>
      <trkpt lat="44.10133" lon="3.12401">
        <ele>363.2</ele>
        <time>2024-02-17T17:27:00Z</time>
      </trkpt>
      <trkpt lat="44.1013" lon="3.12384">
        <ele>362.8</ele>
        <time>2024-02-17T17:27:02Z</time>
      </trkpt>
      <trkpt lat="44.10127" lon="3.12366">
        <ele>363</ele>
        <time>2024-02-17T17:27:04Z</time>
      </trkpt>
      <trkpt lat="44.10125" lon="3.12348">
        <ele>363.2</ele>
        <time>2024-02-17T17:27:06Z</time>
      </trkpt>
      <trkpt lat="44.10125" lon="3.12331">
        <ele>363.5</ele>
        <time>2024-02-17T17:27:08Z</time>
      </trkpt>
      <trkpt lat="44.10125" lon="3.12314">
        <ele>363.8</ele>
        <time>2024-02-17T17:27:10Z</time>
      </trkpt>
      <trkpt lat="44.10124" lon="3.12296">
        <ele>364.2</ele>
        <time>2024-02-17T17:27:12Z</time>
      </trkpt>
      <trkpt lat="44.10124" lon="3.12279">
        <ele>364.5</ele>
        <time>2024-02-17T17:27:14Z</time>
      </trkpt>
      <trkpt lat="44.10124" lon="3.12262">
        <ele>364.2</ele>
        <time>2024-02-17T17:27:16Z</time>
      </trkpt>
      <trkpt lat="44.10124" lon="3.12244">
        <ele>364</ele>
        <time>2024-02-17T17:27:18Z</time>
      </trkpt>
      <trkpt lat="44.10123" lon="3.12227">
        <ele>364</ele>
        <time>2024-02-17T17:27:20Z</time>
      </trkpt>
      <trkpt lat="44.10123" lon="3.12209">
        <ele>364</ele>
        <time>2024-02-17T17:27:22Z</time>
      </trkpt>
      <trkpt lat="44.10122" lon="3.12192">
        <ele>364</ele>
        <time>2024-02-17T17:27:24Z</time>
      </trkpt>
      <trkpt lat="44.10121" lon="3.12175">
        <ele>364</ele>
        <time>2024-02-17T17:27:26Z</time>
      </trkpt>
      <trkpt lat="44.10121" lon="3.12157">
        <ele>363.9</ele>
        <time>2024-02-17T17:27:28Z</time>
      </trkpt>
      <trkpt lat="44.1012" lon="3.12138">
        <ele>363.7</ele>
        <time>2024-02-17T17:27:30Z</time>
      </trkpt>
      <trkpt lat="44.10119" lon="3.12121">
        <ele>363.7</ele>
        <time>2024-02-17T17:27:32Z</time>
      </trkpt>
      <trkpt lat="44.10119" lon="3.12102">
        <ele>363.7</ele>
        <time>2024-02-17T17:27:34Z</time>
      </trkpt>
      <trkpt lat="44.1012" lon="3.12085">
        <ele>363.7</ele>
        <time>2024-02-17T17:27:36Z</time>
      </trkpt>
      <trkpt lat="44.1012" lon="3.12067">
        <ele>363.3</ele>
        <time>2024-02-17T17:27:38Z</time>
      </trkpt>
      <trkpt lat="44.1012" lon="3.1205">
        <ele>363.1</ele>
        <time>2024-02-17T17:27:40Z</time>
      </trkpt>
      <trkpt lat="44.10121" lon="3.12033">
        <ele>363.5</ele>
        <time>2024-02-17T17:27:42Z</time>
      </trkpt>
      <trkpt lat="44.10122" lon="3.12017">
        <ele>363.4</ele>
        <time>2024-02-17T17:27:44Z</time>
      </trkpt>
      <trkpt lat="44.10122" lon="3.12001">
        <ele>363</ele>
        <time>2024-02-17T17:27:46Z</time>
      </trkpt>
      <trkpt lat="44.10123" lon="3.11986">
        <ele>363</ele>
        <time>2024-02-17T17:27:48Z</time>
      </trkpt>
      <trkpt lat="44.10124" lon="3.1197">
        <ele>363</ele>
        <time>2024-02-17T17:27:50Z</time>
      </trkpt>
      <trkpt lat="44.10125" lon="3.11954">
        <ele>363</ele>
        <time>2024-02-17T17:27:52Z</time>
      </trkpt>
      <trkpt lat="44.10125" lon="3.11938">
        <ele>363</ele>
        <time>2024-02-17T17:27:54Z</time>
      </trkpt>
      <trkpt lat="44.10126" lon="3.11922">
        <ele>363</ele>
        <time>2024-02-17T17:27:56Z</time>
      </trkpt>
      <trkpt lat="44.10127" lon="3.11906">
        <ele>362.7</ele>
        <time>2024-02-17T17:27:58Z</time>
      </trkpt>
      <trkpt lat="44.10128" lon="3.1189">
        <ele>362.2</ele>
        <time>2024-02-17T17:28:00Z</time>
      </trkpt>
      <trkpt lat="44.10128" lon="3.11873">
        <ele>362</ele>
        <time>2024-02-17T17:28:02Z</time>
      </trkpt>
      <trkpt lat="44.10129" lon="3.11857">
        <ele>362</ele>
        <time>2024-02-17T17:28:04Z</time>
      </trkpt>
      <trkpt lat="44.1013" lon="3.11841">
        <ele>362.3</ele>
        <time>2024-02-17T17:28:06Z</time>
      </trkpt>
      <trkpt lat="44.10131" lon="3.11826">
        <ele>362.4</ele>
        <time>2024-02-17T17:28:08Z</time>
      </trkpt>
      <trkpt lat="44.10132" lon="3.11812">
        <ele>362.2</ele>
        <time>2024-02-17T17:28:10Z</time>
      </trkpt>
      <trkpt lat="44.10132" lon="3.11797">
        <ele>362</ele>
        <time>2024-02-17T17:28:12Z</time>
      </trkpt>
      <trkpt lat="44.10133" lon="3.11782">
        <ele>362.2</ele>
        <time>2024-02-17T17:28:14Z</time>
      </trkpt>
      <trkpt lat="44.10134" lon="3.11766">
        <ele>362.3</ele>
        <time>2024-02-17T17:28:16Z</time>
      </trkpt>
      <trkpt lat="44.10136" lon="3.11751">
        <ele>362.6</ele>
        <time>2024-02-17T17:28:18Z</time>
      </trkpt>
      <trkpt lat="44.10138" lon="3.11735">
        <ele>363.4</ele>
        <time>2024-02-17T17:28:20Z</time>
      </trkpt>
      <trkpt lat="44.1014" lon="3.11721">
        <ele>364</ele>
        <time>2024-02-17T17:28:22Z</time>
      </trkpt>
      <trkpt lat="44.10143" lon="3.11706">
        <ele>364.1</ele>
        <time>2024-02-17T17:28:24Z</time>
      </trkpt>
      <trkpt lat="44.10147" lon="3.11692">
        <ele>364.3</ele>
        <time>2024-02-17T17:28:26Z</time>
      </trkpt>
      <trkpt lat="44.10151" lon="3.11679">
        <ele>364.4</ele>
        <time>2024-02-17T17:28:28Z</time>
      </trkpt>
      <trkpt lat="44.10154" lon="3.11666">
        <ele>364.6</ele>
        <time>2024-02-17T17:28:30Z</time>
      </trkpt>
      <trkpt lat="44.10156" lon="3.11654">
        <ele>364.8</ele>
        <time>2024-02-17T17:28:32Z</time>
      </trkpt>
      <trkpt lat="44.10157" lon="3.11634">
        <ele>365</ele>
        <time>2024-02-17T17:28:35Z</time>
      </trkpt>
      <trkpt lat="44.10156" lon="3.1162">
        <ele>364.8</ele>
        <time>2024-02-17T17:28:37Z</time>
      </trkpt>
      <trkpt lat="44.10153" lon="3.11605">
        <ele>365.1</ele>
        <time>2024-02-17T17:28:39Z</time>
      </trkpt>
      <trkpt lat="44.10148" lon="3.11591">
        <ele>365.4</ele>
        <time>2024-02-17T17:28:41Z</time>
      </trkpt>
      <trkpt lat="44.10143" lon="3.11578">
        <ele>365.3</ele>
        <time>2024-02-17T17:28:43Z</time>
      </trkpt>
      <trkpt lat="44.10137" lon="3.11566">
        <ele>364.3</ele>
        <time>2024-02-17T17:28:45Z</time>
      </trkpt>
      <trkpt lat="44.10132" lon="3.11552">
        <ele>364.5</ele>
        <time>2024-02-17T17:28:47Z</time>
      </trkpt>
      <trkpt lat="44.10127" lon="3.1154">
        <ele>365.6</ele>
        <time>2024-02-17T17:28:49Z</time>
      </trkpt>
      <trkpt lat="44.10121" lon="3.11527">
        <ele>365.7</ele>
        <time>2024-02-17T17:28:51Z</time>
      </trkpt>
      <trkpt lat="44.10114" lon="3.11516">
        <ele>365</ele>
        <time>2024-02-17T17:28:53Z</time>
      </trkpt>
      <trkpt lat="44.10107" lon="3.11505">
        <ele>364.4</ele>
        <time>2024-02-17T17:28:55Z</time>
      </trkpt>
      <trkpt lat="44.10099" lon="3.11494">
        <ele>364.4</ele>
        <time>2024-02-17T17:28:57Z</time>
      </trkpt>
      <trkpt lat="44.10091" lon="3.11485">
        <ele>364.1</ele>
        <time>2024-02-17T17:28:59Z</time>
      </trkpt>
      <trkpt lat="44.10082" lon="3.11475">
        <ele>363.3</ele>
        <time>2024-02-17T17:29:01Z</time>
      </trkpt>
      <trkpt lat="44.10074" lon="3.11464">
        <ele>364.2</ele>
        <time>2024-02-17T17:29:03Z</time>
      </trkpt>
      <trkpt lat="44.10065" lon="3.11454">
        <ele>364.4</ele>
        <time>2024-02-17T17:29:05Z</time>
      </trkpt>
      <trkpt lat="44.10057" lon="3.11445">
        <ele>364.3</ele>
        <time>2024-02-17T17:29:07Z</time>
      </trkpt>
      <trkpt lat="44.10049" lon="3.11435">
        <ele>365</ele>
        <time>2024-02-17T17:29:09Z</time>
      </trkpt>
      <trkpt lat="44.10043" lon="3.11423">
        <ele>366.4</ele>
        <time>2024-02-17T17:29:11Z</time>
      </trkpt>
      <trkpt lat="44.10038" lon="3.1141">
        <ele>366.8</ele>
        <time>2024-02-17T17:29:13Z</time>
      </trkpt>
      <trkpt lat="44.10034" lon="3.11396">
        <ele>366.3</ele>
        <time>2024-02-17T17:29:15Z</time>
      </trkpt>
      <trkpt lat="44.10031" lon="3.11382">
        <ele>366.3</ele>
        <time>2024-02-17T17:29:17Z</time>
      </trkpt>
      <trkpt lat="44.10027" lon="3.11368">
        <ele>366.4</ele>
        <time>2024-02-17T17:29:19Z</time>
      </trkpt>
      <trkpt lat="44.10024" lon="3.11354">
        <ele>366.8</ele>
        <time>2024-02-17T17:29:21Z</time>
      </trkpt>
      <trkpt lat="44.10021" lon="3.11339">
        <ele>367.2</ele>
        <time>2024-02-17T17:29:23Z</time>
      </trkpt>
      <trkpt lat="44.10018" lon="3.11324">
        <ele>366.9</ele>
        <time>2024-02-17T17:29:25Z</time>
      </trkpt>
      <trkpt lat="44.10015" lon="3.11309">
        <ele>366.2</ele>
        <time>2024-02-17T17:29:27Z</time>
      </trkpt>
      <trkpt lat="44.10012" lon="3.11295">
        <ele>365.8</ele>
        <time>2024-02-17T17:29:29Z</time>
      </trkpt>
      <trkpt lat="44.1001" lon="3.1128">
        <ele>365.7</ele>
        <time>2024-02-17T17:29:31Z</time>
      </trkpt>
      <trkpt lat="44.10009" lon="3.11265">
        <ele>365.8</ele>
        <time>2024-02-17T17:29:33Z</time>
      </trkpt>
      <trkpt lat="44.10008" lon="3.1125">
        <ele>365.7</ele>
        <time>2024-02-17T17:29:35Z</time>
      </trkpt>
      <trkpt lat="44.10008" lon="3.11234">
        <ele>365.9</ele>
        <time>2024-02-17T17:29:37Z</time>
      </trkpt>
      <trkpt lat="44.1001" lon="3.11218">
        <ele>366.5</ele>
        <time>2024-02-17T17:29:39Z</time>
      </trkpt>
      <trkpt lat="44.10011" lon="3.11203">
        <ele>366.8</ele>
        <time>2024-02-17T17:29:41Z</time>
      </trkpt>
      <trkpt lat="44.10014" lon="3.11187">
        <ele>367.4</ele>
        <time>2024-02-17T17:29:43Z</time>
      </trkpt>
      <trkpt lat="44.10016" lon="3.11173">
        <ele>367.6</ele>
        <time>2024-02-17T17:29:45Z</time>
      </trkpt>
      <trkpt lat="44.1002" lon="3.11158">
        <ele>368</ele>
        <time>2024-02-17T17:29:47Z</time>
      </trkpt>
      <trkpt lat="44.10022" lon="3.11143">
        <ele>367.8</ele>
        <time>2024-02-17T17:29:49Z</time>
      </trkpt>
      <trkpt lat="44.10024" lon="3.11128">
        <ele>366.8</ele>
        <time>2024-02-17T17:29:51Z</time>
      </trkpt>
      <trkpt lat="44.10025" lon="3.11113">
        <ele>365.7</ele>
        <time>2024-02-17T17:29:53Z</time>
      </trkpt>
      <trkpt lat="44.10027" lon="3.11097">
        <ele>365.4</ele>
        <time>2024-02-17T17:29:55Z</time>
      </trkpt>
      <trkpt lat="44.10028" lon="3.11081">
        <ele>365</ele>
        <time>2024-02-17T17:29:57Z</time>
      </trkpt>
      <trkpt lat="44.1003" lon="3.11065">
        <ele>364.7</ele>
        <time>2024-02-17T17:29:59Z</time>
      </trkpt>
      <trkpt lat="44.1003" lon="3.1105">
        <ele>364.3</ele>
        <time>2024-02-17T17:30:01Z</time>
      </trkpt>
      <trkpt lat="44.10031" lon="3.11034">
        <ele>364.5</ele>
        <time>2024-02-17T17:30:03Z</time>
      </trkpt>
      <trkpt lat="44.10032" lon="3.11018">
        <ele>364.6</ele>
        <time>2024-02-17T17:30:05Z</time>
      </trkpt>
      <trkpt lat="44.10033" lon="3.11002">
        <ele>364.8</ele>
        <time>2024-02-17T17:30:07Z</time>
      </trkpt>
      <trkpt lat="44.10034" lon="3.10985">
        <ele>364.7</ele>
        <time>2024-02-17T17:30:09Z</time>
      </trkpt>
      <trkpt lat="44.10035" lon="3.10968">
        <ele>364.5</ele>
        <time>2024-02-17T17:30:11Z</time>
      </trkpt>
      <trkpt lat="44.10037" lon="3.10952">
        <ele>364.7</ele>
        <time>2024-02-17T17:30:13Z</time>
      </trkpt>
      <trkpt lat="44.10038" lon="3.10937">
        <ele>364.6</ele>
        <time>2024-02-17T17:30:15Z</time>
      </trkpt>
      <trkpt lat="44.10039" lon="3.1092">
        <ele>364.5</ele>
        <time>2024-02-17T17:30:17Z</time>
      </trkpt>
      <trkpt lat="44.1004" lon="3.10905">
        <ele>364.4</ele>
        <time>2024-02-17T17:30:19Z</time>
      </trkpt>
      <trkpt lat="44.10041" lon="3.10889">
        <ele>364.5</ele>
        <time>2024-02-17T17:30:21Z</time>
      </trkpt>
      <trkpt lat="44.10042" lon="3.10873">
        <ele>364.2</ele>
        <time>2024-02-17T17:30:23Z</time>
      </trkpt>
      <trkpt lat="44.10042" lon="3.10858">
        <ele>364.1</ele>
        <time>2024-02-17T17:30:25Z</time>
      </trkpt>
      <trkpt lat="44.10043" lon="3.10843">
        <ele>364.4</ele>
        <time>2024-02-17T17:30:27Z</time>
      </trkpt>
      <trkpt lat="44.10043" lon="3.10829">
        <ele>364.4</ele>
        <time>2024-02-17T17:30:29Z</time>
      </trkpt>
      <trkpt lat="44.10044" lon="3.10815">
        <ele>364</ele>
        <time>2024-02-17T17:30:31Z</time>
      </trkpt>
      <trkpt lat="44.10045" lon="3.10802">
        <ele>363.8</ele>
        <time>2024-02-17T17:30:33Z</time>
      </trkpt>
      <trkpt lat="44.10046" lon="3.10788">
        <ele>363.8</ele>
        <time>2024-02-17T17:30:35Z</time>
      </trkpt>
      <trkpt lat="44.10047" lon="3.10773">
        <ele>363.6</ele>
        <time>2024-02-17T17:30:37Z</time>
      </trkpt>
      <trkpt lat="44.10047" lon="3.10759">
        <ele>363.3</ele>
        <time>2024-02-17T17:30:39Z</time>
      </trkpt>
      <trkpt lat="44.10048" lon="3.10743">
        <ele>363.2</ele>
        <time>2024-02-17T17:30:41Z</time>
      </trkpt>
      <trkpt lat="44.10048" lon="3.10728">
        <ele>363.2</ele>
        <time>2024-02-17T17:30:43Z</time>
      </trkpt>
      <trkpt lat="44.10049" lon="3.10711">
        <ele>363.3</ele>
        <time>2024-02-17T17:30:45Z</time>
      </trkpt>
      <trkpt lat="44.10052" lon="3.10695">
        <ele>363.6</ele>
        <time>2024-02-17T17:30:47Z</time>
      </trkpt>
      <trkpt lat="44.10054" lon="3.10678">
        <ele>363.8</ele>
        <time>2024-02-17T17:30:49Z</time>
      </trkpt>
      <trkpt lat="44.10056" lon="3.10661">
        <ele>364.3</ele>
        <time>2024-02-17T17:30:51Z</time>
      </trkpt>
      <trkpt lat="44.10057" lon="3.10644">
        <ele>365.3</ele>
        <time>2024-02-17T17:30:53Z</time>
      </trkpt>
      <trkpt lat="44.10057" lon="3.10631">
        <ele>365.5</ele>
        <time>2024-02-17T17:30:55Z</time>
      </trkpt>
      <trkpt lat="44.10055" lon="3.10616">
        <ele>364.8</ele>
        <time>2024-02-17T17:30:57Z</time>
      </trkpt>
      <trkpt lat="44.10055" lon="3.10602">
        <ele>364.5</ele>
        <time>2024-02-17T17:30:59Z</time>
      </trkpt>
      <trkpt lat="44.10054" lon="3.10589">
        <ele>363.7</ele>
        <time>2024-02-17T17:31:01Z</time>
      </trkpt>
      <trkpt lat="44.10054" lon="3.10574">
        <ele>363.6</ele>
        <time>2024-02-17T17:31:03Z</time>
      </trkpt>
      <trkpt lat="44.10055" lon="3.10557">
        <ele>363.8</ele>
        <time>2024-02-17T17:31:05Z</time>
      </trkpt>
      <trkpt lat="44.10056" lon="3.1054">
        <ele>362.9</ele>
        <time>2024-02-17T17:31:07Z</time>
      </trkpt>
      <trkpt lat="44.10056" lon="3.1052">
        <ele>361.8</ele>
        <time>2024-02-17T17:31:09Z</time>
      </trkpt>
      <trkpt lat="44.10057" lon="3.105">
        <ele>361.2</ele>
        <time>2024-02-17T17:31:11Z</time>
      </trkpt>
      <trkpt lat="44.10058" lon="3.10482">
        <ele>361.3</ele>
        <time>2024-02-17T17:31:13Z</time>
      </trkpt>
      <trkpt lat="44.10059" lon="3.10467">
        <ele>361.5</ele>
        <time>2024-02-17T17:31:15Z</time>
      </trkpt>
      <trkpt lat="44.10061" lon="3.10453">
        <ele>362.1</ele>
        <time>2024-02-17T17:31:17Z</time>
      </trkpt>
      <trkpt lat="44.10061" lon="3.10435">
        <ele>362.3</ele>
        <time>2024-02-17T17:31:20Z</time>
      </trkpt>
      <trkpt lat="44.10059" lon="3.10422">
        <ele>362.1</ele>
        <time>2024-02-17T17:31:22Z</time>
      </trkpt>
      <trkpt lat="44.10056" lon="3.10408">
        <ele>362</ele>
        <time>2024-02-17T17:31:24Z</time>
      </trkpt>
      <trkpt lat="44.10053" lon="3.10394">
        <ele>361.4</ele>
        <time>2024-02-17T17:31:26Z</time>
      </trkpt>
      <trkpt lat="44.10049" lon="3.10381">
        <ele>360.6</ele>
        <time>2024-02-17T17:31:28Z</time>
      </trkpt>
      <trkpt lat="44.10046" lon="3.10367">
        <ele>359.9</ele>
        <time>2024-02-17T17:31:30Z</time>
      </trkpt>
      <trkpt lat="44.10042" lon="3.10354">
        <ele>359.4</ele>
        <time>2024-02-17T17:31:32Z</time>
      </trkpt>
      <trkpt lat="44.10037" lon="3.10341">
        <ele>359.7</ele>
        <time>2024-02-17T17:31:34Z</time>
      </trkpt>
      <trkpt lat="44.10033" lon="3.10327">
        <ele>360.2</ele>
        <time>2024-02-17T17:31:36Z</time>
      </trkpt>
      <trkpt lat="44.1003" lon="3.10313">
        <ele>360.1</ele>
        <time>2024-02-17T17:31:38Z</time>
      </trkpt>
      <trkpt lat="44.10026" lon="3.10299">
        <ele>359.7</ele>
        <time>2024-02-17T17:31:40Z</time>
      </trkpt>
      <trkpt lat="44.10023" lon="3.10285">
        <ele>359.3</ele>
        <time>2024-02-17T17:31:42Z</time>
      </trkpt>
      <trkpt lat="44.1002" lon="3.1027">
        <ele>359</ele>
        <time>2024-02-17T17:31:44Z</time>
      </trkpt>
      <trkpt lat="44.10018" lon="3.10255">
        <ele>359.2</ele>
        <time>2024-02-17T17:31:46Z</time>
      </trkpt>
      <trkpt lat="44.10015" lon="3.10242">
        <ele>359.2</ele>
        <time>2024-02-17T17:31:48Z</time>
      </trkpt>
      <trkpt lat="44.10013" lon="3.10227">
        <ele>359.4</ele>
        <time>2024-02-17T17:31:50Z</time>
      </trkpt>
      <trkpt lat="44.1001" lon="3.10213">
        <ele>359.4</ele>
        <time>2024-02-17T17:31:52Z</time>
      </trkpt>
      <trkpt lat="44.10008" lon="3.10198">
        <ele>359.1</ele>
        <time>2024-02-17T17:31:54Z</time>
      </trkpt>
      <trkpt lat="44.10005" lon="3.10184">
        <ele>359.1</ele>
        <time>2024-02-17T17:31:56Z</time>
      </trkpt>
      <trkpt lat="44.10004" lon="3.10169">
        <ele>359.1</ele>
        <time>2024-02-17T17:31:58Z</time>
      </trkpt>
      <trkpt lat="44.10001" lon="3.10154">
        <ele>359.5</ele>
        <time>2024-02-17T17:32:00Z</time>
      </trkpt>
      <trkpt lat="44.09999" lon="3.10139">
        <ele>359.9</ele>
        <time>2024-02-17T17:32:02Z</time>
      </trkpt>
      <trkpt lat="44.09997" lon="3.10126">
        <ele>359.7</ele>
        <time>2024-02-17T17:32:04Z</time>
      </trkpt>
      <trkpt lat="44.09993" lon="3.10114">
        <ele>359.5</ele>
        <time>2024-02-17T17:32:06Z</time>
      </trkpt>
      <trkpt lat="44.09991" lon="3.10101">
        <ele>359.2</ele>
        <time>2024-02-17T17:32:08Z</time>
      </trkpt>
      <trkpt lat="44.09989" lon="3.10087">
        <ele>359</ele>
        <time>2024-02-17T17:32:10Z</time>
      </trkpt>
      <trkpt lat="44.09988" lon="3.10074">
        <ele>359</ele>
        <time>2024-02-17T17:32:12Z</time>
      </trkpt>
      <trkpt lat="44.09988" lon="3.10054">
        <ele>359</ele>
        <time>2024-02-17T17:32:15Z</time>
      </trkpt>
      <trkpt lat="44.09987" lon="3.10041">
        <ele>359</ele>
        <time>2024-02-17T17:32:17Z</time>
      </trkpt>
      <trkpt lat="44.09987" lon="3.10027">
        <ele>359</ele>
        <time>2024-02-17T17:32:19Z</time>
      </trkpt>
      <trkpt lat="44.09987" lon="3.10014">
        <ele>359</ele>
        <time>2024-02-17T17:32:21Z</time>
      </trkpt>
      <trkpt lat="44.09987" lon="3.1">
        <ele>359</ele>
        <time>2024-02-17T17:32:23Z</time>
      </trkpt>
      <trkpt lat="44.09987" lon="3.09987">
        <ele>359</ele>
        <time>2024-02-17T17:32:25Z</time>
      </trkpt>
      <trkpt lat="44.09987" lon="3.09974">
        <ele>359</ele>
        <time>2024-02-17T17:32:27Z</time>
      </trkpt>
      <trkpt lat="44.09987" lon="3.0996">
        <ele>359.2</ele>
        <time>2024-02-17T17:32:29Z</time>
      </trkpt>
      <trkpt lat="44.09987" lon="3.09947">
        <ele>359.4</ele>
        <time>2024-02-17T17:32:31Z</time>
      </trkpt>
      <trkpt lat="44.09988" lon="3.09934">
        <ele>359.4</ele>
        <time>2024-02-17T17:32:33Z</time>
      </trkpt>
      <trkpt lat="44.09988" lon="3.0992">
        <ele>359.4</ele>
        <time>2024-02-17T17:32:35Z</time>
      </trkpt>
      <trkpt lat="44.09989" lon="3.09907">
        <ele>359.3</ele>
        <time>2024-02-17T17:32:37Z</time>
      </trkpt>
      <trkpt lat="44.0999" lon="3.09894">
        <ele>359.1</ele>
        <time>2024-02-17T17:32:39Z</time>
      </trkpt>
      <trkpt lat="44.09992" lon="3.0988">
        <ele>359</ele>
        <time>2024-02-17T17:32:41Z</time>
      </trkpt>
      <trkpt lat="44.09994" lon="3.09866">
        <ele>359</ele>
        <time>2024-02-17T17:32:43Z</time>
      </trkpt>
      <trkpt lat="44.09996" lon="3.09852">
        <ele>359</ele>
        <time>2024-02-17T17:32:45Z</time>
      </trkpt>
      <trkpt lat="44.09999" lon="3.09839">
        <ele>359</ele>
        <time>2024-02-17T17:32:47Z</time>
      </trkpt>
      <trkpt lat="44.10002" lon="3.09823">
        <ele>359</ele>
        <time>2024-02-17T17:32:50Z</time>
      </trkpt>
      <trkpt lat="44.10005" lon="3.0981">
        <ele>359</ele>
        <time>2024-02-17T17:32:52Z</time>
      </trkpt>
      <trkpt lat="44.10008" lon="3.09798">
        <ele>359</ele>
        <time>2024-02-17T17:32:54Z</time>
      </trkpt>
      <trkpt lat="44.10011" lon="3.09786">
        <ele>359</ele>
        <time>2024-02-17T17:32:56Z</time>
      </trkpt>
      <trkpt lat="44.10017" lon="3.0977">
        <ele>359</ele>
        <time>2024-02-17T17:32:59Z</time>
      </trkpt>
      <trkpt lat="44.10024" lon="3.09753">
        <ele>359</ele>
        <time>2024-02-17T17:33:02Z</time>
      </trkpt>
      <trkpt lat="44.10028" lon="3.09741">
        <ele>359</ele>
        <time>2024-02-17T17:33:04Z</time>
      </trkpt>
      <trkpt lat="44.10033" lon="3.09729">
        <ele>359</ele>
        <time>2024-02-17T17:33:06Z</time>
      </trkpt>
      <trkpt lat="44.10038" lon="3.09717">
        <ele>359</ele>
        <time>2024-02-17T17:33:08Z</time>
      </trkpt>
      <trkpt lat="44.10042" lon="3.09702">
        <ele>359</ele>
        <time>2024-02-17T17:33:10Z</time>
      </trkpt>
      <trkpt lat="44.10048" lon="3.09689">
        <ele>359</ele>
        <time>2024-02-17T17:33:12Z</time>
      </trkpt>
      <trkpt lat="44.10053" lon="3.09673">
        <ele>359</ele>
        <time>2024-02-17T17:33:14Z</time>
      </trkpt>
      <trkpt lat="44.10059" lon="3.09658">
        <ele>359.3</ele>
        <time>2024-02-17T17:33:16Z</time>
      </trkpt>
      <trkpt lat="44.10064" lon="3.09644">
        <ele>359.6</ele>
        <time>2024-02-17T17:33:18Z</time>
      </trkpt>
      <trkpt lat="44.10068" lon="3.09631">
        <ele>359.6</ele>
        <time>2024-02-17T17:33:20Z</time>
      </trkpt>
      <trkpt lat="44.10073" lon="3.09618">
        <ele>359.4</ele>
        <time>2024-02-17T17:33:22Z</time>
      </trkpt>
      <trkpt lat="44.10077" lon="3.09606">
        <ele>359.2</ele>
        <time>2024-02-17T17:33:24Z</time>
      </trkpt>
      <trkpt lat="44.10081" lon="3.09594">
        <ele>359</ele>
        <time>2024-02-17T17:33:26Z</time>
      </trkpt>
      <trkpt lat="44.10085" lon="3.09582">
        <ele>358.9</ele>
        <time>2024-02-17T17:33:28Z</time>
      </trkpt>
      <trkpt lat="44.10091" lon="3.09566">
        <ele>358.7</ele>
        <time>2024-02-17T17:33:31Z</time>
      </trkpt>
      <trkpt lat="44.10095" lon="3.09553">
        <ele>358.6</ele>
        <time>2024-02-17T17:33:33Z</time>
      </trkpt>
      <trkpt lat="44.101" lon="3.09539">
        <ele>358.4</ele>
        <time>2024-02-17T17:33:35Z</time>
      </trkpt>
      <trkpt lat="44.10104" lon="3.09527">
        <ele>358.3</ele>
        <time>2024-02-17T17:33:37Z</time>
      </trkpt>
      <trkpt lat="44.10108" lon="3.09515">
        <ele>358.5</ele>
        <time>2024-02-17T17:33:39Z</time>
      </trkpt>
      <trkpt lat="44.10113" lon="3.09502">
        <ele>358.9</ele>
        <time>2024-02-17T17:33:41Z</time>
      </trkpt>
      <trkpt lat="44.10117" lon="3.09488">
        <ele>358.4</ele>
        <time>2024-02-17T17:33:43Z</time>
      </trkpt>
      <trkpt lat="44.10122" lon="3.09476">
        <ele>358.1</ele>
        <time>2024-02-17T17:33:45Z</time>
      </trkpt>
      <trkpt lat="44.10126" lon="3.09464">
        <ele>358</ele>
        <time>2024-02-17T17:33:47Z</time>
      </trkpt>
      <trkpt lat="44.1013" lon="3.09452">
        <ele>358</ele>
        <time>2024-02-17T17:33:49Z</time>
      </trkpt>
      <trkpt lat="44.10135" lon="3.09436">
        <ele>358</ele>
        <time>2024-02-17T17:33:52Z</time>
      </trkpt>
      <trkpt lat="44.10139" lon="3.09419">
        <ele>358</ele>
        <time>2024-02-17T17:33:55Z</time>
      </trkpt>
      <trkpt lat="44.10143" lon="3.09403">
        <ele>358</ele>
        <time>2024-02-17T17:33:58Z</time>
      </trkpt>
      <trkpt lat="44.10147" lon="3.09388">
        <ele>358</ele>
        <time>2024-02-17T17:34:01Z</time>
      </trkpt>
      <trkpt lat="44.10151" lon="3.09374">
        <ele>358.2</ele>
        <time>2024-02-17T17:34:04Z</time>
      </trkpt>
      <trkpt lat="44.10156" lon="3.09363">
        <ele>358.6</ele>
        <time>2024-02-17T17:34:07Z</time>
      </trkpt>
      <trkpt lat="44.10166" lon="3.0935">
        <ele>358.6</ele>
        <time>2024-02-17T17:34:10Z</time>
      </trkpt>
      <trkpt lat="44.10174" lon="3.0934">
        <ele>358.4</ele>
        <time>2024-02-17T17:34:12Z</time>
      </trkpt>
      <trkpt lat="44.1018" lon="3.0933">
        <ele>358.5</ele>
        <time>2024-02-17T17:34:14Z</time>
      </trkpt>
      <trkpt lat="44.10187" lon="3.09315">
        <ele>358.7</ele>
        <time>2024-02-17T17:34:17Z</time>
      </trkpt>
      <trkpt lat="44.10191" lon="3.09299">
        <ele>358.9</ele>
        <time>2024-02-17T17:34:20Z</time>
      </trkpt>
      <trkpt lat="44.10193" lon="3.09286">
        <ele>358.9</ele>
        <time>2024-02-17T17:34:22Z</time>
      </trkpt>
      <trkpt lat="44.10195" lon="3.09273">
        <ele>359</ele>
        <time>2024-02-17T17:34:24Z</time>
      </trkpt>
      <trkpt lat="44.10197" lon="3.09261">
        <ele>359</ele>
        <time>2024-02-17T17:34:26Z</time>
      </trkpt>
      <trkpt lat="44.10202" lon="3.09244">
        <ele>359</ele>
        <time>2024-02-17T17:34:29Z</time>
      </trkpt>
      <trkpt lat="44.1021" lon="3.09231">
        <ele>359</ele>
        <time>2024-02-17T17:34:32Z</time>
      </trkpt>
      <trkpt lat="44.1022" lon="3.09223">
        <ele>359</ele>
        <time>2024-02-17T17:34:35Z</time>
      </trkpt>
      <trkpt lat="44.10231" lon="3.09213">
        <ele>359.3</ele>
        <time>2024-02-17T17:34:38Z</time>
      </trkpt>
      <trkpt lat="44.10239" lon="3.09202">
        <ele>359.5</ele>
        <time>2024-02-17T17:34:40Z</time>
      </trkpt>
      <trkpt lat="44.10245" lon="3.09191">
        <ele>359.2</ele>
        <time>2024-02-17T17:34:42Z</time>
      </trkpt>
      <trkpt lat="44.1025" lon="3.09178">
        <ele>358.2</ele>
        <time>2024-02-17T17:34:44Z</time>
      </trkpt>
      <trkpt lat="44.10256" lon="3.09164">
        <ele>357.9</ele>
        <time>2024-02-17T17:34:46Z</time>
      </trkpt>
      <trkpt lat="44.10262" lon="3.09151">
        <ele>357.6</ele>
        <time>2024-02-17T17:34:48Z</time>
      </trkpt>
      <trkpt lat="44.10267" lon="3.09137">
        <ele>357.2</ele>
        <time>2024-02-17T17:34:50Z</time>
      </trkpt>
      <trkpt lat="44.10272" lon="3.09124">
        <ele>357.8</ele>
        <time>2024-02-17T17:34:52Z</time>
      </trkpt>
      <trkpt lat="44.10278" lon="3.09113">
        <ele>358.2</ele>
        <time>2024-02-17T17:34:54Z</time>
      </trkpt>
      <trkpt lat="44.10284" lon="3.09101">
        <ele>358.1</ele>
        <time>2024-02-17T17:34:56Z</time>
      </trkpt>
      <trkpt lat="44.1029" lon="3.09088">
        <ele>357.8</ele>
        <time>2024-02-17T17:34:58Z</time>
      </trkpt>
      <trkpt lat="44.10296" lon="3.09075">
        <ele>357.6</ele>
        <time>2024-02-17T17:35:00Z</time>
      </trkpt>
      <trkpt lat="44.10301" lon="3.09063">
        <ele>357.7</ele>
        <time>2024-02-17T17:35:02Z</time>
      </trkpt>
      <trkpt lat="44.10306" lon="3.0905">
        <ele>358</ele>
        <time>2024-02-17T17:35:04Z</time>
      </trkpt>
      <trkpt lat="44.1031" lon="3.09037">
        <ele>358.2</ele>
        <time>2024-02-17T17:35:06Z</time>
      </trkpt>
      <trkpt lat="44.10313" lon="3.09023">
        <ele>358.1</ele>
        <time>2024-02-17T17:35:08Z</time>
      </trkpt>
      <trkpt lat="44.10316" lon="3.09009">
        <ele>357.7</ele>
        <time>2024-02-17T17:35:10Z</time>
      </trkpt>
      <trkpt lat="44.10317" lon="3.08995">
        <ele>357.4</ele>
        <time>2024-02-17T17:35:12Z</time>
      </trkpt>
      <trkpt lat="44.10319" lon="3.08978">
        <ele>357.5</ele>
        <time>2024-02-17T17:35:14Z</time>
      </trkpt>
      <trkpt lat="44.10318" lon="3.08963">
        <ele>357.4</ele>
        <time>2024-02-17T17:35:16Z</time>
      </trkpt>
      <trkpt lat="44.10316" lon="3.08949">
        <ele>357.4</ele>
        <time>2024-02-17T17:35:18Z</time>
      </trkpt>
      <trkpt lat="44.10314" lon="3.08935">
        <ele>357.3</ele>
        <time>2024-02-17T17:35:20Z</time>
      </trkpt>
      <trkpt lat="44.10312" lon="3.08921">
        <ele>357.2</ele>
        <time>2024-02-17T17:35:22Z</time>
      </trkpt>
      <trkpt lat="44.10309" lon="3.08908">
        <ele>357.1</ele>
        <time>2024-02-17T17:35:24Z</time>
      </trkpt>
      <trkpt lat="44.10307" lon="3.08894">
        <ele>357.1</ele>
        <time>2024-02-17T17:35:26Z</time>
      </trkpt>
      <trkpt lat="44.10304" lon="3.08881">
        <ele>357</ele>
        <time>2024-02-17T17:35:28Z</time>
      </trkpt>
      <trkpt lat="44.10301" lon="3.08867">
        <ele>357</ele>
        <time>2024-02-17T17:35:30Z</time>
      </trkpt>
      <trkpt lat="44.10296" lon="3.08855">
        <ele>356.9</ele>
        <time>2024-02-17T17:35:32Z</time>
      </trkpt>
      <trkpt lat="44.10289" lon="3.08842">
        <ele>356.6</ele>
        <time>2024-02-17T17:35:34Z</time>
      </trkpt>
      <trkpt lat="44.10281" lon="3.08828">
        <ele>355.9</ele>
        <time>2024-02-17T17:35:36Z</time>
      </trkpt>
      <trkpt lat="44.10273" lon="3.08812">
        <ele>355.1</ele>
        <time>2024-02-17T17:35:38Z</time>
      </trkpt>
      <trkpt lat="44.10265" lon="3.08797">
        <ele>355.5</ele>
        <time>2024-02-17T17:35:40Z</time>
      </trkpt>
      <trkpt lat="44.10258" lon="3.08784">
        <ele>356.6</ele>
        <time>2024-02-17T17:35:42Z</time>
      </trkpt>
      <trkpt lat="44.10252" lon="3.08774">
        <ele>357.3</ele>
        <time>2024-02-17T17:35:44Z</time>
      </trkpt>
      <trkpt lat="44.10242" lon="3.08763">
        <ele>357.5</ele>
        <time>2024-02-17T17:35:47Z</time>
      </trkpt>
      <trkpt lat="44.10233" lon="3.08754">
        <ele>357.9</ele>
        <time>2024-02-17T17:35:50Z</time>
      </trkpt>
      <trkpt lat="44.10225" lon="3.08747">
        <ele>358.3</ele>
        <time>2024-02-17T17:35:53Z</time>
      </trkpt>
      <trkpt lat="44.10217" lon="3.08736">
        <ele>358.2</ele>
        <time>2024-02-17T17:35:57Z</time>
      </trkpt>
      <trkpt lat="44.1021" lon="3.08727">
        <ele>357.8</ele>
        <time>2024-02-17T17:36:00Z</time>
      </trkpt>
      <trkpt lat="44.10205" lon="3.08716">
        <ele>356.4</ele>
        <time>2024-02-17T17:36:03Z</time>
      </trkpt>
      <trkpt lat="44.10202" lon="3.08701">
        <ele>353.4</ele>
        <time>2024-02-17T17:36:07Z</time>
      </trkpt>
      <trkpt lat="44.102" lon="3.08687">
        <ele>352.2</ele>
        <time>2024-02-17T17:36:11Z</time>
      </trkpt>
      <trkpt lat="44.10198" lon="3.08673">
        <ele>352.1</ele>
        <time>2024-02-17T17:36:15Z</time>
      </trkpt>
      <trkpt lat="44.10195" lon="3.08659">
        <ele>352</ele>
        <time>2024-02-17T17:36:19Z</time>
      </trkpt>
      <trkpt lat="44.10193" lon="3.08645">
        <ele>352</ele>
        <time>2024-02-17T17:36:24Z</time>
      </trkpt>
      <trkpt lat="44.10192" lon="3.0863">
        <ele>353.1</ele>
        <time>2024-02-17T17:36:28Z</time>
      </trkpt>
      <trkpt lat="44.1019" lon="3.08617">
        <ele>355</ele>
        <time>2024-02-17T17:36:31Z</time>
      </trkpt>
      <trkpt lat="44.10192" lon="3.08601">
        <ele>357.8</ele>
        <time>2024-02-17T17:36:34Z</time>
      </trkpt>
      <trkpt lat="44.10193" lon="3.08588">
        <ele>360.9</ele>
        <time>2024-02-17T17:36:36Z</time>
      </trkpt>
      <trkpt lat="44.10191" lon="3.08575">
        <ele>361.7</ele>
        <time>2024-02-17T17:36:38Z</time>
      </trkpt>
      <trkpt lat="44.10188" lon="3.08562">
        <ele>361.2</ele>
        <time>2024-02-17T17:36:40Z</time>
      </trkpt>
      <trkpt lat="44.10185" lon="3.08549">
        <ele>360.8</ele>
        <time>2024-02-17T17:36:42Z</time>
      </trkpt>
      <trkpt lat="44.10184" lon="3.08536">
        <ele>360.6</ele>
        <time>2024-02-17T17:36:44Z</time>
      </trkpt>
      <trkpt lat="44.10182" lon="3.08523">
        <ele>360.4</ele>
        <time>2024-02-17T17:36:46Z</time>
      </trkpt>
      <trkpt lat="44.10182" lon="3.08504">
        <ele>360.4</ele>
        <time>2024-02-17T17:36:49Z</time>
      </trkpt>
      <trkpt lat="44.10182" lon="3.08487">
        <ele>360.2</ele>
        <time>2024-02-17T17:36:52Z</time>
      </trkpt>
      <trkpt lat="44.10182" lon="3.08469">
        <ele>359.9</ele>
        <time>2024-02-17T17:36:55Z</time>
      </trkpt>
      <trkpt lat="44.10181" lon="3.08455">
        <ele>360</ele>
        <time>2024-02-17T17:36:57Z</time>
      </trkpt>
      <trkpt lat="44.10178" lon="3.08438">
        <ele>360.4</ele>
        <time>2024-02-17T17:37:00Z</time>
      </trkpt>
      <trkpt lat="44.10173" lon="3.08422">
        <ele>361.4</ele>
        <time>2024-02-17T17:37:03Z</time>
      </trkpt>
      <trkpt lat="44.10172" lon="3.08407">
        <ele>361.6</ele>
        <time>2024-02-17T17:37:06Z</time>
      </trkpt>
      <trkpt lat="44.10172" lon="3.08392">
        <ele>361.6</ele>
        <time>2024-02-17T17:37:08Z</time>
      </trkpt>
      <trkpt lat="44.10171" lon="3.08379">
        <ele>361.7</ele>
        <time>2024-02-17T17:37:10Z</time>
      </trkpt>
      <trkpt lat="44.1017" lon="3.08367">
        <ele>361.9</ele>
        <time>2024-02-17T17:37:12Z</time>
      </trkpt>
      <trkpt lat="44.10167" lon="3.08353">
        <ele>362</ele>
        <time>2024-02-17T17:37:14Z</time>
      </trkpt>
      <trkpt lat="44.10166" lon="3.0834">
        <ele>362</ele>
        <time>2024-02-17T17:37:16Z</time>
      </trkpt>
      <trkpt lat="44.10164" lon="3.08326">
        <ele>362.2</ele>
        <time>2024-02-17T17:37:18Z</time>
      </trkpt>
      <trkpt lat="44.10163" lon="3.08312">
        <ele>362.6</ele>
        <time>2024-02-17T17:37:20Z</time>
      </trkpt>
      <trkpt lat="44.10161" lon="3.08299">
        <ele>362.6</ele>
        <time>2024-02-17T17:37:22Z</time>
      </trkpt>
      <trkpt lat="44.1016" lon="3.0828">
        <ele>362.5</ele>
        <time>2024-02-17T17:37:25Z</time>
      </trkpt>
      <trkpt lat="44.10158" lon="3.08267">
        <ele>362.2</ele>
        <time>2024-02-17T17:37:27Z</time>
      </trkpt>
      <trkpt lat="44.10157" lon="3.08251">
        <ele>362</ele>
        <time>2024-02-17T17:37:29Z</time>
      </trkpt>
      <trkpt lat="44.10155" lon="3.08235">
        <ele>362.1</ele>
        <time>2024-02-17T17:37:31Z</time>
      </trkpt>
      <trkpt lat="44.10152" lon="3.08222">
        <ele>362.6</ele>
        <time>2024-02-17T17:37:33Z</time>
      </trkpt>
      <trkpt lat="44.10148" lon="3.08209">
        <ele>363.5</ele>
        <time>2024-02-17T17:37:35Z</time>
      </trkpt>
      <trkpt lat="44.10144" lon="3.08197">
        <ele>364.4</ele>
        <time>2024-02-17T17:37:37Z</time>
      </trkpt>
      <trkpt lat="44.10139" lon="3.08184">
        <ele>365.4</ele>
        <time>2024-02-17T17:37:40Z</time>
      </trkpt>
      <trkpt lat="44.10132" lon="3.08174">
        <ele>365.3</ele>
        <time>2024-02-17T17:37:43Z</time>
      </trkpt>
      <trkpt lat="44.10124" lon="3.08165">
        <ele>365.5</ele>
        <time>2024-02-17T17:37:46Z</time>
      </trkpt>
      <trkpt lat="44.10119" lon="3.08153">
        <ele>366</ele>
        <time>2024-02-17T17:37:50Z</time>
      </trkpt>
      <trkpt lat="44.10111" lon="3.08141">
        <ele>366.8</ele>
        <time>2024-02-17T17:37:54Z</time>
      </trkpt>
      <trkpt lat="44.10103" lon="3.08135">
        <ele>367.2</ele>
        <time>2024-02-17T17:37:57Z</time>
      </trkpt>
      <trkpt lat="44.10094" lon="3.08129">
        <ele>367.6</ele>
        <time>2024-02-17T17:38:01Z</time>
      </trkpt>
      <trkpt lat="44.10085" lon="3.08121">
        <ele>368.2</ele>
        <time>2024-02-17T17:38:06Z</time>
      </trkpt>
      <trkpt lat="44.10074" lon="3.08111">
        <ele>369</ele>
        <time>2024-02-17T17:38:11Z</time>
      </trkpt>
      <trkpt lat="44.1007" lon="3.08093">
        <ele>370.3</ele>
        <time>2024-02-17T17:38:14Z</time>
      </trkpt>
      <trkpt lat="44.1007" lon="3.08077">
        <ele>371.1</ele>
        <time>2024-02-17T17:38:17Z</time>
      </trkpt>
      <trkpt lat="44.10072" lon="3.0806">
        <ele>371.5</ele>
        <time>2024-02-17T17:38:20Z</time>
      </trkpt>
      <trkpt lat="44.10073" lon="3.08046">
        <ele>372</ele>
        <time>2024-02-17T17:38:23Z</time>
      </trkpt>
      <trkpt lat="44.10077" lon="3.08032">
        <ele>372.6</ele>
        <time>2024-02-17T17:38:26Z</time>
      </trkpt>
      <trkpt lat="44.10082" lon="3.08016">
        <ele>373</ele>
        <time>2024-02-17T17:38:29Z</time>
      </trkpt>
      <trkpt lat="44.10084" lon="3.08001">
        <ele>373</ele>
        <time>2024-02-17T17:38:32Z</time>
      </trkpt>
      <trkpt lat="44.10087" lon="3.07986">
        <ele>373</ele>
        <time>2024-02-17T17:38:36Z</time>
      </trkpt>
      <trkpt lat="44.1009" lon="3.07972">
        <ele>373</ele>
        <time>2024-02-17T17:38:40Z</time>
      </trkpt>
      <trkpt lat="44.10087" lon="3.07959">
        <ele>373</ele>
        <time>2024-02-17T17:38:43Z</time>
      </trkpt>
      <trkpt lat="44.10084" lon="3.07945">
        <ele>373</ele>
        <time>2024-02-17T17:38:46Z</time>
      </trkpt>
      <trkpt lat="44.10092" lon="3.07936">
        <ele>372.9</ele>
        <time>2024-02-17T17:38:50Z</time>
      </trkpt>
      <trkpt lat="44.10097" lon="3.07925">
        <ele>372.7</ele>
        <time>2024-02-17T17:38:54Z</time>
      </trkpt>
      <trkpt lat="44.10106" lon="3.07921">
        <ele>372.3</ele>
        <time>2024-02-17T17:38:59Z</time>
      </trkpt>
      <trkpt lat="44.10112" lon="3.07909">
        <ele>372.3</ele>
        <time>2024-02-17T17:39:03Z</time>
      </trkpt>
      <trkpt lat="44.10121" lon="3.07897">
        <ele>372.7</ele>
        <time>2024-02-17T17:39:07Z</time>
      </trkpt>
      <trkpt lat="44.1013" lon="3.07887">
        <ele>373</ele>
        <time>2024-02-17T17:39:10Z</time>
      </trkpt>
      <trkpt lat="44.10138" lon="3.07878">
        <ele>373</ele>
        <time>2024-02-17T17:39:13Z</time>
      </trkpt>
      <trkpt lat="44.10147" lon="3.07866">
        <ele>373</ele>
        <time>2024-02-17T17:39:16Z</time>
      </trkpt>
      <trkpt lat="44.10156" lon="3.07856">
        <ele>373.1</ele>
        <time>2024-02-17T17:39:18Z</time>
      </trkpt>
      <trkpt lat="44.10164" lon="3.07845">
        <ele>373.5</ele>
        <time>2024-02-17T17:39:20Z</time>
      </trkpt>
      <trkpt lat="44.10174" lon="3.07833">
        <ele>374</ele>
        <time>2024-02-17T17:39:22Z</time>
      </trkpt>
      <trkpt lat="44.10183" lon="3.07819">
        <ele>374</ele>
        <time>2024-02-17T17:39:24Z</time>
      </trkpt>
      <trkpt lat="44.10188" lon="3.07806">
        <ele>374</ele>
        <time>2024-02-17T17:39:27Z</time>
      </trkpt>
      <trkpt lat="44.10195" lon="3.07794">
        <ele>374</ele>
        <time>2024-02-17T17:39:29Z</time>
      </trkpt>
      <trkpt lat="44.10203" lon="3.07784">
        <ele>374.2</ele>
        <time>2024-02-17T17:39:32Z</time>
      </trkpt>
      <trkpt lat="44.10213" lon="3.0778">
        <ele>374.6</ele>
        <time>2024-02-17T17:39:35Z</time>
      </trkpt>
      <trkpt lat="44.10221" lon="3.07773">
        <ele>375</ele>
        <time>2024-02-17T17:39:38Z</time>
      </trkpt>
      <trkpt lat="44.10225" lon="3.07762">
        <ele>375</ele>
        <time>2024-02-17T17:39:41Z</time>
      </trkpt>
      <trkpt lat="44.10229" lon="3.0775">
        <ele>375</ele>
        <time>2024-02-17T17:39:44Z</time>
      </trkpt>
      <trkpt lat="44.10234" lon="3.07736">
        <ele>375</ele>
        <time>2024-02-17T17:39:48Z</time>
      </trkpt>
      <trkpt lat="44.10238" lon="3.07722">
        <ele>375</ele>
        <time>2024-02-17T17:39:52Z</time>
      </trkpt>
      <trkpt lat="44.10243" lon="3.0771">
        <ele>375</ele>
        <time>2024-02-17T17:39:55Z</time>
      </trkpt>
      <trkpt lat="44.10254" lon="3.07703">
        <ele>375.1</ele>
        <time>2024-02-17T17:39:58Z</time>
      </trkpt>
      <trkpt lat="44.10263" lon="3.07698">
        <ele>375.5</ele>
        <time>2024-02-17T17:40:01Z</time>
      </trkpt>
      <trkpt lat="44.10273" lon="3.07691">
        <ele>375.8</ele>
        <time>2024-02-17T17:40:05Z</time>
      </trkpt>
      <trkpt lat="44.10282" lon="3.07682">
        <ele>376</ele>
        <time>2024-02-17T17:40:08Z</time>
      </trkpt>
      <trkpt lat="44.10285" lon="3.07667">
        <ele>376</ele>
        <time>2024-02-17T17:40:11Z</time>
      </trkpt>
      <trkpt lat="44.10283" lon="3.0765">
        <ele>376.1</ele>
        <time>2024-02-17T17:40:14Z</time>
      </trkpt>
      <trkpt lat="44.10281" lon="3.07634">
        <ele>376.3</ele>
        <time>2024-02-17T17:40:17Z</time>
      </trkpt>
      <trkpt lat="44.10278" lon="3.0762">
        <ele>376.7</ele>
        <time>2024-02-17T17:40:20Z</time>
      </trkpt>
      <trkpt lat="44.10274" lon="3.07606">
        <ele>377</ele>
        <time>2024-02-17T17:40:23Z</time>
      </trkpt>
      <trkpt lat="44.10271" lon="3.07593">
        <ele>377.4</ele>
        <time>2024-02-17T17:40:26Z</time>
      </trkpt>
      <trkpt lat="44.10269" lon="3.07577">
        <ele>377.8</ele>
        <time>2024-02-17T17:40:29Z</time>
      </trkpt>
      <trkpt lat="44.10266" lon="3.07562">
        <ele>377.9</ele>
        <time>2024-02-17T17:40:32Z</time>
      </trkpt>
      <trkpt lat="44.1026" lon="3.07547">
        <ele>378.3</ele>
        <time>2024-02-17T17:40:35Z</time>
      </trkpt>
      <trkpt lat="44.10251" lon="3.07537">
        <ele>378.7</ele>
        <time>2024-02-17T17:40:38Z</time>
      </trkpt>
      <trkpt lat="44.10241" lon="3.07529">
        <ele>378.3</ele>
        <time>2024-02-17T17:40:41Z</time>
      </trkpt>
      <trkpt lat="44.1023" lon="3.07521">
        <ele>377.9</ele>
        <time>2024-02-17T17:40:44Z</time>
      </trkpt>
      <trkpt lat="44.10218" lon="3.07513">
        <ele>378</ele>
        <time>2024-02-17T17:40:47Z</time>
      </trkpt>
      <trkpt lat="44.10209" lon="3.07508">
        <ele>378.1</ele>
        <time>2024-02-17T17:40:49Z</time>
      </trkpt>
      <trkpt lat="44.10199" lon="3.07502">
        <ele>378.1</ele>
        <time>2024-02-17T17:40:51Z</time>
      </trkpt>
      <trkpt lat="44.1019" lon="3.07499">
        <ele>377.7</ele>
        <time>2024-02-17T17:40:53Z</time>
      </trkpt>
      <trkpt lat="44.10179" lon="3.0749">
        <ele>377.6</ele>
        <time>2024-02-17T17:40:56Z</time>
      </trkpt>
      <trkpt lat="44.1017" lon="3.07485">
        <ele>377.7</ele>
        <time>2024-02-17T17:40:58Z</time>
      </trkpt>
      <trkpt lat="44.1016" lon="3.07479">
        <ele>378.1</ele>
        <time>2024-02-17T17:41:00Z</time>
      </trkpt>
      <trkpt lat="44.10151" lon="3.07474">
        <ele>378.3</ele>
        <time>2024-02-17T17:41:02Z</time>
      </trkpt>
      <trkpt lat="44.10142" lon="3.07469">
        <ele>378.2</ele>
        <time>2024-02-17T17:41:04Z</time>
      </trkpt>
      <trkpt lat="44.1013" lon="3.07461">
        <ele>377.3</ele>
        <time>2024-02-17T17:41:07Z</time>
      </trkpt>
      <trkpt lat="44.10121" lon="3.07457">
        <ele>376.7</ele>
        <time>2024-02-17T17:41:09Z</time>
      </trkpt>
      <trkpt lat="44.10112" lon="3.07451">
        <ele>376.9</ele>
        <time>2024-02-17T17:41:11Z</time>
      </trkpt>
      <trkpt lat="44.10101" lon="3.07444">
        <ele>376.2</ele>
        <time>2024-02-17T17:41:13Z</time>
      </trkpt>
      <trkpt lat="44.10091" lon="3.07437">
        <ele>375.6</ele>
        <time>2024-02-17T17:41:15Z</time>
      </trkpt>
      <trkpt lat="44.10082" lon="3.07429">
        <ele>376.2</ele>
        <time>2024-02-17T17:41:17Z</time>
      </trkpt>
      <trkpt lat="44.10073" lon="3.0742">
        <ele>377</ele>
        <time>2024-02-17T17:41:19Z</time>
      </trkpt>
      <trkpt lat="44.10064" lon="3.07412">
        <ele>376.7</ele>
        <time>2024-02-17T17:41:21Z</time>
      </trkpt>
      <trkpt lat="44.10056" lon="3.07403">
        <ele>377</ele>
        <time>2024-02-17T17:41:23Z</time>
      </trkpt>
      <trkpt lat="44.10047" lon="3.07394">
        <ele>377.2</ele>
        <time>2024-02-17T17:41:25Z</time>
      </trkpt>
      <trkpt lat="44.10039" lon="3.07384">
        <ele>377</ele>
        <time>2024-02-17T17:41:27Z</time>
      </trkpt>
      <trkpt lat="44.10031" lon="3.07375">
        <ele>377.2</ele>
        <time>2024-02-17T17:41:29Z</time>
      </trkpt>
      <trkpt lat="44.10023" lon="3.07365">
        <ele>378</ele>
        <time>2024-02-17T17:41:31Z</time>
      </trkpt>
      <trkpt lat="44.10016" lon="3.07356">
        <ele>378</ele>
        <time>2024-02-17T17:41:33Z</time>
      </trkpt>
      <trkpt lat="44.10008" lon="3.07348">
        <ele>377.9</ele>
        <time>2024-02-17T17:41:35Z</time>
      </trkpt>
      <trkpt lat="44.10001" lon="3.07339">
        <ele>378.4</ele>
        <time>2024-02-17T17:41:37Z</time>
      </trkpt>
      <trkpt lat="44.09994" lon="3.0733">
        <ele>379.2</ele>
        <time>2024-02-17T17:41:39Z</time>
      </trkpt>
      <trkpt lat="44.09984" lon="3.07322">
        <ele>379.6</ele>
        <time>2024-02-17T17:41:42Z</time>
      </trkpt>
      <trkpt lat="44.09975" lon="3.07315">
        <ele>379.9</ele>
        <time>2024-02-17T17:41:45Z</time>
      </trkpt>
      <trkpt lat="44.09966" lon="3.07308">
        <ele>379.8</ele>
        <time>2024-02-17T17:41:48Z</time>
      </trkpt>
      <trkpt lat="44.09959" lon="3.07299">
        <ele>379.8</ele>
        <time>2024-02-17T17:41:51Z</time>
      </trkpt>
      <trkpt lat="44.09959" lon="3.07285">
        <ele>380.5</ele>
        <time>2024-02-17T17:41:55Z</time>
      </trkpt>
      <trkpt lat="44.09959" lon="3.0727">
        <ele>381.8</ele>
        <time>2024-02-17T17:42:00Z</time>
      </trkpt>
      <trkpt lat="44.09953" lon="3.07259">
        <ele>383</ele>
        <time>2024-02-17T17:42:04Z</time>
      </trkpt>
      <trkpt lat="44.09943" lon="3.07252">
        <ele>382.8</ele>
        <time>2024-02-17T17:42:08Z</time>
      </trkpt>
      <trkpt lat="44.09934" lon="3.07245">
        <ele>382.4</ele>
        <time>2024-02-17T17:42:11Z</time>
      </trkpt>
      <trkpt lat="44.09924" lon="3.07238">
        <ele>382.3</ele>
        <time>2024-02-17T17:42:14Z</time>
      </trkpt>
      <trkpt lat="44.09913" lon="3.0723">
        <ele>382.6</ele>
        <time>2024-02-17T17:42:17Z</time>
      </trkpt>
      <trkpt lat="44.09901" lon="3.07222">
        <ele>382.3</ele>
        <time>2024-02-17T17:42:20Z</time>
      </trkpt>
      <trkpt lat="44.09893" lon="3.07216">
        <ele>381.9</ele>
        <time>2024-02-17T17:42:22Z</time>
      </trkpt>
      <trkpt lat="44.0988" lon="3.07208">
        <ele>381.7</ele>
        <time>2024-02-17T17:42:25Z</time>
      </trkpt>
      <trkpt lat="44.09871" lon="3.07202">
        <ele>381.8</ele>
        <time>2024-02-17T17:42:27Z</time>
      </trkpt>
      <trkpt lat="44.09862" lon="3.07193">
        <ele>382.1</ele>
        <time>2024-02-17T17:42:29Z</time>
      </trkpt>
      <trkpt lat="44.09852" lon="3.07186">
        <ele>381.4</ele>
        <time>2024-02-17T17:42:31Z</time>
      </trkpt>
      <trkpt lat="44.09844" lon="3.07179">
        <ele>381.5</ele>
        <time>2024-02-17T17:42:33Z</time>
      </trkpt>
      <trkpt lat="44.09836" lon="3.07173">
        <ele>381.9</ele>
        <time>2024-02-17T17:42:35Z</time>
      </trkpt>
      <trkpt lat="44.09824" lon="3.07165">
        <ele>381.7</ele>
        <time>2024-02-17T17:42:38Z</time>
      </trkpt>
      <trkpt lat="44.09815" lon="3.07159">
        <ele>380.8</ele>
        <time>2024-02-17T17:42:40Z</time>
      </trkpt>
      <trkpt lat="44.09805" lon="3.07151">
        <ele>380.1</ele>
        <time>2024-02-17T17:42:42Z</time>
      </trkpt>
      <trkpt lat="44.09793" lon="3.07143">
        <ele>379.9</ele>
        <time>2024-02-17T17:42:44Z</time>
      </trkpt>
      <trkpt lat="44.0978" lon="3.07133">
        <ele>379.2</ele>
        <time>2024-02-17T17:42:46Z</time>
      </trkpt>
      <trkpt lat="44.09767" lon="3.07122">
        <ele>378.5</ele>
        <time>2024-02-17T17:42:48Z</time>
      </trkpt>
      <trkpt lat="44.09753" lon="3.0711">
        <ele>378.1</ele>
        <time>2024-02-17T17:42:50Z</time>
      </trkpt>
      <trkpt lat="44.0974" lon="3.07102">
        <ele>378.1</ele>
        <time>2024-02-17T17:42:52Z</time>
      </trkpt>
      <trkpt lat="44.09726" lon="3.07097">
        <ele>378.1</ele>
        <time>2024-02-17T17:42:54Z</time>
      </trkpt>
      <trkpt lat="44.09713" lon="3.0709">
        <ele>378.4</ele>
        <time>2024-02-17T17:42:56Z</time>
      </trkpt>
      <trkpt lat="44.09703" lon="3.07081">
        <ele>379.3</ele>
        <time>2024-02-17T17:42:58Z</time>
      </trkpt>
    </trkseg>
  </trk>
  <trk>
    <name><![CDATA[Remonté sur Le Maubert par GR]]></name>
    <desc><![CDATA[Remonté sur Le Maubert via La Bresse par le GR puis single dans la pampa , au choix .]]></desc>
    <extensions>
      <line xmlns="http://www.topografix.com/GPX/gpx_style/0/2">
        <color>008040</color>
        <width>4</width>
      </line>
    </extensions>
    <trkseg>
      <trkpt lat="44.14684" lon="3.21611">
        <ele>657</ele>
        <time>2024-11-07T12:09:47.000Z</time>
      </trkpt>
      <trkpt lat="44.14685" lon="3.21598">
        <ele>657.5</ele>
        <time>2024-11-07T12:09:57.000Z</time>
      </trkpt>
      <trkpt lat="44.14692" lon="3.21588">
        <ele>658.5</ele>
        <time>2024-11-07T12:10:06.000Z</time>
      </trkpt>
      <trkpt lat="44.14687" lon="3.21577">
        <ele>660</ele>
        <time>2024-11-07T12:10:16.000Z</time>
      </trkpt>
      <trkpt lat="44.14693" lon="3.21589">
        <ele>661.2</ele>
        <time>2024-11-07T12:10:30.000Z</time>
      </trkpt>
      <trkpt lat="44.14699" lon="3.216">
        <ele>661.4</ele>
        <time>2024-11-07T12:10:35.000Z</time>
      </trkpt>
      <trkpt lat="44.14708" lon="3.21608">
        <ele>661.7</ele>
        <time>2024-11-07T12:10:42.000Z</time>
      </trkpt>
      <trkpt lat="44.14717" lon="3.2161">
        <ele>662</ele>
        <time>2024-11-07T12:10:48.000Z</time>
      </trkpt>
      <trkpt lat="44.14726" lon="3.21611">
        <ele>662.4</ele>
        <time>2024-11-07T12:10:55.000Z</time>
      </trkpt>
      <trkpt lat="44.14724" lon="3.21598">
        <ele>664</ele>
        <time>2024-11-07T12:11:07.000Z</time>
      </trkpt>
      <trkpt lat="44.14717" lon="3.2159">
        <ele>665.2</ele>
        <time>2024-11-07T12:11:15.000Z</time>
      </trkpt>
      <trkpt lat="44.14712" lon="3.21579">
        <ele>666.4</ele>
        <time>2024-11-07T12:11:23.000Z</time>
      </trkpt>
      <trkpt lat="44.14721" lon="3.21573">
        <ele>667.9</ele>
        <time>2024-11-07T12:11:33.000Z</time>
      </trkpt>
      <trkpt lat="44.1473" lon="3.2157">
        <ele>669.5</ele>
        <time>2024-11-07T12:11:41.000Z</time>
      </trkpt>
      <trkpt lat="44.14739" lon="3.21566">
        <ele>671.1</ele>
        <time>2024-11-07T12:11:49.000Z</time>
      </trkpt>
      <trkpt lat="44.14748" lon="3.21562">
        <ele>672.8</ele>
        <time>2024-11-07T12:11:58.000Z</time>
      </trkpt>
      <trkpt lat="44.14757" lon="3.21558">
        <ele>674.4</ele>
        <time>2024-11-07T12:12:07.000Z</time>
      </trkpt>
      <trkpt lat="44.14766" lon="3.21558">
        <ele>675.7</ele>
        <time>2024-11-07T12:12:15.000Z</time>
      </trkpt>
      <trkpt lat="44.14776" lon="3.21557">
        <ele>677.4</ele>
        <time>2024-11-07T12:12:24.000Z</time>
      </trkpt>
      <trkpt lat="44.14785" lon="3.21557">
        <ele>679.3</ele>
        <time>2024-11-07T12:12:33.000Z</time>
      </trkpt>
      <trkpt lat="44.14795" lon="3.21561">
        <ele>681.2</ele>
        <time>2024-11-07T12:12:42.000Z</time>
      </trkpt>
      <trkpt lat="44.14804" lon="3.21565">
        <ele>683.3</ele>
        <time>2024-11-07T12:12:52.000Z</time>
      </trkpt>
      <trkpt lat="44.14813" lon="3.2157">
        <ele>685.4</ele>
        <time>2024-11-07T12:13:02.000Z</time>
      </trkpt>
      <trkpt lat="44.14822" lon="3.21575">
        <ele>687.2</ele>
        <time>2024-11-07T12:13:11.000Z</time>
      </trkpt>
      <trkpt lat="44.14832" lon="3.21576">
        <ele>688.6</ele>
        <time>2024-11-07T12:13:18.000Z</time>
      </trkpt>
      <trkpt lat="44.14837" lon="3.21566">
        <ele>690.1</ele>
        <time>2024-11-07T12:13:26.000Z</time>
      </trkpt>
      <trkpt lat="44.14832" lon="3.21554">
        <ele>692</ele>
        <time>2024-11-07T12:13:36.000Z</time>
      </trkpt>
      <trkpt lat="44.14829" lon="3.21542">
        <ele>693.7</ele>
        <time>2024-11-07T12:13:45.000Z</time>
      </trkpt>
      <trkpt lat="44.14825" lon="3.2153">
        <ele>695</ele>
        <time>2024-11-07T12:13:53.000Z</time>
      </trkpt>
      <trkpt lat="44.14822" lon="3.21518">
        <ele>696.6</ele>
        <time>2024-11-07T12:14:02.000Z</time>
      </trkpt>
      <trkpt lat="44.14818" lon="3.21506">
        <ele>698.3</ele>
        <time>2024-11-07T12:14:12.000Z</time>
      </trkpt>
      <trkpt lat="44.14812" lon="3.21496">
        <ele>700.2</ele>
        <time>2024-11-07T12:14:22.000Z</time>
      </trkpt>
      <trkpt lat="44.14819" lon="3.21487">
        <ele>704</ele>
        <time>2024-11-07T12:14:41.000Z</time>
      </trkpt>
      <trkpt lat="44.14829" lon="3.21486">
        <ele>705.7</ele>
        <time>2024-11-07T12:14:50.000Z</time>
      </trkpt>
      <trkpt lat="44.1484" lon="3.21484">
        <ele>707.1</ele>
        <time>2024-11-07T12:14:58.000Z</time>
      </trkpt>
      <trkpt lat="44.14849" lon="3.21483">
        <ele>708.2</ele>
        <time>2024-11-07T12:15:05.000Z</time>
      </trkpt>
      <trkpt lat="44.14858" lon="3.21478">
        <ele>709.3</ele>
        <time>2024-11-07T12:15:12.000Z</time>
      </trkpt>
      <trkpt lat="44.14868" lon="3.21477">
        <ele>710.9</ele>
        <time>2024-11-07T12:15:22.000Z</time>
      </trkpt>
      <trkpt lat="44.14878" lon="3.21476">
        <ele>711.4</ele>
        <time>2024-11-07T12:15:27.000Z</time>
      </trkpt>
      <trkpt lat="44.14888" lon="3.21475">
        <ele>711.8</ele>
        <time>2024-11-07T12:15:31.000Z</time>
      </trkpt>
      <trkpt lat="44.14899" lon="3.21472">
        <ele>712.2</ele>
        <time>2024-11-07T12:15:35.000Z</time>
      </trkpt>
      <trkpt lat="44.1491" lon="3.21468">
        <ele>712.5</ele>
        <time>2024-11-07T12:15:39.000Z</time>
      </trkpt>
      <trkpt lat="44.1492" lon="3.21464">
        <ele>713.1</ele>
        <time>2024-11-07T12:15:43.000Z</time>
      </trkpt>
      <trkpt lat="44.1493" lon="3.21462">
        <ele>713.7</ele>
        <time>2024-11-07T12:15:47.000Z</time>
      </trkpt>
      <trkpt lat="44.1494" lon="3.21455">
        <ele>714.5</ele>
        <time>2024-11-07T12:15:51.000Z</time>
      </trkpt>
      <trkpt lat="44.14947" lon="3.21443">
        <ele>715.4</ele>
        <time>2024-11-07T12:15:56.000Z</time>
      </trkpt>
      <trkpt lat="44.14953" lon="3.21432">
        <ele>716.4</ele>
        <time>2024-11-07T12:16:01.000Z</time>
      </trkpt>
      <trkpt lat="44.14957" lon="3.2142">
        <ele>717.8</ele>
        <time>2024-11-07T12:16:07.000Z</time>
      </trkpt>
      <trkpt lat="44.1496" lon="3.21408">
        <ele>719.2</ele>
        <time>2024-11-07T12:16:13.000Z</time>
      </trkpt>
      <trkpt lat="44.14963" lon="3.21395">
        <ele>720.5</ele>
        <time>2024-11-07T12:16:20.000Z</time>
      </trkpt>
      <trkpt lat="44.14964" lon="3.21382">
        <ele>721.8</ele>
        <time>2024-11-07T12:16:27.000Z</time>
      </trkpt>
      <trkpt lat="44.14966" lon="3.21369">
        <ele>722.9</ele>
        <time>2024-11-07T12:16:33.000Z</time>
      </trkpt>
      <trkpt lat="44.14969" lon="3.21356">
        <ele>724</ele>
        <time>2024-11-07T12:16:39.000Z</time>
      </trkpt>
      <trkpt lat="44.14971" lon="3.21342">
        <ele>725.3</ele>
        <time>2024-11-07T12:16:46.000Z</time>
      </trkpt>
      <trkpt lat="44.14973" lon="3.2133">
        <ele>726.3</ele>
        <time>2024-11-07T12:16:52.000Z</time>
      </trkpt>
      <trkpt lat="44.14975" lon="3.21315">
        <ele>727.5</ele>
        <time>2024-11-07T12:16:59.000Z</time>
      </trkpt>
      <trkpt lat="44.14976" lon="3.21303">
        <ele>728.4</ele>
        <time>2024-11-07T12:17:04.000Z</time>
      </trkpt>
      <trkpt lat="44.14978" lon="3.2129">
        <ele>729.4</ele>
        <time>2024-11-07T12:17:10.000Z</time>
      </trkpt>
      <trkpt lat="44.14979" lon="3.21277">
        <ele>731.1</ele>
        <time>2024-11-07T12:17:19.000Z</time>
      </trkpt>
      <trkpt lat="44.14981" lon="3.21265">
        <ele>732.7</ele>
        <time>2024-11-07T12:17:27.000Z</time>
      </trkpt>
      <trkpt lat="44.14984" lon="3.21252">
        <ele>734.4</ele>
        <time>2024-11-07T12:17:36.000Z</time>
      </trkpt>
      <trkpt lat="44.14985" lon="3.21239">
        <ele>737.3</ele>
        <time>2024-11-07T12:17:54.000Z</time>
      </trkpt>
      <trkpt lat="44.14986" lon="3.21226">
        <ele>738.3</ele>
        <time>2024-11-07T12:18:03.000Z</time>
      </trkpt>
      <trkpt lat="44.14986" lon="3.21214">
        <ele>739.2</ele>
        <time>2024-11-07T12:18:10.000Z</time>
      </trkpt>
      <trkpt lat="44.14985" lon="3.21201">
        <ele>740.6</ele>
        <time>2024-11-07T12:18:19.000Z</time>
      </trkpt>
      <trkpt lat="44.14982" lon="3.21189">
        <ele>741.7</ele>
        <time>2024-11-07T12:18:25.000Z</time>
      </trkpt>
      <trkpt lat="44.1498" lon="3.21176">
        <ele>743.2</ele>
        <time>2024-11-07T12:18:32.000Z</time>
      </trkpt>
      <trkpt lat="44.1498" lon="3.21162">
        <ele>744.6</ele>
        <time>2024-11-07T12:18:39.000Z</time>
      </trkpt>
      <trkpt lat="44.14977" lon="3.21149">
        <ele>745.3</ele>
        <time>2024-11-07T12:18:44.000Z</time>
      </trkpt>
      <trkpt lat="44.14974" lon="3.21135">
        <ele>746.1</ele>
        <time>2024-11-07T12:18:50.000Z</time>
      </trkpt>
      <trkpt lat="44.14971" lon="3.21122">
        <ele>746.8</ele>
        <time>2024-11-07T12:18:56.000Z</time>
      </trkpt>
      <trkpt lat="44.14966" lon="3.2111">
        <ele>747.5</ele>
        <time>2024-11-07T12:19:01.000Z</time>
      </trkpt>
      <trkpt lat="44.1496" lon="3.21097">
        <ele>748.3</ele>
        <time>2024-11-07T12:19:07.000Z</time>
      </trkpt>
      <trkpt lat="44.14955" lon="3.21086">
        <ele>748.9</ele>
        <time>2024-11-07T12:19:12.000Z</time>
      </trkpt>
      <trkpt lat="44.14951" lon="3.21075">
        <ele>749.4</ele>
        <time>2024-11-07T12:19:17.000Z</time>
      </trkpt>
      <trkpt lat="44.14948" lon="3.21062">
        <ele>749.8</ele>
        <time>2024-11-07T12:19:22.000Z</time>
      </trkpt>
      <trkpt lat="44.14946" lon="3.21047">
        <ele>750.2</ele>
        <time>2024-11-07T12:19:26.000Z</time>
      </trkpt>
      <trkpt lat="44.14942" lon="3.21033">
        <ele>750.6</ele>
        <time>2024-11-07T12:19:30.000Z</time>
      </trkpt>
      <trkpt lat="44.14939" lon="3.21021">
        <ele>751.1</ele>
        <time>2024-11-07T12:19:34.000Z</time>
      </trkpt>
      <trkpt lat="44.14935" lon="3.21009">
        <ele>751.6</ele>
        <time>2024-11-07T12:19:38.000Z</time>
      </trkpt>
      <trkpt lat="44.1493" lon="3.20998">
        <ele>752.2</ele>
        <time>2024-11-07T12:19:42.000Z</time>
      </trkpt>
      <trkpt lat="44.14924" lon="3.20985">
        <ele>752.8</ele>
        <time>2024-11-07T12:19:47.000Z</time>
      </trkpt>
      <trkpt lat="44.14917" lon="3.20974">
        <ele>753.4</ele>
        <time>2024-11-07T12:19:52.000Z</time>
      </trkpt>
      <trkpt lat="44.14911" lon="3.20964">
        <ele>753.8</ele>
        <time>2024-11-07T12:19:56.000Z</time>
      </trkpt>
      <trkpt lat="44.14909" lon="3.20948">
        <ele>754.2</ele>
        <time>2024-11-07T12:20:01.000Z</time>
      </trkpt>
      <trkpt lat="44.1491" lon="3.20934">
        <ele>754.5</ele>
        <time>2024-11-07T12:20:04.000Z</time>
      </trkpt>
      <trkpt lat="44.14911" lon="3.20921">
        <ele>754.7</ele>
        <time>2024-11-07T12:20:07.000Z</time>
      </trkpt>
      <trkpt lat="44.14913" lon="3.20906">
        <ele>755</ele>
        <time>2024-11-07T12:20:10.000Z</time>
      </trkpt>
      <trkpt lat="44.14916" lon="3.20893">
        <ele>755.2</ele>
        <time>2024-11-07T12:20:13.000Z</time>
      </trkpt>
      <trkpt lat="44.14923" lon="3.20881">
        <ele>755.5</ele>
        <time>2024-11-07T12:20:17.000Z</time>
      </trkpt>
      <trkpt lat="44.14928" lon="3.20869">
        <ele>755.7</ele>
        <time>2024-11-07T12:20:20.000Z</time>
      </trkpt>
      <trkpt lat="44.14929" lon="3.20854">
        <ele>756</ele>
        <time>2024-11-07T12:20:23.000Z</time>
      </trkpt>
      <trkpt lat="44.14929" lon="3.20839">
        <ele>756.2</ele>
        <time>2024-11-07T12:20:26.000Z</time>
      </trkpt>
      <trkpt lat="44.1493" lon="3.20825">
        <ele>756.4</ele>
        <time>2024-11-07T12:20:29.000Z</time>
      </trkpt>
      <trkpt lat="44.14928" lon="3.20813">
        <ele>756.5</ele>
        <time>2024-11-07T12:20:32.000Z</time>
      </trkpt>
      <trkpt lat="44.1492" lon="3.208">
        <ele>756.7</ele>
        <time>2024-11-07T12:20:36.000Z</time>
      </trkpt>
      <trkpt lat="44.14911" lon="3.20795">
        <ele>756.8</ele>
        <time>2024-11-07T12:20:40.000Z</time>
      </trkpt>
      <trkpt lat="44.14902" lon="3.20792">
        <ele>756.9</ele>
        <time>2024-11-07T12:20:44.000Z</time>
      </trkpt>
      <trkpt lat="44.14895" lon="3.2078">
        <ele>757</ele>
        <time>2024-11-07T12:20:49.000Z</time>
      </trkpt>
      <trkpt lat="44.14886" lon="3.20772">
        <ele>757.2</ele>
        <time>2024-11-07T12:20:55.000Z</time>
      </trkpt>
      <trkpt lat="44.14877" lon="3.20767">
        <ele>757.2</ele>
        <time>2024-11-07T12:21:00.000Z</time>
      </trkpt>
      <trkpt lat="44.14866" lon="3.20761">
        <ele>757.3</ele>
        <time>2024-11-07T12:21:05.000Z</time>
      </trkpt>
      <trkpt lat="44.14858" lon="3.20756">
        <ele>757.4</ele>
        <time>2024-11-07T12:21:09.000Z</time>
      </trkpt>
      <trkpt lat="44.14846" lon="3.20751">
        <ele>757.4</ele>
        <time>2024-11-07T12:21:13.000Z</time>
      </trkpt>
      <trkpt lat="44.14836" lon="3.20748">
        <ele>757.3</ele>
        <time>2024-11-07T12:21:16.000Z</time>
      </trkpt>
      <trkpt lat="44.14824" lon="3.20745">
        <ele>757.1</ele>
        <time>2024-11-07T12:21:19.000Z</time>
      </trkpt>
      <trkpt lat="44.14812" lon="3.20741">
        <ele>756.9</ele>
        <time>2024-11-07T12:21:22.000Z</time>
      </trkpt>
      <trkpt lat="44.14804" lon="3.20729">
        <ele>756.7</ele>
        <time>2024-11-07T12:21:25.000Z</time>
      </trkpt>
      <trkpt lat="44.14801" lon="3.20713">
        <ele>756.5</ele>
        <time>2024-11-07T12:21:28.000Z</time>
      </trkpt>
      <trkpt lat="44.14803" lon="3.20696">
        <ele>756.2</ele>
        <time>2024-11-07T12:21:31.000Z</time>
      </trkpt>
      <trkpt lat="44.14797" lon="3.20682">
        <ele>755.8</ele>
        <time>2024-11-07T12:21:34.000Z</time>
      </trkpt>
      <trkpt lat="44.14788" lon="3.2068">
        <ele>755.3</ele>
        <time>2024-11-07T12:21:38.000Z</time>
      </trkpt>
      <trkpt lat="44.1478" lon="3.20689">
        <ele>752.5</ele>
        <time>2024-11-07T12:22:44.000Z</time>
      </trkpt>
      <trkpt lat="44.1477" lon="3.20695">
        <ele>752.6</ele>
        <time>2024-11-07T12:22:47.000Z</time>
      </trkpt>
      <trkpt lat="44.14761" lon="3.20704">
        <ele>752.6</ele>
        <time>2024-11-07T12:22:51.000Z</time>
      </trkpt>
      <trkpt lat="44.14756" lon="3.20715">
        <ele>752.7</ele>
        <time>2024-11-07T12:22:56.000Z</time>
      </trkpt>
      <trkpt lat="44.14754" lon="3.20729">
        <ele>752.8</ele>
        <time>2024-11-07T12:23:02.000Z</time>
      </trkpt>
      <trkpt lat="44.14753" lon="3.20742">
        <ele>753.1</ele>
        <time>2024-11-07T12:23:07.000Z</time>
      </trkpt>
      <trkpt lat="44.14751" lon="3.20756">
        <ele>753.4</ele>
        <time>2024-11-07T12:23:12.000Z</time>
      </trkpt>
      <trkpt lat="44.1475" lon="3.20769">
        <ele>753.7</ele>
        <time>2024-11-07T12:23:16.000Z</time>
      </trkpt>
      <trkpt lat="44.14748" lon="3.20783">
        <ele>754</ele>
        <time>2024-11-07T12:23:21.000Z</time>
      </trkpt>
      <trkpt lat="44.14747" lon="3.20796">
        <ele>754.2</ele>
        <time>2024-11-07T12:23:25.000Z</time>
      </trkpt>
      <trkpt lat="44.14744" lon="3.20811">
        <ele>754.4</ele>
        <time>2024-11-07T12:23:29.000Z</time>
      </trkpt>
      <trkpt lat="44.14738" lon="3.20823">
        <ele>754.5</ele>
        <time>2024-11-07T12:23:33.000Z</time>
      </trkpt>
      <trkpt lat="44.14734" lon="3.20838">
        <ele>754.7</ele>
        <time>2024-11-07T12:23:38.000Z</time>
      </trkpt>
      <trkpt lat="44.1473" lon="3.20851">
        <ele>754.8</ele>
        <time>2024-11-07T12:23:43.000Z</time>
      </trkpt>
      <trkpt lat="44.14724" lon="3.20863">
        <ele>755.3</ele>
        <time>2024-11-07T12:23:48.000Z</time>
      </trkpt>
      <trkpt lat="44.14718" lon="3.20872">
        <ele>755.7</ele>
        <time>2024-11-07T12:23:53.000Z</time>
      </trkpt>
      <trkpt lat="44.14711" lon="3.20884">
        <ele>756.2</ele>
        <time>2024-11-07T12:23:58.000Z</time>
      </trkpt>
      <trkpt lat="44.14705" lon="3.20894">
        <ele>756.5</ele>
        <time>2024-11-07T12:24:02.000Z</time>
      </trkpt>
      <trkpt lat="44.14698" lon="3.20905">
        <ele>756.8</ele>
        <time>2024-11-07T12:24:06.000Z</time>
      </trkpt>
      <trkpt lat="44.14689" lon="3.20915">
        <ele>756.9</ele>
        <time>2024-11-07T12:24:10.000Z</time>
      </trkpt>
      <trkpt lat="44.14678" lon="3.2092">
        <ele>756.9</ele>
        <time>2024-11-07T12:24:14.000Z</time>
      </trkpt>
      <trkpt lat="44.14668" lon="3.20922">
        <ele>757</ele>
        <time>2024-11-07T12:24:17.000Z</time>
      </trkpt>
      <trkpt lat="44.14656" lon="3.20926">
        <ele>756.9</ele>
        <time>2024-11-07T12:24:20.000Z</time>
      </trkpt>
      <trkpt lat="44.14647" lon="3.20931">
        <ele>756.6</ele>
        <time>2024-11-07T12:24:22.000Z</time>
      </trkpt>
      <trkpt lat="44.14636" lon="3.20938">
        <ele>756.2</ele>
        <time>2024-11-07T12:24:24.000Z</time>
      </trkpt>
      <trkpt lat="44.14625" lon="3.20949">
        <ele>755.8</ele>
        <time>2024-11-07T12:24:26.000Z</time>
      </trkpt>
      <trkpt lat="44.14617" lon="3.20964">
        <ele>755.4</ele>
        <time>2024-11-07T12:24:28.000Z</time>
      </trkpt>
      <trkpt lat="44.14607" lon="3.20968">
        <ele>754.9</ele>
        <time>2024-11-07T12:24:31.000Z</time>
      </trkpt>
      <trkpt lat="44.14597" lon="3.20969">
        <ele>754.5</ele>
        <time>2024-11-07T12:24:37.000Z</time>
      </trkpt>
      <trkpt lat="44.14587" lon="3.20965">
        <ele>754.6</ele>
        <time>2024-11-07T12:24:44.000Z</time>
      </trkpt>
      <trkpt lat="44.14583" lon="3.20953">
        <ele>755</ele>
        <time>2024-11-07T12:24:50.000Z</time>
      </trkpt>
      <trkpt lat="44.14576" lon="3.20945">
        <ele>755.6</ele>
        <time>2024-11-07T12:24:57.000Z</time>
      </trkpt>
      <trkpt lat="44.14568" lon="3.20936">
        <ele>756.3</ele>
        <time>2024-11-07T12:25:04.000Z</time>
      </trkpt>
      <trkpt lat="44.1456" lon="3.20928">
        <ele>757.4</ele>
        <time>2024-11-07T12:25:11.000Z</time>
      </trkpt>
      <trkpt lat="44.14552" lon="3.20922">
        <ele>758.3</ele>
        <time>2024-11-07T12:25:19.000Z</time>
      </trkpt>
      <trkpt lat="44.14543" lon="3.20916">
        <ele>759.3</ele>
        <time>2024-11-07T12:25:27.000Z</time>
      </trkpt>
      <trkpt lat="44.14533" lon="3.20915">
        <ele>760.6</ele>
        <time>2024-11-07T12:25:36.000Z</time>
      </trkpt>
      <trkpt lat="44.14524" lon="3.20916">
        <ele>762.2</ele>
        <time>2024-11-07T12:25:44.000Z</time>
      </trkpt>
      <trkpt lat="44.14514" lon="3.20915">
        <ele>763.5</ele>
        <time>2024-11-07T12:25:52.000Z</time>
      </trkpt>
      <trkpt lat="44.14505" lon="3.20919">
        <ele>765</ele>
        <time>2024-11-07T12:26:00.000Z</time>
      </trkpt>
      <trkpt lat="44.14498" lon="3.20927">
        <ele>766.2</ele>
        <time>2024-11-07T12:26:07.000Z</time>
      </trkpt>
      <trkpt lat="44.14496" lon="3.2094">
        <ele>767.1</ele>
        <time>2024-11-07T12:26:13.000Z</time>
      </trkpt>
      <trkpt lat="44.14493" lon="3.20953">
        <ele>768.2</ele>
        <time>2024-11-07T12:26:20.000Z</time>
      </trkpt>
      <trkpt lat="44.14485" lon="3.20945">
        <ele>769.6</ele>
        <time>2024-11-07T12:26:29.000Z</time>
      </trkpt>
      <trkpt lat="44.14483" lon="3.20931">
        <ele>770.7</ele>
        <time>2024-11-07T12:26:36.000Z</time>
      </trkpt>
      <trkpt lat="44.14483" lon="3.20918">
        <ele>771.6</ele>
        <time>2024-11-07T12:26:43.000Z</time>
      </trkpt>
      <trkpt lat="44.14484" lon="3.20905">
        <ele>772.5</ele>
        <time>2024-11-07T12:26:49.000Z</time>
      </trkpt>
      <trkpt lat="44.14488" lon="3.20893">
        <ele>773.6</ele>
        <time>2024-11-07T12:26:56.000Z</time>
      </trkpt>
      <trkpt lat="44.14494" lon="3.20883">
        <ele>774.7</ele>
        <time>2024-11-07T12:27:02.000Z</time>
      </trkpt>
      <trkpt lat="44.145" lon="3.20874">
        <ele>775.6</ele>
        <time>2024-11-07T12:27:08.000Z</time>
      </trkpt>
      <trkpt lat="44.14503" lon="3.2086">
        <ele>776.2</ele>
        <time>2024-11-07T12:27:13.000Z</time>
      </trkpt>
      <trkpt lat="44.14499" lon="3.20847">
        <ele>776.4</ele>
        <time>2024-11-07T12:27:16.000Z</time>
      </trkpt>
      <trkpt lat="44.14498" lon="3.20833">
        <ele>776.6</ele>
        <time>2024-11-07T12:27:19.000Z</time>
      </trkpt>
      <trkpt lat="44.145" lon="3.20819">
        <ele>776.8</ele>
        <time>2024-11-07T12:27:23.000Z</time>
      </trkpt>
      <trkpt lat="44.14502" lon="3.20805">
        <ele>777</ele>
        <time>2024-11-07T12:27:27.000Z</time>
      </trkpt>
      <trkpt lat="44.14504" lon="3.2079">
        <ele>777.1</ele>
        <time>2024-11-07T12:27:32.000Z</time>
      </trkpt>
      <trkpt lat="44.14506" lon="3.20775">
        <ele>777.4</ele>
        <time>2024-11-07T12:27:37.000Z</time>
      </trkpt>
      <trkpt lat="44.14509" lon="3.20761">
        <ele>777.9</ele>
        <time>2024-11-07T12:27:42.000Z</time>
      </trkpt>
      <trkpt lat="44.14513" lon="3.20749">
        <ele>778.1</ele>
        <time>2024-11-07T12:27:46.000Z</time>
      </trkpt>
      <trkpt lat="44.14517" lon="3.20735">
        <ele>778.6</ele>
        <time>2024-11-07T12:27:51.000Z</time>
      </trkpt>
      <trkpt lat="44.14524" lon="3.20725">
        <ele>779.2</ele>
        <time>2024-11-07T12:27:57.000Z</time>
      </trkpt>
      <trkpt lat="44.14529" lon="3.20712">
        <ele>779.6</ele>
        <time>2024-11-07T12:28:02.000Z</time>
      </trkpt>
      <trkpt lat="44.14535" lon="3.207">
        <ele>780.1</ele>
        <time>2024-11-07T12:28:07.000Z</time>
      </trkpt>
      <trkpt lat="44.14544" lon="3.20691">
        <ele>780.6</ele>
        <time>2024-11-07T12:28:13.000Z</time>
      </trkpt>
      <trkpt lat="44.14553" lon="3.20685">
        <ele>781.5</ele>
        <time>2024-11-07T12:28:19.000Z</time>
      </trkpt>
      <trkpt lat="44.14561" lon="3.20677">
        <ele>782.4</ele>
        <time>2024-11-07T12:28:25.000Z</time>
      </trkpt>
      <trkpt lat="44.14567" lon="3.20667">
        <ele>783.5</ele>
        <time>2024-11-07T12:28:31.000Z</time>
      </trkpt>
      <trkpt lat="44.14572" lon="3.20655">
        <ele>784.5</ele>
        <time>2024-11-07T12:28:37.000Z</time>
      </trkpt>
      <trkpt lat="44.14579" lon="3.20647">
        <ele>785.3</ele>
        <time>2024-11-07T12:28:43.000Z</time>
      </trkpt>
      <trkpt lat="44.14587" lon="3.2064">
        <ele>786.3</ele>
        <time>2024-11-07T12:28:50.000Z</time>
      </trkpt>
      <trkpt lat="44.14593" lon="3.20629">
        <ele>787.5</ele>
        <time>2024-11-07T12:28:57.000Z</time>
      </trkpt>
      <trkpt lat="44.14597" lon="3.20617">
        <ele>788.3</ele>
        <time>2024-11-07T12:29:03.000Z</time>
      </trkpt>
      <trkpt lat="44.14605" lon="3.20608">
        <ele>789.4</ele>
        <time>2024-11-07T12:29:10.000Z</time>
      </trkpt>
      <trkpt lat="44.14613" lon="3.20602">
        <ele>790.6</ele>
        <time>2024-11-07T12:29:17.000Z</time>
      </trkpt>
      <trkpt lat="44.1462" lon="3.20592">
        <ele>792</ele>
        <time>2024-11-07T12:29:25.000Z</time>
      </trkpt>
      <trkpt lat="44.14621" lon="3.20579">
        <ele>793.3</ele>
        <time>2024-11-07T12:29:33.000Z</time>
      </trkpt>
      <trkpt lat="44.14623" lon="3.20566">
        <ele>794.4</ele>
        <time>2024-11-07T12:29:41.000Z</time>
      </trkpt>
      <trkpt lat="44.14623" lon="3.20553">
        <ele>796</ele>
        <time>2024-11-07T12:29:50.000Z</time>
      </trkpt>
      <trkpt lat="44.14621" lon="3.20539">
        <ele>797.7</ele>
        <time>2024-11-07T12:29:59.000Z</time>
      </trkpt>
      <trkpt lat="44.14619" lon="3.20526">
        <ele>798.9</ele>
        <time>2024-11-07T12:30:06.000Z</time>
      </trkpt>
      <trkpt lat="44.14614" lon="3.20515">
        <ele>800.3</ele>
        <time>2024-11-07T12:30:14.000Z</time>
      </trkpt>
      <trkpt lat="44.14612" lon="3.20501">
        <ele>801.3</ele>
        <time>2024-11-07T12:30:21.000Z</time>
      </trkpt>
      <trkpt lat="44.14615" lon="3.20487">
        <ele>802.2</ele>
        <time>2024-11-07T12:30:28.000Z</time>
      </trkpt>
      <trkpt lat="44.14616" lon="3.20474">
        <ele>803.2</ele>
        <time>2024-11-07T12:30:35.000Z</time>
      </trkpt>
      <trkpt lat="44.14616" lon="3.2046">
        <ele>803.9</ele>
        <time>2024-11-07T12:30:41.000Z</time>
      </trkpt>
      <trkpt lat="44.14617" lon="3.20446">
        <ele>804.4</ele>
        <time>2024-11-07T12:30:47.000Z</time>
      </trkpt>
      <trkpt lat="44.14619" lon="3.20433">
        <ele>805.2</ele>
        <time>2024-11-07T12:30:53.000Z</time>
      </trkpt>
      <trkpt lat="44.14622" lon="3.2042">
        <ele>806</ele>
        <time>2024-11-07T12:31:00.000Z</time>
      </trkpt>
      <trkpt lat="44.14625" lon="3.20406">
        <ele>807</ele>
        <time>2024-11-07T12:31:08.000Z</time>
      </trkpt>
      <trkpt lat="44.14628" lon="3.20406">
        <ele>808.5</ele>
        <time>2024-11-07T12:37:14.000Z</time>
      </trkpt>
      <trkpt lat="44.14637" lon="3.20403">
        <ele>809.6</ele>
        <time>2024-11-07T12:37:24.000Z</time>
      </trkpt>
      <trkpt lat="44.14642" lon="3.20391">
        <ele>811.5</ele>
        <time>2024-11-07T12:37:36.000Z</time>
      </trkpt>
      <trkpt lat="44.14641" lon="3.20377">
        <ele>813.2</ele>
        <time>2024-11-07T12:37:46.000Z</time>
      </trkpt>
      <trkpt lat="44.14638" lon="3.20365">
        <ele>815</ele>
        <time>2024-11-07T12:37:56.000Z</time>
      </trkpt>
      <trkpt lat="44.14634" lon="3.20353">
        <ele>816.8</ele>
        <time>2024-11-07T12:38:05.000Z</time>
      </trkpt>
      <trkpt lat="44.14633" lon="3.2034">
        <ele>818.1</ele>
        <time>2024-11-07T12:38:13.000Z</time>
      </trkpt>
      <trkpt lat="44.14633" lon="3.20327">
        <ele>819.2</ele>
        <time>2024-11-07T12:38:21.000Z</time>
      </trkpt>
      <trkpt lat="44.14636" lon="3.20314">
        <ele>820.9</ele>
        <time>2024-11-07T12:38:31.000Z</time>
      </trkpt>
      <trkpt lat="44.14639" lon="3.203">
        <ele>822.8</ele>
        <time>2024-11-07T12:38:41.000Z</time>
      </trkpt>
      <trkpt lat="44.1464" lon="3.20287">
        <ele>824.7</ele>
        <time>2024-11-07T12:38:51.000Z</time>
      </trkpt>
      <trkpt lat="44.1464" lon="3.20274">
        <ele>826.3</ele>
        <time>2024-11-07T12:38:59.000Z</time>
      </trkpt>
      <trkpt lat="44.1464" lon="3.20261">
        <ele>828</ele>
        <time>2024-11-07T12:39:07.000Z</time>
      </trkpt>
      <trkpt lat="44.14639" lon="3.20248">
        <ele>829.4</ele>
        <time>2024-11-07T12:39:14.000Z</time>
      </trkpt>
      <trkpt lat="44.14639" lon="3.20236">
        <ele>830.2</ele>
        <time>2024-11-07T12:39:19.000Z</time>
      </trkpt>
      <trkpt lat="44.14639" lon="3.20221">
        <ele>830.8</ele>
        <time>2024-11-07T12:39:24.000Z</time>
      </trkpt>
      <trkpt lat="44.14639" lon="3.20207">
        <ele>831.3</ele>
        <time>2024-11-07T12:39:29.000Z</time>
      </trkpt>
      <trkpt lat="44.14636" lon="3.20194">
        <ele>831.6</ele>
        <time>2024-11-07T12:39:33.000Z</time>
      </trkpt>
      <trkpt lat="44.14635" lon="3.20182">
        <ele>831.9</ele>
        <time>2024-11-07T12:39:37.000Z</time>
      </trkpt>
      <trkpt lat="44.14632" lon="3.2017">
        <ele>832.2</ele>
        <time>2024-11-07T12:39:41.000Z</time>
      </trkpt>
      <trkpt lat="44.14635" lon="3.20157">
        <ele>832.4</ele>
        <time>2024-11-07T12:39:45.000Z</time>
      </trkpt>
      <trkpt lat="44.1464" lon="3.20146">
        <ele>832.5</ele>
        <time>2024-11-07T12:39:49.000Z</time>
      </trkpt>
      <trkpt lat="44.14647" lon="3.20135">
        <ele>832.7</ele>
        <time>2024-11-07T12:39:53.000Z</time>
      </trkpt>
      <trkpt lat="44.14656" lon="3.20124">
        <ele>832.8</ele>
        <time>2024-11-07T12:39:57.000Z</time>
      </trkpt>
      <trkpt lat="44.14664" lon="3.20111">
        <ele>832.8</ele>
        <time>2024-11-07T12:40:01.000Z</time>
      </trkpt>
      <trkpt lat="44.14668" lon="3.20099">
        <ele>832.9</ele>
        <time>2024-11-07T12:40:04.000Z</time>
      </trkpt>
      <trkpt lat="44.14672" lon="3.20085">
        <ele>832.9</ele>
        <time>2024-11-07T12:40:07.000Z</time>
      </trkpt>
      <trkpt lat="44.14675" lon="3.20071">
        <ele>833</ele>
        <time>2024-11-07T12:40:10.000Z</time>
      </trkpt>
      <trkpt lat="44.14678" lon="3.20055">
        <ele>833</ele>
        <time>2024-11-07T12:40:13.000Z</time>
      </trkpt>
      <trkpt lat="44.14679" lon="3.20037">
        <ele>833</ele>
        <time>2024-11-07T12:40:16.000Z</time>
      </trkpt>
      <trkpt lat="44.14678" lon="3.2002">
        <ele>832.9</ele>
        <time>2024-11-07T12:40:19.000Z</time>
      </trkpt>
      <trkpt lat="44.14679" lon="3.20004">
        <ele>832.8</ele>
        <time>2024-11-07T12:40:22.000Z</time>
      </trkpt>
      <trkpt lat="44.1468" lon="3.19988">
        <ele>832.7</ele>
        <time>2024-11-07T12:40:25.000Z</time>
      </trkpt>
      <trkpt lat="44.14679" lon="3.19972">
        <ele>832.6</ele>
        <time>2024-11-07T12:40:28.000Z</time>
      </trkpt>
      <trkpt lat="44.14678" lon="3.19957">
        <ele>832.5</ele>
        <time>2024-11-07T12:40:31.000Z</time>
      </trkpt>
      <trkpt lat="44.1468" lon="3.19944">
        <ele>832.4</ele>
        <time>2024-11-07T12:40:35.000Z</time>
      </trkpt>
      <trkpt lat="44.14681" lon="3.19929">
        <ele>832.3</ele>
        <time>2024-11-07T12:40:40.000Z</time>
      </trkpt>
      <trkpt lat="44.14683" lon="3.19917">
        <ele>832.2</ele>
        <time>2024-11-07T12:40:43.000Z</time>
      </trkpt>
      <trkpt lat="44.14684" lon="3.19904">
        <ele>832.1</ele>
        <time>2024-11-07T12:40:46.000Z</time>
      </trkpt>
      <trkpt lat="44.14682" lon="3.19889">
        <ele>831.9</ele>
        <time>2024-11-07T12:40:50.000Z</time>
      </trkpt>
      <trkpt lat="44.14677" lon="3.19877">
        <ele>831.8</ele>
        <time>2024-11-07T12:40:54.000Z</time>
      </trkpt>
      <trkpt lat="44.14683" lon="3.19865">
        <ele>831.2</ele>
        <time>2024-11-07T12:41:44.000Z</time>
      </trkpt>
      <trkpt lat="44.14691" lon="3.19854">
        <ele>831.2</ele>
        <time>2024-11-07T12:41:49.000Z</time>
      </trkpt>
      <trkpt lat="44.14697" lon="3.19845">
        <ele>831.2</ele>
        <time>2024-11-07T12:41:54.000Z</time>
      </trkpt>
      <trkpt lat="44.14704" lon="3.19835">
        <ele>831.2</ele>
        <time>2024-11-07T12:41:59.000Z</time>
      </trkpt>
      <trkpt lat="44.1471" lon="3.19822">
        <ele>831.2</ele>
        <time>2024-11-07T12:42:03.000Z</time>
      </trkpt>
      <trkpt lat="44.14716" lon="3.19811">
        <ele>831.2</ele>
        <time>2024-11-07T12:42:06.000Z</time>
      </trkpt>
      <trkpt lat="44.14724" lon="3.19802">
        <ele>831.2</ele>
        <time>2024-11-07T12:42:09.000Z</time>
      </trkpt>
      <trkpt lat="44.14732" lon="3.19792">
        <ele>831.2</ele>
        <time>2024-11-07T12:42:12.000Z</time>
      </trkpt>
      <trkpt lat="44.14738" lon="3.19782">
        <ele>831.1</ele>
        <time>2024-11-07T12:42:15.000Z</time>
      </trkpt>
      <trkpt lat="44.14743" lon="3.19768">
        <ele>831.1</ele>
        <time>2024-11-07T12:42:18.000Z</time>
      </trkpt>
      <trkpt lat="44.14747" lon="3.19755">
        <ele>831.1</ele>
        <time>2024-11-07T12:42:21.000Z</time>
      </trkpt>
      <trkpt lat="44.1475" lon="3.19741">
        <ele>831.1</ele>
        <time>2024-11-07T12:42:24.000Z</time>
      </trkpt>
      <trkpt lat="44.14755" lon="3.19727">
        <ele>831.1</ele>
        <time>2024-11-07T12:42:27.000Z</time>
      </trkpt>
      <trkpt lat="44.14759" lon="3.19714">
        <ele>831.1</ele>
        <time>2024-11-07T12:42:30.000Z</time>
      </trkpt>
      <trkpt lat="44.14763" lon="3.19701">
        <ele>831</ele>
        <time>2024-11-07T12:42:33.000Z</time>
      </trkpt>
      <trkpt lat="44.14767" lon="3.19688">
        <ele>831</ele>
        <time>2024-11-07T12:42:36.000Z</time>
      </trkpt>
      <trkpt lat="44.14771" lon="3.19675">
        <ele>831</ele>
        <time>2024-11-07T12:42:39.000Z</time>
      </trkpt>
      <trkpt lat="44.14777" lon="3.19663">
        <ele>831</ele>
        <time>2024-11-07T12:42:42.000Z</time>
      </trkpt>
      <trkpt lat="44.14782" lon="3.1965">
        <ele>831</ele>
        <time>2024-11-07T12:42:45.000Z</time>
      </trkpt>
      <trkpt lat="44.14788" lon="3.19639">
        <ele>831</ele>
        <time>2024-11-07T12:42:48.000Z</time>
      </trkpt>
      <trkpt lat="44.14794" lon="3.19628">
        <ele>831</ele>
        <time>2024-11-07T12:42:51.000Z</time>
      </trkpt>
      <trkpt lat="44.14799" lon="3.19616">
        <ele>831</ele>
        <time>2024-11-07T12:42:54.000Z</time>
      </trkpt>
      <trkpt lat="44.14803" lon="3.19604">
        <ele>831</ele>
        <time>2024-11-07T12:42:57.000Z</time>
      </trkpt>
      <trkpt lat="44.14805" lon="3.1959">
        <ele>831</ele>
        <time>2024-11-07T12:43:00.000Z</time>
      </trkpt>
      <trkpt lat="44.14804" lon="3.19577">
        <ele>831.1</ele>
        <time>2024-11-07T12:43:03.000Z</time>
      </trkpt>
      <trkpt lat="44.14802" lon="3.1956">
        <ele>831.3</ele>
        <time>2024-11-07T12:43:07.000Z</time>
      </trkpt>
      <trkpt lat="44.14799" lon="3.19546">
        <ele>831.5</ele>
        <time>2024-11-07T12:43:11.000Z</time>
      </trkpt>
      <trkpt lat="44.14794" lon="3.19534">
        <ele>831.6</ele>
        <time>2024-11-07T12:43:15.000Z</time>
      </trkpt>
      <trkpt lat="44.14787" lon="3.19522">
        <ele>831.8</ele>
        <time>2024-11-07T12:43:20.000Z</time>
      </trkpt>
      <trkpt lat="44.14784" lon="3.19506">
        <ele>832</ele>
        <time>2024-11-07T12:43:24.000Z</time>
      </trkpt>
      <trkpt lat="44.14784" lon="3.19489">
        <ele>832</ele>
        <time>2024-11-07T12:43:27.000Z</time>
      </trkpt>
      <trkpt lat="44.14784" lon="3.19477">
        <ele>832</ele>
        <time>2024-11-07T12:43:29.000Z</time>
      </trkpt>
      <trkpt lat="44.14785" lon="3.19462">
        <ele>832</ele>
        <time>2024-11-07T12:43:31.000Z</time>
      </trkpt>
      <trkpt lat="44.14785" lon="3.19447">
        <ele>831.9</ele>
        <time>2024-11-07T12:43:33.000Z</time>
      </trkpt>
      <trkpt lat="44.14786" lon="3.19431">
        <ele>831.7</ele>
        <time>2024-11-07T12:43:35.000Z</time>
      </trkpt>
      <trkpt lat="44.14787" lon="3.19415">
        <ele>831.6</ele>
        <time>2024-11-07T12:43:37.000Z</time>
      </trkpt>
      <trkpt lat="44.14787" lon="3.19399">
        <ele>831.5</ele>
        <time>2024-11-07T12:43:39.000Z</time>
      </trkpt>
      <trkpt lat="44.14788" lon="3.19382">
        <ele>831.4</ele>
        <time>2024-11-07T12:43:41.000Z</time>
      </trkpt>
      <trkpt lat="44.14789" lon="3.19366">
        <ele>831.2</ele>
        <time>2024-11-07T12:43:43.000Z</time>
      </trkpt>
      <trkpt lat="44.1479" lon="3.1935">
        <ele>831.1</ele>
        <time>2024-11-07T12:43:45.000Z</time>
      </trkpt>
      <trkpt lat="44.1479" lon="3.19334">
        <ele>831</ele>
        <time>2024-11-07T12:43:47.000Z</time>
      </trkpt>
      <trkpt lat="44.1479" lon="3.19319">
        <ele>830.9</ele>
        <time>2024-11-07T12:43:49.000Z</time>
      </trkpt>
      <trkpt lat="44.1479" lon="3.19305">
        <ele>830.8</ele>
        <time>2024-11-07T12:43:51.000Z</time>
      </trkpt>
      <trkpt lat="44.14789" lon="3.19292">
        <ele>830.8</ele>
        <time>2024-11-07T12:43:53.000Z</time>
      </trkpt>
    </trkseg>
  </trk>
</gpx>